<?xml version="1.0" encoding="UTF-8" standalone="no" ?>
<gpx xmlns="http://www.topografix.com/GPX/1/1" xmlns:xsi="http://www.w3.org/2001/XMLSchema-instance" xsi:schemaLocation="http://www.topografix.com/GPX/1/1 http://www.topografix.com/GPX/1/1/gpx.xsd" version="1.1" creator="VisuGPX - https://www.visugpx.com">
  <metadata>
    <name>Turquie_100points</name>
  </metadata>
  <trk>
    <name><![CDATA[mer-ant]]></name>
    <extensions>
      <line xmlns="http://www.topografix.com/GPX/gpx_style/0/2">
        <color>888800</color>
        <width>4</width>
      </line>
    </extensions>
    <trkseg>
      <trkpt lat="36.81297" lon="34.63037">
        <ele>17.833674</ele>
        <time>2022-02-24T07:55:47.103Z</time>
      </trkpt>
      <trkpt lat="36.81248" lon="34.62941">
        <ele>17.836762</ele>
        <time>2022-02-24T07:56:10.316Z</time>
      </trkpt>
      <trkpt lat="36.81244" lon="34.62934">
        <ele>17.853646</ele>
        <time>2022-02-24T07:56:12.056Z</time>
      </trkpt>
      <trkpt lat="36.81244" lon="34.62917">
        <ele>17.88635</ele>
        <time>2022-02-24T07:56:15.683Z</time>
      </trkpt>
      <trkpt lat="36.812" lon="34.62909">
        <ele>17.993558</ele>
        <time>2022-02-24T07:56:26.558Z</time>
      </trkpt>
      <trkpt lat="36.81175" lon="34.62891">
        <ele>18.064586</ele>
        <time>2022-02-24T07:56:34.350Z</time>
      </trkpt>
      <trkpt lat="36.81158" lon="34.62879">
        <ele>18.111262</ele>
        <time>2022-02-24T07:56:39.604Z</time>
      </trkpt>
      <trkpt lat="36.81155" lon="34.62875">
        <ele>18.122486</ele>
        <time>2022-02-24T07:56:40.911Z</time>
      </trkpt>
      <trkpt lat="36.81142" lon="34.62873">
        <ele>18.154552</ele>
        <time>2022-02-24T07:56:45.101Z</time>
      </trkpt>
      <trkpt lat="36.81138" lon="34.62876">
        <ele>18.16549</ele>
        <time>2022-02-24T07:56:46.374Z</time>
      </trkpt>
      <trkpt lat="36.81135" lon="34.6288">
        <ele>18.176611</ele>
        <time>2022-02-24T07:56:47.691Z</time>
      </trkpt>
      <trkpt lat="36.81087" lon="34.62883">
        <ele>18.439763</ele>
        <time>2022-02-24T07:57:03.753Z</time>
      </trkpt>
      <trkpt lat="36.81056" lon="34.62889">
        <ele>19.006958</ele>
        <time>2022-02-24T07:57:14.125Z</time>
      </trkpt>
      <trkpt lat="36.81048" lon="34.62892">
        <ele>19.167511</ele>
        <time>2022-02-24T07:57:17.228Z</time>
      </trkpt>
      <trkpt lat="36.81039" lon="34.62897">
        <ele>19.350018</ele>
        <time>2022-02-24T07:57:20.782Z</time>
      </trkpt>
      <trkpt lat="36.81032" lon="34.629">
        <ele>19.492733</ele>
        <time>2022-02-24T07:57:23.364Z</time>
      </trkpt>
      <trkpt lat="36.80995" lon="34.6289">
        <ele>20.192808</ele>
        <time>2022-02-24T07:57:37.217Z</time>
      </trkpt>
      <trkpt lat="36.80973" lon="34.62885">
        <ele>20.606128</ele>
        <time>2022-02-24T07:57:46.058Z</time>
      </trkpt>
      <trkpt lat="36.8094" lon="34.62878">
        <ele>21.219353</ele>
        <time>2022-02-24T07:57:59.663Z</time>
      </trkpt>
      <trkpt lat="36.80927" lon="34.62847">
        <ele>21.667111</ele>
        <time>2022-02-24T07:58:11.007Z</time>
      </trkpt>
      <trkpt lat="36.80904" lon="34.62796">
        <ele>22.087275</ele>
        <time>2022-02-24T07:58:28.408Z</time>
      </trkpt>
      <trkpt lat="36.80863" lon="34.62706">
        <ele>22.828946</ele>
        <time>2022-02-24T07:58:54.100Z</time>
      </trkpt>
      <trkpt lat="36.80821" lon="34.62613">
        <ele>22.921469</ele>
        <time>2022-02-24T07:59:16.974Z</time>
      </trkpt>
      <trkpt lat="36.80799" lon="34.62546">
        <ele>22.540777</ele>
        <time>2022-02-24T07:59:31.036Z</time>
      </trkpt>
      <trkpt lat="36.80781" lon="34.62498">
        <ele>22.261296</ele>
        <time>2022-02-24T07:59:40.760Z</time>
      </trkpt>
      <trkpt lat="36.80761" lon="34.62442">
        <ele>22.013511</ele>
        <time>2022-02-24T07:59:53.211Z</time>
      </trkpt>
      <trkpt lat="36.80749" lon="34.62407">
        <ele>22.001994</ele>
        <time>2022-02-24T08:00:02.200Z</time>
      </trkpt>
      <trkpt lat="36.80732" lon="34.62357">
        <ele>21.985621</ele>
        <time>2022-02-24T08:00:14.307Z</time>
      </trkpt>
      <trkpt lat="36.80713" lon="34.62307">
        <ele>21.969149</ele>
        <time>2022-02-24T08:00:26.405Z</time>
      </trkpt>
      <trkpt lat="36.8069" lon="34.62241">
        <ele>21.97094</ele>
        <time>2022-02-24T08:00:42.944Z</time>
      </trkpt>
      <trkpt lat="36.80658" lon="34.62148">
        <ele>22.147904</ele>
        <time>2022-02-24T08:01:07.336Z</time>
      </trkpt>
      <trkpt lat="36.80624" lon="34.6211">
        <ele>22.249525</ele>
        <time>2022-02-24T08:01:21.149Z</time>
      </trkpt>
      <trkpt lat="36.80606" lon="34.62094">
        <ele>22.295994</ele>
        <time>2022-02-24T08:01:27.023Z</time>
      </trkpt>
      <trkpt lat="36.80567" lon="34.6206">
        <ele>22.243489</ele>
        <time>2022-02-24T08:01:39.630Z</time>
      </trkpt>
      <trkpt lat="36.80609" lon="34.61982">
        <ele>21.942293</ele>
        <time>2022-02-24T08:01:59.466Z</time>
      </trkpt>
      <trkpt lat="36.80627" lon="34.61947">
        <ele>21.809167</ele>
        <time>2022-02-24T08:02:08.202Z</time>
      </trkpt>
      <trkpt lat="36.80575" lon="34.61907">
        <ele>21.495833</ele>
        <time>2022-02-24T08:02:23.651Z</time>
      </trkpt>
      <trkpt lat="36.80569" lon="34.61919">
        <ele>21.397789</ele>
        <time>2022-02-24T08:02:26.464Z</time>
      </trkpt>
      <trkpt lat="36.80483" lon="34.61845">
        <ele>20.501879</ele>
        <time>2022-02-24T08:02:51.675Z</time>
      </trkpt>
      <trkpt lat="36.80399" lon="34.61778">
        <ele>19.832641</ele>
        <time>2022-02-24T08:03:16.600Z</time>
      </trkpt>
      <trkpt lat="36.80337" lon="34.6173">
        <ele>19.48105</ele>
        <time>2022-02-24T08:03:35.320Z</time>
      </trkpt>
      <trkpt lat="36.80362" lon="34.61664">
        <ele>19.215867</ele>
        <time>2022-02-24T08:03:50.696Z</time>
      </trkpt>
      <trkpt lat="36.80272" lon="34.61633">
        <ele>19.451627</ele>
        <time>2022-02-24T08:04:16.348Z</time>
      </trkpt>
      <trkpt lat="36.80236" lon="34.61617">
        <ele>19.548095</ele>
        <time>2022-02-24T08:04:27.622Z</time>
      </trkpt>
      <trkpt lat="36.80269" lon="34.61547">
        <ele>19.801652</ele>
        <time>2022-02-24T08:04:46.652Z</time>
      </trkpt>
      <trkpt lat="36.80277" lon="34.61538">
        <ele>19.875137</ele>
        <time>2022-02-24T08:04:49.797Z</time>
      </trkpt>
      <trkpt lat="36.80285" lon="34.6153">
        <ele>19.948092</ele>
        <time>2022-02-24T08:04:53.027Z</time>
      </trkpt>
      <trkpt lat="36.80296" lon="34.61517">
        <ele>20.046249</ele>
        <time>2022-02-24T08:04:57.387Z</time>
      </trkpt>
      <trkpt lat="36.80309" lon="34.61496">
        <ele>20.195005</ele>
        <time>2022-02-24T08:05:04.159Z</time>
      </trkpt>
      <trkpt lat="36.80265" lon="34.61449">
        <ele>20.590445</ele>
        <time>2022-02-24T08:05:22.965Z</time>
      </trkpt>
      <trkpt lat="36.80236" lon="34.61415">
        <ele>20.865304</ele>
        <time>2022-02-24T08:05:35.354Z</time>
      </trkpt>
      <trkpt lat="36.80206" lon="34.61385">
        <ele>20.742318</ele>
        <time>2022-02-24T08:05:46.200Z</time>
      </trkpt>
      <trkpt lat="36.80161" lon="34.61342">
        <ele>20.464854</ele>
        <time>2022-02-24T08:06:00.937Z</time>
      </trkpt>
      <trkpt lat="36.80129" lon="34.61308">
        <ele>20.262417</ele>
        <time>2022-02-24T08:06:11.178Z</time>
      </trkpt>
      <trkpt lat="36.80101" lon="34.61272">
        <ele>20.068722</ele>
        <time>2022-02-24T08:06:20.861Z</time>
      </trkpt>
      <trkpt lat="36.80073" lon="34.61237">
        <ele>19.701316</ele>
        <time>2022-02-24T08:06:30.575Z</time>
      </trkpt>
      <trkpt lat="36.80051" lon="34.61215">
        <ele>19.411335</ele>
        <time>2022-02-24T08:06:37.469Z</time>
      </trkpt>
      <trkpt lat="36.8004" lon="34.61209">
        <ele>19.289755</ele>
        <time>2022-02-24T08:06:40.258Z</time>
      </trkpt>
      <trkpt lat="36.80025" lon="34.612">
        <ele>19.118004</ele>
        <time>2022-02-24T08:06:44.375Z</time>
      </trkpt>
      <trkpt lat="36.79996" lon="34.61185">
        <ele>18.791587</ele>
        <time>2022-02-24T08:06:51.994Z</time>
      </trkpt>
      <trkpt lat="36.79999" lon="34.61174">
        <ele>18.692359</ele>
        <time>2022-02-24T08:06:54.130Z</time>
      </trkpt>
      <trkpt lat="36.79964" lon="34.61175">
        <ele>18.330391</ele>
        <time>2022-02-24T08:07:02.429Z</time>
      </trkpt>
      <trkpt lat="36.79954" lon="34.61178">
        <ele>18.221913</ele>
        <time>2022-02-24T08:07:04.929Z</time>
      </trkpt>
      <trkpt lat="36.79935" lon="34.61179">
        <ele>18.017335</ele>
        <time>2022-02-24T08:07:09.568Z</time>
      </trkpt>
      <trkpt lat="36.79926" lon="34.6118">
        <ele>17.913747</ele>
        <time>2022-02-24T08:07:11.789Z</time>
      </trkpt>
      <trkpt lat="36.79891" lon="34.61181">
        <ele>17.52652</ele>
        <time>2022-02-24T08:07:20.385Z</time>
      </trkpt>
      <trkpt lat="36.79887" lon="34.61181">
        <ele>17.479767</ele>
        <time>2022-02-24T08:07:21.433Z</time>
      </trkpt>
      <trkpt lat="36.79872" lon="34.6119">
        <ele>17.295795</ele>
        <time>2022-02-24T08:07:25.523Z</time>
      </trkpt>
      <trkpt lat="36.79853" lon="34.61153">
        <ele>16.90457</ele>
        <time>2022-02-24T08:07:34.050Z</time>
      </trkpt>
      <trkpt lat="36.79846" lon="34.61141">
        <ele>16.774046</ele>
        <time>2022-02-24T08:07:36.684Z</time>
      </trkpt>
      <trkpt lat="36.79841" lon="34.6113">
        <ele>16.659575</ele>
        <time>2022-02-24T08:07:39.189Z</time>
      </trkpt>
      <trkpt lat="36.79824" lon="34.61099">
        <ele>16.329372</ele>
        <time>2022-02-24T08:07:46.112Z</time>
      </trkpt>
      <trkpt lat="36.79813" lon="34.61078">
        <ele>16.133933</ele>
        <time>2022-02-24T08:07:50.867Z</time>
      </trkpt>
      <trkpt lat="36.79806" lon="34.61064">
        <ele>16.04191</ele>
        <time>2022-02-24T08:07:53.996Z</time>
      </trkpt>
      <trkpt lat="36.7979" lon="34.61033">
        <ele>15.850813</ele>
        <time>2022-02-24T08:08:00.970Z</time>
      </trkpt>
      <trkpt lat="36.79774" lon="34.60996">
        <ele>15.633163</ele>
        <time>2022-02-24T08:08:09.096Z</time>
      </trkpt>
      <trkpt lat="36.7977" lon="34.60989">
        <ele>15.58714</ele>
        <time>2022-02-24T08:08:10.686Z</time>
      </trkpt>
      <trkpt lat="36.7976" lon="34.60977">
        <ele>15.495884</ele>
        <time>2022-02-24T08:08:14.387Z</time>
      </trkpt>
      <trkpt lat="36.79706" lon="34.61013">
        <ele>15.102604</ele>
        <time>2022-02-24T08:08:30.366Z</time>
      </trkpt>
      <trkpt lat="36.79648" lon="34.61052">
        <ele>15.190587</ele>
        <time>2022-02-24T08:08:50.319Z</time>
      </trkpt>
      <trkpt lat="36.79616" lon="34.61072">
        <ele>15.324723</ele>
        <time>2022-02-24T08:09:01.025Z</time>
      </trkpt>
      <trkpt lat="36.79608" lon="34.61069">
        <ele>15.359085</ele>
        <time>2022-02-24T08:09:03.812Z</time>
      </trkpt>
      <trkpt lat="36.79603" lon="34.6105">
        <ele>15.421938</ele>
        <time>2022-02-24T08:09:08.926Z</time>
      </trkpt>
      <trkpt lat="36.79587" lon="34.6102">
        <ele>15.530369</ele>
        <time>2022-02-24T08:09:17.720Z</time>
      </trkpt>
      <trkpt lat="36.79574" lon="34.60991">
        <ele>15.631923</ele>
        <time>2022-02-24T08:09:25.867Z</time>
      </trkpt>
      <trkpt lat="36.79554" lon="34.60959">
        <ele>15.571926</ele>
        <time>2022-02-24T08:09:35.053Z</time>
      </trkpt>
      <trkpt lat="36.79535" lon="34.60991">
        <ele>15.394869</ele>
        <time>2022-02-24T08:09:43.280Z</time>
      </trkpt>
      <trkpt lat="36.79492" lon="34.60947">
        <ele>15.085005</ele>
        <time>2022-02-24T08:09:57.385Z</time>
      </trkpt>
      <trkpt lat="36.79464" lon="34.60918">
        <ele>14.878995</ele>
        <time>2022-02-24T08:10:06.091Z</time>
      </trkpt>
      <trkpt lat="36.7942" lon="34.60868">
        <ele>14.665101</ele>
        <time>2022-02-24T08:10:20.398Z</time>
      </trkpt>
      <trkpt lat="36.7941" lon="34.60891">
        <ele>14.65711</ele>
        <time>2022-02-24T08:10:25.890Z</time>
      </trkpt>
      <trkpt lat="36.79405" lon="34.60906">
        <ele>14.651891</ele>
        <time>2022-02-24T08:10:29.451Z</time>
      </trkpt>
      <trkpt lat="36.79397" lon="34.60898">
        <ele>14.648026</ele>
        <time>2022-02-24T08:10:33.727Z</time>
      </trkpt>
      <trkpt lat="36.79364" lon="34.60869">
        <ele>14.632309</ele>
        <time>2022-02-24T08:10:52.119Z</time>
      </trkpt>
      <trkpt lat="36.7936" lon="34.60865">
        <ele>14.630272</ele>
        <time>2022-02-24T08:10:54.734Z</time>
      </trkpt>
      <trkpt lat="36.79366" lon="34.60845">
        <ele>14.623655</ele>
        <time>2022-02-24T08:10:59.824Z</time>
      </trkpt>
      <trkpt lat="36.79351" lon="34.608">
        <ele>14.608302</ele>
        <time>2022-02-24T08:11:12.125Z</time>
      </trkpt>
      <trkpt lat="36.79339" lon="34.60777">
        <ele>14.680079</ele>
        <time>2022-02-24T08:11:19.163Z</time>
      </trkpt>
      <trkpt lat="36.79296" lon="34.60703">
        <ele>15.138797</ele>
        <time>2022-02-24T08:11:39.522Z</time>
      </trkpt>
      <trkpt lat="36.79263" lon="34.60649">
        <ele>15.482267</ele>
        <time>2022-02-24T08:11:56.581Z</time>
      </trkpt>
      <trkpt lat="36.79251" lon="34.60628">
        <ele>15.608715</ele>
        <time>2022-02-24T08:12:03.283Z</time>
      </trkpt>
      <trkpt lat="36.79234" lon="34.60606">
        <ele>15.785752</ele>
        <time>2022-02-24T08:12:11.294Z</time>
      </trkpt>
      <trkpt lat="36.79211" lon="34.60575">
        <ele>16.188649</ele>
        <time>2022-02-24T08:12:22.995Z</time>
      </trkpt>
      <trkpt lat="36.79204" lon="34.60566">
        <ele>16.30826</ele>
        <time>2022-02-24T08:12:26.616Z</time>
      </trkpt>
      <trkpt lat="36.792" lon="34.60551">
        <ele>16.453996</ele>
        <time>2022-02-24T08:12:30.907Z</time>
      </trkpt>
      <trkpt lat="36.79199" lon="34.60548">
        <ele>16.485496</ele>
        <time>2022-02-24T08:12:31.837Z</time>
      </trkpt>
      <trkpt lat="36.79192" lon="34.60527">
        <ele>16.700394</ele>
        <time>2022-02-24T08:12:37.786Z</time>
      </trkpt>
      <trkpt lat="36.79151" lon="34.60388">
        <ele>17.942092</ele>
        <time>2022-02-24T08:13:17.165Z</time>
      </trkpt>
      <trkpt lat="36.79148" lon="34.60378">
        <ele>17.981119</ele>
        <time>2022-02-24T08:13:20.314Z</time>
      </trkpt>
      <trkpt lat="36.7913" lon="34.60318">
        <ele>18.203197</ele>
        <time>2022-02-24T08:13:37.338Z</time>
      </trkpt>
      <trkpt lat="36.791" lon="34.60226">
        <ele>18.546973</ele>
        <time>2022-02-24T08:14:00.551Z</time>
      </trkpt>
      <trkpt lat="36.79094" lon="34.6021">
        <ele>18.610104</ele>
        <time>2022-02-24T08:14:04.250Z</time>
      </trkpt>
      <trkpt lat="36.79087" lon="34.60196">
        <ele>18.564815</ele>
        <time>2022-02-24T08:14:07.290Z</time>
      </trkpt>
      <trkpt lat="36.79076" lon="34.60178">
        <ele>18.387606</ele>
        <time>2022-02-24T08:14:11.663Z</time>
      </trkpt>
      <trkpt lat="36.7906" lon="34.6016">
        <ele>18.186181</ele>
        <time>2022-02-24T08:14:16.667Z</time>
      </trkpt>
      <trkpt lat="36.79037" lon="34.60151">
        <ele>17.959809</ele>
        <time>2022-02-24T08:14:22.310Z</time>
      </trkpt>
      <trkpt lat="36.79014" lon="34.60129">
        <ele>17.680543</ele>
        <time>2022-02-24T08:14:29.388Z</time>
      </trkpt>
      <trkpt lat="36.79" lon="34.60112">
        <ele>17.500692</ele>
        <time>2022-02-24T08:14:33.985Z</time>
      </trkpt>
      <trkpt lat="36.78974" lon="34.60077">
        <ele>17.130114</ele>
        <time>2022-02-24T08:14:43.552Z</time>
      </trkpt>
      <trkpt lat="36.78957" lon="34.60053">
        <ele>16.886627</ele>
        <time>2022-02-24T08:14:49.762Z</time>
      </trkpt>
      <trkpt lat="36.78846" lon="34.59831">
        <ele>14.778848</ele>
        <time>2022-02-24T08:15:40.134Z</time>
      </trkpt>
      <trkpt lat="36.78822" lon="34.5978">
        <ele>14.389492</ele>
        <time>2022-02-24T08:15:51.645Z</time>
      </trkpt>
      <trkpt lat="36.78792" lon="34.59725">
        <ele>13.958389</ele>
        <time>2022-02-24T08:16:04.656Z</time>
      </trkpt>
      <trkpt lat="36.78763" lon="34.5967">
        <ele>13.600095</ele>
        <time>2022-02-24T08:16:17.996Z</time>
      </trkpt>
      <trkpt lat="36.78702" lon="34.59551">
        <ele>13.841638</ele>
        <time>2022-02-24T08:16:50.171Z</time>
      </trkpt>
      <trkpt lat="36.78681" lon="34.5951">
        <ele>13.924151</ele>
        <time>2022-02-24T08:17:02.050Z</time>
      </trkpt>
      <trkpt lat="36.78675" lon="34.59492">
        <ele>13.957393</ele>
        <time>2022-02-24T08:17:06.936Z</time>
      </trkpt>
      <trkpt lat="36.78673" lon="34.59475">
        <ele>14.008774</ele>
        <time>2022-02-24T08:17:10.972Z</time>
      </trkpt>
      <trkpt lat="36.78677" lon="34.59463">
        <ele>14.05539</ele>
        <time>2022-02-24T08:17:14.329Z</time>
      </trkpt>
      <trkpt lat="36.78678" lon="34.59459">
        <ele>14.071919</ele>
        <time>2022-02-24T08:17:15.491Z</time>
      </trkpt>
      <trkpt lat="36.78679" lon="34.59452">
        <ele>14.097332</ele>
        <time>2022-02-24T08:17:17.158Z</time>
      </trkpt>
      <trkpt lat="36.78674" lon="34.59437">
        <ele>14.155058</ele>
        <time>2022-02-24T08:17:20.926Z</time>
      </trkpt>
      <trkpt lat="36.7867" lon="34.59434">
        <ele>14.180396</ele>
        <time>2022-02-24T08:17:22.568Z</time>
      </trkpt>
      <trkpt lat="36.78666" lon="34.59432">
        <ele>14.199631</ele>
        <time>2022-02-24T08:17:23.950Z</time>
      </trkpt>
      <trkpt lat="36.78661" lon="34.59429">
        <ele>14.223636</ele>
        <time>2022-02-24T08:17:25.765Z</time>
      </trkpt>
      <trkpt lat="36.78645" lon="34.59402">
        <ele>14.343059</ele>
        <time>2022-02-24T08:17:33.680Z</time>
      </trkpt>
      <trkpt lat="36.78608" lon="34.59304">
        <ele>14.736969</ele>
        <time>2022-02-24T08:17:59.552Z</time>
      </trkpt>
      <trkpt lat="36.786" lon="34.59278">
        <ele>14.634674</ele>
        <time>2022-02-24T08:18:04.933Z</time>
      </trkpt>
      <trkpt lat="36.78591" lon="34.59252">
        <ele>14.365965</ele>
        <time>2022-02-24T08:18:10.254Z</time>
      </trkpt>
      <trkpt lat="36.78549" lon="34.59136">
        <ele>13.139463</ele>
        <time>2022-02-24T08:18:33.522Z</time>
      </trkpt>
      <trkpt lat="36.78547" lon="34.59129">
        <ele>13.056517</ele>
        <time>2022-02-24T08:18:34.872Z</time>
      </trkpt>
      <trkpt lat="36.78532" lon="34.59087">
        <ele>12.616829</ele>
        <time>2022-02-24T08:18:42.552Z</time>
      </trkpt>
      <trkpt lat="36.78504" lon="34.59004">
        <ele>11.644821</ele>
        <time>2022-02-24T08:18:57.471Z</time>
      </trkpt>
      <trkpt lat="36.78499" lon="34.58988">
        <ele>11.471491</ele>
        <time>2022-02-24T08:19:00.240Z</time>
      </trkpt>
      <trkpt lat="36.78496" lon="34.58961">
        <ele>11.16703</ele>
        <time>2022-02-24T08:19:05.042Z</time>
      </trkpt>
      <trkpt lat="36.78498" lon="34.58953">
        <ele>11.083009</ele>
        <time>2022-02-24T08:19:06.501Z</time>
      </trkpt>
      <trkpt lat="36.78498" lon="34.58943">
        <ele>10.978647</ele>
        <time>2022-02-24T08:19:08.230Z</time>
      </trkpt>
      <trkpt lat="36.78488" lon="34.58926">
        <ele>10.753213</ele>
        <time>2022-02-24T08:19:12.218Z</time>
      </trkpt>
      <trkpt lat="36.78481" lon="34.58923">
        <ele>10.656854</ele>
        <time>2022-02-24T08:19:13.879Z</time>
      </trkpt>
      <trkpt lat="36.78475" lon="34.5892">
        <ele>10.563787</ele>
        <time>2022-02-24T08:19:15.690Z</time>
      </trkpt>
      <trkpt lat="36.78465" lon="34.58909">
        <ele>10.392647</ele>
        <time>2022-02-24T08:19:19.014Z</time>
      </trkpt>
      <trkpt lat="36.78436" lon="34.58863">
        <ele>10.509449</ele>
        <time>2022-02-24T08:19:32.177Z</time>
      </trkpt>
      <trkpt lat="36.78416" lon="34.58832">
        <ele>10.804706</ele>
        <time>2022-02-24T08:19:41.431Z</time>
      </trkpt>
      <trkpt lat="36.78406" lon="34.58816">
        <ele>10.965937</ele>
        <time>2022-02-24T08:19:46.581Z</time>
      </trkpt>
      <trkpt lat="36.78362" lon="34.58749">
        <ele>11.617937</ele>
        <time>2022-02-24T08:20:10.855Z</time>
      </trkpt>
      <trkpt lat="36.78353" lon="34.58736">
        <ele>11.748454</ele>
        <time>2022-02-24T08:20:15.904Z</time>
      </trkpt>
      <trkpt lat="36.78345" lon="34.58714">
        <ele>11.901841</ele>
        <time>2022-02-24T08:20:22.144Z</time>
      </trkpt>
      <trkpt lat="36.78335" lon="34.5867">
        <ele>11.951492</ele>
        <time>2022-02-24T08:20:33.706Z</time>
      </trkpt>
      <trkpt lat="36.78339" lon="34.58639">
        <ele>11.986301</ele>
        <time>2022-02-24T08:20:40.967Z</time>
      </trkpt>
      <trkpt lat="36.78354" lon="34.58613">
        <ele>12.020632</ele>
        <time>2022-02-24T08:20:48.053Z</time>
      </trkpt>
      <trkpt lat="36.7838" lon="34.58583">
        <ele>12.06956</ele>
        <time>2022-02-24T08:20:57.330Z</time>
      </trkpt>
      <trkpt lat="36.78352" lon="34.58549">
        <ele>12.123271</ele>
        <time>2022-02-24T08:21:07.182Z</time>
      </trkpt>
      <trkpt lat="36.78312" lon="34.58503">
        <ele>11.926389</ele>
        <time>2022-02-24T08:21:21.165Z</time>
      </trkpt>
      <trkpt lat="36.78283" lon="34.58463">
        <ele>11.699415</ele>
        <time>2022-02-24T08:21:31.932Z</time>
      </trkpt>
      <trkpt lat="36.78261" lon="34.58432">
        <ele>11.522418</ele>
        <time>2022-02-24T08:21:40.027Z</time>
      </trkpt>
      <trkpt lat="36.78257" lon="34.58422">
        <ele>11.474646</ele>
        <time>2022-02-24T08:21:42.284Z</time>
      </trkpt>
      <trkpt lat="36.78236" lon="34.58373">
        <ele>11.238897</ele>
        <time>2022-02-24T08:21:54.437Z</time>
      </trkpt>
      <trkpt lat="36.78186" lon="34.58236">
        <ele>11.039192</ele>
        <time>2022-02-24T08:22:28.269Z</time>
      </trkpt>
      <trkpt lat="36.78195" lon="34.58228">
        <ele>11.024908</ele>
        <time>2022-02-24T08:22:31.024Z</time>
      </trkpt>
      <trkpt lat="36.78173" lon="34.58184">
        <ele>10.968013</ele>
        <time>2022-02-24T08:22:41.845Z</time>
      </trkpt>
      <trkpt lat="36.78162" lon="34.58164">
        <ele>10.94722</ele>
        <time>2022-02-24T08:22:47.014Z</time>
      </trkpt>
      <trkpt lat="36.78149" lon="34.58136">
        <ele>10.955295</ele>
        <time>2022-02-24T08:22:53.832Z</time>
      </trkpt>
      <trkpt lat="36.78138" lon="34.58121">
        <ele>10.96057</ele>
        <time>2022-02-24T08:22:57.988Z</time>
      </trkpt>
      <trkpt lat="36.78097" lon="34.58049">
        <ele>10.982756</ele>
        <time>2022-02-24T08:23:17.277Z</time>
      </trkpt>
      <trkpt lat="36.78069" lon="34.57997">
        <ele>10.998651</ele>
        <time>2022-02-24T08:23:32.405Z</time>
      </trkpt>
      <trkpt lat="36.78045" lon="34.58014">
        <ele>11.087335</ele>
        <time>2022-02-24T08:23:40.574Z</time>
      </trkpt>
      <trkpt lat="36.78022" lon="34.57966">
        <ele>11.339392</ele>
        <time>2022-02-24T08:23:54.405Z</time>
      </trkpt>
      <trkpt lat="36.77997" lon="34.57915">
        <ele>11.613749</ele>
        <time>2022-02-24T08:24:09.594Z</time>
      </trkpt>
      <trkpt lat="36.78007" lon="34.57907">
        <ele>11.680456</ele>
        <time>2022-02-24T08:24:13.309Z</time>
      </trkpt>
      <trkpt lat="36.77977" lon="34.57836">
        <ele>12.019064</ele>
        <time>2022-02-24T08:24:33.133Z</time>
      </trkpt>
      <trkpt lat="36.77954" lon="34.57778">
        <ele>11.874658</ele>
        <time>2022-02-24T08:24:47.658Z</time>
      </trkpt>
      <trkpt lat="36.77953" lon="34.57772">
        <ele>11.860695</ele>
        <time>2022-02-24T08:24:48.974Z</time>
      </trkpt>
      <trkpt lat="36.77871" lon="34.57813">
        <ele>11.617074</ele>
        <time>2022-02-24T08:25:11.096Z</time>
      </trkpt>
      <trkpt lat="36.77857" lon="34.57768">
        <ele>11.514994</ele>
        <time>2022-02-24T08:25:21.025Z</time>
      </trkpt>
      <trkpt lat="36.77852" lon="34.57751">
        <ele>11.483688</ele>
        <time>2022-02-24T08:25:24.811Z</time>
      </trkpt>
      <trkpt lat="36.77844" lon="34.57726">
        <ele>11.436767</ele>
        <time>2022-02-24T08:25:30.965Z</time>
      </trkpt>
      <trkpt lat="36.77838" lon="34.57704">
        <ele>11.396436</ele>
        <time>2022-02-24T08:25:35.836Z</time>
      </trkpt>
      <trkpt lat="36.77828" lon="34.57673">
        <ele>11.338812</ele>
        <time>2022-02-24T08:25:43.120Z</time>
      </trkpt>
      <trkpt lat="36.77809" lon="34.57614">
        <ele>11.228069</ele>
        <time>2022-02-24T08:25:56.575Z</time>
      </trkpt>
      <trkpt lat="36.7779" lon="34.57554">
        <ele>11.172483</ele>
        <time>2022-02-24T08:26:10.568Z</time>
      </trkpt>
      <trkpt lat="36.7779" lon="34.57553">
        <ele>11.175642</ele>
        <time>2022-02-24T08:26:10.873Z</time>
      </trkpt>
      <trkpt lat="36.77771" lon="34.57492">
        <ele>11.334295</ele>
        <time>2022-02-24T08:26:26.138Z</time>
      </trkpt>
      <trkpt lat="36.77752" lon="34.57431">
        <ele>11.493847</ele>
        <time>2022-02-24T08:26:42.548Z</time>
      </trkpt>
      <trkpt lat="36.77695" lon="34.57471">
        <ele>11.696473</ele>
        <time>2022-02-24T08:27:01.607Z</time>
      </trkpt>
      <trkpt lat="36.77668" lon="34.57393">
        <ele>11.974161</ele>
        <time>2022-02-24T08:27:20.079Z</time>
      </trkpt>
      <trkpt lat="36.77659" lon="34.57366">
        <ele>12.070386</ele>
        <time>2022-02-24T08:27:27.070Z</time>
      </trkpt>
      <trkpt lat="36.7765" lon="34.57341">
        <ele>12.159106</ele>
        <time>2022-02-24T08:27:33.498Z</time>
      </trkpt>
      <trkpt lat="36.77646" lon="34.57328">
        <ele>12.204121</ele>
        <time>2022-02-24T08:27:37.116Z</time>
      </trkpt>
      <trkpt lat="36.77638" lon="34.57294">
        <ele>12.31985</ele>
        <time>2022-02-24T08:27:45.860Z</time>
      </trkpt>
      <trkpt lat="36.77631" lon="34.57273">
        <ele>12.394265</ele>
        <time>2022-02-24T08:27:51.662Z</time>
      </trkpt>
      <trkpt lat="36.77628" lon="34.57263">
        <ele>12.413327</ele>
        <time>2022-02-24T08:27:53.937Z</time>
      </trkpt>
      <trkpt lat="36.77619" lon="34.57239">
        <ele>12.374695</ele>
        <time>2022-02-24T08:28:00.205Z</time>
      </trkpt>
      <trkpt lat="36.77603" lon="34.5718">
        <ele>12.284348</ele>
        <time>2022-02-24T08:28:12.385Z</time>
      </trkpt>
      <trkpt lat="36.77591" lon="34.57148">
        <ele>12.232529</ele>
        <time>2022-02-24T08:28:19.506Z</time>
      </trkpt>
      <trkpt lat="36.77559" lon="34.57069">
        <ele>12.103242</ele>
        <time>2022-02-24T08:28:37.585Z</time>
      </trkpt>
      <trkpt lat="36.77543" lon="34.57029">
        <ele>11.740005</ele>
        <time>2022-02-24T08:28:47.041Z</time>
      </trkpt>
      <trkpt lat="36.77538" lon="34.57017">
        <ele>11.615482</ele>
        <time>2022-02-24T08:28:49.757Z</time>
      </trkpt>
      <trkpt lat="36.7749" lon="34.56917">
        <ele>10.492443</ele>
        <time>2022-02-24T08:29:10.017Z</time>
      </trkpt>
      <trkpt lat="36.77479" lon="34.56895">
        <ele>10.245245</ele>
        <time>2022-02-24T08:29:14.576Z</time>
      </trkpt>
      <trkpt lat="36.77462" lon="34.56863">
        <ele>9.885597</ele>
        <time>2022-02-24T08:29:21.379Z</time>
      </trkpt>
      <trkpt lat="36.77442" lon="34.5683">
        <ele>9.537762</ele>
        <time>2022-02-24T08:29:28.946Z</time>
      </trkpt>
      <trkpt lat="36.77423" lon="34.56794">
        <ele>9.178497</ele>
        <time>2022-02-24T08:29:36.863Z</time>
      </trkpt>
      <trkpt lat="36.77401" lon="34.56758">
        <ele>8.798793</ele>
        <time>2022-02-24T08:29:45.207Z</time>
      </trkpt>
      <trkpt lat="36.77393" lon="34.56743">
        <ele>8.643946</ele>
        <time>2022-02-24T08:29:48.678Z</time>
      </trkpt>
      <trkpt lat="36.77341" lon="34.56656">
        <ele>8.192297</ele>
        <time>2022-02-24T08:30:08.503Z</time>
      </trkpt>
      <trkpt lat="36.77335" lon="34.56646">
        <ele>8.237161</ele>
        <time>2022-02-24T08:30:10.952Z</time>
      </trkpt>
      <trkpt lat="36.77324" lon="34.56631">
        <ele>8.311252</ele>
        <time>2022-02-24T08:30:15.711Z</time>
      </trkpt>
      <trkpt lat="36.77305" lon="34.56603">
        <ele>8.446998</ele>
        <time>2022-02-24T08:30:25.003Z</time>
      </trkpt>
      <trkpt lat="36.77239" lon="34.56495">
        <ele>9.054054</ele>
        <time>2022-02-24T08:30:59.292Z</time>
      </trkpt>
      <trkpt lat="36.77217" lon="34.56462">
        <ele>9.446189</ele>
        <time>2022-02-24T08:31:10.285Z</time>
      </trkpt>
      <trkpt lat="36.77199" lon="34.56431">
        <ele>9.793446</ele>
        <time>2022-02-24T08:31:20.523Z</time>
      </trkpt>
      <trkpt lat="36.77189" lon="34.56416">
        <ele>9.977338</ele>
        <time>2022-02-24T08:31:25.986Z</time>
      </trkpt>
      <trkpt lat="36.77183" lon="34.56406">
        <ele>10.089784</ele>
        <time>2022-02-24T08:31:29.348Z</time>
      </trkpt>
      <trkpt lat="36.77063" lon="34.56205">
        <ele>11.754084</ele>
        <time>2022-02-24T08:32:32.564Z</time>
      </trkpt>
      <trkpt lat="36.77038" lon="34.56163">
        <ele>12.029474</ele>
        <time>2022-02-24T08:32:44.065Z</time>
      </trkpt>
      <trkpt lat="36.77022" lon="34.56138">
        <ele>12.023021</ele>
        <time>2022-02-24T08:32:50.593Z</time>
      </trkpt>
      <trkpt lat="36.77014" lon="34.56127">
        <ele>11.958638</ele>
        <time>2022-02-24T08:32:53.632Z</time>
      </trkpt>
      <trkpt lat="36.77011" lon="34.56121">
        <ele>11.92729</ele>
        <time>2022-02-24T08:32:55.034Z</time>
      </trkpt>
      <trkpt lat="36.76995" lon="34.56097">
        <ele>11.794434</ele>
        <time>2022-02-24T08:33:01.124Z</time>
      </trkpt>
      <trkpt lat="36.76859" lon="34.55896">
        <ele>10.79962</ele>
        <time>2022-02-24T08:33:51.453Z</time>
      </trkpt>
      <trkpt lat="36.76823" lon="34.55841">
        <ele>10.590866</ele>
        <time>2022-02-24T08:34:06.492Z</time>
      </trkpt>
      <trkpt lat="36.76754" lon="34.55735">
        <ele>10.129085</ele>
        <time>2022-02-24T08:34:35.671Z</time>
      </trkpt>
      <trkpt lat="36.76706" lon="34.55662">
        <ele>9.793815</ele>
        <time>2022-02-24T08:34:54.687Z</time>
      </trkpt>
      <trkpt lat="36.76654" lon="34.55583">
        <ele>8.843232</ele>
        <time>2022-02-24T08:35:13.222Z</time>
      </trkpt>
      <trkpt lat="36.76593" lon="34.55491">
        <ele>7.351655</ele>
        <time>2022-02-24T08:35:33.236Z</time>
      </trkpt>
      <trkpt lat="36.76544" lon="34.55415">
        <ele>6.94018</ele>
        <time>2022-02-24T08:35:50.759Z</time>
      </trkpt>
      <trkpt lat="36.76516" lon="34.55374">
        <ele>7.032866</ele>
        <time>2022-02-24T08:36:02.756Z</time>
      </trkpt>
      <trkpt lat="36.76505" lon="34.55359">
        <ele>7.068064</ele>
        <time>2022-02-24T08:36:07.727Z</time>
      </trkpt>
      <trkpt lat="36.76479" lon="34.55319">
        <ele>7.158308</ele>
        <time>2022-02-24T08:36:20.939Z</time>
      </trkpt>
      <trkpt lat="36.76477" lon="34.55316">
        <ele>7.165356</ele>
        <time>2022-02-24T08:36:21.958Z</time>
      </trkpt>
      <trkpt lat="36.76426" lon="34.55242">
        <ele>7.807601</ele>
        <time>2022-02-24T08:36:47.564Z</time>
      </trkpt>
      <trkpt lat="36.76408" lon="34.55213">
        <ele>8.167125</ele>
        <time>2022-02-24T08:36:57.317Z</time>
      </trkpt>
      <trkpt lat="36.76343" lon="34.55111">
        <ele>9.41653</ele>
        <time>2022-02-24T08:37:31.523Z</time>
      </trkpt>
      <trkpt lat="36.76276" lon="34.55018">
        <ele>10.176938</ele>
        <time>2022-02-24T08:38:02.312Z</time>
      </trkpt>
      <trkpt lat="36.762" lon="34.54904">
        <ele>10.859395</ele>
        <time>2022-02-24T08:38:36.903Z</time>
      </trkpt>
      <trkpt lat="36.76192" lon="34.54892">
        <ele>10.885705</ele>
        <time>2022-02-24T08:38:40.234Z</time>
      </trkpt>
      <trkpt lat="36.76159" lon="34.54844">
        <ele>10.992041</ele>
        <time>2022-02-24T08:38:54.930Z</time>
      </trkpt>
      <trkpt lat="36.76085" lon="34.54734">
        <ele>11.250425</ele>
        <time>2022-02-24T08:39:25.225Z</time>
      </trkpt>
      <trkpt lat="36.76014" lon="34.54629">
        <ele>11.524083</ele>
        <time>2022-02-24T08:39:55.376Z</time>
      </trkpt>
      <trkpt lat="36.75932" lon="34.54508">
        <ele>12.583173</ele>
        <time>2022-02-24T08:40:33.819Z</time>
      </trkpt>
      <trkpt lat="36.75883" lon="34.54435">
        <ele>13.359936</ele>
        <time>2022-02-24T08:40:58.897Z</time>
      </trkpt>
      <trkpt lat="36.75866" lon="34.54409">
        <ele>13.740138</ele>
        <time>2022-02-24T08:41:08.390Z</time>
      </trkpt>
      <trkpt lat="36.75766" lon="34.54258">
        <ele>16.157816</ele>
        <time>2022-02-24T08:42:02.555Z</time>
      </trkpt>
      <trkpt lat="36.75758" lon="34.54246">
        <ele>16.239604</ele>
        <time>2022-02-24T08:42:06.290Z</time>
      </trkpt>
      <trkpt lat="36.75732" lon="34.54205">
        <ele>16.418235</ele>
        <time>2022-02-24T08:42:20.586Z</time>
      </trkpt>
      <trkpt lat="36.7564" lon="34.5407">
        <ele>16.862622</ele>
        <time>2022-02-24T08:42:58.829Z</time>
      </trkpt>
      <trkpt lat="36.75572" lon="34.53968">
        <ele>16.124028</ele>
        <time>2022-02-24T08:43:24.138Z</time>
      </trkpt>
      <trkpt lat="36.75525" lon="34.53901">
        <ele>15.661869</ele>
        <time>2022-02-24T08:43:40.768Z</time>
      </trkpt>
      <trkpt lat="36.75511" lon="34.53879">
        <ele>15.57136</ele>
        <time>2022-02-24T08:43:45.950Z</time>
      </trkpt>
      <trkpt lat="36.75503" lon="34.53868">
        <ele>15.525608</ele>
        <time>2022-02-24T08:43:48.670Z</time>
      </trkpt>
      <trkpt lat="36.7545" lon="34.5379">
        <ele>15.201152</ele>
        <time>2022-02-24T08:44:08.753Z</time>
      </trkpt>
      <trkpt lat="36.75412" lon="34.53734">
        <ele>15.045957</ele>
        <time>2022-02-24T08:44:24.608Z</time>
      </trkpt>
      <trkpt lat="36.75354" lon="34.5365">
        <ele>15.784352</ele>
        <time>2022-02-24T08:44:52.233Z</time>
      </trkpt>
      <trkpt lat="36.75307" lon="34.5358">
        <ele>16.390944</ele>
        <time>2022-02-24T08:45:15.425Z</time>
      </trkpt>
      <trkpt lat="36.75246" lon="34.5349">
        <ele>17.1766</ele>
        <time>2022-02-24T08:45:45.184Z</time>
      </trkpt>
      <trkpt lat="36.75216" lon="34.53446">
        <ele>17.564436</ele>
        <time>2022-02-24T08:46:00.265Z</time>
      </trkpt>
      <trkpt lat="36.75174" lon="34.53378">
        <ele>17.983387</ele>
        <time>2022-02-24T08:46:20.050Z</time>
      </trkpt>
      <trkpt lat="36.75127" lon="34.53298">
        <ele>17.9768</ele>
        <time>2022-02-24T08:46:40.165Z</time>
      </trkpt>
      <trkpt lat="36.75087" lon="34.53224">
        <ele>17.970828</ele>
        <time>2022-02-24T08:46:59.561Z</time>
      </trkpt>
      <trkpt lat="36.75067" lon="34.53191">
        <ele>17.918837</ele>
        <time>2022-02-24T08:47:09.047Z</time>
      </trkpt>
      <trkpt lat="36.75127" lon="34.53123">
        <ele>17.738537</ele>
        <time>2022-02-24T08:47:29.553Z</time>
      </trkpt>
      <trkpt lat="36.75094" lon="34.53061">
        <ele>17.606181</ele>
        <time>2022-02-24T08:47:45.370Z</time>
      </trkpt>
      <trkpt lat="36.75052" lon="34.52979">
        <ele>17.637887</ele>
        <time>2022-02-24T08:48:07.570Z</time>
      </trkpt>
      <trkpt lat="36.74999" lon="34.52867">
        <ele>17.753618</ele>
        <time>2022-02-24T08:48:37.686Z</time>
      </trkpt>
      <trkpt lat="36.75017" lon="34.52853">
        <ele>17.762979</ele>
        <time>2022-02-24T08:48:43.626Z</time>
      </trkpt>
      <trkpt lat="36.74986" lon="34.52779">
        <ele>17.707343</ele>
        <time>2022-02-24T08:49:02.271Z</time>
      </trkpt>
      <trkpt lat="36.74961" lon="34.52721">
        <ele>17.662729</ele>
        <time>2022-02-24T08:49:16.673Z</time>
      </trkpt>
      <trkpt lat="36.74922" lon="34.52628">
        <ele>17.514467</ele>
        <time>2022-02-24T08:49:39.112Z</time>
      </trkpt>
      <trkpt lat="36.74881" lon="34.52537">
        <ele>17.231487</ele>
        <time>2022-02-24T08:50:00.335Z</time>
      </trkpt>
      <trkpt lat="36.74841" lon="34.52427">
        <ele>16.988562</ele>
        <time>2022-02-24T08:50:26.911Z</time>
      </trkpt>
      <trkpt lat="36.74812" lon="34.52347">
        <ele>16.935531</ele>
        <time>2022-02-24T08:50:46.607Z</time>
      </trkpt>
      <trkpt lat="36.74789" lon="34.52285">
        <ele>16.89458</ele>
        <time>2022-02-24T08:51:01.626Z</time>
      </trkpt>
      <trkpt lat="36.74757" lon="34.52195">
        <ele>16.747857</ele>
        <time>2022-02-24T08:51:22.531Z</time>
      </trkpt>
      <trkpt lat="36.74732" lon="34.52128">
        <ele>16.609849</ele>
        <time>2022-02-24T08:51:38.968Z</time>
      </trkpt>
      <trkpt lat="36.74721" lon="34.52098">
        <ele>16.549657</ele>
        <time>2022-02-24T08:51:45.888Z</time>
      </trkpt>
      <trkpt lat="36.74699" lon="34.52036">
        <ele>16.41391</ele>
        <time>2022-02-24T08:52:00.062Z</time>
      </trkpt>
      <trkpt lat="36.74673" lon="34.51966">
        <ele>16.234573</ele>
        <time>2022-02-24T08:52:16.476Z</time>
      </trkpt>
      <trkpt lat="36.74641" lon="34.51878">
        <ele>16.008034</ele>
        <time>2022-02-24T08:52:37.425Z</time>
      </trkpt>
      <trkpt lat="36.74526" lon="34.51928">
        <ele>15.385178</ele>
        <time>2022-02-24T08:53:09.088Z</time>
      </trkpt>
      <trkpt lat="36.74502" lon="34.51871">
        <ele>15.094388</ele>
        <time>2022-02-24T08:53:21.615Z</time>
      </trkpt>
      <trkpt lat="36.74495" lon="34.51856">
        <ele>15.016563</ele>
        <time>2022-02-24T08:53:24.870Z</time>
      </trkpt>
      <trkpt lat="36.74459" lon="34.51766">
        <ele>14.595778</ele>
        <time>2022-02-24T08:53:43.832Z</time>
      </trkpt>
      <trkpt lat="36.74441" lon="34.5172">
        <ele>14.388047</ele>
        <time>2022-02-24T08:53:53.543Z</time>
      </trkpt>
      <trkpt lat="36.74419" lon="34.51732">
        <ele>14.265066</ele>
        <time>2022-02-24T08:53:59.805Z</time>
      </trkpt>
      <trkpt lat="36.74414" lon="34.51725">
        <ele>14.225731</ele>
        <time>2022-02-24T08:54:01.973Z</time>
      </trkpt>
      <trkpt lat="36.74364" lon="34.51647">
        <ele>14.166227</ele>
        <time>2022-02-24T08:54:24.594Z</time>
      </trkpt>
      <trkpt lat="36.74343" lon="34.51609">
        <ele>14.325885</ele>
        <time>2022-02-24T08:54:35.200Z</time>
      </trkpt>
      <trkpt lat="36.74333" lon="34.51596">
        <ele>14.387667</ele>
        <time>2022-02-24T08:54:39.287Z</time>
      </trkpt>
      <trkpt lat="36.7429" lon="34.5157">
        <ele>14.594185</ele>
        <time>2022-02-24T08:54:54.085Z</time>
      </trkpt>
      <trkpt lat="36.7425" lon="34.51544">
        <ele>14.788632</ele>
        <time>2022-02-24T08:55:08.587Z</time>
      </trkpt>
      <trkpt lat="36.7421" lon="34.51518">
        <ele>14.893335</ele>
        <time>2022-02-24T08:55:22.938Z</time>
      </trkpt>
      <trkpt lat="36.74204" lon="34.51513">
        <ele>14.910836</ele>
        <time>2022-02-24T08:55:25.165Z</time>
      </trkpt>
      <trkpt lat="36.74147" lon="34.51471">
        <ele>15.066061</ele>
        <time>2022-02-24T08:55:44.067Z</time>
      </trkpt>
      <trkpt lat="36.74089" lon="34.51426">
        <ele>15.188585</ele>
        <time>2022-02-24T08:56:02.396Z</time>
      </trkpt>
      <trkpt lat="36.74007" lon="34.51375">
        <ele>14.988304</ele>
        <time>2022-02-24T08:56:26.396Z</time>
      </trkpt>
      <trkpt lat="36.73939" lon="34.51328">
        <ele>14.819168</ele>
        <time>2022-02-24T08:56:46.542Z</time>
      </trkpt>
      <trkpt lat="36.73842" lon="34.51266">
        <ele>15.373387</ele>
        <time>2022-02-24T08:57:20.152Z</time>
      </trkpt>
      <trkpt lat="36.73838" lon="34.51264">
        <ele>15.39304</ele>
        <time>2022-02-24T08:57:21.847Z</time>
      </trkpt>
      <trkpt lat="36.73745" lon="34.51195">
        <ele>15.857838</ele>
        <time>2022-02-24T08:57:55.061Z</time>
      </trkpt>
      <trkpt lat="36.73737" lon="34.51216">
        <ele>15.905397</ele>
        <time>2022-02-24T08:58:00.490Z</time>
      </trkpt>
      <trkpt lat="36.73649" lon="34.51116">
        <ele>16.213873</ele>
        <time>2022-02-24T08:58:34.863Z</time>
      </trkpt>
      <trkpt lat="36.7359" lon="34.51046">
        <ele>15.736856</ele>
        <time>2022-02-24T08:58:55.988Z</time>
      </trkpt>
      <trkpt lat="36.73553" lon="34.50994">
        <ele>15.383327</ele>
        <time>2022-02-24T08:59:09.773Z</time>
      </trkpt>
      <trkpt lat="36.73485" lon="34.50914">
        <ele>14.739333</ele>
        <time>2022-02-24T08:59:32.569Z</time>
      </trkpt>
      <trkpt lat="36.73444" lon="34.50939">
        <ele>14.398904</ele>
        <time>2022-02-24T08:59:43.537Z</time>
      </trkpt>
      <trkpt lat="36.73379" lon="34.50977">
        <ele>13.859003</ele>
        <time>2022-02-24T09:00:01.414Z</time>
      </trkpt>
      <trkpt lat="36.73362" lon="34.50943">
        <ele>13.783414</ele>
        <time>2022-02-24T09:00:09.744Z</time>
      </trkpt>
      <trkpt lat="36.73313" lon="34.50844">
        <ele>14.05142</ele>
        <time>2022-02-24T09:00:36.525Z</time>
      </trkpt>
      <trkpt lat="36.73251" lon="34.50723">
        <ele>14.495277</ele>
        <time>2022-02-24T09:01:13.054Z</time>
      </trkpt>
      <trkpt lat="36.73208" lon="34.50656">
        <ele>14.869752</ele>
        <time>2022-02-24T09:01:34.379Z</time>
      </trkpt>
      <trkpt lat="36.73204" lon="34.50651">
        <ele>14.895149</ele>
        <time>2022-02-24T09:01:35.759Z</time>
      </trkpt>
      <trkpt lat="36.73196" lon="34.50637">
        <ele>14.973325</ele>
        <time>2022-02-24T09:01:39.986Z</time>
      </trkpt>
      <trkpt lat="36.73188" lon="34.50623">
        <ele>15.046885</ele>
        <time>2022-02-24T09:01:44.074Z</time>
      </trkpt>
      <trkpt lat="36.73142" lon="34.50662">
        <ele>15.097528</ele>
        <time>2022-02-24T09:02:00.089Z</time>
      </trkpt>
      <trkpt lat="36.73132" lon="34.50663">
        <ele>15.038136</ele>
        <time>2022-02-24T09:02:02.992Z</time>
      </trkpt>
      <trkpt lat="36.73125" lon="34.50661">
        <ele>14.99356</ele>
        <time>2022-02-24T09:02:05.207Z</time>
      </trkpt>
      <trkpt lat="36.73117" lon="34.50657">
        <ele>14.946733</ele>
        <time>2022-02-24T09:02:07.410Z</time>
      </trkpt>
      <trkpt lat="36.73111" lon="34.50652">
        <ele>14.901623</ele>
        <time>2022-02-24T09:02:09.594Z</time>
      </trkpt>
      <trkpt lat="36.73077" lon="34.50592">
        <ele>14.554882</ele>
        <time>2022-02-24T09:02:25.026Z</time>
      </trkpt>
      <trkpt lat="36.73029" lon="34.50503">
        <ele>13.794685</ele>
        <time>2022-02-24T09:02:45.109Z</time>
      </trkpt>
      <trkpt lat="36.73022" lon="34.50492">
        <ele>13.598985</ele>
        <time>2022-02-24T09:02:47.559Z</time>
      </trkpt>
      <trkpt lat="36.72957" lon="34.5055">
        <ele>12.134376</ele>
        <time>2022-02-24T09:03:05.354Z</time>
      </trkpt>
      <trkpt lat="36.72901" lon="34.50457">
        <ele>10.577351</ele>
        <time>2022-02-24T09:03:25.791Z</time>
      </trkpt>
      <trkpt lat="36.72844" lon="34.50511">
        <ele>9.685126</ele>
        <time>2022-02-24T09:03:42.125Z</time>
      </trkpt>
      <trkpt lat="36.72766" lon="34.50378">
        <ele>8.918731</ele>
        <time>2022-02-24T09:04:15.475Z</time>
      </trkpt>
      <trkpt lat="36.72758" lon="34.50367">
        <ele>8.986284</ele>
        <time>2022-02-24T09:04:19.205Z</time>
      </trkpt>
      <trkpt lat="36.72751" lon="34.50376">
        <ele>9.041114</ele>
        <time>2022-02-24T09:04:21.940Z</time>
      </trkpt>
      <trkpt lat="36.72686" lon="34.50362">
        <ele>9.408387</ele>
        <time>2022-02-24T09:04:43.227Z</time>
      </trkpt>
      <trkpt lat="36.72604" lon="34.50178">
        <ele>11.287301</ele>
        <time>2022-02-24T09:05:40.163Z</time>
      </trkpt>
      <trkpt lat="36.72589" lon="34.50146">
        <ele>11.665878</ele>
        <time>2022-02-24T09:05:49.392Z</time>
      </trkpt>
      <trkpt lat="36.72564" lon="34.50092">
        <ele>12.193805</ele>
        <time>2022-02-24T09:06:05.692Z</time>
      </trkpt>
      <trkpt lat="36.72521" lon="34.5">
        <ele>12.846133</ele>
        <time>2022-02-24T09:06:32.222Z</time>
      </trkpt>
      <trkpt lat="36.72511" lon="34.49979">
        <ele>12.996806</ele>
        <time>2022-02-24T09:06:37.853Z</time>
      </trkpt>
      <trkpt lat="36.7248" lon="34.4991">
        <ele>13.379006</ele>
        <time>2022-02-24T09:06:56.403Z</time>
      </trkpt>
      <trkpt lat="36.72428" lon="34.49796">
        <ele>13.335773</ele>
        <time>2022-02-24T09:07:24.968Z</time>
      </trkpt>
      <trkpt lat="36.72413" lon="34.49763">
        <ele>13.323335</ele>
        <time>2022-02-24T09:07:32.708Z</time>
      </trkpt>
      <trkpt lat="36.72467" lon="34.49709">
        <ele>13.07598</ele>
        <time>2022-02-24T09:07:49.178Z</time>
      </trkpt>
      <trkpt lat="36.72481" lon="34.49692">
        <ele>12.955402</ele>
        <time>2022-02-24T09:07:53.693Z</time>
      </trkpt>
      <trkpt lat="36.72437" lon="34.49598">
        <ele>12.412092</ele>
        <time>2022-02-24T09:08:15.452Z</time>
      </trkpt>
      <trkpt lat="36.72343" lon="34.49402">
        <ele>11.592855</ele>
        <time>2022-02-24T09:09:03.587Z</time>
      </trkpt>
      <trkpt lat="36.72315" lon="34.49357">
        <ele>11.389868</ele>
        <time>2022-02-24T09:09:15.502Z</time>
      </trkpt>
      <trkpt lat="36.72298" lon="34.49326">
        <ele>11.222763</ele>
        <time>2022-02-24T09:09:23.425Z</time>
      </trkpt>
      <trkpt lat="36.72245" lon="34.4923">
        <ele>10.695406</ele>
        <time>2022-02-24T09:09:47.523Z</time>
      </trkpt>
      <trkpt lat="36.72216" lon="34.49166">
        <ele>10.346174</ele>
        <time>2022-02-24T09:10:02.089Z</time>
      </trkpt>
      <trkpt lat="36.72192" lon="34.49068">
        <ele>9.807609</ele>
        <time>2022-02-24T09:10:22.134Z</time>
      </trkpt>
      <trkpt lat="36.72183" lon="34.49012">
        <ele>9.509202</ele>
        <time>2022-02-24T09:10:33.496Z</time>
      </trkpt>
      <trkpt lat="36.72172" lon="34.48985">
        <ele>9.350737</ele>
        <time>2022-02-24T09:10:39.836Z</time>
      </trkpt>
      <trkpt lat="36.72128" lon="34.48887">
        <ele>9.632889</ele>
        <time>2022-02-24T09:11:05.714Z</time>
      </trkpt>
      <trkpt lat="36.72064" lon="34.48754">
        <ele>10.196088</ele>
        <time>2022-02-24T09:11:44.892Z</time>
      </trkpt>
      <trkpt lat="36.72016" lon="34.48655">
        <ele>10.602801</ele>
        <time>2022-02-24T09:12:13.736Z</time>
      </trkpt>
      <trkpt lat="36.71989" lon="34.48599">
        <ele>10.830043</ele>
        <time>2022-02-24T09:12:28.609Z</time>
      </trkpt>
      <trkpt lat="36.71985" lon="34.48589">
        <ele>10.868277</ele>
        <time>2022-02-24T09:12:30.851Z</time>
      </trkpt>
      <trkpt lat="36.71935" lon="34.48473">
        <ele>11.207202</ele>
        <time>2022-02-24T09:12:59.903Z</time>
      </trkpt>
      <trkpt lat="36.71874" lon="34.48335">
        <ele>11.646273</ele>
        <time>2022-02-24T09:13:39.821Z</time>
      </trkpt>
      <trkpt lat="36.71863" lon="34.4834">
        <ele>11.692865</ele>
        <time>2022-02-24T09:13:43.459Z</time>
      </trkpt>
      <trkpt lat="36.71831" lon="34.48239">
        <ele>12.04005</ele>
        <time>2022-02-24T09:14:09.577Z</time>
      </trkpt>
      <trkpt lat="36.71763" lon="34.48049">
        <ele>11.514678</ele>
        <time>2022-02-24T09:14:52.976Z</time>
      </trkpt>
      <trkpt lat="36.71756" lon="34.48052">
        <ele>11.47455</ele>
        <time>2022-02-24T09:14:54.893Z</time>
      </trkpt>
      <trkpt lat="36.71728" lon="34.47994">
        <ele>11.218995</ele>
        <time>2022-02-24T09:15:08.183Z</time>
      </trkpt>
      <trkpt lat="36.71676" lon="34.47898">
        <ele>10.829215</ele>
        <time>2022-02-24T09:15:32.061Z</time>
      </trkpt>
      <trkpt lat="36.71646" lon="34.47817">
        <ele>10.530785</ele>
        <time>2022-02-24T09:15:51.569Z</time>
      </trkpt>
      <trkpt lat="36.71631" lon="34.47784">
        <ele>10.433621</ele>
        <time>2022-02-24T09:16:00.225Z</time>
      </trkpt>
      <trkpt lat="36.71605" lon="34.47739">
        <ele>10.295365</ele>
        <time>2022-02-24T09:16:11.614Z</time>
      </trkpt>
      <trkpt lat="36.71579" lon="34.47695">
        <ele>10.156598</ele>
        <time>2022-02-24T09:16:22.962Z</time>
      </trkpt>
      <trkpt lat="36.71555" lon="34.47655">
        <ele>10.02907</ele>
        <time>2022-02-24T09:16:33.634Z</time>
      </trkpt>
      <trkpt lat="36.71497" lon="34.47704">
        <ele>9.943243</ele>
        <time>2022-02-24T09:16:51.543Z</time>
      </trkpt>
      <trkpt lat="36.71438" lon="34.47629">
        <ele>9.905275</ele>
        <time>2022-02-24T09:17:14.243Z</time>
      </trkpt>
      <trkpt lat="36.71366" lon="34.47544">
        <ele>9.732115</ele>
        <time>2022-02-24T09:17:40.847Z</time>
      </trkpt>
      <trkpt lat="36.71305" lon="34.4747">
        <ele>9.488477</ele>
        <time>2022-02-24T09:18:03.023Z</time>
      </trkpt>
      <trkpt lat="36.71233" lon="34.47388">
        <ele>9.001218</ele>
        <time>2022-02-24T09:18:26.152Z</time>
      </trkpt>
      <trkpt lat="36.71204" lon="34.47355">
        <ele>8.744887</ele>
        <time>2022-02-24T09:18:35.303Z</time>
      </trkpt>
      <trkpt lat="36.71126" lon="34.4724">
        <ele>8.122075</ele>
        <time>2022-02-24T09:19:04.550Z</time>
      </trkpt>
      <trkpt lat="36.71017" lon="34.47037">
        <ele>8.110204</ele>
        <time>2022-02-24T09:19:56.635Z</time>
      </trkpt>
      <trkpt lat="36.70928" lon="34.46868">
        <ele>9.102625</ele>
        <time>2022-02-24T09:20:45.071Z</time>
      </trkpt>
      <trkpt lat="36.70884" lon="34.46783">
        <ele>10.003405</ele>
        <time>2022-02-24T09:21:12.239Z</time>
      </trkpt>
      <trkpt lat="36.70841" lon="34.46695">
        <ele>10.791004</ele>
        <time>2022-02-24T09:21:38.720Z</time>
      </trkpt>
      <trkpt lat="36.70815" lon="34.46642">
        <ele>11.023163</ele>
        <time>2022-02-24T09:21:53.842Z</time>
      </trkpt>
      <trkpt lat="36.70732" lon="34.46483">
        <ele>11.32424</ele>
        <time>2022-02-24T09:22:35.783Z</time>
      </trkpt>
      <trkpt lat="36.70725" lon="34.46469">
        <ele>11.253935</ele>
        <time>2022-02-24T09:22:38.825Z</time>
      </trkpt>
      <trkpt lat="36.707" lon="34.4642">
        <ele>11.00503</ele>
        <time>2022-02-24T09:22:50.107Z</time>
      </trkpt>
      <trkpt lat="36.7062" lon="34.46272">
        <ele>10.227596</ele>
        <time>2022-02-24T09:23:23.713Z</time>
      </trkpt>
      <trkpt lat="36.70596" lon="34.46224">
        <ele>9.980069</ele>
        <time>2022-02-24T09:23:34.296Z</time>
      </trkpt>
      <trkpt lat="36.70544" lon="34.4612">
        <ele>9.794243</ele>
        <time>2022-02-24T09:23:59.981Z</time>
      </trkpt>
      <trkpt lat="36.70489" lon="34.45999">
        <ele>10.614178</ele>
        <time>2022-02-24T09:24:35.027Z</time>
      </trkpt>
      <trkpt lat="36.70457" lon="34.45929">
        <ele>10.956475</ele>
        <time>2022-02-24T09:24:55.467Z</time>
      </trkpt>
      <trkpt lat="36.70436" lon="34.45879">
        <ele>11.038386</ele>
        <time>2022-02-24T09:25:09.261Z</time>
      </trkpt>
      <trkpt lat="36.70429" lon="34.45863">
        <ele>11.063838</ele>
        <time>2022-02-24T09:25:13.133Z</time>
      </trkpt>
      <trkpt lat="36.70373" lon="34.45751">
        <ele>11.234475</ele>
        <time>2022-02-24T09:25:39.997Z</time>
      </trkpt>
      <trkpt lat="36.70328" lon="34.45669">
        <ele>11.222108</ele>
        <time>2022-02-24T09:25:59.832Z</time>
      </trkpt>
      <trkpt lat="36.70297" lon="34.45616">
        <ele>11.213908</ele>
        <time>2022-02-24T09:26:14.039Z</time>
      </trkpt>
      <trkpt lat="36.7028" lon="34.45588">
        <ele>11.209588</ele>
        <time>2022-02-24T09:26:22.052Z</time>
      </trkpt>
      <trkpt lat="36.70265" lon="34.45563">
        <ele>11.327475</ele>
        <time>2022-02-24T09:26:29.619Z</time>
      </trkpt>
      <trkpt lat="36.70253" lon="34.45542">
        <ele>11.488384</ele>
        <time>2022-02-24T09:26:35.803Z</time>
      </trkpt>
      <trkpt lat="36.70175" lon="34.45416">
        <ele>12.480857</ele>
        <time>2022-02-24T09:27:15.796Z</time>
      </trkpt>
      <trkpt lat="36.70173" lon="34.45414">
        <ele>12.501814</ele>
        <time>2022-02-24T09:27:16.567Z</time>
      </trkpt>
      <trkpt lat="36.70106" lon="34.45291">
        <ele>12.98977</ele>
        <time>2022-02-24T09:27:51.188Z</time>
      </trkpt>
      <trkpt lat="36.70086" lon="34.45251">
        <ele>13.124705</ele>
        <time>2022-02-24T09:28:01.531Z</time>
      </trkpt>
      <trkpt lat="36.6996" lon="34.45003">
        <ele>13.080935</ele>
        <time>2022-02-24T09:29:04.112Z</time>
      </trkpt>
      <trkpt lat="36.69889" lon="34.44865">
        <ele>12.670773</ele>
        <time>2022-02-24T09:29:36.585Z</time>
      </trkpt>
      <trkpt lat="36.69638" lon="34.44382">
        <ele>12.56527</ele>
        <time>2022-02-24T09:31:41.066Z</time>
      </trkpt>
      <trkpt lat="36.69637" lon="34.44379">
        <ele>12.557755</ele>
        <time>2022-02-24T09:31:41.886Z</time>
      </trkpt>
      <trkpt lat="36.69612" lon="34.4433">
        <ele>12.43937</ele>
        <time>2022-02-24T09:31:53.859Z</time>
      </trkpt>
      <trkpt lat="36.69525" lon="34.44151">
        <ele>11.230835</ele>
        <time>2022-02-24T09:32:33.694Z</time>
      </trkpt>
      <trkpt lat="36.69425" lon="34.4396">
        <ele>9.836139</ele>
        <time>2022-02-24T09:33:15.111Z</time>
      </trkpt>
      <trkpt lat="36.69369" lon="34.43852">
        <ele>9.611707</ele>
        <time>2022-02-24T09:33:43.437Z</time>
      </trkpt>
      <trkpt lat="36.69357" lon="34.43829">
        <ele>9.739595</ele>
        <time>2022-02-24T09:33:50.305Z</time>
      </trkpt>
      <trkpt lat="36.69315" lon="34.4375">
        <ele>10.172879</ele>
        <time>2022-02-24T09:34:14.085Z</time>
      </trkpt>
      <trkpt lat="36.6914" lon="34.43399">
        <ele>11.934006</ele>
        <time>2022-02-24T09:35:48.437Z</time>
      </trkpt>
      <trkpt lat="36.69057" lon="34.43234">
        <ele>13.880094</ele>
        <time>2022-02-24T09:36:39.896Z</time>
      </trkpt>
      <trkpt lat="36.68988" lon="34.43098">
        <ele>15.91519</ele>
        <time>2022-02-24T09:37:26.949Z</time>
      </trkpt>
      <trkpt lat="36.68997" lon="34.43085">
        <ele>16.092571</ele>
        <time>2022-02-24T09:37:31.789Z</time>
      </trkpt>
      <trkpt lat="36.69015" lon="34.4306">
        <ele>16.425285</ele>
        <time>2022-02-24T09:37:40.832Z</time>
      </trkpt>
      <trkpt lat="36.69027" lon="34.43044">
        <ele>16.651451</ele>
        <time>2022-02-24T09:37:47.057Z</time>
      </trkpt>
      <trkpt lat="36.69015" lon="34.43022">
        <ele>16.918606</ele>
        <time>2022-02-24T09:37:54.030Z</time>
      </trkpt>
      <trkpt lat="36.68987" lon="34.4295">
        <ele>17.721257</ele>
        <time>2022-02-24T09:38:14.435Z</time>
      </trkpt>
      <trkpt lat="36.68985" lon="34.42945">
        <ele>17.780958</ele>
        <time>2022-02-24T09:38:15.770Z</time>
      </trkpt>
      <trkpt lat="36.68946" lon="34.42853">
        <ele>17.886261</ele>
        <time>2022-02-24T09:38:39.766Z</time>
      </trkpt>
      <trkpt lat="36.68925" lon="34.42813">
        <ele>17.930406</ele>
        <time>2022-02-24T09:38:50.063Z</time>
      </trkpt>
      <trkpt lat="36.68905" lon="34.4277">
        <ele>17.97621</ele>
        <time>2022-02-24T09:39:00.792Z</time>
      </trkpt>
      <trkpt lat="36.68899" lon="34.42756">
        <ele>17.991212</ele>
        <time>2022-02-24T09:39:04.415Z</time>
      </trkpt>
      <trkpt lat="36.68882" lon="34.4272">
        <ele>18.113316</ele>
        <time>2022-02-24T09:39:13.634Z</time>
      </trkpt>
      <trkpt lat="36.68853" lon="34.42656">
        <ele>18.367811</ele>
        <time>2022-02-24T09:39:30.710Z</time>
      </trkpt>
      <trkpt lat="36.68818" lon="34.42599">
        <ele>18.618002</ele>
        <time>2022-02-24T09:39:48.143Z</time>
      </trkpt>
      <trkpt lat="36.68801" lon="34.42557">
        <ele>18.792825</ele>
        <time>2022-02-24T09:40:00.153Z</time>
      </trkpt>
      <trkpt lat="36.68743" lon="34.4244">
        <ele>20.129907</ele>
        <time>2022-02-24T09:40:36.361Z</time>
      </trkpt>
      <trkpt lat="36.6874" lon="34.42426">
        <ele>20.277384</ele>
        <time>2022-02-24T09:40:40.774Z</time>
      </trkpt>
      <trkpt lat="36.68737" lon="34.42412">
        <ele>20.412879</ele>
        <time>2022-02-24T09:40:44.965Z</time>
      </trkpt>
      <trkpt lat="36.68735" lon="34.42401">
        <ele>20.523895</ele>
        <time>2022-02-24T09:40:47.841Z</time>
      </trkpt>
      <trkpt lat="36.68725" lon="34.4239">
        <ele>20.687333</ele>
        <time>2022-02-24T09:40:52.376Z</time>
      </trkpt>
      <trkpt lat="36.68719" lon="34.42385">
        <ele>20.779741</ele>
        <time>2022-02-24T09:40:55.318Z</time>
      </trkpt>
      <trkpt lat="36.68714" lon="34.4238">
        <ele>20.855786</ele>
        <time>2022-02-24T09:40:57.513Z</time>
      </trkpt>
      <trkpt lat="36.68702" lon="34.4237">
        <ele>21.039959</ele>
        <time>2022-02-24T09:41:01.901Z</time>
      </trkpt>
      <trkpt lat="36.68677" lon="34.42331">
        <ele>21.682856</ele>
        <time>2022-02-24T09:41:16.697Z</time>
      </trkpt>
      <trkpt lat="36.68653" lon="34.42311">
        <ele>22.141927</ele>
        <time>2022-02-24T09:41:27.323Z</time>
      </trkpt>
      <trkpt lat="36.68644" lon="34.42301">
        <ele>22.341007</ele>
        <time>2022-02-24T09:41:31.844Z</time>
      </trkpt>
      <trkpt lat="36.68637" lon="34.42294">
        <ele>22.476172</ele>
        <time>2022-02-24T09:41:35.255Z</time>
      </trkpt>
      <trkpt lat="36.68615" lon="34.42256">
        <ele>23.07321</ele>
        <time>2022-02-24T09:41:48.299Z</time>
      </trkpt>
      <trkpt lat="36.68596" lon="34.42218">
        <ele>23.642481</ele>
        <time>2022-02-24T09:42:00.935Z</time>
      </trkpt>
      <trkpt lat="36.68594" lon="34.42215">
        <ele>23.693512</ele>
        <time>2022-02-24T09:42:02.353Z</time>
      </trkpt>
      <trkpt lat="36.68523" lon="34.42097">
        <ele>24.750962</ele>
        <time>2022-02-24T09:42:41.694Z</time>
      </trkpt>
      <trkpt lat="36.68509" lon="34.42074">
        <ele>24.945449</ele>
        <time>2022-02-24T09:42:48.505Z</time>
      </trkpt>
      <trkpt lat="36.68506" lon="34.42046">
        <ele>25.136176</ele>
        <time>2022-02-24T09:42:55.342Z</time>
      </trkpt>
      <trkpt lat="36.685" lon="34.41997">
        <ele>25.319169</ele>
        <time>2022-02-24T09:43:06.629Z</time>
      </trkpt>
      <trkpt lat="36.68446" lon="34.41938">
        <ele>25.238969</ele>
        <time>2022-02-24T09:43:26.493Z</time>
      </trkpt>
      <trkpt lat="36.6844" lon="34.41929">
        <ele>25.228073</ele>
        <time>2022-02-24T09:43:28.937Z</time>
      </trkpt>
      <trkpt lat="36.68431" lon="34.41915">
        <ele>25.212778</ele>
        <time>2022-02-24T09:43:33.085Z</time>
      </trkpt>
      <trkpt lat="36.68419" lon="34.4188">
        <ele>25.178195</ele>
        <time>2022-02-24T09:43:41.049Z</time>
      </trkpt>
      <trkpt lat="36.68416" lon="34.41796">
        <ele>25.098751</ele>
        <time>2022-02-24T09:43:58.727Z</time>
      </trkpt>
      <trkpt lat="36.68414" lon="34.41783">
        <ele>25.085001</ele>
        <time>2022-02-24T09:44:02.219Z</time>
      </trkpt>
      <trkpt lat="36.68406" lon="34.41778">
        <ele>25.072799</ele>
        <time>2022-02-24T09:44:04.588Z</time>
      </trkpt>
      <trkpt lat="36.68363" lon="34.41761">
        <ele>25.016315</ele>
        <time>2022-02-24T09:44:16.771Z</time>
      </trkpt>
      <trkpt lat="36.68306" lon="34.41622">
        <ele>24.696326</ele>
        <time>2022-02-24T09:44:51.455Z</time>
      </trkpt>
      <trkpt lat="36.68304" lon="34.41618">
        <ele>24.679758</ele>
        <time>2022-02-24T09:44:52.430Z</time>
      </trkpt>
      <trkpt lat="36.68271" lon="34.41557">
        <ele>24.372462</ele>
        <time>2022-02-24T09:45:07.726Z</time>
      </trkpt>
      <trkpt lat="36.68252" lon="34.41526">
        <ele>24.212146</ele>
        <time>2022-02-24T09:45:15.573Z</time>
      </trkpt>
      <trkpt lat="36.68199" lon="34.41569">
        <ele>23.723814</ele>
        <time>2022-02-24T09:45:31.177Z</time>
      </trkpt>
      <trkpt lat="36.68185" lon="34.41551">
        <ele>23.438777</ele>
        <time>2022-02-24T09:45:35.738Z</time>
      </trkpt>
      <trkpt lat="36.68079" lon="34.41434">
        <ele>21.441856</ele>
        <time>2022-02-24T09:46:06.393Z</time>
      </trkpt>
      <trkpt lat="36.68009" lon="34.41377">
        <ele>21.335993</ele>
        <time>2022-02-24T09:46:25.615Z</time>
      </trkpt>
      <trkpt lat="36.6794" lon="34.41328">
        <ele>21.241103</ele>
        <time>2022-02-24T09:46:48.506Z</time>
      </trkpt>
      <trkpt lat="36.67886" lon="34.41289">
        <ele>21.988303</ele>
        <time>2022-02-24T09:47:09.521Z</time>
      </trkpt>
      <trkpt lat="36.67881" lon="34.41285">
        <ele>22.092058</ele>
        <time>2022-02-24T09:47:11.645Z</time>
      </trkpt>
      <trkpt lat="36.67779" lon="34.41213">
        <ele>24.095347</ele>
        <time>2022-02-24T09:47:54.940Z</time>
      </trkpt>
      <trkpt lat="36.67771" lon="34.41207">
        <ele>24.248562</ele>
        <time>2022-02-24T09:47:58.007Z</time>
      </trkpt>
      <trkpt lat="36.67706" lon="34.41162">
        <ele>24.750048</ele>
        <time>2022-02-24T09:48:22.124Z</time>
      </trkpt>
      <trkpt lat="36.67726" lon="34.4111">
        <ele>25.042122</ele>
        <time>2022-02-24T09:48:35.253Z</time>
      </trkpt>
      <trkpt lat="36.67728" lon="34.41098">
        <ele>25.105492</ele>
        <time>2022-02-24T09:48:38.107Z</time>
      </trkpt>
      <trkpt lat="36.67643" lon="34.41039">
        <ele>25.375475</ele>
        <time>2022-02-24T09:49:04.695Z</time>
      </trkpt>
      <trkpt lat="36.67626" lon="34.4103">
        <ele>25.352352</ele>
        <time>2022-02-24T09:49:09.617Z</time>
      </trkpt>
      <trkpt lat="36.67587" lon="34.41003">
        <ele>25.295472</ele>
        <time>2022-02-24T09:49:21.405Z</time>
      </trkpt>
      <trkpt lat="36.67546" lon="34.40974">
        <ele>25.234047</ele>
        <time>2022-02-24T09:49:34.066Z</time>
      </trkpt>
      <trkpt lat="36.67518" lon="34.40954">
        <ele>25.180696</ele>
        <time>2022-02-24T09:49:42.776Z</time>
      </trkpt>
      <trkpt lat="36.67475" lon="34.40923">
        <ele>25.044271</ele>
        <time>2022-02-24T09:49:56.778Z</time>
      </trkpt>
      <trkpt lat="36.67428" lon="34.40891">
        <ele>24.896528</ele>
        <time>2022-02-24T09:50:11.845Z</time>
      </trkpt>
      <trkpt lat="36.67363" lon="34.4085">
        <ele>24.650371</ele>
        <time>2022-02-24T09:50:30.371Z</time>
      </trkpt>
      <trkpt lat="36.67369" lon="34.40821">
        <ele>24.287223</ele>
        <time>2022-02-24T09:50:36.052Z</time>
      </trkpt>
      <trkpt lat="36.67359" lon="34.40815">
        <ele>24.115717</ele>
        <time>2022-02-24T09:50:38.862Z</time>
      </trkpt>
      <trkpt lat="36.67327" lon="34.40786">
        <ele>23.524317</ele>
        <time>2022-02-24T09:50:48.070Z</time>
      </trkpt>
      <trkpt lat="36.67325" lon="34.40783">
        <ele>23.474956</ele>
        <time>2022-02-24T09:50:48.822Z</time>
      </trkpt>
      <trkpt lat="36.67319" lon="34.40776">
        <ele>23.355393</ele>
        <time>2022-02-24T09:50:50.606Z</time>
      </trkpt>
      <trkpt lat="36.67294" lon="34.40751">
        <ele>22.879543</ele>
        <time>2022-02-24T09:50:57.943Z</time>
      </trkpt>
      <trkpt lat="36.67293" lon="34.4075">
        <ele>22.851822</ele>
        <time>2022-02-24T09:50:58.315Z</time>
      </trkpt>
      <trkpt lat="36.67284" lon="34.40741">
        <ele>22.678202</ele>
        <time>2022-02-24T09:51:01.101Z</time>
      </trkpt>
      <trkpt lat="36.6723" lon="34.40684">
        <ele>21.516201</ele>
        <time>2022-02-24T09:51:16.427Z</time>
      </trkpt>
      <trkpt lat="36.67223" lon="34.40677">
        <ele>21.337186</ele>
        <time>2022-02-24T09:51:18.445Z</time>
      </trkpt>
      <trkpt lat="36.67215" lon="34.40675">
        <ele>21.198678</ele>
        <time>2022-02-24T09:51:19.910Z</time>
      </trkpt>
      <trkpt lat="36.67198" lon="34.40672">
        <ele>20.867798</ele>
        <time>2022-02-24T09:51:23.567Z</time>
      </trkpt>
      <trkpt lat="36.67143" lon="34.40599">
        <ele>19.326027</ele>
        <time>2022-02-24T09:51:41.413Z</time>
      </trkpt>
      <trkpt lat="36.67131" lon="34.40591">
        <ele>19.07159</ele>
        <time>2022-02-24T09:51:44.230Z</time>
      </trkpt>
      <trkpt lat="36.67102" lon="34.40559">
        <ele>18.533768</ele>
        <time>2022-02-24T09:51:53.203Z</time>
      </trkpt>
      <trkpt lat="36.67044" lon="34.40447">
        <ele>18.300172</ele>
        <time>2022-02-24T09:52:21.798Z</time>
      </trkpt>
      <trkpt lat="36.66944" lon="34.40269">
        <ele>18.687669</ele>
        <time>2022-02-24T09:53:15.074Z</time>
      </trkpt>
      <trkpt lat="36.6694" lon="34.40262">
        <ele>18.716851</ele>
        <time>2022-02-24T09:53:16.702Z</time>
      </trkpt>
      <trkpt lat="36.66906" lon="34.40207">
        <ele>18.973362</ele>
        <time>2022-02-24T09:53:33.198Z</time>
      </trkpt>
      <trkpt lat="36.66896" lon="34.40202">
        <ele>19.015205</ele>
        <time>2022-02-24T09:53:36.136Z</time>
      </trkpt>
      <trkpt lat="36.66881" lon="34.40205">
        <ele>19.075228</ele>
        <time>2022-02-24T09:53:40.421Z</time>
      </trkpt>
      <trkpt lat="36.66849" lon="34.40231">
        <ele>19.22993</ele>
        <time>2022-02-24T09:53:52.109Z</time>
      </trkpt>
      <trkpt lat="36.66827" lon="34.40251">
        <ele>19.337126</ele>
        <time>2022-02-24T09:54:00.149Z</time>
      </trkpt>
      <trkpt lat="36.66772" lon="34.40154">
        <ele>19.713227</ele>
        <time>2022-02-24T09:54:27.413Z</time>
      </trkpt>
      <trkpt lat="36.66741" lon="34.40116">
        <ele>19.853286</ele>
        <time>2022-02-24T09:54:39.944Z</time>
      </trkpt>
      <trkpt lat="36.66692" lon="34.40031">
        <ele>20.12389</ele>
        <time>2022-02-24T09:55:04.543Z</time>
      </trkpt>
      <trkpt lat="36.66628" lon="34.39938">
        <ele>19.950374</ele>
        <time>2022-02-24T09:55:30.180Z</time>
      </trkpt>
      <trkpt lat="36.66599" lon="34.39906">
        <ele>19.679298</ele>
        <time>2022-02-24T09:55:39.510Z</time>
      </trkpt>
      <trkpt lat="36.66565" lon="34.39876">
        <ele>19.391967</ele>
        <time>2022-02-24T09:55:49.322Z</time>
      </trkpt>
      <trkpt lat="36.66518" lon="34.3984">
        <ele>18.975666</ele>
        <time>2022-02-24T09:56:02.161Z</time>
      </trkpt>
      <trkpt lat="36.66386" lon="34.39739">
        <ele>16.821519</ele>
        <time>2022-02-24T09:56:36.169Z</time>
      </trkpt>
      <trkpt lat="36.66357" lon="34.39718">
        <ele>16.403225</ele>
        <time>2022-02-24T09:56:43.678Z</time>
      </trkpt>
      <trkpt lat="36.66254" lon="34.39641">
        <ele>15.198614</ele>
        <time>2022-02-24T09:57:11.327Z</time>
      </trkpt>
      <trkpt lat="36.66138" lon="34.39555">
        <ele>13.994524</ele>
        <time>2022-02-24T09:57:43.346Z</time>
      </trkpt>
      <trkpt lat="36.66054" lon="34.3949">
        <ele>13.189209</ele>
        <time>2022-02-24T09:58:06.629Z</time>
      </trkpt>
      <trkpt lat="36.65904" lon="34.39376">
        <ele>12.231512</ele>
        <time>2022-02-24T09:58:49.334Z</time>
      </trkpt>
      <trkpt lat="36.65857" lon="34.39339">
        <ele>12.148691</ele>
        <time>2022-02-24T09:59:04.277Z</time>
      </trkpt>
      <trkpt lat="36.65804" lon="34.39298">
        <ele>12.057563</ele>
        <time>2022-02-24T09:59:21.131Z</time>
      </trkpt>
      <trkpt lat="36.65704" lon="34.39209">
        <ele>11.172969</ele>
        <time>2022-02-24T09:59:52.781Z</time>
      </trkpt>
      <trkpt lat="36.65627" lon="34.3912">
        <ele>9.865576</ele>
        <time>2022-02-24T10:00:15.580Z</time>
      </trkpt>
      <trkpt lat="36.65619" lon="34.3911">
        <ele>9.724379</ele>
        <time>2022-02-24T10:00:17.826Z</time>
      </trkpt>
      <trkpt lat="36.65598" lon="34.39084">
        <ele>9.079384</ele>
        <time>2022-02-24T10:00:24.050Z</time>
      </trkpt>
      <trkpt lat="36.65549" lon="34.39003">
        <ele>7.306355</ele>
        <time>2022-02-24T10:00:40.577Z</time>
      </trkpt>
      <trkpt lat="36.6549" lon="34.38876">
        <ele>5.441266</ele>
        <time>2022-02-24T10:01:05.593Z</time>
      </trkpt>
      <trkpt lat="36.65483" lon="34.38856">
        <ele>5.313832</ele>
        <time>2022-02-24T10:01:09.419Z</time>
      </trkpt>
      <trkpt lat="36.65471" lon="34.38822">
        <ele>5.093197</ele>
        <time>2022-02-24T10:01:16.354Z</time>
      </trkpt>
      <trkpt lat="36.65399" lon="34.38599">
        <ele>5.330047</ele>
        <time>2022-02-24T10:02:09.579Z</time>
      </trkpt>
      <trkpt lat="36.65397" lon="34.3859">
        <ele>5.390806</ele>
        <time>2022-02-24T10:02:12.243Z</time>
      </trkpt>
      <trkpt lat="36.65326" lon="34.38364">
        <ele>8.103412</ele>
        <time>2022-02-24T10:03:20.148Z</time>
      </trkpt>
      <trkpt lat="36.65282" lon="34.38219">
        <ele>9.904944</ele>
        <time>2022-02-24T10:04:03.303Z</time>
      </trkpt>
      <trkpt lat="36.65267" lon="34.38169">
        <ele>10.461096</ele>
        <time>2022-02-24T10:04:17.598Z</time>
      </trkpt>
      <trkpt lat="36.65204" lon="34.37974">
        <ele>11.896571</ele>
        <time>2022-02-24T10:05:08.852Z</time>
      </trkpt>
      <trkpt lat="36.65179" lon="34.37894">
        <ele>12.307685</ele>
        <time>2022-02-24T10:05:28.386Z</time>
      </trkpt>
      <trkpt lat="36.65137" lon="34.37765">
        <ele>12.512281</ele>
        <time>2022-02-24T10:05:59.049Z</time>
      </trkpt>
      <trkpt lat="36.65117" lon="34.37704">
        <ele>12.600708</ele>
        <time>2022-02-24T10:06:13.528Z</time>
      </trkpt>
      <trkpt lat="36.65074" lon="34.37575">
        <ele>12.638131</ele>
        <time>2022-02-24T10:06:44.368Z</time>
      </trkpt>
      <trkpt lat="36.6505" lon="34.37509">
        <ele>12.641429</ele>
        <time>2022-02-24T10:06:59.520Z</time>
      </trkpt>
      <trkpt lat="36.65018" lon="34.37424">
        <ele>12.723474</ele>
        <time>2022-02-24T10:07:18.827Z</time>
      </trkpt>
      <trkpt lat="36.64971" lon="34.37307">
        <ele>12.902359</ele>
        <time>2022-02-24T10:07:48.066Z</time>
      </trkpt>
      <trkpt lat="36.64957" lon="34.37272">
        <ele>12.969531</ele>
        <time>2022-02-24T10:07:56.818Z</time>
      </trkpt>
      <trkpt lat="36.64941" lon="34.37231">
        <ele>13.197412</ele>
        <time>2022-02-24T10:08:07.556Z</time>
      </trkpt>
      <trkpt lat="36.64886" lon="34.37107">
        <ele>13.895066</ele>
        <time>2022-02-24T10:08:42.038Z</time>
      </trkpt>
      <trkpt lat="36.64871" lon="34.37072">
        <ele>14.071488</ele>
        <time>2022-02-24T10:08:51.748Z</time>
      </trkpt>
      <trkpt lat="36.6486" lon="34.37046">
        <ele>14.148787</ele>
        <time>2022-02-24T10:08:58.549Z</time>
      </trkpt>
      <trkpt lat="36.64767" lon="34.36836">
        <ele>14.518049</ele>
        <time>2022-02-24T10:09:52.366Z</time>
      </trkpt>
      <trkpt lat="36.6464" lon="34.36524">
        <ele>13.096664</ele>
        <time>2022-02-24T10:11:01.541Z</time>
      </trkpt>
      <trkpt lat="36.6458" lon="34.36376">
        <ele>11.604411</ele>
        <time>2022-02-24T10:11:31.270Z</time>
      </trkpt>
      <trkpt lat="36.64517" lon="34.36222">
        <ele>9.996856</ele>
        <time>2022-02-24T10:12:02.485Z</time>
      </trkpt>
      <trkpt lat="36.64497" lon="34.36173">
        <ele>9.567599</ele>
        <time>2022-02-24T10:12:12.882Z</time>
      </trkpt>
      <trkpt lat="36.64393" lon="34.35926">
        <ele>7.763932</ele>
        <time>2022-02-24T10:13:05.391Z</time>
      </trkpt>
      <trkpt lat="36.64385" lon="34.35909">
        <ele>7.655191</ele>
        <time>2022-02-24T10:13:09.074Z</time>
      </trkpt>
      <trkpt lat="36.6437" lon="34.35873">
        <ele>7.520411</ele>
        <time>2022-02-24T10:13:17.724Z</time>
      </trkpt>
      <trkpt lat="36.64361" lon="34.3585">
        <ele>7.551816</ele>
        <time>2022-02-24T10:13:23.269Z</time>
      </trkpt>
      <trkpt lat="36.6435" lon="34.35826">
        <ele>7.586387</ele>
        <time>2022-02-24T10:13:29.186Z</time>
      </trkpt>
      <trkpt lat="36.64304" lon="34.35709">
        <ele>7.749187</ele>
        <time>2022-02-24T10:13:59.176Z</time>
      </trkpt>
      <trkpt lat="36.64257" lon="34.35597">
        <ele>7.740787</ele>
        <time>2022-02-24T10:14:26.657Z</time>
      </trkpt>
      <trkpt lat="36.64248" lon="34.35574">
        <ele>7.729937</ele>
        <time>2022-02-24T10:14:31.872Z</time>
      </trkpt>
      <trkpt lat="36.6422" lon="34.35505">
        <ele>7.698039</ele>
        <time>2022-02-24T10:14:47.962Z</time>
      </trkpt>
      <trkpt lat="36.64199" lon="34.35455">
        <ele>7.763926</ele>
        <time>2022-02-24T10:14:59.568Z</time>
      </trkpt>
      <trkpt lat="36.64188" lon="34.35428">
        <ele>7.831365</ele>
        <time>2022-02-24T10:15:06.188Z</time>
      </trkpt>
      <trkpt lat="36.6414" lon="34.35315">
        <ele>8.108622</ele>
        <time>2022-02-24T10:15:35.066Z</time>
      </trkpt>
      <trkpt lat="36.64069" lon="34.35162">
        <ele>8.853969</ele>
        <time>2022-02-24T10:16:18.260Z</time>
      </trkpt>
      <trkpt lat="36.64007" lon="34.35061">
        <ele>9.123413</ele>
        <time>2022-02-24T10:16:47.248Z</time>
      </trkpt>
      <trkpt lat="36.63942" lon="34.34976">
        <ele>8.885178</ele>
        <time>2022-02-24T10:17:10.712Z</time>
      </trkpt>
      <trkpt lat="36.6393" lon="34.3496">
        <ele>8.84088</ele>
        <time>2022-02-24T10:17:14.761Z</time>
      </trkpt>
      <trkpt lat="36.63846" lon="34.34878">
        <ele>8.472406</ele>
        <time>2022-02-24T10:17:41.428Z</time>
      </trkpt>
      <trkpt lat="36.63824" lon="34.34859">
        <ele>8.370916</ele>
        <time>2022-02-24T10:17:48.066Z</time>
      </trkpt>
      <trkpt lat="36.63801" lon="34.3484">
        <ele>8.26513</ele>
        <time>2022-02-24T10:17:54.784Z</time>
      </trkpt>
      <trkpt lat="36.6377" lon="34.34812">
        <ele>8.119397</ele>
        <time>2022-02-24T10:18:04.570Z</time>
      </trkpt>
      <trkpt lat="36.63764" lon="34.34807">
        <ele>8.094924</ele>
        <time>2022-02-24T10:18:06.300Z</time>
      </trkpt>
      <trkpt lat="36.63749" lon="34.34794">
        <ele>8.080775</ele>
        <time>2022-02-24T10:18:11.400Z</time>
      </trkpt>
      <trkpt lat="36.63677" lon="34.34731">
        <ele>8.057936</ele>
        <time>2022-02-24T10:18:35.341Z</time>
      </trkpt>
      <trkpt lat="36.63586" lon="34.34652">
        <ele>8.040366</ele>
        <time>2022-02-24T10:19:04.423Z</time>
      </trkpt>
      <trkpt lat="36.63556" lon="34.34626">
        <ele>8.042594</ele>
        <time>2022-02-24T10:19:14.174Z</time>
      </trkpt>
      <trkpt lat="36.63163" lon="34.34283">
        <ele>7.985552</ele>
        <time>2022-02-24T10:21:22.638Z</time>
      </trkpt>
      <trkpt lat="36.62893" lon="34.34059">
        <ele>6.865898</ele>
        <time>2022-02-24T10:22:43.706Z</time>
      </trkpt>
      <trkpt lat="36.62683" lon="34.33867">
        <ele>6.456668</ele>
        <time>2022-02-24T10:23:51.149Z</time>
      </trkpt>
      <trkpt lat="36.62624" lon="34.33814">
        <ele>6.507635</ele>
        <time>2022-02-24T10:24:10.353Z</time>
      </trkpt>
      <trkpt lat="36.62505" lon="34.33687">
        <ele>7.182257</ele>
        <time>2022-02-24T10:24:55.631Z</time>
      </trkpt>
      <trkpt lat="36.62422" lon="34.33589">
        <ele>7.77758</ele>
        <time>2022-02-24T10:25:30.798Z</time>
      </trkpt>
      <trkpt lat="36.62409" lon="34.33574">
        <ele>7.848124</ele>
        <time>2022-02-24T10:25:36.203Z</time>
      </trkpt>
      <trkpt lat="36.62342" lon="34.33494">
        <ele>8.206722</ele>
        <time>2022-02-24T10:26:02.648Z</time>
      </trkpt>
      <trkpt lat="36.62112" lon="34.3319">
        <ele>7.423738</ele>
        <time>2022-02-24T10:27:26.876Z</time>
      </trkpt>
      <trkpt lat="36.6197" lon="34.33008">
        <ele>7.058343</ele>
        <time>2022-02-24T10:28:20.946Z</time>
      </trkpt>
      <trkpt lat="36.61695" lon="34.32625">
        <ele>5.49954</ele>
        <time>2022-02-24T10:30:03.015Z</time>
      </trkpt>
      <trkpt lat="36.61434" lon="34.32276">
        <ele>6.958369</ele>
        <time>2022-02-24T10:31:53.418Z</time>
      </trkpt>
      <trkpt lat="36.61429" lon="34.32268">
        <ele>6.995926</ele>
        <time>2022-02-24T10:31:55.987Z</time>
      </trkpt>
      <trkpt lat="36.61422" lon="34.32256">
        <ele>7.043458</ele>
        <time>2022-02-24T10:31:59.407Z</time>
      </trkpt>
      <trkpt lat="36.6142" lon="34.32252">
        <ele>7.057141</ele>
        <time>2022-02-24T10:32:00.326Z</time>
      </trkpt>
      <trkpt lat="36.61418" lon="34.32249">
        <ele>7.070938</ele>
        <time>2022-02-24T10:32:01.294Z</time>
      </trkpt>
      <trkpt lat="36.61416" lon="34.32246">
        <ele>7.084343</ele>
        <time>2022-02-24T10:32:02.230Z</time>
      </trkpt>
      <trkpt lat="36.61413" lon="34.32245">
        <ele>7.098039</ele>
        <time>2022-02-24T10:32:03.191Z</time>
      </trkpt>
      <trkpt lat="36.61348" lon="34.32156">
        <ele>7.489391</ele>
        <time>2022-02-24T10:32:30.390Z</time>
      </trkpt>
      <trkpt lat="36.61321" lon="34.32116">
        <ele>7.693349</ele>
        <time>2022-02-24T10:32:42.958Z</time>
      </trkpt>
      <trkpt lat="36.61271" lon="34.32047">
        <ele>8.058853</ele>
        <time>2022-02-24T10:33:05.389Z</time>
      </trkpt>
      <trkpt lat="36.61201" lon="34.31953">
        <ele>8.446879</ele>
        <time>2022-02-24T10:33:34.325Z</time>
      </trkpt>
      <trkpt lat="36.61136" lon="34.31859">
        <ele>8.630812</ele>
        <time>2022-02-24T10:34:01.622Z</time>
      </trkpt>
      <trkpt lat="36.61101" lon="34.31807">
        <ele>8.783951</ele>
        <time>2022-02-24T10:34:16.242Z</time>
      </trkpt>
      <trkpt lat="36.61072" lon="34.31767">
        <ele>9.063913</ele>
        <time>2022-02-24T10:34:28.001Z</time>
      </trkpt>
      <trkpt lat="36.61065" lon="34.31757">
        <ele>9.132404</ele>
        <time>2022-02-24T10:34:31.086Z</time>
      </trkpt>
      <trkpt lat="36.61048" lon="34.31733">
        <ele>9.30298</ele>
        <time>2022-02-24T10:34:38.715Z</time>
      </trkpt>
      <trkpt lat="36.61002" lon="34.31672">
        <ele>9.735408</ele>
        <time>2022-02-24T10:34:59.518Z</time>
      </trkpt>
      <trkpt lat="36.60992" lon="34.31657">
        <ele>9.83933</ele>
        <time>2022-02-24T10:35:04.998Z</time>
      </trkpt>
      <trkpt lat="36.60888" lon="34.31512">
        <ele>11.380548</ele>
        <time>2022-02-24T10:35:55.225Z</time>
      </trkpt>
      <trkpt lat="36.60845" lon="34.31449">
        <ele>11.981766</ele>
        <time>2022-02-24T10:36:14.558Z</time>
      </trkpt>
      <trkpt lat="36.60792" lon="34.31365">
        <ele>12.676025</ele>
        <time>2022-02-24T10:36:39.917Z</time>
      </trkpt>
      <trkpt lat="36.60759" lon="34.31318">
        <ele>13.079722</ele>
        <time>2022-02-24T10:36:56.084Z</time>
      </trkpt>
      <trkpt lat="36.60728" lon="34.31272">
        <ele>13.375007</ele>
        <time>2022-02-24T10:37:11.790Z</time>
      </trkpt>
      <trkpt lat="36.60726" lon="34.31269">
        <ele>13.393401</ele>
        <time>2022-02-24T10:37:12.876Z</time>
      </trkpt>
      <trkpt lat="36.60696" lon="34.31221">
        <ele>13.675451</ele>
        <time>2022-02-24T10:37:27.800Z</time>
      </trkpt>
      <trkpt lat="36.60718" lon="34.31203">
        <ele>13.829158</ele>
        <time>2022-02-24T10:37:34.899Z</time>
      </trkpt>
      <trkpt lat="36.60726" lon="34.31198">
        <ele>13.879799</ele>
        <time>2022-02-24T10:37:37.623Z</time>
      </trkpt>
      <trkpt lat="36.60714" lon="34.31149">
        <ele>14.116121</ele>
        <time>2022-02-24T10:37:49.488Z</time>
      </trkpt>
      <trkpt lat="36.60712" lon="34.31144">
        <ele>14.138491</ele>
        <time>2022-02-24T10:37:50.531Z</time>
      </trkpt>
      <trkpt lat="36.60711" lon="34.31139">
        <ele>14.163857</ele>
        <time>2022-02-24T10:37:51.621Z</time>
      </trkpt>
      <trkpt lat="36.60703" lon="34.31125">
        <ele>14.081933</ele>
        <time>2022-02-24T10:37:55.756Z</time>
      </trkpt>
      <trkpt lat="36.60689" lon="34.31099">
        <ele>13.861879</ele>
        <time>2022-02-24T10:38:02.652Z</time>
      </trkpt>
      <trkpt lat="36.60686" lon="34.31092">
        <ele>13.805242</ele>
        <time>2022-02-24T10:38:04.385Z</time>
      </trkpt>
      <trkpt lat="36.60669" lon="34.3106">
        <ele>13.530223</ele>
        <time>2022-02-24T10:38:12.207Z</time>
      </trkpt>
      <trkpt lat="36.60647" lon="34.3102">
        <ele>13.191882</ele>
        <time>2022-02-24T10:38:21.265Z</time>
      </trkpt>
      <trkpt lat="36.60629" lon="34.30987">
        <ele>12.907423</ele>
        <time>2022-02-24T10:38:28.646Z</time>
      </trkpt>
      <trkpt lat="36.60648" lon="34.30973">
        <ele>12.716414</ele>
        <time>2022-02-24T10:38:33.419Z</time>
      </trkpt>
      <trkpt lat="36.60628" lon="34.30935">
        <ele>12.333868</ele>
        <time>2022-02-24T10:38:41.887Z</time>
      </trkpt>
      <trkpt lat="36.60598" lon="34.30885">
        <ele>11.755421</ele>
        <time>2022-02-24T10:38:53.711Z</time>
      </trkpt>
      <trkpt lat="36.60575" lon="34.30839">
        <ele>11.259773</ele>
        <time>2022-02-24T10:39:04.103Z</time>
      </trkpt>
      <trkpt lat="36.60545" lon="34.30782">
        <ele>10.618001</ele>
        <time>2022-02-24T10:39:17.570Z</time>
      </trkpt>
      <trkpt lat="36.60513" lon="34.30722">
        <ele>10.04255</ele>
        <time>2022-02-24T10:39:31.441Z</time>
      </trkpt>
      <trkpt lat="36.60498" lon="34.30739">
        <ele>9.846441</ele>
        <time>2022-02-24T10:39:36.127Z</time>
      </trkpt>
      <trkpt lat="36.60459" lon="34.30669">
        <ele>9.188603</ele>
        <time>2022-02-24T10:39:51.770Z</time>
      </trkpt>
      <trkpt lat="36.60387" lon="34.30532">
        <ele>7.973596</ele>
        <time>2022-02-24T10:40:22.408Z</time>
      </trkpt>
      <trkpt lat="36.60306" lon="34.30381">
        <ele>6.774371</ele>
        <time>2022-02-24T10:40:57.191Z</time>
      </trkpt>
      <trkpt lat="36.60253" lon="34.30288">
        <ele>6.139311</ele>
        <time>2022-02-24T10:41:19.106Z</time>
      </trkpt>
      <trkpt lat="36.60227" lon="34.30236">
        <ele>5.842878</ele>
        <time>2022-02-24T10:41:30.902Z</time>
      </trkpt>
      <trkpt lat="36.60169" lon="34.30124">
        <ele>5.398757</ele>
        <time>2022-02-24T10:41:57.241Z</time>
      </trkpt>
      <trkpt lat="36.60135" lon="34.30058">
        <ele>5.172248</ele>
        <time>2022-02-24T10:42:13.555Z</time>
      </trkpt>
      <trkpt lat="36.60107" lon="34.30005">
        <ele>5.278349</ele>
        <time>2022-02-24T10:42:27.136Z</time>
      </trkpt>
      <trkpt lat="36.60051" lon="34.29902">
        <ele>5.489095</ele>
        <time>2022-02-24T10:42:55.149Z</time>
      </trkpt>
      <trkpt lat="36.60005" lon="34.29819">
        <ele>5.77537</ele>
        <time>2022-02-24T10:43:18.562Z</time>
      </trkpt>
      <trkpt lat="36.59946" lon="34.29725">
        <ele>6.173236</ele>
        <time>2022-02-24T10:43:46.155Z</time>
      </trkpt>
      <trkpt lat="36.59916" lon="34.29696">
        <ele>6.323592</ele>
        <time>2022-02-24T10:43:56.801Z</time>
      </trkpt>
      <trkpt lat="36.59901" lon="34.29708">
        <ele>6.391215</ele>
        <time>2022-02-24T10:44:02.151Z</time>
      </trkpt>
      <trkpt lat="36.59869" lon="34.29734">
        <ele>6.534889</ele>
        <time>2022-02-24T10:44:13.625Z</time>
      </trkpt>
      <trkpt lat="36.59856" lon="34.29711">
        <ele>6.618591</ele>
        <time>2022-02-24T10:44:20.175Z</time>
      </trkpt>
      <trkpt lat="36.5975" lon="34.29536">
        <ele>7.06042</ele>
        <time>2022-02-24T10:45:09.520Z</time>
      </trkpt>
      <trkpt lat="36.59717" lon="34.2948">
        <ele>7.128862</ele>
        <time>2022-02-24T10:45:24.648Z</time>
      </trkpt>
      <trkpt lat="36.595" lon="34.29106">
        <ele>6.988088</ele>
        <time>2022-02-24T10:47:02.455Z</time>
      </trkpt>
      <trkpt lat="36.59302" lon="34.28775">
        <ele>6.736975</ele>
        <time>2022-02-24T10:48:29.366Z</time>
      </trkpt>
      <trkpt lat="36.59291" lon="34.28758">
        <ele>6.726618</ele>
        <time>2022-02-24T10:48:33.910Z</time>
      </trkpt>
      <trkpt lat="36.59135" lon="34.28496">
        <ele>6.648317</ele>
        <time>2022-02-24T10:49:43.779Z</time>
      </trkpt>
      <trkpt lat="36.59107" lon="34.28457">
        <ele>6.611473</ele>
        <time>2022-02-24T10:49:54.955Z</time>
      </trkpt>
      <trkpt lat="36.58932" lon="34.28204">
        <ele>6.429784</ele>
        <time>2022-02-24T10:51:05.214Z</time>
      </trkpt>
      <trkpt lat="36.58787" lon="34.27994">
        <ele>6.471102</ele>
        <time>2022-02-24T10:52:05.524Z</time>
      </trkpt>
      <trkpt lat="36.58665" lon="34.27816">
        <ele>6.613643</ele>
        <time>2022-02-24T10:52:54.789Z</time>
      </trkpt>
      <trkpt lat="36.58558" lon="34.27633">
        <ele>7.865862</ele>
        <time>2022-02-24T10:53:47.391Z</time>
      </trkpt>
      <trkpt lat="36.58549" lon="34.27618">
        <ele>8.120571</ele>
        <time>2022-02-24T10:53:53.113Z</time>
      </trkpt>
      <trkpt lat="36.58527" lon="34.27578">
        <ele>8.774039</ele>
        <time>2022-02-24T10:54:07.846Z</time>
      </trkpt>
      <trkpt lat="36.58498" lon="34.27544">
        <ele>9.424575</ele>
        <time>2022-02-24T10:54:22.361Z</time>
      </trkpt>
      <trkpt lat="36.58505" lon="34.27536">
        <ele>9.581096</ele>
        <time>2022-02-24T10:54:25.620Z</time>
      </trkpt>
      <trkpt lat="36.58503" lon="34.27469">
        <ele>10.457508</ele>
        <time>2022-02-24T10:54:45.840Z</time>
      </trkpt>
      <trkpt lat="36.585" lon="34.27458">
        <ele>10.592447</ele>
        <time>2022-02-24T10:54:49.865Z</time>
      </trkpt>
      <trkpt lat="36.58463" lon="34.27461">
        <ele>11.177488</ele>
        <time>2022-02-24T10:55:03.896Z</time>
      </trkpt>
      <trkpt lat="36.58447" lon="34.27457">
        <ele>11.424024</ele>
        <time>2022-02-24T10:55:09.386Z</time>
      </trkpt>
      <trkpt lat="36.584" lon="34.27385">
        <ele>12.583186</ele>
        <time>2022-02-24T10:55:36.155Z</time>
      </trkpt>
      <trkpt lat="36.58357" lon="34.27321">
        <ele>12.745218</ele>
        <time>2022-02-24T10:55:55.401Z</time>
      </trkpt>
      <trkpt lat="36.58345" lon="34.27283">
        <ele>12.648751</ele>
        <time>2022-02-24T10:56:04.050Z</time>
      </trkpt>
      <trkpt lat="36.58331" lon="34.27232">
        <ele>12.521493</ele>
        <time>2022-02-24T10:56:15.074Z</time>
      </trkpt>
      <trkpt lat="36.58322" lon="34.27219">
        <ele>12.479077</ele>
        <time>2022-02-24T10:56:18.735Z</time>
      </trkpt>
      <trkpt lat="36.58294" lon="34.27163">
        <ele>12.260564</ele>
        <time>2022-02-24T10:56:31.895Z</time>
      </trkpt>
      <trkpt lat="36.58235" lon="34.27078">
        <ele>11.489817</ele>
        <time>2022-02-24T10:56:53.569Z</time>
      </trkpt>
      <trkpt lat="36.58202" lon="34.27093">
        <ele>11.191402</ele>
        <time>2022-02-24T10:57:02.089Z</time>
      </trkpt>
      <trkpt lat="36.5815" lon="34.26959">
        <ele>10.04577</ele>
        <time>2022-02-24T10:57:30.806Z</time>
      </trkpt>
      <trkpt lat="36.58123" lon="34.26905">
        <ele>9.521753</ele>
        <time>2022-02-24T10:57:42.726Z</time>
      </trkpt>
      <trkpt lat="36.58093" lon="34.26856">
        <ele>9.022884</ele>
        <time>2022-02-24T10:57:53.773Z</time>
      </trkpt>
      <trkpt lat="36.58057" lon="34.26805">
        <ele>8.137868</ele>
        <time>2022-02-24T10:58:05.804Z</time>
      </trkpt>
      <trkpt lat="36.58044" lon="34.26788">
        <ele>7.819152</ele>
        <time>2022-02-24T10:58:09.958Z</time>
      </trkpt>
      <trkpt lat="36.58006" lon="34.26749">
        <ele>7.002385</ele>
        <time>2022-02-24T10:58:20.399Z</time>
      </trkpt>
      <trkpt lat="36.57948" lon="34.26698">
        <ele>5.832246</ele>
        <time>2022-02-24T10:58:35.542Z</time>
      </trkpt>
      <trkpt lat="36.57939" lon="34.2669">
        <ele>5.68071</ele>
        <time>2022-02-24T10:58:37.815Z</time>
      </trkpt>
      <trkpt lat="36.57784" lon="34.26554">
        <ele>3.224789</ele>
        <time>2022-02-24T10:59:20.211Z</time>
      </trkpt>
      <trkpt lat="36.57639" lon="34.2641">
        <ele>2.348327</ele>
        <time>2022-02-24T11:00:06.181Z</time>
      </trkpt>
      <trkpt lat="36.57415" lon="34.26168">
        <ele>2.954615</ele>
        <time>2022-02-24T11:01:29.523Z</time>
      </trkpt>
      <trkpt lat="36.56935" lon="34.25646">
        <ele>5.636715</ele>
        <time>2022-02-24T11:04:32.826Z</time>
      </trkpt>
      <trkpt lat="36.5684" lon="34.25537">
        <ele>6.049731</ele>
        <time>2022-02-24T11:05:09.524Z</time>
      </trkpt>
      <trkpt lat="36.56767" lon="34.25436">
        <ele>6.209044</ele>
        <time>2022-02-24T11:05:39.262Z</time>
      </trkpt>
      <trkpt lat="36.56763" lon="34.25433">
        <ele>6.215509</ele>
        <time>2022-02-24T11:05:40.473Z</time>
      </trkpt>
      <trkpt lat="36.56721" lon="34.25398">
        <ele>6.281145</ele>
        <time>2022-02-24T11:05:53.983Z</time>
      </trkpt>
      <trkpt lat="36.56533" lon="34.25251">
        <ele>6.085664</ele>
        <time>2022-02-24T11:06:52.727Z</time>
      </trkpt>
      <trkpt lat="36.56454" lon="34.25205">
        <ele>5.853147</ele>
        <time>2022-02-24T11:07:15.113Z</time>
      </trkpt>
      <trkpt lat="36.56233" lon="34.25102">
        <ele>4.595735</ele>
        <time>2022-02-24T11:08:12.926Z</time>
      </trkpt>
      <trkpt lat="36.5616" lon="34.25052">
        <ele>3.887203</ele>
        <time>2022-02-24T11:08:32.414Z</time>
      </trkpt>
      <trkpt lat="36.56098" lon="34.24991">
        <ele>3.217242</ele>
        <time>2022-02-24T11:08:50.857Z</time>
      </trkpt>
      <trkpt lat="36.55982" lon="34.24855">
        <ele>2.168333</ele>
        <time>2022-02-24T11:09:28.423Z</time>
      </trkpt>
      <trkpt lat="36.55862" lon="34.247">
        <ele>2.278866</ele>
        <time>2022-02-24T11:10:14.952Z</time>
      </trkpt>
      <trkpt lat="36.55819" lon="34.24644">
        <ele>2.665979</ele>
        <time>2022-02-24T11:10:34.243Z</time>
      </trkpt>
      <trkpt lat="36.5573" lon="34.24534">
        <ele>4.098215</ele>
        <time>2022-02-24T11:11:15.586Z</time>
      </trkpt>
      <trkpt lat="36.55611" lon="34.24399">
        <ele>5.590838</ele>
        <time>2022-02-24T11:12:07.517Z</time>
      </trkpt>
      <trkpt lat="36.55599" lon="34.24386">
        <ele>5.72295</ele>
        <time>2022-02-24T11:12:12.367Z</time>
      </trkpt>
      <trkpt lat="36.5553" lon="34.2431">
        <ele>5.634454</ele>
        <time>2022-02-24T11:12:36.297Z</time>
      </trkpt>
      <trkpt lat="36.55521" lon="34.243">
        <ele>5.564624</ele>
        <time>2022-02-24T11:12:39.691Z</time>
      </trkpt>
      <trkpt lat="36.55519" lon="34.24294">
        <ele>5.534105</ele>
        <time>2022-02-24T11:12:40.980Z</time>
      </trkpt>
      <trkpt lat="36.55516" lon="34.24288">
        <ele>5.503135</ele>
        <time>2022-02-24T11:12:42.249Z</time>
      </trkpt>
      <trkpt lat="36.55512" lon="34.24284">
        <ele>5.471928</ele>
        <time>2022-02-24T11:12:43.447Z</time>
      </trkpt>
      <trkpt lat="36.55507" lon="34.24282">
        <ele>5.441301</ele>
        <time>2022-02-24T11:12:44.640Z</time>
      </trkpt>
      <trkpt lat="36.55501" lon="34.24282">
        <ele>5.410367</ele>
        <time>2022-02-24T11:12:45.946Z</time>
      </trkpt>
      <trkpt lat="36.55405" lon="34.24223">
        <ele>4.826673</ele>
        <time>2022-02-24T11:13:10.987Z</time>
      </trkpt>
      <trkpt lat="36.55416" lon="34.242">
        <ele>4.724211</ele>
        <time>2022-02-24T11:13:16.325Z</time>
      </trkpt>
      <trkpt lat="36.55432" lon="34.2418">
        <ele>4.620305</ele>
        <time>2022-02-24T11:13:21.421Z</time>
      </trkpt>
      <trkpt lat="36.55386" lon="34.24135">
        <ele>4.345591</ele>
        <time>2022-02-24T11:13:36.384Z</time>
      </trkpt>
      <trkpt lat="36.55308" lon="34.2406">
        <ele>4.46865</ele>
        <time>2022-02-24T11:14:06.024Z</time>
      </trkpt>
      <trkpt lat="36.553" lon="34.24054">
        <ele>4.530427</ele>
        <time>2022-02-24T11:14:09.097Z</time>
      </trkpt>
      <trkpt lat="36.55277" lon="34.24034">
        <ele>4.7238</ele>
        <time>2022-02-24T11:14:18.506Z</time>
      </trkpt>
      <trkpt lat="36.55264" lon="34.24025">
        <ele>4.821772</ele>
        <time>2022-02-24T11:14:23.412Z</time>
      </trkpt>
      <trkpt lat="36.55235" lon="34.24003">
        <ele>5.05161</ele>
        <time>2022-02-24T11:14:34.302Z</time>
      </trkpt>
      <trkpt lat="36.55223" lon="34.23995">
        <ele>5.141925</ele>
        <time>2022-02-24T11:14:38.393Z</time>
      </trkpt>
      <trkpt lat="36.55144" lon="34.23942">
        <ele>5.228654</ele>
        <time>2022-02-24T11:15:05.394Z</time>
      </trkpt>
      <trkpt lat="36.55097" lon="34.23905">
        <ele>5.124678</ele>
        <time>2022-02-24T11:15:20.348Z</time>
      </trkpt>
      <trkpt lat="36.55039" lon="34.23869">
        <ele>4.99414</ele>
        <time>2022-02-24T11:15:36.915Z</time>
      </trkpt>
      <trkpt lat="36.54983" lon="34.2383">
        <ele>4.405175</ele>
        <time>2022-02-24T11:15:52.095Z</time>
      </trkpt>
      <trkpt lat="36.54924" lon="34.23765">
        <ele>3.690723</ele>
        <time>2022-02-24T11:16:10.961Z</time>
      </trkpt>
      <trkpt lat="36.54883" lon="34.23736">
        <ele>3.348595</ele>
        <time>2022-02-24T11:16:22.877Z</time>
      </trkpt>
      <trkpt lat="36.54834" lon="34.2368">
        <ele>3.267906</ele>
        <time>2022-02-24T11:16:40.331Z</time>
      </trkpt>
      <trkpt lat="36.54701" lon="34.23604">
        <ele>3.280203</ele>
        <time>2022-02-24T11:17:22.034Z</time>
      </trkpt>
      <trkpt lat="36.54614" lon="34.23556">
        <ele>3.570694</ele>
        <time>2022-02-24T11:17:49.361Z</time>
      </trkpt>
      <trkpt lat="36.5448" lon="34.23463">
        <ele>4.814188</ele>
        <time>2022-02-24T11:18:36.752Z</time>
      </trkpt>
      <trkpt lat="36.54495" lon="34.2342">
        <ele>5.186454</ele>
        <time>2022-02-24T11:18:49.374Z</time>
      </trkpt>
      <trkpt lat="36.54502" lon="34.23319">
        <ele>6.56878</ele>
        <time>2022-02-24T11:19:19.271Z</time>
      </trkpt>
      <trkpt lat="36.54482" lon="34.23278">
        <ele>7.366455</ele>
        <time>2022-02-24T11:19:34.165Z</time>
      </trkpt>
      <trkpt lat="36.54457" lon="34.23251">
        <ele>8.047295</ele>
        <time>2022-02-24T11:19:47.113Z</time>
      </trkpt>
      <trkpt lat="36.54422" lon="34.23234">
        <ele>8.833381</ele>
        <time>2022-02-24T11:20:01.910Z</time>
      </trkpt>
      <trkpt lat="36.54393" lon="34.23232">
        <ele>9.378043</ele>
        <time>2022-02-24T11:20:13.223Z</time>
      </trkpt>
      <trkpt lat="36.54284" lon="34.232">
        <ele>10.992266</ele>
        <time>2022-02-24T11:20:53.804Z</time>
      </trkpt>
      <trkpt lat="36.54234" lon="34.232">
        <ele>11.701114</ele>
        <time>2022-02-24T11:21:09.710Z</time>
      </trkpt>
      <trkpt lat="36.54171" lon="34.23188">
        <ele>11.872136</ele>
        <time>2022-02-24T11:21:28.175Z</time>
      </trkpt>
      <trkpt lat="36.54115" lon="34.2316">
        <ele>11.930369</ele>
        <time>2022-02-24T11:21:43.900Z</time>
      </trkpt>
      <trkpt lat="36.5405" lon="34.23145">
        <ele>12.057119</ele>
        <time>2022-02-24T11:22:01.765Z</time>
      </trkpt>
      <trkpt lat="36.54028" lon="34.23121">
        <ele>12.719968</ele>
        <time>2022-02-24T11:22:10.904Z</time>
      </trkpt>
      <trkpt lat="36.54021" lon="34.23101">
        <ele>13.120703</ele>
        <time>2022-02-24T11:22:16.793Z</time>
      </trkpt>
      <trkpt lat="36.54025" lon="34.2307">
        <ele>13.686277</ele>
        <time>2022-02-24T11:22:24.960Z</time>
      </trkpt>
      <trkpt lat="36.54022" lon="34.23036">
        <ele>14.312675</ele>
        <time>2022-02-24T11:22:35.021Z</time>
      </trkpt>
      <trkpt lat="36.54026" lon="34.23023">
        <ele>14.569111</ele>
        <time>2022-02-24T11:22:40.129Z</time>
      </trkpt>
      <trkpt lat="36.54031" lon="34.23001">
        <ele>14.984581</ele>
        <time>2022-02-24T11:22:47.207Z</time>
      </trkpt>
      <trkpt lat="36.54003" lon="34.23005">
        <ele>15.615592</ele>
        <time>2022-02-24T11:23:00.257Z</time>
      </trkpt>
      <trkpt lat="36.53985" lon="34.23015">
        <ele>16.074949</ele>
        <time>2022-02-24T11:23:09.831Z</time>
      </trkpt>
      <trkpt lat="36.53956" lon="34.23">
        <ele>17.680067</ele>
        <time>2022-02-24T11:23:25.369Z</time>
      </trkpt>
      <trkpt lat="36.53937" lon="34.23001">
        <ele>18.659252</ele>
        <time>2022-02-24T11:23:35.629Z</time>
      </trkpt>
      <trkpt lat="36.53929" lon="34.23009">
        <ele>19.179765</ele>
        <time>2022-02-24T11:23:40.237Z</time>
      </trkpt>
      <trkpt lat="36.53915" lon="34.23021">
        <ele>20.06303</ele>
        <time>2022-02-24T11:23:50.252Z</time>
      </trkpt>
      <trkpt lat="36.53919" lon="34.22927">
        <ele>23.97662</ele>
        <time>2022-02-24T11:24:31.051Z</time>
      </trkpt>
      <trkpt lat="36.53909" lon="34.22876">
        <ele>25.796903</ele>
        <time>2022-02-24T11:24:52.485Z</time>
      </trkpt>
      <trkpt lat="36.53896" lon="34.2285">
        <ele>26.538247</ele>
        <time>2022-02-24T11:25:04.609Z</time>
      </trkpt>
      <trkpt lat="36.53872" lon="34.2281">
        <ele>27.737616</ele>
        <time>2022-02-24T11:25:22.252Z</time>
      </trkpt>
      <trkpt lat="36.53818" lon="34.22758">
        <ele>29.788493</ele>
        <time>2022-02-24T11:25:47.661Z</time>
      </trkpt>
      <trkpt lat="36.53808" lon="34.22746">
        <ele>30.200147</ele>
        <time>2022-02-24T11:25:52.733Z</time>
      </trkpt>
      <trkpt lat="36.53803" lon="34.22739">
        <ele>30.443455</ele>
        <time>2022-02-24T11:25:54.945Z</time>
      </trkpt>
      <trkpt lat="36.538" lon="34.22702">
        <ele>31.003473</ele>
        <time>2022-02-24T11:26:04.912Z</time>
      </trkpt>
      <trkpt lat="36.5382" lon="34.22577">
        <ele>32.360733</ele>
        <time>2022-02-24T11:26:36.811Z</time>
      </trkpt>
      <trkpt lat="36.53847" lon="34.22495">
        <ele>33.496539</ele>
        <time>2022-02-24T11:27:01.083Z</time>
      </trkpt>
      <trkpt lat="36.53845" lon="34.22467">
        <ele>34.119351</ele>
        <time>2022-02-24T11:27:09.521Z</time>
      </trkpt>
      <trkpt lat="36.53824" lon="34.22421">
        <ele>35.272467</ele>
        <time>2022-02-24T11:27:25.874Z</time>
      </trkpt>
      <trkpt lat="36.53785" lon="34.22358">
        <ele>37.000115</ele>
        <time>2022-02-24T11:27:51.819Z</time>
      </trkpt>
      <trkpt lat="36.53772" lon="34.22346">
        <ele>37.451201</ele>
        <time>2022-02-24T11:27:58.962Z</time>
      </trkpt>
      <trkpt lat="36.53735" lon="34.22339">
        <ele>38.547553</ele>
        <time>2022-02-24T11:28:15.858Z</time>
      </trkpt>
      <trkpt lat="36.5371" lon="34.22328">
        <ele>39.402158</ele>
        <time>2022-02-24T11:28:27.745Z</time>
      </trkpt>
      <trkpt lat="36.53681" lon="34.22306">
        <ele>40.48404</ele>
        <time>2022-02-24T11:28:42.018Z</time>
      </trkpt>
      <trkpt lat="36.53613" lon="34.22277">
        <ele>42.790898</ele>
        <time>2022-02-24T11:29:11.720Z</time>
      </trkpt>
      <trkpt lat="36.5361" lon="34.22276">
        <ele>42.913592</ele>
        <time>2022-02-24T11:29:13.728Z</time>
      </trkpt>
      <trkpt lat="36.53602" lon="34.22264">
        <ele>43.293771</ele>
        <time>2022-02-24T11:29:18.410Z</time>
      </trkpt>
      <trkpt lat="36.53601" lon="34.22249">
        <ele>43.692217</ele>
        <time>2022-02-24T11:29:23.249Z</time>
      </trkpt>
      <trkpt lat="36.53616" lon="34.22175">
        <ele>45.26438</ele>
        <time>2022-02-24T11:29:48.104Z</time>
      </trkpt>
      <trkpt lat="36.5361" lon="34.22163">
        <ele>45.545046</ele>
        <time>2022-02-24T11:29:52.355Z</time>
      </trkpt>
      <trkpt lat="36.53563" lon="34.22118">
        <ele>47.048247</ele>
        <time>2022-02-24T11:30:16.089Z</time>
      </trkpt>
      <trkpt lat="36.53503" lon="34.22032">
        <ele>49.026247</ele>
        <time>2022-02-24T11:30:49.036Z</time>
      </trkpt>
      <trkpt lat="36.53475" lon="34.21988">
        <ele>49.787917</ele>
        <time>2022-02-24T11:31:04.708Z</time>
      </trkpt>
      <trkpt lat="36.53471" lon="34.21982">
        <ele>49.894175</ele>
        <time>2022-02-24T11:31:07.015Z</time>
      </trkpt>
      <trkpt lat="36.53437" lon="34.21912">
        <ele>50.993143</ele>
        <time>2022-02-24T11:31:29.242Z</time>
      </trkpt>
      <trkpt lat="36.53405" lon="34.21875">
        <ele>51.67934</ele>
        <time>2022-02-24T11:31:44.208Z</time>
      </trkpt>
      <trkpt lat="36.53379" lon="34.21849">
        <ele>52.149738</ele>
        <time>2022-02-24T11:31:55.043Z</time>
      </trkpt>
      <trkpt lat="36.53374" lon="34.21843">
        <ele>52.249023</ele>
        <time>2022-02-24T11:31:57.251Z</time>
      </trkpt>
      <trkpt lat="36.5337" lon="34.2184">
        <ele>52.319756</ele>
        <time>2022-02-24T11:31:58.848Z</time>
      </trkpt>
      <trkpt lat="36.53339" lon="34.21809">
        <ele>52.883279</ele>
        <time>2022-02-24T11:32:11.398Z</time>
      </trkpt>
      <trkpt lat="36.53284" lon="34.21771">
        <ele>53.788582</ele>
        <time>2022-02-24T11:32:32.428Z</time>
      </trkpt>
      <trkpt lat="36.53203" lon="34.21733">
        <ele>55.590878</ele>
        <time>2022-02-24T11:33:04.568Z</time>
      </trkpt>
      <trkpt lat="36.53152" lon="34.2173">
        <ele>56.693012</ele>
        <time>2022-02-24T11:33:23.964Z</time>
      </trkpt>
      <trkpt lat="36.53115" lon="34.21711">
        <ele>57.563531</ele>
        <time>2022-02-24T11:33:39.475Z</time>
      </trkpt>
      <trkpt lat="36.5306" lon="34.21683">
        <ele>58.22749</ele>
        <time>2022-02-24T11:34:02.196Z</time>
      </trkpt>
      <trkpt lat="36.52945" lon="34.21614">
        <ele>59.27414</ele>
        <time>2022-02-24T11:34:41.100Z</time>
      </trkpt>
      <trkpt lat="36.52924" lon="34.21601">
        <ele>58.82793</ele>
        <time>2022-02-24T11:34:46.353Z</time>
      </trkpt>
      <trkpt lat="36.52763" lon="34.21482">
        <ele>52.987177</ele>
        <time>2022-02-24T11:35:22.765Z</time>
      </trkpt>
      <trkpt lat="36.5275" lon="34.21456">
        <ele>51.770191</ele>
        <time>2022-02-24T11:35:27.197Z</time>
      </trkpt>
      <trkpt lat="36.52741" lon="34.21452">
        <ele>51.279342</ele>
        <time>2022-02-24T11:35:28.999Z</time>
      </trkpt>
      <trkpt lat="36.52703" lon="34.21463">
        <ele>49.343867</ele>
        <time>2022-02-24T11:35:36.004Z</time>
      </trkpt>
      <trkpt lat="36.52686" lon="34.21455">
        <ele>48.439837</ele>
        <time>2022-02-24T11:35:39.244Z</time>
      </trkpt>
      <trkpt lat="36.5261" lon="34.21362">
        <ele>42.794348</ele>
        <time>2022-02-24T11:35:58.208Z</time>
      </trkpt>
      <trkpt lat="36.52566" lon="34.21374">
        <ele>40.179005</ele>
        <time>2022-02-24T11:36:06.072Z</time>
      </trkpt>
      <trkpt lat="36.52468" lon="34.21437">
        <ele>34.026184</ele>
        <time>2022-02-24T11:36:25.496Z</time>
      </trkpt>
      <trkpt lat="36.52436" lon="34.21403">
        <ele>32.189849</ele>
        <time>2022-02-24T11:36:33.071Z</time>
      </trkpt>
      <trkpt lat="36.5215" lon="34.21107">
        <ele>19.293056</ele>
        <time>2022-02-24T11:37:44.428Z</time>
      </trkpt>
      <trkpt lat="36.52095" lon="34.2104">
        <ele>17.886158</ele>
        <time>2022-02-24T11:38:02.818Z</time>
      </trkpt>
      <trkpt lat="36.5204" lon="34.2095">
        <ele>16.630018</ele>
        <time>2022-02-24T11:38:25.909Z</time>
      </trkpt>
      <trkpt lat="36.52003" lon="34.20869">
        <ele>15.760419</ele>
        <time>2022-02-24T11:38:43.482Z</time>
      </trkpt>
      <trkpt lat="36.5192" lon="34.20663">
        <ele>11.575118</ele>
        <time>2022-02-24T11:39:20.998Z</time>
      </trkpt>
      <trkpt lat="36.51871" lon="34.20589">
        <ele>9.733327</ele>
        <time>2022-02-24T11:39:36.300Z</time>
      </trkpt>
      <trkpt lat="36.51807" lon="34.20526">
        <ele>7.966414</ele>
        <time>2022-02-24T11:39:53.176Z</time>
      </trkpt>
      <trkpt lat="36.5174" lon="34.20475">
        <ele>6.540167</ele>
        <time>2022-02-24T11:40:10.294Z</time>
      </trkpt>
      <trkpt lat="36.51676" lon="34.20448">
        <ele>6.057995</ele>
        <time>2022-02-24T11:40:25.959Z</time>
      </trkpt>
      <trkpt lat="36.51505" lon="34.20417">
        <ele>5.909542</ele>
        <time>2022-02-24T11:41:10.422Z</time>
      </trkpt>
      <trkpt lat="36.51437" lon="34.20394">
        <ele>6.377673</ele>
        <time>2022-02-24T11:41:32.724Z</time>
      </trkpt>
      <trkpt lat="36.51363" lon="34.20344">
        <ele>7.650675</ele>
        <time>2022-02-24T11:42:02.562Z</time>
      </trkpt>
      <trkpt lat="36.5134" lon="34.20324">
        <ele>8.221722</ele>
        <time>2022-02-24T11:42:13.242Z</time>
      </trkpt>
      <trkpt lat="36.51291" lon="34.20302">
        <ele>9.259981</ele>
        <time>2022-02-24T11:42:32.598Z</time>
      </trkpt>
      <trkpt lat="36.51242" lon="34.20268">
        <ele>10.269824</ele>
        <time>2022-02-24T11:42:53.557Z</time>
      </trkpt>
      <trkpt lat="36.51182" lon="34.20216">
        <ele>10.848092</ele>
        <time>2022-02-24T11:43:18.373Z</time>
      </trkpt>
      <trkpt lat="36.5113" lon="34.20153">
        <ele>11.426975</ele>
        <time>2022-02-24T11:43:39.024Z</time>
      </trkpt>
      <trkpt lat="36.50994" lon="34.19935">
        <ele>10.456185</ele>
        <time>2022-02-24T11:44:32.255Z</time>
      </trkpt>
      <trkpt lat="36.50977" lon="34.19914">
        <ele>10.34421</ele>
        <time>2022-02-24T11:44:38.073Z</time>
      </trkpt>
      <trkpt lat="36.50942" lon="34.19868">
        <ele>10.108812</ele>
        <time>2022-02-24T11:44:51.073Z</time>
      </trkpt>
      <trkpt lat="36.50883" lon="34.19805">
        <ele>9.747365</ele>
        <time>2022-02-24T11:45:11.153Z</time>
      </trkpt>
      <trkpt lat="36.50762" lon="34.197">
        <ele>8.580926</ele>
        <time>2022-02-24T11:45:45.640Z</time>
      </trkpt>
      <trkpt lat="36.50653" lon="34.19618">
        <ele>8.539769</ele>
        <time>2022-02-24T11:46:15.546Z</time>
      </trkpt>
      <trkpt lat="36.50405" lon="34.19432">
        <ele>11.229876</ele>
        <time>2022-02-24T11:47:52.941Z</time>
      </trkpt>
      <trkpt lat="36.50391" lon="34.19422">
        <ele>11.181078</ele>
        <time>2022-02-24T11:47:57.781Z</time>
      </trkpt>
      <trkpt lat="36.50313" lon="34.19363">
        <ele>10.904137</ele>
        <time>2022-02-24T11:48:21.374Z</time>
      </trkpt>
      <trkpt lat="36.50251" lon="34.19313">
        <ele>10.512633</ele>
        <time>2022-02-24T11:48:37.904Z</time>
      </trkpt>
      <trkpt lat="36.50193" lon="34.19255">
        <ele>9.537079</ele>
        <time>2022-02-24T11:48:53.784Z</time>
      </trkpt>
      <trkpt lat="36.50146" lon="34.1919">
        <ele>8.619208</ele>
        <time>2022-02-24T11:49:09.186Z</time>
      </trkpt>
      <trkpt lat="36.50111" lon="34.19116">
        <ele>8.738317</ele>
        <time>2022-02-24T11:49:26.628Z</time>
      </trkpt>
      <trkpt lat="36.50086" lon="34.19032">
        <ele>9.271387</ele>
        <time>2022-02-24T11:49:48.332Z</time>
      </trkpt>
      <trkpt lat="36.50053" lon="34.18801">
        <ele>12.000763</ele>
        <time>2022-02-24T11:50:57.052Z</time>
      </trkpt>
      <trkpt lat="36.50036" lon="34.18756">
        <ele>12.703968</ele>
        <time>2022-02-24T11:51:10.821Z</time>
      </trkpt>
      <trkpt lat="36.5001" lon="34.18719">
        <ele>12.868308</ele>
        <time>2022-02-24T11:51:23.270Z</time>
      </trkpt>
      <trkpt lat="36.49975" lon="34.18687">
        <ele>12.886533</ele>
        <time>2022-02-24T11:51:36.471Z</time>
      </trkpt>
      <trkpt lat="36.49871" lon="34.18629">
        <ele>12.736197</ele>
        <time>2022-02-24T11:52:04.732Z</time>
      </trkpt>
      <trkpt lat="36.49837" lon="34.1861">
        <ele>11.940709</ele>
        <time>2022-02-24T11:52:12.638Z</time>
      </trkpt>
      <trkpt lat="36.4982" lon="34.18594">
        <ele>11.462015</ele>
        <time>2022-02-24T11:52:17.339Z</time>
      </trkpt>
      <trkpt lat="36.498" lon="34.18569">
        <ele>10.850359</ele>
        <time>2022-02-24T11:52:23.315Z</time>
      </trkpt>
      <trkpt lat="36.49787" lon="34.18554">
        <ele>10.479296</ele>
        <time>2022-02-24T11:52:26.613Z</time>
      </trkpt>
      <trkpt lat="36.49717" lon="34.18411">
        <ele>7.363293</ele>
        <time>2022-02-24T11:52:53.557Z</time>
      </trkpt>
      <trkpt lat="36.49695" lon="34.18361">
        <ele>6.242374</ele>
        <time>2022-02-24T11:53:02.775Z</time>
      </trkpt>
      <trkpt lat="36.49656" lon="34.18314">
        <ele>4.928681</ele>
        <time>2022-02-24T11:53:14.135Z</time>
      </trkpt>
      <trkpt lat="36.49609" lon="34.18271">
        <ele>4.257567</ele>
        <time>2022-02-24T11:53:26.948Z</time>
      </trkpt>
      <trkpt lat="36.49577" lon="34.18249">
        <ele>3.96253</ele>
        <time>2022-02-24T11:53:35.270Z</time>
      </trkpt>
      <trkpt lat="36.49549" lon="34.18229">
        <ele>3.695226</ele>
        <time>2022-02-24T11:53:43.323Z</time>
      </trkpt>
      <trkpt lat="36.49391" lon="34.1817">
        <ele>3.445753</ele>
        <time>2022-02-24T11:54:26.685Z</time>
      </trkpt>
      <trkpt lat="36.4905" lon="34.18051">
        <ele>5.313466</ele>
        <time>2022-02-24T11:56:13.316Z</time>
      </trkpt>
      <trkpt lat="36.48931" lon="34.1801">
        <ele>5.632788</ele>
        <time>2022-02-24T11:56:46.531Z</time>
      </trkpt>
      <trkpt lat="36.4882" lon="34.17971">
        <ele>5.563525</ele>
        <time>2022-02-24T11:57:16.616Z</time>
      </trkpt>
      <trkpt lat="36.48778" lon="34.17957">
        <ele>5.54895</ele>
        <time>2022-02-24T11:57:28.113Z</time>
      </trkpt>
      <trkpt lat="36.48744" lon="34.17945">
        <ele>5.551554</ele>
        <time>2022-02-24T11:57:37.317Z</time>
      </trkpt>
      <trkpt lat="36.48706" lon="34.1793">
        <ele>5.554564</ele>
        <time>2022-02-24T11:57:47.859Z</time>
      </trkpt>
      <trkpt lat="36.48663" lon="34.17902">
        <ele>5.558183</ele>
        <time>2022-02-24T11:58:01.037Z</time>
      </trkpt>
      <trkpt lat="36.48625" lon="34.17861">
        <ele>5.545111</ele>
        <time>2022-02-24T11:58:15.216Z</time>
      </trkpt>
      <trkpt lat="36.48602" lon="34.17816">
        <ele>5.485675</ele>
        <time>2022-02-24T11:58:26.515Z</time>
      </trkpt>
      <trkpt lat="36.48551" lon="34.17716">
        <ele>5.352971</ele>
        <time>2022-02-24T11:58:51.096Z</time>
      </trkpt>
      <trkpt lat="36.485" lon="34.17654">
        <ele>5.217936</ele>
        <time>2022-02-24T11:59:09.216Z</time>
      </trkpt>
      <trkpt lat="36.48364" lon="34.1754">
        <ele>4.950788</ele>
        <time>2022-02-24T11:59:50.905Z</time>
      </trkpt>
      <trkpt lat="36.48308" lon="34.17486">
        <ele>5.075699</ele>
        <time>2022-02-24T12:00:10.414Z</time>
      </trkpt>
      <trkpt lat="36.48245" lon="34.17424">
        <ele>5.217394</ele>
        <time>2022-02-24T12:00:33.363Z</time>
      </trkpt>
      <trkpt lat="36.48188" lon="34.17373">
        <ele>5.302788</ele>
        <time>2022-02-24T12:00:53.663Z</time>
      </trkpt>
      <trkpt lat="36.48123" lon="34.17334">
        <ele>5.387798</ele>
        <time>2022-02-24T12:01:13.744Z</time>
      </trkpt>
      <trkpt lat="36.48036" lon="34.17313">
        <ele>5.005329</ele>
        <time>2022-02-24T12:01:35.751Z</time>
      </trkpt>
      <trkpt lat="36.47915" lon="34.17316">
        <ele>3.910617</ele>
        <time>2022-02-24T12:02:03.676Z</time>
      </trkpt>
      <trkpt lat="36.47876" lon="34.17305">
        <ele>3.51485</ele>
        <time>2022-02-24T12:02:12.586Z</time>
      </trkpt>
      <trkpt lat="36.47839" lon="34.17284">
        <ele>3.099992</ele>
        <time>2022-02-24T12:02:21.532Z</time>
      </trkpt>
      <trkpt lat="36.47805" lon="34.1725">
        <ele>2.649729</ele>
        <time>2022-02-24T12:02:31.464Z</time>
      </trkpt>
      <trkpt lat="36.47734" lon="34.1716">
        <ele>2.045192</ele>
        <time>2022-02-24T12:02:55.422Z</time>
      </trkpt>
      <trkpt lat="36.47649" lon="34.17054">
        <ele>2.314565</ele>
        <time>2022-02-24T12:03:29.044Z</time>
      </trkpt>
      <trkpt lat="36.47592" lon="34.16993">
        <ele>3.09972</ele>
        <time>2022-02-24T12:03:53.923Z</time>
      </trkpt>
      <trkpt lat="36.47525" lon="34.16951">
        <ele>4.182979</ele>
        <time>2022-02-24T12:04:19.770Z</time>
      </trkpt>
      <trkpt lat="36.47452" lon="34.16923">
        <ele>5.232841</ele>
        <time>2022-02-24T12:04:46.558Z</time>
      </trkpt>
      <trkpt lat="36.47377" lon="34.16906">
        <ele>6.086337</ele>
        <time>2022-02-24T12:05:11.780Z</time>
      </trkpt>
      <trkpt lat="36.47231" lon="34.16888">
        <ele>7.374449</ele>
        <time>2022-02-24T12:05:56.342Z</time>
      </trkpt>
      <trkpt lat="36.47015" lon="34.16846">
        <ele>8.68128</ele>
        <time>2022-02-24T12:06:59.170Z</time>
      </trkpt>
      <trkpt lat="36.46946" lon="34.16822">
        <ele>9.136081</ele>
        <time>2022-02-24T12:07:21.288Z</time>
      </trkpt>
      <trkpt lat="36.46881" lon="34.16778">
        <ele>9.544527</ele>
        <time>2022-02-24T12:07:44.112Z</time>
      </trkpt>
      <trkpt lat="36.46829" lon="34.16713">
        <ele>9.954633</ele>
        <time>2022-02-24T12:08:06.348Z</time>
      </trkpt>
      <trkpt lat="36.46799" lon="34.1665">
        <ele>10.12547</ele>
        <time>2022-02-24T12:08:21.642Z</time>
      </trkpt>
      <trkpt lat="36.4678" lon="34.16571">
        <ele>10.040821</ele>
        <time>2022-02-24T12:08:38.539Z</time>
      </trkpt>
      <trkpt lat="36.46774" lon="34.16528">
        <ele>9.996346</ele>
        <time>2022-02-24T12:08:47.412Z</time>
      </trkpt>
      <trkpt lat="36.4677" lon="34.16494">
        <ele>9.961414</ele>
        <time>2022-02-24T12:08:54.217Z</time>
      </trkpt>
      <trkpt lat="36.46765" lon="34.16447">
        <ele>9.997969</ele>
        <time>2022-02-24T12:09:04.189Z</time>
      </trkpt>
      <trkpt lat="36.46718" lon="34.15808">
        <ele>13.88727</ele>
        <time>2022-02-24T12:11:42.138Z</time>
      </trkpt>
      <trkpt lat="36.46704" lon="34.15615">
        <ele>14.815531</ele>
        <time>2022-02-24T12:12:29.168Z</time>
      </trkpt>
      <trkpt lat="36.4668" lon="34.15484">
        <ele>14.55088</ele>
        <time>2022-02-24T12:12:58.139Z</time>
      </trkpt>
      <trkpt lat="36.46659" lon="34.15401">
        <ele>14.06818</ele>
        <time>2022-02-24T12:13:14.783Z</time>
      </trkpt>
      <trkpt lat="36.46621" lon="34.15301">
        <ele>12.84343</ele>
        <time>2022-02-24T12:13:34.026Z</time>
      </trkpt>
      <trkpt lat="36.4657" lon="34.15192">
        <ele>10.876649</ele>
        <time>2022-02-24T12:13:55.104Z</time>
      </trkpt>
      <trkpt lat="36.46459" lon="34.15002">
        <ele>7.217466</ele>
        <time>2022-02-24T12:14:35.017Z</time>
      </trkpt>
      <trkpt lat="36.46315" lon="34.14801">
        <ele>4.799658</ele>
        <time>2022-02-24T12:15:23.467Z</time>
      </trkpt>
      <trkpt lat="36.46287" lon="34.14753">
        <ele>5.20914</ele>
        <time>2022-02-24T12:15:37.868Z</time>
      </trkpt>
      <trkpt lat="36.46275" lon="34.14726">
        <ele>5.425658</ele>
        <time>2022-02-24T12:15:45.730Z</time>
      </trkpt>
      <trkpt lat="36.46263" lon="34.14653">
        <ele>5.94393</ele>
        <time>2022-02-24T12:16:05.907Z</time>
      </trkpt>
      <trkpt lat="36.46261" lon="34.1462">
        <ele>6.169464</ele>
        <time>2022-02-24T12:16:15.195Z</time>
      </trkpt>
      <trkpt lat="36.46262" lon="34.14608">
        <ele>6.280262</ele>
        <time>2022-02-24T12:16:18.590Z</time>
      </trkpt>
      <trkpt lat="36.46266" lon="34.145">
        <ele>7.402931</ele>
        <time>2022-02-24T12:16:49.186Z</time>
      </trkpt>
      <trkpt lat="36.46269" lon="34.14433">
        <ele>8.098081</ele>
        <time>2022-02-24T12:17:07.417Z</time>
      </trkpt>
      <trkpt lat="36.46268" lon="34.14373">
        <ele>8.489192</ele>
        <time>2022-02-24T12:17:20.985Z</time>
      </trkpt>
      <trkpt lat="36.46244" lon="34.14187">
        <ele>8.10785</ele>
        <time>2022-02-24T12:17:59.656Z</time>
      </trkpt>
      <trkpt lat="36.46243" lon="34.14162">
        <ele>8.038473</ele>
        <time>2022-02-24T12:18:04.347Z</time>
      </trkpt>
      <trkpt lat="36.46244" lon="34.14154">
        <ele>8.003357</ele>
        <time>2022-02-24T12:18:05.874Z</time>
      </trkpt>
      <trkpt lat="36.46241" lon="34.1414">
        <ele>7.937758</ele>
        <time>2022-02-24T12:18:08.481Z</time>
      </trkpt>
      <trkpt lat="36.46237" lon="34.14135">
        <ele>7.906069</ele>
        <time>2022-02-24T12:18:09.809Z</time>
      </trkpt>
      <trkpt lat="36.46234" lon="34.14118">
        <ele>7.82927</ele>
        <time>2022-02-24T12:18:13.078Z</time>
      </trkpt>
      <trkpt lat="36.46231" lon="34.14106">
        <ele>7.771836</ele>
        <time>2022-02-24T12:18:15.537Z</time>
      </trkpt>
      <trkpt lat="36.4623" lon="34.14099">
        <ele>7.738179</ele>
        <time>2022-02-24T12:18:16.757Z</time>
      </trkpt>
      <trkpt lat="36.46199" lon="34.1387">
        <ele>7.862687</ele>
        <time>2022-02-24T12:19:03.374Z</time>
      </trkpt>
      <trkpt lat="36.46196" lon="34.13846">
        <ele>8.095375</ele>
        <time>2022-02-24T12:19:10.178Z</time>
      </trkpt>
      <trkpt lat="36.46149" lon="34.13517">
        <ele>12.439126</ele>
        <time>2022-02-24T12:20:50.544Z</time>
      </trkpt>
      <trkpt lat="36.46131" lon="34.13437">
        <ele>11.532111</ele>
        <time>2022-02-24T12:21:07.560Z</time>
      </trkpt>
      <trkpt lat="36.46129" lon="34.1343">
        <ele>11.441315</ele>
        <time>2022-02-24T12:21:08.689Z</time>
      </trkpt>
      <trkpt lat="36.46113" lon="34.13367">
        <ele>10.599995</ele>
        <time>2022-02-24T12:21:19.839Z</time>
      </trkpt>
      <trkpt lat="36.4609" lon="34.13305">
        <ele>9.738447</ele>
        <time>2022-02-24T12:21:30.500Z</time>
      </trkpt>
      <trkpt lat="36.46074" lon="34.13277">
        <ele>9.62566</ele>
        <time>2022-02-24T12:21:35.857Z</time>
      </trkpt>
      <trkpt lat="36.46047" lon="34.13237">
        <ele>9.521882</ele>
        <time>2022-02-24T12:21:44.206Z</time>
      </trkpt>
      <trkpt lat="36.46013" lon="34.13196">
        <ele>9.404953</ele>
        <time>2022-02-24T12:21:56.897Z</time>
      </trkpt>
      <trkpt lat="36.4599" lon="34.13169">
        <ele>9.326627</ele>
        <time>2022-02-24T12:22:07.008Z</time>
      </trkpt>
      <trkpt lat="36.45972" lon="34.13152">
        <ele>9.272062</ele>
        <time>2022-02-24T12:22:14.976Z</time>
      </trkpt>
      <trkpt lat="36.45974" lon="34.13134">
        <ele>9.417741</ele>
        <time>2022-02-24T12:22:21.052Z</time>
      </trkpt>
      <trkpt lat="36.45967" lon="34.13099">
        <ele>11.21456</ele>
        <time>2022-02-24T12:22:34.347Z</time>
      </trkpt>
      <trkpt lat="36.45953" lon="34.1307">
        <ele>12.83968</ele>
        <time>2022-02-24T12:22:48.585Z</time>
      </trkpt>
      <trkpt lat="36.45937" lon="34.13046">
        <ele>14.384349</ele>
        <time>2022-02-24T12:23:02.812Z</time>
      </trkpt>
      <trkpt lat="36.45888" lon="34.12995">
        <ele>18.279967</ele>
        <time>2022-02-24T12:23:43.822Z</time>
      </trkpt>
      <trkpt lat="36.45865" lon="34.12957">
        <ele>20.564829</ele>
        <time>2022-02-24T12:24:12.124Z</time>
      </trkpt>
      <trkpt lat="36.45812" lon="34.12843">
        <ele>25.629351</ele>
        <time>2022-02-24T12:25:16.375Z</time>
      </trkpt>
      <trkpt lat="36.45769" lon="34.12771">
        <ele>28.63184</ele>
        <time>2022-02-24T12:25:43.154Z</time>
      </trkpt>
      <trkpt lat="36.45757" lon="34.12771">
        <ele>28.147185</ele>
        <time>2022-02-24T12:25:45.606Z</time>
      </trkpt>
      <trkpt lat="36.45727" lon="34.12771">
        <ele>26.969592</ele>
        <time>2022-02-24T12:25:53.184Z</time>
      </trkpt>
      <trkpt lat="36.45684" lon="34.12745">
        <ele>25.054986</ele>
        <time>2022-02-24T12:26:02.503Z</time>
      </trkpt>
      <trkpt lat="36.45664" lon="34.12749">
        <ele>24.214372</ele>
        <time>2022-02-24T12:26:06.464Z</time>
      </trkpt>
      <trkpt lat="36.45582" lon="34.12784">
        <ele>20.591589</ele>
        <time>2022-02-24T12:26:21.889Z</time>
      </trkpt>
      <trkpt lat="36.45567" lon="34.12787">
        <ele>19.814171</ele>
        <time>2022-02-24T12:26:24.690Z</time>
      </trkpt>
      <trkpt lat="36.45486" lon="34.12692">
        <ele>14.356887</ele>
        <time>2022-02-24T12:26:44.818Z</time>
      </trkpt>
      <trkpt lat="36.45394" lon="34.12548">
        <ele>11.344219</ele>
        <time>2022-02-24T12:27:16.357Z</time>
      </trkpt>
      <trkpt lat="36.45277" lon="34.12322">
        <ele>12.206942</ele>
        <time>2022-02-24T12:28:17.035Z</time>
      </trkpt>
      <trkpt lat="36.4513" lon="34.12062">
        <ele>22.136467</ele>
        <time>2022-02-24T12:30:15.004Z</time>
      </trkpt>
      <trkpt lat="36.45108" lon="34.11987">
        <ele>25.640034</ele>
        <time>2022-02-24T12:30:52.464Z</time>
      </trkpt>
      <trkpt lat="36.45065" lon="34.11899">
        <ele>29.629501</ele>
        <time>2022-02-24T12:31:40.970Z</time>
      </trkpt>
      <trkpt lat="36.44988" lon="34.11762">
        <ele>32.216933</ele>
        <time>2022-02-24T12:32:33.199Z</time>
      </trkpt>
      <trkpt lat="36.44919" lon="34.11666">
        <ele>29.980656</ele>
        <time>2022-02-24T12:32:53.232Z</time>
      </trkpt>
      <trkpt lat="36.4478" lon="34.11507">
        <ele>24.244473</ele>
        <time>2022-02-24T12:33:27.840Z</time>
      </trkpt>
      <trkpt lat="36.44765" lon="34.11491">
        <ele>23.82489</ele>
        <time>2022-02-24T12:33:31.994Z</time>
      </trkpt>
      <trkpt lat="36.44753" lon="34.11477">
        <ele>23.481587</ele>
        <time>2022-02-24T12:33:36.356Z</time>
      </trkpt>
      <trkpt lat="36.44735" lon="34.1146">
        <ele>23.01569</ele>
        <time>2022-02-24T12:33:41.568Z</time>
      </trkpt>
      <trkpt lat="36.44727" lon="34.11451">
        <ele>22.793868</ele>
        <time>2022-02-24T12:33:45.128Z</time>
      </trkpt>
      <trkpt lat="36.44515" lon="34.11224">
        <ele>25.998611</ele>
        <time>2022-02-24T12:35:21.945Z</time>
      </trkpt>
      <trkpt lat="36.44428" lon="34.11116">
        <ele>28.099702</ele>
        <time>2022-02-24T12:36:00.763Z</time>
      </trkpt>
      <trkpt lat="36.44422" lon="34.11109">
        <ele>28.436256</ele>
        <time>2022-02-24T12:36:03.523Z</time>
      </trkpt>
      <trkpt lat="36.44399" lon="34.11078">
        <ele>29.784763</ele>
        <time>2022-02-24T12:36:15.719Z</time>
      </trkpt>
      <trkpt lat="36.44255" lon="34.10885">
        <ele>40.017677</ele>
        <time>2022-02-24T12:38:06.203Z</time>
      </trkpt>
      <trkpt lat="36.44251" lon="34.1088">
        <ele>40.348549</ele>
        <time>2022-02-24T12:38:10.726Z</time>
      </trkpt>
      <trkpt lat="36.44202" lon="34.10819">
        <ele>44.468663</ele>
        <time>2022-02-24T12:38:51.165Z</time>
      </trkpt>
      <trkpt lat="36.44142" lon="34.10755">
        <ele>46.863056</ele>
        <time>2022-02-24T12:39:35.853Z</time>
      </trkpt>
      <trkpt lat="36.43779" lon="34.10421">
        <ele>52.769815</ele>
        <time>2022-02-24T12:42:07.483Z</time>
      </trkpt>
      <trkpt lat="36.43626" lon="34.10284">
        <ele>38.944362</ele>
        <time>2022-02-24T12:42:38.679Z</time>
      </trkpt>
      <trkpt lat="36.43601" lon="34.10263">
        <ele>36.68669</ele>
        <time>2022-02-24T12:42:43.533Z</time>
      </trkpt>
      <trkpt lat="36.43535" lon="34.10214">
        <ele>31.472996</ele>
        <time>2022-02-24T12:42:56.389Z</time>
      </trkpt>
      <trkpt lat="36.43466" lon="34.10178">
        <ele>26.419735</ele>
        <time>2022-02-24T12:43:09.641Z</time>
      </trkpt>
      <trkpt lat="36.43393" lon="34.10162">
        <ele>24.775119</ele>
        <time>2022-02-24T12:43:24.848Z</time>
      </trkpt>
      <trkpt lat="36.43173" lon="34.10131">
        <ele>22.51977</ele>
        <time>2022-02-24T12:44:22.612Z</time>
      </trkpt>
      <trkpt lat="36.43101" lon="34.10112">
        <ele>21.933667</ele>
        <time>2022-02-24T12:44:39.474Z</time>
      </trkpt>
      <trkpt lat="36.42826" lon="34.09978">
        <ele>14.425686</ele>
        <time>2022-02-24T12:45:38.175Z</time>
      </trkpt>
      <trkpt lat="36.42619" lon="34.09868">
        <ele>11.361367</ele>
        <time>2022-02-24T12:46:28.026Z</time>
      </trkpt>
      <trkpt lat="36.42443" lon="34.09811">
        <ele>13.406464</ele>
        <time>2022-02-24T12:47:27.948Z</time>
      </trkpt>
      <trkpt lat="36.42406" lon="34.09785">
        <ele>14.274957</ele>
        <time>2022-02-24T12:47:45.269Z</time>
      </trkpt>
      <trkpt lat="36.42372" lon="34.0975">
        <ele>15.411585</ele>
        <time>2022-02-24T12:48:03.354Z</time>
      </trkpt>
      <trkpt lat="36.42339" lon="34.09695">
        <ele>16.841024</ele>
        <time>2022-02-24T12:48:26.049Z</time>
      </trkpt>
      <trkpt lat="36.42292" lon="34.09578">
        <ele>18.656809</ele>
        <time>2022-02-24T12:49:06.121Z</time>
      </trkpt>
      <trkpt lat="36.42119" lon="34.09056">
        <ele>21.052109</ele>
        <time>2022-02-24T12:51:14.092Z</time>
      </trkpt>
      <trkpt lat="36.4211" lon="34.09036">
        <ele>21.115696</ele>
        <time>2022-02-24T12:51:18.890Z</time>
      </trkpt>
      <trkpt lat="36.421" lon="34.09015">
        <ele>21.183687</ele>
        <time>2022-02-24T12:51:25.721Z</time>
      </trkpt>
      <trkpt lat="36.42017" lon="34.08834">
        <ele>20.76554</ele>
        <time>2022-02-24T12:52:11.902Z</time>
      </trkpt>
      <trkpt lat="36.41964" lon="34.08739">
        <ele>17.17414</ele>
        <time>2022-02-24T12:52:30.509Z</time>
      </trkpt>
      <trkpt lat="36.41895" lon="34.08642">
        <ele>12.471748</ele>
        <time>2022-02-24T12:52:48.784Z</time>
      </trkpt>
      <trkpt lat="36.41874" lon="34.08613">
        <ele>10.773645</ele>
        <time>2022-02-24T12:52:54.194Z</time>
      </trkpt>
      <trkpt lat="36.41824" lon="34.08551">
        <ele>6.976531</ele>
        <time>2022-02-24T12:53:06.469Z</time>
      </trkpt>
      <trkpt lat="36.41817" lon="34.08543">
        <ele>6.425459</ele>
        <time>2022-02-24T12:53:08.292Z</time>
      </trkpt>
      <trkpt lat="36.4181" lon="34.08537">
        <ele>5.974122</ele>
        <time>2022-02-24T12:53:09.764Z</time>
      </trkpt>
      <trkpt lat="36.41771" lon="34.08493">
        <ele>3.117241</ele>
        <time>2022-02-24T12:53:19.330Z</time>
      </trkpt>
      <trkpt lat="36.41727" lon="34.08443">
        <ele>2.539123</ele>
        <time>2022-02-24T12:53:31.652Z</time>
      </trkpt>
      <trkpt lat="36.41715" lon="34.08427">
        <ele>2.409766</ele>
        <time>2022-02-24T12:53:35.781Z</time>
      </trkpt>
      <trkpt lat="36.41682" lon="34.08385">
        <ele>2.065739</ele>
        <time>2022-02-24T12:53:48.226Z</time>
      </trkpt>
      <trkpt lat="36.41658" lon="34.08348">
        <ele>1.785127</ele>
        <time>2022-02-24T12:53:59.856Z</time>
      </trkpt>
      <trkpt lat="36.4164" lon="34.08318">
        <ele>1.801493</ele>
        <time>2022-02-24T12:54:09.513Z</time>
      </trkpt>
      <trkpt lat="36.41568" lon="34.08206">
        <ele>3.822499</ele>
        <time>2022-02-24T12:54:51.336Z</time>
      </trkpt>
      <trkpt lat="36.41547" lon="34.08172">
        <ele>4.428814</ele>
        <time>2022-02-24T12:55:03.788Z</time>
      </trkpt>
      <trkpt lat="36.41526" lon="34.08147">
        <ele>4.87458</ele>
        <time>2022-02-24T12:55:14.440Z</time>
      </trkpt>
      <trkpt lat="36.41514" lon="34.08133">
        <ele>5.044882</ele>
        <time>2022-02-24T12:55:19.979Z</time>
      </trkpt>
      <trkpt lat="36.41438" lon="34.08079">
        <ele>5.915714</ele>
        <time>2022-02-24T12:55:48.897Z</time>
      </trkpt>
      <trkpt lat="36.41264" lon="34.07971">
        <ele>6.704491</ele>
        <time>2022-02-24T12:56:42.413Z</time>
      </trkpt>
      <trkpt lat="36.41199" lon="34.0792">
        <ele>6.835938</ele>
        <time>2022-02-24T12:57:02.250Z</time>
      </trkpt>
      <trkpt lat="36.41145" lon="34.07862">
        <ele>7.081016</ele>
        <time>2022-02-24T12:57:22.163Z</time>
      </trkpt>
      <trkpt lat="36.41164" lon="34.07845">
        <ele>7.161789</ele>
        <time>2022-02-24T12:57:29.173Z</time>
      </trkpt>
      <trkpt lat="36.41139" lon="34.07806">
        <ele>7.299562</ele>
        <time>2022-02-24T12:57:42.030Z</time>
      </trkpt>
      <trkpt lat="36.41124" lon="34.07778">
        <ele>7.379182</ele>
        <time>2022-02-24T12:57:50.474Z</time>
      </trkpt>
      <trkpt lat="36.41101" lon="34.07738">
        <ele>7.424992</ele>
        <time>2022-02-24T12:58:02.284Z</time>
      </trkpt>
      <trkpt lat="36.41068" lon="34.07691">
        <ele>7.484534</ele>
        <time>2022-02-24T12:58:16.991Z</time>
      </trkpt>
      <trkpt lat="36.4105" lon="34.07665">
        <ele>7.51748</ele>
        <time>2022-02-24T12:58:25.164Z</time>
      </trkpt>
      <trkpt lat="36.40976" lon="34.07563">
        <ele>7.014824</ele>
        <time>2022-02-24T12:58:53.544Z</time>
      </trkpt>
      <trkpt lat="36.40876" lon="34.07457">
        <ele>5.640461</ele>
        <time>2022-02-24T12:59:24.294Z</time>
      </trkpt>
      <trkpt lat="36.40825" lon="34.07389">
        <ele>5.085003</ele>
        <time>2022-02-24T12:59:42.493Z</time>
      </trkpt>
      <trkpt lat="36.40808" lon="34.07358">
        <ele>4.861293</ele>
        <time>2022-02-24T12:59:50.048Z</time>
      </trkpt>
      <trkpt lat="36.40798" lon="34.07364">
        <ele>4.780219</ele>
        <time>2022-02-24T12:59:52.838Z</time>
      </trkpt>
      <trkpt lat="36.40747" lon="34.07269">
        <ele>4.243202</ele>
        <time>2022-02-24T13:00:16.820Z</time>
      </trkpt>
      <trkpt lat="36.40722" lon="34.07216">
        <ele>4.095461</ele>
        <time>2022-02-24T13:00:29.417Z</time>
      </trkpt>
      <trkpt lat="36.40719" lon="34.07207">
        <ele>4.071294</ele>
        <time>2022-02-24T13:00:31.650Z</time>
      </trkpt>
      <trkpt lat="36.40706" lon="34.07168">
        <ele>3.968172</ele>
        <time>2022-02-24T13:00:40.831Z</time>
      </trkpt>
      <trkpt lat="36.40678" lon="34.07177">
        <ele>3.883355</ele>
        <time>2022-02-24T13:00:48.305Z</time>
      </trkpt>
      <trkpt lat="36.40647" lon="34.07186">
        <ele>3.794392</ele>
        <time>2022-02-24T13:00:56.898Z</time>
      </trkpt>
      <trkpt lat="36.40577" lon="34.06993">
        <ele>3.543069</ele>
        <time>2022-02-24T13:01:41.038Z</time>
      </trkpt>
      <trkpt lat="36.40536" lon="34.06881">
        <ele>3.463659</ele>
        <time>2022-02-24T13:02:07.409Z</time>
      </trkpt>
      <trkpt lat="36.40458" lon="34.06696">
        <ele>3.556826</ele>
        <time>2022-02-24T13:02:51.512Z</time>
      </trkpt>
      <trkpt lat="36.404" lon="34.06581">
        <ele>3.793155</ele>
        <time>2022-02-24T13:03:23.100Z</time>
      </trkpt>
      <trkpt lat="36.4032" lon="34.06443">
        <ele>4.381148</ele>
        <time>2022-02-24T13:04:02.490Z</time>
      </trkpt>
      <trkpt lat="36.403" lon="34.06408">
        <ele>4.526139</ele>
        <time>2022-02-24T13:04:12.278Z</time>
      </trkpt>
      <trkpt lat="36.40236" lon="34.06315">
        <ele>4.832607</ele>
        <time>2022-02-24T13:04:39.662Z</time>
      </trkpt>
      <trkpt lat="36.401" lon="34.06133">
        <ele>5.397966</ele>
        <time>2022-02-24T13:05:36.545Z</time>
      </trkpt>
      <trkpt lat="36.40089" lon="34.0612">
        <ele>5.438176</ele>
        <time>2022-02-24T13:05:41.074Z</time>
      </trkpt>
      <trkpt lat="36.39855" lon="34.05855">
        <ele>5.37063</ele>
        <time>2022-02-24T13:07:05.259Z</time>
      </trkpt>
      <trkpt lat="36.39485" lon="34.05436">
        <ele>4.469339</ele>
        <time>2022-02-24T13:09:11.747Z</time>
      </trkpt>
      <trkpt lat="36.39509" lon="34.05419">
        <ele>4.646219</ele>
        <time>2022-02-24T13:09:20.896Z</time>
      </trkpt>
      <trkpt lat="36.39593" lon="34.05356">
        <ele>5.268563</ele>
        <time>2022-02-24T13:09:53.488Z</time>
      </trkpt>
      <trkpt lat="36.39619" lon="34.05343">
        <ele>5.420803</ele>
        <time>2022-02-24T13:10:02.715Z</time>
      </trkpt>
      <trkpt lat="36.39625" lon="34.05334">
        <ele>5.467791</ele>
        <time>2022-02-24T13:10:05.672Z</time>
      </trkpt>
      <trkpt lat="36.3963" lon="34.05291">
        <ele>5.660883</ele>
        <time>2022-02-24T13:10:16.875Z</time>
      </trkpt>
      <trkpt lat="36.3964" lon="34.05251">
        <ele>5.843779</ele>
        <time>2022-02-24T13:10:26.941Z</time>
      </trkpt>
      <trkpt lat="36.39641" lon="34.05236">
        <ele>5.912605</ele>
        <time>2022-02-24T13:10:30.512Z</time>
      </trkpt>
      <trkpt lat="36.39602" lon="34.051">
        <ele>6.297308</ele>
        <time>2022-02-24T13:11:03.476Z</time>
      </trkpt>
      <trkpt lat="36.39604" lon="34.05053">
        <ele>6.331487</ele>
        <time>2022-02-24T13:11:13.779Z</time>
      </trkpt>
      <trkpt lat="36.39593" lon="34.05032">
        <ele>6.349636</ele>
        <time>2022-02-24T13:11:19.454Z</time>
      </trkpt>
      <trkpt lat="36.39589" lon="34.05027">
        <ele>6.35516</ele>
        <time>2022-02-24T13:11:21.266Z</time>
      </trkpt>
      <trkpt lat="36.39523" lon="34.05038">
        <ele>6.420549</ele>
        <time>2022-02-24T13:11:40.281Z</time>
      </trkpt>
      <trkpt lat="36.39503" lon="34.05029">
        <ele>6.462397</ele>
        <time>2022-02-24T13:11:46.491Z</time>
      </trkpt>
      <trkpt lat="36.39468" lon="34.05001">
        <ele>6.541288</ele>
        <time>2022-02-24T13:11:58.206Z</time>
      </trkpt>
      <trkpt lat="36.39446" lon="34.04969">
        <ele>6.60702</ele>
        <time>2022-02-24T13:12:08.068Z</time>
      </trkpt>
      <trkpt lat="36.39428" lon="34.04938">
        <ele>6.666525</ele>
        <time>2022-02-24T13:12:16.541Z</time>
      </trkpt>
      <trkpt lat="36.39389" lon="34.04878">
        <ele>6.799353</ele>
        <time>2022-02-24T13:12:33.599Z</time>
      </trkpt>
      <trkpt lat="36.39337" lon="34.04765">
        <ele>7.084976</ele>
        <time>2022-02-24T13:13:02.024Z</time>
      </trkpt>
      <trkpt lat="36.39312" lon="34.04726">
        <ele>7.195663</ele>
        <time>2022-02-24T13:13:13.660Z</time>
      </trkpt>
      <trkpt lat="36.39266" lon="34.04686">
        <ele>7.583591</ele>
        <time>2022-02-24T13:13:30.321Z</time>
      </trkpt>
      <trkpt lat="36.39201" lon="34.04664">
        <ele>8.205644</ele>
        <time>2022-02-24T13:13:51.168Z</time>
      </trkpt>
      <trkpt lat="36.39169" lon="34.0464">
        <ele>8.548543</ele>
        <time>2022-02-24T13:14:03.060Z</time>
      </trkpt>
      <trkpt lat="36.39148" lon="34.04617">
        <ele>8.808801</ele>
        <time>2022-02-24T13:14:12.264Z</time>
      </trkpt>
      <trkpt lat="36.39087" lon="34.04514">
        <ele>10.016278</ele>
        <time>2022-02-24T13:14:45.816Z</time>
      </trkpt>
      <trkpt lat="36.39071" lon="34.04471">
        <ele>10.478267</ele>
        <time>2022-02-24T13:14:58.254Z</time>
      </trkpt>
      <trkpt lat="36.39061" lon="34.04408">
        <ele>11.091684</ele>
        <time>2022-02-24T13:15:14.930Z</time>
      </trkpt>
      <trkpt lat="36.39049" lon="34.04373">
        <ele>11.38568</ele>
        <time>2022-02-24T13:15:25.024Z</time>
      </trkpt>
      <trkpt lat="36.39036" lon="34.04352">
        <ele>11.586011</ele>
        <time>2022-02-24T13:15:31.807Z</time>
      </trkpt>
      <trkpt lat="36.39015" lon="34.04335">
        <ele>11.819524</ele>
        <time>2022-02-24T13:15:39.693Z</time>
      </trkpt>
      <trkpt lat="36.38975" lon="34.04329">
        <ele>12.196295</ele>
        <time>2022-02-24T13:15:52.318Z</time>
      </trkpt>
      <trkpt lat="36.3895" lon="34.04319">
        <ele>12.439957</ele>
        <time>2022-02-24T13:16:00.439Z</time>
      </trkpt>
      <trkpt lat="36.38928" lon="34.04301">
        <ele>12.688977</ele>
        <time>2022-02-24T13:16:08.713Z</time>
      </trkpt>
      <trkpt lat="36.38891" lon="34.04257">
        <ele>12.584564</ele>
        <time>2022-02-24T13:16:23.592Z</time>
      </trkpt>
      <trkpt lat="36.38803" lon="34.04149">
        <ele>12.056569</ele>
        <time>2022-02-24T13:16:54.378Z</time>
      </trkpt>
      <trkpt lat="36.38795" lon="34.04139">
        <ele>12.011882</ele>
        <time>2022-02-24T13:16:56.531Z</time>
      </trkpt>
      <trkpt lat="36.38679" lon="34.04002">
        <ele>9.119211</ele>
        <time>2022-02-24T13:17:30.453Z</time>
      </trkpt>
      <trkpt lat="36.38641" lon="34.03938">
        <ele>8.121291</ele>
        <time>2022-02-24T13:17:43.899Z</time>
      </trkpt>
      <trkpt lat="36.38571" lon="34.03839">
        <ele>6.591452</ele>
        <time>2022-02-24T13:18:07.296Z</time>
      </trkpt>
      <trkpt lat="36.38439" lon="34.03662">
        <ele>5.489189</ele>
        <time>2022-02-24T13:18:55.055Z</time>
      </trkpt>
      <trkpt lat="36.38433" lon="34.03651">
        <ele>5.444321</ele>
        <time>2022-02-24T13:18:58.108Z</time>
      </trkpt>
      <trkpt lat="36.38422" lon="34.03629">
        <ele>5.518164</ele>
        <time>2022-02-24T13:19:03.848Z</time>
      </trkpt>
      <trkpt lat="36.38387" lon="34.03538">
        <ele>6.061306</ele>
        <time>2022-02-24T13:19:27.732Z</time>
      </trkpt>
      <trkpt lat="36.38335" lon="34.03453">
        <ele>6.63604</ele>
        <time>2022-02-24T13:19:55.100Z</time>
      </trkpt>
      <trkpt lat="36.3832" lon="34.03415">
        <ele>6.815817</ele>
        <time>2022-02-24T13:20:05.504Z</time>
      </trkpt>
      <trkpt lat="36.38303" lon="34.03361">
        <ele>7.067261</ele>
        <time>2022-02-24T13:20:19.784Z</time>
      </trkpt>
      <trkpt lat="36.38283" lon="34.03289">
        <ele>7.393245</ele>
        <time>2022-02-24T13:20:37.557Z</time>
      </trkpt>
      <trkpt lat="36.3822" lon="34.03081">
        <ele>7.723175</ele>
        <time>2022-02-24T13:21:25.526Z</time>
      </trkpt>
      <trkpt lat="36.38217" lon="34.03057">
        <ele>7.742377</ele>
        <time>2022-02-24T13:21:30.817Z</time>
      </trkpt>
      <trkpt lat="36.3821" lon="34.03004">
        <ele>7.758872</ele>
        <time>2022-02-24T13:21:42.652Z</time>
      </trkpt>
      <trkpt lat="36.38198" lon="34.02914">
        <ele>7.759485</ele>
        <time>2022-02-24T13:22:02.755Z</time>
      </trkpt>
      <trkpt lat="36.38193" lon="34.0287">
        <ele>7.759783</ele>
        <time>2022-02-24T13:22:12.498Z</time>
      </trkpt>
      <trkpt lat="36.38143" lon="34.02562">
        <ele>7.081246</ele>
        <time>2022-02-24T13:23:16.898Z</time>
      </trkpt>
      <trkpt lat="36.38136" lon="34.02547">
        <ele>7.014544</ele>
        <time>2022-02-24T13:23:20.074Z</time>
      </trkpt>
      <trkpt lat="36.38124" lon="34.02541">
        <ele>6.949591</ele>
        <time>2022-02-24T13:23:23.178Z</time>
      </trkpt>
      <trkpt lat="36.38116" lon="34.02537">
        <ele>6.906903</ele>
        <time>2022-02-24T13:23:25.275Z</time>
      </trkpt>
      <trkpt lat="36.38102" lon="34.02531">
        <ele>6.829558</ele>
        <time>2022-02-24T13:23:28.945Z</time>
      </trkpt>
      <trkpt lat="36.3809" lon="34.02269">
        <ele>5.953253</ele>
        <time>2022-02-24T13:24:21.241Z</time>
      </trkpt>
      <trkpt lat="36.38086" lon="34.02207">
        <ele>5.785759</ele>
        <time>2022-02-24T13:24:34.180Z</time>
      </trkpt>
      <trkpt lat="36.3802" lon="34.01777">
        <ele>5.770984</ele>
        <time>2022-02-24T13:26:07.692Z</time>
      </trkpt>
      <trkpt lat="36.37951" lon="34.0134">
        <ele>7.313322</ele>
        <time>2022-02-24T13:27:51.813Z</time>
      </trkpt>
      <trkpt lat="36.37876" lon="34.00879">
        <ele>8.151448</ele>
        <time>2022-02-24T13:29:37.460Z</time>
      </trkpt>
      <trkpt lat="36.37842" lon="34.00663">
        <ele>7.861855</ele>
        <time>2022-02-24T13:30:22.266Z</time>
      </trkpt>
      <trkpt lat="36.37815" lon="34.00496">
        <ele>8.347057</ele>
        <time>2022-02-24T13:31:00.510Z</time>
      </trkpt>
      <trkpt lat="36.37802" lon="34.00405">
        <ele>8.720014</ele>
        <time>2022-02-24T13:31:23.495Z</time>
      </trkpt>
      <trkpt lat="36.37795" lon="34.00321">
        <ele>9.236564</ele>
        <time>2022-02-24T13:31:44.359Z</time>
      </trkpt>
      <trkpt lat="36.37797" lon="34.00244">
        <ele>9.709624</ele>
        <time>2022-02-24T13:32:03.187Z</time>
      </trkpt>
      <trkpt lat="36.37805" lon="34.00186">
        <ele>10.001734</ele>
        <time>2022-02-24T13:32:17.286Z</time>
      </trkpt>
      <trkpt lat="36.37821" lon="34.00128">
        <ele>10.184898</ele>
        <time>2022-02-24T13:32:31.695Z</time>
      </trkpt>
      <trkpt lat="36.37906" lon="33.99925">
        <ele>10.644474</ele>
        <time>2022-02-24T13:33:23.113Z</time>
      </trkpt>
      <trkpt lat="36.38428" lon="33.98772">
        <ele>11.028187</ele>
        <time>2022-02-24T13:38:09.443Z</time>
      </trkpt>
      <trkpt lat="36.38495" lon="33.98627">
        <ele>10.680669</ele>
        <time>2022-02-24T13:38:43.198Z</time>
      </trkpt>
      <trkpt lat="36.38528" lon="33.98554">
        <ele>10.396316</ele>
        <time>2022-02-24T13:38:59.815Z</time>
      </trkpt>
      <trkpt lat="36.38537" lon="33.98534">
        <ele>10.318946</ele>
        <time>2022-02-24T13:39:04.218Z</time>
      </trkpt>
      <trkpt lat="36.386" lon="33.98379">
        <ele>10.019679</ele>
        <time>2022-02-24T13:39:39.344Z</time>
      </trkpt>
      <trkpt lat="36.38643" lon="33.98251">
        <ele>10.115176</ele>
        <time>2022-02-24T13:40:11.059Z</time>
      </trkpt>
      <trkpt lat="36.3867" lon="33.98136">
        <ele>10.255964</ele>
        <time>2022-02-24T13:40:38.225Z</time>
      </trkpt>
      <trkpt lat="36.38688" lon="33.97949">
        <ele>10.403747</ele>
        <time>2022-02-24T13:41:18.537Z</time>
      </trkpt>
      <trkpt lat="36.38686" lon="33.97827">
        <ele>10.410112</ele>
        <time>2022-02-24T13:41:44.421Z</time>
      </trkpt>
      <trkpt lat="36.38677" lon="33.97725">
        <ele>10.565259</ele>
        <time>2022-02-24T13:42:06.682Z</time>
      </trkpt>
      <trkpt lat="36.38657" lon="33.97608">
        <ele>10.820993</ele>
        <time>2022-02-24T13:42:34.221Z</time>
      </trkpt>
      <trkpt lat="36.38578" lon="33.97216">
        <ele>11.776571</ele>
        <time>2022-02-24T13:44:07.023Z</time>
      </trkpt>
      <trkpt lat="36.38443" lon="33.96575">
        <ele>11.287883</ele>
        <time>2022-02-24T13:46:24.941Z</time>
      </trkpt>
      <trkpt lat="36.38369" lon="33.96219">
        <ele>11.881103</ele>
        <time>2022-02-24T13:47:47.903Z</time>
      </trkpt>
      <trkpt lat="36.38291" lon="33.95841">
        <ele>12.531413</ele>
        <time>2022-02-24T13:49:15.243Z</time>
      </trkpt>
      <trkpt lat="36.38261" lon="33.95649">
        <ele>12.528508</ele>
        <time>2022-02-24T13:49:57.002Z</time>
      </trkpt>
      <trkpt lat="36.38244" lon="33.95439">
        <ele>12.673161</ele>
        <time>2022-02-24T13:50:42.434Z</time>
      </trkpt>
      <trkpt lat="36.38248" lon="33.94943">
        <ele>13.58157</ele>
        <time>2022-02-24T13:52:34.481Z</time>
      </trkpt>
      <trkpt lat="36.38247" lon="33.94825">
        <ele>13.425081</ele>
        <time>2022-02-24T13:52:59.196Z</time>
      </trkpt>
      <trkpt lat="36.38241" lon="33.94712">
        <ele>13.291439</ele>
        <time>2022-02-24T13:53:22.014Z</time>
      </trkpt>
      <trkpt lat="36.38239" lon="33.94672">
        <ele>13.268419</ele>
        <time>2022-02-24T13:53:30.129Z</time>
      </trkpt>
      <trkpt lat="36.38233" lon="33.94555">
        <ele>13.20081</ele>
        <time>2022-02-24T13:53:54.796Z</time>
      </trkpt>
      <trkpt lat="36.38232" lon="33.94544">
        <ele>13.194395</ele>
        <time>2022-02-24T13:53:57.231Z</time>
      </trkpt>
      <trkpt lat="36.38223" lon="33.94406">
        <ele>13.634115</ele>
        <time>2022-02-24T13:54:29.725Z</time>
      </trkpt>
      <trkpt lat="36.38225" lon="33.94263">
        <ele>14.223583</ele>
        <time>2022-02-24T13:55:03.993Z</time>
      </trkpt>
      <trkpt lat="36.38224" lon="33.94242">
        <ele>14.29607</ele>
        <time>2022-02-24T13:55:08.900Z</time>
      </trkpt>
      <trkpt lat="36.38222" lon="33.94222">
        <ele>14.365699</ele>
        <time>2022-02-24T13:55:13.640Z</time>
      </trkpt>
      <trkpt lat="36.38215" lon="33.94161">
        <ele>14.577033</ele>
        <time>2022-02-24T13:55:27.874Z</time>
      </trkpt>
      <trkpt lat="36.38209" lon="33.94096">
        <ele>14.802966</ele>
        <time>2022-02-24T13:55:43.177Z</time>
      </trkpt>
      <trkpt lat="36.38204" lon="33.94034">
        <ele>14.915815</ele>
        <time>2022-02-24T13:55:56.868Z</time>
      </trkpt>
      <trkpt lat="36.382" lon="33.94014">
        <ele>14.924166</ele>
        <time>2022-02-24T13:56:01.230Z</time>
      </trkpt>
      <trkpt lat="36.38196" lon="33.93984">
        <ele>14.93671</ele>
        <time>2022-02-24T13:56:07.773Z</time>
      </trkpt>
      <trkpt lat="36.38192" lon="33.93958">
        <ele>14.947428</ele>
        <time>2022-02-24T13:56:13.538Z</time>
      </trkpt>
      <trkpt lat="36.38189" lon="33.93947">
        <ele>14.952039</ele>
        <time>2022-02-24T13:56:15.998Z</time>
      </trkpt>
      <trkpt lat="36.38166" lon="33.93908">
        <ele>14.971766</ele>
        <time>2022-02-24T13:56:26.692Z</time>
      </trkpt>
      <trkpt lat="36.38162" lon="33.93903">
        <ele>14.974974</ele>
        <time>2022-02-24T13:56:28.425Z</time>
      </trkpt>
      <trkpt lat="36.38147" lon="33.93886">
        <ele>14.985106</ele>
        <time>2022-02-24T13:56:33.612Z</time>
      </trkpt>
      <trkpt lat="36.38126" lon="33.93867">
        <ele>14.983722</ele>
        <time>2022-02-24T13:56:40.658Z</time>
      </trkpt>
      <trkpt lat="36.38115" lon="33.93858">
        <ele>14.970344</ele>
        <time>2022-02-24T13:56:44.034Z</time>
      </trkpt>
      <trkpt lat="36.38087" lon="33.93836">
        <ele>14.936788</ele>
        <time>2022-02-24T13:56:52.418Z</time>
      </trkpt>
      <trkpt lat="36.38056" lon="33.93813">
        <ele>14.899973</ele>
        <time>2022-02-24T13:57:01.333Z</time>
      </trkpt>
      <trkpt lat="36.38044" lon="33.93806">
        <ele>14.88701</ele>
        <time>2022-02-24T13:57:04.715Z</time>
      </trkpt>
      <trkpt lat="36.38021" lon="33.93792">
        <ele>14.860153</ele>
        <time>2022-02-24T13:57:11.323Z</time>
      </trkpt>
      <trkpt lat="36.37962" lon="33.93777">
        <ele>14.82542</ele>
        <time>2022-02-24T13:57:28.068Z</time>
      </trkpt>
      <trkpt lat="36.3792" lon="33.93771">
        <ele>14.883637</ele>
        <time>2022-02-24T13:57:39.668Z</time>
      </trkpt>
      <trkpt lat="36.3791" lon="33.9377">
        <ele>14.897362</ele>
        <time>2022-02-24T13:57:42.389Z</time>
      </trkpt>
      <trkpt lat="36.37814" lon="33.93759">
        <ele>15.029713</ele>
        <time>2022-02-24T13:58:08.512Z</time>
      </trkpt>
      <trkpt lat="36.37723" lon="33.9375">
        <ele>15.114051</ele>
        <time>2022-02-24T13:58:33.949Z</time>
      </trkpt>
      <trkpt lat="36.37597" lon="33.93727">
        <ele>15.203317</ele>
        <time>2022-02-24T13:59:07.823Z</time>
      </trkpt>
      <trkpt lat="36.37562" lon="33.93718">
        <ele>15.209736</ele>
        <time>2022-02-24T13:59:17.489Z</time>
      </trkpt>
      <trkpt lat="36.37558" lon="33.93712">
        <ele>15.21081</ele>
        <time>2022-02-24T13:59:19.116Z</time>
      </trkpt>
      <trkpt lat="36.37541" lon="33.93704">
        <ele>15.213977</ele>
        <time>2022-02-24T13:59:23.886Z</time>
      </trkpt>
      <trkpt lat="36.37535" lon="33.93705">
        <ele>15.21506</ele>
        <time>2022-02-24T13:59:25.588Z</time>
      </trkpt>
      <trkpt lat="36.37529" lon="33.93709">
        <ele>15.216397</ele>
        <time>2022-02-24T13:59:27.612Z</time>
      </trkpt>
      <trkpt lat="36.37524" lon="33.93716">
        <ele>15.217732</ele>
        <time>2022-02-24T13:59:29.644Z</time>
      </trkpt>
      <trkpt lat="36.3752" lon="33.93724">
        <ele>15.219079</ele>
        <time>2022-02-24T13:59:31.691Z</time>
      </trkpt>
      <trkpt lat="36.3752" lon="33.93734">
        <ele>15.220419</ele>
        <time>2022-02-24T13:59:33.714Z</time>
      </trkpt>
      <trkpt lat="36.37521" lon="33.93743">
        <ele>15.221763</ele>
        <time>2022-02-24T13:59:35.826Z</time>
      </trkpt>
      <trkpt lat="36.37507" lon="33.93778">
        <ele>15.227433</ele>
        <time>2022-02-24T13:59:44.411Z</time>
      </trkpt>
      <trkpt lat="36.37506" lon="33.93781">
        <ele>15.227981</ele>
        <time>2022-02-24T13:59:45.311Z</time>
      </trkpt>
      <trkpt lat="36.37465" lon="33.93878">
        <ele>15.65947</ele>
        <time>2022-02-24T14:00:08.195Z</time>
      </trkpt>
      <trkpt lat="36.37436" lon="33.93941">
        <ele>16.043693</ele>
        <time>2022-02-24T14:00:23.533Z</time>
      </trkpt>
      <trkpt lat="36.37345" lon="33.93881">
        <ele>18.520445</ele>
        <time>2022-02-24T14:01:01.854Z</time>
      </trkpt>
      <trkpt lat="36.37311" lon="33.93859">
        <ele>20.247432</ele>
        <time>2022-02-24T14:01:21.436Z</time>
      </trkpt>
      <trkpt lat="36.37281" lon="33.93831">
        <ele>21.926526</ele>
        <time>2022-02-24T14:01:41.589Z</time>
      </trkpt>
      <trkpt lat="36.37275" lon="33.93839">
        <ele>22.320864</ele>
        <time>2022-02-24T14:01:47.640Z</time>
      </trkpt>
      <trkpt lat="36.37245" lon="33.93855">
        <ele>23.758917</ele>
        <time>2022-02-24T14:02:04.973Z</time>
      </trkpt>
      <trkpt lat="36.37212" lon="33.93873">
        <ele>25.501762</ele>
        <time>2022-02-24T14:02:25.853Z</time>
      </trkpt>
      <trkpt lat="36.37209" lon="33.93866">
        <ele>25.821971</ele>
        <time>2022-02-24T14:02:30.319Z</time>
      </trkpt>
      <trkpt lat="36.372" lon="33.93849">
        <ele>26.600497</ele>
        <time>2022-02-24T14:02:38.442Z</time>
      </trkpt>
      <trkpt lat="36.37179" lon="33.93815">
        <ele>28.29264</ele>
        <time>2022-02-24T14:02:57.372Z</time>
      </trkpt>
      <trkpt lat="36.37143" lon="33.93747">
        <ele>31.511917</ele>
        <time>2022-02-24T14:03:32.675Z</time>
      </trkpt>
      <trkpt lat="36.37127" lon="33.93722">
        <ele>32.773316</ele>
        <time>2022-02-24T14:03:44.686Z</time>
      </trkpt>
      <trkpt lat="36.37106" lon="33.93739">
        <ele>33.746681</ele>
        <time>2022-02-24T14:03:54.083Z</time>
      </trkpt>
      <trkpt lat="36.37072" lon="33.93689">
        <ele>35.441614</ele>
        <time>2022-02-24T14:04:12.918Z</time>
      </trkpt>
      <trkpt lat="36.37054" lon="33.93711">
        <ele>36.252055</ele>
        <time>2022-02-24T14:04:24.571Z</time>
      </trkpt>
      <trkpt lat="36.37046" lon="33.93721">
        <ele>36.634009</ele>
        <time>2022-02-24T14:04:29.255Z</time>
      </trkpt>
      <trkpt lat="36.3699" lon="33.93655">
        <ele>39.096641</ele>
        <time>2022-02-24T14:05:04.863Z</time>
      </trkpt>
      <trkpt lat="36.36968" lon="33.93682">
        <ele>39.729501</ele>
        <time>2022-02-24T14:05:18.383Z</time>
      </trkpt>
      <trkpt lat="36.36956" lon="33.93693">
        <ele>40.037057</ele>
        <time>2022-02-24T14:05:25.837Z</time>
      </trkpt>
      <trkpt lat="36.36948" lon="33.93701">
        <ele>40.23757</ele>
        <time>2022-02-24T14:05:29.886Z</time>
      </trkpt>
      <trkpt lat="36.3694" lon="33.93709">
        <ele>40.436976</ele>
        <time>2022-02-24T14:05:33.113Z</time>
      </trkpt>
      <trkpt lat="36.36934" lon="33.93729">
        <ele>40.790553</ele>
        <time>2022-02-24T14:05:39.716Z</time>
      </trkpt>
      <trkpt lat="36.36928" lon="33.93758">
        <ele>41.283991</ele>
        <time>2022-02-24T14:05:47.259Z</time>
      </trkpt>
      <trkpt lat="36.36925" lon="33.93771">
        <ele>41.497406</ele>
        <time>2022-02-24T14:05:51.556Z</time>
      </trkpt>
      <trkpt lat="36.3692" lon="33.93796">
        <ele>41.91954</ele>
        <time>2022-02-24T14:05:58.021Z</time>
      </trkpt>
      <trkpt lat="36.36916" lon="33.93819">
        <ele>42.2945</ele>
        <time>2022-02-24T14:06:05.210Z</time>
      </trkpt>
      <trkpt lat="36.36914" lon="33.93833">
        <ele>42.530869</ele>
        <time>2022-02-24T14:06:08.673Z</time>
      </trkpt>
      <trkpt lat="36.36918" lon="33.93862">
        <ele>42.448313</ele>
        <time>2022-02-24T14:06:17.004Z</time>
      </trkpt>
      <trkpt lat="36.36906" lon="33.93871">
        <ele>42.122834</ele>
        <time>2022-02-24T14:06:20.643Z</time>
      </trkpt>
      <trkpt lat="36.36869" lon="33.93892">
        <ele>41.201878</ele>
        <time>2022-02-24T14:06:29.214Z</time>
      </trkpt>
      <trkpt lat="36.3677" lon="33.93945">
        <ele>38.727045</ele>
        <time>2022-02-24T14:06:49.702Z</time>
      </trkpt>
      <trkpt lat="36.36736" lon="33.93967">
        <ele>37.323673</ele>
        <time>2022-02-24T14:06:57.270Z</time>
      </trkpt>
      <trkpt lat="36.36721" lon="33.93974">
        <ele>36.700756</ele>
        <time>2022-02-24T14:07:00.451Z</time>
      </trkpt>
      <trkpt lat="36.36703" lon="33.93985">
        <ele>35.941484</ele>
        <time>2022-02-24T14:07:04.343Z</time>
      </trkpt>
      <trkpt lat="36.36669" lon="33.94003">
        <ele>34.530194</ele>
        <time>2022-02-24T14:07:11.460Z</time>
      </trkpt>
      <trkpt lat="36.36624" lon="33.9403">
        <ele>32.640305</ele>
        <time>2022-02-24T14:07:20.687Z</time>
      </trkpt>
      <trkpt lat="36.3653" lon="33.94082">
        <ele>27.817079</ele>
        <time>2022-02-24T14:07:39.751Z</time>
      </trkpt>
      <trkpt lat="36.36437" lon="33.94123">
        <ele>22.927687</ele>
        <time>2022-02-24T14:07:57.464Z</time>
      </trkpt>
      <trkpt lat="36.36393" lon="33.94145">
        <ele>20.415144</ele>
        <time>2022-02-24T14:08:05.944Z</time>
      </trkpt>
      <trkpt lat="36.36345" lon="33.94168">
        <ele>17.763209</ele>
        <time>2022-02-24T14:08:14.922Z</time>
      </trkpt>
      <trkpt lat="36.36298" lon="33.94192">
        <ele>15.105202</ele>
        <time>2022-02-24T14:08:24.075Z</time>
      </trkpt>
      <trkpt lat="36.36251" lon="33.94216">
        <ele>13.036478</ele>
        <time>2022-02-24T14:08:33.616Z</time>
      </trkpt>
      <trkpt lat="36.36224" lon="33.94237">
        <ele>12.355589</ele>
        <time>2022-02-24T14:08:39.710Z</time>
      </trkpt>
      <trkpt lat="36.36196" lon="33.94231">
        <ele>11.727897</ele>
        <time>2022-02-24T14:08:45.502Z</time>
      </trkpt>
      <trkpt lat="36.36182" lon="33.94232">
        <ele>11.430383</ele>
        <time>2022-02-24T14:08:48.338Z</time>
      </trkpt>
      <trkpt lat="36.36172" lon="33.94226">
        <ele>11.175987</ele>
        <time>2022-02-24T14:08:50.825Z</time>
      </trkpt>
      <trkpt lat="36.36155" lon="33.94192">
        <ele>10.462418</ele>
        <time>2022-02-24T14:08:58.130Z</time>
      </trkpt>
      <trkpt lat="36.36141" lon="33.94147">
        <ele>9.616276</ele>
        <time>2022-02-24T14:09:07.349Z</time>
      </trkpt>
      <trkpt lat="36.3612" lon="33.94115">
        <ele>9.561911</ele>
        <time>2022-02-24T14:09:15.707Z</time>
      </trkpt>
      <trkpt lat="36.36103" lon="33.94096">
        <ele>9.581516</ele>
        <time>2022-02-24T14:09:21.887Z</time>
      </trkpt>
      <trkpt lat="36.36083" lon="33.94086">
        <ele>9.600501</ele>
        <time>2022-02-24T14:09:27.762Z</time>
      </trkpt>
      <trkpt lat="36.3608" lon="33.94083">
        <ele>9.604531</ele>
        <time>2022-02-24T14:09:29.035Z</time>
      </trkpt>
      <trkpt lat="36.36066" lon="33.94085">
        <ele>9.616323</ele>
        <time>2022-02-24T14:09:33.098Z</time>
      </trkpt>
      <trkpt lat="36.36042" lon="33.94081">
        <ele>9.637281</ele>
        <time>2022-02-24T14:09:39.679Z</time>
      </trkpt>
      <trkpt lat="36.36035" lon="33.94072">
        <ele>9.646224</ele>
        <time>2022-02-24T14:09:42.749Z</time>
      </trkpt>
      <trkpt lat="36.36031" lon="33.94049">
        <ele>9.662488</ele>
        <time>2022-02-24T14:09:47.822Z</time>
      </trkpt>
      <trkpt lat="36.36032" lon="33.94001">
        <ele>9.701063</ele>
        <time>2022-02-24T14:09:58.691Z</time>
      </trkpt>
      <trkpt lat="36.36029" lon="33.9399">
        <ele>9.722771</ele>
        <time>2022-02-24T14:10:01.481Z</time>
      </trkpt>
      <trkpt lat="36.36012" lon="33.93981">
        <ele>9.76656</ele>
        <time>2022-02-24T14:10:06.527Z</time>
      </trkpt>
      <trkpt lat="36.35944" lon="33.93974">
        <ele>9.930204</ele>
        <time>2022-02-24T14:10:25.606Z</time>
      </trkpt>
      <trkpt lat="36.35856" lon="33.93964">
        <ele>10.158528</ele>
        <time>2022-02-24T14:10:50.099Z</time>
      </trkpt>
      <trkpt lat="36.35816" lon="33.9396">
        <ele>10.344874</ele>
        <time>2022-02-24T14:11:01.105Z</time>
      </trkpt>
      <trkpt lat="36.3577" lon="33.93941">
        <ele>10.571508</ele>
        <time>2022-02-24T14:11:14.910Z</time>
      </trkpt>
      <trkpt lat="36.35745" lon="33.93931">
        <ele>10.693188</ele>
        <time>2022-02-24T14:11:22.642Z</time>
      </trkpt>
      <trkpt lat="36.35721" lon="33.9392">
        <ele>10.812598</ele>
        <time>2022-02-24T14:11:30.306Z</time>
      </trkpt>
      <trkpt lat="36.35702" lon="33.93912">
        <ele>10.903982</ele>
        <time>2022-02-24T14:11:36.275Z</time>
      </trkpt>
      <trkpt lat="36.35678" lon="33.93908">
        <ele>11.046392</ele>
        <time>2022-02-24T14:11:43.514Z</time>
      </trkpt>
      <trkpt lat="36.35655" lon="33.93911">
        <ele>11.219023</ele>
        <time>2022-02-24T14:11:50.792Z</time>
      </trkpt>
      <trkpt lat="36.35617" lon="33.93856">
        <ele>11.64682</ele>
        <time>2022-02-24T14:12:09.070Z</time>
      </trkpt>
      <trkpt lat="36.35588" lon="33.93814">
        <ele>11.972545</ele>
        <time>2022-02-24T14:12:22.549Z</time>
      </trkpt>
      <trkpt lat="36.35543" lon="33.9375">
        <ele>12.210045</ele>
        <time>2022-02-24T14:12:42.994Z</time>
      </trkpt>
      <trkpt lat="36.3542" lon="33.93577">
        <ele>11.319746</ele>
        <time>2022-02-24T14:13:29.131Z</time>
      </trkpt>
      <trkpt lat="36.35403" lon="33.93551">
        <ele>10.897155</ele>
        <time>2022-02-24T14:13:35.189Z</time>
      </trkpt>
      <trkpt lat="36.35327" lon="33.93446">
        <ele>9.168679</ele>
        <time>2022-02-24T14:13:59.379Z</time>
      </trkpt>
      <trkpt lat="36.35284" lon="33.93396">
        <ele>8.396158</ele>
        <time>2022-02-24T14:14:11.836Z</time>
      </trkpt>
      <trkpt lat="36.35173" lon="33.93284">
        <ele>6.792528</ele>
        <time>2022-02-24T14:14:44.455Z</time>
      </trkpt>
      <trkpt lat="36.34666" lon="33.92813">
        <ele>7.791186</ele>
        <time>2022-02-24T14:17:38.983Z</time>
      </trkpt>
      <trkpt lat="36.34515" lon="33.92667">
        <ele>9.540952</ele>
        <time>2022-02-24T14:18:35.754Z</time>
      </trkpt>
      <trkpt lat="36.34516" lon="33.9266">
        <ele>9.618106</ele>
        <time>2022-02-24T14:18:37.798Z</time>
      </trkpt>
      <trkpt lat="36.34514" lon="33.9265">
        <ele>9.714717</ele>
        <time>2022-02-24T14:18:40.762Z</time>
      </trkpt>
      <trkpt lat="36.34515" lon="33.9263">
        <ele>9.919665</ele>
        <time>2022-02-24T14:18:46.255Z</time>
      </trkpt>
      <trkpt lat="36.34534" lon="33.92588">
        <ele>10.591304</ele>
        <time>2022-02-24T14:19:01.950Z</time>
      </trkpt>
      <trkpt lat="36.34546" lon="33.92513">
        <ele>12.565435</ele>
        <time>2022-02-24T14:19:29.396Z</time>
      </trkpt>
      <trkpt lat="36.34559" lon="33.92485">
        <ele>13.391504</ele>
        <time>2022-02-24T14:19:41.236Z</time>
      </trkpt>
      <trkpt lat="36.34576" lon="33.92462">
        <ele>14.189288</ele>
        <time>2022-02-24T14:19:51.475Z</time>
      </trkpt>
      <trkpt lat="36.34582" lon="33.92458">
        <ele>14.409895</ele>
        <time>2022-02-24T14:19:55.350Z</time>
      </trkpt>
      <trkpt lat="36.34589" lon="33.92452">
        <ele>14.693169</ele>
        <time>2022-02-24T14:19:59.282Z</time>
      </trkpt>
      <trkpt lat="36.34606" lon="33.92439">
        <ele>15.333136</ele>
        <time>2022-02-24T14:20:07.181Z</time>
      </trkpt>
      <trkpt lat="36.34594" lon="33.92377">
        <ele>16.77149</ele>
        <time>2022-02-24T14:20:30.506Z</time>
      </trkpt>
      <trkpt lat="36.34563" lon="33.9228">
        <ele>18.861924</ele>
        <time>2022-02-24T14:21:05.705Z</time>
      </trkpt>
      <trkpt lat="36.34535" lon="33.92221">
        <ele>20.235582</ele>
        <time>2022-02-24T14:21:24.903Z</time>
      </trkpt>
      <trkpt lat="36.34533" lon="33.92214">
        <ele>20.378374</ele>
        <time>2022-02-24T14:21:27.057Z</time>
      </trkpt>
      <trkpt lat="36.34532" lon="33.92204">
        <ele>20.553631</ele>
        <time>2022-02-24T14:21:29.750Z</time>
      </trkpt>
      <trkpt lat="36.34469" lon="33.92084">
        <ele>22.375901</ele>
        <time>2022-02-24T14:22:09.043Z</time>
      </trkpt>
      <trkpt lat="36.34385" lon="33.91923">
        <ele>26.820422</ele>
        <time>2022-02-24T14:23:07.152Z</time>
      </trkpt>
      <trkpt lat="36.3433" lon="33.91816">
        <ele>30.846808</ele>
        <time>2022-02-24T14:24:01.824Z</time>
      </trkpt>
      <trkpt lat="36.3434" lon="33.91806">
        <ele>31.50035</ele>
        <time>2022-02-24T14:24:10.295Z</time>
      </trkpt>
      <trkpt lat="36.3438" lon="33.91771">
        <ele>34.03994</ele>
        <time>2022-02-24T14:24:36.927Z</time>
      </trkpt>
      <trkpt lat="36.34372" lon="33.91754">
        <ele>34.861966</ele>
        <time>2022-02-24T14:24:46.449Z</time>
      </trkpt>
      <trkpt lat="36.34394" lon="33.91736">
        <ele>36.255813</ele>
        <time>2022-02-24T14:25:00.360Z</time>
      </trkpt>
      <trkpt lat="36.34421" lon="33.91709">
        <ele>38.044725</ele>
        <time>2022-02-24T14:25:19.332Z</time>
      </trkpt>
      <trkpt lat="36.3443" lon="33.917">
        <ele>38.668982</ele>
        <time>2022-02-24T14:25:26.849Z</time>
      </trkpt>
      <trkpt lat="36.34432" lon="33.91678">
        <ele>39.463749</ele>
        <time>2022-02-24T14:25:35.704Z</time>
      </trkpt>
      <trkpt lat="36.34238" lon="33.9138">
        <ele>44.08632</ele>
        <time>2022-02-24T14:27:18.953Z</time>
      </trkpt>
      <trkpt lat="36.34239" lon="33.91363">
        <ele>44.245236</ele>
        <time>2022-02-24T14:27:23.567Z</time>
      </trkpt>
      <trkpt lat="36.34247" lon="33.9135">
        <ele>44.400655</ele>
        <time>2022-02-24T14:27:27.888Z</time>
      </trkpt>
      <trkpt lat="36.34368" lon="33.91284">
        <ele>45.751291</ele>
        <time>2022-02-24T14:28:11.603Z</time>
      </trkpt>
      <trkpt lat="36.3433" lon="33.91084">
        <ele>47.58902</ele>
        <time>2022-02-24T14:29:03.994Z</time>
      </trkpt>
      <trkpt lat="36.34319" lon="33.9104">
        <ele>48.039943</ele>
        <time>2022-02-24T14:29:16.797Z</time>
      </trkpt>
      <trkpt lat="36.3428" lon="33.90945">
        <ele>49.046503</ele>
        <time>2022-02-24T14:29:48.046Z</time>
      </trkpt>
      <trkpt lat="36.34227" lon="33.9084">
        <ele>50.207489</ele>
        <time>2022-02-24T14:30:24.883Z</time>
      </trkpt>
      <trkpt lat="36.34174" lon="33.90707">
        <ele>48.235161</ele>
        <time>2022-02-24T14:30:54.436Z</time>
      </trkpt>
      <trkpt lat="36.34118" lon="33.90567">
        <ele>43.591903</ele>
        <time>2022-02-24T14:31:18.570Z</time>
      </trkpt>
      <trkpt lat="36.34109" lon="33.90573">
        <ele>42.982114</ele>
        <time>2022-02-24T14:31:20.360Z</time>
      </trkpt>
      <trkpt lat="36.34059" lon="33.90445">
        <ele>35.822534</ele>
        <time>2022-02-24T14:31:40.981Z</time>
      </trkpt>
      <trkpt lat="36.3405" lon="33.90408">
        <ele>33.885756</ele>
        <time>2022-02-24T14:31:46.729Z</time>
      </trkpt>
      <trkpt lat="36.34048" lon="33.90371">
        <ele>32.590595</ele>
        <time>2022-02-24T14:31:52.151Z</time>
      </trkpt>
      <trkpt lat="36.34041" lon="33.90346">
        <ele>31.656364</ele>
        <time>2022-02-24T14:31:56.255Z</time>
      </trkpt>
      <trkpt lat="36.34038" lon="33.90337">
        <ele>31.302608</ele>
        <time>2022-02-24T14:31:57.773Z</time>
      </trkpt>
      <trkpt lat="36.34031" lon="33.90336">
        <ele>30.990985</ele>
        <time>2022-02-24T14:31:59.037Z</time>
      </trkpt>
      <trkpt lat="36.34016" lon="33.90347">
        <ele>30.246353</ele>
        <time>2022-02-24T14:32:02.416Z</time>
      </trkpt>
      <trkpt lat="36.33997" lon="33.90383">
        <ele>28.719319</ele>
        <time>2022-02-24T14:32:09.233Z</time>
      </trkpt>
      <trkpt lat="36.33978" lon="33.90396">
        <ele>27.769375</ele>
        <time>2022-02-24T14:32:13.508Z</time>
      </trkpt>
      <trkpt lat="36.33934" lon="33.90391">
        <ele>26.004795</ele>
        <time>2022-02-24T14:32:22.592Z</time>
      </trkpt>
      <trkpt lat="36.33915" lon="33.90386">
        <ele>25.728913</ele>
        <time>2022-02-24T14:32:27.056Z</time>
      </trkpt>
      <trkpt lat="36.33813" lon="33.90339">
        <ele>24.200931</ele>
        <time>2022-02-24T14:32:52.589Z</time>
      </trkpt>
      <trkpt lat="36.33802" lon="33.9033">
        <ele>24.002042</ele>
        <time>2022-02-24T14:32:55.947Z</time>
      </trkpt>
      <trkpt lat="36.33773" lon="33.90306">
        <ele>23.532841</ele>
        <time>2022-02-24T14:33:04.913Z</time>
      </trkpt>
      <trkpt lat="36.33766" lon="33.90295">
        <ele>23.451922</ele>
        <time>2022-02-24T14:33:07.932Z</time>
      </trkpt>
      <trkpt lat="36.33744" lon="33.90324">
        <ele>23.229322</ele>
        <time>2022-02-24T14:33:15.399Z</time>
      </trkpt>
      <trkpt lat="36.33716" lon="33.90351">
        <ele>22.976183</ele>
        <time>2022-02-24T14:33:23.980Z</time>
      </trkpt>
      <trkpt lat="36.33646" lon="33.90396">
        <ele>22.424844</ele>
        <time>2022-02-24T14:33:42.660Z</time>
      </trkpt>
      <trkpt lat="36.33626" lon="33.90414">
        <ele>22.260261</ele>
        <time>2022-02-24T14:33:48.369Z</time>
      </trkpt>
      <trkpt lat="36.33636" lon="33.90372">
        <ele>22.102197</ele>
        <time>2022-02-24T14:33:57.334Z</time>
      </trkpt>
      <trkpt lat="36.33636" lon="33.90328">
        <ele>21.939389</ele>
        <time>2022-02-24T14:34:06.767Z</time>
      </trkpt>
      <trkpt lat="36.33615" lon="33.90208">
        <ele>21.488976</ele>
        <time>2022-02-24T14:34:32.572Z</time>
      </trkpt>
      <trkpt lat="36.33615" lon="33.90199">
        <ele>21.449717</ele>
        <time>2022-02-24T14:34:34.762Z</time>
      </trkpt>
      <trkpt lat="36.33612" lon="33.90168">
        <ele>21.248068</ele>
        <time>2022-02-24T14:34:41.246Z</time>
      </trkpt>
      <trkpt lat="36.33611" lon="33.90152">
        <ele>21.148288</ele>
        <time>2022-02-24T14:34:44.549Z</time>
      </trkpt>
      <trkpt lat="36.33605" lon="33.90149">
        <ele>21.097731</ele>
        <time>2022-02-24T14:34:45.980Z</time>
      </trkpt>
      <trkpt lat="36.33513" lon="33.90044">
        <ele>20.091426</ele>
        <time>2022-02-24T14:35:15.575Z</time>
      </trkpt>
      <trkpt lat="36.33441" lon="33.89953">
        <ele>18.618764</ele>
        <time>2022-02-24T14:35:38.364Z</time>
      </trkpt>
      <trkpt lat="36.33431" lon="33.8995">
        <ele>18.465175</ele>
        <time>2022-02-24T14:35:40.560Z</time>
      </trkpt>
      <trkpt lat="36.33418" lon="33.89946">
        <ele>18.277683</ele>
        <time>2022-02-24T14:35:43.293Z</time>
      </trkpt>
      <trkpt lat="36.33394" lon="33.89951">
        <ele>17.908083</ele>
        <time>2022-02-24T14:35:48.695Z</time>
      </trkpt>
      <trkpt lat="36.33354" lon="33.89861">
        <ele>16.85445</ele>
        <time>2022-02-24T14:36:06.824Z</time>
      </trkpt>
      <trkpt lat="36.33299" lon="33.89762">
        <ele>15.823943</ele>
        <time>2022-02-24T14:36:29.025Z</time>
      </trkpt>
      <trkpt lat="36.3328" lon="33.89732">
        <ele>15.496295</ele>
        <time>2022-02-24T14:36:36.518Z</time>
      </trkpt>
      <trkpt lat="36.33233" lon="33.8966">
        <ele>15.057876</ele>
        <time>2022-02-24T14:36:55.024Z</time>
      </trkpt>
      <trkpt lat="36.33187" lon="33.89601">
        <ele>14.712984</ele>
        <time>2022-02-24T14:37:11.545Z</time>
      </trkpt>
      <trkpt lat="36.33175" lon="33.89585">
        <ele>14.621749</ele>
        <time>2022-02-24T14:37:15.894Z</time>
      </trkpt>
      <trkpt lat="36.32956" lon="33.89312">
        <ele>12.476739</ele>
        <time>2022-02-24T14:38:31.024Z</time>
      </trkpt>
      <trkpt lat="36.32801" lon="33.8912">
        <ele>10.271316</ele>
        <time>2022-02-24T14:39:20.870Z</time>
      </trkpt>
      <trkpt lat="36.32693" lon="33.88977">
        <ele>8.815244</ele>
        <time>2022-02-24T14:39:57.531Z</time>
      </trkpt>
      <trkpt lat="36.32685" lon="33.88965">
        <ele>8.703569</ele>
        <time>2022-02-24T14:40:00.535Z</time>
      </trkpt>
      <trkpt lat="36.32704" lon="33.88943">
        <ele>8.477814</ele>
        <time>2022-02-24T14:40:07.205Z</time>
      </trkpt>
      <trkpt lat="36.32728" lon="33.88874">
        <ele>8.156348</ele>
        <time>2022-02-24T14:40:22.683Z</time>
      </trkpt>
      <trkpt lat="36.3273" lon="33.8887">
        <ele>8.144131</ele>
        <time>2022-02-24T14:40:23.661Z</time>
      </trkpt>
      <trkpt lat="36.32729" lon="33.88854">
        <ele>8.102872</ele>
        <time>2022-02-24T14:40:26.899Z</time>
      </trkpt>
      <trkpt lat="36.32728" lon="33.88832">
        <ele>8.045378</ele>
        <time>2022-02-24T14:40:31.645Z</time>
      </trkpt>
      <trkpt lat="36.32717" lon="33.8879">
        <ele>7.930326</ele>
        <time>2022-02-24T14:40:41.145Z</time>
      </trkpt>
      <trkpt lat="36.32694" lon="33.88744">
        <ele>7.788448</ele>
        <time>2022-02-24T14:40:53.227Z</time>
      </trkpt>
      <trkpt lat="36.32687" lon="33.88711">
        <ele>7.701316</ele>
        <time>2022-02-24T14:41:00.538Z</time>
      </trkpt>
      <trkpt lat="36.32684" lon="33.88692">
        <ele>7.627927</ele>
        <time>2022-02-24T14:41:04.816Z</time>
      </trkpt>
      <trkpt lat="36.32677" lon="33.88645">
        <ele>7.443767</ele>
        <time>2022-02-24T14:41:15.046Z</time>
      </trkpt>
      <trkpt lat="36.32669" lon="33.88591">
        <ele>7.234651</ele>
        <time>2022-02-24T14:41:26.382Z</time>
      </trkpt>
      <trkpt lat="36.3266" lon="33.88545">
        <ele>7.053838</ele>
        <time>2022-02-24T14:41:36.026Z</time>
      </trkpt>
      <trkpt lat="36.32652" lon="33.88506">
        <ele>6.899367</ele>
        <time>2022-02-24T14:41:44.298Z</time>
      </trkpt>
      <trkpt lat="36.32651" lon="33.88487">
        <ele>6.82099</ele>
        <time>2022-02-24T14:41:48.080Z</time>
      </trkpt>
      <trkpt lat="36.32636" lon="33.88465">
        <ele>6.662473</ele>
        <time>2022-02-24T14:41:54.133Z</time>
      </trkpt>
      <trkpt lat="36.32614" lon="33.8844">
        <ele>6.457815</ele>
        <time>2022-02-24T14:42:01.711Z</time>
      </trkpt>
      <trkpt lat="36.32604" lon="33.88426">
        <ele>6.362605</ele>
        <time>2022-02-24T14:42:05.140Z</time>
      </trkpt>
      <trkpt lat="36.32555" lon="33.88348">
        <ele>5.824055</ele>
        <time>2022-02-24T14:42:25.046Z</time>
      </trkpt>
      <trkpt lat="36.32471" lon="33.8827">
        <ele>5.313071</ele>
        <time>2022-02-24T14:42:52.489Z</time>
      </trkpt>
      <trkpt lat="36.32319" lon="33.882">
        <ele>5.282403</ele>
        <time>2022-02-24T14:43:34.481Z</time>
      </trkpt>
      <trkpt lat="36.32255" lon="33.88162">
        <ele>5.772112</ele>
        <time>2022-02-24T14:43:57.284Z</time>
      </trkpt>
      <trkpt lat="36.32228" lon="33.88129">
        <ele>6.031143</ele>
        <time>2022-02-24T14:44:09.715Z</time>
      </trkpt>
      <trkpt lat="36.32221" lon="33.8812">
        <ele>6.100038</ele>
        <time>2022-02-24T14:44:13.188Z</time>
      </trkpt>
      <trkpt lat="36.32229" lon="33.88046">
        <ele>8.031287</ele>
        <time>2022-02-24T14:44:36.795Z</time>
      </trkpt>
      <trkpt lat="36.32225" lon="33.88038">
        <ele>8.280899</ele>
        <time>2022-02-24T14:44:39.797Z</time>
      </trkpt>
      <trkpt lat="36.32207" lon="33.88002">
        <ele>9.444487</ele>
        <time>2022-02-24T14:44:54.994Z</time>
      </trkpt>
      <trkpt lat="36.32201" lon="33.88002">
        <ele>9.649116</ele>
        <time>2022-02-24T14:44:57.560Z</time>
      </trkpt>
      <trkpt lat="36.32168" lon="33.87999">
        <ele>10.736315</ele>
        <time>2022-02-24T14:45:12.741Z</time>
      </trkpt>
      <trkpt lat="36.32166" lon="33.87978">
        <ele>11.309548</ele>
        <time>2022-02-24T14:45:21.283Z</time>
      </trkpt>
      <trkpt lat="36.32156" lon="33.8793">
        <ele>13.165144</ele>
        <time>2022-02-24T14:45:40.997Z</time>
      </trkpt>
      <trkpt lat="36.32133" lon="33.87898">
        <ele>15.478248</ele>
        <time>2022-02-24T14:46:00.101Z</time>
      </trkpt>
      <trkpt lat="36.32121" lon="33.87873">
        <ele>17.101395</ele>
        <time>2022-02-24T14:46:13.221Z</time>
      </trkpt>
      <trkpt lat="36.32112" lon="33.87856">
        <ele>18.204501</ele>
        <time>2022-02-24T14:46:22.822Z</time>
      </trkpt>
      <trkpt lat="36.32099" lon="33.87821">
        <ele>20.258286</ele>
        <time>2022-02-24T14:46:42.168Z</time>
      </trkpt>
      <trkpt lat="36.32089" lon="33.87806">
        <ele>21.350588</ele>
        <time>2022-02-24T14:46:52.529Z</time>
      </trkpt>
      <trkpt lat="36.32098" lon="33.87756">
        <ele>24.135897</ele>
        <time>2022-02-24T14:47:20.566Z</time>
      </trkpt>
      <trkpt lat="36.321" lon="33.87745">
        <ele>24.936881</ele>
        <time>2022-02-24T14:47:27.305Z</time>
      </trkpt>
      <trkpt lat="36.32111" lon="33.87689">
        <ele>29.412182</ele>
        <time>2022-02-24T14:48:00.084Z</time>
      </trkpt>
      <trkpt lat="36.3212" lon="33.87643">
        <ele>33.00696</ele>
        <time>2022-02-24T14:48:27.320Z</time>
      </trkpt>
      <trkpt lat="36.32123" lon="33.87626">
        <ele>34.366034</ele>
        <time>2022-02-24T14:48:38.400Z</time>
      </trkpt>
      <trkpt lat="36.32139" lon="33.87546">
        <ele>40.702915</ele>
        <time>2022-02-24T14:49:30.395Z</time>
      </trkpt>
      <trkpt lat="36.32157" lon="33.87461">
        <ele>47.942825</ele>
        <time>2022-02-24T14:50:23.846Z</time>
      </trkpt>
      <trkpt lat="36.32184" lon="33.8734">
        <ele>58.362264</ele>
        <time>2022-02-24T14:51:42.206Z</time>
      </trkpt>
      <trkpt lat="36.32191" lon="33.87293">
        <ele>62.354752</ele>
        <time>2022-02-24T14:52:12.851Z</time>
      </trkpt>
      <trkpt lat="36.32197" lon="33.8727">
        <ele>64.355108</ele>
        <time>2022-02-24T14:52:27.916Z</time>
      </trkpt>
      <trkpt lat="36.32203" lon="33.87242">
        <ele>66.790083</ele>
        <time>2022-02-24T14:52:46.724Z</time>
      </trkpt>
      <trkpt lat="36.32216" lon="33.87184">
        <ele>71.84677</ele>
        <time>2022-02-24T14:53:24.151Z</time>
      </trkpt>
      <trkpt lat="36.32221" lon="33.87163">
        <ele>73.61505</ele>
        <time>2022-02-24T14:53:37.360Z</time>
      </trkpt>
      <trkpt lat="36.32228" lon="33.87137">
        <ele>75.957209</ele>
        <time>2022-02-24T14:53:54.423Z</time>
      </trkpt>
      <trkpt lat="36.32239" lon="33.87103">
        <ele>79.003848</ele>
        <time>2022-02-24T14:54:17.116Z</time>
      </trkpt>
      <trkpt lat="36.32241" lon="33.87094">
        <ele>79.855126</ele>
        <time>2022-02-24T14:54:23.377Z</time>
      </trkpt>
      <trkpt lat="36.32279" lon="33.86992">
        <ele>89.487427</ele>
        <time>2022-02-24T14:55:33.788Z</time>
      </trkpt>
      <trkpt lat="36.32297" lon="33.86926">
        <ele>95.417918</ele>
        <time>2022-02-24T14:56:17.096Z</time>
      </trkpt>
      <trkpt lat="36.32306" lon="33.86858">
        <ele>102.143098</ele>
        <time>2022-02-24T14:57:03.154Z</time>
      </trkpt>
      <trkpt lat="36.32324" lon="33.86798">
        <ele>108.944046</ele>
        <time>2022-02-24T14:57:49.340Z</time>
      </trkpt>
      <trkpt lat="36.3232" lon="33.86737">
        <ele>115.382461</ele>
        <time>2022-02-24T14:58:35.367Z</time>
      </trkpt>
      <trkpt lat="36.32325" lon="33.86645">
        <ele>125.463245</ele>
        <time>2022-02-24T14:59:46.803Z</time>
      </trkpt>
      <trkpt lat="36.32314" lon="33.86566">
        <ele>134.843264</ele>
        <time>2022-02-24T15:00:53.830Z</time>
      </trkpt>
      <trkpt lat="36.32332" lon="33.86503">
        <ele>142.708997</ele>
        <time>2022-02-24T15:01:45.596Z</time>
      </trkpt>
      <trkpt lat="36.32339" lon="33.86465">
        <ele>147.295725</ele>
        <time>2022-02-24T15:02:15.883Z</time>
      </trkpt>
      <trkpt lat="36.3234" lon="33.86458">
        <ele>147.99345</ele>
        <time>2022-02-24T15:02:20.411Z</time>
      </trkpt>
      <trkpt lat="36.32342" lon="33.86447">
        <ele>149.129418</ele>
        <time>2022-02-24T15:02:30.421Z</time>
      </trkpt>
      <trkpt lat="36.32338" lon="33.86329">
        <ele>160.970089</ele>
        <time>2022-02-24T15:03:54.731Z</time>
      </trkpt>
      <trkpt lat="36.32284" lon="33.85947">
        <ele>198.154636</ele>
        <time>2022-02-24T15:08:14.326Z</time>
      </trkpt>
      <trkpt lat="36.32266" lon="33.85862">
        <ele>206.821731</ele>
        <time>2022-02-24T15:09:16.727Z</time>
      </trkpt>
      <trkpt lat="36.32265" lon="33.85797">
        <ele>213.285625</ele>
        <time>2022-02-24T15:10:04.500Z</time>
      </trkpt>
      <trkpt lat="36.3228" lon="33.857">
        <ele>222.507272</ele>
        <time>2022-02-24T15:11:15.177Z</time>
      </trkpt>
      <trkpt lat="36.32285" lon="33.85627">
        <ele>229.408801</ele>
        <time>2022-02-24T15:12:05.041Z</time>
      </trkpt>
      <trkpt lat="36.32269" lon="33.85552">
        <ele>235.488319</ele>
        <time>2022-02-24T15:12:52.411Z</time>
      </trkpt>
      <trkpt lat="36.32249" lon="33.85504">
        <ele>238.450686</ele>
        <time>2022-02-24T15:13:21.580Z</time>
      </trkpt>
      <trkpt lat="36.32238" lon="33.85462">
        <ele>240.91493</ele>
        <time>2022-02-24T15:13:43.360Z</time>
      </trkpt>
      <trkpt lat="36.3223" lon="33.85392">
        <ele>244.81781</ele>
        <time>2022-02-24T15:14:13.352Z</time>
      </trkpt>
      <trkpt lat="36.32214" lon="33.85325">
        <ele>247.282323</ele>
        <time>2022-02-24T15:14:39.213Z</time>
      </trkpt>
      <trkpt lat="36.32203" lon="33.85279">
        <ele>248.568268</ele>
        <time>2022-02-24T15:14:55.726Z</time>
      </trkpt>
      <trkpt lat="36.32187" lon="33.85212">
        <ele>250.402183</ele>
        <time>2022-02-24T15:15:18.187Z</time>
      </trkpt>
      <trkpt lat="36.32167" lon="33.84951">
        <ele>258.069878</ele>
        <time>2022-02-24T15:16:49.800Z</time>
      </trkpt>
      <trkpt lat="36.32212" lon="33.84744">
        <ele>268.396169</ele>
        <time>2022-02-24T15:18:30.005Z</time>
      </trkpt>
      <trkpt lat="36.322" lon="33.84579">
        <ele>276.870671</ele>
        <time>2022-02-24T15:19:52.427Z</time>
      </trkpt>
      <trkpt lat="36.32181" lon="33.84502">
        <ele>281.064461</ele>
        <time>2022-02-24T15:20:29.173Z</time>
      </trkpt>
      <trkpt lat="36.32172" lon="33.84436">
        <ele>283.29167</ele>
        <time>2022-02-24T15:20:56.545Z</time>
      </trkpt>
      <trkpt lat="36.32171" lon="33.84401">
        <ele>284.431355</ele>
        <time>2022-02-24T15:21:10.247Z</time>
      </trkpt>
      <trkpt lat="36.32223" lon="33.84296">
        <ele>288.386616</ele>
        <time>2022-02-24T15:21:53.949Z</time>
      </trkpt>
      <trkpt lat="36.32229" lon="33.84261">
        <ele>289.159773</ele>
        <time>2022-02-24T15:22:06.239Z</time>
      </trkpt>
      <trkpt lat="36.32215" lon="33.8417">
        <ele>291.062135</ele>
        <time>2022-02-24T15:22:36.506Z</time>
      </trkpt>
      <trkpt lat="36.32196" lon="33.84097">
        <ele>292.648406</ele>
        <time>2022-02-24T15:23:00.521Z</time>
      </trkpt>
      <trkpt lat="36.3217" lon="33.84042">
        <ele>293.763041</ele>
        <time>2022-02-24T15:23:19.554Z</time>
      </trkpt>
      <trkpt lat="36.32155" lon="33.83999">
        <ele>294.523311</ele>
        <time>2022-02-24T15:23:33.265Z</time>
      </trkpt>
      <trkpt lat="36.32155" lon="33.83962">
        <ele>295.117929</ele>
        <time>2022-02-24T15:23:43.890Z</time>
      </trkpt>
      <trkpt lat="36.32163" lon="33.83939">
        <ele>295.523355</ele>
        <time>2022-02-24T15:23:51.177Z</time>
      </trkpt>
      <trkpt lat="36.32224" lon="33.83896">
        <ele>297.14322</ele>
        <time>2022-02-24T15:24:17.811Z</time>
      </trkpt>
      <trkpt lat="36.32239" lon="33.83843">
        <ele>298.71504</ele>
        <time>2022-02-24T15:24:36.655Z</time>
      </trkpt>
      <trkpt lat="36.32246" lon="33.83719">
        <ele>302.176771</ele>
        <time>2022-02-24T15:25:22.288Z</time>
      </trkpt>
      <trkpt lat="36.32231" lon="33.8365">
        <ele>304.897435</ele>
        <time>2022-02-24T15:25:50.600Z</time>
      </trkpt>
      <trkpt lat="36.32213" lon="33.83597">
        <ele>307.395493</ele>
        <time>2022-02-24T15:26:15.062Z</time>
      </trkpt>
      <trkpt lat="36.32197" lon="33.83571">
        <ele>308.820242</ele>
        <time>2022-02-24T15:26:29.360Z</time>
      </trkpt>
      <trkpt lat="36.32176" lon="33.83532">
        <ele>310.859641</ele>
        <time>2022-02-24T15:26:50.482Z</time>
      </trkpt>
      <trkpt lat="36.32163" lon="33.83509">
        <ele>312.128671</ele>
        <time>2022-02-24T15:27:03.859Z</time>
      </trkpt>
      <trkpt lat="36.32157" lon="33.83496">
        <ele>312.772896</ele>
        <time>2022-02-24T15:27:10.380Z</time>
      </trkpt>
      <trkpt lat="36.32141" lon="33.83464">
        <ele>315.334493</ele>
        <time>2022-02-24T15:27:28.109Z</time>
      </trkpt>
      <trkpt lat="36.32138" lon="33.83434">
        <ele>317.402357</ele>
        <time>2022-02-24T15:27:42.541Z</time>
      </trkpt>
      <trkpt lat="36.32097" lon="33.83352">
        <ele>323.95225</ele>
        <time>2022-02-24T15:28:36.848Z</time>
      </trkpt>
      <trkpt lat="36.32108" lon="33.83298">
        <ele>327.77</ele>
        <time>2022-02-24T15:29:12.432Z</time>
      </trkpt>
      <trkpt lat="36.32101" lon="33.83263">
        <ele>330.563819</ele>
        <time>2022-02-24T15:29:34.697Z</time>
      </trkpt>
      <trkpt lat="36.32073" lon="33.83218">
        <ele>335.041772</ele>
        <time>2022-02-24T15:30:10.209Z</time>
      </trkpt>
      <trkpt lat="36.32063" lon="33.83203">
        <ele>336.573331</ele>
        <time>2022-02-24T15:30:22.264Z</time>
      </trkpt>
      <trkpt lat="36.32054" lon="33.83177">
        <ele>338.823303</ele>
        <time>2022-02-24T15:30:39.465Z</time>
      </trkpt>
      <trkpt lat="36.32034" lon="33.83119">
        <ele>343.855015</ele>
        <time>2022-02-24T15:31:17.792Z</time>
      </trkpt>
      <trkpt lat="36.32011" lon="33.83019">
        <ele>350.269223</ele>
        <time>2022-02-24T15:32:15.116Z</time>
      </trkpt>
      <trkpt lat="36.31965" lon="33.8296">
        <ele>354.950026</ele>
        <time>2022-02-24T15:32:53.820Z</time>
      </trkpt>
      <trkpt lat="36.31955" lon="33.82882">
        <ele>359.335215</ele>
        <time>2022-02-24T15:33:29.364Z</time>
      </trkpt>
      <trkpt lat="36.31945" lon="33.82844">
        <ele>361.268801</ele>
        <time>2022-02-24T15:33:47.605Z</time>
      </trkpt>
      <trkpt lat="36.31907" lon="33.82782">
        <ele>364.985953</ele>
        <time>2022-02-24T15:34:22.959Z</time>
      </trkpt>
      <trkpt lat="36.31888" lon="33.82737">
        <ele>367.475597</ele>
        <time>2022-02-24T15:34:46.542Z</time>
      </trkpt>
      <trkpt lat="36.31875" lon="33.82664">
        <ele>371.00117</ele>
        <time>2022-02-24T15:35:20.594Z</time>
      </trkpt>
      <trkpt lat="36.31796" lon="33.82452">
        <ele>381.718295</ele>
        <time>2022-02-24T15:37:04.755Z</time>
      </trkpt>
      <trkpt lat="36.31788" lon="33.82382">
        <ele>384.799683</ele>
        <time>2022-02-24T15:37:34.624Z</time>
      </trkpt>
      <trkpt lat="36.31791" lon="33.82315">
        <ele>387.721455</ele>
        <time>2022-02-24T15:38:03.110Z</time>
      </trkpt>
      <trkpt lat="36.31775" lon="33.82239">
        <ele>391.18962</ele>
        <time>2022-02-24T15:38:37.302Z</time>
      </trkpt>
      <trkpt lat="36.31758" lon="33.82203">
        <ele>393.065293</ele>
        <time>2022-02-24T15:38:56.388Z</time>
      </trkpt>
      <trkpt lat="36.3171" lon="33.82135">
        <ele>397.135809</ele>
        <time>2022-02-24T15:39:39.152Z</time>
      </trkpt>
      <trkpt lat="36.31632" lon="33.82078">
        <ele>399.862289</ele>
        <time>2022-02-24T15:40:38.975Z</time>
      </trkpt>
      <trkpt lat="36.3162" lon="33.82046">
        <ele>400.181008</ele>
        <time>2022-02-24T15:40:55.422Z</time>
      </trkpt>
      <trkpt lat="36.31623" lon="33.82032">
        <ele>400.317592</ele>
        <time>2022-02-24T15:41:00.810Z</time>
      </trkpt>
      <trkpt lat="36.31622" lon="33.81996">
        <ele>400.647806</ele>
        <time>2022-02-24T15:41:15.152Z</time>
      </trkpt>
      <trkpt lat="36.31608" lon="33.81944">
        <ele>401.155368</ele>
        <time>2022-02-24T15:41:32.856Z</time>
      </trkpt>
      <trkpt lat="36.31617" lon="33.81924">
        <ele>401.031782</ele>
        <time>2022-02-24T15:41:39.642Z</time>
      </trkpt>
      <trkpt lat="36.31638" lon="33.81933">
        <ele>399.56842</ele>
        <time>2022-02-24T15:41:47.167Z</time>
      </trkpt>
      <trkpt lat="36.31646" lon="33.81914">
        <ele>398.445733</ele>
        <time>2022-02-24T15:41:52.944Z</time>
      </trkpt>
      <trkpt lat="36.3167" lon="33.81805">
        <ele>392.422526</ele>
        <time>2022-02-24T15:42:21.118Z</time>
      </trkpt>
      <trkpt lat="36.31667" lon="33.81732">
        <ele>388.199088</ele>
        <time>2022-02-24T15:42:38.803Z</time>
      </trkpt>
      <trkpt lat="36.31673" lon="33.81705">
        <ele>386.171756</ele>
        <time>2022-02-24T15:42:45.513Z</time>
      </trkpt>
      <trkpt lat="36.31671" lon="33.81687">
        <ele>384.867772</ele>
        <time>2022-02-24T15:42:49.822Z</time>
      </trkpt>
      <trkpt lat="36.3164" lon="33.81701">
        <ele>381.943166</ele>
        <time>2022-02-24T15:42:59.457Z</time>
      </trkpt>
      <trkpt lat="36.31627" lon="33.81686">
        <ele>380.313922</ele>
        <time>2022-02-24T15:43:04.821Z</time>
      </trkpt>
      <trkpt lat="36.31629" lon="33.8165">
        <ele>377.731081</ele>
        <time>2022-02-24T15:43:13.311Z</time>
      </trkpt>
      <trkpt lat="36.31641" lon="33.81606">
        <ele>374.307959</ele>
        <time>2022-02-24T15:43:24.585Z</time>
      </trkpt>
      <trkpt lat="36.3164" lon="33.81568">
        <ele>371.716314</ele>
        <time>2022-02-24T15:43:33.780Z</time>
      </trkpt>
      <trkpt lat="36.31656" lon="33.81524">
        <ele>368.635536</ele>
        <time>2022-02-24T15:43:45.261Z</time>
      </trkpt>
      <trkpt lat="36.31665" lon="33.81532">
        <ele>367.704147</ele>
        <time>2022-02-24T15:43:48.740Z</time>
      </trkpt>
      <trkpt lat="36.3166" lon="33.81565">
        <ele>365.477673</ele>
        <time>2022-02-24T15:43:57.160Z</time>
      </trkpt>
      <trkpt lat="36.31674" lon="33.81575">
        <ele>364.231976</ele>
        <time>2022-02-24T15:44:01.873Z</time>
      </trkpt>
      <trkpt lat="36.31717" lon="33.81571">
        <ele>360.711804</ele>
        <time>2022-02-24T15:44:15.415Z</time>
      </trkpt>
      <trkpt lat="36.31778" lon="33.81549">
        <ele>356.172601</ele>
        <time>2022-02-24T15:44:35.315Z</time>
      </trkpt>
      <trkpt lat="36.3171" lon="33.81524">
        <ele>351.496842</ele>
        <time>2022-02-24T15:44:57.737Z</time>
      </trkpt>
      <trkpt lat="36.31695" lon="33.81479">
        <ele>348.901301</ele>
        <time>2022-02-24T15:45:10.138Z</time>
      </trkpt>
      <trkpt lat="36.31649" lon="33.81454">
        <ele>345.458943</ele>
        <time>2022-02-24T15:45:26.009Z</time>
      </trkpt>
      <trkpt lat="36.31584" lon="33.81392">
        <ele>339.531591</ele>
        <time>2022-02-24T15:45:51.637Z</time>
      </trkpt>
      <trkpt lat="36.31532" lon="33.81281">
        <ele>332.584505</ele>
        <time>2022-02-24T15:46:23.271Z</time>
      </trkpt>
      <trkpt lat="36.31477" lon="33.81228">
        <ele>328.820905</ele>
        <time>2022-02-24T15:46:45.667Z</time>
      </trkpt>
      <trkpt lat="36.31483" lon="33.81163">
        <ele>325.981613</ele>
        <time>2022-02-24T15:47:03.260Z</time>
      </trkpt>
      <trkpt lat="36.31441" lon="33.81086">
        <ele>323.175274</ele>
        <time>2022-02-24T15:47:29.469Z</time>
      </trkpt>
      <trkpt lat="36.31399" lon="33.80999">
        <ele>321.119683</ele>
        <time>2022-02-24T15:47:59.257Z</time>
      </trkpt>
      <trkpt lat="36.31408" lon="33.80817">
        <ele>320.643155</ele>
        <time>2022-02-24T15:48:57.488Z</time>
      </trkpt>
      <trkpt lat="36.31303" lon="33.8062">
        <ele>327.071522</ele>
        <time>2022-02-24T15:50:53.151Z</time>
      </trkpt>
      <trkpt lat="36.31179" lon="33.80423">
        <ele>340.320913</ele>
        <time>2022-02-24T15:53:41.133Z</time>
      </trkpt>
      <trkpt lat="36.31157" lon="33.80354">
        <ele>344.496805</ele>
        <time>2022-02-24T15:54:26.829Z</time>
      </trkpt>
      <trkpt lat="36.31115" lon="33.80318">
        <ele>345.439195</ele>
        <time>2022-02-24T15:55:00.624Z</time>
      </trkpt>
      <trkpt lat="36.31094" lon="33.80266">
        <ele>346.317147</ele>
        <time>2022-02-24T15:55:27.207Z</time>
      </trkpt>
      <trkpt lat="36.31092" lon="33.80171">
        <ele>347.750121</ele>
        <time>2022-02-24T15:55:59.588Z</time>
      </trkpt>
      <trkpt lat="36.31103" lon="33.80106">
        <ele>346.683784</ele>
        <time>2022-02-24T15:56:19.184Z</time>
      </trkpt>
      <trkpt lat="36.31091" lon="33.80028">
        <ele>345.344194</ele>
        <time>2022-02-24T15:56:41.909Z</time>
      </trkpt>
      <trkpt lat="36.31059" lon="33.79964">
        <ele>344.063202</ele>
        <time>2022-02-24T15:57:04.420Z</time>
      </trkpt>
      <trkpt lat="36.31041" lon="33.79853">
        <ele>345.00038</ele>
        <time>2022-02-24T15:57:44.757Z</time>
      </trkpt>
      <trkpt lat="36.30925" lon="33.79717">
        <ele>346.91043</ele>
        <time>2022-02-24T15:59:17.178Z</time>
      </trkpt>
      <trkpt lat="36.30864" lon="33.79699">
        <ele>347.740862</ele>
        <time>2022-02-24T15:59:50.996Z</time>
      </trkpt>
      <trkpt lat="36.30841" lon="33.79673">
        <ele>348.134854</ele>
        <time>2022-02-24T16:00:04.441Z</time>
      </trkpt>
      <trkpt lat="36.30843" lon="33.79621">
        <ele>347.876438</ele>
        <time>2022-02-24T16:00:20.926Z</time>
      </trkpt>
      <trkpt lat="36.30858" lon="33.79558">
        <ele>346.730279</ele>
        <time>2022-02-24T16:00:40.090Z</time>
      </trkpt>
      <trkpt lat="36.30851" lon="33.79483">
        <ele>345.41694</ele>
        <time>2022-02-24T16:01:01.954Z</time>
      </trkpt>
      <trkpt lat="36.30819" lon="33.79425">
        <ele>344.521577</ele>
        <time>2022-02-24T16:01:22.972Z</time>
      </trkpt>
      <trkpt lat="36.30776" lon="33.79362">
        <ele>344.611065</ele>
        <time>2022-02-24T16:01:49.545Z</time>
      </trkpt>
      <trkpt lat="36.30733" lon="33.79245">
        <ele>344.86435</ele>
        <time>2022-02-24T16:02:39.729Z</time>
      </trkpt>
      <trkpt lat="36.30701" lon="33.79117">
        <ele>348.261129</ele>
        <time>2022-02-24T16:03:49.735Z</time>
      </trkpt>
      <trkpt lat="36.30671" lon="33.79028">
        <ele>350.187967</ele>
        <time>2022-02-24T16:04:37.702Z</time>
      </trkpt>
      <trkpt lat="36.30628" lon="33.78938">
        <ele>348.471982</ele>
        <time>2022-02-24T16:05:15.340Z</time>
      </trkpt>
      <trkpt lat="36.30616" lon="33.78875">
        <ele>347.423938</ele>
        <time>2022-02-24T16:05:32.377Z</time>
      </trkpt>
      <trkpt lat="36.30613" lon="33.78787">
        <ele>345.251458</ele>
        <time>2022-02-24T16:05:55.346Z</time>
      </trkpt>
      <trkpt lat="36.30608" lon="33.787">
        <ele>342.480332</ele>
        <time>2022-02-24T16:06:17.448Z</time>
      </trkpt>
      <trkpt lat="36.30613" lon="33.78671">
        <ele>341.539536</ele>
        <time>2022-02-24T16:06:25.320Z</time>
      </trkpt>
      <trkpt lat="36.30607" lon="33.78652">
        <ele>340.894966</ele>
        <time>2022-02-24T16:06:33.565Z</time>
      </trkpt>
      <trkpt lat="36.30558" lon="33.78581">
        <ele>340.920234</ele>
        <time>2022-02-24T16:07:08.331Z</time>
      </trkpt>
      <trkpt lat="36.30527" lon="33.78516">
        <ele>342.671352</ele>
        <time>2022-02-24T16:07:47.031Z</time>
      </trkpt>
      <trkpt lat="36.30503" lon="33.78421">
        <ele>344.912021</ele>
        <time>2022-02-24T16:08:43.016Z</time>
      </trkpt>
      <trkpt lat="36.30449" lon="33.78279">
        <ele>345.690293</ele>
        <time>2022-02-24T16:09:44.287Z</time>
      </trkpt>
      <trkpt lat="36.30429" lon="33.78228">
        <ele>345.97191</ele>
        <time>2022-02-24T16:10:01.738Z</time>
      </trkpt>
      <trkpt lat="36.30398" lon="33.78201">
        <ele>345.722079</ele>
        <time>2022-02-24T16:10:15.799Z</time>
      </trkpt>
      <trkpt lat="36.30388" lon="33.78189">
        <ele>345.611021</ele>
        <time>2022-02-24T16:10:21.265Z</time>
      </trkpt>
      <trkpt lat="36.30388" lon="33.78146">
        <ele>345.348549</ele>
        <time>2022-02-24T16:10:34.272Z</time>
      </trkpt>
      <trkpt lat="36.30377" lon="33.78102">
        <ele>345.064046</ele>
        <time>2022-02-24T16:10:48.545Z</time>
      </trkpt>
      <trkpt lat="36.30378" lon="33.78041">
        <ele>344.684305</ele>
        <time>2022-02-24T16:11:09.212Z</time>
      </trkpt>
      <trkpt lat="36.30352" lon="33.77889">
        <ele>349.44002</ele>
        <time>2022-02-24T16:12:23.536Z</time>
      </trkpt>
      <trkpt lat="36.30387" lon="33.77816">
        <ele>352.451916</ele>
        <time>2022-02-24T16:13:13.512Z</time>
      </trkpt>
      <trkpt lat="36.30396" lon="33.77706">
        <ele>360.110816</ele>
        <time>2022-02-24T16:14:34.830Z</time>
      </trkpt>
      <trkpt lat="36.30411" lon="33.77644">
        <ele>364.632908</ele>
        <time>2022-02-24T16:15:21.927Z</time>
      </trkpt>
      <trkpt lat="36.30425" lon="33.7762">
        <ele>366.660251</ele>
        <time>2022-02-24T16:15:43.986Z</time>
      </trkpt>
      <trkpt lat="36.30455" lon="33.77603">
        <ele>368.219013</ele>
        <time>2022-02-24T16:16:10.491Z</time>
      </trkpt>
      <trkpt lat="36.30489" lon="33.77577">
        <ele>369.2395</ele>
        <time>2022-02-24T16:16:38.358Z</time>
      </trkpt>
      <trkpt lat="36.305" lon="33.77508">
        <ele>370.705501</ele>
        <time>2022-02-24T16:17:12.051Z</time>
      </trkpt>
      <trkpt lat="36.305" lon="33.77481">
        <ele>371.278488</ele>
        <time>2022-02-24T16:17:23.639Z</time>
      </trkpt>
      <trkpt lat="36.3048" lon="33.77518">
        <ele>372.201839</ele>
        <time>2022-02-24T16:17:31.609Z</time>
      </trkpt>
      <trkpt lat="36.30453" lon="33.77574">
        <ele>369.230068</ele>
        <time>2022-02-24T16:17:41.494Z</time>
      </trkpt>
      <trkpt lat="36.30443" lon="33.77579">
        <ele>368.495966</ele>
        <time>2022-02-24T16:17:43.591Z</time>
      </trkpt>
      <trkpt lat="36.30426" lon="33.77574">
        <ele>367.409542</ele>
        <time>2022-02-24T16:17:46.618Z</time>
      </trkpt>
      <trkpt lat="36.30411" lon="33.7755">
        <ele>365.829396</ele>
        <time>2022-02-24T16:17:50.977Z</time>
      </trkpt>
      <trkpt lat="36.30396" lon="33.77424">
        <ele>359.535089</ele>
        <time>2022-02-24T16:18:09.117Z</time>
      </trkpt>
      <trkpt lat="36.30388" lon="33.77404">
        <ele>358.621135</ele>
        <time>2022-02-24T16:18:12.358Z</time>
      </trkpt>
      <trkpt lat="36.30378" lon="33.77396">
        <ele>358.033618</ele>
        <time>2022-02-24T16:18:14.452Z</time>
      </trkpt>
      <trkpt lat="36.30362" lon="33.77395">
        <ele>357.228554</ele>
        <time>2022-02-24T16:18:17.320Z</time>
      </trkpt>
      <trkpt lat="36.30251" lon="33.77428">
        <ele>351.771723</ele>
        <time>2022-02-24T16:18:39.647Z</time>
      </trkpt>
      <trkpt lat="36.30192" lon="33.77438">
        <ele>352.878478</ele>
        <time>2022-02-24T16:18:58.199Z</time>
      </trkpt>
      <trkpt lat="36.30179" lon="33.77441">
        <ele>353.117182</ele>
        <time>2022-02-24T16:19:02.567Z</time>
      </trkpt>
      <trkpt lat="36.30136" lon="33.77446">
        <ele>353.929715</ele>
        <time>2022-02-24T16:19:20.109Z</time>
      </trkpt>
      <trkpt lat="36.30111" lon="33.7744">
        <ele>354.411329</ele>
        <time>2022-02-24T16:19:32.158Z</time>
      </trkpt>
      <trkpt lat="36.30097" lon="33.77421">
        <ele>354.788914</ele>
        <time>2022-02-24T16:19:41.839Z</time>
      </trkpt>
      <trkpt lat="36.30083" lon="33.77381">
        <ele>356.101419</ele>
        <time>2022-02-24T16:19:59.899Z</time>
      </trkpt>
      <trkpt lat="36.30055" lon="33.77329">
        <ele>358.583368</ele>
        <time>2022-02-24T16:20:28.315Z</time>
      </trkpt>
      <trkpt lat="36.30019" lon="33.7729">
        <ele>360.918081</ele>
        <time>2022-02-24T16:20:53.401Z</time>
      </trkpt>
      <trkpt lat="36.2996" lon="33.77249">
        <ele>364.20674</ele>
        <time>2022-02-24T16:21:26.403Z</time>
      </trkpt>
      <trkpt lat="36.29912" lon="33.77237">
        <ele>366.367135</ele>
        <time>2022-02-24T16:21:50.671Z</time>
      </trkpt>
      <trkpt lat="36.29868" lon="33.7721">
        <ele>368.53379</ele>
        <time>2022-02-24T16:22:15.139Z</time>
      </trkpt>
      <trkpt lat="36.29827" lon="33.77193">
        <ele>370.48886</ele>
        <time>2022-02-24T16:22:37.595Z</time>
      </trkpt>
      <trkpt lat="36.29618" lon="33.77121">
        <ele>378.017167</ele>
        <time>2022-02-24T16:24:16.576Z</time>
      </trkpt>
      <trkpt lat="36.29547" lon="33.77102">
        <ele>377.762541</ele>
        <time>2022-02-24T16:24:38.603Z</time>
      </trkpt>
      <trkpt lat="36.29501" lon="33.77095">
        <ele>377.600561</ele>
        <time>2022-02-24T16:24:49.826Z</time>
      </trkpt>
      <trkpt lat="36.29459" lon="33.77096">
        <ele>377.452927</ele>
        <time>2022-02-24T16:24:59.096Z</time>
      </trkpt>
      <trkpt lat="36.29392" lon="33.77116">
        <ele>375.664649</ele>
        <time>2022-02-24T16:25:13.438Z</time>
      </trkpt>
      <trkpt lat="36.29147" lon="33.77171">
        <ele>368.031992</ele>
        <time>2022-02-24T16:26:04.142Z</time>
      </trkpt>
      <trkpt lat="36.29035" lon="33.77183">
        <ele>365.691514</ele>
        <time>2022-02-24T16:26:28.639Z</time>
      </trkpt>
      <trkpt lat="36.28956" lon="33.77184">
        <ele>364.71605</ele>
        <time>2022-02-24T16:26:47.606Z</time>
      </trkpt>
      <trkpt lat="36.28925" lon="33.77175">
        <ele>364.314033</ele>
        <time>2022-02-24T16:26:55.852Z</time>
      </trkpt>
      <trkpt lat="36.28792" lon="33.77099">
        <ele>364.414028</ele>
        <time>2022-02-24T16:27:37.174Z</time>
      </trkpt>
      <trkpt lat="36.28742" lon="33.77078">
        <ele>364.528746</ele>
        <time>2022-02-24T16:27:53.377Z</time>
      </trkpt>
      <trkpt lat="36.28714" lon="33.77059">
        <ele>364.672465</ele>
        <time>2022-02-24T16:28:03.281Z</time>
      </trkpt>
      <trkpt lat="36.2868" lon="33.77025">
        <ele>364.86852</ele>
        <time>2022-02-24T16:28:16.716Z</time>
      </trkpt>
      <trkpt lat="36.28642" lon="33.76996">
        <ele>365.064552</ele>
        <time>2022-02-24T16:28:29.971Z</time>
      </trkpt>
      <trkpt lat="36.28583" lon="33.76976">
        <ele>365.298001</ele>
        <time>2022-02-24T16:28:48.055Z</time>
      </trkpt>
      <trkpt lat="36.28555" lon="33.76958">
        <ele>365.304564</ele>
        <time>2022-02-24T16:28:56.939Z</time>
      </trkpt>
      <trkpt lat="36.28503" lon="33.76894">
        <ele>365.319655</ele>
        <time>2022-02-24T16:29:16.830Z</time>
      </trkpt>
      <trkpt lat="36.28439" lon="33.76832">
        <ele>365.444024</ele>
        <time>2022-02-24T16:29:39.257Z</time>
      </trkpt>
      <trkpt lat="36.28392" lon="33.76801">
        <ele>365.817597</ele>
        <time>2022-02-24T16:29:54.731Z</time>
      </trkpt>
      <trkpt lat="36.28371" lon="33.76781">
        <ele>366.005974</ele>
        <time>2022-02-24T16:30:02.755Z</time>
      </trkpt>
      <trkpt lat="36.28224" lon="33.76536">
        <ele>368.891511</ele>
        <time>2022-02-24T16:31:26.442Z</time>
      </trkpt>
      <trkpt lat="36.28103" lon="33.76391">
        <ele>371.904656</ele>
        <time>2022-02-24T16:32:28.933Z</time>
      </trkpt>
      <trkpt lat="36.28055" lon="33.76324">
        <ele>373.11825</ele>
        <time>2022-02-24T16:32:54.955Z</time>
      </trkpt>
      <trkpt lat="36.27982" lon="33.76189">
        <ele>375.168012</ele>
        <time>2022-02-24T16:33:40.531Z</time>
      </trkpt>
      <trkpt lat="36.2793" lon="33.76132">
        <ele>376.505434</ele>
        <time>2022-02-24T16:34:05.307Z</time>
      </trkpt>
      <trkpt lat="36.27887" lon="33.76075">
        <ele>377.744273</ele>
        <time>2022-02-24T16:34:28.866Z</time>
      </trkpt>
      <trkpt lat="36.27842" lon="33.76028">
        <ele>378.908483</ele>
        <time>2022-02-24T16:34:51.577Z</time>
      </trkpt>
      <trkpt lat="36.27728" lon="33.75922">
        <ele>382.121473</ele>
        <time>2022-02-24T16:35:47.734Z</time>
      </trkpt>
      <trkpt lat="36.27596" lon="33.75772">
        <ele>385.302524</ele>
        <time>2022-02-24T16:36:53.152Z</time>
      </trkpt>
      <trkpt lat="36.27514" lon="33.75588">
        <ele>387.401192</ele>
        <time>2022-02-24T16:37:48.470Z</time>
      </trkpt>
      <trkpt lat="36.2748" lon="33.75535">
        <ele>388.158256</ele>
        <time>2022-02-24T16:38:06.625Z</time>
      </trkpt>
      <trkpt lat="36.27432" lon="33.75472">
        <ele>389.834169</ele>
        <time>2022-02-24T16:38:31.993Z</time>
      </trkpt>
      <trkpt lat="36.27449" lon="33.75457">
        <ele>390.322552</ele>
        <time>2022-02-24T16:38:40.418Z</time>
      </trkpt>
      <trkpt lat="36.27485" lon="33.75433">
        <ele>391.293975</ele>
        <time>2022-02-24T16:38:56.653Z</time>
      </trkpt>
      <trkpt lat="36.27492" lon="33.75423">
        <ele>391.56638</ele>
        <time>2022-02-24T16:39:01.026Z</time>
      </trkpt>
      <trkpt lat="36.27494" lon="33.75406">
        <ele>391.885174</ele>
        <time>2022-02-24T16:39:07.101Z</time>
      </trkpt>
      <trkpt lat="36.27458" lon="33.75336">
        <ele>394.696426</ele>
        <time>2022-02-24T16:39:38.121Z</time>
      </trkpt>
      <trkpt lat="36.27432" lon="33.75263">
        <ele>397.694745</ele>
        <time>2022-02-24T16:40:10.501Z</time>
      </trkpt>
      <trkpt lat="36.27424" lon="33.75226">
        <ele>399.145208</ele>
        <time>2022-02-24T16:40:26.808Z</time>
      </trkpt>
      <trkpt lat="36.2741" lon="33.75081">
        <ele>405.857611</ele>
        <time>2022-02-24T16:41:32.666Z</time>
      </trkpt>
      <trkpt lat="36.2741" lon="33.75033">
        <ele>408.165389</ele>
        <time>2022-02-24T16:41:55.037Z</time>
      </trkpt>
      <trkpt lat="36.27396" lon="33.74946">
        <ele>412.391711</ele>
        <time>2022-02-24T16:42:37.310Z</time>
      </trkpt>
      <trkpt lat="36.27399" lon="33.74897">
        <ele>414.491663</ele>
        <time>2022-02-24T16:42:59.692Z</time>
      </trkpt>
      <trkpt lat="36.27357" lon="33.74878">
        <ele>416.846375</ele>
        <time>2022-02-24T16:43:23.859Z</time>
      </trkpt>
      <trkpt lat="36.2735" lon="33.7486">
        <ele>417.691348</ele>
        <time>2022-02-24T16:43:32.249Z</time>
      </trkpt>
      <trkpt lat="36.27352" lon="33.74845">
        <ele>418.345896</ele>
        <time>2022-02-24T16:43:38.695Z</time>
      </trkpt>
      <trkpt lat="36.27362" lon="33.74826">
        <ele>419.338892</ele>
        <time>2022-02-24T16:43:48.254Z</time>
      </trkpt>
      <trkpt lat="36.27364" lon="33.74784">
        <ele>421.087505</ele>
        <time>2022-02-24T16:44:04.877Z</time>
      </trkpt>
      <trkpt lat="36.2738" lon="33.7475">
        <ele>421.868123</ele>
        <time>2022-02-24T16:44:19.629Z</time>
      </trkpt>
      <trkpt lat="36.27391" lon="33.74703">
        <ele>422.830812</ele>
        <time>2022-02-24T16:44:36.153Z</time>
      </trkpt>
      <trkpt lat="36.27384" lon="33.74628">
        <ele>424.322881</ele>
        <time>2022-02-24T16:44:58.811Z</time>
      </trkpt>
      <trkpt lat="36.27386" lon="33.74582">
        <ele>425.23389</ele>
        <time>2022-02-24T16:45:11.421Z</time>
      </trkpt>
      <trkpt lat="36.27381" lon="33.74501">
        <ele>425.930511</ele>
        <time>2022-02-24T16:45:32.503Z</time>
      </trkpt>
      <trkpt lat="36.27368" lon="33.74401">
        <ele>426.610385</ele>
        <time>2022-02-24T16:45:57.803Z</time>
      </trkpt>
      <trkpt lat="36.27372" lon="33.74321">
        <ele>427.142839</ele>
        <time>2022-02-24T16:46:18.101Z</time>
      </trkpt>
      <trkpt lat="36.27413" lon="33.74216">
        <ele>427.905962</ele>
        <time>2022-02-24T16:46:48.740Z</time>
      </trkpt>
      <trkpt lat="36.2746" lon="33.74131">
        <ele>428.480296</ele>
        <time>2022-02-24T16:47:14.973Z</time>
      </trkpt>
      <trkpt lat="36.2747" lon="33.74094">
        <ele>428.574927</ele>
        <time>2022-02-24T16:47:24.348Z</time>
      </trkpt>
      <trkpt lat="36.27472" lon="33.73937">
        <ele>428.957059</ele>
        <time>2022-02-24T16:48:00.512Z</time>
      </trkpt>
      <trkpt lat="36.27479" lon="33.73866">
        <ele>428.891182</ele>
        <time>2022-02-24T16:48:16.753Z</time>
      </trkpt>
      <trkpt lat="36.27472" lon="33.73704">
        <ele>428.618525</ele>
        <time>2022-02-24T16:48:52.350Z</time>
      </trkpt>
      <trkpt lat="36.27467" lon="33.73679">
        <ele>428.275264</ele>
        <time>2022-02-24T16:48:57.679Z</time>
      </trkpt>
      <trkpt lat="36.27468" lon="33.7365">
        <ele>427.890768</ele>
        <time>2022-02-24T16:49:03.259Z</time>
      </trkpt>
      <trkpt lat="36.27463" lon="33.73618">
        <ele>427.457087</ele>
        <time>2022-02-24T16:49:09.317Z</time>
      </trkpt>
      <trkpt lat="36.27447" lon="33.73554">
        <ele>426.572677</ele>
        <time>2022-02-24T16:49:21.648Z</time>
      </trkpt>
      <trkpt lat="36.27433" lon="33.73553">
        <ele>426.345322</ele>
        <time>2022-02-24T16:49:24.496Z</time>
      </trkpt>
      <trkpt lat="36.27255" lon="33.73599">
        <ele>421.919588</ele>
        <time>2022-02-24T16:50:02.588Z</time>
      </trkpt>
      <trkpt lat="36.27099" lon="33.73632">
        <ele>418.705737</ele>
        <time>2022-02-24T16:50:37.321Z</time>
      </trkpt>
      <trkpt lat="36.27052" lon="33.73636">
        <ele>417.822308</ele>
        <time>2022-02-24T16:50:48.331Z</time>
      </trkpt>
      <trkpt lat="36.26941" lon="33.73624">
        <ele>417.208728</ele>
        <time>2022-02-24T16:51:15.847Z</time>
      </trkpt>
      <trkpt lat="36.26908" lon="33.73616">
        <ele>417.050575</ele>
        <time>2022-02-24T16:51:24.798Z</time>
      </trkpt>
      <trkpt lat="36.26784" lon="33.73608">
        <ele>417.891407</ele>
        <time>2022-02-24T16:52:02.118Z</time>
      </trkpt>
      <trkpt lat="36.26731" lon="33.73593">
        <ele>418.56931</ele>
        <time>2022-02-24T16:52:21.045Z</time>
      </trkpt>
      <trkpt lat="36.26548" lon="33.73519">
        <ele>422.459136</ele>
        <time>2022-02-24T16:53:37.120Z</time>
      </trkpt>
      <trkpt lat="36.26496" lon="33.73468">
        <ele>423.372439</ele>
        <time>2022-02-24T16:54:01.466Z</time>
      </trkpt>
      <trkpt lat="36.26468" lon="33.7345">
        <ele>423.578482</ele>
        <time>2022-02-24T16:54:11.895Z</time>
      </trkpt>
      <trkpt lat="36.2644" lon="33.73441">
        <ele>423.773349</ele>
        <time>2022-02-24T16:54:21.133Z</time>
      </trkpt>
      <trkpt lat="36.26412" lon="33.7344">
        <ele>423.957236</ele>
        <time>2022-02-24T16:54:29.273Z</time>
      </trkpt>
      <trkpt lat="36.26376" lon="33.73449">
        <ele>424.199459</ele>
        <time>2022-02-24T16:54:39.251Z</time>
      </trkpt>
      <trkpt lat="36.2621" lon="33.73515">
        <ele>423.34643</ele>
        <time>2022-02-24T16:55:22.773Z</time>
      </trkpt>
      <trkpt lat="36.26165" lon="33.73528">
        <ele>423.124309</ele>
        <time>2022-02-24T16:55:34.775Z</time>
      </trkpt>
      <trkpt lat="36.2608" lon="33.73535">
        <ele>422.851163</ele>
        <time>2022-02-24T16:55:58.289Z</time>
      </trkpt>
      <trkpt lat="36.26046" lon="33.73544">
        <ele>422.738447</ele>
        <time>2022-02-24T16:56:07.980Z</time>
      </trkpt>
      <trkpt lat="36.26034" lon="33.73542">
        <ele>422.701363</ele>
        <time>2022-02-24T16:56:10.787Z</time>
      </trkpt>
      <trkpt lat="36.25999" lon="33.73519">
        <ele>422.388032</ele>
        <time>2022-02-24T16:56:21.015Z</time>
      </trkpt>
      <trkpt lat="36.25927" lon="33.73485">
        <ele>421.11067</ele>
        <time>2022-02-24T16:56:39.268Z</time>
      </trkpt>
      <trkpt lat="36.25914" lon="33.73484">
        <ele>420.891837</ele>
        <time>2022-02-24T16:56:42.435Z</time>
      </trkpt>
      <trkpt lat="36.25913" lon="33.73479">
        <ele>420.829974</ele>
        <time>2022-02-24T16:56:43.066Z</time>
      </trkpt>
      <trkpt lat="36.25898" lon="33.73448">
        <ele>420.349475</ele>
        <time>2022-02-24T16:56:49.520Z</time>
      </trkpt>
      <trkpt lat="36.25895" lon="33.73427">
        <ele>420.065961</ele>
        <time>2022-02-24T16:56:52.876Z</time>
      </trkpt>
      <trkpt lat="36.25898" lon="33.73411">
        <ele>419.841935</ele>
        <time>2022-02-24T16:56:55.811Z</time>
      </trkpt>
      <trkpt lat="36.25908" lon="33.73398">
        <ele>419.596616</ele>
        <time>2022-02-24T16:56:58.555Z</time>
      </trkpt>
      <trkpt lat="36.25952" lon="33.73386">
        <ele>418.640743</ele>
        <time>2022-02-24T16:57:07.799Z</time>
      </trkpt>
      <trkpt lat="36.25961" lon="33.73378">
        <ele>418.418089</ele>
        <time>2022-02-24T16:57:10.024Z</time>
      </trkpt>
      <trkpt lat="36.25969" lon="33.73359">
        <ele>418.051995</ele>
        <time>2022-02-24T16:57:13.363Z</time>
      </trkpt>
      <trkpt lat="36.25979" lon="33.73302">
        <ele>417.066277</ele>
        <time>2022-02-24T16:57:23.181Z</time>
      </trkpt>
      <trkpt lat="36.25952" lon="33.73222">
        <ele>415.857056</ele>
        <time>2022-02-24T16:57:38.409Z</time>
      </trkpt>
      <trkpt lat="36.25945" lon="33.73179">
        <ele>415.830172</ele>
        <time>2022-02-24T16:57:46.753Z</time>
      </trkpt>
      <trkpt lat="36.25951" lon="33.73118">
        <ele>415.79319</ele>
        <time>2022-02-24T16:57:59.410Z</time>
      </trkpt>
      <trkpt lat="36.25985" lon="33.73006">
        <ele>416.343792</ele>
        <time>2022-02-24T16:58:27.331Z</time>
      </trkpt>
      <trkpt lat="36.26008" lon="33.72952">
        <ele>418.423357</ele>
        <time>2022-02-24T16:58:45.627Z</time>
      </trkpt>
      <trkpt lat="36.26006" lon="33.72932">
        <ele>419.101085</ele>
        <time>2022-02-24T16:58:51.326Z</time>
      </trkpt>
      <trkpt lat="36.2599" lon="33.72921">
        <ele>419.864858</ele>
        <time>2022-02-24T16:58:59.261Z</time>
      </trkpt>
      <trkpt lat="36.25874" lon="33.72847">
        <ele>427.002567</ele>
        <time>2022-02-24T17:00:18.026Z</time>
      </trkpt>
      <trkpt lat="36.25844" lon="33.72835">
        <ele>429.426233</ele>
        <time>2022-02-24T17:00:38.116Z</time>
      </trkpt>
      <trkpt lat="36.25834" lon="33.72836">
        <ele>430.19296</ele>
        <time>2022-02-24T17:00:48.023Z</time>
      </trkpt>
      <trkpt lat="36.25827" lon="33.72777">
        <ele>433.828129</ele>
        <time>2022-02-24T17:01:17.849Z</time>
      </trkpt>
      <trkpt lat="36.25825" lon="33.72694">
        <ele>437.998616</ele>
        <time>2022-02-24T17:01:59.107Z</time>
      </trkpt>
      <trkpt lat="36.25819" lon="33.72653">
        <ele>439.35636</ele>
        <time>2022-02-24T17:02:19.063Z</time>
      </trkpt>
      <trkpt lat="36.25873" lon="33.72543">
        <ele>443.498612</ele>
        <time>2022-02-24T17:02:59.831Z</time>
      </trkpt>
      <trkpt lat="36.25923" lon="33.7246">
        <ele>444.637442</ele>
        <time>2022-02-24T17:03:29.789Z</time>
      </trkpt>
      <trkpt lat="36.25936" lon="33.72368">
        <ele>445.110589</ele>
        <time>2022-02-24T17:03:52.230Z</time>
      </trkpt>
      <trkpt lat="36.25944" lon="33.72336">
        <ele>445.279129</ele>
        <time>2022-02-24T17:03:59.234Z</time>
      </trkpt>
      <trkpt lat="36.26046" lon="33.72073">
        <ele>440.91533</ele>
        <time>2022-02-24T17:04:48.046Z</time>
      </trkpt>
      <trkpt lat="36.26074" lon="33.71983">
        <ele>439.412171</ele>
        <time>2022-02-24T17:05:04.126Z</time>
      </trkpt>
      <trkpt lat="36.26108" lon="33.71913">
        <ele>438.291635</ele>
        <time>2022-02-24T17:05:18.681Z</time>
      </trkpt>
      <trkpt lat="36.26133" lon="33.71889">
        <ele>438.255801</ele>
        <time>2022-02-24T17:05:26.135Z</time>
      </trkpt>
      <trkpt lat="36.2615" lon="33.71881">
        <ele>438.235189</ele>
        <time>2022-02-24T17:05:30.628Z</time>
      </trkpt>
      <trkpt lat="36.26085" lon="33.71862">
        <ele>438.159884</ele>
        <time>2022-02-24T17:05:48.603Z</time>
      </trkpt>
      <trkpt lat="36.26009" lon="33.71835">
        <ele>438.122993</ele>
        <time>2022-02-24T17:06:12.186Z</time>
      </trkpt>
      <trkpt lat="36.25934" lon="33.71802">
        <ele>438.218847</ele>
        <time>2022-02-24T17:06:35.018Z</time>
      </trkpt>
      <trkpt lat="36.25841" lon="33.71751">
        <ele>438.123226</ele>
        <time>2022-02-24T17:07:01.018Z</time>
      </trkpt>
      <trkpt lat="36.25806" lon="33.71724">
        <ele>437.799897</ele>
        <time>2022-02-24T17:07:10.806Z</time>
      </trkpt>
      <trkpt lat="36.25777" lon="33.71686">
        <ele>437.468187</ele>
        <time>2022-02-24T17:07:20.497Z</time>
      </trkpt>
      <trkpt lat="36.25794" lon="33.71495">
        <ele>436.620873</ele>
        <time>2022-02-24T17:07:56.664Z</time>
      </trkpt>
      <trkpt lat="36.25789" lon="33.71477">
        <ele>436.571369</ele>
        <time>2022-02-24T17:08:00.279Z</time>
      </trkpt>
      <trkpt lat="36.25745" lon="33.71412">
        <ele>436.339229</ele>
        <time>2022-02-24T17:08:18.503Z</time>
      </trkpt>
      <trkpt lat="36.25669" lon="33.71326">
        <ele>437.276033</ele>
        <time>2022-02-24T17:08:50.539Z</time>
      </trkpt>
      <trkpt lat="36.25605" lon="33.71278">
        <ele>438.108378</ele>
        <time>2022-02-24T17:09:15.838Z</time>
      </trkpt>
      <trkpt lat="36.25579" lon="33.71241">
        <ele>438.576156</ele>
        <time>2022-02-24T17:09:28.999Z</time>
      </trkpt>
      <trkpt lat="36.25555" lon="33.71194">
        <ele>439.136179</ele>
        <time>2022-02-24T17:09:43.889Z</time>
      </trkpt>
      <trkpt lat="36.25543" lon="33.71154">
        <ele>439.572381</ele>
        <time>2022-02-24T17:09:55.344Z</time>
      </trkpt>
      <trkpt lat="36.25513" lon="33.70976">
        <ele>441.1521</ele>
        <time>2022-02-24T17:10:42.181Z</time>
      </trkpt>
      <trkpt lat="36.25511" lon="33.70934">
        <ele>441.451319</ele>
        <time>2022-02-24T17:10:52.978Z</time>
      </trkpt>
      <trkpt lat="36.25524" lon="33.70806">
        <ele>441.884062</ele>
        <time>2022-02-24T17:11:24.543Z</time>
      </trkpt>
      <trkpt lat="36.25522" lon="33.70721">
        <ele>441.295816</ele>
        <time>2022-02-24T17:11:42.222Z</time>
      </trkpt>
      <trkpt lat="36.25509" lon="33.70694">
        <ele>441.076847</ele>
        <time>2022-02-24T17:11:48.264Z</time>
      </trkpt>
      <trkpt lat="36.25418" lon="33.70559">
        <ele>437.951814</ele>
        <time>2022-02-24T17:12:17.188Z</time>
      </trkpt>
      <trkpt lat="36.25407" lon="33.70524">
        <ele>437.029247</ele>
        <time>2022-02-24T17:12:22.791Z</time>
      </trkpt>
      <trkpt lat="36.25375" lon="33.70459">
        <ele>435.0901</ele>
        <time>2022-02-24T17:12:34.647Z</time>
      </trkpt>
      <trkpt lat="36.25384" lon="33.70354">
        <ele>432.708048</ele>
        <time>2022-02-24T17:12:50.882Z</time>
      </trkpt>
      <trkpt lat="36.25366" lon="33.70322">
        <ele>431.825971</ele>
        <time>2022-02-24T17:12:57.226Z</time>
      </trkpt>
      <trkpt lat="36.25365" lon="33.703">
        <ele>431.33723</ele>
        <time>2022-02-24T17:13:00.800Z</time>
      </trkpt>
      <trkpt lat="36.25345" lon="33.70255">
        <ele>430.176747</ele>
        <time>2022-02-24T17:13:09.734Z</time>
      </trkpt>
      <trkpt lat="36.25293" lon="33.70202">
        <ele>428.896742</ele>
        <time>2022-02-24T17:13:24.522Z</time>
      </trkpt>
      <trkpt lat="36.25289" lon="33.70173">
        <ele>428.475044</ele>
        <time>2022-02-24T17:13:29.755Z</time>
      </trkpt>
      <trkpt lat="36.25291" lon="33.70114">
        <ele>427.636727</ele>
        <time>2022-02-24T17:13:39.793Z</time>
      </trkpt>
      <trkpt lat="36.25282" lon="33.70084">
        <ele>427.179585</ele>
        <time>2022-02-24T17:13:45.482Z</time>
      </trkpt>
      <trkpt lat="36.25236" lon="33.69984">
        <ele>424.671653</ele>
        <time>2022-02-24T17:14:05.047Z</time>
      </trkpt>
      <trkpt lat="36.25219" lon="33.69921">
        <ele>423.065928</ele>
        <time>2022-02-24T17:14:15.523Z</time>
      </trkpt>
      <trkpt lat="36.25219" lon="33.69879">
        <ele>422.026275</ele>
        <time>2022-02-24T17:14:22.029Z</time>
      </trkpt>
      <trkpt lat="36.25227" lon="33.69823">
        <ele>420.027315</ele>
        <time>2022-02-24T17:14:30.486Z</time>
      </trkpt>
      <trkpt lat="36.25216" lon="33.69808">
        <ele>419.074848</ele>
        <time>2022-02-24T17:14:33.493Z</time>
      </trkpt>
      <trkpt lat="36.25172" lon="33.69786">
        <ele>416.241418</ele>
        <time>2022-02-24T17:14:42.257Z</time>
      </trkpt>
      <trkpt lat="36.25136" lon="33.69746">
        <ele>413.385244</ele>
        <time>2022-02-24T17:14:50.753Z</time>
      </trkpt>
      <trkpt lat="36.25089" lon="33.69718">
        <ele>409.97491</ele>
        <time>2022-02-24T17:14:59.672Z</time>
      </trkpt>
      <trkpt lat="36.25046" lon="33.69677">
        <ele>404.361371</ele>
        <time>2022-02-24T17:15:08.612Z</time>
      </trkpt>
      <trkpt lat="36.25006" lon="33.69622">
        <ele>398.161341</ele>
        <time>2022-02-24T17:15:18.262Z</time>
      </trkpt>
      <trkpt lat="36.2497" lon="33.69516">
        <ele>387.995567</ele>
        <time>2022-02-24T17:15:32.913Z</time>
      </trkpt>
      <trkpt lat="36.24955" lon="33.69492">
        <ele>384.902926</ele>
        <time>2022-02-24T17:15:36.923Z</time>
      </trkpt>
      <trkpt lat="36.24917" lon="33.69474">
        <ele>380.002453</ele>
        <time>2022-02-24T17:15:43.266Z</time>
      </trkpt>
      <trkpt lat="36.2487" lon="33.69411">
        <ele>371.496583</ele>
        <time>2022-02-24T17:15:54.293Z</time>
      </trkpt>
      <trkpt lat="36.2485" lon="33.69392">
        <ele>368.563941</ele>
        <time>2022-02-24T17:15:58.343Z</time>
      </trkpt>
      <trkpt lat="36.24831" lon="33.69384">
        <ele>366.365142</ele>
        <time>2022-02-24T17:16:01.574Z</time>
      </trkpt>
      <trkpt lat="36.24807" lon="33.69388">
        <ele>363.734674</ele>
        <time>2022-02-24T17:16:05.474Z</time>
      </trkpt>
      <trkpt lat="36.24783" lon="33.694">
        <ele>360.874582</ele>
        <time>2022-02-24T17:16:09.723Z</time>
      </trkpt>
      <trkpt lat="36.2475" lon="33.69405">
        <ele>357.251536</ele>
        <time>2022-02-24T17:16:15.106Z</time>
      </trkpt>
      <trkpt lat="36.24719" lon="33.69402">
        <ele>353.821079</ele>
        <time>2022-02-24T17:16:20.205Z</time>
      </trkpt>
      <trkpt lat="36.24651" lon="33.69376">
        <ele>345.952696</ele>
        <time>2022-02-24T17:16:31.610Z</time>
      </trkpt>
      <trkpt lat="36.24572" lon="33.69392">
        <ele>336.858526</ele>
        <time>2022-02-24T17:16:44.571Z</time>
      </trkpt>
      <trkpt lat="36.24544" lon="33.69388">
        <ele>333.595841</ele>
        <time>2022-02-24T17:16:49.183Z</time>
      </trkpt>
      <trkpt lat="36.24478" lon="33.69336">
        <ele>323.678461</ele>
        <time>2022-02-24T17:17:01.539Z</time>
      </trkpt>
      <trkpt lat="36.24454" lon="33.69307">
        <ele>319.106984</ele>
        <time>2022-02-24T17:17:06.789Z</time>
      </trkpt>
      <trkpt lat="36.2443" lon="33.69265">
        <ele>313.428941</ele>
        <time>2022-02-24T17:17:13.298Z</time>
      </trkpt>
      <trkpt lat="36.24378" lon="33.69206">
        <ele>303.568131</ele>
        <time>2022-02-24T17:17:24.411Z</time>
      </trkpt>
      <trkpt lat="36.24322" lon="33.6916">
        <ele>293.589723</ele>
        <time>2022-02-24T17:17:34.834Z</time>
      </trkpt>
      <trkpt lat="36.24307" lon="33.69155">
        <ele>291.209963</ele>
        <time>2022-02-24T17:17:37.319Z</time>
      </trkpt>
      <trkpt lat="36.24259" lon="33.69169">
        <ele>283.90686</ele>
        <time>2022-02-24T17:17:44.950Z</time>
      </trkpt>
      <trkpt lat="36.24238" lon="33.69165">
        <ele>280.709554</ele>
        <time>2022-02-24T17:17:48.286Z</time>
      </trkpt>
      <trkpt lat="36.2422" lon="33.6917">
        <ele>278.034356</ele>
        <time>2022-02-24T17:17:51.098Z</time>
      </trkpt>
      <trkpt lat="36.24196" lon="33.69184">
        <ele>274.316019</ele>
        <time>2022-02-24T17:17:55.204Z</time>
      </trkpt>
      <trkpt lat="36.24108" lon="33.69255">
        <ele>259.398101</ele>
        <time>2022-02-24T17:18:11.702Z</time>
      </trkpt>
      <trkpt lat="36.2408" lon="33.69265">
        <ele>255.231105</ele>
        <time>2022-02-24T17:18:16.313Z</time>
      </trkpt>
      <trkpt lat="36.24054" lon="33.69285">
        <ele>251.515882</ele>
        <time>2022-02-24T17:18:21.052Z</time>
      </trkpt>
      <trkpt lat="36.24043" lon="33.69304">
        <ele>249.507126</ele>
        <time>2022-02-24T17:18:24.070Z</time>
      </trkpt>
      <trkpt lat="36.24042" lon="33.69326">
        <ele>247.660468</ele>
        <time>2022-02-24T17:18:26.864Z</time>
      </trkpt>
      <trkpt lat="36.24089" lon="33.69414">
        <ele>238.692639</ele>
        <time>2022-02-24T17:18:40.667Z</time>
      </trkpt>
      <trkpt lat="36.24032" lon="33.69571">
        <ele>226.507586</ele>
        <time>2022-02-24T17:19:04.029Z</time>
      </trkpt>
      <trkpt lat="36.24037" lon="33.69656">
        <ele>221.065165</ele>
        <time>2022-02-24T17:19:15.759Z</time>
      </trkpt>
      <trkpt lat="36.24033" lon="33.69681">
        <ele>219.399619</ele>
        <time>2022-02-24T17:19:19.220Z</time>
      </trkpt>
      <trkpt lat="36.24021" lon="33.69719">
        <ele>216.44668</ele>
        <time>2022-02-24T17:19:24.788Z</time>
      </trkpt>
      <trkpt lat="36.23891" lon="33.69978">
        <ele>193.829534</ele>
        <time>2022-02-24T17:20:05.290Z</time>
      </trkpt>
      <trkpt lat="36.23883" lon="33.7001">
        <ele>191.262388</ele>
        <time>2022-02-24T17:20:09.711Z</time>
      </trkpt>
      <trkpt lat="36.23878" lon="33.70068">
        <ele>186.733563</ele>
        <time>2022-02-24T17:20:17.432Z</time>
      </trkpt>
      <trkpt lat="36.23884" lon="33.70089">
        <ele>185.083701</ele>
        <time>2022-02-24T17:20:20.334Z</time>
      </trkpt>
      <trkpt lat="36.23903" lon="33.70122">
        <ele>182.076692</ele>
        <time>2022-02-24T17:20:25.683Z</time>
      </trkpt>
      <trkpt lat="36.23915" lon="33.70162">
        <ele>178.859356</ele>
        <time>2022-02-24T17:20:31.426Z</time>
      </trkpt>
      <trkpt lat="36.23922" lon="33.70181">
        <ele>177.321931</ele>
        <time>2022-02-24T17:20:34.225Z</time>
      </trkpt>
      <trkpt lat="36.23907" lon="33.70182">
        <ele>175.881932</ele>
        <time>2022-02-24T17:20:36.766Z</time>
      </trkpt>
      <trkpt lat="36.23893" lon="33.70178">
        <ele>174.593102</ele>
        <time>2022-02-24T17:20:39.118Z</time>
      </trkpt>
      <trkpt lat="36.23881" lon="33.70164">
        <ele>173.056662</ele>
        <time>2022-02-24T17:20:41.872Z</time>
      </trkpt>
      <trkpt lat="36.2385" lon="33.7011">
        <ele>168.330199</ele>
        <time>2022-02-24T17:20:50.825Z</time>
      </trkpt>
      <trkpt lat="36.23836" lon="33.70042">
        <ele>163.758526</ele>
        <time>2022-02-24T17:21:00.147Z</time>
      </trkpt>
      <trkpt lat="36.23784" lon="33.69923">
        <ele>154.897695</ele>
        <time>2022-02-24T17:21:18.640Z</time>
      </trkpt>
      <trkpt lat="36.23782" lon="33.69905">
        <ele>153.777648</ele>
        <time>2022-02-24T17:21:21.056Z</time>
      </trkpt>
      <trkpt lat="36.23804" lon="33.69825">
        <ele>148.384778</ele>
        <time>2022-02-24T17:21:32.753Z</time>
      </trkpt>
      <trkpt lat="36.23802" lon="33.69754">
        <ele>143.879227</ele>
        <time>2022-02-24T17:21:42.341Z</time>
      </trkpt>
      <trkpt lat="36.23814" lon="33.69724">
        <ele>141.723288</ele>
        <time>2022-02-24T17:21:46.852Z</time>
      </trkpt>
      <trkpt lat="36.23821" lon="33.69674">
        <ele>138.236052</ele>
        <time>2022-02-24T17:21:53.626Z</time>
      </trkpt>
      <trkpt lat="36.23822" lon="33.69658">
        <ele>137.048699</ele>
        <time>2022-02-24T17:21:55.869Z</time>
      </trkpt>
      <trkpt lat="36.23814" lon="33.69621">
        <ele>134.357719</ele>
        <time>2022-02-24T17:22:01.069Z</time>
      </trkpt>
      <trkpt lat="36.2381" lon="33.69613">
        <ele>133.721459</ele>
        <time>2022-02-24T17:22:02.225Z</time>
      </trkpt>
      <trkpt lat="36.23806" lon="33.69585">
        <ele>131.69904</ele>
        <time>2022-02-24T17:22:06.136Z</time>
      </trkpt>
      <trkpt lat="36.23806" lon="33.69451">
        <ele>122.454952</ele>
        <time>2022-02-24T17:22:23.953Z</time>
      </trkpt>
      <trkpt lat="36.23779" lon="33.69393">
        <ele>117.928942</ele>
        <time>2022-02-24T17:22:33.011Z</time>
      </trkpt>
      <trkpt lat="36.23709" lon="33.69334">
        <ele>110.959941</ele>
        <time>2022-02-24T17:22:47.261Z</time>
      </trkpt>
      <trkpt lat="36.23692" lon="33.69311">
        <ele>109.249033</ele>
        <time>2022-02-24T17:22:51.565Z</time>
      </trkpt>
      <trkpt lat="36.23661" lon="33.69244">
        <ele>105.296686</ele>
        <time>2022-02-24T17:23:02.199Z</time>
      </trkpt>
      <trkpt lat="36.23642" lon="33.69181">
        <ele>101.814119</ele>
        <time>2022-02-24T17:23:11.762Z</time>
      </trkpt>
      <trkpt lat="36.23629" lon="33.69085">
        <ele>97.555459</ele>
        <time>2022-02-24T17:23:25.836Z</time>
      </trkpt>
      <trkpt lat="36.236" lon="33.69033">
        <ele>95.338167</ele>
        <time>2022-02-24T17:23:35.378Z</time>
      </trkpt>
      <trkpt lat="36.23541" lon="33.68851">
        <ele>89.387513</ele>
        <time>2022-02-24T17:24:05.459Z</time>
      </trkpt>
      <trkpt lat="36.23533" lon="33.68808">
        <ele>88.324019</ele>
        <time>2022-02-24T17:24:12.376Z</time>
      </trkpt>
      <trkpt lat="36.23515" lon="33.68802">
        <ele>87.766549</ele>
        <time>2022-02-24T17:24:16.232Z</time>
      </trkpt>
      <trkpt lat="36.23475" lon="33.68827">
        <ele>86.40793</ele>
        <time>2022-02-24T17:24:25.629Z</time>
      </trkpt>
      <trkpt lat="36.2347" lon="33.68828">
        <ele>86.269454</ele>
        <time>2022-02-24T17:24:26.429Z</time>
      </trkpt>
      <trkpt lat="36.23463" lon="33.68805">
        <ele>85.736716</ele>
        <time>2022-02-24T17:24:30.593Z</time>
      </trkpt>
      <trkpt lat="36.23458" lon="33.68784">
        <ele>85.342645</ele>
        <time>2022-02-24T17:24:34.148Z</time>
      </trkpt>
      <trkpt lat="36.23448" lon="33.68742">
        <ele>84.544509</ele>
        <time>2022-02-24T17:24:41.531Z</time>
      </trkpt>
      <trkpt lat="36.23415" lon="33.6866">
        <ele>82.886864</ele>
        <time>2022-02-24T17:24:56.821Z</time>
      </trkpt>
      <trkpt lat="36.23411" lon="33.68641">
        <ele>82.529467</ele>
        <time>2022-02-24T17:25:00.089Z</time>
      </trkpt>
      <trkpt lat="36.23376" lon="33.68644">
        <ele>81.70822</ele>
        <time>2022-02-24T17:25:07.616Z</time>
      </trkpt>
      <trkpt lat="36.23339" lon="33.68608">
        <ele>80.406433</ele>
        <time>2022-02-24T17:25:17.373Z</time>
      </trkpt>
      <trkpt lat="36.23325" lon="33.68602">
        <ele>79.9918</ele>
        <time>2022-02-24T17:25:20.413Z</time>
      </trkpt>
      <trkpt lat="36.23202" lon="33.68583">
        <ele>76.486604</ele>
        <time>2022-02-24T17:25:44.669Z</time>
      </trkpt>
      <trkpt lat="36.2319" lon="33.68577">
        <ele>76.051139</ele>
        <time>2022-02-24T17:25:47.303Z</time>
      </trkpt>
      <trkpt lat="36.23141" lon="33.68535">
        <ele>74.142377</ele>
        <time>2022-02-24T17:25:58.865Z</time>
      </trkpt>
      <trkpt lat="36.23131" lon="33.68518">
        <ele>73.618067</ele>
        <time>2022-02-24T17:26:02.064Z</time>
      </trkpt>
      <trkpt lat="36.23123" lon="33.68499">
        <ele>73.05625</ele>
        <time>2022-02-24T17:26:05.486Z</time>
      </trkpt>
      <trkpt lat="36.23123" lon="33.68442">
        <ele>71.591351</ele>
        <time>2022-02-24T17:26:14.474Z</time>
      </trkpt>
      <trkpt lat="36.23093" lon="33.68387">
        <ele>70.185059</ele>
        <time>2022-02-24T17:26:25.077Z</time>
      </trkpt>
      <trkpt lat="36.22963" lon="33.68355">
        <ele>67.012967</ele>
        <time>2022-02-24T17:26:52.208Z</time>
      </trkpt>
      <trkpt lat="36.22945" lon="33.68339">
        <ele>66.692755</ele>
        <time>2022-02-24T17:26:57.128Z</time>
      </trkpt>
      <trkpt lat="36.22919" lon="33.68208">
        <ele>65.871087</ele>
        <time>2022-02-24T17:27:22.408Z</time>
      </trkpt>
      <trkpt lat="36.2291" lon="33.68187">
        <ele>65.725178</ele>
        <time>2022-02-24T17:27:27.362Z</time>
      </trkpt>
      <trkpt lat="36.22871" lon="33.68142">
        <ele>65.504662</ele>
        <time>2022-02-24T17:27:41.901Z</time>
      </trkpt>
      <trkpt lat="36.2285" lon="33.68093">
        <ele>65.726107</ele>
        <time>2022-02-24T17:27:54.684Z</time>
      </trkpt>
      <trkpt lat="36.22799" lon="33.67994">
        <ele>66.194339</ele>
        <time>2022-02-24T17:28:23.010Z</time>
      </trkpt>
      <trkpt lat="36.22711" lon="33.67917">
        <ele>66.588949</ele>
        <time>2022-02-24T17:28:54.858Z</time>
      </trkpt>
      <trkpt lat="36.22676" lon="33.67819">
        <ele>66.8709</ele>
        <time>2022-02-24T17:29:18.870Z</time>
      </trkpt>
      <trkpt lat="36.22613" lon="33.67709">
        <ele>66.666501</ele>
        <time>2022-02-24T17:29:46.892Z</time>
      </trkpt>
      <trkpt lat="36.22593" lon="33.67665">
        <ele>66.564257</ele>
        <time>2022-02-24T17:29:57.092Z</time>
      </trkpt>
      <trkpt lat="36.22558" lon="33.67619">
        <ele>66.499656</ele>
        <time>2022-02-24T17:30:09.696Z</time>
      </trkpt>
      <trkpt lat="36.22534" lon="33.67597">
        <ele>66.616099</ele>
        <time>2022-02-24T17:30:17.198Z</time>
      </trkpt>
      <trkpt lat="36.22509" lon="33.67582">
        <ele>66.727115</ele>
        <time>2022-02-24T17:30:24.526Z</time>
      </trkpt>
      <trkpt lat="36.22463" lon="33.67542">
        <ele>66.951368</ele>
        <time>2022-02-24T17:30:40.409Z</time>
      </trkpt>
      <trkpt lat="36.22378" lon="33.67488">
        <ele>68.076816</ele>
        <time>2022-02-24T17:31:10.966Z</time>
      </trkpt>
      <trkpt lat="36.22287" lon="33.67405">
        <ele>70.710999</ele>
        <time>2022-02-24T17:31:54.639Z</time>
      </trkpt>
      <trkpt lat="36.22273" lon="33.67391">
        <ele>71.142508</ele>
        <time>2022-02-24T17:32:02.363Z</time>
      </trkpt>
      <trkpt lat="36.22209" lon="33.67295">
        <ele>74.424252</ele>
        <time>2022-02-24T17:32:45.697Z</time>
      </trkpt>
      <trkpt lat="36.22186" lon="33.67153">
        <ele>78.234241</ele>
        <time>2022-02-24T17:33:36.800Z</time>
      </trkpt>
      <trkpt lat="36.22176" lon="33.6714">
        <ele>78.633522</ele>
        <time>2022-02-24T17:33:42.901Z</time>
      </trkpt>
      <trkpt lat="36.22142" lon="33.67123">
        <ele>79.622012</ele>
        <time>2022-02-24T17:33:57.823Z</time>
      </trkpt>
      <trkpt lat="36.22134" lon="33.67112">
        <ele>79.951035</ele>
        <time>2022-02-24T17:34:02.664Z</time>
      </trkpt>
      <trkpt lat="36.22114" lon="33.67052">
        <ele>81.381972</ele>
        <time>2022-02-24T17:34:23.116Z</time>
      </trkpt>
      <trkpt lat="36.22082" lon="33.67003">
        <ele>82.51087</ele>
        <time>2022-02-24T17:34:41.892Z</time>
      </trkpt>
      <trkpt lat="36.2206" lon="33.66956">
        <ele>82.855445</ele>
        <time>2022-02-24T17:34:57.143Z</time>
      </trkpt>
      <trkpt lat="36.22031" lon="33.66857">
        <ele>83.529799</ele>
        <time>2022-02-24T17:35:24.305Z</time>
      </trkpt>
      <trkpt lat="36.22016" lon="33.667">
        <ele>81.496936</ele>
        <time>2022-02-24T17:35:52.843Z</time>
      </trkpt>
      <trkpt lat="36.22015" lon="33.66691">
        <ele>81.311976</ele>
        <time>2022-02-24T17:35:54.155Z</time>
      </trkpt>
      <trkpt lat="36.22015" lon="33.66682">
        <ele>81.122716</ele>
        <time>2022-02-24T17:35:55.569Z</time>
      </trkpt>
      <trkpt lat="36.22011" lon="33.66659">
        <ele>80.629905</ele>
        <time>2022-02-24T17:35:59.579Z</time>
      </trkpt>
      <trkpt lat="36.21996" lon="33.66664">
        <ele>80.227912</ele>
        <time>2022-02-24T17:36:02.424Z</time>
      </trkpt>
      <trkpt lat="36.21951" lon="33.66678">
        <ele>78.854166</ele>
        <time>2022-02-24T17:36:11.211Z</time>
      </trkpt>
      <trkpt lat="36.21912" lon="33.66669">
        <ele>76.759808</ele>
        <time>2022-02-24T17:36:18.274Z</time>
      </trkpt>
      <trkpt lat="36.21834" lon="33.66694">
        <ele>72.394681</ele>
        <time>2022-02-24T17:36:32.551Z</time>
      </trkpt>
      <trkpt lat="36.21787" lon="33.66696">
        <ele>69.85813</ele>
        <time>2022-02-24T17:36:40.885Z</time>
      </trkpt>
      <trkpt lat="36.21747" lon="33.66704">
        <ele>67.540289</ele>
        <time>2022-02-24T17:36:48.166Z</time>
      </trkpt>
      <trkpt lat="36.21664" lon="33.66686">
        <ele>62.747238</ele>
        <time>2022-02-24T17:37:03.091Z</time>
      </trkpt>
      <trkpt lat="36.21609" lon="33.66689">
        <ele>59.63061</ele>
        <time>2022-02-24T17:37:12.870Z</time>
      </trkpt>
      <trkpt lat="36.21591" lon="33.66686">
        <ele>58.726773</ele>
        <time>2022-02-24T17:37:16.026Z</time>
      </trkpt>
      <trkpt lat="36.21559" lon="33.66662">
        <ele>56.899781</ele>
        <time>2022-02-24T17:37:22.827Z</time>
      </trkpt>
      <trkpt lat="36.21482" lon="33.66625">
        <ele>52.906879</ele>
        <time>2022-02-24T17:37:37.833Z</time>
      </trkpt>
      <trkpt lat="36.21453" lon="33.66621">
        <ele>51.491297</ele>
        <time>2022-02-24T17:37:43.173Z</time>
      </trkpt>
      <trkpt lat="36.21395" lon="33.66628">
        <ele>49.433935</ele>
        <time>2022-02-24T17:37:53.991Z</time>
      </trkpt>
      <trkpt lat="36.2131" lon="33.66626">
        <ele>46.932383</ele>
        <time>2022-02-24T17:38:10.694Z</time>
      </trkpt>
      <trkpt lat="36.21307" lon="33.66619">
        <ele>46.77094</ele>
        <time>2022-02-24T17:38:11.842Z</time>
      </trkpt>
      <trkpt lat="36.21266" lon="33.66498">
        <ele>45.930594</ele>
        <time>2022-02-24T17:38:35.469Z</time>
      </trkpt>
      <trkpt lat="36.21024" lon="33.65762">
        <ele>52.494062</ele>
        <time>2022-02-24T17:42:09.802Z</time>
      </trkpt>
      <trkpt lat="36.20814" lon="33.65165">
        <ele>45.019607</ele>
        <time>2022-02-24T17:44:04.715Z</time>
      </trkpt>
      <trkpt lat="36.2072" lon="33.6494">
        <ele>42.135295</ele>
        <time>2022-02-24T17:44:48.561Z</time>
      </trkpt>
      <trkpt lat="36.20657" lon="33.64776">
        <ele>43.58763</ele>
        <time>2022-02-24T17:45:34.376Z</time>
      </trkpt>
      <trkpt lat="36.20624" lon="33.64698">
        <ele>44.903991</ele>
        <time>2022-02-24T17:46:02.299Z</time>
      </trkpt>
      <trkpt lat="36.20562" lon="33.64584">
        <ele>48.193735</ele>
        <time>2022-02-24T17:46:47.194Z</time>
      </trkpt>
      <trkpt lat="36.20452" lon="33.64396">
        <ele>54.926593</ele>
        <time>2022-02-24T17:48:09.205Z</time>
      </trkpt>
      <trkpt lat="36.20376" lon="33.64246">
        <ele>60.481992</ele>
        <time>2022-02-24T17:49:18.046Z</time>
      </trkpt>
      <trkpt lat="36.20257" lon="33.64027">
        <ele>66.789406</ele>
        <time>2022-02-24T17:50:48.512Z</time>
      </trkpt>
      <trkpt lat="36.20222" lon="33.6397">
        <ele>67.753676</ele>
        <time>2022-02-24T17:51:04.387Z</time>
      </trkpt>
      <trkpt lat="36.20196" lon="33.63929">
        <ele>67.819664</ele>
        <time>2022-02-24T17:51:15.734Z</time>
      </trkpt>
      <trkpt lat="36.20184" lon="33.63906">
        <ele>67.854391</ele>
        <time>2022-02-24T17:51:21.757Z</time>
      </trkpt>
      <trkpt lat="36.20158" lon="33.63858">
        <ele>67.927705</ele>
        <time>2022-02-24T17:51:33.662Z</time>
      </trkpt>
      <trkpt lat="36.20094" lon="33.63744">
        <ele>68.747121</ele>
        <time>2022-02-24T17:52:03.896Z</time>
      </trkpt>
      <trkpt lat="36.1992" lon="33.63399">
        <ele>73.763693</ele>
        <time>2022-02-24T17:53:59.944Z</time>
      </trkpt>
      <trkpt lat="36.19861" lon="33.63254">
        <ele>75.466498</ele>
        <time>2022-02-24T17:54:42.122Z</time>
      </trkpt>
      <trkpt lat="36.19776" lon="33.6303">
        <ele>77.876154</ele>
        <time>2022-02-24T17:55:48.590Z</time>
      </trkpt>
      <trkpt lat="36.19669" lon="33.62667">
        <ele>75.352468</ele>
        <time>2022-02-24T17:57:11.844Z</time>
      </trkpt>
      <trkpt lat="36.19607" lon="33.62417">
        <ele>64.069195</ele>
        <time>2022-02-24T17:57:47.827Z</time>
      </trkpt>
      <trkpt lat="36.1954" lon="33.62176">
        <ele>60.375101</ele>
        <time>2022-02-24T17:58:32.260Z</time>
      </trkpt>
      <trkpt lat="36.19461" lon="33.61923">
        <ele>64.316336</ele>
        <time>2022-02-24T18:00:08.236Z</time>
      </trkpt>
      <trkpt lat="36.19425" lon="33.61834">
        <ele>63.575261</ele>
        <time>2022-02-24T18:00:25.343Z</time>
      </trkpt>
      <trkpt lat="36.19416" lon="33.61807">
        <ele>63.358687</ele>
        <time>2022-02-24T18:00:29.674Z</time>
      </trkpt>
      <trkpt lat="36.19403" lon="33.61775">
        <ele>63.022816</ele>
        <time>2022-02-24T18:00:34.879Z</time>
      </trkpt>
      <trkpt lat="36.19192" lon="33.61346">
        <ele>51.929334</ele>
        <time>2022-02-24T18:01:53.807Z</time>
      </trkpt>
      <trkpt lat="36.1919" lon="33.61311">
        <ele>52.309404</ele>
        <time>2022-02-24T18:02:07.209Z</time>
      </trkpt>
      <trkpt lat="36.19162" lon="33.61246">
        <ele>53.087122</ele>
        <time>2022-02-24T18:02:36.245Z</time>
      </trkpt>
      <trkpt lat="36.19141" lon="33.61244">
        <ele>53.374042</ele>
        <time>2022-02-24T18:02:47.878Z</time>
      </trkpt>
      <trkpt lat="36.1909" lon="33.6115">
        <ele>55.700912</ele>
        <time>2022-02-24T18:03:30.522Z</time>
      </trkpt>
      <trkpt lat="36.18989" lon="33.61003">
        <ele>59.776936</ele>
        <time>2022-02-24T18:04:29.154Z</time>
      </trkpt>
      <trkpt lat="36.18938" lon="33.60943">
        <ele>61.087572</ele>
        <time>2022-02-24T18:04:51.983Z</time>
      </trkpt>
      <trkpt lat="36.18879" lon="33.60885">
        <ele>62.565791</ele>
        <time>2022-02-24T18:05:19.137Z</time>
      </trkpt>
      <trkpt lat="36.18818" lon="33.60804">
        <ele>64.618104</ele>
        <time>2022-02-24T18:05:55.741Z</time>
      </trkpt>
      <trkpt lat="36.18787" lon="33.60748">
        <ele>65.867834</ele>
        <time>2022-02-24T18:06:19.855Z</time>
      </trkpt>
      <trkpt lat="36.18724" lon="33.60598">
        <ele>64.842437</ele>
        <time>2022-02-24T18:06:54.368Z</time>
      </trkpt>
      <trkpt lat="36.18721" lon="33.60594">
        <ele>64.788209</ele>
        <time>2022-02-24T18:06:57.541Z</time>
      </trkpt>
      <trkpt lat="36.18719" lon="33.60592">
        <ele>64.749609</ele>
        <time>2022-02-24T18:06:57.956Z</time>
      </trkpt>
      <trkpt lat="36.18704" lon="33.60588">
        <ele>64.528646</ele>
        <time>2022-02-24T18:07:00.732Z</time>
      </trkpt>
      <trkpt lat="36.18696" lon="33.60596">
        <ele>64.377651</ele>
        <time>2022-02-24T18:07:03.213Z</time>
      </trkpt>
      <trkpt lat="36.18693" lon="33.60609">
        <ele>64.226185</ele>
        <time>2022-02-24T18:07:05.697Z</time>
      </trkpt>
      <trkpt lat="36.18694" lon="33.60615">
        <ele>64.153393</ele>
        <time>2022-02-24T18:07:06.524Z</time>
      </trkpt>
      <trkpt lat="36.18683" lon="33.60624">
        <ele>63.959754</ele>
        <time>2022-02-24T18:07:09.039Z</time>
      </trkpt>
      <trkpt lat="36.18655" lon="33.60624">
        <ele>63.186728</ele>
        <time>2022-02-24T18:07:14.359Z</time>
      </trkpt>
      <trkpt lat="36.18633" lon="33.6061">
        <ele>62.444018</ele>
        <time>2022-02-24T18:07:19.230Z</time>
      </trkpt>
      <trkpt lat="36.18621" lon="33.60593">
        <ele>61.880749</ele>
        <time>2022-02-24T18:07:22.384Z</time>
      </trkpt>
      <trkpt lat="36.18588" lon="33.60487">
        <ele>59.081724</ele>
        <time>2022-02-24T18:07:39.879Z</time>
      </trkpt>
      <trkpt lat="36.18563" lon="33.60438">
        <ele>58.888253</ele>
        <time>2022-02-24T18:07:53.061Z</time>
      </trkpt>
      <trkpt lat="36.18528" lon="33.6039">
        <ele>59.943493</ele>
        <time>2022-02-24T18:08:09.923Z</time>
      </trkpt>
      <trkpt lat="36.18462" lon="33.60321">
        <ele>61.720634</ele>
        <time>2022-02-24T18:08:45.654Z</time>
      </trkpt>
      <trkpt lat="36.18423" lon="33.60268">
        <ele>63.663999</ele>
        <time>2022-02-24T18:09:13.467Z</time>
      </trkpt>
      <trkpt lat="36.18387" lon="33.60208">
        <ele>66.005539</ele>
        <time>2022-02-24T18:09:42.087Z</time>
      </trkpt>
      <trkpt lat="36.18353" lon="33.60131">
        <ele>68.738876</ele>
        <time>2022-02-24T18:10:14.732Z</time>
      </trkpt>
      <trkpt lat="36.18326" lon="33.60046">
        <ele>69.088478</ele>
        <time>2022-02-24T18:10:43.937Z</time>
      </trkpt>
      <trkpt lat="36.18314" lon="33.60021">
        <ele>69.102022</ele>
        <time>2022-02-24T18:10:51.045Z</time>
      </trkpt>
      <trkpt lat="36.1829" lon="33.60004">
        <ele>69.118523</ele>
        <time>2022-02-24T18:10:58.325Z</time>
      </trkpt>
      <trkpt lat="36.18268" lon="33.59996">
        <ele>69.131882</ele>
        <time>2022-02-24T18:11:03.287Z</time>
      </trkpt>
      <trkpt lat="36.18207" lon="33.59994">
        <ele>68.077993</ele>
        <time>2022-02-24T18:11:14.975Z</time>
      </trkpt>
      <trkpt lat="36.18195" lon="33.59981">
        <ele>67.222182</ele>
        <time>2022-02-24T18:11:18.026Z</time>
      </trkpt>
      <trkpt lat="36.18176" lon="33.59939">
        <ele>65.187519</ele>
        <time>2022-02-24T18:11:25.023Z</time>
      </trkpt>
      <trkpt lat="36.18129" lon="33.59892">
        <ele>62.042587</ele>
        <time>2022-02-24T18:11:35.592Z</time>
      </trkpt>
      <trkpt lat="36.18118" lon="33.59874">
        <ele>61.078573</ele>
        <time>2022-02-24T18:11:38.827Z</time>
      </trkpt>
      <trkpt lat="36.18108" lon="33.5984">
        <ele>59.504771</ele>
        <time>2022-02-24T18:11:44.055Z</time>
      </trkpt>
      <trkpt lat="36.18095" lon="33.59821">
        <ele>58.331733</ele>
        <time>2022-02-24T18:11:47.550Z</time>
      </trkpt>
      <trkpt lat="36.18074" lon="33.59807">
        <ele>56.959472</ele>
        <time>2022-02-24T18:11:51.634Z</time>
      </trkpt>
      <trkpt lat="36.17996" lon="33.59708">
        <ele>50.456268</ele>
        <time>2022-02-24T18:12:11.269Z</time>
      </trkpt>
      <trkpt lat="36.17988" lon="33.59684">
        <ele>49.246204</ele>
        <time>2022-02-24T18:12:14.995Z</time>
      </trkpt>
      <trkpt lat="36.17985" lon="33.59626">
        <ele>47.717471</ele>
        <time>2022-02-24T18:12:23.652Z</time>
      </trkpt>
      <trkpt lat="36.1797" lon="33.596">
        <ele>46.878139</ele>
        <time>2022-02-24T18:12:28.467Z</time>
      </trkpt>
      <trkpt lat="36.17945" lon="33.59577">
        <ele>45.873925</ele>
        <time>2022-02-24T18:12:34.254Z</time>
      </trkpt>
      <trkpt lat="36.17902" lon="33.59557">
        <ele>44.393122</ele>
        <time>2022-02-24T18:12:43.236Z</time>
      </trkpt>
      <trkpt lat="36.17863" lon="33.59528">
        <ele>44.053788</ele>
        <time>2022-02-24T18:12:54.220Z</time>
      </trkpt>
      <trkpt lat="36.17809" lon="33.59472">
        <ele>46.803371</ele>
        <time>2022-02-24T18:13:22.310Z</time>
      </trkpt>
      <trkpt lat="36.17775" lon="33.59425">
        <ele>48.804365</ele>
        <time>2022-02-24T18:13:49.977Z</time>
      </trkpt>
      <trkpt lat="36.17732" lon="33.59348">
        <ele>51.798566</ele>
        <time>2022-02-24T18:14:35.799Z</time>
      </trkpt>
      <trkpt lat="36.17729" lon="33.59329">
        <ele>52.429421</ele>
        <time>2022-02-24T18:14:45.009Z</time>
      </trkpt>
      <trkpt lat="36.17732" lon="33.59312">
        <ele>52.98991</ele>
        <time>2022-02-24T18:14:53.496Z</time>
      </trkpt>
      <trkpt lat="36.17746" lon="33.59296">
        <ele>53.765715</ele>
        <time>2022-02-24T18:15:04.728Z</time>
      </trkpt>
      <trkpt lat="36.1775" lon="33.59283">
        <ele>54.209281</ele>
        <time>2022-02-24T18:15:10.450Z</time>
      </trkpt>
      <trkpt lat="36.17747" lon="33.59269">
        <ele>54.699393</ele>
        <time>2022-02-24T18:15:16.240Z</time>
      </trkpt>
      <trkpt lat="36.17731" lon="33.59236">
        <ele>55.958481</ele>
        <time>2022-02-24T18:15:28.641Z</time>
      </trkpt>
      <trkpt lat="36.17719" lon="33.59179">
        <ele>57.695059</ele>
        <time>2022-02-24T18:15:42.336Z</time>
      </trkpt>
      <trkpt lat="36.17689" lon="33.5913">
        <ele>57.117886</ele>
        <time>2022-02-24T18:15:54.077Z</time>
      </trkpt>
      <trkpt lat="36.17662" lon="33.59061">
        <ele>56.402091</ele>
        <time>2022-02-24T18:16:06.835Z</time>
      </trkpt>
      <trkpt lat="36.17642" lon="33.59031">
        <ele>56.034143</ele>
        <time>2022-02-24T18:16:13.276Z</time>
      </trkpt>
      <trkpt lat="36.17485" lon="33.58945">
        <ele>55.528294</ele>
        <time>2022-02-24T18:16:56.078Z</time>
      </trkpt>
      <trkpt lat="36.17418" lon="33.58899">
        <ele>55.602468</ele>
        <time>2022-02-24T18:17:21.551Z</time>
      </trkpt>
      <trkpt lat="36.17368" lon="33.58882">
        <ele>55.763295</ele>
        <time>2022-02-24T18:17:36.648Z</time>
      </trkpt>
      <trkpt lat="36.17339" lon="33.58882">
        <ele>55.854814</ele>
        <time>2022-02-24T18:17:44.669Z</time>
      </trkpt>
      <trkpt lat="36.17281" lon="33.58906">
        <ele>56.046388</ele>
        <time>2022-02-24T18:18:00.007Z</time>
      </trkpt>
      <trkpt lat="36.17242" lon="33.58906">
        <ele>56.476941</ele>
        <time>2022-02-24T18:18:09.378Z</time>
      </trkpt>
      <trkpt lat="36.17154" lon="33.58854">
        <ele>57.619446</ele>
        <time>2022-02-24T18:18:38.512Z</time>
      </trkpt>
      <trkpt lat="36.17137" lon="33.58827">
        <ele>57.939593</ele>
        <time>2022-02-24T18:18:48.949Z</time>
      </trkpt>
      <trkpt lat="36.17134" lon="33.588">
        <ele>58.364262</ele>
        <time>2022-02-24T18:18:57.940Z</time>
      </trkpt>
      <trkpt lat="36.17138" lon="33.58707">
        <ele>63.411117</ele>
        <time>2022-02-24T18:19:35.483Z</time>
      </trkpt>
      <trkpt lat="36.17127" lon="33.58665">
        <ele>65.776803</ele>
        <time>2022-02-24T18:19:57.062Z</time>
      </trkpt>
      <trkpt lat="36.1706" lon="33.58579">
        <ele>73.070721</ele>
        <time>2022-02-24T18:21:06.304Z</time>
      </trkpt>
      <trkpt lat="36.16973" lon="33.58479">
        <ele>84.457991</ele>
        <time>2022-02-24T18:22:38.441Z</time>
      </trkpt>
      <trkpt lat="36.16945" lon="33.58462">
        <ele>87.348178</ele>
        <time>2022-02-24T18:23:01.695Z</time>
      </trkpt>
      <trkpt lat="36.16908" lon="33.58455">
        <ele>88.18735</ele>
        <time>2022-02-24T18:23:23.329Z</time>
      </trkpt>
      <trkpt lat="36.16823" lon="33.58473">
        <ele>90.13583</ele>
        <time>2022-02-24T18:23:57.675Z</time>
      </trkpt>
      <trkpt lat="36.16795" lon="33.58471">
        <ele>90.779188</ele>
        <time>2022-02-24T18:24:04.395Z</time>
      </trkpt>
      <trkpt lat="36.16767" lon="33.58463">
        <ele>91.318404</ele>
        <time>2022-02-24T18:24:09.851Z</time>
      </trkpt>
      <trkpt lat="36.1675" lon="33.58449">
        <ele>90.087466</ele>
        <time>2022-02-24T18:24:13.768Z</time>
      </trkpt>
      <trkpt lat="36.16729" lon="33.58418">
        <ele>88.166541</ele>
        <time>2022-02-24T18:24:19.594Z</time>
      </trkpt>
      <trkpt lat="36.16723" lon="33.5831">
        <ele>82.989474</ele>
        <time>2022-02-24T18:24:34.436Z</time>
      </trkpt>
      <trkpt lat="36.16708" lon="33.58282">
        <ele>81.39962</ele>
        <time>2022-02-24T18:24:39.053Z</time>
      </trkpt>
      <trkpt lat="36.16684" lon="33.58272">
        <ele>80.142689</ele>
        <time>2022-02-24T18:24:43.457Z</time>
      </trkpt>
      <trkpt lat="36.16554" lon="33.58256">
        <ele>74.536619</ele>
        <time>2022-02-24T18:25:07.477Z</time>
      </trkpt>
      <trkpt lat="36.16448" lon="33.58224">
        <ele>71.684853</ele>
        <time>2022-02-24T18:25:31.047Z</time>
      </trkpt>
      <trkpt lat="36.16361" lon="33.58182">
        <ele>69.984112</ele>
        <time>2022-02-24T18:25:52.228Z</time>
      </trkpt>
      <trkpt lat="36.16345" lon="33.58162">
        <ele>69.285496</ele>
        <time>2022-02-24T18:25:56.973Z</time>
      </trkpt>
      <trkpt lat="36.16348" lon="33.58132">
        <ele>68.189057</ele>
        <time>2022-02-24T18:26:01.758Z</time>
      </trkpt>
      <trkpt lat="36.1638" lon="33.58043">
        <ele>64.537648</ele>
        <time>2022-02-24T18:26:16.629Z</time>
      </trkpt>
      <trkpt lat="36.16402" lon="33.58003">
        <ele>62.743478</ele>
        <time>2022-02-24T18:26:23.534Z</time>
      </trkpt>
      <trkpt lat="36.16403" lon="33.57984">
        <ele>62.03503</ele>
        <time>2022-02-24T18:26:26.198Z</time>
      </trkpt>
      <trkpt lat="36.16391" lon="33.57969">
        <ele>61.09425</ele>
        <time>2022-02-24T18:26:29.046Z</time>
      </trkpt>
      <trkpt lat="36.16337" lon="33.57928">
        <ele>55.837165</ele>
        <time>2022-02-24T18:26:39.768Z</time>
      </trkpt>
      <trkpt lat="36.16302" lon="33.57884">
        <ele>51.742451</ele>
        <time>2022-02-24T18:26:48.032Z</time>
      </trkpt>
      <trkpt lat="36.16297" lon="33.5785">
        <ele>49.478315</ele>
        <time>2022-02-24T18:26:52.557Z</time>
      </trkpt>
      <trkpt lat="36.16309" lon="33.57817">
        <ele>47.100109</ele>
        <time>2022-02-24T18:26:57.323Z</time>
      </trkpt>
      <trkpt lat="36.16352" lon="33.5777">
        <ele>42.031193</ele>
        <time>2022-02-24T18:27:06.895Z</time>
      </trkpt>
      <trkpt lat="36.16355" lon="33.57751">
        <ele>40.704992</ele>
        <time>2022-02-24T18:27:09.389Z</time>
      </trkpt>
      <trkpt lat="36.16308" lon="33.57645">
        <ele>32.088259</ele>
        <time>2022-02-24T18:27:25.591Z</time>
      </trkpt>
      <trkpt lat="36.16273" lon="33.57582">
        <ele>27.562761</ele>
        <time>2022-02-24T18:27:35.987Z</time>
      </trkpt>
      <trkpt lat="36.16256" lon="33.57547">
        <ele>25.333526</ele>
        <time>2022-02-24T18:27:41.523Z</time>
      </trkpt>
      <trkpt lat="36.16172" lon="33.57504">
        <ele>19.119598</ele>
        <time>2022-02-24T18:27:57.288Z</time>
      </trkpt>
      <trkpt lat="36.16047" lon="33.574">
        <ele>12.779232</ele>
        <time>2022-02-24T18:28:25.334Z</time>
      </trkpt>
      <trkpt lat="36.16009" lon="33.57355">
        <ele>11.084176</ele>
        <time>2022-02-24T18:28:35.890Z</time>
      </trkpt>
      <trkpt lat="36.15947" lon="33.57223">
        <ele>9.772509</ele>
        <time>2022-02-24T18:29:03.876Z</time>
      </trkpt>
      <trkpt lat="36.15916" lon="33.57127">
        <ele>9.529484</ele>
        <time>2022-02-24T18:29:27.864Z</time>
      </trkpt>
      <trkpt lat="36.15913" lon="33.57096">
        <ele>9.656749</ele>
        <time>2022-02-24T18:29:35.312Z</time>
      </trkpt>
      <trkpt lat="36.15927" lon="33.57061">
        <ele>9.816105</ele>
        <time>2022-02-24T18:29:44.583Z</time>
      </trkpt>
      <trkpt lat="36.15947" lon="33.57036">
        <ele>9.959584</ele>
        <time>2022-02-24T18:29:52.895Z</time>
      </trkpt>
      <trkpt lat="36.15957" lon="33.57032">
        <ele>10.010514</ele>
        <time>2022-02-24T18:29:56.097Z</time>
      </trkpt>
      <trkpt lat="36.15961" lon="33.56979">
        <ele>10.225023</ele>
        <time>2022-02-24T18:30:08.988Z</time>
      </trkpt>
      <trkpt lat="36.15989" lon="33.56895">
        <ele>10.654656</ele>
        <time>2022-02-24T18:30:31.491Z</time>
      </trkpt>
      <trkpt lat="36.16027" lon="33.56856">
        <ele>10.944624</ele>
        <time>2022-02-24T18:30:45.997Z</time>
      </trkpt>
      <trkpt lat="36.16032" lon="33.56832">
        <ele>11.065445</ele>
        <time>2022-02-24T18:30:51.973Z</time>
      </trkpt>
      <trkpt lat="36.16031" lon="33.56708">
        <ele>12.010318</ele>
        <time>2022-02-24T18:31:23.930Z</time>
      </trkpt>
      <trkpt lat="36.16037" lon="33.56667">
        <ele>12.402362</ele>
        <time>2022-02-24T18:31:35.231Z</time>
      </trkpt>
      <trkpt lat="36.16065" lon="33.5662">
        <ele>12.962414</ele>
        <time>2022-02-24T18:31:51.792Z</time>
      </trkpt>
      <trkpt lat="36.16105" lon="33.56552">
        <ele>13.824081</ele>
        <time>2022-02-24T18:32:15.230Z</time>
      </trkpt>
      <trkpt lat="36.16114" lon="33.56534">
        <ele>14.057013</ele>
        <time>2022-02-24T18:32:20.871Z</time>
      </trkpt>
      <trkpt lat="36.16121" lon="33.56523">
        <ele>14.220788</ele>
        <time>2022-02-24T18:32:25.076Z</time>
      </trkpt>
      <trkpt lat="36.16135" lon="33.56494">
        <ele>14.594102</ele>
        <time>2022-02-24T18:32:34.312Z</time>
      </trkpt>
      <trkpt lat="36.16167" lon="33.56421">
        <ele>15.53375</ele>
        <time>2022-02-24T18:32:57.387Z</time>
      </trkpt>
      <trkpt lat="36.16193" lon="33.56386">
        <ele>16.10492</ele>
        <time>2022-02-24T18:33:10.503Z</time>
      </trkpt>
      <trkpt lat="36.16236" lon="33.56343">
        <ele>17.080623</ele>
        <time>2022-02-24T18:33:29.949Z</time>
      </trkpt>
      <trkpt lat="36.16276" lon="33.5634">
        <ele>17.795243</ele>
        <time>2022-02-24T18:33:44.319Z</time>
      </trkpt>
      <trkpt lat="36.16312" lon="33.5631">
        <ele>18.573731</ele>
        <time>2022-02-24T18:34:00.432Z</time>
      </trkpt>
      <trkpt lat="36.16453" lon="33.56171">
        <ele>22.409754</ele>
        <time>2022-02-24T18:35:09.654Z</time>
      </trkpt>
      <trkpt lat="36.16524" lon="33.56078">
        <ele>24.611325</ele>
        <time>2022-02-24T18:35:49.344Z</time>
      </trkpt>
      <trkpt lat="36.16617" lon="33.55988">
        <ele>27.149788</ele>
        <time>2022-02-24T18:36:33.843Z</time>
      </trkpt>
      <trkpt lat="36.16653" lon="33.55962">
        <ele>28.151237</ele>
        <time>2022-02-24T18:36:49.365Z</time>
      </trkpt>
      <trkpt lat="36.1671" lon="33.55911">
        <ele>29.825958</ele>
        <time>2022-02-24T18:37:17.619Z</time>
      </trkpt>
      <trkpt lat="36.16736" lon="33.55897">
        <ele>30.510872</ele>
        <time>2022-02-24T18:37:29.447Z</time>
      </trkpt>
      <trkpt lat="36.16771" lon="33.55892">
        <ele>31.350287</ele>
        <time>2022-02-24T18:37:43.483Z</time>
      </trkpt>
      <trkpt lat="36.168" lon="33.55893">
        <ele>32.033893</ele>
        <time>2022-02-24T18:37:55.024Z</time>
      </trkpt>
      <trkpt lat="36.16804" lon="33.55884">
        <ele>32.229628</ele>
        <time>2022-02-24T18:37:58.709Z</time>
      </trkpt>
      <trkpt lat="36.16835" lon="33.55861">
        <ele>33.066652</ele>
        <time>2022-02-24T18:38:12.398Z</time>
      </trkpt>
      <trkpt lat="36.16852" lon="33.55836">
        <ele>33.682464</ele>
        <time>2022-02-24T18:38:21.595Z</time>
      </trkpt>
      <trkpt lat="36.16857" lon="33.55768">
        <ele>34.974869</ele>
        <time>2022-02-24T18:38:41.869Z</time>
      </trkpt>
      <trkpt lat="36.16886" lon="33.55762">
        <ele>35.812383</ele>
        <time>2022-02-24T18:38:54.270Z</time>
      </trkpt>
      <trkpt lat="36.16888" lon="33.55689">
        <ele>37.825375</ele>
        <time>2022-02-24T18:39:18.125Z</time>
      </trkpt>
      <trkpt lat="36.16889" lon="33.55655">
        <ele>38.754517</ele>
        <time>2022-02-24T18:39:29.204Z</time>
      </trkpt>
      <trkpt lat="36.1689" lon="33.55634">
        <ele>39.355634</ele>
        <time>2022-02-24T18:39:37.065Z</time>
      </trkpt>
      <trkpt lat="36.16896" lon="33.55603">
        <ele>40.208626</ele>
        <time>2022-02-24T18:39:47.785Z</time>
      </trkpt>
      <trkpt lat="36.169" lon="33.55581">
        <ele>40.838777</ele>
        <time>2022-02-24T18:39:56.740Z</time>
      </trkpt>
      <trkpt lat="36.16914" lon="33.55542">
        <ele>42.499457</ele>
        <time>2022-02-24T18:40:12.945Z</time>
      </trkpt>
      <trkpt lat="36.16923" lon="33.55514">
        <ele>44.058152</ele>
        <time>2022-02-24T18:40:24.925Z</time>
      </trkpt>
      <trkpt lat="36.16957" lon="33.55456">
        <ele>47.823603</ele>
        <time>2022-02-24T18:40:57.222Z</time>
      </trkpt>
      <trkpt lat="36.17061" lon="33.55354">
        <ele>58.259842</ele>
        <time>2022-02-24T18:42:23.334Z</time>
      </trkpt>
      <trkpt lat="36.17075" lon="33.55312">
        <ele>61.952932</ele>
        <time>2022-02-24T18:42:49.629Z</time>
      </trkpt>
      <trkpt lat="36.17105" lon="33.55251">
        <ele>67.739878</ele>
        <time>2022-02-24T18:43:33.920Z</time>
      </trkpt>
      <trkpt lat="36.17127" lon="33.55194">
        <ele>73.577828</ele>
        <time>2022-02-24T18:44:16.969Z</time>
      </trkpt>
      <trkpt lat="36.17139" lon="33.55142">
        <ele>79.694902</ele>
        <time>2022-02-24T18:44:58.877Z</time>
      </trkpt>
      <trkpt lat="36.17143" lon="33.55089">
        <ele>85.856018</ele>
        <time>2022-02-24T18:45:40.475Z</time>
      </trkpt>
      <trkpt lat="36.17135" lon="33.55032">
        <ele>92.434676</ele>
        <time>2022-02-24T18:46:26.299Z</time>
      </trkpt>
      <trkpt lat="36.17123" lon="33.54986">
        <ele>97.889366</ele>
        <time>2022-02-24T18:47:05.983Z</time>
      </trkpt>
      <trkpt lat="36.17091" lon="33.5491">
        <ele>107.074244</ele>
        <time>2022-02-24T18:48:13.212Z</time>
      </trkpt>
      <trkpt lat="36.17062" lon="33.54853">
        <ele>114.249646</ele>
        <time>2022-02-24T18:49:04.249Z</time>
      </trkpt>
      <trkpt lat="36.16973" lon="33.54709">
        <ele>130.028415</ele>
        <time>2022-02-24T18:50:55.453Z</time>
      </trkpt>
      <trkpt lat="36.16946" lon="33.54652">
        <ele>135.150274</ele>
        <time>2022-02-24T18:51:30.839Z</time>
      </trkpt>
      <trkpt lat="36.16653" lon="33.53852">
        <ele>196.094642</ele>
        <time>2022-02-24T18:59:40.017Z</time>
      </trkpt>
      <trkpt lat="36.16395" lon="33.53174">
        <ele>221.588443</ele>
        <time>2022-02-24T19:04:28.104Z</time>
      </trkpt>
      <trkpt lat="36.16357" lon="33.53041">
        <ele>219.75832</ele>
        <time>2022-02-24T19:04:50.730Z</time>
      </trkpt>
      <trkpt lat="36.1633" lon="33.5293">
        <ele>218.138666</ele>
        <time>2022-02-24T19:05:08.185Z</time>
      </trkpt>
      <trkpt lat="36.16326" lon="33.52782">
        <ele>215.947416</ele>
        <time>2022-02-24T19:05:35.566Z</time>
      </trkpt>
      <trkpt lat="36.16353" lon="33.52613">
        <ele>215.777127</ele>
        <time>2022-02-24T19:06:15.113Z</time>
      </trkpt>
      <trkpt lat="36.16427" lon="33.52459">
        <ele>213.666989</ele>
        <time>2022-02-24T19:06:50.343Z</time>
      </trkpt>
      <trkpt lat="36.16684" lon="33.52075">
        <ele>197.896891</ele>
        <time>2022-02-24T19:08:06.238Z</time>
      </trkpt>
      <trkpt lat="36.16733" lon="33.51957">
        <ele>190.615778</ele>
        <time>2022-02-24T19:08:24.476Z</time>
      </trkpt>
      <trkpt lat="36.16764" lon="33.51828">
        <ele>182.02494</ele>
        <time>2022-02-24T19:08:42.566Z</time>
      </trkpt>
      <trkpt lat="36.16768" lon="33.51722">
        <ele>174.879328</ele>
        <time>2022-02-24T19:08:56.912Z</time>
      </trkpt>
      <trkpt lat="36.16709" lon="33.51114">
        <ele>133.055259</ele>
        <time>2022-02-24T19:10:19.736Z</time>
      </trkpt>
      <trkpt lat="36.16669" lon="33.51006">
        <ele>123.808456</ele>
        <time>2022-02-24T19:10:35.355Z</time>
      </trkpt>
      <trkpt lat="36.16662" lon="33.50987">
        <ele>122.18972</ele>
        <time>2022-02-24T19:10:38.104Z</time>
      </trkpt>
      <trkpt lat="36.16597" lon="33.50836">
        <ele>109.890332</ele>
        <time>2022-02-24T19:11:00.828Z</time>
      </trkpt>
      <trkpt lat="36.16515" lon="33.50667">
        <ele>96.124138</ele>
        <time>2022-02-24T19:11:27.739Z</time>
      </trkpt>
      <trkpt lat="36.16465" lon="33.50568">
        <ele>88.026485</ele>
        <time>2022-02-24T19:11:43.285Z</time>
      </trkpt>
      <trkpt lat="36.16373" lon="33.50414">
        <ele>73.382977</ele>
        <time>2022-02-24T19:12:08.703Z</time>
      </trkpt>
      <trkpt lat="36.16347" lon="33.50356">
        <ele>68.747685</ele>
        <time>2022-02-24T19:12:17.459Z</time>
      </trkpt>
      <trkpt lat="36.16333" lon="33.50309">
        <ele>65.464669</ele>
        <time>2022-02-24T19:12:24.106Z</time>
      </trkpt>
      <trkpt lat="36.16323" lon="33.50245">
        <ele>61.135043</ele>
        <time>2022-02-24T19:12:32.978Z</time>
      </trkpt>
      <trkpt lat="36.16319" lon="33.5021">
        <ele>58.809473</ele>
        <time>2022-02-24T19:12:37.802Z</time>
      </trkpt>
      <trkpt lat="36.1632" lon="33.50176">
        <ele>56.559997</ele>
        <time>2022-02-24T19:12:42.546Z</time>
      </trkpt>
      <trkpt lat="36.16322" lon="33.50153">
        <ele>55.90537</ele>
        <time>2022-02-24T19:12:45.698Z</time>
      </trkpt>
      <trkpt lat="36.16367" lon="33.5006">
        <ele>52.762145</ele>
        <time>2022-02-24T19:13:01.904Z</time>
      </trkpt>
      <trkpt lat="36.16401" lon="33.49993">
        <ele>50.484501</ele>
        <time>2022-02-24T19:13:15.771Z</time>
      </trkpt>
      <trkpt lat="36.1641" lon="33.49976">
        <ele>50.311504</ele>
        <time>2022-02-24T19:13:19.920Z</time>
      </trkpt>
      <trkpt lat="36.16423" lon="33.4995">
        <ele>50.862702</ele>
        <time>2022-02-24T19:13:27.441Z</time>
      </trkpt>
      <trkpt lat="36.16456" lon="33.49874">
        <ele>52.376818</ele>
        <time>2022-02-24T19:13:51.104Z</time>
      </trkpt>
      <trkpt lat="36.16467" lon="33.49845">
        <ele>52.950537</ele>
        <time>2022-02-24T19:14:01.535Z</time>
      </trkpt>
      <trkpt lat="36.16479" lon="33.4981">
        <ele>53.634194</ele>
        <time>2022-02-24T19:14:16.014Z</time>
      </trkpt>
      <trkpt lat="36.16495" lon="33.49762">
        <ele>54.74543</ele>
        <time>2022-02-24T19:14:36.949Z</time>
      </trkpt>
      <trkpt lat="36.16507" lon="33.49657">
        <ele>57.578489</ele>
        <time>2022-02-24T19:15:18.607Z</time>
      </trkpt>
      <trkpt lat="36.16505" lon="33.49637">
        <ele>58.108357</ele>
        <time>2022-02-24T19:15:25.606Z</time>
      </trkpt>
      <trkpt lat="36.16503" lon="33.4962">
        <ele>58.555391</ele>
        <time>2022-02-24T19:15:31.288Z</time>
      </trkpt>
      <trkpt lat="36.16482" lon="33.49551">
        <ele>59.361772</ele>
        <time>2022-02-24T19:15:51.185Z</time>
      </trkpt>
      <trkpt lat="36.1646" lon="33.49512">
        <ele>57.597361</ele>
        <time>2022-02-24T19:16:02.518Z</time>
      </trkpt>
      <trkpt lat="36.1608" lon="33.48946">
        <ele>30.507107</ele>
        <time>2022-02-24T19:17:49.696Z</time>
      </trkpt>
      <trkpt lat="36.16041" lon="33.48893">
        <ele>27.67666</ele>
        <time>2022-02-24T19:18:00.257Z</time>
      </trkpt>
      <trkpt lat="36.158" lon="33.48626">
        <ele>15.289075</ele>
        <time>2022-02-24T19:19:01.228Z</time>
      </trkpt>
      <trkpt lat="36.15774" lon="33.48581">
        <ele>13.736811</ele>
        <time>2022-02-24T19:19:10.059Z</time>
      </trkpt>
      <trkpt lat="36.15752" lon="33.48524">
        <ele>13.442913</ele>
        <time>2022-02-24T19:19:20.766Z</time>
      </trkpt>
      <trkpt lat="36.15742" lon="33.48488">
        <ele>13.375305</ele>
        <time>2022-02-24T19:19:27.872Z</time>
      </trkpt>
      <trkpt lat="36.15738" lon="33.48454">
        <ele>13.314042</ele>
        <time>2022-02-24T19:19:35.086Z</time>
      </trkpt>
      <trkpt lat="36.1574" lon="33.48441">
        <ele>13.291328</ele>
        <time>2022-02-24T19:19:37.604Z</time>
      </trkpt>
      <trkpt lat="36.15745" lon="33.48389">
        <ele>13.200193</ele>
        <time>2022-02-24T19:19:50.769Z</time>
      </trkpt>
      <trkpt lat="36.15756" lon="33.4828">
        <ele>15.407264</ele>
        <time>2022-02-24T19:20:25.552Z</time>
      </trkpt>
      <trkpt lat="36.15763" lon="33.4817">
        <ele>18.484581</ele>
        <time>2022-02-24T19:21:07.264Z</time>
      </trkpt>
      <trkpt lat="36.15802" lon="33.48046">
        <ele>21.906451</ele>
        <time>2022-02-24T19:21:57.497Z</time>
      </trkpt>
      <trkpt lat="36.15837" lon="33.47971">
        <ele>24.065667</ele>
        <time>2022-02-24T19:22:25.236Z</time>
      </trkpt>
      <trkpt lat="36.15878" lon="33.47918">
        <ele>25.258633</ele>
        <time>2022-02-24T19:22:45.519Z</time>
      </trkpt>
      <trkpt lat="36.15931" lon="33.47825">
        <ele>26.250914</ele>
        <time>2022-02-24T19:23:13.491Z</time>
      </trkpt>
      <trkpt lat="36.15945" lon="33.47772">
        <ele>26.735715</ele>
        <time>2022-02-24T19:23:26.615Z</time>
      </trkpt>
      <trkpt lat="36.15955" lon="33.47641">
        <ele>28.580848</ele>
        <time>2022-02-24T19:24:01.902Z</time>
      </trkpt>
      <trkpt lat="36.15965" lon="33.47595">
        <ele>29.26997</ele>
        <time>2022-02-24T19:24:16.498Z</time>
      </trkpt>
      <trkpt lat="36.16025" lon="33.47413">
        <ele>32.118494</ele>
        <time>2022-02-24T19:25:18.589Z</time>
      </trkpt>
      <trkpt lat="36.16032" lon="33.47285">
        <ele>32.941184</ele>
        <time>2022-02-24T19:25:49.669Z</time>
      </trkpt>
      <trkpt lat="36.16023" lon="33.47242">
        <ele>32.5727</ele>
        <time>2022-02-24T19:25:58.315Z</time>
      </trkpt>
      <trkpt lat="36.15991" lon="33.47184">
        <ele>31.992668</ele>
        <time>2022-02-24T19:26:10.727Z</time>
      </trkpt>
      <trkpt lat="36.15898" lon="33.47046">
        <ele>29.005547</ele>
        <time>2022-02-24T19:26:40.715Z</time>
      </trkpt>
      <trkpt lat="36.15868" lon="33.46963">
        <ele>27.091631</ele>
        <time>2022-02-24T19:26:55.418Z</time>
      </trkpt>
      <trkpt lat="36.15858" lon="33.46889">
        <ele>24.884892</ele>
        <time>2022-02-24T19:27:07.234Z</time>
      </trkpt>
      <trkpt lat="36.15862" lon="33.46833">
        <ele>23.103692</ele>
        <time>2022-02-24T19:27:15.938Z</time>
      </trkpt>
      <trkpt lat="36.15888" lon="33.46773">
        <ele>20.974677</ele>
        <time>2022-02-24T19:27:26.047Z</time>
      </trkpt>
      <trkpt lat="36.15976" lon="33.46671">
        <ele>16.16932</ele>
        <time>2022-02-24T19:27:48.471Z</time>
      </trkpt>
      <trkpt lat="36.16003" lon="33.46642">
        <ele>14.718697</ele>
        <time>2022-02-24T19:27:55.231Z</time>
      </trkpt>
      <trkpt lat="36.16052" lon="33.46608">
        <ele>12.497066</ele>
        <time>2022-02-24T19:28:06.509Z</time>
      </trkpt>
      <trkpt lat="36.16105" lon="33.46572">
        <ele>10.724209</ele>
        <time>2022-02-24T19:28:18.666Z</time>
      </trkpt>
      <trkpt lat="36.16113" lon="33.46568">
        <ele>10.467963</ele>
        <time>2022-02-24T19:28:20.564Z</time>
      </trkpt>
      <trkpt lat="36.16127" lon="33.46551">
        <ele>9.894144</ele>
        <time>2022-02-24T19:28:24.434Z</time>
      </trkpt>
      <trkpt lat="36.16143" lon="33.46528">
        <ele>9.173411</ele>
        <time>2022-02-24T19:28:29.940Z</time>
      </trkpt>
      <trkpt lat="36.16158" lon="33.46485">
        <ele>8.068073</ele>
        <time>2022-02-24T19:28:38.055Z</time>
      </trkpt>
      <trkpt lat="36.16163" lon="33.46459">
        <ele>7.426318</ele>
        <time>2022-02-24T19:28:42.779Z</time>
      </trkpt>
      <trkpt lat="36.16172" lon="33.46415">
        <ele>6.690877</ele>
        <time>2022-02-24T19:28:50.496Z</time>
      </trkpt>
      <trkpt lat="36.16188" lon="33.46358">
        <ele>5.773757</ele>
        <time>2022-02-24T19:29:00.480Z</time>
      </trkpt>
      <trkpt lat="36.16195" lon="33.46291">
        <ele>4.756553</ele>
        <time>2022-02-24T19:29:12.140Z</time>
      </trkpt>
      <trkpt lat="36.16193" lon="33.46232">
        <ele>3.884289</ele>
        <time>2022-02-24T19:29:22.745Z</time>
      </trkpt>
      <trkpt lat="36.16183" lon="33.46116">
        <ele>3.355716</ele>
        <time>2022-02-24T19:29:45.259Z</time>
      </trkpt>
      <trkpt lat="36.1616" lon="33.46041">
        <ele>2.995659</ele>
        <time>2022-02-24T19:30:01.485Z</time>
      </trkpt>
      <trkpt lat="36.16144" lon="33.46013">
        <ele>3.030102</ele>
        <time>2022-02-24T19:30:09.099Z</time>
      </trkpt>
      <trkpt lat="36.16122" lon="33.45979">
        <ele>3.547036</ele>
        <time>2022-02-24T19:30:19.071Z</time>
      </trkpt>
      <trkpt lat="36.16076" lon="33.45925">
        <ele>4.487432</ele>
        <time>2022-02-24T19:30:38.996Z</time>
      </trkpt>
      <trkpt lat="36.15956" lon="33.4584">
        <ele>7.479003</ele>
        <time>2022-02-24T19:31:34.456Z</time>
      </trkpt>
      <trkpt lat="36.15897" lon="33.458">
        <ele>9.419145</ele>
        <time>2022-02-24T19:32:02.681Z</time>
      </trkpt>
      <trkpt lat="36.15834" lon="33.45757">
        <ele>11.234842</ele>
        <time>2022-02-24T19:32:32.161Z</time>
      </trkpt>
      <trkpt lat="36.15796" lon="33.45728">
        <ele>12.005984</ele>
        <time>2022-02-24T19:32:49.014Z</time>
      </trkpt>
      <trkpt lat="36.15739" lon="33.45672">
        <ele>13.271624</ele>
        <time>2022-02-24T19:33:13.123Z</time>
      </trkpt>
      <trkpt lat="36.15713" lon="33.45638">
        <ele>13.92897</ele>
        <time>2022-02-24T19:33:24.817Z</time>
      </trkpt>
      <trkpt lat="36.15672" lon="33.45564">
        <ele>14.307784</ele>
        <time>2022-02-24T19:33:46.319Z</time>
      </trkpt>
      <trkpt lat="36.15643" lon="33.45466">
        <ele>14.749531</ele>
        <time>2022-02-24T19:34:10.425Z</time>
      </trkpt>
      <trkpt lat="36.15628" lon="33.4535">
        <ele>15.32815</ele>
        <time>2022-02-24T19:34:37.413Z</time>
      </trkpt>
      <trkpt lat="36.15616" lon="33.45294">
        <ele>15.620571</ele>
        <time>2022-02-24T19:34:50.851Z</time>
      </trkpt>
      <trkpt lat="36.156" lon="33.45256">
        <ele>15.841743</ele>
        <time>2022-02-24T19:35:01.242Z</time>
      </trkpt>
      <trkpt lat="36.15516" lon="33.45126">
        <ele>17.854776</ele>
        <time>2022-02-24T19:35:45.238Z</time>
      </trkpt>
      <trkpt lat="36.15493" lon="33.45071">
        <ele>18.696182</ele>
        <time>2022-02-24T19:36:03.636Z</time>
      </trkpt>
      <trkpt lat="36.15478" lon="33.45001">
        <ele>20.346308</ele>
        <time>2022-02-24T19:36:26.958Z</time>
      </trkpt>
      <trkpt lat="36.15474" lon="33.44937">
        <ele>22.152672</ele>
        <time>2022-02-24T19:36:48.890Z</time>
      </trkpt>
      <trkpt lat="36.15473" lon="33.4471">
        <ele>29.038014</ele>
        <time>2022-02-24T19:38:13.933Z</time>
      </trkpt>
      <trkpt lat="36.15476" lon="33.44673">
        <ele>30.229086</ele>
        <time>2022-02-24T19:38:27.834Z</time>
      </trkpt>
      <trkpt lat="36.15493" lon="33.44611">
        <ele>32.359145</ele>
        <time>2022-02-24T19:38:52.036Z</time>
      </trkpt>
      <trkpt lat="36.15515" lon="33.44559">
        <ele>33.886505</ele>
        <time>2022-02-24T19:39:12.854Z</time>
      </trkpt>
      <trkpt lat="36.15537" lon="33.44519">
        <ele>35.101313</ele>
        <time>2022-02-24T19:39:29.279Z</time>
      </trkpt>
      <trkpt lat="36.15602" lon="33.44439">
        <ele>37.983629</ele>
        <time>2022-02-24T19:40:05.523Z</time>
      </trkpt>
      <trkpt lat="36.15805" lon="33.44241">
        <ele>48.338957</ele>
        <time>2022-02-24T19:41:53.404Z</time>
      </trkpt>
      <trkpt lat="36.15816" lon="33.4423">
        <ele>49.228141</ele>
        <time>2022-02-24T19:42:01.714Z</time>
      </trkpt>
      <trkpt lat="36.15892" lon="33.44154">
        <ele>55.653292</ele>
        <time>2022-02-24T19:43:05.707Z</time>
      </trkpt>
      <trkpt lat="36.15947" lon="33.44093">
        <ele>64.567119</ele>
        <time>2022-02-24T19:44:05.679Z</time>
      </trkpt>
      <trkpt lat="36.15985" lon="33.44066">
        <ele>70.014549</ele>
        <time>2022-02-24T19:44:45.219Z</time>
      </trkpt>
      <trkpt lat="36.16016" lon="33.44051">
        <ele>74.044406</ele>
        <time>2022-02-24T19:45:15.565Z</time>
      </trkpt>
      <trkpt lat="36.16076" lon="33.44041">
        <ele>81.743522</ele>
        <time>2022-02-24T19:46:13.688Z</time>
      </trkpt>
      <trkpt lat="36.16158" lon="33.44065">
        <ele>92.659791</ele>
        <time>2022-02-24T19:47:32.526Z</time>
      </trkpt>
      <trkpt lat="36.16193" lon="33.44087">
        <ele>97.867062</ele>
        <time>2022-02-24T19:48:07.740Z</time>
      </trkpt>
      <trkpt lat="36.16219" lon="33.44111">
        <ele>101.580406</ele>
        <time>2022-02-24T19:48:35.382Z</time>
      </trkpt>
      <trkpt lat="36.16451" lon="33.44379">
        <ele>125.537127</ele>
        <time>2022-02-24T19:51:55.020Z</time>
      </trkpt>
      <trkpt lat="36.16494" lon="33.44423">
        <ele>128.757467</ele>
        <time>2022-02-24T19:52:19.590Z</time>
      </trkpt>
      <trkpt lat="36.16528" lon="33.44449">
        <ele>130.63561</ele>
        <time>2022-02-24T19:52:37.749Z</time>
      </trkpt>
      <trkpt lat="36.1657" lon="33.44469">
        <ele>132.730133</ele>
        <time>2022-02-24T19:52:58.389Z</time>
      </trkpt>
      <trkpt lat="36.16616" lon="33.44483">
        <ele>134.957085</ele>
        <time>2022-02-24T19:53:20.923Z</time>
      </trkpt>
      <trkpt lat="36.16757" lon="33.44517">
        <ele>143.466291</ele>
        <time>2022-02-24T19:54:43.354Z</time>
      </trkpt>
      <trkpt lat="36.16953" lon="33.44556">
        <ele>154.662694</ele>
        <time>2022-02-24T19:56:34.944Z</time>
      </trkpt>
      <trkpt lat="36.17009" lon="33.44561">
        <ele>157.369349</ele>
        <time>2022-02-24T19:56:59.905Z</time>
      </trkpt>
      <trkpt lat="36.17073" lon="33.44546">
        <ele>159.47227</ele>
        <time>2022-02-24T19:57:26.665Z</time>
      </trkpt>
      <trkpt lat="36.17109" lon="33.44532">
        <ele>160.656922</ele>
        <time>2022-02-24T19:57:41.224Z</time>
      </trkpt>
      <trkpt lat="36.17143" lon="33.44509">
        <ele>161.885359</ele>
        <time>2022-02-24T19:57:56.501Z</time>
      </trkpt>
      <trkpt lat="36.17192" lon="33.44461">
        <ele>164.578734</ele>
        <time>2022-02-24T19:58:22.987Z</time>
      </trkpt>
      <trkpt lat="36.17594" lon="33.44019">
        <ele>191.775336</ele>
        <time>2022-02-24T20:03:01.064Z</time>
      </trkpt>
      <trkpt lat="36.17627" lon="33.43971">
        <ele>194.512182</ele>
        <time>2022-02-24T20:03:26.968Z</time>
      </trkpt>
      <trkpt lat="36.17638" lon="33.43925">
        <ele>196.589777</ele>
        <time>2022-02-24T20:03:46.995Z</time>
      </trkpt>
      <trkpt lat="36.17642" lon="33.43849">
        <ele>200.010231</ele>
        <time>2022-02-24T20:04:19.520Z</time>
      </trkpt>
      <trkpt lat="36.17637" lon="33.43601">
        <ele>213.805133</ele>
        <time>2022-02-24T20:06:17.808Z</time>
      </trkpt>
      <trkpt lat="36.17633" lon="33.43563">
        <ele>216.45512</ele>
        <time>2022-02-24T20:06:38.232Z</time>
      </trkpt>
      <trkpt lat="36.17607" lon="33.43478">
        <ele>222.653247</ele>
        <time>2022-02-24T20:07:28.217Z</time>
      </trkpt>
      <trkpt lat="36.17576" lon="33.43436">
        <ele>226.5739</ele>
        <time>2022-02-24T20:08:01.580Z</time>
      </trkpt>
      <trkpt lat="36.17546" lon="33.43401">
        <ele>230.856047</ele>
        <time>2022-02-24T20:08:32.629Z</time>
      </trkpt>
      <trkpt lat="36.17474" lon="33.43342">
        <ele>239.758543</ele>
        <time>2022-02-24T20:09:38.570Z</time>
      </trkpt>
      <trkpt lat="36.17353" lon="33.43254">
        <ele>254.415202</ele>
        <time>2022-02-24T20:11:29.242Z</time>
      </trkpt>
      <trkpt lat="36.17288" lon="33.43215">
        <ele>261.950122</ele>
        <time>2022-02-24T20:12:24.661Z</time>
      </trkpt>
      <trkpt lat="36.17217" lon="33.43178">
        <ele>268.675071</ele>
        <time>2022-02-24T20:13:22.110Z</time>
      </trkpt>
      <trkpt lat="36.17059" lon="33.43128">
        <ele>280.458587</ele>
        <time>2022-02-24T20:15:03.161Z</time>
      </trkpt>
      <trkpt lat="36.16926" lon="33.43093">
        <ele>286.571199</ele>
        <time>2022-02-24T20:16:03.453Z</time>
      </trkpt>
      <trkpt lat="36.16891" lon="33.43075">
        <ele>288.004146</ele>
        <time>2022-02-24T20:16:18.183Z</time>
      </trkpt>
      <trkpt lat="36.16865" lon="33.43056">
        <ele>289.139123</ele>
        <time>2022-02-24T20:16:30.550Z</time>
      </trkpt>
      <trkpt lat="36.1684" lon="33.43027">
        <ele>290.380399</ele>
        <time>2022-02-24T20:16:45.020Z</time>
      </trkpt>
      <trkpt lat="36.16802" lon="33.42967">
        <ele>292.628776</ele>
        <time>2022-02-24T20:17:13.431Z</time>
      </trkpt>
      <trkpt lat="36.16782" lon="33.42912">
        <ele>294.78413</ele>
        <time>2022-02-24T20:17:37.273Z</time>
      </trkpt>
      <trkpt lat="36.16778" lon="33.42867">
        <ele>296.594917</ele>
        <time>2022-02-24T20:17:55.711Z</time>
      </trkpt>
      <trkpt lat="36.1678" lon="33.4282">
        <ele>298.496081</ele>
        <time>2022-02-24T20:18:15.440Z</time>
      </trkpt>
      <trkpt lat="36.16837" lon="33.42402">
        <ele>316.163993</ele>
        <time>2022-02-24T20:21:10.275Z</time>
      </trkpt>
      <trkpt lat="36.16827" lon="33.42322">
        <ele>319.748735</ele>
        <time>2022-02-24T20:21:45.521Z</time>
      </trkpt>
      <trkpt lat="36.16815" lon="33.42289">
        <ele>321.360863</ele>
        <time>2022-02-24T20:22:01.781Z</time>
      </trkpt>
      <trkpt lat="36.16798" lon="33.42265">
        <ele>323.108639</ele>
        <time>2022-02-24T20:22:16.528Z</time>
      </trkpt>
      <trkpt lat="36.16769" lon="33.42239">
        <ele>325.534634</ele>
        <time>2022-02-24T20:22:37.276Z</time>
      </trkpt>
      <trkpt lat="36.16682" lon="33.42199">
        <ele>331.723011</ele>
        <time>2022-02-24T20:23:31.292Z</time>
      </trkpt>
      <trkpt lat="36.16608" lon="33.42155">
        <ele>337.978393</ele>
        <time>2022-02-24T20:24:23.951Z</time>
      </trkpt>
      <trkpt lat="36.16558" lon="33.4213">
        <ele>342.295627</ele>
        <time>2022-02-24T20:25:00.338Z</time>
      </trkpt>
      <trkpt lat="36.16542" lon="33.42122">
        <ele>343.684189</ele>
        <time>2022-02-24T20:25:11.189Z</time>
      </trkpt>
      <trkpt lat="36.16494" lon="33.42101">
        <ele>347.726765</ele>
        <time>2022-02-24T20:25:45.423Z</time>
      </trkpt>
      <trkpt lat="36.16451" lon="33.42086">
        <ele>350.915061</ele>
        <time>2022-02-24T20:26:14.886Z</time>
      </trkpt>
      <trkpt lat="36.16364" lon="33.42045">
        <ele>357.435861</ele>
        <time>2022-02-24T20:27:13.226Z</time>
      </trkpt>
      <trkpt lat="36.16341" lon="33.42032">
        <ele>359.241051</ele>
        <time>2022-02-24T20:27:27.226Z</time>
      </trkpt>
      <trkpt lat="36.16298" lon="33.41995">
        <ele>361.499551</ele>
        <time>2022-02-24T20:27:53.517Z</time>
      </trkpt>
      <trkpt lat="36.16277" lon="33.41967">
        <ele>362.404195</ele>
        <time>2022-02-24T20:28:07.432Z</time>
      </trkpt>
      <trkpt lat="36.16234" lon="33.41889">
        <ele>364.614695</ele>
        <time>2022-02-24T20:28:36.377Z</time>
      </trkpt>
      <trkpt lat="36.16217" lon="33.4183">
        <ele>365.706998</ele>
        <time>2022-02-24T20:28:52.786Z</time>
      </trkpt>
      <trkpt lat="36.16208" lon="33.41753">
        <ele>365.498435</ele>
        <time>2022-02-24T20:29:10.875Z</time>
      </trkpt>
      <trkpt lat="36.1625" lon="33.412">
        <ele>360.99517</ele>
        <time>2022-02-24T20:30:59.375Z</time>
      </trkpt>
      <trkpt lat="36.16259" lon="33.41028">
        <ele>348.469515</ele>
        <time>2022-02-24T20:31:22.140Z</time>
      </trkpt>
      <trkpt lat="36.16257" lon="33.40985">
        <ele>345.03263</ele>
        <time>2022-02-24T20:31:27.624Z</time>
      </trkpt>
      <trkpt lat="36.1625" lon="33.40926">
        <ele>339.790163</ele>
        <time>2022-02-24T20:31:35.233Z</time>
      </trkpt>
      <trkpt lat="36.16231" lon="33.40828">
        <ele>330.27435</ele>
        <time>2022-02-24T20:31:48.102Z</time>
      </trkpt>
      <trkpt lat="36.16212" lon="33.40768">
        <ele>324.152681</ele>
        <time>2022-02-24T20:31:56.506Z</time>
      </trkpt>
      <trkpt lat="36.16112" lon="33.40524">
        <ele>304.867501</ele>
        <time>2022-02-24T20:32:33.600Z</time>
      </trkpt>
      <trkpt lat="36.16072" lon="33.40443">
        <ele>298.409591</ele>
        <time>2022-02-24T20:32:46.492Z</time>
      </trkpt>
      <trkpt lat="36.1599" lon="33.40354">
        <ele>289.051954</ele>
        <time>2022-02-24T20:33:04.551Z</time>
      </trkpt>
      <trkpt lat="36.15818" lon="33.40189">
        <ele>269.481369</ele>
        <time>2022-02-24T20:33:40.424Z</time>
      </trkpt>
      <trkpt lat="36.15759" lon="33.40113">
        <ele>262.456041</ele>
        <time>2022-02-24T20:33:54.659Z</time>
      </trkpt>
      <trkpt lat="36.15529" lon="33.39723">
        <ele>238.262041</ele>
        <time>2022-02-24T20:35:03.287Z</time>
      </trkpt>
      <trkpt lat="36.15461" lon="33.39616">
        <ele>230.600077</ele>
        <time>2022-02-24T20:35:22.392Z</time>
      </trkpt>
      <trkpt lat="36.15367" lon="33.3945">
        <ele>218.983797</ele>
        <time>2022-02-24T20:35:50.147Z</time>
      </trkpt>
      <trkpt lat="36.15303" lon="33.39371">
        <ele>212.661182</ele>
        <time>2022-02-24T20:36:05.683Z</time>
      </trkpt>
      <trkpt lat="36.15266" lon="33.39336">
        <ele>211.015632</ele>
        <time>2022-02-24T20:36:13.926Z</time>
      </trkpt>
      <trkpt lat="36.1516" lon="33.39267">
        <ele>206.724945</ele>
        <time>2022-02-24T20:36:37.661Z</time>
      </trkpt>
      <trkpt lat="36.15086" lon="33.39216">
        <ele>205.859005</ele>
        <time>2022-02-24T20:36:58.047Z</time>
      </trkpt>
      <trkpt lat="36.15078" lon="33.39212">
        <ele>205.796043</ele>
        <time>2022-02-24T20:37:00.543Z</time>
      </trkpt>
      <trkpt lat="36.15026" lon="33.39182">
        <ele>205.404485</ele>
        <time>2022-02-24T20:37:15.456Z</time>
      </trkpt>
      <trkpt lat="36.14786" lon="33.39044">
        <ele>201.787188</ele>
        <time>2022-02-24T20:38:18.336Z</time>
      </trkpt>
      <trkpt lat="36.14748" lon="33.39006">
        <ele>199.841891</ele>
        <time>2022-02-24T20:38:27.763Z</time>
      </trkpt>
      <trkpt lat="36.14672" lon="33.38898">
        <ele>193.662275</ele>
        <time>2022-02-24T20:38:48.285Z</time>
      </trkpt>
      <trkpt lat="36.14642" lon="33.38851">
        <ele>189.330724</ele>
        <time>2022-02-24T20:38:56.342Z</time>
      </trkpt>
      <trkpt lat="36.14609" lon="33.38767">
        <ele>182.597868</ele>
        <time>2022-02-24T20:39:08.604Z</time>
      </trkpt>
      <trkpt lat="36.14602" lon="33.38698">
        <ele>177.461027</ele>
        <time>2022-02-24T20:39:17.655Z</time>
      </trkpt>
      <trkpt lat="36.14602" lon="33.38666">
        <ele>175.032466</ele>
        <time>2022-02-24T20:39:21.856Z</time>
      </trkpt>
      <trkpt lat="36.14618" lon="33.38578">
        <ele>168.243019</ele>
        <time>2022-02-24T20:39:33.699Z</time>
      </trkpt>
      <trkpt lat="36.14681" lon="33.38461">
        <ele>160.341678</ele>
        <time>2022-02-24T20:39:53.077Z</time>
      </trkpt>
      <trkpt lat="36.14735" lon="33.3838">
        <ele>156.12445</ele>
        <time>2022-02-24T20:40:08.994Z</time>
      </trkpt>
      <trkpt lat="36.1477" lon="33.38351">
        <ele>154.285418</ele>
        <time>2022-02-24T20:40:17.494Z</time>
      </trkpt>
      <trkpt lat="36.1481" lon="33.38335">
        <ele>153.211258</ele>
        <time>2022-02-24T20:40:26.474Z</time>
      </trkpt>
      <trkpt lat="36.1485" lon="33.38331">
        <ele>152.192928</ele>
        <time>2022-02-24T20:40:35.149Z</time>
      </trkpt>
      <trkpt lat="36.14901" lon="33.38346">
        <ele>150.883158</ele>
        <time>2022-02-24T20:40:46.164Z</time>
      </trkpt>
      <trkpt lat="36.14927" lon="33.38362">
        <ele>150.135184</ele>
        <time>2022-02-24T20:40:52.076Z</time>
      </trkpt>
      <trkpt lat="36.14991" lon="33.38428">
        <ele>144.527365</ele>
        <time>2022-02-24T20:41:07.354Z</time>
      </trkpt>
      <trkpt lat="36.15017" lon="33.38447">
        <ele>142.363923</ele>
        <time>2022-02-24T20:41:12.563Z</time>
      </trkpt>
      <trkpt lat="36.15075" lon="33.38469">
        <ele>138.065211</ele>
        <time>2022-02-24T20:41:22.583Z</time>
      </trkpt>
      <trkpt lat="36.15117" lon="33.3847">
        <ele>133.435976</ele>
        <time>2022-02-24T20:41:29.306Z</time>
      </trkpt>
      <trkpt lat="36.15153" lon="33.38462">
        <ele>128.841157</ele>
        <time>2022-02-24T20:41:35.085Z</time>
      </trkpt>
      <trkpt lat="36.15284" lon="33.38414">
        <ele>111.508975</ele>
        <time>2022-02-24T20:41:56.646Z</time>
      </trkpt>
      <trkpt lat="36.15347" lon="33.38382">
        <ele>102.902524</ele>
        <time>2022-02-24T20:42:07.417Z</time>
      </trkpt>
      <trkpt lat="36.15404" lon="33.38331">
        <ele>94.044128</ele>
        <time>2022-02-24T20:42:18.583Z</time>
      </trkpt>
      <trkpt lat="36.15425" lon="33.38306">
        <ele>90.637119</ele>
        <time>2022-02-24T20:42:23.190Z</time>
      </trkpt>
      <trkpt lat="36.15446" lon="33.38275">
        <ele>87.195839</ele>
        <time>2022-02-24T20:42:28.463Z</time>
      </trkpt>
      <trkpt lat="36.15484" lon="33.38201">
        <ele>79.813309</ele>
        <time>2022-02-24T20:42:39.856Z</time>
      </trkpt>
      <trkpt lat="36.15506" lon="33.3813">
        <ele>73.317404</ele>
        <time>2022-02-24T20:42:50.036Z</time>
      </trkpt>
      <trkpt lat="36.15523" lon="33.38044">
        <ele>66.587856</ele>
        <time>2022-02-24T20:43:01.799Z</time>
      </trkpt>
      <trkpt lat="36.15525" lon="33.3797">
        <ele>60.954874</ele>
        <time>2022-02-24T20:43:11.647Z</time>
      </trkpt>
      <trkpt lat="36.15517" lon="33.3793">
        <ele>57.889098</ele>
        <time>2022-02-24T20:43:17.033Z</time>
      </trkpt>
      <trkpt lat="36.15508" lon="33.37891">
        <ele>54.953844</ele>
        <time>2022-02-24T20:43:22.450Z</time>
      </trkpt>
      <trkpt lat="36.15509" lon="33.3786">
        <ele>52.871054</ele>
        <time>2022-02-24T20:43:26.785Z</time>
      </trkpt>
      <trkpt lat="36.15503" lon="33.37836">
        <ele>51.183531</ele>
        <time>2022-02-24T20:43:30.385Z</time>
      </trkpt>
      <trkpt lat="36.15498" lon="33.37816">
        <ele>49.796496</ele>
        <time>2022-02-24T20:43:33.255Z</time>
      </trkpt>
      <trkpt lat="36.15498" lon="33.37806">
        <ele>49.091237</ele>
        <time>2022-02-24T20:43:34.762Z</time>
      </trkpt>
      <trkpt lat="36.1553" lon="33.37724">
        <ele>42.977555</ele>
        <time>2022-02-24T20:43:47.582Z</time>
      </trkpt>
      <trkpt lat="36.15563" lon="33.37564">
        <ele>34.463373</ele>
        <time>2022-02-24T20:44:11.772Z</time>
      </trkpt>
      <trkpt lat="36.15612" lon="33.37418">
        <ele>28.273577</ele>
        <time>2022-02-24T20:44:36.313Z</time>
      </trkpt>
      <trkpt lat="36.15622" lon="33.37373">
        <ele>26.969798</ele>
        <time>2022-02-24T20:44:43.929Z</time>
      </trkpt>
      <trkpt lat="36.15603" lon="33.3705">
        <ele>19.7182</ele>
        <time>2022-02-24T20:45:40.075Z</time>
      </trkpt>
      <trkpt lat="36.15597" lon="33.36985">
        <ele>18.316709</ele>
        <time>2022-02-24T20:45:51.166Z</time>
      </trkpt>
      <trkpt lat="36.1559" lon="33.36974">
        <ele>18.008866</ele>
        <time>2022-02-24T20:45:53.427Z</time>
      </trkpt>
      <trkpt lat="36.15582" lon="33.36955">
        <ele>17.543844</ele>
        <time>2022-02-24T20:45:56.920Z</time>
      </trkpt>
      <trkpt lat="36.15575" lon="33.36941">
        <ele>17.19364</ele>
        <time>2022-02-24T20:45:59.447Z</time>
      </trkpt>
      <trkpt lat="36.15565" lon="33.36902">
        <ele>16.311261</ele>
        <time>2022-02-24T20:46:06.058Z</time>
      </trkpt>
      <trkpt lat="36.15545" lon="33.36802">
        <ele>14.441853</ele>
        <time>2022-02-24T20:46:22.823Z</time>
      </trkpt>
      <trkpt lat="36.15543" lon="33.3679">
        <ele>14.293714</ele>
        <time>2022-02-24T20:46:24.917Z</time>
      </trkpt>
      <trkpt lat="36.15417" lon="33.36249">
        <ele>7.994824</ele>
        <time>2022-02-24T20:48:07.356Z</time>
      </trkpt>
      <trkpt lat="36.15398" lon="33.36205">
        <ele>7.486663</ele>
        <time>2022-02-24T20:48:16.372Z</time>
      </trkpt>
      <trkpt lat="36.15432" lon="33.35971">
        <ele>5.621575</ele>
        <time>2022-02-24T20:49:00.400Z</time>
      </trkpt>
      <trkpt lat="36.15438" lon="33.35939">
        <ele>5.588529</ele>
        <time>2022-02-24T20:49:07.213Z</time>
      </trkpt>
      <trkpt lat="36.15453" lon="33.35853">
        <ele>5.501837</ele>
        <time>2022-02-24T20:49:25.867Z</time>
      </trkpt>
      <trkpt lat="36.15456" lon="33.35834">
        <ele>5.481894</ele>
        <time>2022-02-24T20:49:30.364Z</time>
      </trkpt>
      <trkpt lat="36.15471" lon="33.35742">
        <ele>5.349136</ele>
        <time>2022-02-24T20:49:51.529Z</time>
      </trkpt>
      <trkpt lat="36.15489" lon="33.35629">
        <ele>5.002816</ele>
        <time>2022-02-24T20:50:15.914Z</time>
      </trkpt>
      <trkpt lat="36.15508" lon="33.35508">
        <ele>4.462402</ele>
        <time>2022-02-24T20:50:39.143Z</time>
      </trkpt>
      <trkpt lat="36.15525" lon="33.35396">
        <ele>3.543851</ele>
        <time>2022-02-24T20:51:00.436Z</time>
      </trkpt>
      <trkpt lat="36.15529" lon="33.35372">
        <ele>3.348468</ele>
        <time>2022-02-24T20:51:05.005Z</time>
      </trkpt>
      <trkpt lat="36.15527" lon="33.35344">
        <ele>3.119317</ele>
        <time>2022-02-24T20:51:10.229Z</time>
      </trkpt>
      <trkpt lat="36.15527" lon="33.35328">
        <ele>2.99307</ele>
        <time>2022-02-24T20:51:13.186Z</time>
      </trkpt>
      <trkpt lat="36.15521" lon="33.35225">
        <ele>2.443594</ele>
        <time>2022-02-24T20:51:32.438Z</time>
      </trkpt>
      <trkpt lat="36.15509" lon="33.35158">
        <ele>2.089872</ele>
        <time>2022-02-24T20:51:45.686Z</time>
      </trkpt>
      <trkpt lat="36.15507" lon="33.35149">
        <ele>2.038473</ele>
        <time>2022-02-24T20:51:47.625Z</time>
      </trkpt>
      <trkpt lat="36.15481" lon="33.35064">
        <ele>2.36318</ele>
        <time>2022-02-24T20:52:06.414Z</time>
      </trkpt>
      <trkpt lat="36.15423" lon="33.34959">
        <ele>3.966267</ele>
        <time>2022-02-24T20:52:43.123Z</time>
      </trkpt>
      <trkpt lat="36.15372" lon="33.34865">
        <ele>5.451602</ele>
        <time>2022-02-24T20:53:19.156Z</time>
      </trkpt>
      <trkpt lat="36.15355" lon="33.34828">
        <ele>6.032347</ele>
        <time>2022-02-24T20:53:32.377Z</time>
      </trkpt>
      <trkpt lat="36.15345" lon="33.34807">
        <ele>6.352878</ele>
        <time>2022-02-24T20:53:39.160Z</time>
      </trkpt>
      <trkpt lat="36.15322" lon="33.3473">
        <ele>7.454413</ele>
        <time>2022-02-24T20:54:01.660Z</time>
      </trkpt>
      <trkpt lat="36.15313" lon="33.34678">
        <ele>7.278468</ele>
        <time>2022-02-24T20:54:13.224Z</time>
      </trkpt>
      <trkpt lat="36.15306" lon="33.3461">
        <ele>6.721883</ele>
        <time>2022-02-24T20:54:25.234Z</time>
      </trkpt>
      <trkpt lat="36.15302" lon="33.34452">
        <ele>5.799344</ele>
        <time>2022-02-24T20:54:53.149Z</time>
      </trkpt>
      <trkpt lat="36.153" lon="33.34381">
        <ele>5.788945</ele>
        <time>2022-02-24T20:55:06.945Z</time>
      </trkpt>
      <trkpt lat="36.153" lon="33.34372">
        <ele>5.787501</ele>
        <time>2022-02-24T20:55:09.077Z</time>
      </trkpt>
      <trkpt lat="36.15298" lon="33.34346">
        <ele>5.783767</ele>
        <time>2022-02-24T20:55:14.726Z</time>
      </trkpt>
      <trkpt lat="36.15297" lon="33.34339">
        <ele>5.782688</ele>
        <time>2022-02-24T20:55:16.462Z</time>
      </trkpt>
      <trkpt lat="36.15289" lon="33.34218">
        <ele>6.904954</ele>
        <time>2022-02-24T20:55:49.530Z</time>
      </trkpt>
      <trkpt lat="36.15265" lon="33.33856">
        <ele>14.618521</ele>
        <time>2022-02-24T20:57:48.987Z</time>
      </trkpt>
      <trkpt lat="36.15264" lon="33.33838">
        <ele>15.031361</ele>
        <time>2022-02-24T20:57:54.067Z</time>
      </trkpt>
      <trkpt lat="36.15262" lon="33.33827">
        <ele>15.211142</ele>
        <time>2022-02-24T20:57:57.302Z</time>
      </trkpt>
      <trkpt lat="36.15255" lon="33.33785">
        <ele>15.493877</ele>
        <time>2022-02-24T20:58:10.638Z</time>
      </trkpt>
      <trkpt lat="36.15249" lon="33.33742">
        <ele>15.775488</ele>
        <time>2022-02-24T20:58:23.530Z</time>
      </trkpt>
      <trkpt lat="36.15233" lon="33.33676">
        <ele>16.231211</ele>
        <time>2022-02-24T20:58:38.559Z</time>
      </trkpt>
      <trkpt lat="36.15256" lon="33.33653">
        <ele>16.473023</ele>
        <time>2022-02-24T20:58:46.460Z</time>
      </trkpt>
      <trkpt lat="36.15272" lon="33.33644">
        <ele>16.613536</ele>
        <time>2022-02-24T20:58:51.118Z</time>
      </trkpt>
      <trkpt lat="36.15277" lon="33.33625">
        <ele>16.597499</ele>
        <time>2022-02-24T20:58:55.168Z</time>
      </trkpt>
      <trkpt lat="36.15275" lon="33.33588">
        <ele>16.498456</ele>
        <time>2022-02-24T20:59:02.907Z</time>
      </trkpt>
      <trkpt lat="36.15261" lon="33.33568">
        <ele>16.425074</ele>
        <time>2022-02-24T20:59:08.012Z</time>
      </trkpt>
      <trkpt lat="36.15178" lon="33.33504">
        <ele>16.095209</ele>
        <time>2022-02-24T20:59:35.557Z</time>
      </trkpt>
      <trkpt lat="36.15147" lon="33.33441">
        <ele>16.035864</ele>
        <time>2022-02-24T20:59:50.092Z</time>
      </trkpt>
      <trkpt lat="36.1514" lon="33.33426">
        <ele>16.036263</ele>
        <time>2022-02-24T20:59:53.890Z</time>
      </trkpt>
      <trkpt lat="36.15161" lon="33.33391">
        <ele>16.037283</ele>
        <time>2022-02-24T21:00:03.898Z</time>
      </trkpt>
      <trkpt lat="36.15167" lon="33.33373">
        <ele>16.037741</ele>
        <time>2022-02-24T21:00:08.524Z</time>
      </trkpt>
      <trkpt lat="36.15166" lon="33.33334">
        <ele>16.038651</ele>
        <time>2022-02-24T21:00:17.628Z</time>
      </trkpt>
      <trkpt lat="36.15153" lon="33.33313">
        <ele>16.039258</ele>
        <time>2022-02-24T21:00:23.714Z</time>
      </trkpt>
      <trkpt lat="36.15113" lon="33.33279">
        <ele>16.046762</ele>
        <time>2022-02-24T21:00:38.117Z</time>
      </trkpt>
      <trkpt lat="36.15086" lon="33.33234">
        <ele>16.057949</ele>
        <time>2022-02-24T21:00:51.269Z</time>
      </trkpt>
      <trkpt lat="36.15075" lon="33.3318">
        <ele>16.069172</ele>
        <time>2022-02-24T21:01:03.386Z</time>
      </trkpt>
      <trkpt lat="36.15067" lon="33.33164">
        <ele>16.072876</ele>
        <time>2022-02-24T21:01:07.321Z</time>
      </trkpt>
      <trkpt lat="36.15036" lon="33.33133">
        <ele>16.082639</ele>
        <time>2022-02-24T21:01:17.800Z</time>
      </trkpt>
      <trkpt lat="36.1501" lon="33.33068">
        <ele>16.41967</ele>
        <time>2022-02-24T21:01:33.938Z</time>
      </trkpt>
      <trkpt lat="36.14955" lon="33.3299">
        <ele>16.969933</ele>
        <time>2022-02-24T21:01:59.845Z</time>
      </trkpt>
      <trkpt lat="36.14925" lon="33.32886">
        <ele>17.988645</ele>
        <time>2022-02-24T21:02:31.200Z</time>
      </trkpt>
      <trkpt lat="36.14925" lon="33.32834">
        <ele>18.672268</ele>
        <time>2022-02-24T21:02:46.316Z</time>
      </trkpt>
      <trkpt lat="36.14925" lon="33.32807">
        <ele>19.030495</ele>
        <time>2022-02-24T21:02:53.884Z</time>
      </trkpt>
      <trkpt lat="36.14929" lon="33.32757">
        <ele>19.696155</ele>
        <time>2022-02-24T21:03:08.664Z</time>
      </trkpt>
      <trkpt lat="36.14929" lon="33.32746">
        <ele>19.841256</ele>
        <time>2022-02-24T21:03:12.414Z</time>
      </trkpt>
      <trkpt lat="36.14928" lon="33.32724">
        <ele>20.131369</ele>
        <time>2022-02-24T21:03:18.753Z</time>
      </trkpt>
      <trkpt lat="36.14911" lon="33.32678">
        <ele>20.633559</ele>
        <time>2022-02-24T21:03:33.669Z</time>
      </trkpt>
      <trkpt lat="36.14892" lon="33.32621">
        <ele>21.217579</ele>
        <time>2022-02-24T21:03:51.038Z</time>
      </trkpt>
      <trkpt lat="36.14875" lon="33.32594">
        <ele>21.536643</ele>
        <time>2022-02-24T21:03:59.565Z</time>
      </trkpt>
      <trkpt lat="36.14859" lon="33.32571">
        <ele>21.836571</ele>
        <time>2022-02-24T21:04:07.845Z</time>
      </trkpt>
      <trkpt lat="36.14845" lon="33.32532">
        <ele>22.240024</ele>
        <time>2022-02-24T21:04:18.302Z</time>
      </trkpt>
      <trkpt lat="36.14833" lon="33.32519">
        <ele>22.362297</ele>
        <time>2022-02-24T21:04:23.008Z</time>
      </trkpt>
      <trkpt lat="36.14806" lon="33.32508">
        <ele>22.501938</ele>
        <time>2022-02-24T21:04:31.691Z</time>
      </trkpt>
      <trkpt lat="36.1476" lon="33.32459">
        <ele>22.805589</ele>
        <time>2022-02-24T21:04:49.874Z</time>
      </trkpt>
      <trkpt lat="36.14647" lon="33.32319">
        <ele>23.715786</ele>
        <time>2022-02-24T21:05:37.867Z</time>
      </trkpt>
      <trkpt lat="36.1463" lon="33.3229">
        <ele>23.905254</ele>
        <time>2022-02-24T21:05:46.767Z</time>
      </trkpt>
      <trkpt lat="36.14621" lon="33.3225">
        <ele>24.125464</ele>
        <time>2022-02-24T21:05:56.821Z</time>
      </trkpt>
      <trkpt lat="36.14601" lon="33.32219">
        <ele>24.335273</ele>
        <time>2022-02-24T21:06:06.928Z</time>
      </trkpt>
      <trkpt lat="36.14593" lon="33.32211">
        <ele>24.433714</ele>
        <time>2022-02-24T21:06:10.783Z</time>
      </trkpt>
      <trkpt lat="36.14529" lon="33.32155">
        <ele>25.742582</ele>
        <time>2022-02-24T21:06:37.742Z</time>
      </trkpt>
      <trkpt lat="36.14509" lon="33.3213">
        <ele>26.214048</ele>
        <time>2022-02-24T21:06:48.047Z</time>
      </trkpt>
      <trkpt lat="36.145" lon="33.3212">
        <ele>26.417121</ele>
        <time>2022-02-24T21:06:52.917Z</time>
      </trkpt>
      <trkpt lat="36.14474" lon="33.32057">
        <ele>27.364041</ele>
        <time>2022-02-24T21:07:13.560Z</time>
      </trkpt>
      <trkpt lat="36.1446" lon="33.32012">
        <ele>28.482633</ele>
        <time>2022-02-24T21:07:28.500Z</time>
      </trkpt>
      <trkpt lat="36.14425" lon="33.31962">
        <ele>30.02097</ele>
        <time>2022-02-24T21:07:51.104Z</time>
      </trkpt>
      <trkpt lat="36.14367" lon="33.31905">
        <ele>32.164847</ele>
        <time>2022-02-24T21:08:23.696Z</time>
      </trkpt>
      <trkpt lat="36.1435" lon="33.31888">
        <ele>32.77639</ele>
        <time>2022-02-24T21:08:33.309Z</time>
      </trkpt>
      <trkpt lat="36.14304" lon="33.31843">
        <ele>34.369814</ele>
        <time>2022-02-24T21:08:57.532Z</time>
      </trkpt>
      <trkpt lat="36.14272" lon="33.31801">
        <ele>35.65257</ele>
        <time>2022-02-24T21:09:16.854Z</time>
      </trkpt>
      <trkpt lat="36.14232" lon="33.31778">
        <ele>36.853566</ele>
        <time>2022-02-24T21:09:34.653Z</time>
      </trkpt>
      <trkpt lat="36.14197" lon="33.31748">
        <ele>37.756114</ele>
        <time>2022-02-24T21:09:51.053Z</time>
      </trkpt>
      <trkpt lat="36.1418" lon="33.31737">
        <ele>38.043891</ele>
        <time>2022-02-24T21:09:58.725Z</time>
      </trkpt>
      <trkpt lat="36.14144" lon="33.31671">
        <ele>38.98557</ele>
        <time>2022-02-24T21:10:21.419Z</time>
      </trkpt>
      <trkpt lat="36.14127" lon="33.31658">
        <ele>39.277161</ele>
        <time>2022-02-24T21:10:28.095Z</time>
      </trkpt>
      <trkpt lat="36.14118" lon="33.31651">
        <ele>39.431683</ele>
        <time>2022-02-24T21:10:31.648Z</time>
      </trkpt>
      <trkpt lat="36.14084" lon="33.31625">
        <ele>40.014884</ele>
        <time>2022-02-24T21:10:44.570Z</time>
      </trkpt>
      <trkpt lat="36.1406" lon="33.31535">
        <ele>40.363094</ele>
        <time>2022-02-24T21:11:07.212Z</time>
      </trkpt>
      <trkpt lat="36.1401" lon="33.31485">
        <ele>40.599819</ele>
        <time>2022-02-24T21:11:23.566Z</time>
      </trkpt>
      <trkpt lat="36.1399" lon="33.31449">
        <ele>40.729441</ele>
        <time>2022-02-24T21:11:33.454Z</time>
      </trkpt>
      <trkpt lat="36.13937" lon="33.31411">
        <ele>42.207649</ele>
        <time>2022-02-24T21:11:56.841Z</time>
      </trkpt>
      <trkpt lat="36.13905" lon="33.31372">
        <ele>43.462187</ele>
        <time>2022-02-24T21:12:14.199Z</time>
      </trkpt>
      <trkpt lat="36.1394" lon="33.31333">
        <ele>44.785753</ele>
        <time>2022-02-24T21:12:34.612Z</time>
      </trkpt>
      <trkpt lat="36.13947" lon="33.31326">
        <ele>45.043943</ele>
        <time>2022-02-24T21:12:40.131Z</time>
      </trkpt>
      <trkpt lat="36.13919" lon="33.31295">
        <ele>46.221275</ele>
        <time>2022-02-24T21:12:57.876Z</time>
      </trkpt>
      <trkpt lat="36.13902" lon="33.31246">
        <ele>47.957265</ele>
        <time>2022-02-24T21:13:19.247Z</time>
      </trkpt>
      <trkpt lat="36.1391" lon="33.31185">
        <ele>49.954576</ele>
        <time>2022-02-24T21:13:45.813Z</time>
      </trkpt>
      <trkpt lat="36.13907" lon="33.31166">
        <ele>50.582405</ele>
        <time>2022-02-24T21:13:54.675Z</time>
      </trkpt>
      <trkpt lat="36.13889" lon="33.3114">
        <ele>51.684937</ele>
        <time>2022-02-24T21:14:06.494Z</time>
      </trkpt>
      <trkpt lat="36.1386" lon="33.31056">
        <ele>53.149149</ele>
        <time>2022-02-24T21:14:34.805Z</time>
      </trkpt>
      <trkpt lat="36.13845" lon="33.31036">
        <ele>53.230229</ele>
        <time>2022-02-24T21:14:42.578Z</time>
      </trkpt>
      <trkpt lat="36.13794" lon="33.30939">
        <ele>53.567766</ele>
        <time>2022-02-24T21:15:09.060Z</time>
      </trkpt>
      <trkpt lat="36.13738" lon="33.30852">
        <ele>51.178175</ele>
        <time>2022-02-24T21:15:28.323Z</time>
      </trkpt>
      <trkpt lat="36.13697" lon="33.30795">
        <ele>48.930426</ele>
        <time>2022-02-24T21:15:40.080Z</time>
      </trkpt>
      <trkpt lat="36.13652" lon="33.30736">
        <ele>46.472245</ele>
        <time>2022-02-24T21:15:52.674Z</time>
      </trkpt>
      <trkpt lat="36.13629" lon="33.30729">
        <ele>45.529486</ele>
        <time>2022-02-24T21:15:57.304Z</time>
      </trkpt>
      <trkpt lat="36.13595" lon="33.30737">
        <ele>44.177635</ele>
        <time>2022-02-24T21:16:03.946Z</time>
      </trkpt>
      <trkpt lat="36.1356" lon="33.30558">
        <ele>38.661056</ele>
        <time>2022-02-24T21:16:32.748Z</time>
      </trkpt>
      <trkpt lat="36.13517" lon="33.30435">
        <ele>35.244898</ele>
        <time>2022-02-24T21:16:54.427Z</time>
      </trkpt>
      <trkpt lat="36.13479" lon="33.30369">
        <ele>32.77528</ele>
        <time>2022-02-24T21:17:06.933Z</time>
      </trkpt>
      <trkpt lat="36.13472" lon="33.30356">
        <ele>32.222904</ele>
        <time>2022-02-24T21:17:09.236Z</time>
      </trkpt>
      <trkpt lat="36.13341" lon="33.30197">
        <ele>24.854416</ele>
        <time>2022-02-24T21:17:42.922Z</time>
      </trkpt>
      <trkpt lat="36.13311" lon="33.30148">
        <ele>23.200396</ele>
        <time>2022-02-24T21:17:52.421Z</time>
      </trkpt>
      <trkpt lat="36.13293" lon="33.3004">
        <ele>20.413502</ele>
        <time>2022-02-24T21:18:10.572Z</time>
      </trkpt>
      <trkpt lat="36.13297" lon="33.29986">
        <ele>19.758014</ele>
        <time>2022-02-24T21:18:20.137Z</time>
      </trkpt>
      <trkpt lat="36.13299" lon="33.2997">
        <ele>19.570005</ele>
        <time>2022-02-24T21:18:23.154Z</time>
      </trkpt>
      <trkpt lat="36.13323" lon="33.29907">
        <ele>18.735826</ele>
        <time>2022-02-24T21:18:36.194Z</time>
      </trkpt>
      <trkpt lat="36.1356" lon="33.29681">
        <ele>13.637883</ele>
        <time>2022-02-24T21:19:42.685Z</time>
      </trkpt>
      <trkpt lat="36.13581" lon="33.29645">
        <ele>12.656522</ele>
        <time>2022-02-24T21:19:49.685Z</time>
      </trkpt>
      <trkpt lat="36.13586" lon="33.29626">
        <ele>12.217302</ele>
        <time>2022-02-24T21:19:52.650Z</time>
      </trkpt>
      <trkpt lat="36.13592" lon="33.29593">
        <ele>11.485516</ele>
        <time>2022-02-24T21:19:57.951Z</time>
      </trkpt>
      <trkpt lat="36.13584" lon="33.29504">
        <ele>10.29403</ele>
        <time>2022-02-24T21:20:11.899Z</time>
      </trkpt>
      <trkpt lat="36.13568" lon="33.29472">
        <ele>10.143758</ele>
        <time>2022-02-24T21:20:18.341Z</time>
      </trkpt>
      <trkpt lat="36.13474" lon="33.29415">
        <ele>9.63535</ele>
        <time>2022-02-24T21:20:48.881Z</time>
      </trkpt>
      <trkpt lat="36.13461" lon="33.29401">
        <ele>9.864503</ele>
        <time>2022-02-24T21:20:54.638Z</time>
      </trkpt>
      <trkpt lat="36.13448" lon="33.29389">
        <ele>10.471915</ele>
        <time>2022-02-24T21:21:01.585Z</time>
      </trkpt>
      <trkpt lat="36.13431" lon="33.29367">
        <ele>11.382801</ele>
        <time>2022-02-24T21:21:10.943Z</time>
      </trkpt>
      <trkpt lat="36.13428" lon="33.29333">
        <ele>12.421976</ele>
        <time>2022-02-24T21:21:22.705Z</time>
      </trkpt>
      <trkpt lat="36.13434" lon="33.2927">
        <ele>14.335106</ele>
        <time>2022-02-24T21:21:46.261Z</time>
      </trkpt>
      <trkpt lat="36.13479" lon="33.29145">
        <ele>19.804135</ele>
        <time>2022-02-24T21:22:45.045Z</time>
      </trkpt>
      <trkpt lat="36.13484" lon="33.29104">
        <ele>21.867138</ele>
        <time>2022-02-24T21:23:03.798Z</time>
      </trkpt>
      <trkpt lat="36.13483" lon="33.29099">
        <ele>22.103757</ele>
        <time>2022-02-24T21:23:06.361Z</time>
      </trkpt>
      <trkpt lat="36.13502" lon="33.29075">
        <ele>23.732739</ele>
        <time>2022-02-24T21:23:21.400Z</time>
      </trkpt>
      <trkpt lat="36.13518" lon="33.29006">
        <ele>27.244162</ele>
        <time>2022-02-24T21:23:53.910Z</time>
      </trkpt>
      <trkpt lat="36.1352" lon="33.29003">
        <ele>27.529028</ele>
        <time>2022-02-24T21:23:57.319Z</time>
      </trkpt>
      <trkpt lat="36.13518" lon="33.2896">
        <ele>30.121052</ele>
        <time>2022-02-24T21:24:17.652Z</time>
      </trkpt>
      <trkpt lat="36.13514" lon="33.28925">
        <ele>32.341713</ele>
        <time>2022-02-24T21:24:35.737Z</time>
      </trkpt>
      <trkpt lat="36.13501" lon="33.28894">
        <ele>34.488109</ele>
        <time>2022-02-24T21:24:53.977Z</time>
      </trkpt>
      <trkpt lat="36.13453" lon="33.2883">
        <ele>39.817648</ele>
        <time>2022-02-24T21:25:40.600Z</time>
      </trkpt>
      <trkpt lat="36.13432" lon="33.28775">
        <ele>44.256047</ele>
        <time>2022-02-24T21:26:13.887Z</time>
      </trkpt>
      <trkpt lat="36.13432" lon="33.28767">
        <ele>44.880461</ele>
        <time>2022-02-24T21:26:18.350Z</time>
      </trkpt>
      <trkpt lat="36.13441" lon="33.28762">
        <ele>45.855589</ele>
        <time>2022-02-24T21:26:25.482Z</time>
      </trkpt>
      <trkpt lat="36.13467" lon="33.28765">
        <ele>48.339994</ele>
        <time>2022-02-24T21:26:45.051Z</time>
      </trkpt>
      <trkpt lat="36.13479" lon="33.28742">
        <ele>50.512272</ele>
        <time>2022-02-24T21:27:03.170Z</time>
      </trkpt>
      <trkpt lat="36.13466" lon="33.28716">
        <ele>52.910635</ele>
        <time>2022-02-24T21:27:23.451Z</time>
      </trkpt>
      <trkpt lat="36.13465" lon="33.28619">
        <ele>59.228427</ele>
        <time>2022-02-24T21:28:23.279Z</time>
      </trkpt>
      <trkpt lat="36.13469" lon="33.28574">
        <ele>60.997668</ele>
        <time>2022-02-24T21:28:48.023Z</time>
      </trkpt>
      <trkpt lat="36.13466" lon="33.28534">
        <ele>62.52334</ele>
        <time>2022-02-24T21:29:06.977Z</time>
      </trkpt>
      <trkpt lat="36.13463" lon="33.28499">
        <ele>63.894078</ele>
        <time>2022-02-24T21:29:23.150Z</time>
      </trkpt>
      <trkpt lat="36.13459" lon="33.28493">
        <ele>64.178383</ele>
        <time>2022-02-24T21:29:25.152Z</time>
      </trkpt>
      <trkpt lat="36.13446" lon="33.28461">
        <ele>65.56615</ele>
        <time>2022-02-24T21:29:36.707Z</time>
      </trkpt>
      <trkpt lat="36.13379" lon="33.28362">
        <ele>62.052939</ele>
        <time>2022-02-24T21:29:57.616Z</time>
      </trkpt>
      <trkpt lat="36.13365" lon="33.28356">
        <ele>61.23492</ele>
        <time>2022-02-24T21:30:00.130Z</time>
      </trkpt>
      <trkpt lat="36.1336" lon="33.28371">
        <ele>60.476337</ele>
        <time>2022-02-24T21:30:02.504Z</time>
      </trkpt>
      <trkpt lat="36.1336" lon="33.28378">
        <ele>60.161713</ele>
        <time>2022-02-24T21:30:03.394Z</time>
      </trkpt>
      <trkpt lat="36.13314" lon="33.28379">
        <ele>57.497316</ele>
        <time>2022-02-24T21:30:11.441Z</time>
      </trkpt>
      <trkpt lat="36.13307" lon="33.2835">
        <ele>55.992057</ele>
        <time>2022-02-24T21:30:15.725Z</time>
      </trkpt>
      <trkpt lat="36.13236" lon="33.2807">
        <ele>39.696209</ele>
        <time>2022-02-24T21:30:57.712Z</time>
      </trkpt>
      <trkpt lat="36.1322" lon="33.28043">
        <ele>38.604743</ele>
        <time>2022-02-24T21:31:03.028Z</time>
      </trkpt>
      <trkpt lat="36.13196" lon="33.28021">
        <ele>37.433183</ele>
        <time>2022-02-24T21:31:08.870Z</time>
      </trkpt>
      <trkpt lat="36.13172" lon="33.27958">
        <ele>35.15616</ele>
        <time>2022-02-24T21:31:21.602Z</time>
      </trkpt>
      <trkpt lat="36.13178" lon="33.27922">
        <ele>35.549883</ele>
        <time>2022-02-24T21:31:29.976Z</time>
      </trkpt>
      <trkpt lat="36.13202" lon="33.27891">
        <ele>36.474578</ele>
        <time>2022-02-24T21:31:42.255Z</time>
      </trkpt>
      <trkpt lat="36.13205" lon="33.27867">
        <ele>36.978961</ele>
        <time>2022-02-24T21:31:49.164Z</time>
      </trkpt>
      <trkpt lat="36.1319" lon="33.27847">
        <ele>37.559534</ele>
        <time>2022-02-24T21:31:59.560Z</time>
      </trkpt>
      <trkpt lat="36.13161" lon="33.27828">
        <ele>38.448648</ele>
        <time>2022-02-24T21:32:15.574Z</time>
      </trkpt>
      <trkpt lat="36.13141" lon="33.27786">
        <ele>39.47854</ele>
        <time>2022-02-24T21:32:33.329Z</time>
      </trkpt>
      <trkpt lat="36.1314" lon="33.27743">
        <ele>40.442484</ele>
        <time>2022-02-24T21:32:49.469Z</time>
      </trkpt>
      <trkpt lat="36.13145" lon="33.27699">
        <ele>41.467575</ele>
        <time>2022-02-24T21:33:06.239Z</time>
      </trkpt>
      <trkpt lat="36.13169" lon="33.27649">
        <ele>42.778676</ele>
        <time>2022-02-24T21:33:26.299Z</time>
      </trkpt>
      <trkpt lat="36.13179" lon="33.27614">
        <ele>43.610044</ele>
        <time>2022-02-24T21:33:37.770Z</time>
      </trkpt>
      <trkpt lat="36.13171" lon="33.27592">
        <ele>44.160623</ele>
        <time>2022-02-24T21:33:44.355Z</time>
      </trkpt>
      <trkpt lat="36.13145" lon="33.27559">
        <ele>44.716866</ele>
        <time>2022-02-24T21:33:55.315Z</time>
      </trkpt>
      <trkpt lat="36.13137" lon="33.27537">
        <ele>44.707368</ele>
        <time>2022-02-24T21:34:00.603Z</time>
      </trkpt>
      <trkpt lat="36.13146" lon="33.27485">
        <ele>44.686023</ele>
        <time>2022-02-24T21:34:12.513Z</time>
      </trkpt>
      <trkpt lat="36.13143" lon="33.27463">
        <ele>44.677274</ele>
        <time>2022-02-24T21:34:17.311Z</time>
      </trkpt>
      <trkpt lat="36.13117" lon="33.27442">
        <ele>44.661886</ele>
        <time>2022-02-24T21:34:24.971Z</time>
      </trkpt>
      <trkpt lat="36.13103" lon="33.27419">
        <ele>44.650213</ele>
        <time>2022-02-24T21:34:30.524Z</time>
      </trkpt>
      <trkpt lat="36.13093" lon="33.27386">
        <ele>44.632341</ele>
        <time>2022-02-24T21:34:37.232Z</time>
      </trkpt>
      <trkpt lat="36.13103" lon="33.27316">
        <ele>44.287114</ele>
        <time>2022-02-24T21:34:50.925Z</time>
      </trkpt>
      <trkpt lat="36.13099" lon="33.27271">
        <ele>44.065068</ele>
        <time>2022-02-24T21:34:59.805Z</time>
      </trkpt>
      <trkpt lat="36.13069" lon="33.2722">
        <ele>43.756819</ele>
        <time>2022-02-24T21:35:12.617Z</time>
      </trkpt>
      <trkpt lat="36.13061" lon="33.27182">
        <ele>43.561634</ele>
        <time>2022-02-24T21:35:20.995Z</time>
      </trkpt>
      <trkpt lat="36.13069" lon="33.27155">
        <ele>43.241782</ele>
        <time>2022-02-24T21:35:26.857Z</time>
      </trkpt>
      <trkpt lat="36.13134" lon="33.27053">
        <ele>41.706812</ele>
        <time>2022-02-24T21:35:50.408Z</time>
      </trkpt>
      <trkpt lat="36.1319" lon="33.27029">
        <ele>40.842538</ele>
        <time>2022-02-24T21:36:02.578Z</time>
      </trkpt>
      <trkpt lat="36.13199" lon="33.27019">
        <ele>40.680452</ele>
        <time>2022-02-24T21:36:05.096Z</time>
      </trkpt>
      <trkpt lat="36.13201" lon="33.27005">
        <ele>40.533914</ele>
        <time>2022-02-24T21:36:07.311Z</time>
      </trkpt>
      <trkpt lat="36.13195" lon="33.2699">
        <ele>40.358004</ele>
        <time>2022-02-24T21:36:09.978Z</time>
      </trkpt>
      <trkpt lat="36.13106" lon="33.26925">
        <ele>38.988443</ele>
        <time>2022-02-24T21:36:32.392Z</time>
      </trkpt>
      <trkpt lat="36.13088" lon="33.26906">
        <ele>38.682405</ele>
        <time>2022-02-24T21:36:38.726Z</time>
      </trkpt>
      <trkpt lat="36.13078" lon="33.26884">
        <ele>38.728478</ele>
        <time>2022-02-24T21:36:44.845Z</time>
      </trkpt>
      <trkpt lat="36.13077" lon="33.26859">
        <ele>39.067718</ele>
        <time>2022-02-24T21:36:51.978Z</time>
      </trkpt>
      <trkpt lat="36.13087" lon="33.26835">
        <ele>39.43642</ele>
        <time>2022-02-24T21:37:00.247Z</time>
      </trkpt>
      <trkpt lat="36.13113" lon="33.26806">
        <ele>40.021715</ele>
        <time>2022-02-24T21:37:13.550Z</time>
      </trkpt>
      <trkpt lat="36.13198" lon="33.26773">
        <ele>41.525658</ele>
        <time>2022-02-24T21:37:47.561Z</time>
      </trkpt>
      <trkpt lat="36.1322" lon="33.26751">
        <ele>41.586571</ele>
        <time>2022-02-24T21:37:57.352Z</time>
      </trkpt>
      <trkpt lat="36.13296" lon="33.2657">
        <ele>41.720757</ele>
        <time>2022-02-24T21:38:38.410Z</time>
      </trkpt>
      <trkpt lat="36.13295" lon="33.26542">
        <ele>41.895066</ele>
        <time>2022-02-24T21:38:43.409Z</time>
      </trkpt>
      <trkpt lat="36.13271" lon="33.26519">
        <ele>42.12904</ele>
        <time>2022-02-24T21:38:50.644Z</time>
      </trkpt>
      <trkpt lat="36.13268" lon="33.26498">
        <ele>42.260452</ele>
        <time>2022-02-24T21:38:55.044Z</time>
      </trkpt>
      <trkpt lat="36.13272" lon="33.26471">
        <ele>42.436909</ele>
        <time>2022-02-24T21:39:01.191Z</time>
      </trkpt>
      <trkpt lat="36.13333" lon="33.26286">
        <ele>45.542017</ele>
        <time>2022-02-24T21:40:02.483Z</time>
      </trkpt>
      <trkpt lat="36.13344" lon="33.26146">
        <ele>49.073521</ele>
        <time>2022-02-24T21:40:52.285Z</time>
      </trkpt>
      <trkpt lat="36.13347" lon="33.25886">
        <ele>58.83389</ele>
        <time>2022-02-24T21:42:25.467Z</time>
      </trkpt>
      <trkpt lat="36.13325" lon="33.25783">
        <ele>65.41121</ele>
        <time>2022-02-24T21:43:19.768Z</time>
      </trkpt>
      <trkpt lat="36.13326" lon="33.2571">
        <ele>70.578213</ele>
        <time>2022-02-24T21:44:05.349Z</time>
      </trkpt>
      <trkpt lat="36.13403" lon="33.25573">
        <ele>88.562381</ele>
        <time>2022-02-24T21:46:12.236Z</time>
      </trkpt>
      <trkpt lat="36.1348" lon="33.25487">
        <ele>100.926539</ele>
        <time>2022-02-24T21:47:49.926Z</time>
      </trkpt>
      <trkpt lat="36.13499" lon="33.2545">
        <ele>104.874608</ele>
        <time>2022-02-24T21:48:19.448Z</time>
      </trkpt>
      <trkpt lat="36.13506" lon="33.25409">
        <ele>108.596756</ele>
        <time>2022-02-24T21:48:44.914Z</time>
      </trkpt>
      <trkpt lat="36.13505" lon="33.2528">
        <ele>115.985632</ele>
        <time>2022-02-24T21:49:48.656Z</time>
      </trkpt>
      <trkpt lat="36.13489" lon="33.25206">
        <ele>118.751756</ele>
        <time>2022-02-24T21:50:15.472Z</time>
      </trkpt>
      <trkpt lat="36.13491" lon="33.2515">
        <ele>120.820294</ele>
        <time>2022-02-24T21:50:32.697Z</time>
      </trkpt>
      <trkpt lat="36.13469" lon="33.25073">
        <ele>123.029603</ele>
        <time>2022-02-24T21:50:55.681Z</time>
      </trkpt>
      <trkpt lat="36.13422" lon="33.24978">
        <ele>125.913592</ele>
        <time>2022-02-24T21:51:30.051Z</time>
      </trkpt>
      <trkpt lat="36.13401" lon="33.24832">
        <ele>136.603595</ele>
        <time>2022-02-24T21:52:40.408Z</time>
      </trkpt>
      <trkpt lat="36.13379" lon="33.24781">
        <ele>141.711259</ele>
        <time>2022-02-24T21:53:26.203Z</time>
      </trkpt>
      <trkpt lat="36.13374" lon="33.24743">
        <ele>145.090125</ele>
        <time>2022-02-24T21:53:57.456Z</time>
      </trkpt>
      <trkpt lat="36.1339" lon="33.24697">
        <ele>150.718571</ele>
        <time>2022-02-24T21:54:40.406Z</time>
      </trkpt>
      <trkpt lat="36.13409" lon="33.24667">
        <ele>155.449313</ele>
        <time>2022-02-24T21:55:12.997Z</time>
      </trkpt>
      <trkpt lat="36.13426" lon="33.24665">
        <ele>157.963519</ele>
        <time>2022-02-24T21:55:33.379Z</time>
      </trkpt>
      <trkpt lat="36.13471" lon="33.24645">
        <ele>165.357306</ele>
        <time>2022-02-24T21:56:22.041Z</time>
      </trkpt>
      <trkpt lat="36.13493" lon="33.24627">
        <ele>169.350054</ele>
        <time>2022-02-24T21:56:49.655Z</time>
      </trkpt>
      <trkpt lat="36.13506" lon="33.24604">
        <ele>172.795118</ele>
        <time>2022-02-24T21:57:09.694Z</time>
      </trkpt>
      <trkpt lat="36.13507" lon="33.24562">
        <ele>175.709738</ele>
        <time>2022-02-24T21:57:40.825Z</time>
      </trkpt>
      <trkpt lat="36.13501" lon="33.24476">
        <ele>180.284292</ele>
        <time>2022-02-24T21:58:25.695Z</time>
      </trkpt>
      <trkpt lat="36.13421" lon="33.2328">
        <ele>203.236951</ele>
        <time>2022-02-24T22:04:35.922Z</time>
      </trkpt>
      <trkpt lat="36.13407" lon="33.23105">
        <ele>194.383887</ele>
        <time>2022-02-24T22:04:58.818Z</time>
      </trkpt>
      <trkpt lat="36.13377" lon="33.22656">
        <ele>179.891814</ele>
        <time>2022-02-24T22:06:24.504Z</time>
      </trkpt>
      <trkpt lat="36.13377" lon="33.22645">
        <ele>179.330835</ele>
        <time>2022-02-24T22:06:25.924Z</time>
      </trkpt>
      <trkpt lat="36.13372" lon="33.22624">
        <ele>178.276831</ele>
        <time>2022-02-24T22:06:28.785Z</time>
      </trkpt>
      <trkpt lat="36.13344" lon="33.22589">
        <ele>174.131805</ele>
        <time>2022-02-24T22:06:35.016Z</time>
      </trkpt>
      <trkpt lat="36.13334" lon="33.22571">
        <ele>171.403518</ele>
        <time>2022-02-24T22:06:37.670Z</time>
      </trkpt>
      <trkpt lat="36.1333" lon="33.22553">
        <ele>168.979337</ele>
        <time>2022-02-24T22:06:40.165Z</time>
      </trkpt>
      <trkpt lat="36.13311" lon="33.22515">
        <ele>163.344907</ele>
        <time>2022-02-24T22:06:45.656Z</time>
      </trkpt>
      <trkpt lat="36.13256" lon="33.22465">
        <ele>152.654082</ele>
        <time>2022-02-24T22:06:56.120Z</time>
      </trkpt>
      <trkpt lat="36.13187" lon="33.22427">
        <ele>147.617002</ele>
        <time>2022-02-24T22:07:08.831Z</time>
      </trkpt>
      <trkpt lat="36.13185" lon="33.22397">
        <ele>147.063438</ele>
        <time>2022-02-24T22:07:15.074Z</time>
      </trkpt>
      <trkpt lat="36.13202" lon="33.22354">
        <ele>146.202134</ele>
        <time>2022-02-24T22:07:26.433Z</time>
      </trkpt>
      <trkpt lat="36.13203" lon="33.22313">
        <ele>145.44491</ele>
        <time>2022-02-24T22:07:37.926Z</time>
      </trkpt>
      <trkpt lat="36.13179" lon="33.22285">
        <ele>144.702245</ele>
        <time>2022-02-24T22:07:49.691Z</time>
      </trkpt>
      <trkpt lat="36.13177" lon="33.22258">
        <ele>144.617632</ele>
        <time>2022-02-24T22:07:57.797Z</time>
      </trkpt>
      <trkpt lat="36.1319" lon="33.22238">
        <ele>144.543143</ele>
        <time>2022-02-24T22:08:06.540Z</time>
      </trkpt>
      <trkpt lat="36.13257" lon="33.2221">
        <ele>144.295701</ele>
        <time>2022-02-24T22:08:30.811Z</time>
      </trkpt>
      <trkpt lat="36.133" lon="33.22185">
        <ele>144.12654</ele>
        <time>2022-02-24T22:08:40.972Z</time>
      </trkpt>
      <trkpt lat="36.13326" lon="33.22158">
        <ele>142.787976</ele>
        <time>2022-02-24T22:08:47.113Z</time>
      </trkpt>
      <trkpt lat="36.13341" lon="33.22132">
        <ele>140.491572</ele>
        <time>2022-02-24T22:08:51.577Z</time>
      </trkpt>
      <trkpt lat="36.13337" lon="33.22117">
        <ele>139.36367</ele>
        <time>2022-02-24T22:08:53.716Z</time>
      </trkpt>
      <trkpt lat="36.13323" lon="33.22112">
        <ele>138.07785</ele>
        <time>2022-02-24T22:08:56.141Z</time>
      </trkpt>
      <trkpt lat="36.13294" lon="33.22118">
        <ele>135.437075</ele>
        <time>2022-02-24T22:09:01.032Z</time>
      </trkpt>
      <trkpt lat="36.13271" lon="33.22109">
        <ele>133.317236</ele>
        <time>2022-02-24T22:09:04.933Z</time>
      </trkpt>
      <trkpt lat="36.1324" lon="33.22081">
        <ele>129.954662</ele>
        <time>2022-02-24T22:09:11.077Z</time>
      </trkpt>
      <trkpt lat="36.13218" lon="33.22052">
        <ele>127.538919</ele>
        <time>2022-02-24T22:09:16.308Z</time>
      </trkpt>
      <trkpt lat="36.13188" lon="33.22032">
        <ele>125.767296</ele>
        <time>2022-02-24T22:09:21.692Z</time>
      </trkpt>
      <trkpt lat="36.13173" lon="33.22014">
        <ele>124.623021</ele>
        <time>2022-02-24T22:09:25.257Z</time>
      </trkpt>
      <trkpt lat="36.13145" lon="33.21924">
        <ele>120.457123</ele>
        <time>2022-02-24T22:09:39.255Z</time>
      </trkpt>
      <trkpt lat="36.13029" lon="33.21807">
        <ele>122.909255</ele>
        <time>2022-02-24T22:10:36.682Z</time>
      </trkpt>
      <trkpt lat="36.13033" lon="33.21788">
        <ele>123.477765</ele>
        <time>2022-02-24T22:10:46.173Z</time>
      </trkpt>
      <trkpt lat="36.13083" lon="33.21712">
        <ele>127.177515</ele>
        <time>2022-02-24T22:11:34.053Z</time>
      </trkpt>
      <trkpt lat="36.13099" lon="33.21673">
        <ele>129.297304</ele>
        <time>2022-02-24T22:11:54.187Z</time>
      </trkpt>
      <trkpt lat="36.13073" lon="33.21574">
        <ele>134.409308</ele>
        <time>2022-02-24T22:12:39.020Z</time>
      </trkpt>
      <trkpt lat="36.13091" lon="33.21512">
        <ele>138.075109</ele>
        <time>2022-02-24T22:13:08.842Z</time>
      </trkpt>
      <trkpt lat="36.13086" lon="33.21446">
        <ele>142.318331</ele>
        <time>2022-02-24T22:13:39.072Z</time>
      </trkpt>
      <trkpt lat="36.13115" lon="33.21376">
        <ele>147.357184</ele>
        <time>2022-02-24T22:14:20.450Z</time>
      </trkpt>
      <trkpt lat="36.13123" lon="33.21276">
        <ele>154.90159</ele>
        <time>2022-02-24T22:15:23.319Z</time>
      </trkpt>
      <trkpt lat="36.13155" lon="33.21259">
        <ele>158.614239</ele>
        <time>2022-02-24T22:15:54.014Z</time>
      </trkpt>
      <trkpt lat="36.13233" lon="33.21201">
        <ele>168.336692</ele>
        <time>2022-02-24T22:17:09.234Z</time>
      </trkpt>
      <trkpt lat="36.1325" lon="33.21199">
        <ele>169.768756</ele>
        <time>2022-02-24T22:17:21.119Z</time>
      </trkpt>
      <trkpt lat="36.13269" lon="33.21204">
        <ele>170.121341</ele>
        <time>2022-02-24T22:17:35.274Z</time>
      </trkpt>
      <trkpt lat="36.13354" lon="33.21262">
        <ele>171.789818</ele>
        <time>2022-02-24T22:18:19.391Z</time>
      </trkpt>
      <trkpt lat="36.13372" lon="33.21264">
        <ele>172.108728</ele>
        <time>2022-02-24T22:18:23.212Z</time>
      </trkpt>
      <trkpt lat="36.13385" lon="33.21255">
        <ele>172.362783</ele>
        <time>2022-02-24T22:18:25.955Z</time>
      </trkpt>
      <trkpt lat="36.13383" lon="33.21191">
        <ele>170.084314</ele>
        <time>2022-02-24T22:18:34.710Z</time>
      </trkpt>
      <trkpt lat="36.13399" lon="33.21164">
        <ele>167.131538</ele>
        <time>2022-02-24T22:18:39.157Z</time>
      </trkpt>
      <trkpt lat="36.13399" lon="33.21148">
        <ele>165.754849</ele>
        <time>2022-02-24T22:18:41.208Z</time>
      </trkpt>
      <trkpt lat="36.13386" lon="33.21117">
        <ele>162.67136</ele>
        <time>2022-02-24T22:18:45.762Z</time>
      </trkpt>
      <trkpt lat="36.13383" lon="33.21091">
        <ele>160.400341</ele>
        <time>2022-02-24T22:18:49.071Z</time>
      </trkpt>
      <trkpt lat="36.13409" lon="33.21038">
        <ele>154.925783</ele>
        <time>2022-02-24T22:18:57.060Z</time>
      </trkpt>
      <trkpt lat="36.13407" lon="33.21019">
        <ele>153.246789</ele>
        <time>2022-02-24T22:18:59.532Z</time>
      </trkpt>
      <trkpt lat="36.13393" lon="33.21002">
        <ele>151.47888</ele>
        <time>2022-02-24T22:19:02.611Z</time>
      </trkpt>
      <trkpt lat="36.13367" lon="33.20994">
        <ele>149.027875</ele>
        <time>2022-02-24T22:19:06.871Z</time>
      </trkpt>
      <trkpt lat="36.13339" lon="33.20971">
        <ele>146.007783</ele>
        <time>2022-02-24T22:19:12.194Z</time>
      </trkpt>
      <trkpt lat="36.13325" lon="33.20945">
        <ele>143.713627</ele>
        <time>2022-02-24T22:19:16.346Z</time>
      </trkpt>
      <trkpt lat="36.13333" lon="33.20885">
        <ele>139.184784</ele>
        <time>2022-02-24T22:19:24.875Z</time>
      </trkpt>
      <trkpt lat="36.133" lon="33.20853">
        <ele>136.671583</ele>
        <time>2022-02-24T22:19:32.604Z</time>
      </trkpt>
      <trkpt lat="36.13287" lon="33.20823">
        <ele>136.233725</ele>
        <time>2022-02-24T22:19:37.926Z</time>
      </trkpt>
      <trkpt lat="36.13265" lon="33.20734">
        <ele>135.028211</ele>
        <time>2022-02-24T22:19:54.952Z</time>
      </trkpt>
      <trkpt lat="36.1327" lon="33.20651">
        <ele>134.071231</ele>
        <time>2022-02-24T22:20:14.498Z</time>
      </trkpt>
      <trkpt lat="36.13283" lon="33.20617">
        <ele>134.054719</ele>
        <time>2022-02-24T22:20:24.070Z</time>
      </trkpt>
      <trkpt lat="36.1331" lon="33.20586">
        <ele>134.034201</ele>
        <time>2022-02-24T22:20:35.179Z</time>
      </trkpt>
      <trkpt lat="36.13325" lon="33.20533">
        <ele>134.009516</ele>
        <time>2022-02-24T22:20:47.443Z</time>
      </trkpt>
      <trkpt lat="36.13358" lon="33.20489">
        <ele>133.982914</ele>
        <time>2022-02-24T22:20:59.734Z</time>
      </trkpt>
      <trkpt lat="36.13359" lon="33.20463">
        <ele>133.757887</ele>
        <time>2022-02-24T22:21:04.616Z</time>
      </trkpt>
      <trkpt lat="36.1335" lon="33.20454">
        <ele>133.508691</ele>
        <time>2022-02-24T22:21:07.151Z</time>
      </trkpt>
      <trkpt lat="36.13217" lon="33.20418">
        <ele>130.536059</ele>
        <time>2022-02-24T22:21:34.715Z</time>
      </trkpt>
      <trkpt lat="36.13198" lon="33.20397">
        <ele>129.942956</ele>
        <time>2022-02-24T22:21:40.119Z</time>
      </trkpt>
      <trkpt lat="36.13184" lon="33.20337">
        <ele>128.612362</ele>
        <time>2022-02-24T22:21:50.259Z</time>
      </trkpt>
      <trkpt lat="36.13171" lon="33.20318">
        <ele>128.048368</ele>
        <time>2022-02-24T22:21:54.402Z</time>
      </trkpt>
      <trkpt lat="36.13087" lon="33.20288">
        <ele>125.723294</ele>
        <time>2022-02-24T22:22:11.464Z</time>
      </trkpt>
      <trkpt lat="36.13062" lon="33.20264">
        <ele>125.141448</ele>
        <time>2022-02-24T22:22:18.069Z</time>
      </trkpt>
      <trkpt lat="36.13045" lon="33.20189">
        <ele>124.755454</ele>
        <time>2022-02-24T22:22:32.193Z</time>
      </trkpt>
      <trkpt lat="36.12981" lon="33.2013">
        <ele>124.268578</ele>
        <time>2022-02-24T22:22:51.005Z</time>
      </trkpt>
      <trkpt lat="36.12973" lon="33.20106">
        <ele>124.136526</ele>
        <time>2022-02-24T22:22:57.411Z</time>
      </trkpt>
      <trkpt lat="36.12974" lon="33.2002">
        <ele>127.764101</ele>
        <time>2022-02-24T22:23:26.759Z</time>
      </trkpt>
      <trkpt lat="36.13006" lon="33.19935">
        <ele>131.875666</ele>
        <time>2022-02-24T22:24:11.063Z</time>
      </trkpt>
      <trkpt lat="36.12967" lon="33.19861">
        <ele>136.931207</ele>
        <time>2022-02-24T22:24:58.286Z</time>
      </trkpt>
      <trkpt lat="36.12965" lon="33.19785">
        <ele>142.41026</ele>
        <time>2022-02-24T22:25:43.837Z</time>
      </trkpt>
      <trkpt lat="36.1302" lon="33.19583">
        <ele>156.060806</ele>
        <time>2022-02-24T22:27:43.062Z</time>
      </trkpt>
      <trkpt lat="36.13019" lon="33.19482">
        <ele>161.743605</ele>
        <time>2022-02-24T22:28:27.155Z</time>
      </trkpt>
      <trkpt lat="36.13032" lon="33.19465">
        <ele>162.653292</ele>
        <time>2022-02-24T22:28:36.487Z</time>
      </trkpt>
      <trkpt lat="36.13084" lon="33.19446">
        <ele>163.777297</ele>
        <time>2022-02-24T22:29:00.516Z</time>
      </trkpt>
      <trkpt lat="36.13181" lon="33.19349">
        <ele>166.069325</ele>
        <time>2022-02-24T22:29:40.374Z</time>
      </trkpt>
      <trkpt lat="36.13265" lon="33.19328">
        <ele>163.999595</ele>
        <time>2022-02-24T22:30:00.522Z</time>
      </trkpt>
      <trkpt lat="36.13353" lon="33.19289">
        <ele>161.306791</ele>
        <time>2022-02-24T22:30:18.208Z</time>
      </trkpt>
      <trkpt lat="36.13385" lon="33.19287">
        <ele>158.337274</ele>
        <time>2022-02-24T22:30:23.797Z</time>
      </trkpt>
      <trkpt lat="36.13412" lon="33.19298">
        <ele>155.705195</ele>
        <time>2022-02-24T22:30:28.617Z</time>
      </trkpt>
      <trkpt lat="36.13471" lon="33.19353">
        <ele>148.861739</ele>
        <time>2022-02-24T22:30:40.672Z</time>
      </trkpt>
      <trkpt lat="36.13502" lon="33.19352">
        <ele>146.007229</ele>
        <time>2022-02-24T22:30:45.549Z</time>
      </trkpt>
      <trkpt lat="36.13518" lon="33.19322">
        <ele>141.968796</ele>
        <time>2022-02-24T22:30:50.193Z</time>
      </trkpt>
      <trkpt lat="36.13504" lon="33.19234">
        <ele>130.86407</ele>
        <time>2022-02-24T22:31:01.349Z</time>
      </trkpt>
      <trkpt lat="36.13524" lon="33.1912">
        <ele>116.242557</ele>
        <time>2022-02-24T22:31:15.947Z</time>
      </trkpt>
      <trkpt lat="36.13553" lon="33.18853">
        <ele>83.227837</ele>
        <time>2022-02-24T22:31:49.751Z</time>
      </trkpt>
      <trkpt lat="36.13548" lon="33.18808">
        <ele>78.107545</ele>
        <time>2022-02-24T22:31:55.527Z</time>
      </trkpt>
      <trkpt lat="36.13523" lon="33.18798">
        <ele>74.54649</ele>
        <time>2022-02-24T22:31:59.547Z</time>
      </trkpt>
      <trkpt lat="36.1348" lon="33.18841">
        <ele>66.839892</ele>
        <time>2022-02-24T22:32:08.267Z</time>
      </trkpt>
      <trkpt lat="36.1346" lon="33.18841">
        <ele>64.052744</ele>
        <time>2022-02-24T22:32:11.508Z</time>
      </trkpt>
      <trkpt lat="36.13449" lon="33.18824">
        <ele>62.009087</ele>
        <time>2022-02-24T22:32:14.262Z</time>
      </trkpt>
      <trkpt lat="36.13452" lon="33.18795">
        <ele>59.263229</ele>
        <time>2022-02-24T22:32:17.964Z</time>
      </trkpt>
      <trkpt lat="36.13496" lon="33.18704">
        <ele>49.225549</ele>
        <time>2022-02-24T22:32:31.591Z</time>
      </trkpt>
      <trkpt lat="36.13494" lon="33.18682">
        <ele>47.081083</ele>
        <time>2022-02-24T22:32:34.504Z</time>
      </trkpt>
      <trkpt lat="36.13458" lon="33.18623">
        <ele>40.774873</ele>
        <time>2022-02-24T22:32:44.106Z</time>
      </trkpt>
      <trkpt lat="36.13444" lon="33.18569">
        <ele>36.542913</ele>
        <time>2022-02-24T22:32:51.661Z</time>
      </trkpt>
      <trkpt lat="36.13433" lon="33.18464">
        <ele>28.726018</ele>
        <time>2022-02-24T22:33:05.853Z</time>
      </trkpt>
      <trkpt lat="36.13439" lon="33.18415">
        <ele>25.512826</ele>
        <time>2022-02-24T22:33:12.659Z</time>
      </trkpt>
      <trkpt lat="36.13455" lon="33.18394">
        <ele>23.976621</ele>
        <time>2022-02-24T22:33:16.621Z</time>
      </trkpt>
      <trkpt lat="36.13488" lon="33.18384">
        <ele>21.687491</ele>
        <time>2022-02-24T22:33:22.584Z</time>
      </trkpt>
      <trkpt lat="36.13499" lon="33.18349">
        <ele>19.670829</ele>
        <time>2022-02-24T22:33:27.875Z</time>
      </trkpt>
      <trkpt lat="36.13467" lon="33.18205">
        <ele>12.94263</ele>
        <time>2022-02-24T22:33:49.255Z</time>
      </trkpt>
      <trkpt lat="36.13471" lon="33.18121">
        <ele>10.21852</ele>
        <time>2022-02-24T22:34:01.920Z</time>
      </trkpt>
      <trkpt lat="36.13484" lon="33.18011">
        <ele>7.328122</ele>
        <time>2022-02-24T22:34:20.182Z</time>
      </trkpt>
      <trkpt lat="36.13511" lon="33.17861">
        <ele>5.76015</ele>
        <time>2022-02-24T22:34:48.521Z</time>
      </trkpt>
      <trkpt lat="36.13532" lon="33.17748">
        <ele>5.058108</ele>
        <time>2022-02-24T22:35:12.053Z</time>
      </trkpt>
      <trkpt lat="36.13547" lon="33.17663">
        <ele>4.708137</ele>
        <time>2022-02-24T22:35:28.978Z</time>
      </trkpt>
      <trkpt lat="36.13554" lon="33.17628">
        <ele>4.560029</ele>
        <time>2022-02-24T22:35:36.248Z</time>
      </trkpt>
      <trkpt lat="36.13557" lon="33.17608">
        <ele>4.479341</ele>
        <time>2022-02-24T22:35:40.270Z</time>
      </trkpt>
      <trkpt lat="36.13564" lon="33.17557">
        <ele>4.441213</ele>
        <time>2022-02-24T22:35:50.855Z</time>
      </trkpt>
      <trkpt lat="36.13583" lon="33.17431">
        <ele>4.350479</ele>
        <time>2022-02-24T22:36:18.823Z</time>
      </trkpt>
      <trkpt lat="36.13662" lon="33.1691">
        <ele>4.349371</ele>
        <time>2022-02-24T22:38:13.728Z</time>
      </trkpt>
      <trkpt lat="36.1369" lon="33.1677">
        <ele>4.025605</ele>
        <time>2022-02-24T22:38:43.003Z</time>
      </trkpt>
      <trkpt lat="36.13732" lon="33.16632">
        <ele>3.881829</ele>
        <time>2022-02-24T22:39:13.254Z</time>
      </trkpt>
      <trkpt lat="36.1378" lon="33.16484">
        <ele>4.039541</ele>
        <time>2022-02-24T22:39:48.329Z</time>
      </trkpt>
      <trkpt lat="36.13866" lon="33.16222">
        <ele>5.782805</ele>
        <time>2022-02-24T22:40:57.236Z</time>
      </trkpt>
      <trkpt lat="36.13902" lon="33.16048">
        <ele>7.360209</ele>
        <time>2022-02-24T22:41:45.329Z</time>
      </trkpt>
      <trkpt lat="36.13909" lon="33.15963">
        <ele>8.129105</ele>
        <time>2022-02-24T22:42:08.207Z</time>
      </trkpt>
      <trkpt lat="36.13913" lon="33.1589">
        <ele>8.787691</ele>
        <time>2022-02-24T22:42:26.730Z</time>
      </trkpt>
      <trkpt lat="36.13913" lon="33.15884">
        <ele>8.784625</ele>
        <time>2022-02-24T22:42:28.234Z</time>
      </trkpt>
      <trkpt lat="36.13914" lon="33.15765">
        <ele>8.724116</ele>
        <time>2022-02-24T22:42:55.073Z</time>
      </trkpt>
      <trkpt lat="36.13918" lon="33.15447">
        <ele>7.508234</ele>
        <time>2022-02-24T22:43:56.760Z</time>
      </trkpt>
      <trkpt lat="36.13917" lon="33.15432">
        <ele>7.452661</ele>
        <time>2022-02-24T22:43:59.684Z</time>
      </trkpt>
      <trkpt lat="36.13895" lon="33.15061">
        <ele>6.412925</ele>
        <time>2022-02-24T22:45:15.666Z</time>
      </trkpt>
      <trkpt lat="36.13889" lon="33.1496">
        <ele>6.027182</ele>
        <time>2022-02-24T22:45:36.740Z</time>
      </trkpt>
      <trkpt lat="36.13885" lon="33.14923">
        <ele>5.80245</ele>
        <time>2022-02-24T22:45:44.353Z</time>
      </trkpt>
      <trkpt lat="36.13881" lon="33.14878">
        <ele>5.530645</ele>
        <time>2022-02-24T22:45:53.303Z</time>
      </trkpt>
      <trkpt lat="36.13879" lon="33.14853">
        <ele>5.383293</ele>
        <time>2022-02-24T22:45:57.570Z</time>
      </trkpt>
      <trkpt lat="36.13856" lon="33.14698">
        <ele>4.403474</ele>
        <time>2022-02-24T22:46:27.009Z</time>
      </trkpt>
      <trkpt lat="36.13856" lon="33.14692">
        <ele>4.367913</ele>
        <time>2022-02-24T22:46:27.827Z</time>
      </trkpt>
      <trkpt lat="36.13825" lon="33.1448">
        <ele>3.524615</ele>
        <time>2022-02-24T22:47:11.063Z</time>
      </trkpt>
      <trkpt lat="36.13802" lon="33.14314">
        <ele>3.496951</ele>
        <time>2022-02-24T22:47:49.425Z</time>
      </trkpt>
      <trkpt lat="36.13786" lon="33.14224">
        <ele>3.359423</ele>
        <time>2022-02-24T22:48:08.720Z</time>
      </trkpt>
      <trkpt lat="36.13783" lon="33.14205">
        <ele>3.330447</ele>
        <time>2022-02-24T22:48:12.422Z</time>
      </trkpt>
      <trkpt lat="36.13758" lon="33.14121">
        <ele>3.203516</ele>
        <time>2022-02-24T22:48:30.455Z</time>
      </trkpt>
      <trkpt lat="36.13673" lon="33.13848">
        <ele>3.105334</ele>
        <time>2022-02-24T22:49:33.767Z</time>
      </trkpt>
      <trkpt lat="36.1364" lon="33.13725">
        <ele>3.110678</ele>
        <time>2022-02-24T22:50:01.848Z</time>
      </trkpt>
      <trkpt lat="36.13619" lon="33.13628">
        <ele>3.042713</ele>
        <time>2022-02-24T22:50:22.618Z</time>
      </trkpt>
      <trkpt lat="36.13597" lon="33.13481">
        <ele>2.962661</ele>
        <time>2022-02-24T22:50:54.154Z</time>
      </trkpt>
      <trkpt lat="36.13589" lon="33.13444">
        <ele>3.111347</ele>
        <time>2022-02-24T22:51:02.669Z</time>
      </trkpt>
      <trkpt lat="36.13569" lon="33.13348">
        <ele>3.495105</ele>
        <time>2022-02-24T22:51:26.521Z</time>
      </trkpt>
      <trkpt lat="36.13546" lon="33.13253">
        <ele>3.87453</ele>
        <time>2022-02-24T22:51:50.494Z</time>
      </trkpt>
      <trkpt lat="36.13525" lon="33.13183">
        <ele>4.154811</ele>
        <time>2022-02-24T22:52:08.192Z</time>
      </trkpt>
      <trkpt lat="36.13494" lon="33.13078">
        <ele>4.578021</ele>
        <time>2022-02-24T22:52:33.805Z</time>
      </trkpt>
      <trkpt lat="36.13473" lon="33.1301">
        <ele>4.762801</ele>
        <time>2022-02-24T22:52:50.568Z</time>
      </trkpt>
      <trkpt lat="36.13433" lon="33.12933">
        <ele>4.969463</ele>
        <time>2022-02-24T22:53:10.829Z</time>
      </trkpt>
      <trkpt lat="36.13411" lon="33.12896">
        <ele>5.073252</ele>
        <time>2022-02-24T22:53:21.400Z</time>
      </trkpt>
      <trkpt lat="36.13399" lon="33.12877">
        <ele>5.126299</ele>
        <time>2022-02-24T22:53:27.111Z</time>
      </trkpt>
      <trkpt lat="36.13391" lon="33.12864">
        <ele>5.17064</ele>
        <time>2022-02-24T22:53:30.980Z</time>
      </trkpt>
      <trkpt lat="36.13124" lon="33.12502">
        <ele>6.41277</ele>
        <time>2022-02-24T22:55:22.326Z</time>
      </trkpt>
      <trkpt lat="36.13073" lon="33.12427">
        <ele>6.668305</ele>
        <time>2022-02-24T22:55:44.966Z</time>
      </trkpt>
      <trkpt lat="36.13033" lon="33.12361">
        <ele>6.823539</ele>
        <time>2022-02-24T22:56:03.588Z</time>
      </trkpt>
      <trkpt lat="36.1301" lon="33.12317">
        <ele>6.786441</ele>
        <time>2022-02-24T22:56:15.193Z</time>
      </trkpt>
      <trkpt lat="36.1299" lon="33.12256">
        <ele>6.739695</ele>
        <time>2022-02-24T22:56:29.288Z</time>
      </trkpt>
      <trkpt lat="36.12978" lon="33.12193">
        <ele>6.693961</ele>
        <time>2022-02-24T22:56:42.655Z</time>
      </trkpt>
      <trkpt lat="36.12974" lon="33.12055">
        <ele>6.369426</ele>
        <time>2022-02-24T22:57:10.002Z</time>
      </trkpt>
      <trkpt lat="36.12962" lon="33.11982">
        <ele>6.171537</ele>
        <time>2022-02-24T22:57:24.947Z</time>
      </trkpt>
      <trkpt lat="36.12791" lon="33.11384">
        <ele>7.436173</ele>
        <time>2022-02-24T22:59:50.307Z</time>
      </trkpt>
      <trkpt lat="36.12755" lon="33.11275">
        <ele>7.371464</ele>
        <time>2022-02-24T23:00:14.286Z</time>
      </trkpt>
      <trkpt lat="36.12735" lon="33.1123">
        <ele>7.232896</ele>
        <time>2022-02-24T23:00:24.759Z</time>
      </trkpt>
      <trkpt lat="36.12715" lon="33.11201">
        <ele>7.131091</ele>
        <time>2022-02-24T23:00:32.280Z</time>
      </trkpt>
      <trkpt lat="36.1271" lon="33.11189">
        <ele>7.096541</ele>
        <time>2022-02-24T23:00:34.893Z</time>
      </trkpt>
      <trkpt lat="36.12681" lon="33.11135">
        <ele>6.919389</ele>
        <time>2022-02-24T23:00:48.192Z</time>
      </trkpt>
      <trkpt lat="36.12544" lon="33.10877">
        <ele>6.814056</ele>
        <time>2022-02-24T23:01:54.316Z</time>
      </trkpt>
      <trkpt lat="36.12315" lon="33.10474">
        <ele>7.063147</ele>
        <time>2022-02-24T23:03:41.112Z</time>
      </trkpt>
      <trkpt lat="36.12236" lon="33.10344">
        <ele>7.60275</ele>
        <time>2022-02-24T23:04:18.655Z</time>
      </trkpt>
      <trkpt lat="36.12188" lon="33.10266">
        <ele>8.165284</ele>
        <time>2022-02-24T23:04:42.527Z</time>
      </trkpt>
      <trkpt lat="36.12145" lon="33.10206">
        <ele>8.780838</ele>
        <time>2022-02-24T23:05:02.845Z</time>
      </trkpt>
      <trkpt lat="36.12033" lon="33.10072">
        <ele>10.998909</ele>
        <time>2022-02-24T23:05:55.014Z</time>
      </trkpt>
      <trkpt lat="36.115" lon="33.09488">
        <ele>26.839345</ele>
        <time>2022-02-24T23:10:21.776Z</time>
      </trkpt>
      <trkpt lat="36.11208" lon="33.09171">
        <ele>36.307822</ele>
        <time>2022-02-24T23:12:50.114Z</time>
      </trkpt>
      <trkpt lat="36.11153" lon="33.09104">
        <ele>38.805634</ele>
        <time>2022-02-24T23:13:21.183Z</time>
      </trkpt>
      <trkpt lat="36.11109" lon="33.09041">
        <ele>40.955506</ele>
        <time>2022-02-24T23:13:51.457Z</time>
      </trkpt>
      <trkpt lat="36.11055" lon="33.08955">
        <ele>44.041475</ele>
        <time>2022-02-24T23:14:30.765Z</time>
      </trkpt>
      <trkpt lat="36.11053" lon="33.08951">
        <ele>44.188418</ele>
        <time>2022-02-24T23:14:33.891Z</time>
      </trkpt>
      <trkpt lat="36.1092" lon="33.08645">
        <ele>53.653764</ele>
        <time>2022-02-24T23:16:32.018Z</time>
      </trkpt>
      <trkpt lat="36.10861" lon="33.08441">
        <ele>60.576385</ele>
        <time>2022-02-24T23:17:47.844Z</time>
      </trkpt>
      <trkpt lat="36.10841" lon="33.0839">
        <ele>63.998021</ele>
        <time>2022-02-24T23:18:14.541Z</time>
      </trkpt>
      <trkpt lat="36.10807" lon="33.08357">
        <ele>67.66806</ele>
        <time>2022-02-24T23:18:43.340Z</time>
      </trkpt>
      <trkpt lat="36.10767" lon="33.08337">
        <ele>71.260328</ele>
        <time>2022-02-24T23:19:14.577Z</time>
      </trkpt>
      <trkpt lat="36.10731" lon="33.08332">
        <ele>74.353717</ele>
        <time>2022-02-24T23:19:43.233Z</time>
      </trkpt>
      <trkpt lat="36.10646" lon="33.08331">
        <ele>80.726267</ele>
        <time>2022-02-24T23:20:44.256Z</time>
      </trkpt>
      <trkpt lat="36.10602" lon="33.08311">
        <ele>84.148389</ele>
        <time>2022-02-24T23:21:15.235Z</time>
      </trkpt>
      <trkpt lat="36.10399" lon="33.08158">
        <ele>96.104929</ele>
        <time>2022-02-24T23:23:09.660Z</time>
      </trkpt>
      <trkpt lat="36.10348" lon="33.08098">
        <ele>96.873024</ele>
        <time>2022-02-24T23:23:36.973Z</time>
      </trkpt>
      <trkpt lat="36.10243" lon="33.0789">
        <ele>92.837553</ele>
        <time>2022-02-24T23:24:23.647Z</time>
      </trkpt>
      <trkpt lat="36.10192" lon="33.07831">
        <ele>88.613443</ele>
        <time>2022-02-24T23:24:35.486Z</time>
      </trkpt>
      <trkpt lat="36.1005" lon="33.07707">
        <ele>69.451254</ele>
        <time>2022-02-24T23:25:03.043Z</time>
      </trkpt>
      <trkpt lat="36.09951" lon="33.07592">
        <ele>56.42587</ele>
        <time>2022-02-24T23:25:24.940Z</time>
      </trkpt>
      <trkpt lat="36.09901" lon="33.07507">
        <ele>49.208787</ele>
        <time>2022-02-24T23:25:39.745Z</time>
      </trkpt>
      <trkpt lat="36.09812" lon="33.07309">
        <ele>41.441091</ele>
        <time>2022-02-24T23:26:14.230Z</time>
      </trkpt>
      <trkpt lat="36.0972" lon="33.07147">
        <ele>34.792135</ele>
        <time>2022-02-24T23:26:44.231Z</time>
      </trkpt>
      <trkpt lat="36.09673" lon="33.07041">
        <ele>30.783631</ele>
        <time>2022-02-24T23:27:02.306Z</time>
      </trkpt>
      <trkpt lat="36.09649" lon="33.06974">
        <ele>28.373393</ele>
        <time>2022-02-24T23:27:13.302Z</time>
      </trkpt>
      <trkpt lat="36.09609" lon="33.06742">
        <ele>22.279884</ele>
        <time>2022-02-24T23:27:50.666Z</time>
      </trkpt>
      <trkpt lat="36.09533" lon="33.0606">
        <ele>13.511075</ele>
        <time>2022-02-24T23:29:53.356Z</time>
      </trkpt>
      <trkpt lat="36.09524" lon="33.05931">
        <ele>12.688427</ele>
        <time>2022-02-24T23:30:17.284Z</time>
      </trkpt>
      <trkpt lat="36.09527" lon="33.05888">
        <ele>12.428069</ele>
        <time>2022-02-24T23:30:25.816Z</time>
      </trkpt>
      <trkpt lat="36.09537" lon="33.05839">
        <ele>12.126508</ele>
        <time>2022-02-24T23:30:36.026Z</time>
      </trkpt>
      <trkpt lat="36.09634" lon="33.0551">
        <ele>12.545525</ele>
        <time>2022-02-24T23:31:55.240Z</time>
      </trkpt>
      <trkpt lat="36.09652" lon="33.05429">
        <ele>12.62706</ele>
        <time>2022-02-24T23:32:13.135Z</time>
      </trkpt>
      <trkpt lat="36.0966" lon="33.05355">
        <ele>12.854929</ele>
        <time>2022-02-24T23:32:29.109Z</time>
      </trkpt>
      <trkpt lat="36.09659" lon="33.05341">
        <ele>12.909033</ele>
        <time>2022-02-24T23:32:31.995Z</time>
      </trkpt>
      <trkpt lat="36.09655" lon="33.05295">
        <ele>13.08441</ele>
        <time>2022-02-24T23:32:41.518Z</time>
      </trkpt>
      <trkpt lat="36.09622" lon="33.05091">
        <ele>16.60808</ele>
        <time>2022-02-24T23:33:35.619Z</time>
      </trkpt>
      <trkpt lat="36.09618" lon="33.05031">
        <ele>18.500339</ele>
        <time>2022-02-24T23:33:58.138Z</time>
      </trkpt>
      <trkpt lat="36.09623" lon="33.04411">
        <ele>52.667326</ele>
        <time>2022-02-24T23:39:17.434Z</time>
      </trkpt>
      <trkpt lat="36.09627" lon="33.04354">
        <ele>55.019305</ele>
        <time>2022-02-24T23:39:41.071Z</time>
      </trkpt>
      <trkpt lat="36.09718" lon="33.0399">
        <ele>56.353493</ele>
        <time>2022-02-24T23:41:10.155Z</time>
      </trkpt>
      <trkpt lat="36.09727" lon="33.03939">
        <ele>55.341274</ele>
        <time>2022-02-24T23:41:18.139Z</time>
      </trkpt>
      <trkpt lat="36.0973" lon="33.0387">
        <ele>53.897453</ele>
        <time>2022-02-24T23:41:28.250Z</time>
      </trkpt>
      <trkpt lat="36.09724" lon="33.03839">
        <ele>52.355459</ele>
        <time>2022-02-24T23:41:32.703Z</time>
      </trkpt>
      <trkpt lat="36.09693" lon="33.03663">
        <ele>43.606853</ele>
        <time>2022-02-24T23:41:57.924Z</time>
      </trkpt>
      <trkpt lat="36.09678" lon="33.03531">
        <ele>39.745843</ele>
        <time>2022-02-24T23:42:18.197Z</time>
      </trkpt>
      <trkpt lat="36.09681" lon="33.03487">
        <ele>38.510429</ele>
        <time>2022-02-24T23:42:25.653Z</time>
      </trkpt>
      <trkpt lat="36.09688" lon="33.03473">
        <ele>38.068867</ele>
        <time>2022-02-24T23:42:28.504Z</time>
      </trkpt>
      <trkpt lat="36.09718" lon="33.03439">
        <ele>36.680386</ele>
        <time>2022-02-24T23:42:37.395Z</time>
      </trkpt>
      <trkpt lat="36.09757" lon="33.03421">
        <ele>35.322907</ele>
        <time>2022-02-24T23:42:46.030Z</time>
      </trkpt>
      <trkpt lat="36.09787" lon="33.03417">
        <ele>34.307101</ele>
        <time>2022-02-24T23:42:52.294Z</time>
      </trkpt>
      <trkpt lat="36.09864" lon="33.03428">
        <ele>31.767461</ele>
        <time>2022-02-24T23:43:06.969Z</time>
      </trkpt>
      <trkpt lat="36.09894" lon="33.03427">
        <ele>30.44373</ele>
        <time>2022-02-24T23:43:12.529Z</time>
      </trkpt>
      <trkpt lat="36.09921" lon="33.03416">
        <ele>28.80257</ele>
        <time>2022-02-24T23:43:17.408Z</time>
      </trkpt>
      <trkpt lat="36.0994" lon="33.03401">
        <ele>27.438111</ele>
        <time>2022-02-24T23:43:21.425Z</time>
      </trkpt>
      <trkpt lat="36.0996" lon="33.03367">
        <ele>25.4234</ele>
        <time>2022-02-24T23:43:27.290Z</time>
      </trkpt>
      <trkpt lat="36.09968" lon="33.03334">
        <ele>23.779677</ele>
        <time>2022-02-24T23:43:32.053Z</time>
      </trkpt>
      <trkpt lat="36.09962" lon="33.0327">
        <ele>20.715573</ele>
        <time>2022-02-24T23:43:41.032Z</time>
      </trkpt>
      <trkpt lat="36.09951" lon="33.03241">
        <ele>19.850048</ele>
        <time>2022-02-24T23:43:45.706Z</time>
      </trkpt>
      <trkpt lat="36.09909" lon="33.03165">
        <ele>17.78924</ele>
        <time>2022-02-24T23:43:59.560Z</time>
      </trkpt>
      <trkpt lat="36.098" lon="33.02969">
        <ele>16.25038</ele>
        <time>2022-02-24T23:44:47.898Z</time>
      </trkpt>
      <trkpt lat="36.09774" lon="33.02913">
        <ele>16.627115</ele>
        <time>2022-02-24T23:45:07.338Z</time>
      </trkpt>
      <trkpt lat="36.09764" lon="33.0288">
        <ele>16.965422</ele>
        <time>2022-02-24T23:45:18.727Z</time>
      </trkpt>
      <trkpt lat="36.09758" lon="33.02836">
        <ele>17.700279</ele>
        <time>2022-02-24T23:45:32.708Z</time>
      </trkpt>
      <trkpt lat="36.09755" lon="33.02691">
        <ele>20.13582</ele>
        <time>2022-02-24T23:46:16.797Z</time>
      </trkpt>
      <trkpt lat="36.09793" lon="33.02706">
        <ele>20.439413</ele>
        <time>2022-02-24T23:46:29.697Z</time>
      </trkpt>
      <trkpt lat="36.09797" lon="33.02691">
        <ele>20.410273</ele>
        <time>2022-02-24T23:46:33.757Z</time>
      </trkpt>
      <trkpt lat="36.09827" lon="33.02632">
        <ele>20.278326</ele>
        <time>2022-02-24T23:46:49.179Z</time>
      </trkpt>
      <trkpt lat="36.09849" lon="33.02563">
        <ele>20.137686</ele>
        <time>2022-02-24T23:47:03.121Z</time>
      </trkpt>
      <trkpt lat="36.09856" lon="33.02523">
        <ele>20.096376</ele>
        <time>2022-02-24T23:47:10.800Z</time>
      </trkpt>
      <trkpt lat="36.09856" lon="33.02462">
        <ele>20.432016</ele>
        <time>2022-02-24T23:47:23.638Z</time>
      </trkpt>
      <trkpt lat="36.09862" lon="33.02422">
        <ele>20.655379</ele>
        <time>2022-02-24T23:47:33.491Z</time>
      </trkpt>
      <trkpt lat="36.0986" lon="33.02408">
        <ele>20.731567</ele>
        <time>2022-02-24T23:47:36.209Z</time>
      </trkpt>
      <trkpt lat="36.09944" lon="33.0234">
        <ele>21.789433</ele>
        <time>2022-02-24T23:48:11.633Z</time>
      </trkpt>
      <trkpt lat="36.09963" lon="33.02318">
        <ele>22.565736</ele>
        <time>2022-02-24T23:48:22.343Z</time>
      </trkpt>
      <trkpt lat="36.09984" lon="33.02278">
        <ele>23.679076</ele>
        <time>2022-02-24T23:48:38.948Z</time>
      </trkpt>
      <trkpt lat="36.10079" lon="33.02006">
        <ele>30.081349</ele>
        <time>2022-02-24T23:50:18.617Z</time>
      </trkpt>
      <trkpt lat="36.10092" lon="33.01959">
        <ele>31.006157</ele>
        <time>2022-02-24T23:50:31.610Z</time>
      </trkpt>
      <trkpt lat="36.10097" lon="33.01918">
        <ele>30.737143</ele>
        <time>2022-02-24T23:50:41.400Z</time>
      </trkpt>
      <trkpt lat="36.10101" lon="33.01858">
        <ele>30.353963</ele>
        <time>2022-02-24T23:50:53.783Z</time>
      </trkpt>
      <trkpt lat="36.10098" lon="33.01805">
        <ele>30.009622</ele>
        <time>2022-02-24T23:51:03.781Z</time>
      </trkpt>
      <trkpt lat="36.10086" lon="33.01737">
        <ele>29.427952</ele>
        <time>2022-02-24T23:51:15.686Z</time>
      </trkpt>
      <trkpt lat="36.10053" lon="33.01603">
        <ele>24.908258</ele>
        <time>2022-02-24T23:51:37.071Z</time>
      </trkpt>
      <trkpt lat="36.10042" lon="33.01541">
        <ele>22.822962</ele>
        <time>2022-02-24T23:51:46.513Z</time>
      </trkpt>
      <trkpt lat="36.10034" lon="33.0149">
        <ele>21.013033</ele>
        <time>2022-02-24T23:51:54.027Z</time>
      </trkpt>
      <trkpt lat="36.10031" lon="33.01452">
        <ele>19.643295</ele>
        <time>2022-02-24T23:51:59.510Z</time>
      </trkpt>
      <trkpt lat="36.10031" lon="33.01406">
        <ele>17.989225</ele>
        <time>2022-02-24T23:52:06.229Z</time>
      </trkpt>
      <trkpt lat="36.1004" lon="33.01342">
        <ele>15.658393</ele>
        <time>2022-02-24T23:52:15.974Z</time>
      </trkpt>
      <trkpt lat="36.10053" lon="33.01295">
        <ele>14.260326</ele>
        <time>2022-02-24T23:52:23.630Z</time>
      </trkpt>
      <trkpt lat="36.10097" lon="33.01162">
        <ele>13.013032</ele>
        <time>2022-02-24T23:52:49.977Z</time>
      </trkpt>
      <trkpt lat="36.10164" lon="33.00972">
        <ele>12.746675</ele>
        <time>2022-02-24T23:53:38.858Z</time>
      </trkpt>
      <trkpt lat="36.10195" lon="33.0089">
        <ele>12.860129</ele>
        <time>2022-02-24T23:53:58.569Z</time>
      </trkpt>
      <trkpt lat="36.10215" lon="33.00826">
        <ele>12.484248</ele>
        <time>2022-02-24T23:54:12.366Z</time>
      </trkpt>
      <trkpt lat="36.10222" lon="33.00782">
        <ele>12.241135</ele>
        <time>2022-02-24T23:54:21.000Z</time>
      </trkpt>
      <trkpt lat="36.10226" lon="33.00719">
        <ele>11.894162</ele>
        <time>2022-02-24T23:54:33.029Z</time>
      </trkpt>
      <trkpt lat="36.10225" lon="33.0065">
        <ele>11.431771</ele>
        <time>2022-02-24T23:54:45.625Z</time>
      </trkpt>
      <trkpt lat="36.10217" lon="33.00498">
        <ele>10.183134</ele>
        <time>2022-02-24T23:55:13.709Z</time>
      </trkpt>
      <trkpt lat="36.10225" lon="33.00402">
        <ele>9.828215</ele>
        <time>2022-02-24T23:55:32.771Z</time>
      </trkpt>
      <trkpt lat="36.10238" lon="33.00335">
        <ele>9.76857</ele>
        <time>2022-02-24T23:55:47.116Z</time>
      </trkpt>
      <trkpt lat="36.10265" lon="33.00241">
        <ele>9.714781</ele>
        <time>2022-02-24T23:56:09.459Z</time>
      </trkpt>
      <trkpt lat="36.10318" lon="33.00063">
        <ele>10.65123</ele>
        <time>2022-02-24T23:56:55.589Z</time>
      </trkpt>
      <trkpt lat="36.10326" lon="33.00022">
        <ele>10.853717</ele>
        <time>2022-02-24T23:57:05.710Z</time>
      </trkpt>
      <trkpt lat="36.1033" lon="32.99988">
        <ele>11.005197</ele>
        <time>2022-02-24T23:57:13.817Z</time>
      </trkpt>
      <trkpt lat="36.10332" lon="32.99952">
        <ele>11.163229</ele>
        <time>2022-02-24T23:57:21.881Z</time>
      </trkpt>
      <trkpt lat="36.10329" lon="32.999">
        <ele>11.393766</ele>
        <time>2022-02-24T23:57:33.377Z</time>
      </trkpt>
      <trkpt lat="36.10312" lon="32.99689">
        <ele>13.686802</ele>
        <time>2022-02-24T23:58:26.131Z</time>
      </trkpt>
      <trkpt lat="36.10311" lon="32.99663">
        <ele>14.076836</ele>
        <time>2022-02-24T23:58:34.049Z</time>
      </trkpt>
      <trkpt lat="36.10328" lon="32.99485">
        <ele>18.069295</ele>
        <time>2022-02-24T23:59:36.989Z</time>
      </trkpt>
      <trkpt lat="36.10347" lon="32.99358">
        <ele>21.283039</ele>
        <time>2022-02-25T00:00:22.272Z</time>
      </trkpt>
      <trkpt lat="36.10361" lon="32.99255">
        <ele>22.34409</ele>
        <time>2022-02-25T00:00:52.967Z</time>
      </trkpt>
      <trkpt lat="36.10372" lon="32.99183">
        <ele>23.09164</ele>
        <time>2022-02-25T00:01:10.210Z</time>
      </trkpt>
      <trkpt lat="36.10387" lon="32.99077">
        <ele>22.46924</ele>
        <time>2022-02-25T00:01:30.450Z</time>
      </trkpt>
      <trkpt lat="36.10419" lon="32.98859">
        <ele>19.581863</ele>
        <time>2022-02-25T00:02:08.467Z</time>
      </trkpt>
      <trkpt lat="36.10438" lon="32.9872">
        <ele>17.381855</ele>
        <time>2022-02-25T00:02:32.754Z</time>
      </trkpt>
      <trkpt lat="36.10468" lon="32.98532">
        <ele>14.211624</ele>
        <time>2022-02-25T00:03:05.362Z</time>
      </trkpt>
      <trkpt lat="36.10496" lon="32.98339">
        <ele>10.953978</ele>
        <time>2022-02-25T00:03:38.305Z</time>
      </trkpt>
      <trkpt lat="36.10512" lon="32.9824">
        <ele>9.577225</ele>
        <time>2022-02-25T00:03:55.729Z</time>
      </trkpt>
      <trkpt lat="36.10543" lon="32.98033">
        <ele>7.753738</ele>
        <time>2022-02-25T00:04:35.152Z</time>
      </trkpt>
      <trkpt lat="36.1055" lon="32.97983">
        <ele>7.508588</ele>
        <time>2022-02-25T00:04:45.251Z</time>
      </trkpt>
      <trkpt lat="36.10555" lon="32.97939">
        <ele>7.299001</ele>
        <time>2022-02-25T00:04:53.864Z</time>
      </trkpt>
      <trkpt lat="36.10563" lon="32.9785">
        <ele>6.866808</ele>
        <time>2022-02-25T00:05:11.897Z</time>
      </trkpt>
      <trkpt lat="36.10566" lon="32.97779">
        <ele>6.772695</ele>
        <time>2022-02-25T00:05:26.177Z</time>
      </trkpt>
      <trkpt lat="36.10571" lon="32.97688">
        <ele>6.704955</ele>
        <time>2022-02-25T00:05:45.417Z</time>
      </trkpt>
      <trkpt lat="36.10572" lon="32.97638">
        <ele>6.667602</ele>
        <time>2022-02-25T00:05:56.503Z</time>
      </trkpt>
      <trkpt lat="36.10571" lon="32.97593">
        <ele>6.695834</ele>
        <time>2022-02-25T00:06:06.737Z</time>
      </trkpt>
      <trkpt lat="36.10568" lon="32.97526">
        <ele>6.818261</ele>
        <time>2022-02-25T00:06:22.370Z</time>
      </trkpt>
      <trkpt lat="36.10614" lon="32.97516">
        <ele>6.92306</ele>
        <time>2022-02-25T00:06:36.039Z</time>
      </trkpt>
      <trkpt lat="36.10669" lon="32.97497">
        <ele>7.051662</ele>
        <time>2022-02-25T00:06:52.268Z</time>
      </trkpt>
      <trkpt lat="36.10686" lon="32.9749">
        <ele>7.016093</ele>
        <time>2022-02-25T00:06:57.171Z</time>
      </trkpt>
      <trkpt lat="36.10674" lon="32.97484">
        <ele>6.982867</ele>
        <time>2022-02-25T00:07:00.472Z</time>
      </trkpt>
      <trkpt lat="36.10669" lon="32.97471">
        <ele>6.952647</ele>
        <time>2022-02-25T00:07:03.584Z</time>
      </trkpt>
      <trkpt lat="36.10659" lon="32.97408">
        <ele>6.817115</ele>
        <time>2022-02-25T00:07:17.054Z</time>
      </trkpt>
      <trkpt lat="36.10659" lon="32.97387">
        <ele>6.771554</ele>
        <time>2022-02-25T00:07:21.541Z</time>
      </trkpt>
      <trkpt lat="36.10655" lon="32.97327">
        <ele>6.645083</ele>
        <time>2022-02-25T00:07:33.879Z</time>
      </trkpt>
      <trkpt lat="36.10649" lon="32.97164">
        <ele>6.171144</ele>
        <time>2022-02-25T00:08:07.684Z</time>
      </trkpt>
      <trkpt lat="36.10639" lon="32.9703">
        <ele>5.943629</ele>
        <time>2022-02-25T00:08:37.392Z</time>
      </trkpt>
      <trkpt lat="36.10637" lon="32.96977">
        <ele>5.985657</ele>
        <time>2022-02-25T00:08:49.706Z</time>
      </trkpt>
      <trkpt lat="36.10626" lon="32.96919">
        <ele>6.032297</ele>
        <time>2022-02-25T00:09:03.547Z</time>
      </trkpt>
      <trkpt lat="36.10621" lon="32.96909">
        <ele>6.041833</ele>
        <time>2022-02-25T00:09:06.304Z</time>
      </trkpt>
      <trkpt lat="36.10611" lon="32.96903">
        <ele>6.05266</ele>
        <time>2022-02-25T00:09:09.418Z</time>
      </trkpt>
      <trkpt lat="36.10599" lon="32.96903">
        <ele>6.064834</ele>
        <time>2022-02-25T00:09:13.089Z</time>
      </trkpt>
      <trkpt lat="36.1059" lon="32.96587">
        <ele>5.915154</ele>
        <time>2022-02-25T00:10:23.924Z</time>
      </trkpt>
      <trkpt lat="36.10585" lon="32.96445">
        <ele>5.575731</ele>
        <time>2022-02-25T00:10:53.994Z</time>
      </trkpt>
      <trkpt lat="36.10585" lon="32.96319">
        <ele>5.130741</ele>
        <time>2022-02-25T00:11:19.918Z</time>
      </trkpt>
      <trkpt lat="36.10578" lon="32.96183">
        <ele>4.748319</ele>
        <time>2022-02-25T00:11:48.446Z</time>
      </trkpt>
      <trkpt lat="36.10512" lon="32.9617">
        <ele>4.746755</ele>
        <time>2022-02-25T00:12:06.776Z</time>
      </trkpt>
      <trkpt lat="36.10507" lon="32.96036">
        <ele>4.786939</ele>
        <time>2022-02-25T00:12:37.058Z</time>
      </trkpt>
      <trkpt lat="36.10498" lon="32.95903">
        <ele>5.012341</ele>
        <time>2022-02-25T00:13:07.000Z</time>
      </trkpt>
      <trkpt lat="36.10493" lon="32.95691">
        <ele>5.291752</ele>
        <time>2022-02-25T00:13:53.223Z</time>
      </trkpt>
      <trkpt lat="36.10537" lon="32.95574">
        <ele>5.489657</ele>
        <time>2022-02-25T00:14:23.671Z</time>
      </trkpt>
      <trkpt lat="36.10596" lon="32.95399">
        <ele>5.841187</ele>
        <time>2022-02-25T00:15:08.544Z</time>
      </trkpt>
      <trkpt lat="36.1062" lon="32.95315">
        <ele>5.857617</ele>
        <time>2022-02-25T00:15:28.772Z</time>
      </trkpt>
      <trkpt lat="36.1063" lon="32.9527">
        <ele>5.866378</ele>
        <time>2022-02-25T00:15:39.283Z</time>
      </trkpt>
      <trkpt lat="36.10632" lon="32.95227">
        <ele>5.874338</ele>
        <time>2022-02-25T00:15:48.721Z</time>
      </trkpt>
      <trkpt lat="36.10573" lon="32.94844">
        <ele>5.502867</ele>
        <time>2022-02-25T00:17:13.936Z</time>
      </trkpt>
      <trkpt lat="36.10542" lon="32.94777">
        <ele>5.458842</ele>
        <time>2022-02-25T00:17:31.191Z</time>
      </trkpt>
      <trkpt lat="36.10466" lon="32.94595">
        <ele>5.91633</ele>
        <time>2022-02-25T00:18:19.418Z</time>
      </trkpt>
      <trkpt lat="36.10443" lon="32.94541">
        <ele>6.024345</ele>
        <time>2022-02-25T00:18:34.488Z</time>
      </trkpt>
      <trkpt lat="36.10425" lon="32.94515">
        <ele>6.077722</ele>
        <time>2022-02-25T00:18:43.010Z</time>
      </trkpt>
      <trkpt lat="36.10417" lon="32.94482">
        <ele>6.131277</ele>
        <time>2022-02-25T00:18:51.375Z</time>
      </trkpt>
      <trkpt lat="36.1038" lon="32.94396">
        <ele>6.283661</ele>
        <time>2022-02-25T00:19:12.435Z</time>
      </trkpt>
      <trkpt lat="36.10341" lon="32.94333">
        <ele>5.898748</ele>
        <time>2022-02-25T00:19:27.781Z</time>
      </trkpt>
      <trkpt lat="36.10242" lon="32.94172">
        <ele>5.021937</ele>
        <time>2022-02-25T00:20:05.494Z</time>
      </trkpt>
      <trkpt lat="36.1005" lon="32.93859">
        <ele>6.835644</ele>
        <time>2022-02-25T00:21:41.546Z</time>
      </trkpt>
      <trkpt lat="36.09934" lon="32.937">
        <ele>8.966962</ele>
        <time>2022-02-25T00:22:38.120Z</time>
      </trkpt>
      <trkpt lat="36.09882" lon="32.93657">
        <ele>9.987288</ele>
        <time>2022-02-25T00:22:59.010Z</time>
      </trkpt>
      <trkpt lat="36.09736" lon="32.93579">
        <ele>12.88245</ele>
        <time>2022-02-25T00:23:55.708Z</time>
      </trkpt>
      <trkpt lat="36.09576" lon="32.93458">
        <ele>16.810084</ele>
        <time>2022-02-25T00:25:07.316Z</time>
      </trkpt>
      <trkpt lat="36.09505" lon="32.93416">
        <ele>17.981188</ele>
        <time>2022-02-25T00:25:34.122Z</time>
      </trkpt>
      <trkpt lat="36.09363" lon="32.93352">
        <ele>19.796009</ele>
        <time>2022-02-25T00:26:19.932Z</time>
      </trkpt>
      <trkpt lat="36.0925" lon="32.93274">
        <ele>21.434941</ele>
        <time>2022-02-25T00:27:01.436Z</time>
      </trkpt>
      <trkpt lat="36.09216" lon="32.9323">
        <ele>22.428456</ele>
        <time>2022-02-25T00:27:19.465Z</time>
      </trkpt>
      <trkpt lat="36.09159" lon="32.93135">
        <ele>24.362093</ele>
        <time>2022-02-25T00:27:56.547Z</time>
      </trkpt>
      <trkpt lat="36.09088" lon="32.93032">
        <ele>26.184031</ele>
        <time>2022-02-25T00:28:36.171Z</time>
      </trkpt>
      <trkpt lat="36.09049" lon="32.92957">
        <ele>27.379584</ele>
        <time>2022-02-25T00:28:59.527Z</time>
      </trkpt>
      <trkpt lat="36.08991" lon="32.92881">
        <ele>28.385684</ele>
        <time>2022-02-25T00:29:24.706Z</time>
      </trkpt>
      <trkpt lat="36.0898" lon="32.92858">
        <ele>28.643672</ele>
        <time>2022-02-25T00:29:31.130Z</time>
      </trkpt>
      <trkpt lat="36.08976" lon="32.92827">
        <ele>28.954803</ele>
        <time>2022-02-25T00:29:39.282Z</time>
      </trkpt>
      <trkpt lat="36.09005" lon="32.92708">
        <ele>31.213345</ele>
        <time>2022-02-25T00:30:15.777Z</time>
      </trkpt>
      <trkpt lat="36.0901" lon="32.92661">
        <ele>32.420559</ele>
        <time>2022-02-25T00:30:31.681Z</time>
      </trkpt>
      <trkpt lat="36.0901" lon="32.92525">
        <ele>36.213488</ele>
        <time>2022-02-25T00:31:21.152Z</time>
      </trkpt>
      <trkpt lat="36.09035" lon="32.92357">
        <ele>42.632393</ele>
        <time>2022-02-25T00:32:29.528Z</time>
      </trkpt>
      <trkpt lat="36.09033" lon="32.9231">
        <ele>44.509149</ele>
        <time>2022-02-25T00:32:49.158Z</time>
      </trkpt>
      <trkpt lat="36.0901" lon="32.92131">
        <ele>51.91767</ele>
        <time>2022-02-25T00:34:06.117Z</time>
      </trkpt>
      <trkpt lat="36.09033" lon="32.91857">
        <ele>59.134341</ele>
        <time>2022-02-25T00:35:47.612Z</time>
      </trkpt>
      <trkpt lat="36.09033" lon="32.91824">
        <ele>58.809097</ele>
        <time>2022-02-25T00:35:54.445Z</time>
      </trkpt>
      <trkpt lat="36.09022" lon="32.91768">
        <ele>58.255976</ele>
        <time>2022-02-25T00:36:04.379Z</time>
      </trkpt>
      <trkpt lat="36.08991" lon="32.91704">
        <ele>57.538631</ele>
        <time>2022-02-25T00:36:16.104Z</time>
      </trkpt>
      <trkpt lat="36.08934" lon="32.91626">
        <ele>54.883067</ele>
        <time>2022-02-25T00:36:32.044Z</time>
      </trkpt>
      <trkpt lat="36.08886" lon="32.91572">
        <ele>52.504496</ele>
        <time>2022-02-25T00:36:44.495Z</time>
      </trkpt>
      <trkpt lat="36.0887" lon="32.9155">
        <ele>51.646011</ele>
        <time>2022-02-25T00:36:49.133Z</time>
      </trkpt>
      <trkpt lat="36.08868" lon="32.91531">
        <ele>51.089095</ele>
        <time>2022-02-25T00:36:52.139Z</time>
      </trkpt>
      <trkpt lat="36.08877" lon="32.91508">
        <ele>50.203909</ele>
        <time>2022-02-25T00:36:56.366Z</time>
      </trkpt>
      <trkpt lat="36.08957" lon="32.9145">
        <ele>46.021429</ele>
        <time>2022-02-25T00:37:14.154Z</time>
      </trkpt>
      <trkpt lat="36.08973" lon="32.91431">
        <ele>45.00253</ele>
        <time>2022-02-25T00:37:18.249Z</time>
      </trkpt>
      <trkpt lat="36.08979" lon="32.91416">
        <ele>44.389607</ele>
        <time>2022-02-25T00:37:20.701Z</time>
      </trkpt>
      <trkpt lat="36.08982" lon="32.91402">
        <ele>43.859548</ele>
        <time>2022-02-25T00:37:22.756Z</time>
      </trkpt>
      <trkpt lat="36.0897" lon="32.9124">
        <ele>34.778806</ele>
        <time>2022-02-25T00:37:45.109Z</time>
      </trkpt>
      <trkpt lat="36.08962" lon="32.91204">
        <ele>32.482657</ele>
        <time>2022-02-25T00:37:50.177Z</time>
      </trkpt>
      <trkpt lat="36.08944" lon="32.91166">
        <ele>29.762696</ele>
        <time>2022-02-25T00:37:56.219Z</time>
      </trkpt>
      <trkpt lat="36.0893" lon="32.91151">
        <ele>28.452928</ele>
        <time>2022-02-25T00:37:59.269Z</time>
      </trkpt>
      <trkpt lat="36.08911" lon="32.91136">
        <ele>26.882018</ele>
        <time>2022-02-25T00:38:03.135Z</time>
      </trkpt>
      <trkpt lat="36.08796" lon="32.91087">
        <ele>18.51671</ele>
        <time>2022-02-25T00:38:24.076Z</time>
      </trkpt>
      <trkpt lat="36.08755" lon="32.9104">
        <ele>15.312131</ele>
        <time>2022-02-25T00:38:33.950Z</time>
      </trkpt>
      <trkpt lat="36.08741" lon="32.91014">
        <ele>14.088983</ele>
        <time>2022-02-25T00:38:38.586Z</time>
      </trkpt>
      <trkpt lat="36.08729" lon="32.90978">
        <ele>12.635002</ele>
        <time>2022-02-25T00:38:44.142Z</time>
      </trkpt>
      <trkpt lat="36.08697" lon="32.90777">
        <ele>6.378072</ele>
        <time>2022-02-25T00:39:15.361Z</time>
      </trkpt>
      <trkpt lat="36.08678" lon="32.90664">
        <ele>4.048611</ele>
        <time>2022-02-25T00:39:35.250Z</time>
      </trkpt>
      <trkpt lat="36.08655" lon="32.90521">
        <ele>3.411343</ele>
        <time>2022-02-25T00:40:04.344Z</time>
      </trkpt>
      <trkpt lat="36.08633" lon="32.90433">
        <ele>3.224887</ele>
        <time>2022-02-25T00:40:25.478Z</time>
      </trkpt>
      <trkpt lat="36.08602" lon="32.90352">
        <ele>3.596775</ele>
        <time>2022-02-25T00:40:45.386Z</time>
      </trkpt>
      <trkpt lat="36.08565" lon="32.90274">
        <ele>3.999585</ele>
        <time>2022-02-25T00:41:07.008Z</time>
      </trkpt>
      <trkpt lat="36.08512" lon="32.90188">
        <ele>4.944309</ele>
        <time>2022-02-25T00:41:34.524Z</time>
      </trkpt>
      <trkpt lat="36.08518" lon="32.9018">
        <ele>5.07073</ele>
        <time>2022-02-25T00:41:37.403Z</time>
      </trkpt>
      <trkpt lat="36.08515" lon="32.90164">
        <ele>5.257695</ele>
        <time>2022-02-25T00:41:41.986Z</time>
      </trkpt>
      <trkpt lat="36.08444" lon="32.9">
        <ele>7.405084</ele>
        <time>2022-02-25T00:42:34.563Z</time>
      </trkpt>
      <trkpt lat="36.08446" lon="32.89975">
        <ele>7.675461</ele>
        <time>2022-02-25T00:42:41.615Z</time>
      </trkpt>
      <trkpt lat="36.08519" lon="32.89764">
        <ele>9.78996</ele>
        <time>2022-02-25T00:43:41.135Z</time>
      </trkpt>
      <trkpt lat="36.08524" lon="32.89742">
        <ele>9.947576</ele>
        <time>2022-02-25T00:43:46.779Z</time>
      </trkpt>
      <trkpt lat="36.08523" lon="32.89709">
        <ele>10.17059</ele>
        <time>2022-02-25T00:43:54.682Z</time>
      </trkpt>
      <trkpt lat="36.08515" lon="32.89648">
        <ele>10.590876</ele>
        <time>2022-02-25T00:44:09.425Z</time>
      </trkpt>
      <trkpt lat="36.08488" lon="32.89438">
        <ele>11.684329</ele>
        <time>2022-02-25T00:45:00.887Z</time>
      </trkpt>
      <trkpt lat="36.08472" lon="32.89288">
        <ele>11.905489</ele>
        <time>2022-02-25T00:45:35.672Z</time>
      </trkpt>
      <trkpt lat="36.08491" lon="32.89107">
        <ele>11.407404</ele>
        <time>2022-02-25T00:46:13.192Z</time>
      </trkpt>
      <trkpt lat="36.08499" lon="32.89044">
        <ele>10.96223</ele>
        <time>2022-02-25T00:46:25.290Z</time>
      </trkpt>
      <trkpt lat="36.08563" lon="32.88912">
        <ele>9.3967</ele>
        <time>2022-02-25T00:46:52.977Z</time>
      </trkpt>
      <trkpt lat="36.08532" lon="32.88858">
        <ele>8.496232</ele>
        <time>2022-02-25T00:47:05.137Z</time>
      </trkpt>
      <trkpt lat="36.08487" lon="32.88753">
        <ele>6.994032</ele>
        <time>2022-02-25T00:47:26.322Z</time>
      </trkpt>
      <trkpt lat="36.08463" lon="32.88735">
        <ele>6.608738</ele>
        <time>2022-02-25T00:47:32.590Z</time>
      </trkpt>
      <trkpt lat="36.08412" lon="32.88713">
        <ele>5.879596</ele>
        <time>2022-02-25T00:47:44.926Z</time>
      </trkpt>
      <trkpt lat="36.08522" lon="32.88444">
        <ele>3.955191</ele>
        <time>2022-02-25T00:48:43.934Z</time>
      </trkpt>
      <trkpt lat="36.08628" lon="32.88199">
        <ele>3.869593</ele>
        <time>2022-02-25T00:49:43.771Z</time>
      </trkpt>
      <trkpt lat="36.08822" lon="32.87729">
        <ele>4.545382</ele>
        <time>2022-02-25T00:51:40.623Z</time>
      </trkpt>
      <trkpt lat="36.08978" lon="32.87361">
        <ele>5.459296</ele>
        <time>2022-02-25T00:53:14.728Z</time>
      </trkpt>
      <trkpt lat="36.09037" lon="32.87191">
        <ele>5.975992</ele>
        <time>2022-02-25T00:53:57.410Z</time>
      </trkpt>
      <trkpt lat="36.09063" lon="32.87027">
        <ele>6.433466</ele>
        <time>2022-02-25T00:54:35.975Z</time>
      </trkpt>
      <trkpt lat="36.09069" lon="32.86963">
        <ele>6.462886</ele>
        <time>2022-02-25T00:54:50.351Z</time>
      </trkpt>
      <trkpt lat="36.09067" lon="32.86893">
        <ele>6.494722</ele>
        <time>2022-02-25T00:55:05.553Z</time>
      </trkpt>
      <trkpt lat="36.09062" lon="32.8682">
        <ele>6.528393</ele>
        <time>2022-02-25T00:55:21.178Z</time>
      </trkpt>
      <trkpt lat="36.09049" lon="32.86736">
        <ele>6.446916</ele>
        <time>2022-02-25T00:55:39.161Z</time>
      </trkpt>
      <trkpt lat="36.09035" lon="32.8667">
        <ele>6.378986</ele>
        <time>2022-02-25T00:55:53.401Z</time>
      </trkpt>
      <trkpt lat="36.09033" lon="32.86664">
        <ele>6.372907</ele>
        <time>2022-02-25T00:55:54.682Z</time>
      </trkpt>
      <trkpt lat="36.09022" lon="32.86628">
        <ele>6.334221</ele>
        <time>2022-02-25T00:56:02.822Z</time>
      </trkpt>
      <trkpt lat="36.08965" lon="32.86486">
        <ele>6.186428</ele>
        <time>2022-02-25T00:56:36.520Z</time>
      </trkpt>
      <trkpt lat="36.08914" lon="32.8639">
        <ele>6.068036</ele>
        <time>2022-02-25T00:57:00.829Z</time>
      </trkpt>
      <trkpt lat="36.08842" lon="32.8626">
        <ele>5.838029</ele>
        <time>2022-02-25T00:57:33.716Z</time>
      </trkpt>
      <trkpt lat="36.08826" lon="32.86231">
        <ele>5.787546</ele>
        <time>2022-02-25T00:57:40.926Z</time>
      </trkpt>
      <trkpt lat="36.0876" lon="32.86111">
        <ele>5.705506</ele>
        <time>2022-02-25T00:58:11.534Z</time>
      </trkpt>
      <trkpt lat="36.08753" lon="32.86098">
        <ele>5.697474</ele>
        <time>2022-02-25T00:58:14.774Z</time>
      </trkpt>
      <trkpt lat="36.08642" lon="32.85896">
        <ele>5.842864</ele>
        <time>2022-02-25T00:59:08.365Z</time>
      </trkpt>
      <trkpt lat="36.08635" lon="32.85882">
        <ele>5.860155</ele>
        <time>2022-02-25T00:59:12.034Z</time>
      </trkpt>
      <trkpt lat="36.0863" lon="32.85874">
        <ele>5.87039</ele>
        <time>2022-02-25T00:59:14.169Z</time>
      </trkpt>
      <trkpt lat="36.086" lon="32.85815">
        <ele>5.971881</ele>
        <time>2022-02-25T00:59:29.956Z</time>
      </trkpt>
      <trkpt lat="36.08445" lon="32.85529">
        <ele>6.605647</ele>
        <time>2022-02-25T01:00:46.723Z</time>
      </trkpt>
      <trkpt lat="36.08393" lon="32.85433">
        <ele>7.098741</ele>
        <time>2022-02-25T01:01:13.474Z</time>
      </trkpt>
      <trkpt lat="36.08234" lon="32.8515">
        <ele>9.86084</ele>
        <time>2022-02-25T01:02:39.848Z</time>
      </trkpt>
      <trkpt lat="36.08153" lon="32.85004">
        <ele>12.858949</ele>
        <time>2022-02-25T01:03:34.154Z</time>
      </trkpt>
      <trkpt lat="36.08038" lon="32.84795">
        <ele>17.431702</ele>
        <time>2022-02-25T01:04:53.676Z</time>
      </trkpt>
      <trkpt lat="36.08005" lon="32.84731">
        <ele>18.537697</ele>
        <time>2022-02-25T01:05:14.395Z</time>
      </trkpt>
      <trkpt lat="36.07928" lon="32.84584">
        <ele>19.942322</ele>
        <time>2022-02-25T01:05:57.112Z</time>
      </trkpt>
      <trkpt lat="36.07918" lon="32.84565">
        <ele>20.126001</ele>
        <time>2022-02-25T01:06:02.843Z</time>
      </trkpt>
      <trkpt lat="36.07907" lon="32.84543">
        <ele>20.380376</ele>
        <time>2022-02-25T01:06:09.422Z</time>
      </trkpt>
      <trkpt lat="36.07887" lon="32.84509">
        <ele>20.789957</ele>
        <time>2022-02-25T01:06:20.703Z</time>
      </trkpt>
      <trkpt lat="36.07853" lon="32.84453">
        <ele>21.472312</ele>
        <time>2022-02-25T01:06:39.914Z</time>
      </trkpt>
      <trkpt lat="36.07791" lon="32.84339">
        <ele>22.497256</ele>
        <time>2022-02-25T01:07:16.205Z</time>
      </trkpt>
      <trkpt lat="36.077" lon="32.84166">
        <ele>23.082653</ele>
        <time>2022-02-25T01:08:02.519Z</time>
      </trkpt>
      <trkpt lat="36.07646" lon="32.84075">
        <ele>22.878073</ele>
        <time>2022-02-25T01:08:24.783Z</time>
      </trkpt>
      <trkpt lat="36.07593" lon="32.83989">
        <ele>22.661434</ele>
        <time>2022-02-25T01:08:47.770Z</time>
      </trkpt>
      <trkpt lat="36.07569" lon="32.83951">
        <ele>22.543859</ele>
        <time>2022-02-25T01:08:57.933Z</time>
      </trkpt>
      <trkpt lat="36.0756" lon="32.83938">
        <ele>22.501618</ele>
        <time>2022-02-25T01:09:01.587Z</time>
      </trkpt>
      <trkpt lat="36.07515" lon="32.83873">
        <ele>22.292685</ele>
        <time>2022-02-25T01:09:18.930Z</time>
      </trkpt>
      <trkpt lat="36.07458" lon="32.83794">
        <ele>22.026148</ele>
        <time>2022-02-25T01:09:40.019Z</time>
      </trkpt>
      <trkpt lat="36.07403" lon="32.83733">
        <ele>21.792163</ele>
        <time>2022-02-25T01:09:58.259Z</time>
      </trkpt>
      <trkpt lat="36.07354" lon="32.83684">
        <ele>21.641742</ele>
        <time>2022-02-25T01:10:14.634Z</time>
      </trkpt>
      <trkpt lat="36.07306" lon="32.83633">
        <ele>21.678177</ele>
        <time>2022-02-25T01:10:32.885Z</time>
      </trkpt>
      <trkpt lat="36.07279" lon="32.83605">
        <ele>21.698201</ele>
        <time>2022-02-25T01:10:42.719Z</time>
      </trkpt>
      <trkpt lat="36.07233" lon="32.83558">
        <ele>21.732624</ele>
        <time>2022-02-25T01:10:58.851Z</time>
      </trkpt>
      <trkpt lat="36.07213" lon="32.83539">
        <ele>21.515799</ele>
        <time>2022-02-25T01:11:05.259Z</time>
      </trkpt>
      <trkpt lat="36.0716" lon="32.83492">
        <ele>20.655786</ele>
        <time>2022-02-25T01:11:20.528Z</time>
      </trkpt>
      <trkpt lat="36.07128" lon="32.83467">
        <ele>20.160712</ele>
        <time>2022-02-25T01:11:28.834Z</time>
      </trkpt>
      <trkpt lat="36.07042" lon="32.83386">
        <ele>18.44873</ele>
        <time>2022-02-25T01:11:51.419Z</time>
      </trkpt>
      <trkpt lat="36.06894" lon="32.83248">
        <ele>14.95921</ele>
        <time>2022-02-25T01:12:31.081Z</time>
      </trkpt>
      <trkpt lat="36.06704" lon="32.8307">
        <ele>10.730099</ele>
        <time>2022-02-25T01:13:21.947Z</time>
      </trkpt>
      <trkpt lat="36.0663" lon="32.83001">
        <ele>9.40828</ele>
        <time>2022-02-25T01:13:42.352Z</time>
      </trkpt>
      <trkpt lat="36.06461" lon="32.82841">
        <ele>8.223161</ele>
        <time>2022-02-25T01:14:34.469Z</time>
      </trkpt>
      <trkpt lat="36.06414" lon="32.82798">
        <ele>8.196872</ele>
        <time>2022-02-25T01:14:50.079Z</time>
      </trkpt>
      <trkpt lat="36.06372" lon="32.82752">
        <ele>8.171297</ele>
        <time>2022-02-25T01:15:05.622Z</time>
      </trkpt>
      <trkpt lat="36.06356" lon="32.82735">
        <ele>8.222118</ele>
        <time>2022-02-25T01:15:11.529Z</time>
      </trkpt>
      <trkpt lat="36.0628" lon="32.82673">
        <ele>8.582053</ele>
        <time>2022-02-25T01:15:37.568Z</time>
      </trkpt>
      <trkpt lat="36.06106" lon="32.82511">
        <ele>9.434843</ele>
        <time>2022-02-25T01:16:40.940Z</time>
      </trkpt>
      <trkpt lat="36.05908" lon="32.8232">
        <ele>9.679624</ele>
        <time>2022-02-25T01:17:48.702Z</time>
      </trkpt>
      <trkpt lat="36.05765" lon="32.82186">
        <ele>9.564709</ele>
        <time>2022-02-25T01:18:36.358Z</time>
      </trkpt>
      <trkpt lat="36.055" lon="32.81938">
        <ele>8.366476</ele>
        <time>2022-02-25T01:19:59.535Z</time>
      </trkpt>
      <trkpt lat="36.05488" lon="32.81926">
        <ele>8.312786</ele>
        <time>2022-02-25T01:20:03.280Z</time>
      </trkpt>
      <trkpt lat="36.05456" lon="32.81897">
        <ele>8.174025</ele>
        <time>2022-02-25T01:20:12.877Z</time>
      </trkpt>
      <trkpt lat="36.05447" lon="32.81889">
        <ele>8.133145</ele>
        <time>2022-02-25T01:20:15.646Z</time>
      </trkpt>
      <trkpt lat="36.05273" lon="32.81733">
        <ele>7.689416</ele>
        <time>2022-02-25T01:21:10.744Z</time>
      </trkpt>
      <trkpt lat="36.05208" lon="32.81673">
        <ele>7.675039</ele>
        <time>2022-02-25T01:21:33.009Z</time>
      </trkpt>
      <trkpt lat="36.05174" lon="32.81641">
        <ele>7.804562</ele>
        <time>2022-02-25T01:21:45.080Z</time>
      </trkpt>
      <trkpt lat="36.05016" lon="32.81499">
        <ele>8.315215</ele>
        <time>2022-02-25T01:22:39.942Z</time>
      </trkpt>
      <trkpt lat="36.0488" lon="32.81371">
        <ele>8.486649</ele>
        <time>2022-02-25T01:23:26.791Z</time>
      </trkpt>
      <trkpt lat="36.0468" lon="32.81182">
        <ele>8.592591</ele>
        <time>2022-02-25T01:24:32.135Z</time>
      </trkpt>
      <trkpt lat="36.04555" lon="32.81069">
        <ele>9.689875</ele>
        <time>2022-02-25T01:25:19.888Z</time>
      </trkpt>
      <trkpt lat="36.04533" lon="32.81049">
        <ele>9.951428</ele>
        <time>2022-02-25T01:25:28.693Z</time>
      </trkpt>
      <trkpt lat="36.04481" lon="32.81001">
        <ele>10.512096</ele>
        <time>2022-02-25T01:25:50.471Z</time>
      </trkpt>
      <trkpt lat="36.04332" lon="32.80865">
        <ele>11.256048</ele>
        <time>2022-02-25T01:26:44.006Z</time>
      </trkpt>
      <trkpt lat="36.0428" lon="32.80816">
        <ele>10.97652</ele>
        <time>2022-02-25T01:26:59.376Z</time>
      </trkpt>
      <trkpt lat="36.0423" lon="32.80763">
        <ele>10.696504</ele>
        <time>2022-02-25T01:27:15.114Z</time>
      </trkpt>
      <trkpt lat="36.042" lon="32.80722">
        <ele>10.621654</ele>
        <time>2022-02-25T01:27:26.355Z</time>
      </trkpt>
      <trkpt lat="36.04182" lon="32.80696">
        <ele>10.678908</ele>
        <time>2022-02-25T01:27:33.478Z</time>
      </trkpt>
      <trkpt lat="36.04163" lon="32.80665">
        <ele>10.744022</ele>
        <time>2022-02-25T01:27:41.958Z</time>
      </trkpt>
      <trkpt lat="36.04152" lon="32.80646">
        <ele>10.783818</ele>
        <time>2022-02-25T01:27:47.388Z</time>
      </trkpt>
      <trkpt lat="36.04125" lon="32.80591">
        <ele>10.890082</ele>
        <time>2022-02-25T01:28:01.926Z</time>
      </trkpt>
      <trkpt lat="36.04099" lon="32.80528">
        <ele>11.483096</ele>
        <time>2022-02-25T01:28:19.412Z</time>
      </trkpt>
      <trkpt lat="36.04082" lon="32.80478">
        <ele>12.39403</ele>
        <time>2022-02-25T01:28:33.304Z</time>
      </trkpt>
      <trkpt lat="36.04064" lon="32.80407">
        <ele>13.652389</ele>
        <time>2022-02-25T01:28:54.607Z</time>
      </trkpt>
      <trkpt lat="36.04053" lon="32.80345">
        <ele>14.764677</ele>
        <time>2022-02-25T01:29:16.730Z</time>
      </trkpt>
      <trkpt lat="36.0405" lon="32.80293">
        <ele>17.029715</ele>
        <time>2022-02-25T01:29:37.241Z</time>
      </trkpt>
      <trkpt lat="36.0405" lon="32.80243">
        <ele>19.246927</ele>
        <time>2022-02-25T01:29:58.175Z</time>
      </trkpt>
      <trkpt lat="36.04048" lon="32.80209">
        <ele>20.743043</ele>
        <time>2022-02-25T01:30:12.462Z</time>
      </trkpt>
      <trkpt lat="36.04048" lon="32.80208">
        <ele>20.76008</ele>
        <time>2022-02-25T01:30:12.893Z</time>
      </trkpt>
      <trkpt lat="36.04047" lon="32.80166">
        <ele>22.598096</ele>
        <time>2022-02-25T01:30:31.384Z</time>
      </trkpt>
      <trkpt lat="36.0405" lon="32.80095">
        <ele>26.007914</ele>
        <time>2022-02-25T01:31:05.898Z</time>
      </trkpt>
      <trkpt lat="36.04059" lon="32.80035">
        <ele>29.317887</ele>
        <time>2022-02-25T01:31:36.875Z</time>
      </trkpt>
      <trkpt lat="36.04082" lon="32.79939">
        <ele>34.6839</ele>
        <time>2022-02-25T01:32:24.792Z</time>
      </trkpt>
      <trkpt lat="36.04115" lon="32.79839">
        <ele>39.135286</ele>
        <time>2022-02-25T01:33:11.506Z</time>
      </trkpt>
      <trkpt lat="36.04144" lon="32.79752">
        <ele>42.579619</ele>
        <time>2022-02-25T01:33:48.143Z</time>
      </trkpt>
      <trkpt lat="36.04176" lon="32.7968">
        <ele>44.996732</ele>
        <time>2022-02-25T01:34:15.798Z</time>
      </trkpt>
      <trkpt lat="36.04216" lon="32.79621">
        <ele>46.35865</ele>
        <time>2022-02-25T01:34:38.466Z</time>
      </trkpt>
      <trkpt lat="36.04257" lon="32.79583">
        <ele>47.49408</ele>
        <time>2022-02-25T01:34:56.588Z</time>
      </trkpt>
      <trkpt lat="36.04305" lon="32.7955">
        <ele>48.746209</ele>
        <time>2022-02-25T01:35:15.367Z</time>
      </trkpt>
      <trkpt lat="36.04432" lon="32.79459">
        <ele>52.684228</ele>
        <time>2022-02-25T01:36:11.476Z</time>
      </trkpt>
      <trkpt lat="36.04503" lon="32.79401">
        <ele>57.797068</ele>
        <time>2022-02-25T01:36:52.397Z</time>
      </trkpt>
      <trkpt lat="36.04546" lon="32.79368">
        <ele>61.30808</ele>
        <time>2022-02-25T01:37:23.861Z</time>
      </trkpt>
      <trkpt lat="36.04572" lon="32.79335">
        <ele>63.93421</ele>
        <time>2022-02-25T01:37:49.658Z</time>
      </trkpt>
      <trkpt lat="36.04585" lon="32.79314">
        <ele>65.40601</ele>
        <time>2022-02-25T01:38:04.625Z</time>
      </trkpt>
      <trkpt lat="36.04605" lon="32.79258">
        <ele>70.679104</ele>
        <time>2022-02-25T01:38:43.494Z</time>
      </trkpt>
      <trkpt lat="36.04615" lon="32.79208">
        <ele>75.35096</ele>
        <time>2022-02-25T01:39:18.533Z</time>
      </trkpt>
      <trkpt lat="36.0462" lon="32.79149">
        <ele>80.631156</ele>
        <time>2022-02-25T01:39:59.723Z</time>
      </trkpt>
      <trkpt lat="36.04613" lon="32.79075">
        <ele>86.810899</ele>
        <time>2022-02-25T01:40:49.147Z</time>
      </trkpt>
      <trkpt lat="36.04604" lon="32.79041">
        <ele>89.009029</ele>
        <time>2022-02-25T01:41:09.622Z</time>
      </trkpt>
      <trkpt lat="36.04571" lon="32.78982">
        <ele>93.350254</ele>
        <time>2022-02-25T01:41:46.441Z</time>
      </trkpt>
      <trkpt lat="36.04526" lon="32.78927">
        <ele>98.101932</ele>
        <time>2022-02-25T01:42:20.687Z</time>
      </trkpt>
      <trkpt lat="36.04465" lon="32.78895">
        <ele>102.919986</ele>
        <time>2022-02-25T01:42:54.386Z</time>
      </trkpt>
      <trkpt lat="36.0443" lon="32.78882">
        <ele>105.586693</ele>
        <time>2022-02-25T01:43:13.826Z</time>
      </trkpt>
      <trkpt lat="36.04387" lon="32.78883">
        <ele>108.636593</ele>
        <time>2022-02-25T01:43:37.623Z</time>
      </trkpt>
      <trkpt lat="36.04085" lon="32.78955">
        <ele>141.879312</ele>
        <time>2022-02-25T01:47:43.296Z</time>
      </trkpt>
      <trkpt lat="36.04041" lon="32.78961">
        <ele>147.474736</ele>
        <time>2022-02-25T01:48:24.666Z</time>
      </trkpt>
      <trkpt lat="36.03942" lon="32.78953">
        <ele>160.352867</ele>
        <time>2022-02-25T01:49:59.664Z</time>
      </trkpt>
      <trkpt lat="36.0366" lon="32.78888">
        <ele>196.175815</ele>
        <time>2022-02-25T01:54:12.468Z</time>
      </trkpt>
      <trkpt lat="36.0361" lon="32.78864">
        <ele>201.503213</ele>
        <time>2022-02-25T01:54:52.038Z</time>
      </trkpt>
      <trkpt lat="36.03538" lon="32.78817">
        <ele>206.981572</ele>
        <time>2022-02-25T01:55:42.267Z</time>
      </trkpt>
      <trkpt lat="36.03461" lon="32.78755">
        <ele>212.818186</ele>
        <time>2022-02-25T01:56:27.841Z</time>
      </trkpt>
      <trkpt lat="36.03383" lon="32.78664">
        <ele>217.351529</ele>
        <time>2022-02-25T01:57:17.075Z</time>
      </trkpt>
      <trkpt lat="36.03318" lon="32.78544">
        <ele>221.822571</ele>
        <time>2022-02-25T01:58:12.533Z</time>
      </trkpt>
      <trkpt lat="36.03179" lon="32.78141">
        <ele>230.857032</ele>
        <time>2022-02-25T02:00:37.404Z</time>
      </trkpt>
      <trkpt lat="36.03158" lon="32.78051">
        <ele>230.496331</ele>
        <time>2022-02-25T02:00:53.605Z</time>
      </trkpt>
      <trkpt lat="36.03157" lon="32.78018">
        <ele>230.368815</ele>
        <time>2022-02-25T02:00:59.205Z</time>
      </trkpt>
      <trkpt lat="36.03157" lon="32.77947">
        <ele>229.808904</ele>
        <time>2022-02-25T02:01:10.758Z</time>
      </trkpt>
      <trkpt lat="36.03159" lon="32.77922">
        <ele>229.547813</ele>
        <time>2022-02-25T02:01:14.891Z</time>
      </trkpt>
      <trkpt lat="36.03154" lon="32.77889">
        <ele>229.195886</ele>
        <time>2022-02-25T02:01:20.444Z</time>
      </trkpt>
      <trkpt lat="36.03159" lon="32.77783">
        <ele>228.075759</ele>
        <time>2022-02-25T02:01:39.757Z</time>
      </trkpt>
      <trkpt lat="36.03172" lon="32.77684">
        <ele>229.859004</ele>
        <time>2022-02-25T02:02:07.946Z</time>
      </trkpt>
      <trkpt lat="36.03218" lon="32.77463">
        <ele>236.946593</ele>
        <time>2022-02-25T02:03:33.006Z</time>
      </trkpt>
      <trkpt lat="36.03237" lon="32.77391">
        <ele>240.180816</ele>
        <time>2022-02-25T02:04:06.878Z</time>
      </trkpt>
      <trkpt lat="36.03326" lon="32.77136">
        <ele>253.779099</ele>
        <time>2022-02-25T02:06:17.451Z</time>
      </trkpt>
      <trkpt lat="36.03349" lon="32.77052">
        <ele>255.637504</ele>
        <time>2022-02-25T02:06:51.642Z</time>
      </trkpt>
      <trkpt lat="36.03377" lon="32.76887">
        <ele>258.036039</ele>
        <time>2022-02-25T02:07:36.510Z</time>
      </trkpt>
      <trkpt lat="36.03384" lon="32.76678">
        <ele>255.44061</ele>
        <time>2022-02-25T02:08:11.555Z</time>
      </trkpt>
      <trkpt lat="36.03378" lon="32.76574">
        <ele>253.874688</ele>
        <time>2022-02-25T02:08:28.327Z</time>
      </trkpt>
      <trkpt lat="36.03368" lon="32.76495">
        <ele>252.663631</ele>
        <time>2022-02-25T02:08:42.549Z</time>
      </trkpt>
      <trkpt lat="36.03342" lon="32.76378">
        <ele>253.630023</ele>
        <time>2022-02-25T02:09:10.752Z</time>
      </trkpt>
      <trkpt lat="36.03332" lon="32.76257">
        <ele>255.081508</ele>
        <time>2022-02-25T02:09:49.267Z</time>
      </trkpt>
      <trkpt lat="36.03338" lon="32.76189">
        <ele>256.232673</ele>
        <time>2022-02-25T02:10:12.209Z</time>
      </trkpt>
      <trkpt lat="36.0335" lon="32.76117">
        <ele>257.472147</ele>
        <time>2022-02-25T02:10:34.995Z</time>
      </trkpt>
      <trkpt lat="36.03369" lon="32.76055">
        <ele>258.592914</ele>
        <time>2022-02-25T02:10:52.559Z</time>
      </trkpt>
      <trkpt lat="36.03393" lon="32.75996">
        <ele>259.3993</ele>
        <time>2022-02-25T02:11:08.904Z</time>
      </trkpt>
      <trkpt lat="36.03432" lon="32.75926">
        <ele>260.368702</ele>
        <time>2022-02-25T02:11:29.199Z</time>
      </trkpt>
      <trkpt lat="36.03573" lon="32.75725">
        <ele>265.362487</ele>
        <time>2022-02-25T02:12:51.307Z</time>
      </trkpt>
      <trkpt lat="36.03591" lon="32.75706">
        <ele>266.021394</ele>
        <time>2022-02-25T02:13:03.641Z</time>
      </trkpt>
      <trkpt lat="36.03629" lon="32.75683">
        <ele>266.361287</ele>
        <time>2022-02-25T02:13:23.809Z</time>
      </trkpt>
      <trkpt lat="36.03742" lon="32.75628">
        <ele>266.849721</ele>
        <time>2022-02-25T02:14:04.015Z</time>
      </trkpt>
      <trkpt lat="36.03815" lon="32.75579">
        <ele>259.938126</ele>
        <time>2022-02-25T02:14:18.620Z</time>
      </trkpt>
      <trkpt lat="36.0384" lon="32.75548">
        <ele>255.82408</ele>
        <time>2022-02-25T02:14:24.118Z</time>
      </trkpt>
      <trkpt lat="36.03859" lon="32.75515">
        <ele>252.001898</ele>
        <time>2022-02-25T02:14:29.176Z</time>
      </trkpt>
      <trkpt lat="36.03873" lon="32.75466">
        <ele>247.090866</ele>
        <time>2022-02-25T02:14:35.675Z</time>
      </trkpt>
      <trkpt lat="36.03882" lon="32.75415">
        <ele>241.865687</ele>
        <time>2022-02-25T02:14:42.153Z</time>
      </trkpt>
      <trkpt lat="36.0387" lon="32.75416">
        <ele>240.325897</ele>
        <time>2022-02-25T02:14:44.032Z</time>
      </trkpt>
      <trkpt lat="36.03859" lon="32.75419">
        <ele>238.991957</ele>
        <time>2022-02-25T02:14:45.644Z</time>
      </trkpt>
      <trkpt lat="36.03849" lon="32.75418">
        <ele>237.599668</ele>
        <time>2022-02-25T02:14:47.364Z</time>
      </trkpt>
      <trkpt lat="36.03838" lon="32.75407">
        <ele>235.81955</ele>
        <time>2022-02-25T02:14:49.573Z</time>
      </trkpt>
      <trkpt lat="36.03808" lon="32.75322">
        <ele>226.322706</ele>
        <time>2022-02-25T02:15:01.419Z</time>
      </trkpt>
      <trkpt lat="36.03797" lon="32.75301">
        <ele>223.750599</ele>
        <time>2022-02-25T02:15:04.695Z</time>
      </trkpt>
      <trkpt lat="36.03793" lon="32.75268">
        <ele>222.543728</ele>
        <time>2022-02-25T02:15:09.587Z</time>
      </trkpt>
      <trkpt lat="36.03786" lon="32.75252">
        <ele>222.25063</ele>
        <time>2022-02-25T02:15:12.612Z</time>
      </trkpt>
      <trkpt lat="36.03745" lon="32.75205">
        <ele>221.126993</ele>
        <time>2022-02-25T02:15:24.782Z</time>
      </trkpt>
      <trkpt lat="36.03733" lon="32.75182">
        <ele>220.679143</ele>
        <time>2022-02-25T02:15:30.307Z</time>
      </trkpt>
      <trkpt lat="36.03714" lon="32.75065">
        <ele>220.727193</ele>
        <time>2022-02-25T02:16:03.460Z</time>
      </trkpt>
      <trkpt lat="36.03611" lon="32.74967">
        <ele>226.590419</ele>
        <time>2022-02-25T02:17:09.131Z</time>
      </trkpt>
      <trkpt lat="36.03605" lon="32.74941">
        <ele>227.619671</ele>
        <time>2022-02-25T02:17:22.894Z</time>
      </trkpt>
      <trkpt lat="36.03617" lon="32.74922">
        <ele>228.825224</ele>
        <time>2022-02-25T02:17:35.835Z</time>
      </trkpt>
      <trkpt lat="36.03636" lon="32.74915">
        <ele>230.093802</ele>
        <time>2022-02-25T02:17:49.437Z</time>
      </trkpt>
      <trkpt lat="36.03686" lon="32.74914">
        <ele>233.262138</ele>
        <time>2022-02-25T02:18:22.529Z</time>
      </trkpt>
      <trkpt lat="36.03773" lon="32.74891">
        <ele>238.761172</ele>
        <time>2022-02-25T02:19:12.201Z</time>
      </trkpt>
      <trkpt lat="36.03795" lon="32.74889">
        <ele>238.696042</ele>
        <time>2022-02-25T02:19:22.252Z</time>
      </trkpt>
      <trkpt lat="36.03832" lon="32.74903">
        <ele>238.583886</ele>
        <time>2022-02-25T02:19:36.525Z</time>
      </trkpt>
      <trkpt lat="36.03849" lon="32.74901">
        <ele>238.533639</ele>
        <time>2022-02-25T02:19:41.535Z</time>
      </trkpt>
      <trkpt lat="36.03863" lon="32.74894">
        <ele>238.490637</ele>
        <time>2022-02-25T02:19:45.290Z</time>
      </trkpt>
      <trkpt lat="36.03878" lon="32.74875">
        <ele>238.427791</ele>
        <time>2022-02-25T02:19:50.229Z</time>
      </trkpt>
      <trkpt lat="36.03944" lon="32.74721">
        <ele>235.647792</ele>
        <time>2022-02-25T02:20:18.437Z</time>
      </trkpt>
      <trkpt lat="36.03987" lon="32.74495">
        <ele>229.018493</ele>
        <time>2022-02-25T02:20:57.074Z</time>
      </trkpt>
      <trkpt lat="36.04085" lon="32.74317">
        <ele>220.256693</ele>
        <time>2022-02-25T02:21:31.089Z</time>
      </trkpt>
      <trkpt lat="36.04111" lon="32.74173">
        <ele>211.327735</ele>
        <time>2022-02-25T02:21:52.198Z</time>
      </trkpt>
      <trkpt lat="36.04111" lon="32.74122">
        <ele>206.450099</ele>
        <time>2022-02-25T02:21:59.028Z</time>
      </trkpt>
      <trkpt lat="36.041" lon="32.7405">
        <ele>199.318229</ele>
        <time>2022-02-25T02:22:08.917Z</time>
      </trkpt>
      <trkpt lat="36.04094" lon="32.74021">
        <ele>196.513614</ele>
        <time>2022-02-25T02:22:12.834Z</time>
      </trkpt>
      <trkpt lat="36.04082" lon="32.74011">
        <ele>194.728392</ele>
        <time>2022-02-25T02:22:15.141Z</time>
      </trkpt>
      <trkpt lat="36.04074" lon="32.73993">
        <ele>192.744474</ele>
        <time>2022-02-25T02:22:17.718Z</time>
      </trkpt>
      <trkpt lat="36.04071" lon="32.73967">
        <ele>190.558672</ele>
        <time>2022-02-25T02:22:21.062Z</time>
      </trkpt>
      <trkpt lat="36.04066" lon="32.73964">
        <ele>189.999198</ele>
        <time>2022-02-25T02:22:22.082Z</time>
      </trkpt>
      <trkpt lat="36.04058" lon="32.73968">
        <ele>189.239429</ele>
        <time>2022-02-25T02:22:23.292Z</time>
      </trkpt>
      <trkpt lat="36.04052" lon="32.73998">
        <ele>186.817534</ele>
        <time>2022-02-25T02:22:27.400Z</time>
      </trkpt>
      <trkpt lat="36.04047" lon="32.73998">
        <ele>186.363821</ele>
        <time>2022-02-25T02:22:28.146Z</time>
      </trkpt>
      <trkpt lat="36.04028" lon="32.73969">
        <ele>183.419852</ele>
        <time>2022-02-25T02:22:33.093Z</time>
      </trkpt>
      <trkpt lat="36.04005" lon="32.7396">
        <ele>181.134621</ele>
        <time>2022-02-25T02:22:36.826Z</time>
      </trkpt>
      <trkpt lat="36.03995" lon="32.73949">
        <ele>179.845695</ele>
        <time>2022-02-25T02:22:39.686Z</time>
      </trkpt>
      <trkpt lat="36.03987" lon="32.73928">
        <ele>178.003051</ele>
        <time>2022-02-25T02:22:42.720Z</time>
      </trkpt>
      <trkpt lat="36.0399" lon="32.73916">
        <ele>177.070746</ele>
        <time>2022-02-25T02:22:44.690Z</time>
      </trkpt>
      <trkpt lat="36.03997" lon="32.73913">
        <ele>176.330214</ele>
        <time>2022-02-25T02:22:49.335Z</time>
      </trkpt>
      <trkpt lat="36.04015" lon="32.73919">
        <ele>174.581416</ele>
        <time>2022-02-25T02:22:52.271Z</time>
      </trkpt>
      <trkpt lat="36.04033" lon="32.73918">
        <ele>173.547465</ele>
        <time>2022-02-25T02:22:58.563Z</time>
      </trkpt>
      <trkpt lat="36.04049" lon="32.73904">
        <ele>172.382014</ele>
        <time>2022-02-25T02:23:01.801Z</time>
      </trkpt>
      <trkpt lat="36.04053" lon="32.73891">
        <ele>171.739385</ele>
        <time>2022-02-25T02:23:05.437Z</time>
      </trkpt>
      <trkpt lat="36.04053" lon="32.73847">
        <ele>169.697529</ele>
        <time>2022-02-25T02:23:11.713Z</time>
      </trkpt>
      <trkpt lat="36.0406" lon="32.73832">
        <ele>168.878587</ele>
        <time>2022-02-25T02:23:14.216Z</time>
      </trkpt>
      <trkpt lat="36.04082" lon="32.73821">
        <ele>167.495376</ele>
        <time>2022-02-25T02:23:18.760Z</time>
      </trkpt>
      <trkpt lat="36.04093" lon="32.73801">
        <ele>166.365121</ele>
        <time>2022-02-25T02:23:22.343Z</time>
      </trkpt>
      <trkpt lat="36.04113" lon="32.73788">
        <ele>165.080491</ele>
        <time>2022-02-25T02:23:25.938Z</time>
      </trkpt>
      <trkpt lat="36.04113" lon="32.73781">
        <ele>164.728507</ele>
        <time>2022-02-25T02:23:27.080Z</time>
      </trkpt>
      <trkpt lat="36.04109" lon="32.73777">
        <ele>164.4033</ele>
        <time>2022-02-25T02:23:28.157Z</time>
      </trkpt>
      <trkpt lat="36.0409" lon="32.73778">
        <ele>163.47364</ele>
        <time>2022-02-25T02:23:31.260Z</time>
      </trkpt>
      <trkpt lat="36.04061" lon="32.7379">
        <ele>161.989176</ele>
        <time>2022-02-25T02:23:36.707Z</time>
      </trkpt>
      <trkpt lat="36.04051" lon="32.73782">
        <ele>161.403051</ele>
        <time>2022-02-25T02:23:38.615Z</time>
      </trkpt>
      <trkpt lat="36.04055" lon="32.73771">
        <ele>160.961178</ele>
        <time>2022-02-25T02:23:40.637Z</time>
      </trkpt>
      <trkpt lat="36.04072" lon="32.73755">
        <ele>159.93209</ele>
        <time>2022-02-25T02:23:44.332Z</time>
      </trkpt>
      <trkpt lat="36.04079" lon="32.73741">
        <ele>159.259853</ele>
        <time>2022-02-25T02:23:46.904Z</time>
      </trkpt>
      <trkpt lat="36.04082" lon="32.73722">
        <ele>158.530548</ele>
        <time>2022-02-25T02:23:50.125Z</time>
      </trkpt>
      <trkpt lat="36.04085" lon="32.7371">
        <ele>158.013496</ele>
        <time>2022-02-25T02:23:51.796Z</time>
      </trkpt>
      <trkpt lat="36.04095" lon="32.73705">
        <ele>157.472482</ele>
        <time>2022-02-25T02:23:55.356Z</time>
      </trkpt>
      <trkpt lat="36.04115" lon="32.73698">
        <ele>156.488134</ele>
        <time>2022-02-25T02:23:59.174Z</time>
      </trkpt>
      <trkpt lat="36.04117" lon="32.73686">
        <ele>156.014903</ele>
        <time>2022-02-25T02:24:00.964Z</time>
      </trkpt>
      <trkpt lat="36.0411" lon="32.73651">
        <ele>155.902723</ele>
        <time>2022-02-25T02:24:06.947Z</time>
      </trkpt>
      <trkpt lat="36.04117" lon="32.73626">
        <ele>156.393833</ele>
        <time>2022-02-25T02:24:16.089Z</time>
      </trkpt>
      <trkpt lat="36.04174" lon="32.73581">
        <ele>157.932831</ele>
        <time>2022-02-25T02:24:41.036Z</time>
      </trkpt>
      <trkpt lat="36.04207" lon="32.73562">
        <ele>158.761994</ele>
        <time>2022-02-25T02:25:00.881Z</time>
      </trkpt>
      <trkpt lat="36.04214" lon="32.7355">
        <ele>159.034558</ele>
        <time>2022-02-25T02:25:06.824Z</time>
      </trkpt>
      <trkpt lat="36.04212" lon="32.73542">
        <ele>159.185362</ele>
        <time>2022-02-25T02:25:10.038Z</time>
      </trkpt>
      <trkpt lat="36.04166" lon="32.73525">
        <ele>161.035294</ele>
        <time>2022-02-25T02:25:31.888Z</time>
      </trkpt>
      <trkpt lat="36.04117" lon="32.73533">
        <ele>163.400468</ele>
        <time>2022-02-25T02:25:53.519Z</time>
      </trkpt>
      <trkpt lat="36.04103" lon="32.73528">
        <ele>164.070373</ele>
        <time>2022-02-25T02:25:59.986Z</time>
      </trkpt>
      <trkpt lat="36.04085" lon="32.73511">
        <ele>165.186618</ele>
        <time>2022-02-25T02:26:11.422Z</time>
      </trkpt>
      <trkpt lat="36.04058" lon="32.73466">
        <ele>167.316334</ele>
        <time>2022-02-25T02:26:35.351Z</time>
      </trkpt>
      <trkpt lat="36.04029" lon="32.7345">
        <ele>169.385682</ele>
        <time>2022-02-25T02:26:53.133Z</time>
      </trkpt>
      <trkpt lat="36.04009" lon="32.73412">
        <ele>172.485247</ele>
        <time>2022-02-25T02:27:14.695Z</time>
      </trkpt>
      <trkpt lat="36.03973" lon="32.73412">
        <ele>175.531449</ele>
        <time>2022-02-25T02:27:37.209Z</time>
      </trkpt>
      <trkpt lat="36.03957" lon="32.73401">
        <ele>177.098875</ele>
        <time>2022-02-25T02:27:49.943Z</time>
      </trkpt>
      <trkpt lat="36.03955" lon="32.73389">
        <ele>177.927069</ele>
        <time>2022-02-25T02:27:56.550Z</time>
      </trkpt>
      <trkpt lat="36.03959" lon="32.7338">
        <ele>178.637733</ele>
        <time>2022-02-25T02:28:02.491Z</time>
      </trkpt>
      <trkpt lat="36.03991" lon="32.7338">
        <ele>181.378465</ele>
        <time>2022-02-25T02:28:26.797Z</time>
      </trkpt>
      <trkpt lat="36.04013" lon="32.73367">
        <ele>183.470018</ele>
        <time>2022-02-25T02:28:46.385Z</time>
      </trkpt>
      <trkpt lat="36.04026" lon="32.73331">
        <ele>186.409756</ele>
        <time>2022-02-25T02:29:13.998Z</time>
      </trkpt>
      <trkpt lat="36.04023" lon="32.7332">
        <ele>187.254204</ele>
        <time>2022-02-25T02:29:20.705Z</time>
      </trkpt>
      <trkpt lat="36.04003" lon="32.73305">
        <ele>189.372745</ele>
        <time>2022-02-25T02:29:40.172Z</time>
      </trkpt>
      <trkpt lat="36.03973" lon="32.73229">
        <ele>195.747327</ele>
        <time>2022-02-25T02:30:29.627Z</time>
      </trkpt>
      <trkpt lat="36.03974" lon="32.73213">
        <ele>196.940352</ele>
        <time>2022-02-25T02:30:36.881Z</time>
      </trkpt>
      <trkpt lat="36.03984" lon="32.73201">
        <ele>198.244231</ele>
        <time>2022-02-25T02:30:44.487Z</time>
      </trkpt>
      <trkpt lat="36.03992" lon="32.73195">
        <ele>199.108772</ele>
        <time>2022-02-25T02:30:52.410Z</time>
      </trkpt>
      <trkpt lat="36.0399" lon="32.73175">
        <ele>200.369288</ele>
        <time>2022-02-25T02:31:00.873Z</time>
      </trkpt>
      <trkpt lat="36.0398" lon="32.73125">
        <ele>202.229793</ele>
        <time>2022-02-25T02:31:24.354Z</time>
      </trkpt>
      <trkpt lat="36.03952" lon="32.73097">
        <ele>203.820323</ele>
        <time>2022-02-25T02:31:43.407Z</time>
      </trkpt>
      <trkpt lat="36.03903" lon="32.73067">
        <ele>206.262882</ele>
        <time>2022-02-25T02:32:11.176Z</time>
      </trkpt>
      <trkpt lat="36.03884" lon="32.73042">
        <ele>207.493744</ele>
        <time>2022-02-25T02:32:20.978Z</time>
      </trkpt>
      <trkpt lat="36.0388" lon="32.7302">
        <ele>208.202448</ele>
        <time>2022-02-25T02:32:27.259Z</time>
      </trkpt>
      <trkpt lat="36.03883" lon="32.72975">
        <ele>208.705669</ele>
        <time>2022-02-25T02:32:39.322Z</time>
      </trkpt>
      <trkpt lat="36.03858" lon="32.72911">
        <ele>209.513167</ele>
        <time>2022-02-25T02:32:58.240Z</time>
      </trkpt>
      <trkpt lat="36.03863" lon="32.72888">
        <ele>209.78199</ele>
        <time>2022-02-25T02:33:04.554Z</time>
      </trkpt>
      <trkpt lat="36.03912" lon="32.7283">
        <ele>210.870427</ele>
        <time>2022-02-25T02:33:27.561Z</time>
      </trkpt>
      <trkpt lat="36.03921" lon="32.72807">
        <ele>211.809292</ele>
        <time>2022-02-25T02:33:35.159Z</time>
      </trkpt>
      <trkpt lat="36.0392" lon="32.72784">
        <ele>212.657322</ele>
        <time>2022-02-25T02:33:41.627Z</time>
      </trkpt>
      <trkpt lat="36.03899" lon="32.72702">
        <ele>215.765278</ele>
        <time>2022-02-25T02:34:10.592Z</time>
      </trkpt>
      <trkpt lat="36.03896" lon="32.72669">
        <ele>216.988994</ele>
        <time>2022-02-25T02:34:25.503Z</time>
      </trkpt>
      <trkpt lat="36.03897" lon="32.72596">
        <ele>220.66349</ele>
        <time>2022-02-25T02:35:04.821Z</time>
      </trkpt>
      <trkpt lat="36.03904" lon="32.72575">
        <ele>222.489647</ele>
        <time>2022-02-25T02:35:19.600Z</time>
      </trkpt>
      <trkpt lat="36.03919" lon="32.72554">
        <ele>224.70531</ele>
        <time>2022-02-25T02:35:43.761Z</time>
      </trkpt>
      <trkpt lat="36.03947" lon="32.7254">
        <ele>227.644082</ele>
        <time>2022-02-25T02:36:06.737Z</time>
      </trkpt>
      <trkpt lat="36.04007" lon="32.72554">
        <ele>233.673173</ele>
        <time>2022-02-25T02:36:50.694Z</time>
      </trkpt>
      <trkpt lat="36.04042" lon="32.7257">
        <ele>236.875104</ele>
        <time>2022-02-25T02:37:17.081Z</time>
      </trkpt>
      <trkpt lat="36.04055" lon="32.72576">
        <ele>237.673094</ele>
        <time>2022-02-25T02:37:32.396Z</time>
      </trkpt>
      <trkpt lat="36.0407" lon="32.72579">
        <ele>238.5434</ele>
        <time>2022-02-25T02:37:37.062Z</time>
      </trkpt>
      <trkpt lat="36.04082" lon="32.72577">
        <ele>239.225778</ele>
        <time>2022-02-25T02:37:46.531Z</time>
      </trkpt>
      <trkpt lat="36.0409" lon="32.72566">
        <ele>239.884373</ele>
        <time>2022-02-25T02:37:56.252Z</time>
      </trkpt>
      <trkpt lat="36.04094" lon="32.72504">
        <ele>242.757711</ele>
        <time>2022-02-25T02:38:19.789Z</time>
      </trkpt>
      <trkpt lat="36.04104" lon="32.72492">
        <ele>243.542258</ele>
        <time>2022-02-25T02:38:30.063Z</time>
      </trkpt>
      <trkpt lat="36.0413" lon="32.72496">
        <ele>245.041922</ele>
        <time>2022-02-25T02:38:38.850Z</time>
      </trkpt>
      <trkpt lat="36.04179" lon="32.72516">
        <ele>247.057142</ele>
        <time>2022-02-25T02:38:59.804Z</time>
      </trkpt>
      <trkpt lat="36.04234" lon="32.72519">
        <ele>248.156969</ele>
        <time>2022-02-25T02:39:22.462Z</time>
      </trkpt>
      <trkpt lat="36.04255" lon="32.72526">
        <ele>248.577566</ele>
        <time>2022-02-25T02:39:31.296Z</time>
      </trkpt>
      <trkpt lat="36.04277" lon="32.7254">
        <ele>249.080394</ele>
        <time>2022-02-25T02:39:41.446Z</time>
      </trkpt>
      <trkpt lat="36.0432" lon="32.72584">
        <ele>249.974582</ele>
        <time>2022-02-25T02:40:01.030Z</time>
      </trkpt>
      <trkpt lat="36.04348" lon="32.72596">
        <ele>248.440304</ele>
        <time>2022-02-25T02:40:08.498Z</time>
      </trkpt>
      <trkpt lat="36.04363" lon="32.72595">
        <ele>247.619047</ele>
        <time>2022-02-25T02:40:11.947Z</time>
      </trkpt>
      <trkpt lat="36.04437" lon="32.72565">
        <ele>243.486676</ele>
        <time>2022-02-25T02:40:26.850Z</time>
      </trkpt>
      <trkpt lat="36.0449" lon="32.72559">
        <ele>240.655556</ele>
        <time>2022-02-25T02:40:36.065Z</time>
      </trkpt>
      <trkpt lat="36.04504" lon="32.72545">
        <ele>239.024439</ele>
        <time>2022-02-25T02:40:39.004Z</time>
      </trkpt>
      <trkpt lat="36.04511" lon="32.72521">
        <ele>237.079754</ele>
        <time>2022-02-25T02:40:42.406Z</time>
      </trkpt>
      <trkpt lat="36.04515" lon="32.72435">
        <ele>230.4555</ele>
        <time>2022-02-25T02:40:54.074Z</time>
      </trkpt>
      <trkpt lat="36.04526" lon="32.72311">
        <ele>222.452226</ele>
        <time>2022-02-25T02:41:12.310Z</time>
      </trkpt>
      <trkpt lat="36.04541" lon="32.72297">
        <ele>221.659727</ele>
        <time>2022-02-25T02:41:15.838Z</time>
      </trkpt>
      <trkpt lat="36.04588" lon="32.72251">
        <ele>219.149601</ele>
        <time>2022-02-25T02:41:27.200Z</time>
      </trkpt>
      <trkpt lat="36.04607" lon="32.72233">
        <ele>218.140336</ele>
        <time>2022-02-25T02:41:32.076Z</time>
      </trkpt>
      <trkpt lat="36.04645" lon="32.72213">
        <ele>216.413512</ele>
        <time>2022-02-25T02:41:40.571Z</time>
      </trkpt>
      <trkpt lat="36.04672" lon="32.72208">
        <ele>214.295474</ele>
        <time>2022-02-25T02:41:46.548Z</time>
      </trkpt>
      <trkpt lat="36.04685" lon="32.72197">
        <ele>212.753469</ele>
        <time>2022-02-25T02:41:49.448Z</time>
      </trkpt>
      <trkpt lat="36.04691" lon="32.72181">
        <ele>211.419708</ele>
        <time>2022-02-25T02:41:51.864Z</time>
      </trkpt>
      <trkpt lat="36.0469" lon="32.72162">
        <ele>209.990367</ele>
        <time>2022-02-25T02:41:54.352Z</time>
      </trkpt>
      <trkpt lat="36.04681" lon="32.72145">
        <ele>208.419667</ele>
        <time>2022-02-25T02:41:57.028Z</time>
      </trkpt>
      <trkpt lat="36.04665" lon="32.72128">
        <ele>206.401424</ele>
        <time>2022-02-25T02:42:00.394Z</time>
      </trkpt>
      <trkpt lat="36.04632" lon="32.7211">
        <ele>202.947689</ele>
        <time>2022-02-25T02:42:06.103Z</time>
      </trkpt>
      <trkpt lat="36.0461" lon="32.72112">
        <ele>200.834361</ele>
        <time>2022-02-25T02:42:09.602Z</time>
      </trkpt>
      <trkpt lat="36.04573" lon="32.72129">
        <ele>197.138897</ele>
        <time>2022-02-25T02:42:15.844Z</time>
      </trkpt>
      <trkpt lat="36.04554" lon="32.72132">
        <ele>195.429023</ele>
        <time>2022-02-25T02:42:18.840Z</time>
      </trkpt>
      <trkpt lat="36.0454" lon="32.7213">
        <ele>194.118728</ele>
        <time>2022-02-25T02:42:21.115Z</time>
      </trkpt>
      <trkpt lat="36.04514" lon="32.72098">
        <ele>190.716921</ele>
        <time>2022-02-25T02:42:27.075Z</time>
      </trkpt>
      <trkpt lat="36.04421" lon="32.72025">
        <ele>181.583451</ele>
        <time>2022-02-25T02:42:45.731Z</time>
      </trkpt>
      <trkpt lat="36.04393" lon="32.71996">
        <ele>180.07374</ele>
        <time>2022-02-25T02:42:53.131Z</time>
      </trkpt>
      <trkpt lat="36.04367" lon="32.71959">
        <ele>178.450803</ele>
        <time>2022-02-25T02:43:01.203Z</time>
      </trkpt>
      <trkpt lat="36.04327" lon="32.7187">
        <ele>175.061309</ele>
        <time>2022-02-25T02:43:17.116Z</time>
      </trkpt>
      <trkpt lat="36.04312" lon="32.71782">
        <ele>171.439846</ele>
        <time>2022-02-25T02:43:30.259Z</time>
      </trkpt>
      <trkpt lat="36.04314" lon="32.71575">
        <ele>162.983966</ele>
        <time>2022-02-25T02:44:00.216Z</time>
      </trkpt>
      <trkpt lat="36.04319" lon="32.71524">
        <ele>160.857948</ele>
        <time>2022-02-25T02:44:07.905Z</time>
      </trkpt>
      <trkpt lat="36.04331" lon="32.71475">
        <ele>158.768081</ele>
        <time>2022-02-25T02:44:15.555Z</time>
      </trkpt>
      <trkpt lat="36.04348" lon="32.71434">
        <ele>156.867606</ele>
        <time>2022-02-25T02:44:22.451Z</time>
      </trkpt>
      <trkpt lat="36.04425" lon="32.7133">
        <ele>148.03983</ele>
        <time>2022-02-25T02:44:42.136Z</time>
      </trkpt>
      <trkpt lat="36.04444" lon="32.71297">
        <ele>145.46086</ele>
        <time>2022-02-25T02:44:47.586Z</time>
      </trkpt>
      <trkpt lat="36.04456" lon="32.71256">
        <ele>142.706706</ele>
        <time>2022-02-25T02:44:53.312Z</time>
      </trkpt>
      <trkpt lat="36.04464" lon="32.7121">
        <ele>138.864131</ele>
        <time>2022-02-25T02:44:59.365Z</time>
      </trkpt>
      <trkpt lat="36.04463" lon="32.71169">
        <ele>135.418045</ele>
        <time>2022-02-25T02:45:04.768Z</time>
      </trkpt>
      <trkpt lat="36.04457" lon="32.71126">
        <ele>131.837324</ele>
        <time>2022-02-25T02:45:10.369Z</time>
      </trkpt>
      <trkpt lat="36.04442" lon="32.71085">
        <ele>128.080042</ele>
        <time>2022-02-25T02:45:16.289Z</time>
      </trkpt>
      <trkpt lat="36.04419" lon="32.71043">
        <ele>124.147601</ele>
        <time>2022-02-25T02:45:23.000Z</time>
      </trkpt>
      <trkpt lat="36.04392" lon="32.71014">
        <ele>122.442474</ele>
        <time>2022-02-25T02:45:29.146Z</time>
      </trkpt>
      <trkpt lat="36.04355" lon="32.70987">
        <ele>120.433226</ele>
        <time>2022-02-25T02:45:36.722Z</time>
      </trkpt>
      <trkpt lat="36.04326" lon="32.70974">
        <ele>118.974196</ele>
        <time>2022-02-25T02:45:42.507Z</time>
      </trkpt>
      <trkpt lat="36.04293" lon="32.70965">
        <ele>117.367685</ele>
        <time>2022-02-25T02:45:49.212Z</time>
      </trkpt>
      <trkpt lat="36.04252" lon="32.70966">
        <ele>115.787758</ele>
        <time>2022-02-25T02:45:57.984Z</time>
      </trkpt>
      <trkpt lat="36.04097" lon="32.70983">
        <ele>114.886764</ele>
        <time>2022-02-25T02:46:37.403Z</time>
      </trkpt>
      <trkpt lat="36.04065" lon="32.70982">
        <ele>114.883836</ele>
        <time>2022-02-25T02:46:45.632Z</time>
      </trkpt>
      <trkpt lat="36.04028" lon="32.70969">
        <ele>115.07663</ele>
        <time>2022-02-25T02:46:55.803Z</time>
      </trkpt>
      <trkpt lat="36.03998" lon="32.70944">
        <ele>115.258203</ele>
        <time>2022-02-25T02:47:05.685Z</time>
      </trkpt>
      <trkpt lat="36.03974" lon="32.70911">
        <ele>115.434098</ele>
        <time>2022-02-25T02:47:15.770Z</time>
      </trkpt>
      <trkpt lat="36.03961" lon="32.70877">
        <ele>115.585232</ele>
        <time>2022-02-25T02:47:25.137Z</time>
      </trkpt>
      <trkpt lat="36.03955" lon="32.70833">
        <ele>116.149071</ele>
        <time>2022-02-25T02:47:37.349Z</time>
      </trkpt>
      <trkpt lat="36.03958" lon="32.70796">
        <ele>117.155818</ele>
        <time>2022-02-25T02:47:48.750Z</time>
      </trkpt>
      <trkpt lat="36.03972" lon="32.70746">
        <ele>118.569734</ele>
        <time>2022-02-25T02:48:06.170Z</time>
      </trkpt>
      <trkpt lat="36.0403" lon="32.70584">
        <ele>123.749556</ele>
        <time>2022-02-25T02:49:14.148Z</time>
      </trkpt>
      <trkpt lat="36.04093" lon="32.70444">
        <ele>129.22326</ele>
        <time>2022-02-25T02:50:17.449Z</time>
      </trkpt>
      <trkpt lat="36.04131" lon="32.7035">
        <ele>128.268985</ele>
        <time>2022-02-25T02:50:50.059Z</time>
      </trkpt>
      <trkpt lat="36.04331" lon="32.69826">
        <ele>119.487487</ele>
        <time>2022-02-25T02:52:30.644Z</time>
      </trkpt>
      <trkpt lat="36.04385" lon="32.697">
        <ele>113.527824</ele>
        <time>2022-02-25T02:52:50.757Z</time>
      </trkpt>
      <trkpt lat="36.04441" lon="32.69582">
        <ele>109.357782</ele>
        <time>2022-02-25T02:53:10.913Z</time>
      </trkpt>
      <trkpt lat="36.04676" lon="32.69107">
        <ele>96.076882</ele>
        <time>2022-02-25T02:54:49.975Z</time>
      </trkpt>
      <trkpt lat="36.0495" lon="32.68565">
        <ele>55.11275</ele>
        <time>2022-02-25T02:56:15.088Z</time>
      </trkpt>
      <trkpt lat="36.05186" lon="32.68036">
        <ele>64.822971</ele>
        <time>2022-02-25T02:59:45.834Z</time>
      </trkpt>
      <trkpt lat="36.05245" lon="32.67891">
        <ele>64.059731</ele>
        <time>2022-02-25T03:00:19.508Z</time>
      </trkpt>
      <trkpt lat="36.05289" lon="32.6775">
        <ele>56.622239</ele>
        <time>2022-02-25T03:00:40.139Z</time>
      </trkpt>
      <trkpt lat="36.05305" lon="32.67689">
        <ele>54.260132</ele>
        <time>2022-02-25T03:00:48.869Z</time>
      </trkpt>
      <trkpt lat="36.05324" lon="32.67611">
        <ele>52.632188</ele>
        <time>2022-02-25T03:01:00.809Z</time>
      </trkpt>
      <trkpt lat="36.05347" lon="32.67497">
        <ele>50.483906</ele>
        <time>2022-02-25T03:01:25.741Z</time>
      </trkpt>
      <trkpt lat="36.05469" lon="32.66775">
        <ele>79.138519</ele>
        <time>2022-02-25T03:06:23.736Z</time>
      </trkpt>
      <trkpt lat="36.05481" lon="32.66731">
        <ele>81.548863</ele>
        <time>2022-02-25T03:06:45.133Z</time>
      </trkpt>
      <trkpt lat="36.0552" lon="32.66667">
        <ele>85.656182</ele>
        <time>2022-02-25T03:07:24.127Z</time>
      </trkpt>
      <trkpt lat="36.05545" lon="32.66645">
        <ele>88.005713</ele>
        <time>2022-02-25T03:07:44.221Z</time>
      </trkpt>
      <trkpt lat="36.05602" lon="32.66609">
        <ele>93.89704</ele>
        <time>2022-02-25T03:08:27.763Z</time>
      </trkpt>
      <trkpt lat="36.05639" lon="32.66577">
        <ele>98.081017</ele>
        <time>2022-02-25T03:09:00.256Z</time>
      </trkpt>
      <trkpt lat="36.05702" lon="32.66494">
        <ele>107.225893</ele>
        <time>2022-02-25T03:10:10.642Z</time>
      </trkpt>
      <trkpt lat="36.05726" lon="32.66444">
        <ele>112.483056</ele>
        <time>2022-02-25T03:10:48.366Z</time>
      </trkpt>
      <trkpt lat="36.05764" lon="32.66333">
        <ele>123.313545</ele>
        <time>2022-02-25T03:12:08.230Z</time>
      </trkpt>
      <trkpt lat="36.05788" lon="32.66258">
        <ele>130.530003</ele>
        <time>2022-02-25T03:13:02.611Z</time>
      </trkpt>
      <trkpt lat="36.058" lon="32.66208">
        <ele>135.135923</ele>
        <time>2022-02-25T03:13:36.766Z</time>
      </trkpt>
      <trkpt lat="36.05805" lon="32.66166">
        <ele>138.872818</ele>
        <time>2022-02-25T03:14:03.507Z</time>
      </trkpt>
      <trkpt lat="36.05805" lon="32.66065">
        <ele>146.902298</ele>
        <time>2022-02-25T03:15:04.731Z</time>
      </trkpt>
      <trkpt lat="36.05797" lon="32.66021">
        <ele>150.006306</ele>
        <time>2022-02-25T03:15:29.975Z</time>
      </trkpt>
      <trkpt lat="36.05724" lon="32.65715">
        <ele>171.158442</ele>
        <time>2022-02-25T03:18:17.099Z</time>
      </trkpt>
      <trkpt lat="36.05723" lon="32.65666">
        <ele>174.196951</ele>
        <time>2022-02-25T03:18:42.057Z</time>
      </trkpt>
      <trkpt lat="36.05728" lon="32.65617">
        <ele>177.288572</ele>
        <time>2022-02-25T03:19:07.650Z</time>
      </trkpt>
      <trkpt lat="36.05728" lon="32.6561">
        <ele>177.68001</ele>
        <time>2022-02-25T03:19:10.933Z</time>
      </trkpt>
      <trkpt lat="36.05733" lon="32.65563">
        <ele>180.627765</ele>
        <time>2022-02-25T03:19:35.286Z</time>
      </trkpt>
      <trkpt lat="36.05742" lon="32.65529">
        <ele>182.869972</ele>
        <time>2022-02-25T03:19:53.628Z</time>
      </trkpt>
      <trkpt lat="36.05773" lon="32.65471">
        <ele>187.196279</ele>
        <time>2022-02-25T03:20:29.700Z</time>
      </trkpt>
      <trkpt lat="36.05821" lon="32.65422">
        <ele>192.135416</ele>
        <time>2022-02-25T03:21:08.598Z</time>
      </trkpt>
      <trkpt lat="36.05874" lon="32.65393">
        <ele>196.731923</ele>
        <time>2022-02-25T03:21:43.421Z</time>
      </trkpt>
      <trkpt lat="36.05898" lon="32.65386">
        <ele>198.656018</ele>
        <time>2022-02-25T03:21:58.337Z</time>
      </trkpt>
      <trkpt lat="36.05951" lon="32.65386">
        <ele>204.161407</ele>
        <time>2022-02-25T03:22:35.384Z</time>
      </trkpt>
      <trkpt lat="36.06054" lon="32.65423">
        <ele>218.328645</ele>
        <time>2022-02-25T03:24:11.535Z</time>
      </trkpt>
      <trkpt lat="36.06073" lon="32.65425">
        <ele>220.927404</ele>
        <time>2022-02-25T03:24:33.561Z</time>
      </trkpt>
      <trkpt lat="36.06104" lon="32.65433">
        <ele>225.265407</ele>
        <time>2022-02-25T03:25:06.836Z</time>
      </trkpt>
      <trkpt lat="36.06134" lon="32.65434">
        <ele>230.237622</ele>
        <time>2022-02-25T03:25:34.973Z</time>
      </trkpt>
      <trkpt lat="36.06136" lon="32.65434">
        <ele>230.570361</ele>
        <time>2022-02-25T03:25:37.986Z</time>
      </trkpt>
      <trkpt lat="36.06206" lon="32.65435">
        <ele>242.207374</ele>
        <time>2022-02-25T03:26:53.513Z</time>
      </trkpt>
      <trkpt lat="36.06324" lon="32.65417">
        <ele>260.299185</ele>
        <time>2022-02-25T03:29:01.466Z</time>
      </trkpt>
      <trkpt lat="36.06346" lon="32.65428">
        <ele>263.316321</ele>
        <time>2022-02-25T03:29:22.423Z</time>
      </trkpt>
      <trkpt lat="36.0638" lon="32.65464">
        <ele>269.117967</ele>
        <time>2022-02-25T03:30:02.170Z</time>
      </trkpt>
      <trkpt lat="36.06396" lon="32.65474">
        <ele>271.337208</ele>
        <time>2022-02-25T03:30:16.526Z</time>
      </trkpt>
      <trkpt lat="36.06429" lon="32.65473">
        <ele>275.524582</ele>
        <time>2022-02-25T03:30:42.651Z</time>
      </trkpt>
      <trkpt lat="36.06563" lon="32.65404">
        <ele>288.488829</ele>
        <time>2022-02-25T03:32:20.526Z</time>
      </trkpt>
      <trkpt lat="36.06613" lon="32.65361">
        <ele>293.403952</ele>
        <time>2022-02-25T03:33:00.738Z</time>
      </trkpt>
      <trkpt lat="36.06666" lon="32.65328">
        <ele>296.547273</ele>
        <time>2022-02-25T03:33:35.028Z</time>
      </trkpt>
      <trkpt lat="36.06681" lon="32.65325">
        <ele>297.370057</ele>
        <time>2022-02-25T03:33:43.818Z</time>
      </trkpt>
      <trkpt lat="36.06697" lon="32.65328">
        <ele>298.237493</ele>
        <time>2022-02-25T03:33:52.649Z</time>
      </trkpt>
      <trkpt lat="36.06726" lon="32.65333">
        <ele>299.815032</ele>
        <time>2022-02-25T03:34:07.477Z</time>
      </trkpt>
      <trkpt lat="36.06744" lon="32.65329">
        <ele>300.753366</ele>
        <time>2022-02-25T03:34:15.672Z</time>
      </trkpt>
      <trkpt lat="36.06764" lon="32.65316">
        <ele>301.976824</ele>
        <time>2022-02-25T03:34:26.821Z</time>
      </trkpt>
      <trkpt lat="36.06779" lon="32.65302">
        <ele>302.592233</ele>
        <time>2022-02-25T03:34:34.328Z</time>
      </trkpt>
      <trkpt lat="36.06855" lon="32.65193">
        <ele>303.353689</ele>
        <time>2022-02-25T03:35:09.185Z</time>
      </trkpt>
      <trkpt lat="36.06875" lon="32.65173">
        <ele>303.521204</ele>
        <time>2022-02-25T03:35:14.848Z</time>
      </trkpt>
      <trkpt lat="36.06895" lon="32.6516">
        <ele>303.66833</ele>
        <time>2022-02-25T03:35:20.077Z</time>
      </trkpt>
      <trkpt lat="36.06931" lon="32.6515">
        <ele>304.160115</ele>
        <time>2022-02-25T03:35:29.268Z</time>
      </trkpt>
      <trkpt lat="36.0695" lon="32.65139">
        <ele>304.468864</ele>
        <time>2022-02-25T03:35:35.023Z</time>
      </trkpt>
      <trkpt lat="36.0696" lon="32.65127">
        <ele>304.673174</ele>
        <time>2022-02-25T03:35:38.601Z</time>
      </trkpt>
      <trkpt lat="36.06976" lon="32.65069">
        <ele>305.393083</ele>
        <time>2022-02-25T03:35:53.584Z</time>
      </trkpt>
      <trkpt lat="36.06983" lon="32.65056">
        <ele>305.585365</ele>
        <time>2022-02-25T03:35:58.272Z</time>
      </trkpt>
      <trkpt lat="36.07035" lon="32.65021">
        <ele>306.843503</ele>
        <time>2022-02-25T03:36:23.839Z</time>
      </trkpt>
      <trkpt lat="36.07041" lon="32.65006">
        <ele>307.744944</ele>
        <time>2022-02-25T03:36:30.284Z</time>
      </trkpt>
      <trkpt lat="36.07044" lon="32.64952">
        <ele>310.759715</ele>
        <time>2022-02-25T03:36:54.018Z</time>
      </trkpt>
      <trkpt lat="36.0707" lon="32.64886">
        <ele>314.835028</ele>
        <time>2022-02-25T03:37:32.140Z</time>
      </trkpt>
      <trkpt lat="36.07081" lon="32.64875">
        <ele>315.815722</ele>
        <time>2022-02-25T03:37:41.747Z</time>
      </trkpt>
      <trkpt lat="36.07102" lon="32.64873">
        <ele>317.289113</ele>
        <time>2022-02-25T03:37:56.559Z</time>
      </trkpt>
      <trkpt lat="36.07117" lon="32.64859">
        <ele>318.579233</ele>
        <time>2022-02-25T03:38:09.333Z</time>
      </trkpt>
      <trkpt lat="36.07128" lon="32.64739">
        <ele>325.464553</ele>
        <time>2022-02-25T03:39:14.494Z</time>
      </trkpt>
      <trkpt lat="36.07133" lon="32.64724">
        <ele>326.389932</ele>
        <time>2022-02-25T03:39:22.687Z</time>
      </trkpt>
      <trkpt lat="36.07191" lon="32.64659">
        <ele>331.550705</ele>
        <time>2022-02-25T03:40:06.520Z</time>
      </trkpt>
      <trkpt lat="36.07248" lon="32.64635">
        <ele>332.593393</ele>
        <time>2022-02-25T03:40:31.358Z</time>
      </trkpt>
      <trkpt lat="36.07275" lon="32.64571">
        <ele>333.613796</ele>
        <time>2022-02-25T03:40:48.725Z</time>
      </trkpt>
      <trkpt lat="36.07312" lon="32.64535">
        <ele>334.438511</ele>
        <time>2022-02-25T03:41:01.231Z</time>
      </trkpt>
      <trkpt lat="36.07349" lon="32.64452">
        <ele>335.001037</ele>
        <time>2022-02-25T03:41:20.429Z</time>
      </trkpt>
      <trkpt lat="36.07354" lon="32.64382">
        <ele>335.356692</ele>
        <time>2022-02-25T03:41:35.452Z</time>
      </trkpt>
      <trkpt lat="36.07352" lon="32.6432">
        <ele>335.666738</ele>
        <time>2022-02-25T03:41:51.774Z</time>
      </trkpt>
      <trkpt lat="36.07355" lon="32.64302">
        <ele>336.332935</ele>
        <time>2022-02-25T03:41:57.371Z</time>
      </trkpt>
      <trkpt lat="36.07375" lon="32.64258">
        <ele>338.905746</ele>
        <time>2022-02-25T03:42:15.761Z</time>
      </trkpt>
      <trkpt lat="36.0738" lon="32.64223">
        <ele>340.725414</ele>
        <time>2022-02-25T03:42:30.703Z</time>
      </trkpt>
      <trkpt lat="36.07366" lon="32.64138">
        <ele>345.138501</ele>
        <time>2022-02-25T03:43:14.086Z</time>
      </trkpt>
      <trkpt lat="36.07354" lon="32.64125">
        <ele>346.11465</ele>
        <time>2022-02-25T03:43:25.085Z</time>
      </trkpt>
      <trkpt lat="36.07315" lon="32.64102">
        <ele>350.68878</ele>
        <time>2022-02-25T03:43:58.271Z</time>
      </trkpt>
      <trkpt lat="36.07309" lon="32.64092">
        <ele>351.975541</ele>
        <time>2022-02-25T03:44:06.533Z</time>
      </trkpt>
      <trkpt lat="36.07309" lon="32.64067">
        <ele>354.553561</ele>
        <time>2022-02-25T03:44:24.130Z</time>
      </trkpt>
      <trkpt lat="36.07317" lon="32.6405">
        <ele>356.527683</ele>
        <time>2022-02-25T03:44:38.053Z</time>
      </trkpt>
      <trkpt lat="36.0736" lon="32.64006">
        <ele>363.664446</ele>
        <time>2022-02-25T03:45:29.710Z</time>
      </trkpt>
      <trkpt lat="36.07428" lon="32.6391">
        <ele>379.161433</ele>
        <time>2022-02-25T03:47:06.843Z</time>
      </trkpt>
      <trkpt lat="36.07485" lon="32.63766">
        <ele>401.484893</ele>
        <time>2022-02-25T03:49:38.721Z</time>
      </trkpt>
      <trkpt lat="36.07497" lon="32.63751">
        <ele>404.512894</ele>
        <time>2022-02-25T03:49:56.257Z</time>
      </trkpt>
      <trkpt lat="36.07507" lon="32.6374">
        <ele>406.876122</ele>
        <time>2022-02-25T03:50:14.386Z</time>
      </trkpt>
      <trkpt lat="36.07519" lon="32.63733">
        <ele>409.178021</ele>
        <time>2022-02-25T03:50:27.306Z</time>
      </trkpt>
      <trkpt lat="36.07535" lon="32.63733">
        <ele>412.022297</ele>
        <time>2022-02-25T03:50:46.429Z</time>
      </trkpt>
      <trkpt lat="36.07551" lon="32.63741">
        <ele>415.168627</ele>
        <time>2022-02-25T03:51:07.526Z</time>
      </trkpt>
      <trkpt lat="36.07592" lon="32.63792">
        <ele>425.569082</ele>
        <time>2022-02-25T03:52:17.824Z</time>
      </trkpt>
      <trkpt lat="36.07675" lon="32.63851">
        <ele>437.681003</ele>
        <time>2022-02-25T03:53:51.993Z</time>
      </trkpt>
      <trkpt lat="36.07688" lon="32.63869">
        <ele>439.34339</ele>
        <time>2022-02-25T03:54:06.215Z</time>
      </trkpt>
      <trkpt lat="36.07716" lon="32.63944">
        <ele>445.293885</ele>
        <time>2022-02-25T03:54:48.580Z</time>
      </trkpt>
      <trkpt lat="36.07744" lon="32.63964">
        <ele>448.234828</ele>
        <time>2022-02-25T03:55:03.418Z</time>
      </trkpt>
      <trkpt lat="36.07772" lon="32.63999">
        <ele>447.506345</ele>
        <time>2022-02-25T03:55:16.074Z</time>
      </trkpt>
      <trkpt lat="36.07784" lon="32.64021">
        <ele>446.747</ele>
        <time>2022-02-25T03:55:20.808Z</time>
      </trkpt>
      <trkpt lat="36.0779" lon="32.64044">
        <ele>446.039266</ele>
        <time>2022-02-25T03:55:25.002Z</time>
      </trkpt>
      <trkpt lat="36.07794" lon="32.64221">
        <ele>439.758941</ele>
        <time>2022-02-25T03:55:49.665Z</time>
      </trkpt>
      <trkpt lat="36.07804" lon="32.64249">
        <ele>438.091294</ele>
        <time>2022-02-25T03:55:53.790Z</time>
      </trkpt>
      <trkpt lat="36.07815" lon="32.64258">
        <ele>437.234156</ele>
        <time>2022-02-25T03:55:55.929Z</time>
      </trkpt>
      <trkpt lat="36.07839" lon="32.64257">
        <ele>435.578962</ele>
        <time>2022-02-25T03:56:00.055Z</time>
      </trkpt>
      <trkpt lat="36.07868" lon="32.64244">
        <ele>433.569806</ele>
        <time>2022-02-25T03:56:05.179Z</time>
      </trkpt>
      <trkpt lat="36.07887" lon="32.64229">
        <ele>432.03799</ele>
        <time>2022-02-25T03:56:09.196Z</time>
      </trkpt>
      <trkpt lat="36.07903" lon="32.64208">
        <ele>430.485318</ele>
        <time>2022-02-25T03:56:13.451Z</time>
      </trkpt>
      <trkpt lat="36.07926" lon="32.64151">
        <ele>431.85927</ele>
        <time>2022-02-25T03:56:23.730Z</time>
      </trkpt>
      <trkpt lat="36.07938" lon="32.64139">
        <ele>432.342843</ele>
        <time>2022-02-25T03:56:27.324Z</time>
      </trkpt>
      <trkpt lat="36.07952" lon="32.64134">
        <ele>432.818459</ele>
        <time>2022-02-25T03:56:32.065Z</time>
      </trkpt>
      <trkpt lat="36.08075" lon="32.64185">
        <ele>439.58554</ele>
        <time>2022-02-25T03:57:51.972Z</time>
      </trkpt>
      <trkpt lat="36.08134" lon="32.64221">
        <ele>447.665881</ele>
        <time>2022-02-25T03:58:50.924Z</time>
      </trkpt>
      <trkpt lat="36.08182" lon="32.64264">
        <ele>455.004502</ele>
        <time>2022-02-25T03:59:47.626Z</time>
      </trkpt>
      <trkpt lat="36.08227" lon="32.6432">
        <ele>462.521688</ele>
        <time>2022-02-25T04:00:48.402Z</time>
      </trkpt>
      <trkpt lat="36.08256" lon="32.64364">
        <ele>467.662185</ele>
        <time>2022-02-25T04:01:28.814Z</time>
      </trkpt>
      <trkpt lat="36.08342" lon="32.64584">
        <ele>485.639986</ele>
        <time>2022-02-25T04:03:50.142Z</time>
      </trkpt>
      <trkpt lat="36.08365" lon="32.64629">
        <ele>488.640873</ele>
        <time>2022-02-25T04:04:12.937Z</time>
      </trkpt>
      <trkpt lat="36.08387" lon="32.64658">
        <ele>490.853335</ele>
        <time>2022-02-25T04:04:28.419Z</time>
      </trkpt>
      <trkpt lat="36.08582" lon="32.64831">
        <ele>493.046856</ele>
        <time>2022-02-25T04:05:49.068Z</time>
      </trkpt>
      <trkpt lat="36.08655" lon="32.64875">
        <ele>491.105561</ele>
        <time>2022-02-25T04:06:05.574Z</time>
      </trkpt>
      <trkpt lat="36.08678" lon="32.64881">
        <ele>490.563379</ele>
        <time>2022-02-25T04:06:09.860Z</time>
      </trkpt>
      <trkpt lat="36.08815" lon="32.64866">
        <ele>480.257411</ele>
        <time>2022-02-25T04:06:33.216Z</time>
      </trkpt>
      <trkpt lat="36.08866" lon="32.64853">
        <ele>475.863614</ele>
        <time>2022-02-25T04:06:41.754Z</time>
      </trkpt>
      <trkpt lat="36.08899" lon="32.64836">
        <ele>472.499572</ele>
        <time>2022-02-25T04:06:47.523Z</time>
      </trkpt>
      <trkpt lat="36.08928" lon="32.64802">
        <ele>468.64063</ele>
        <time>2022-02-25T04:06:53.910Z</time>
      </trkpt>
      <trkpt lat="36.08949" lon="32.64771">
        <ele>465.495231</ele>
        <time>2022-02-25T04:06:59.162Z</time>
      </trkpt>
      <trkpt lat="36.0896" lon="32.64735">
        <ele>462.41682</ele>
        <time>2022-02-25T04:07:04.327Z</time>
      </trkpt>
      <trkpt lat="36.08963" lon="32.64674">
        <ele>457.627035</ele>
        <time>2022-02-25T04:07:12.521Z</time>
      </trkpt>
      <trkpt lat="36.08955" lon="32.64633">
        <ele>455.694807</ele>
        <time>2022-02-25T04:07:18.282Z</time>
      </trkpt>
      <trkpt lat="36.08912" lon="32.64509">
        <ele>449.534757</ele>
        <time>2022-02-25T04:07:37.770Z</time>
      </trkpt>
      <trkpt lat="36.08913" lon="32.64493">
        <ele>448.818415</ele>
        <time>2022-02-25T04:07:40.271Z</time>
      </trkpt>
      <trkpt lat="36.08928" lon="32.64456">
        <ele>447.255817</ele>
        <time>2022-02-25T04:07:46.807Z</time>
      </trkpt>
      <trkpt lat="36.08916" lon="32.64369">
        <ele>445.480944</ele>
        <time>2022-02-25T04:08:01.282Z</time>
      </trkpt>
      <trkpt lat="36.08896" lon="32.64322">
        <ele>444.428367</ele>
        <time>2022-02-25T04:08:09.895Z</time>
      </trkpt>
      <trkpt lat="36.08879" lon="32.64307">
        <ele>443.906337</ele>
        <time>2022-02-25T04:08:14.183Z</time>
      </trkpt>
      <trkpt lat="36.08864" lon="32.64276">
        <ele>443.170786</ele>
        <time>2022-02-25T04:08:20.401Z</time>
      </trkpt>
      <trkpt lat="36.08835" lon="32.64128">
        <ele>442.816932</ele>
        <time>2022-02-25T04:08:48.831Z</time>
      </trkpt>
      <trkpt lat="36.08835" lon="32.64085">
        <ele>442.757681</ele>
        <time>2022-02-25T04:08:58.400Z</time>
      </trkpt>
      <trkpt lat="36.0886" lon="32.63997">
        <ele>445.070099</ele>
        <time>2022-02-25T04:09:27.061Z</time>
      </trkpt>
      <trkpt lat="36.08864" lon="32.63927">
        <ele>447.931413</ele>
        <time>2022-02-25T04:09:55.561Z</time>
      </trkpt>
      <trkpt lat="36.08874" lon="32.63896">
        <ele>449.28348</ele>
        <time>2022-02-25T04:10:11.080Z</time>
      </trkpt>
      <trkpt lat="36.08917" lon="32.6384">
        <ele>452.472599</ele>
        <time>2022-02-25T04:10:50.587Z</time>
      </trkpt>
      <trkpt lat="36.08928" lon="32.63835">
        <ele>453.100616</ele>
        <time>2022-02-25T04:10:58.543Z</time>
      </trkpt>
      <trkpt lat="36.08949" lon="32.63836">
        <ele>454.187774</ele>
        <time>2022-02-25T04:11:12.200Z</time>
      </trkpt>
      <trkpt lat="36.09006" lon="32.63913">
        <ele>458.627231</ele>
        <time>2022-02-25T04:12:01.969Z</time>
      </trkpt>
      <trkpt lat="36.09069" lon="32.63963">
        <ele>460.27213</ele>
        <time>2022-02-25T04:12:29.808Z</time>
      </trkpt>
      <trkpt lat="36.09129" lon="32.64055">
        <ele>456.546257</ele>
        <time>2022-02-25T04:12:47.982Z</time>
      </trkpt>
      <trkpt lat="36.09149" lon="32.64065">
        <ele>455.72083</ele>
        <time>2022-02-25T04:12:51.634Z</time>
      </trkpt>
      <trkpt lat="36.09162" lon="32.64065">
        <ele>455.227803</ele>
        <time>2022-02-25T04:12:53.764Z</time>
      </trkpt>
      <trkpt lat="36.09174" lon="32.64055">
        <ele>454.661639</ele>
        <time>2022-02-25T04:12:56.223Z</time>
      </trkpt>
      <trkpt lat="36.09187" lon="32.64033">
        <ele>453.638</ele>
        <time>2022-02-25T04:12:59.856Z</time>
      </trkpt>
      <trkpt lat="36.09201" lon="32.63992">
        <ele>451.702358</ele>
        <time>2022-02-25T04:13:05.921Z</time>
      </trkpt>
      <trkpt lat="36.09214" lon="32.63893">
        <ele>447.390168</ele>
        <time>2022-02-25T04:13:20.007Z</time>
      </trkpt>
      <trkpt lat="36.09221" lon="32.63868">
        <ele>446.248629</ele>
        <time>2022-02-25T04:13:24.043Z</time>
      </trkpt>
      <trkpt lat="36.09244" lon="32.63831">
        <ele>444.808793</ele>
        <time>2022-02-25T04:13:32.025Z</time>
      </trkpt>
      <trkpt lat="36.0934" lon="32.63815">
        <ele>446.392262</ele>
        <time>2022-02-25T04:14:04.284Z</time>
      </trkpt>
      <trkpt lat="36.0943" lon="32.63794">
        <ele>447.846808</ele>
        <time>2022-02-25T04:14:45.291Z</time>
      </trkpt>
      <trkpt lat="36.09474" lon="32.63793">
        <ele>448.453787</ele>
        <time>2022-02-25T04:15:04.283Z</time>
      </trkpt>
      <trkpt lat="36.09523" lon="32.63793">
        <ele>449.125253</ele>
        <time>2022-02-25T04:15:22.169Z</time>
      </trkpt>
      <trkpt lat="36.09542" lon="32.63793">
        <ele>449.394389</ele>
        <time>2022-02-25T04:15:28.580Z</time>
      </trkpt>
      <trkpt lat="36.09582" lon="32.63795">
        <ele>449.941264</ele>
        <time>2022-02-25T04:15:38.610Z</time>
      </trkpt>
      <trkpt lat="36.09623" lon="32.6378">
        <ele>448.517231</ele>
        <time>2022-02-25T04:15:47.546Z</time>
      </trkpt>
      <trkpt lat="36.09711" lon="32.63698">
        <ele>443.173592</ele>
        <time>2022-02-25T04:16:07.618Z</time>
      </trkpt>
      <trkpt lat="36.09724" lon="32.63677">
        <ele>442.155113</ele>
        <time>2022-02-25T04:16:11.209Z</time>
      </trkpt>
      <trkpt lat="36.09726" lon="32.6364">
        <ele>440.229257</ele>
        <time>2022-02-25T04:16:16.266Z</time>
      </trkpt>
      <trkpt lat="36.09719" lon="32.63624">
        <ele>439.031509</ele>
        <time>2022-02-25T04:16:18.681Z</time>
      </trkpt>
      <trkpt lat="36.09674" lon="32.63571">
        <ele>433.954584</ele>
        <time>2022-02-25T04:16:28.917Z</time>
      </trkpt>
      <trkpt lat="36.09665" lon="32.63552">
        <ele>432.410676</ele>
        <time>2022-02-25T04:16:32.035Z</time>
      </trkpt>
      <trkpt lat="36.0965" lon="32.6349">
        <ele>428.128425</ele>
        <time>2022-02-25T04:16:40.693Z</time>
      </trkpt>
      <trkpt lat="36.09647" lon="32.63439">
        <ele>425.373275</ele>
        <time>2022-02-25T04:16:47.700Z</time>
      </trkpt>
      <trkpt lat="36.09642" lon="32.63421">
        <ele>424.612554</ele>
        <time>2022-02-25T04:16:50.146Z</time>
      </trkpt>
      <trkpt lat="36.09631" lon="32.63403">
        <ele>423.642089</ele>
        <time>2022-02-25T04:16:53.313Z</time>
      </trkpt>
      <trkpt lat="36.09583" lon="32.63363">
        <ele>420.604095</ele>
        <time>2022-02-25T04:17:03.464Z</time>
      </trkpt>
      <trkpt lat="36.09538" lon="32.63306">
        <ele>417.205321</ele>
        <time>2022-02-25T04:17:15.758Z</time>
      </trkpt>
      <trkpt lat="36.09453" lon="32.63216">
        <ele>418.925558</ele>
        <time>2022-02-25T04:17:48.856Z</time>
      </trkpt>
      <trkpt lat="36.09446" lon="32.63203">
        <ele>419.131754</ele>
        <time>2022-02-25T04:17:54.255Z</time>
      </trkpt>
      <trkpt lat="36.09443" lon="32.63182">
        <ele>419.411282</ele>
        <time>2022-02-25T04:18:01.671Z</time>
      </trkpt>
      <trkpt lat="36.09448" lon="32.63119">
        <ele>420.606183</ele>
        <time>2022-02-25T04:18:27.807Z</time>
      </trkpt>
      <trkpt lat="36.09455" lon="32.63106">
        <ele>421.230314</ele>
        <time>2022-02-25T04:18:34.533Z</time>
      </trkpt>
      <trkpt lat="36.09467" lon="32.63099">
        <ele>421.857142</ele>
        <time>2022-02-25T04:18:41.436Z</time>
      </trkpt>
      <trkpt lat="36.09503" lon="32.6309">
        <ele>423.620029</ele>
        <time>2022-02-25T04:19:01.403Z</time>
      </trkpt>
      <trkpt lat="36.09519" lon="32.6308">
        <ele>424.486135</ele>
        <time>2022-02-25T04:19:11.120Z</time>
      </trkpt>
      <trkpt lat="36.09567" lon="32.63028">
        <ele>427.576179</ele>
        <time>2022-02-25T04:19:43.086Z</time>
      </trkpt>
      <trkpt lat="36.09605" lon="32.62959">
        <ele>430.450266</ele>
        <time>2022-02-25T04:20:12.450Z</time>
      </trkpt>
      <trkpt lat="36.09621" lon="32.62942">
        <ele>431.276096</ele>
        <time>2022-02-25T04:20:21.505Z</time>
      </trkpt>
      <trkpt lat="36.09676" lon="32.62905">
        <ele>433.72728</ele>
        <time>2022-02-25T04:20:49.305Z</time>
      </trkpt>
      <trkpt lat="36.09684" lon="32.62889">
        <ele>434.339123</ele>
        <time>2022-02-25T04:20:55.967Z</time>
      </trkpt>
      <trkpt lat="36.09687" lon="32.62828">
        <ele>436.494521</ele>
        <time>2022-02-25T04:21:18.413Z</time>
      </trkpt>
      <trkpt lat="36.09693" lon="32.62815">
        <ele>437.267017</ele>
        <time>2022-02-25T04:21:24.685Z</time>
      </trkpt>
      <trkpt lat="36.09761" lon="32.62783">
        <ele>441.762876</ele>
        <time>2022-02-25T04:22:04.909Z</time>
      </trkpt>
      <trkpt lat="36.09821" lon="32.62786">
        <ele>445.476382</ele>
        <time>2022-02-25T04:22:42.807Z</time>
      </trkpt>
      <trkpt lat="36.09846" lon="32.62779">
        <ele>447.019416</ele>
        <time>2022-02-25T04:22:58.808Z</time>
      </trkpt>
      <trkpt lat="36.09873" lon="32.6276">
        <ele>448.297745</ele>
        <time>2022-02-25T04:23:17.616Z</time>
      </trkpt>
      <trkpt lat="36.09907" lon="32.62726">
        <ele>450.070666</ele>
        <time>2022-02-25T04:23:40.783Z</time>
      </trkpt>
      <trkpt lat="36.09949" lon="32.62716">
        <ele>451.821529</ele>
        <time>2022-02-25T04:24:00.617Z</time>
      </trkpt>
      <trkpt lat="36.0999" lon="32.62667">
        <ele>454.149005</ele>
        <time>2022-02-25T04:24:21.414Z</time>
      </trkpt>
      <trkpt lat="36.10017" lon="32.62648">
        <ele>453.829734</ele>
        <time>2022-02-25T04:24:30.184Z</time>
      </trkpt>
      <trkpt lat="36.10062" lon="32.62638">
        <ele>453.077637</ele>
        <time>2022-02-25T04:24:40.959Z</time>
      </trkpt>
      <trkpt lat="36.10092" lon="32.62619">
        <ele>452.531219</ele>
        <time>2022-02-25T04:24:47.835Z</time>
      </trkpt>
      <trkpt lat="36.10108" lon="32.626">
        <ele>452.159262</ele>
        <time>2022-02-25T04:24:52.301Z</time>
      </trkpt>
      <trkpt lat="36.10113" lon="32.62578">
        <ele>451.85958</ele>
        <time>2022-02-25T04:24:55.848Z</time>
      </trkpt>
      <trkpt lat="36.10097" lon="32.62551">
        <ele>451.427326</ele>
        <time>2022-02-25T04:25:00.877Z</time>
      </trkpt>
      <trkpt lat="36.0999" lon="32.62444">
        <ele>447.934208</ele>
        <time>2022-02-25T04:25:28.117Z</time>
      </trkpt>
      <trkpt lat="36.09957" lon="32.62377">
        <ele>446.597309</ele>
        <time>2022-02-25T04:25:41.982Z</time>
      </trkpt>
      <trkpt lat="36.09938" lon="32.62354">
        <ele>446.406295</ele>
        <time>2022-02-25T04:25:48.132Z</time>
      </trkpt>
      <trkpt lat="36.09813" lon="32.62303">
        <ele>445.462928</ele>
        <time>2022-02-25T04:26:21.336Z</time>
      </trkpt>
      <trkpt lat="36.09789" lon="32.62266">
        <ele>444.988839</ele>
        <time>2022-02-25T04:26:30.961Z</time>
      </trkpt>
      <trkpt lat="36.09775" lon="32.62231">
        <ele>444.587934</ele>
        <time>2022-02-25T04:26:38.180Z</time>
      </trkpt>
      <trkpt lat="36.09761" lon="32.62217">
        <ele>444.343568</ele>
        <time>2022-02-25T04:26:42.486Z</time>
      </trkpt>
      <trkpt lat="36.09738" lon="32.62205">
        <ele>444.01973</ele>
        <time>2022-02-25T04:26:48.018Z</time>
      </trkpt>
      <trkpt lat="36.0972" lon="32.62182">
        <ele>443.681677</ele>
        <time>2022-02-25T04:26:53.688Z</time>
      </trkpt>
      <trkpt lat="36.09721" lon="32.62122">
        <ele>443.0166</ele>
        <time>2022-02-25T04:27:04.081Z</time>
      </trkpt>
      <trkpt lat="36.09709" lon="32.62099">
        <ele>442.479045</ele>
        <time>2022-02-25T04:27:08.727Z</time>
      </trkpt>
      <trkpt lat="36.09593" lon="32.62081">
        <ele>439.6745</ele>
        <time>2022-02-25T04:27:31.924Z</time>
      </trkpt>
      <trkpt lat="36.0957" lon="32.62069">
        <ele>439.073592</ele>
        <time>2022-02-25T04:27:37.044Z</time>
      </trkpt>
      <trkpt lat="36.0954" lon="32.62042">
        <ele>438.494059</ele>
        <time>2022-02-25T04:27:45.053Z</time>
      </trkpt>
      <trkpt lat="36.09528" lon="32.62022">
        <ele>438.281871</ele>
        <time>2022-02-25T04:27:49.510Z</time>
      </trkpt>
      <trkpt lat="36.09517" lon="32.6198">
        <ele>437.901933</ele>
        <time>2022-02-25T04:27:57.785Z</time>
      </trkpt>
      <trkpt lat="36.09516" lon="32.61956">
        <ele>437.692836</ele>
        <time>2022-02-25T04:28:02.428Z</time>
      </trkpt>
      <trkpt lat="36.09525" lon="32.61872">
        <ele>436.96493</ele>
        <time>2022-02-25T04:28:18.729Z</time>
      </trkpt>
      <trkpt lat="36.09523" lon="32.61854">
        <ele>436.81586</ele>
        <time>2022-02-25T04:28:22.510Z</time>
      </trkpt>
      <trkpt lat="36.09502" lon="32.61796">
        <ele>436.489733</ele>
        <time>2022-02-25T04:28:35.536Z</time>
      </trkpt>
      <trkpt lat="36.09501" lon="32.61773">
        <ele>436.373936</ele>
        <time>2022-02-25T04:28:40.380Z</time>
      </trkpt>
      <trkpt lat="36.09508" lon="32.61726">
        <ele>436.125522</ele>
        <time>2022-02-25T04:28:50.430Z</time>
      </trkpt>
      <trkpt lat="36.09504" lon="32.61699">
        <ele>435.984669</ele>
        <time>2022-02-25T04:28:55.792Z</time>
      </trkpt>
      <trkpt lat="36.09472" lon="32.61665">
        <ele>435.718798</ele>
        <time>2022-02-25T04:29:05.559Z</time>
      </trkpt>
      <trkpt lat="36.09314" lon="32.61568">
        <ele>432.369552</ele>
        <time>2022-02-25T04:29:43.235Z</time>
      </trkpt>
      <trkpt lat="36.09302" lon="32.61557">
        <ele>431.978988</ele>
        <time>2022-02-25T04:29:46.184Z</time>
      </trkpt>
      <trkpt lat="36.09285" lon="32.61527">
        <ele>430.954407</ele>
        <time>2022-02-25T04:29:52.227Z</time>
      </trkpt>
      <trkpt lat="36.09276" lon="32.61449">
        <ele>428.787902</ele>
        <time>2022-02-25T04:30:04.633Z</time>
      </trkpt>
      <trkpt lat="36.09273" lon="32.61375">
        <ele>426.711536</ele>
        <time>2022-02-25T04:30:16.025Z</time>
      </trkpt>
      <trkpt lat="36.09279" lon="32.61333">
        <ele>425.0981</ele>
        <time>2022-02-25T04:30:22.253Z</time>
      </trkpt>
      <trkpt lat="36.09295" lon="32.61308">
        <ele>423.386432</ele>
        <time>2022-02-25T04:30:27.086Z</time>
      </trkpt>
      <trkpt lat="36.09335" lon="32.61276">
        <ele>420.281224</ele>
        <time>2022-02-25T04:30:35.557Z</time>
      </trkpt>
      <trkpt lat="36.09424" lon="32.61228">
        <ele>413.785547</ele>
        <time>2022-02-25T04:30:51.965Z</time>
      </trkpt>
      <trkpt lat="36.09489" lon="32.61138">
        <ele>403.925521</ele>
        <time>2022-02-25T04:31:07.997Z</time>
      </trkpt>
      <trkpt lat="36.09493" lon="32.61099">
        <ele>400.725011</ele>
        <time>2022-02-25T04:31:13.129Z</time>
      </trkpt>
      <trkpt lat="36.09473" lon="32.61021">
        <ele>393.664913</ele>
        <time>2022-02-25T04:31:23.768Z</time>
      </trkpt>
      <trkpt lat="36.0948" lon="32.60967">
        <ele>388.470587</ele>
        <time>2022-02-25T04:31:30.836Z</time>
      </trkpt>
      <trkpt lat="36.09491" lon="32.60939">
        <ele>385.457486</ele>
        <time>2022-02-25T04:31:34.928Z</time>
      </trkpt>
      <trkpt lat="36.09552" lon="32.60874">
        <ele>375.999291</ele>
        <time>2022-02-25T04:31:47.730Z</time>
      </trkpt>
      <trkpt lat="36.09567" lon="32.6085">
        <ele>373.115857</ele>
        <time>2022-02-25T04:31:51.688Z</time>
      </trkpt>
      <trkpt lat="36.09564" lon="32.60818">
        <ele>370.052819</ele>
        <time>2022-02-25T04:31:55.915Z</time>
      </trkpt>
      <trkpt lat="36.09546" lon="32.60783">
        <ele>366.256161</ele>
        <time>2022-02-25T04:32:01.135Z</time>
      </trkpt>
      <trkpt lat="36.09505" lon="32.60722">
        <ele>358.855026</ele>
        <time>2022-02-25T04:32:11.371Z</time>
      </trkpt>
      <trkpt lat="36.09404" lon="32.60657">
        <ele>352.079392</ele>
        <time>2022-02-25T04:32:30.448Z</time>
      </trkpt>
      <trkpt lat="36.09373" lon="32.60627">
        <ele>350.893965</ele>
        <time>2022-02-25T04:32:38.420Z</time>
      </trkpt>
      <trkpt lat="36.0936" lon="32.60609">
        <ele>350.301461</ele>
        <time>2022-02-25T04:32:43.795Z</time>
      </trkpt>
      <trkpt lat="36.09356" lon="32.60591">
        <ele>349.825352</ele>
        <time>2022-02-25T04:32:48.596Z</time>
      </trkpt>
      <trkpt lat="36.09358" lon="32.60571">
        <ele>349.329331</ele>
        <time>2022-02-25T04:32:54.793Z</time>
      </trkpt>
      <trkpt lat="36.09374" lon="32.6054">
        <ele>349.42048</ele>
        <time>2022-02-25T04:33:07.559Z</time>
      </trkpt>
      <trkpt lat="36.09402" lon="32.60521">
        <ele>350.744442</ele>
        <time>2022-02-25T04:33:24.927Z</time>
      </trkpt>
      <trkpt lat="36.09443" lon="32.60472">
        <ele>353.024771</ele>
        <time>2022-02-25T04:33:57.925Z</time>
      </trkpt>
      <trkpt lat="36.09529" lon="32.60402">
        <ele>354.938086</ele>
        <time>2022-02-25T04:34:43.477Z</time>
      </trkpt>
      <trkpt lat="36.09541" lon="32.60387">
        <ele>354.139935</ele>
        <time>2022-02-25T04:34:47.473Z</time>
      </trkpt>
      <trkpt lat="36.09575" lon="32.60322">
        <ele>351.243072</ele>
        <time>2022-02-25T04:34:59.109Z</time>
      </trkpt>
      <trkpt lat="36.09614" lon="32.60289">
        <ele>349.034002</ele>
        <time>2022-02-25T04:35:07.107Z</time>
      </trkpt>
      <trkpt lat="36.09619" lon="32.60275">
        <ele>348.448834</ele>
        <time>2022-02-25T04:35:09.151Z</time>
      </trkpt>
      <trkpt lat="36.09618" lon="32.60252">
        <ele>347.237746</ele>
        <time>2022-02-25T04:35:12.202Z</time>
      </trkpt>
      <trkpt lat="36.096" lon="32.6019">
        <ele>340.832615</ele>
        <time>2022-02-25T04:35:20.645Z</time>
      </trkpt>
      <trkpt lat="36.09586" lon="32.6016">
        <ele>337.459476</ele>
        <time>2022-02-25T04:35:25.066Z</time>
      </trkpt>
      <trkpt lat="36.09574" lon="32.60146">
        <ele>335.414164</ele>
        <time>2022-02-25T04:35:27.736Z</time>
      </trkpt>
      <trkpt lat="36.09532" lon="32.60133">
        <ele>330.22596</ele>
        <time>2022-02-25T04:35:34.554Z</time>
      </trkpt>
      <trkpt lat="36.09497" lon="32.60103">
        <ele>325.506071</ele>
        <time>2022-02-25T04:35:41.367Z</time>
      </trkpt>
      <trkpt lat="36.09487" lon="32.60081">
        <ele>324.02633</ele>
        <time>2022-02-25T04:35:44.609Z</time>
      </trkpt>
      <trkpt lat="36.09476" lon="32.60026">
        <ele>320.639695</ele>
        <time>2022-02-25T04:35:52.209Z</time>
      </trkpt>
      <trkpt lat="36.09463" lon="32.60007">
        <ele>319.140551</ele>
        <time>2022-02-25T04:35:55.617Z</time>
      </trkpt>
      <trkpt lat="36.09405" lon="32.59964">
        <ele>314.134649</ele>
        <time>2022-02-25T04:36:07.501Z</time>
      </trkpt>
      <trkpt lat="36.09338" lon="32.59898">
        <ele>311.485991</ele>
        <time>2022-02-25T04:36:25.531Z</time>
      </trkpt>
      <trkpt lat="36.09317" lon="32.59869">
        <ele>310.850131</ele>
        <time>2022-02-25T04:36:33.124Z</time>
      </trkpt>
      <trkpt lat="36.0931" lon="32.59846">
        <ele>310.45568</ele>
        <time>2022-02-25T04:36:37.784Z</time>
      </trkpt>
      <trkpt lat="36.09302" lon="32.59795">
        <ele>309.611548</ele>
        <time>2022-02-25T04:36:47.133Z</time>
      </trkpt>
      <trkpt lat="36.09301" lon="32.59766">
        <ele>308.977072</ele>
        <time>2022-02-25T04:36:52.418Z</time>
      </trkpt>
      <trkpt lat="36.09305" lon="32.59744">
        <ele>308.076914</ele>
        <time>2022-02-25T04:36:55.845Z</time>
      </trkpt>
      <trkpt lat="36.09312" lon="32.59732">
        <ele>307.476479</ele>
        <time>2022-02-25T04:36:58.630Z</time>
      </trkpt>
      <trkpt lat="36.09349" lon="32.59689">
        <ele>304.932351</ele>
        <time>2022-02-25T04:37:08.116Z</time>
      </trkpt>
      <trkpt lat="36.09378" lon="32.59648">
        <ele>302.72124</ele>
        <time>2022-02-25T04:37:16.064Z</time>
      </trkpt>
      <trkpt lat="36.09437" lon="32.59594">
        <ele>298.05985</ele>
        <time>2022-02-25T04:37:28.420Z</time>
      </trkpt>
      <trkpt lat="36.09483" lon="32.59432">
        <ele>285.023742</ele>
        <time>2022-02-25T04:37:51.055Z</time>
      </trkpt>
      <trkpt lat="36.09523" lon="32.5936">
        <ele>279.15597</ele>
        <time>2022-02-25T04:38:02.635Z</time>
      </trkpt>
      <trkpt lat="36.09535" lon="32.59325">
        <ele>276.679833</ele>
        <time>2022-02-25T04:38:07.761Z</time>
      </trkpt>
      <trkpt lat="36.0956" lon="32.59128">
        <ele>266.040277</ele>
        <time>2022-02-25T04:38:35.532Z</time>
      </trkpt>
      <trkpt lat="36.09565" lon="32.59111">
        <ele>265.397999</ele>
        <time>2022-02-25T04:38:38.212Z</time>
      </trkpt>
      <trkpt lat="36.09604" lon="32.5905">
        <ele>262.585853</ele>
        <time>2022-02-25T04:38:50.378Z</time>
      </trkpt>
      <trkpt lat="36.09608" lon="32.59035">
        <ele>262.020923</ele>
        <time>2022-02-25T04:38:52.894Z</time>
      </trkpt>
      <trkpt lat="36.09609" lon="32.58957">
        <ele>259.555946</ele>
        <time>2022-02-25T04:39:05.923Z</time>
      </trkpt>
      <trkpt lat="36.09617" lon="32.58928">
        <ele>258.680329</ele>
        <time>2022-02-25T04:39:11.356Z</time>
      </trkpt>
      <trkpt lat="36.09732" lon="32.58812">
        <ele>251.706731</ele>
        <time>2022-02-25T04:39:39.528Z</time>
      </trkpt>
      <trkpt lat="36.09744" lon="32.58805">
        <ele>250.498843</ele>
        <time>2022-02-25T04:39:41.786Z</time>
      </trkpt>
      <trkpt lat="36.09794" lon="32.58791">
        <ele>245.817806</ele>
        <time>2022-02-25T04:39:50.249Z</time>
      </trkpt>
      <trkpt lat="36.09809" lon="32.58772">
        <ele>243.833055</ele>
        <time>2022-02-25T04:39:53.782Z</time>
      </trkpt>
      <trkpt lat="36.09814" lon="32.58746">
        <ele>241.867479</ele>
        <time>2022-02-25T04:39:57.237Z</time>
      </trkpt>
      <trkpt lat="36.09811" lon="32.58696">
        <ele>238.190771</ele>
        <time>2022-02-25T04:40:03.663Z</time>
      </trkpt>
      <trkpt lat="36.0979" lon="32.58622">
        <ele>231.905413</ele>
        <time>2022-02-25T04:40:13.766Z</time>
      </trkpt>
      <trkpt lat="36.09773" lon="32.58585">
        <ele>228.482558</ele>
        <time>2022-02-25T04:40:19.327Z</time>
      </trkpt>
      <trkpt lat="36.0973" lon="32.58523">
        <ele>221.996416</ele>
        <time>2022-02-25T04:40:30.206Z</time>
      </trkpt>
      <trkpt lat="36.09707" lon="32.58458">
        <ele>220.058677</ele>
        <time>2022-02-25T04:40:40.706Z</time>
      </trkpt>
      <trkpt lat="36.09678" lon="32.58399">
        <ele>219.587736</ele>
        <time>2022-02-25T04:40:53.166Z</time>
      </trkpt>
      <trkpt lat="36.0967" lon="32.58368">
        <ele>219.360905</ele>
        <time>2022-02-25T04:41:01.273Z</time>
      </trkpt>
      <trkpt lat="36.0967" lon="32.58348">
        <ele>219.223522</ele>
        <time>2022-02-25T04:41:07.136Z</time>
      </trkpt>
      <trkpt lat="36.09673" lon="32.58328">
        <ele>219.087414</ele>
        <time>2022-02-25T04:41:13.403Z</time>
      </trkpt>
      <trkpt lat="36.09678" lon="32.58307">
        <ele>218.93606</ele>
        <time>2022-02-25T04:41:20.811Z</time>
      </trkpt>
      <trkpt lat="36.09704" lon="32.58229">
        <ele>220.652753</ele>
        <time>2022-02-25T04:41:52.052Z</time>
      </trkpt>
      <trkpt lat="36.0971" lon="32.58219">
        <ele>220.933302</ele>
        <time>2022-02-25T04:41:56.816Z</time>
      </trkpt>
      <trkpt lat="36.09725" lon="32.58213">
        <ele>221.390158</ele>
        <time>2022-02-25T04:42:04.679Z</time>
      </trkpt>
      <trkpt lat="36.09748" lon="32.58226">
        <ele>222.087128</ele>
        <time>2022-02-25T04:42:17.399Z</time>
      </trkpt>
      <trkpt lat="36.09794" lon="32.58287">
        <ele>223.962507</ele>
        <time>2022-02-25T04:42:42.345Z</time>
      </trkpt>
      <trkpt lat="36.09836" lon="32.58319">
        <ele>221.529628</ele>
        <time>2022-02-25T04:42:53.316Z</time>
      </trkpt>
      <trkpt lat="36.0986" lon="32.58345">
        <ele>219.943504</ele>
        <time>2022-02-25T04:42:59.475Z</time>
      </trkpt>
      <trkpt lat="36.09873" lon="32.58356">
        <ele>219.159165</ele>
        <time>2022-02-25T04:43:02.227Z</time>
      </trkpt>
      <trkpt lat="36.09894" lon="32.58373">
        <ele>217.907971</ele>
        <time>2022-02-25T04:43:06.715Z</time>
      </trkpt>
      <trkpt lat="36.0999" lon="32.58414">
        <ele>210.232474</ele>
        <time>2022-02-25T04:43:23.380Z</time>
      </trkpt>
      <trkpt lat="36.10004" lon="32.58405">
        <ele>208.517236</ele>
        <time>2022-02-25T04:43:25.834Z</time>
      </trkpt>
      <trkpt lat="36.1003" lon="32.58327">
        <ele>200.96167</ele>
        <time>2022-02-25T04:43:36.812Z</time>
      </trkpt>
      <trkpt lat="36.10043" lon="32.58308">
        <ele>198.788786</ele>
        <time>2022-02-25T04:43:39.909Z</time>
      </trkpt>
      <trkpt lat="36.10059" lon="32.58304">
        <ele>196.971555</ele>
        <time>2022-02-25T04:43:42.596Z</time>
      </trkpt>
      <trkpt lat="36.10135" lon="32.58317">
        <ele>189.230288</ele>
        <time>2022-02-25T04:43:55.065Z</time>
      </trkpt>
      <trkpt lat="36.10166" lon="32.58331">
        <ele>186.002059</ele>
        <time>2022-02-25T04:44:00.522Z</time>
      </trkpt>
      <trkpt lat="36.10175" lon="32.58334">
        <ele>185.05297</ele>
        <time>2022-02-25T04:44:02.047Z</time>
      </trkpt>
      <trkpt lat="36.10188" lon="32.5833">
        <ele>183.817745</ele>
        <time>2022-02-25T04:44:04.221Z</time>
      </trkpt>
      <trkpt lat="36.10264" lon="32.58254">
        <ele>174.460621</ele>
        <time>2022-02-25T04:44:20.479Z</time>
      </trkpt>
      <trkpt lat="36.1028" lon="32.58251">
        <ele>172.989648</ele>
        <time>2022-02-25T04:44:23.250Z</time>
      </trkpt>
      <trkpt lat="36.10319" lon="32.5826">
        <ele>169.367</ele>
        <time>2022-02-25T04:44:29.774Z</time>
      </trkpt>
      <trkpt lat="36.10403" lon="32.58209">
        <ele>160.715356</ele>
        <time>2022-02-25T04:44:45.229Z</time>
      </trkpt>
      <trkpt lat="36.10443" lon="32.58217">
        <ele>155.99716</ele>
        <time>2022-02-25T04:44:51.750Z</time>
      </trkpt>
      <trkpt lat="36.10455" lon="32.58209">
        <ele>154.411515</ele>
        <time>2022-02-25T04:44:53.925Z</time>
      </trkpt>
      <trkpt lat="36.10459" lon="32.58198">
        <ele>153.200969</ele>
        <time>2022-02-25T04:44:55.575Z</time>
      </trkpt>
      <trkpt lat="36.1046" lon="32.58133">
        <ele>147.029174</ele>
        <time>2022-02-25T04:45:03.936Z</time>
      </trkpt>
      <trkpt lat="36.10469" lon="32.58072">
        <ele>141.184755</ele>
        <time>2022-02-25T04:45:11.796Z</time>
      </trkpt>
      <trkpt lat="36.10479" lon="32.58052">
        <ele>138.779246</ele>
        <time>2022-02-25T04:45:14.841Z</time>
      </trkpt>
      <trkpt lat="36.10516" lon="32.58021">
        <ele>132.905931</ele>
        <time>2022-02-25T04:45:21.846Z</time>
      </trkpt>
      <trkpt lat="36.10532" lon="32.57995">
        <ele>129.385116</ele>
        <time>2022-02-25T04:45:26.028Z</time>
      </trkpt>
      <trkpt lat="36.1054" lon="32.57964">
        <ele>125.853887</ele>
        <time>2022-02-25T04:45:30.222Z</time>
      </trkpt>
      <trkpt lat="36.1054" lon="32.57934">
        <ele>122.688337</ele>
        <time>2022-02-25T04:45:33.996Z</time>
      </trkpt>
      <trkpt lat="36.10527" lon="32.57891">
        <ele>117.826817</ele>
        <time>2022-02-25T04:45:39.779Z</time>
      </trkpt>
      <trkpt lat="36.105" lon="32.57832">
        <ele>111.431134</ele>
        <time>2022-02-25T04:45:48.563Z</time>
      </trkpt>
      <trkpt lat="36.10493" lon="32.57807">
        <ele>109.100669</ele>
        <time>2022-02-25T04:45:51.914Z</time>
      </trkpt>
      <trkpt lat="36.10504" lon="32.57727">
        <ele>101.776243</ele>
        <time>2022-02-25T04:46:02.550Z</time>
      </trkpt>
      <trkpt lat="36.10498" lon="32.57704">
        <ele>99.603267</ele>
        <time>2022-02-25T04:46:05.728Z</time>
      </trkpt>
      <trkpt lat="36.10476" lon="32.5767">
        <ele>95.812999</ele>
        <time>2022-02-25T04:46:11.488Z</time>
      </trkpt>
      <trkpt lat="36.10475" lon="32.57661">
        <ele>95.166557</ele>
        <time>2022-02-25T04:46:12.694Z</time>
      </trkpt>
      <trkpt lat="36.1048" lon="32.57639">
        <ele>93.534752</ele>
        <time>2022-02-25T04:46:15.763Z</time>
      </trkpt>
      <trkpt lat="36.10506" lon="32.57597">
        <ele>89.757328</ele>
        <time>2022-02-25T04:46:22.792Z</time>
      </trkpt>
      <trkpt lat="36.10508" lon="32.57557">
        <ele>86.917637</ele>
        <time>2022-02-25T04:46:28.102Z</time>
      </trkpt>
      <trkpt lat="36.105" lon="32.57531">
        <ele>84.907417</ele>
        <time>2022-02-25T04:46:31.848Z</time>
      </trkpt>
      <trkpt lat="36.10473" lon="32.57474">
        <ele>80.227118</ele>
        <time>2022-02-25T04:46:40.968Z</time>
      </trkpt>
      <trkpt lat="36.10471" lon="32.57459">
        <ele>79.248071</ele>
        <time>2022-02-25T04:46:42.958Z</time>
      </trkpt>
      <trkpt lat="36.10473" lon="32.57448">
        <ele>78.492296</ele>
        <time>2022-02-25T04:46:44.625Z</time>
      </trkpt>
      <trkpt lat="36.10482" lon="32.57435">
        <ele>77.423911</ele>
        <time>2022-02-25T04:46:47.050Z</time>
      </trkpt>
      <trkpt lat="36.10498" lon="32.57424">
        <ele>75.95229</ele>
        <time>2022-02-25T04:46:50.122Z</time>
      </trkpt>
      <trkpt lat="36.10504" lon="32.57412">
        <ele>75.057484</ele>
        <time>2022-02-25T04:46:52.114Z</time>
      </trkpt>
      <trkpt lat="36.10505" lon="32.57402">
        <ele>74.403056</ele>
        <time>2022-02-25T04:46:53.526Z</time>
      </trkpt>
      <trkpt lat="36.10494" lon="32.57369">
        <ele>72.059375</ele>
        <time>2022-02-25T04:46:58.430Z</time>
      </trkpt>
      <trkpt lat="36.10493" lon="32.57349">
        <ele>70.794295</ele>
        <time>2022-02-25T04:47:01.019Z</time>
      </trkpt>
      <trkpt lat="36.10516" lon="32.57304">
        <ele>67.363776</ele>
        <time>2022-02-25T04:47:08.220Z</time>
      </trkpt>
      <trkpt lat="36.10514" lon="32.57251">
        <ele>63.688503</ele>
        <time>2022-02-25T04:47:15.480Z</time>
      </trkpt>
      <trkpt lat="36.10519" lon="32.57223">
        <ele>61.582465</ele>
        <time>2022-02-25T04:47:19.351Z</time>
      </trkpt>
      <trkpt lat="36.10533" lon="32.57197">
        <ele>59.314161</ele>
        <time>2022-02-25T04:47:23.516Z</time>
      </trkpt>
      <trkpt lat="36.1054" lon="32.57176">
        <ele>57.663725</ele>
        <time>2022-02-25T04:47:26.556Z</time>
      </trkpt>
      <trkpt lat="36.1054" lon="32.5715">
        <ele>55.782419</ele>
        <time>2022-02-25T04:47:30.012Z</time>
      </trkpt>
      <trkpt lat="36.10532" lon="32.57096">
        <ele>51.809479</ele>
        <time>2022-02-25T04:47:37.262Z</time>
      </trkpt>
      <trkpt lat="36.10524" lon="32.57043">
        <ele>48.150102</ele>
        <time>2022-02-25T04:47:44.417Z</time>
      </trkpt>
      <trkpt lat="36.10517" lon="32.5695">
        <ele>42.306682</ele>
        <time>2022-02-25T04:47:56.997Z</time>
      </trkpt>
      <trkpt lat="36.10521" lon="32.56897">
        <ele>38.940663</ele>
        <time>2022-02-25T04:48:04.285Z</time>
      </trkpt>
      <trkpt lat="36.10553" lon="32.56771">
        <ele>32.292054</ele>
        <time>2022-02-25T04:48:23.211Z</time>
      </trkpt>
      <trkpt lat="36.10565" lon="32.56732">
        <ele>30.519269</ele>
        <time>2022-02-25T04:48:29.278Z</time>
      </trkpt>
      <trkpt lat="36.10583" lon="32.56696">
        <ele>28.670104</ele>
        <time>2022-02-25T04:48:35.695Z</time>
      </trkpt>
      <trkpt lat="36.10625" lon="32.56628">
        <ele>25.102076</ele>
        <time>2022-02-25T04:48:48.204Z</time>
      </trkpt>
      <trkpt lat="36.10693" lon="32.56544">
        <ele>20.19143</ele>
        <time>2022-02-25T04:49:05.454Z</time>
      </trkpt>
      <trkpt lat="36.10709" lon="32.56506">
        <ele>18.429363</ele>
        <time>2022-02-25T04:49:11.702Z</time>
      </trkpt>
      <trkpt lat="36.10714" lon="32.56481">
        <ele>17.362818</ele>
        <time>2022-02-25T04:49:15.421Z</time>
      </trkpt>
      <trkpt lat="36.10724" lon="32.56404">
        <ele>15.681077</ele>
        <time>2022-02-25T04:49:27.141Z</time>
      </trkpt>
      <trkpt lat="36.10734" lon="32.5635">
        <ele>14.537034</ele>
        <time>2022-02-25T04:49:35.893Z</time>
      </trkpt>
      <trkpt lat="36.10747" lon="32.56267">
        <ele>12.779142</ele>
        <time>2022-02-25T04:49:51.029Z</time>
      </trkpt>
      <trkpt lat="36.10747" lon="32.56252">
        <ele>12.686835</ele>
        <time>2022-02-25T04:49:54.136Z</time>
      </trkpt>
      <trkpt lat="36.10747" lon="32.56236">
        <ele>12.95717</ele>
        <time>2022-02-25T04:49:57.658Z</time>
      </trkpt>
      <trkpt lat="36.10747" lon="32.56228">
        <ele>13.076924</ele>
        <time>2022-02-25T04:50:00.066Z</time>
      </trkpt>
      <trkpt lat="36.10742" lon="32.56186">
        <ele>13.766514</ele>
        <time>2022-02-25T04:50:11.919Z</time>
      </trkpt>
      <trkpt lat="36.10732" lon="32.56144">
        <ele>14.475172</ele>
        <time>2022-02-25T04:50:25.516Z</time>
      </trkpt>
      <trkpt lat="36.1071" lon="32.56093">
        <ele>15.41207</ele>
        <time>2022-02-25T04:50:44.409Z</time>
      </trkpt>
      <trkpt lat="36.10692" lon="32.56068">
        <ele>15.952149</ele>
        <time>2022-02-25T04:50:56.022Z</time>
      </trkpt>
      <trkpt lat="36.10642" lon="32.56019">
        <ele>17.717324</ele>
        <time>2022-02-25T04:51:22.289Z</time>
      </trkpt>
      <trkpt lat="36.10612" lon="32.55993">
        <ele>18.801535</ele>
        <time>2022-02-25T04:51:37.233Z</time>
      </trkpt>
      <trkpt lat="36.10595" lon="32.55985">
        <ele>19.33536</ele>
        <time>2022-02-25T04:51:44.286Z</time>
      </trkpt>
      <trkpt lat="36.10579" lon="32.55977">
        <ele>19.84738</ele>
        <time>2022-02-25T04:51:51.616Z</time>
      </trkpt>
      <trkpt lat="36.10444" lon="32.55935">
        <ele>24.720656</ele>
        <time>2022-02-25T04:52:48.419Z</time>
      </trkpt>
      <trkpt lat="36.10393" lon="32.55907">
        <ele>26.868495</ele>
        <time>2022-02-25T04:53:12.042Z</time>
      </trkpt>
      <trkpt lat="36.10339" lon="32.55868">
        <ele>30.00474</ele>
        <time>2022-02-25T04:53:46.325Z</time>
      </trkpt>
      <trkpt lat="36.10309" lon="32.55813">
        <ele>33.892129</ele>
        <time>2022-02-25T04:54:17.362Z</time>
      </trkpt>
      <trkpt lat="36.10301" lon="32.55777">
        <ele>36.05455</ele>
        <time>2022-02-25T04:54:35.567Z</time>
      </trkpt>
      <trkpt lat="36.10297" lon="32.55756">
        <ele>37.370123</ele>
        <time>2022-02-25T04:54:48.080Z</time>
      </trkpt>
      <trkpt lat="36.10279" lon="32.55563">
        <ele>49.796052</ele>
        <time>2022-02-25T04:56:34.102Z</time>
      </trkpt>
      <trkpt lat="36.10282" lon="32.55465">
        <ele>56.405188</ele>
        <time>2022-02-25T04:57:24.897Z</time>
      </trkpt>
      <trkpt lat="36.10284" lon="32.55453">
        <ele>57.26933</ele>
        <time>2022-02-25T04:57:32.309Z</time>
      </trkpt>
      <trkpt lat="36.1029" lon="32.55391">
        <ele>61.830179</ele>
        <time>2022-02-25T04:58:06.281Z</time>
      </trkpt>
      <trkpt lat="36.10286" lon="32.55331">
        <ele>66.184774</ele>
        <time>2022-02-25T04:58:39.623Z</time>
      </trkpt>
      <trkpt lat="36.10278" lon="32.55307">
        <ele>68.03285</ele>
        <time>2022-02-25T04:58:54.187Z</time>
      </trkpt>
      <trkpt lat="36.10275" lon="32.55297">
        <ele>68.871072</ele>
        <time>2022-02-25T04:59:01.795Z</time>
      </trkpt>
      <trkpt lat="36.10245" lon="32.55232">
        <ele>74.631811</ele>
        <time>2022-02-25T04:59:45.326Z</time>
      </trkpt>
      <trkpt lat="36.10236" lon="32.55199">
        <ele>77.579866</ele>
        <time>2022-02-25T05:00:06.392Z</time>
      </trkpt>
      <trkpt lat="36.10232" lon="32.55162">
        <ele>80.703153</ele>
        <time>2022-02-25T05:00:29.678Z</time>
      </trkpt>
      <trkpt lat="36.10232" lon="32.55085">
        <ele>87.255597</ele>
        <time>2022-02-25T05:01:18.171Z</time>
      </trkpt>
      <trkpt lat="36.10238" lon="32.55017">
        <ele>93.358376</ele>
        <time>2022-02-25T05:02:00.117Z</time>
      </trkpt>
      <trkpt lat="36.10245" lon="32.54975">
        <ele>97.522583</ele>
        <time>2022-02-25T05:02:30.790Z</time>
      </trkpt>
      <trkpt lat="36.1027" lon="32.5489">
        <ele>106.433268</ele>
        <time>2022-02-25T05:03:38.157Z</time>
      </trkpt>
      <trkpt lat="36.10272" lon="32.54868">
        <ele>108.626045</ele>
        <time>2022-02-25T05:03:52.149Z</time>
      </trkpt>
      <trkpt lat="36.10269" lon="32.54848">
        <ele>110.630381</ele>
        <time>2022-02-25T05:04:07.748Z</time>
      </trkpt>
      <trkpt lat="36.10259" lon="32.54834">
        <ele>112.434669</ele>
        <time>2022-02-25T05:04:18.775Z</time>
      </trkpt>
      <trkpt lat="36.10246" lon="32.54826">
        <ele>113.937256</ele>
        <time>2022-02-25T05:04:30.222Z</time>
      </trkpt>
      <trkpt lat="36.10236" lon="32.54826">
        <ele>114.668202</ele>
        <time>2022-02-25T05:04:41.056Z</time>
      </trkpt>
      <trkpt lat="36.10166" lon="32.5482">
        <ele>119.815464</ele>
        <time>2022-02-25T05:05:32.400Z</time>
      </trkpt>
      <trkpt lat="36.10149" lon="32.54825">
        <ele>121.036665</ele>
        <time>2022-02-25T05:05:41.101Z</time>
      </trkpt>
      <trkpt lat="36.10134" lon="32.54839">
        <ele>122.402104</ele>
        <time>2022-02-25T05:05:54.389Z</time>
      </trkpt>
      <trkpt lat="36.10117" lon="32.5496">
        <ele>127.322846</ele>
        <time>2022-02-25T05:06:34.798Z</time>
      </trkpt>
      <trkpt lat="36.10109" lon="32.54982">
        <ele>127.656515</ele>
        <time>2022-02-25T05:06:39.758Z</time>
      </trkpt>
      <trkpt lat="36.10093" lon="32.55005">
        <ele>128.06807</ele>
        <time>2022-02-25T05:06:45.980Z</time>
      </trkpt>
      <trkpt lat="36.10014" lon="32.55073">
        <ele>129.836496</ele>
        <time>2022-02-25T05:07:15.744Z</time>
      </trkpt>
      <trkpt lat="36.09999" lon="32.55079">
        <ele>130.836863</ele>
        <time>2022-02-25T05:07:22.185Z</time>
      </trkpt>
      <trkpt lat="36.09983" lon="32.55077">
        <ele>131.90833</ele>
        <time>2022-02-25T05:07:29.167Z</time>
      </trkpt>
      <trkpt lat="36.09973" lon="32.55059">
        <ele>133.099801</ele>
        <time>2022-02-25T05:07:38.876Z</time>
      </trkpt>
      <trkpt lat="36.09974" lon="32.55049">
        <ele>133.630331</ele>
        <time>2022-02-25T05:07:43.405Z</time>
      </trkpt>
      <trkpt lat="36.09981" lon="32.55042">
        <ele>134.219611</ele>
        <time>2022-02-25T05:07:48.229Z</time>
      </trkpt>
      <trkpt lat="36.10016" lon="32.55034">
        <ele>136.588699</ele>
        <time>2022-02-25T05:08:11.160Z</time>
      </trkpt>
      <trkpt lat="36.10031" lon="32.55022">
        <ele>137.782233</ele>
        <time>2022-02-25T05:08:23.931Z</time>
      </trkpt>
      <trkpt lat="36.10051" lon="32.55002">
        <ele>139.502156</ele>
        <time>2022-02-25T05:08:42.041Z</time>
      </trkpt>
      <trkpt lat="36.10069" lon="32.54973">
        <ele>141.426106</ele>
        <time>2022-02-25T05:09:02.626Z</time>
      </trkpt>
      <trkpt lat="36.10079" lon="32.54943">
        <ele>143.107163</ele>
        <time>2022-02-25T05:09:21.082Z</time>
      </trkpt>
      <trkpt lat="36.10081" lon="32.54916">
        <ele>144.553228</ele>
        <time>2022-02-25T05:09:36.331Z</time>
      </trkpt>
      <trkpt lat="36.10074" lon="32.54876">
        <ele>146.735193</ele>
        <time>2022-02-25T05:09:57.880Z</time>
      </trkpt>
      <trkpt lat="36.10056" lon="32.54836">
        <ele>149.128549</ele>
        <time>2022-02-25T05:10:19.553Z</time>
      </trkpt>
      <trkpt lat="36.10037" lon="32.54839">
        <ele>150.383285</ele>
        <time>2022-02-25T05:10:29.772Z</time>
      </trkpt>
      <trkpt lat="36.10031" lon="32.54852">
        <ele>151.216941</ele>
        <time>2022-02-25T05:10:36.126Z</time>
      </trkpt>
      <trkpt lat="36.10038" lon="32.54941">
        <ele>155.000336</ele>
        <time>2022-02-25T05:11:06.685Z</time>
      </trkpt>
      <trkpt lat="36.10034" lon="32.54973">
        <ele>156.064348</ele>
        <time>2022-02-25T05:11:16.624Z</time>
      </trkpt>
      <trkpt lat="36.10021" lon="32.54987">
        <ele>156.776433</ele>
        <time>2022-02-25T05:11:23.293Z</time>
      </trkpt>
      <trkpt lat="36.10009" lon="32.54992">
        <ele>157.316136</ele>
        <time>2022-02-25T05:11:28.709Z</time>
      </trkpt>
      <trkpt lat="36.09992" lon="32.54989">
        <ele>158.032536</ele>
        <time>2022-02-25T05:11:35.619Z</time>
      </trkpt>
      <trkpt lat="36.09966" lon="32.54965">
        <ele>159.386787</ele>
        <time>2022-02-25T05:11:51.375Z</time>
      </trkpt>
      <trkpt lat="36.09917" lon="32.54829">
        <ele>165.052192</ele>
        <time>2022-02-25T05:13:01.607Z</time>
      </trkpt>
      <trkpt lat="36.09905" lon="32.5481">
        <ele>166.048212</ele>
        <time>2022-02-25T05:13:13.615Z</time>
      </trkpt>
      <trkpt lat="36.0989" lon="32.54798">
        <ele>166.920129</ele>
        <time>2022-02-25T05:13:23.949Z</time>
      </trkpt>
      <trkpt lat="36.09869" lon="32.54794">
        <ele>167.9802</ele>
        <time>2022-02-25T05:13:35.947Z</time>
      </trkpt>
      <trkpt lat="36.09847" lon="32.54801">
        <ele>169.105853</ele>
        <time>2022-02-25T05:13:46.676Z</time>
      </trkpt>
      <trkpt lat="36.09743" lon="32.5487">
        <ele>165.873992</ele>
        <time>2022-02-25T05:14:12.170Z</time>
      </trkpt>
      <trkpt lat="36.0972" lon="32.54879">
        <ele>164.999898</ele>
        <time>2022-02-25T05:14:16.297Z</time>
      </trkpt>
      <trkpt lat="36.09695" lon="32.54881">
        <ele>164.071548</ele>
        <time>2022-02-25T05:14:20.535Z</time>
      </trkpt>
      <trkpt lat="36.09634" lon="32.54861">
        <ele>161.159324</ele>
        <time>2022-02-25T05:14:31.090Z</time>
      </trkpt>
      <trkpt lat="36.09607" lon="32.54843">
        <ele>159.555026</ele>
        <time>2022-02-25T05:14:36.219Z</time>
      </trkpt>
      <trkpt lat="36.09577" lon="32.5481">
        <ele>157.447497</ele>
        <time>2022-02-25T05:14:43.011Z</time>
      </trkpt>
      <trkpt lat="36.0957" lon="32.54787">
        <ele>156.405947</ele>
        <time>2022-02-25T05:14:46.546Z</time>
      </trkpt>
      <trkpt lat="36.0957" lon="32.54725">
        <ele>153.760739</ele>
        <time>2022-02-25T05:14:56.883Z</time>
      </trkpt>
      <trkpt lat="36.09592" lon="32.54668">
        <ele>156.188871</ele>
        <time>2022-02-25T05:15:16.620Z</time>
      </trkpt>
      <trkpt lat="36.09629" lon="32.54622">
        <ele>158.823987</ele>
        <time>2022-02-25T05:15:45.123Z</time>
      </trkpt>
      <trkpt lat="36.09636" lon="32.54601">
        <ele>159.764709</ele>
        <time>2022-02-25T05:15:55.938Z</time>
      </trkpt>
      <trkpt lat="36.09636" lon="32.54576">
        <ele>160.803545</ele>
        <time>2022-02-25T05:16:08.558Z</time>
      </trkpt>
      <trkpt lat="36.09625" lon="32.54532">
        <ele>162.677602</ele>
        <time>2022-02-25T05:16:32.591Z</time>
      </trkpt>
      <trkpt lat="36.09623" lon="32.54488">
        <ele>165.701312</ele>
        <time>2022-02-25T05:16:57.433Z</time>
      </trkpt>
      <trkpt lat="36.09627" lon="32.54469">
        <ele>167.07918</ele>
        <time>2022-02-25T05:17:09.243Z</time>
      </trkpt>
      <trkpt lat="36.09659" lon="32.54417">
        <ele>171.684919</ele>
        <time>2022-02-25T05:17:48.154Z</time>
      </trkpt>
      <trkpt lat="36.09691" lon="32.5433">
        <ele>178.413916</ele>
        <time>2022-02-25T05:18:40.774Z</time>
      </trkpt>
      <trkpt lat="36.09709" lon="32.5431">
        <ele>179.714592</ele>
        <time>2022-02-25T05:18:56.343Z</time>
      </trkpt>
      <trkpt lat="36.0981" lon="32.54244">
        <ele>185.750472</ele>
        <time>2022-02-25T05:19:59.737Z</time>
      </trkpt>
      <trkpt lat="36.09835" lon="32.54217">
        <ele>187.517429</ele>
        <time>2022-02-25T05:20:13.525Z</time>
      </trkpt>
      <trkpt lat="36.09853" lon="32.5419">
        <ele>187.726699</ele>
        <time>2022-02-25T05:20:22.783Z</time>
      </trkpt>
      <trkpt lat="36.09876" lon="32.54139">
        <ele>187.178805</ele>
        <time>2022-02-25T05:20:35.480Z</time>
      </trkpt>
      <trkpt lat="36.09901" lon="32.5405">
        <ele>186.309395</ele>
        <time>2022-02-25T05:20:51.192Z</time>
      </trkpt>
      <trkpt lat="36.09903" lon="32.54018">
        <ele>186.007657</ele>
        <time>2022-02-25T05:20:56.322Z</time>
      </trkpt>
      <trkpt lat="36.09892" lon="32.53943">
        <ele>185.527515</ele>
        <time>2022-02-25T05:21:08.105Z</time>
      </trkpt>
      <trkpt lat="36.09882" lon="32.53911">
        <ele>185.333249</ele>
        <time>2022-02-25T05:21:13.390Z</time>
      </trkpt>
      <trkpt lat="36.09784" lon="32.53741">
        <ele>189.076505</ele>
        <time>2022-02-25T05:22:09.150Z</time>
      </trkpt>
      <trkpt lat="36.0976" lon="32.53675">
        <ele>192.930006</ele>
        <time>2022-02-25T05:22:48.099Z</time>
      </trkpt>
      <trkpt lat="36.09756" lon="32.5365">
        <ele>194.296445</ele>
        <time>2022-02-25T05:23:03.942Z</time>
      </trkpt>
      <trkpt lat="36.09757" lon="32.5362">
        <ele>195.910969</ele>
        <time>2022-02-25T05:23:23.732Z</time>
      </trkpt>
      <trkpt lat="36.09783" lon="32.53551">
        <ele>201.936217</ele>
        <time>2022-02-25T05:24:15.111Z</time>
      </trkpt>
      <trkpt lat="36.0984" lon="32.53523">
        <ele>208.288687</ele>
        <time>2022-02-25T05:25:05.198Z</time>
      </trkpt>
      <trkpt lat="36.09855" lon="32.53503">
        <ele>210.643924</ele>
        <time>2022-02-25T05:25:22.448Z</time>
      </trkpt>
      <trkpt lat="36.09931" lon="32.53365">
        <ele>221.563921</ele>
        <time>2022-02-25T05:26:50.062Z</time>
      </trkpt>
      <trkpt lat="36.09939" lon="32.53327">
        <ele>223.79018</ele>
        <time>2022-02-25T05:27:07.375Z</time>
      </trkpt>
      <trkpt lat="36.09921" lon="32.53254">
        <ele>228.046027</ele>
        <time>2022-02-25T05:27:41.660Z</time>
      </trkpt>
      <trkpt lat="36.09921" lon="32.53214">
        <ele>229.51453</ele>
        <time>2022-02-25T05:27:59.504Z</time>
      </trkpt>
      <trkpt lat="36.0993" lon="32.53193">
        <ele>230.397288</ele>
        <time>2022-02-25T05:28:10.253Z</time>
      </trkpt>
      <trkpt lat="36.09989" lon="32.53115">
        <ele>234.385888</ele>
        <time>2022-02-25T05:28:54.611Z</time>
      </trkpt>
      <trkpt lat="36.10031" lon="32.53069">
        <ele>236.173819</ele>
        <time>2022-02-25T05:29:16.341Z</time>
      </trkpt>
      <trkpt lat="36.1004" lon="32.53049">
        <ele>236.225025</ele>
        <time>2022-02-25T05:29:22.052Z</time>
      </trkpt>
      <trkpt lat="36.10043" lon="32.53026">
        <ele>236.275867</ele>
        <time>2022-02-25T05:29:27.269Z</time>
      </trkpt>
      <trkpt lat="36.1004" lon="32.53002">
        <ele>236.329119</ele>
        <time>2022-02-25T05:29:32.319Z</time>
      </trkpt>
      <trkpt lat="36.1003" lon="32.52978">
        <ele>236.389014</ele>
        <time>2022-02-25T05:29:37.613Z</time>
      </trkpt>
      <trkpt lat="36.0997" lon="32.5289">
        <ele>237.026947</ele>
        <time>2022-02-25T05:29:59.206Z</time>
      </trkpt>
      <trkpt lat="36.09943" lon="32.52833">
        <ele>239.180072</ele>
        <time>2022-02-25T05:30:14.818Z</time>
      </trkpt>
      <trkpt lat="36.0994" lon="32.52806">
        <ele>240.084907</ele>
        <time>2022-02-25T05:30:23.819Z</time>
      </trkpt>
      <trkpt lat="36.09954" lon="32.52705">
        <ele>243.423958</ele>
        <time>2022-02-25T05:31:09.771Z</time>
      </trkpt>
      <trkpt lat="36.09924" lon="32.52605">
        <ele>252.079476</ele>
        <time>2022-02-25T05:32:13.738Z</time>
      </trkpt>
      <trkpt lat="36.09923" lon="32.52585">
        <ele>253.851541</ele>
        <time>2022-02-25T05:32:26.869Z</time>
      </trkpt>
      <trkpt lat="36.09927" lon="32.52557">
        <ele>256.371974</ele>
        <time>2022-02-25T05:32:46.417Z</time>
      </trkpt>
      <trkpt lat="36.09938" lon="32.52536">
        <ele>258.497503</ele>
        <time>2022-02-25T05:33:03.280Z</time>
      </trkpt>
      <trkpt lat="36.09998" lon="32.52471">
        <ele>267.315276</ele>
        <time>2022-02-25T05:34:15.060Z</time>
      </trkpt>
      <trkpt lat="36.10012" lon="32.52447">
        <ele>269.910083</ele>
        <time>2022-02-25T05:34:34.904Z</time>
      </trkpt>
      <trkpt lat="36.10018" lon="32.52397">
        <ele>274.472574</ele>
        <time>2022-02-25T05:35:07.490Z</time>
      </trkpt>
      <trkpt lat="36.10001" lon="32.52335">
        <ele>280.265714</ele>
        <time>2022-02-25T05:35:46.634Z</time>
      </trkpt>
      <trkpt lat="36.09999" lon="32.52313">
        <ele>282.251952</ele>
        <time>2022-02-25T05:36:00.086Z</time>
      </trkpt>
      <trkpt lat="36.10004" lon="32.52292">
        <ele>284.009142</ele>
        <time>2022-02-25T05:36:12.901Z</time>
      </trkpt>
      <trkpt lat="36.10014" lon="32.52272">
        <ele>285.795562</ele>
        <time>2022-02-25T05:36:27.695Z</time>
      </trkpt>
      <trkpt lat="36.10032" lon="32.52253">
        <ele>287.938884</ele>
        <time>2022-02-25T05:36:45.083Z</time>
      </trkpt>
      <trkpt lat="36.10084" lon="32.52215">
        <ele>293.39019</ele>
        <time>2022-02-25T05:37:27.638Z</time>
      </trkpt>
      <trkpt lat="36.10104" lon="32.52193">
        <ele>295.866374</ele>
        <time>2022-02-25T05:37:46.022Z</time>
      </trkpt>
      <trkpt lat="36.10153" lon="32.52088">
        <ele>303.966126</ele>
        <time>2022-02-25T05:38:50.847Z</time>
      </trkpt>
      <trkpt lat="36.10215" lon="32.52002">
        <ele>311.195209</ele>
        <time>2022-02-25T05:39:52.161Z</time>
      </trkpt>
      <trkpt lat="36.10237" lon="32.51984">
        <ele>313.279473</ele>
        <time>2022-02-25T05:40:08.187Z</time>
      </trkpt>
      <trkpt lat="36.10261" lon="32.51973">
        <ele>314.402594</ele>
        <time>2022-02-25T05:40:22.430Z</time>
      </trkpt>
      <trkpt lat="36.10282" lon="32.51972">
        <ele>315.178248</ele>
        <time>2022-02-25T05:40:33.920Z</time>
      </trkpt>
      <trkpt lat="36.10296" lon="32.51975">
        <ele>315.685111</ele>
        <time>2022-02-25T05:40:40.988Z</time>
      </trkpt>
      <trkpt lat="36.10307" lon="32.51997">
        <ele>316.454241</ele>
        <time>2022-02-25T05:40:51.355Z</time>
      </trkpt>
      <trkpt lat="36.10289" lon="32.52025">
        <ele>317.516059</ele>
        <time>2022-02-25T05:41:04.408Z</time>
      </trkpt>
      <trkpt lat="36.10206" lon="32.52103">
        <ele>320.550673</ele>
        <time>2022-02-25T05:41:39.574Z</time>
      </trkpt>
      <trkpt lat="36.10108" lon="32.52256">
        <ele>322.418685</ele>
        <time>2022-02-25T05:42:24.595Z</time>
      </trkpt>
      <trkpt lat="36.10094" lon="32.5228">
        <ele>323.678657</ele>
        <time>2022-02-25T05:42:34.255Z</time>
      </trkpt>
      <trkpt lat="36.10085" lon="32.52315">
        <ele>325.22829</ele>
        <time>2022-02-25T05:42:47.576Z</time>
      </trkpt>
      <trkpt lat="36.10095" lon="32.52335">
        <ele>326.228427</ele>
        <time>2022-02-25T05:42:56.954Z</time>
      </trkpt>
      <trkpt lat="36.10107" lon="32.52338">
        <ele>326.886132</ele>
        <time>2022-02-25T05:43:03.635Z</time>
      </trkpt>
      <trkpt lat="36.1013" lon="32.5232">
        <ele>328.325035</ele>
        <time>2022-02-25T05:43:18.996Z</time>
      </trkpt>
      <trkpt lat="36.10149" lon="32.52278">
        <ele>330.366903</ele>
        <time>2022-02-25T05:43:43.297Z</time>
      </trkpt>
      <trkpt lat="36.10172" lon="32.52245">
        <ele>332.644323</ele>
        <time>2022-02-25T05:44:07.450Z</time>
      </trkpt>
      <trkpt lat="36.1035" lon="32.52045">
        <ele>353.513702</ele>
        <time>2022-02-25T05:46:49.665Z</time>
      </trkpt>
      <trkpt lat="36.10373" lon="32.52026">
        <ele>356.109157</ele>
        <time>2022-02-25T05:47:07.537Z</time>
      </trkpt>
      <trkpt lat="36.10446" lon="32.51986">
        <ele>363.56502</ele>
        <time>2022-02-25T05:48:08.640Z</time>
      </trkpt>
      <trkpt lat="36.10471" lon="32.51953">
        <ele>368.245421</ele>
        <time>2022-02-25T05:48:38.167Z</time>
      </trkpt>
      <trkpt lat="36.10489" lon="32.51933">
        <ele>371.34392</ele>
        <time>2022-02-25T05:48:55.856Z</time>
      </trkpt>
      <trkpt lat="36.10497" lon="32.51924">
        <ele>372.667207</ele>
        <time>2022-02-25T05:49:07.612Z</time>
      </trkpt>
      <trkpt lat="36.10514" lon="32.51912">
        <ele>375.205405</ele>
        <time>2022-02-25T05:49:23.271Z</time>
      </trkpt>
      <trkpt lat="36.10531" lon="32.51908">
        <ele>377.33091</ele>
        <time>2022-02-25T05:49:40.707Z</time>
      </trkpt>
      <trkpt lat="36.10556" lon="32.51912">
        <ele>380.555233</ele>
        <time>2022-02-25T05:50:02.709Z</time>
      </trkpt>
      <trkpt lat="36.1069" lon="32.51982">
        <ele>397.937048</ele>
        <time>2022-02-25T05:52:22.373Z</time>
      </trkpt>
      <trkpt lat="36.1075" lon="32.51997">
        <ele>405.107943</ele>
        <time>2022-02-25T05:53:09.112Z</time>
      </trkpt>
      <trkpt lat="36.10926" lon="32.51992">
        <ele>416.29479</ele>
        <time>2022-02-25T05:54:43.012Z</time>
      </trkpt>
      <trkpt lat="36.10982" lon="32.51976">
        <ele>419.548273</ele>
        <time>2022-02-25T05:55:09.673Z</time>
      </trkpt>
      <trkpt lat="36.11057" lon="32.51942">
        <ele>424.098469</ele>
        <time>2022-02-25T05:55:52.504Z</time>
      </trkpt>
      <trkpt lat="36.11087" lon="32.51936">
        <ele>425.780401</ele>
        <time>2022-02-25T05:56:09.309Z</time>
      </trkpt>
      <trkpt lat="36.11111" lon="32.5194">
        <ele>427.173228</ele>
        <time>2022-02-25T05:56:23.718Z</time>
      </trkpt>
      <trkpt lat="36.11188" lon="32.51971">
        <ele>431.750901</ele>
        <time>2022-02-25T05:57:12.062Z</time>
      </trkpt>
      <trkpt lat="36.11246" lon="32.51979">
        <ele>435.032008</ele>
        <time>2022-02-25T05:57:44.756Z</time>
      </trkpt>
      <trkpt lat="36.11267" lon="32.51973">
        <ele>436.208091</ele>
        <time>2022-02-25T05:57:55.324Z</time>
      </trkpt>
      <trkpt lat="36.11291" lon="32.51961">
        <ele>437.689273</ele>
        <time>2022-02-25T05:58:07.731Z</time>
      </trkpt>
      <trkpt lat="36.11311" lon="32.51944">
        <ele>438.420791</ele>
        <time>2022-02-25T05:58:17.915Z</time>
      </trkpt>
      <trkpt lat="36.11365" lon="32.51859">
        <ele>440.860333</ele>
        <time>2022-02-25T05:58:50.283Z</time>
      </trkpt>
      <trkpt lat="36.11443" lon="32.51817">
        <ele>443.421815</ele>
        <time>2022-02-25T05:59:23.098Z</time>
      </trkpt>
      <trkpt lat="36.11456" lon="32.51801">
        <ele>444.223187</ele>
        <time>2022-02-25T05:59:30.910Z</time>
      </trkpt>
      <trkpt lat="36.11466" lon="32.51768">
        <ele>445.429218</ele>
        <time>2022-02-25T05:59:42.981Z</time>
      </trkpt>
      <trkpt lat="36.11478" lon="32.51676">
        <ele>448.658716</ele>
        <time>2022-02-25T06:00:19.082Z</time>
      </trkpt>
      <trkpt lat="36.11491" lon="32.51642">
        <ele>449.980459</ele>
        <time>2022-02-25T06:00:37.101Z</time>
      </trkpt>
      <trkpt lat="36.11509" lon="32.5161">
        <ele>451.02144</ele>
        <time>2022-02-25T06:00:55.375Z</time>
      </trkpt>
      <trkpt lat="36.11575" lon="32.51532">
        <ele>453.427743</ele>
        <time>2022-02-25T06:01:37.025Z</time>
      </trkpt>
      <trkpt lat="36.11597" lon="32.51496">
        <ele>454.378054</ele>
        <time>2022-02-25T06:01:48.404Z</time>
      </trkpt>
      <trkpt lat="36.11615" lon="32.51455">
        <ele>455.18348</ele>
        <time>2022-02-25T06:01:57.662Z</time>
      </trkpt>
      <trkpt lat="36.1163" lon="32.51381">
        <ele>453.67791</ele>
        <time>2022-02-25T06:02:10.690Z</time>
      </trkpt>
      <trkpt lat="36.1163" lon="32.5135">
        <ele>453.06095</ele>
        <time>2022-02-25T06:02:15.616Z</time>
      </trkpt>
      <trkpt lat="36.11622" lon="32.51313">
        <ele>452.304614</ele>
        <time>2022-02-25T06:02:21.355Z</time>
      </trkpt>
      <trkpt lat="36.11607" lon="32.51271">
        <ele>451.400053</ele>
        <time>2022-02-25T06:02:28.038Z</time>
      </trkpt>
      <trkpt lat="36.11514" lon="32.5111">
        <ele>451.663226</ele>
        <time>2022-02-25T06:03:07.337Z</time>
      </trkpt>
      <trkpt lat="36.115" lon="32.51072">
        <ele>451.854529</ele>
        <time>2022-02-25T06:03:22.783Z</time>
      </trkpt>
      <trkpt lat="36.11495" lon="32.5104">
        <ele>452.840909</ele>
        <time>2022-02-25T06:03:36.045Z</time>
      </trkpt>
      <trkpt lat="36.11497" lon="32.5101">
        <ele>454.070374</ele>
        <time>2022-02-25T06:03:48.951Z</time>
      </trkpt>
      <trkpt lat="36.11509" lon="32.5098">
        <ele>455.456461</ele>
        <time>2022-02-25T06:04:04.014Z</time>
      </trkpt>
      <trkpt lat="36.11525" lon="32.50954">
        <ele>456.811146</ele>
        <time>2022-02-25T06:04:18.927Z</time>
      </trkpt>
      <trkpt lat="36.11567" lon="32.50921">
        <ele>459.31437</ele>
        <time>2022-02-25T06:04:46.780Z</time>
      </trkpt>
      <trkpt lat="36.11585" lon="32.50887">
        <ele>460.99115</ele>
        <time>2022-02-25T06:05:03.194Z</time>
      </trkpt>
      <trkpt lat="36.1158" lon="32.50836">
        <ele>461.681873</ele>
        <time>2022-02-25T06:05:21.693Z</time>
      </trkpt>
      <trkpt lat="36.11602" lon="32.50759">
        <ele>462.707629</ele>
        <time>2022-02-25T06:05:46.490Z</time>
      </trkpt>
      <trkpt lat="36.11602" lon="32.50733">
        <ele>463.033748</ele>
        <time>2022-02-25T06:05:52.689Z</time>
      </trkpt>
      <trkpt lat="36.11588" lon="32.50708">
        <ele>463.414146</ele>
        <time>2022-02-25T06:05:59.136Z</time>
      </trkpt>
      <trkpt lat="36.11538" lon="32.50662">
        <ele>462.377171</ele>
        <time>2022-02-25T06:06:12.999Z</time>
      </trkpt>
      <trkpt lat="36.11521" lon="32.50632">
        <ele>461.167825</ele>
        <time>2022-02-25T06:06:18.988Z</time>
      </trkpt>
      <trkpt lat="36.11464" lon="32.50483">
        <ele>454.98628</ele>
        <time>2022-02-25T06:06:43.031Z</time>
      </trkpt>
      <trkpt lat="36.11442" lon="32.50378">
        <ele>448.080893</ele>
        <time>2022-02-25T06:06:57.451Z</time>
      </trkpt>
      <trkpt lat="36.11438" lon="32.50341">
        <ele>445.736692</ele>
        <time>2022-02-25T06:07:02.454Z</time>
      </trkpt>
      <trkpt lat="36.11439" lon="32.50323">
        <ele>444.594292</ele>
        <time>2022-02-25T06:07:04.789Z</time>
      </trkpt>
      <trkpt lat="36.1144" lon="32.50301">
        <ele>443.157969</ele>
        <time>2022-02-25T06:07:07.984Z</time>
      </trkpt>
      <trkpt lat="36.11444" lon="32.50269">
        <ele>441.762181</ele>
        <time>2022-02-25T06:07:12.466Z</time>
      </trkpt>
      <trkpt lat="36.11457" lon="32.50226">
        <ele>440.606196</ele>
        <time>2022-02-25T06:07:18.835Z</time>
      </trkpt>
      <trkpt lat="36.11472" lon="32.50197">
        <ele>439.715617</ele>
        <time>2022-02-25T06:07:23.810Z</time>
      </trkpt>
      <trkpt lat="36.11491" lon="32.50172">
        <ele>438.839602</ele>
        <time>2022-02-25T06:07:29.080Z</time>
      </trkpt>
      <trkpt lat="36.11543" lon="32.50124">
        <ele>436.77494</ele>
        <time>2022-02-25T06:07:46.467Z</time>
      </trkpt>
      <trkpt lat="36.11748" lon="32.49959">
        <ele>439.286025</ele>
        <time>2022-02-25T06:09:16.883Z</time>
      </trkpt>
      <trkpt lat="36.1177" lon="32.49933">
        <ele>438.940149</ele>
        <time>2022-02-25T06:09:25.049Z</time>
      </trkpt>
      <trkpt lat="36.11824" lon="32.49838">
        <ele>437.813655</ele>
        <time>2022-02-25T06:09:44.152Z</time>
      </trkpt>
      <trkpt lat="36.11843" lon="32.49821">
        <ele>435.740378</ele>
        <time>2022-02-25T06:09:48.433Z</time>
      </trkpt>
      <trkpt lat="36.1193" lon="32.49775">
        <ele>427.518735</ele>
        <time>2022-02-25T06:10:04.185Z</time>
      </trkpt>
      <trkpt lat="36.11949" lon="32.49757">
        <ele>425.367944</ele>
        <time>2022-02-25T06:10:08.131Z</time>
      </trkpt>
      <trkpt lat="36.11954" lon="32.49745">
        <ele>424.413605</ele>
        <time>2022-02-25T06:10:09.874Z</time>
      </trkpt>
      <trkpt lat="36.11953" lon="32.4972">
        <ele>422.682619</ele>
        <time>2022-02-25T06:10:13.000Z</time>
      </trkpt>
      <trkpt lat="36.11943" lon="32.49703">
        <ele>420.94764</ele>
        <time>2022-02-25T06:10:15.692Z</time>
      </trkpt>
      <trkpt lat="36.11879" lon="32.49623">
        <ele>411.06204</ele>
        <time>2022-02-25T06:10:30.145Z</time>
      </trkpt>
      <trkpt lat="36.11862" lon="32.49592">
        <ele>407.796055</ele>
        <time>2022-02-25T06:10:35.012Z</time>
      </trkpt>
      <trkpt lat="36.11852" lon="32.49559">
        <ele>404.726399</ele>
        <time>2022-02-25T06:10:39.695Z</time>
      </trkpt>
      <trkpt lat="36.11847" lon="32.49516">
        <ele>402.338865</ele>
        <time>2022-02-25T06:10:45.712Z</time>
      </trkpt>
      <trkpt lat="36.11845" lon="32.4948">
        <ele>401.715628</ele>
        <time>2022-02-25T06:10:50.946Z</time>
      </trkpt>
      <trkpt lat="36.11852" lon="32.49438">
        <ele>400.972988</ele>
        <time>2022-02-25T06:10:57.690Z</time>
      </trkpt>
      <trkpt lat="36.11868" lon="32.49393">
        <ele>400.115487</ele>
        <time>2022-02-25T06:11:06.848Z</time>
      </trkpt>
      <trkpt lat="36.11905" lon="32.4933">
        <ele>398.842686</ele>
        <time>2022-02-25T06:11:27.176Z</time>
      </trkpt>
      <trkpt lat="36.11966" lon="32.4928">
        <ele>399.920545</ele>
        <time>2022-02-25T06:11:55.536Z</time>
      </trkpt>
      <trkpt lat="36.11989" lon="32.49255">
        <ele>400.370416</ele>
        <time>2022-02-25T06:12:06.416Z</time>
      </trkpt>
      <trkpt lat="36.12007" lon="32.49225">
        <ele>400.819789</ele>
        <time>2022-02-25T06:12:16.226Z</time>
      </trkpt>
      <trkpt lat="36.12047" lon="32.49133">
        <ele>401.768416</ele>
        <time>2022-02-25T06:12:40.743Z</time>
      </trkpt>
      <trkpt lat="36.12058" lon="32.49112">
        <ele>401.925297</ele>
        <time>2022-02-25T06:12:46.616Z</time>
      </trkpt>
      <trkpt lat="36.12069" lon="32.49103">
        <ele>402.023494</ele>
        <time>2022-02-25T06:12:50.622Z</time>
      </trkpt>
      <trkpt lat="36.12084" lon="32.49093">
        <ele>402.156499</ele>
        <time>2022-02-25T06:12:55.972Z</time>
      </trkpt>
      <trkpt lat="36.12148" lon="32.49076">
        <ele>402.656147</ele>
        <time>2022-02-25T06:13:16.793Z</time>
      </trkpt>
      <trkpt lat="36.12165" lon="32.49064">
        <ele>402.805302</ele>
        <time>2022-02-25T06:13:22.785Z</time>
      </trkpt>
      <trkpt lat="36.12201" lon="32.4902">
        <ele>403.332032</ele>
        <time>2022-02-25T06:13:37.453Z</time>
      </trkpt>
      <trkpt lat="36.12221" lon="32.49015">
        <ele>403.547913</ele>
        <time>2022-02-25T06:13:43.590Z</time>
      </trkpt>
      <trkpt lat="36.1227" lon="32.49018">
        <ele>404.072405</ele>
        <time>2022-02-25T06:13:59.484Z</time>
      </trkpt>
      <trkpt lat="36.12308" lon="32.49008">
        <ele>404.486835</ele>
        <time>2022-02-25T06:14:12.549Z</time>
      </trkpt>
      <trkpt lat="36.12318" lon="32.49">
        <ele>404.618214</ele>
        <time>2022-02-25T06:14:17.386Z</time>
      </trkpt>
      <trkpt lat="36.12321" lon="32.48998">
        <ele>404.652771</ele>
        <time>2022-02-25T06:14:18.000Z</time>
      </trkpt>
      <trkpt lat="36.12358" lon="32.48961">
        <ele>405.087372</ele>
        <time>2022-02-25T06:14:33.513Z</time>
      </trkpt>
      <trkpt lat="36.12392" lon="32.48938">
        <ele>405.430104</ele>
        <time>2022-02-25T06:14:45.895Z</time>
      </trkpt>
      <trkpt lat="36.12526" lon="32.48876">
        <ele>405.685007</ele>
        <time>2022-02-25T06:15:29.535Z</time>
      </trkpt>
      <trkpt lat="36.12591" lon="32.48836">
        <ele>404.516548</ele>
        <time>2022-02-25T06:15:45.539Z</time>
      </trkpt>
      <trkpt lat="36.12616" lon="32.48811">
        <ele>404.012596</ele>
        <time>2022-02-25T06:15:51.914Z</time>
      </trkpt>
      <trkpt lat="36.12629" lon="32.48779">
        <ele>403.533397</ele>
        <time>2022-02-25T06:15:57.647Z</time>
      </trkpt>
      <trkpt lat="36.12645" lon="32.48709">
        <ele>401.411571</ele>
        <time>2022-02-25T06:16:08.766Z</time>
      </trkpt>
      <trkpt lat="36.12664" lon="32.48674">
        <ele>400.127331</ele>
        <time>2022-02-25T06:16:15.002Z</time>
      </trkpt>
      <trkpt lat="36.12729" lon="32.48647">
        <ele>397.495193</ele>
        <time>2022-02-25T06:16:27.716Z</time>
      </trkpt>
      <trkpt lat="36.12741" lon="32.48635">
        <ele>396.910481</ele>
        <time>2022-02-25T06:16:30.750Z</time>
      </trkpt>
      <trkpt lat="36.12777" lon="32.48573">
        <ele>395.511105</ele>
        <time>2022-02-25T06:16:43.071Z</time>
      </trkpt>
      <trkpt lat="36.12853" lon="32.48497">
        <ele>393.583465</ele>
        <time>2022-02-25T06:17:03.226Z</time>
      </trkpt>
      <trkpt lat="36.12897" lon="32.48422">
        <ele>393.362416</ele>
        <time>2022-02-25T06:17:23.363Z</time>
      </trkpt>
      <trkpt lat="36.12938" lon="32.48386">
        <ele>393.770291</ele>
        <time>2022-02-25T06:17:40.211Z</time>
      </trkpt>
      <trkpt lat="36.12962" lon="32.48373">
        <ele>393.976664</ele>
        <time>2022-02-25T06:17:47.857Z</time>
      </trkpt>
      <trkpt lat="36.12964" lon="32.48372">
        <ele>393.995358</ele>
        <time>2022-02-25T06:17:50.243Z</time>
      </trkpt>
      <trkpt lat="36.13018" lon="32.48353">
        <ele>394.44755</ele>
        <time>2022-02-25T06:18:08.425Z</time>
      </trkpt>
      <trkpt lat="36.1308" lon="32.48347">
        <ele>394.496897</ele>
        <time>2022-02-25T06:18:27.661Z</time>
      </trkpt>
      <trkpt lat="36.13116" lon="32.48338">
        <ele>394.52641</ele>
        <time>2022-02-25T06:18:38.515Z</time>
      </trkpt>
      <trkpt lat="36.13129" lon="32.48332">
        <ele>394.536868</ele>
        <time>2022-02-25T06:18:42.201Z</time>
      </trkpt>
      <trkpt lat="36.13158" lon="32.48313">
        <ele>394.563115</ele>
        <time>2022-02-25T06:18:49.775Z</time>
      </trkpt>
      <trkpt lat="36.13181" lon="32.48283">
        <ele>394.589609</ele>
        <time>2022-02-25T06:18:57.364Z</time>
      </trkpt>
      <trkpt lat="36.13202" lon="32.48206">
        <ele>394.400893</ele>
        <time>2022-02-25T06:19:12.467Z</time>
      </trkpt>
      <trkpt lat="36.13227" lon="32.48154">
        <ele>394.262025</ele>
        <time>2022-02-25T06:19:23.914Z</time>
      </trkpt>
      <trkpt lat="36.13254" lon="32.48116">
        <ele>394.143532</ele>
        <time>2022-02-25T06:19:36.941Z</time>
      </trkpt>
      <trkpt lat="36.13388" lon="32.47957">
        <ele>394.22284</ele>
        <time>2022-02-25T06:20:32.512Z</time>
      </trkpt>
      <trkpt lat="36.13396" lon="32.47943">
        <ele>394.23604</ele>
        <time>2022-02-25T06:20:36.922Z</time>
      </trkpt>
      <trkpt lat="36.13405" lon="32.47923">
        <ele>393.752776</ele>
        <time>2022-02-25T06:20:40.385Z</time>
      </trkpt>
      <trkpt lat="36.13412" lon="32.47877">
        <ele>392.375302</ele>
        <time>2022-02-25T06:20:47.876Z</time>
      </trkpt>
      <trkpt lat="36.13412" lon="32.47779">
        <ele>389.495598</ele>
        <time>2022-02-25T06:21:02.548Z</time>
      </trkpt>
      <trkpt lat="36.13417" lon="32.47752">
        <ele>388.692564</ele>
        <time>2022-02-25T06:21:06.440Z</time>
      </trkpt>
      <trkpt lat="36.13445" lon="32.47671">
        <ele>386.667088</ele>
        <time>2022-02-25T06:21:19.755Z</time>
      </trkpt>
      <trkpt lat="36.13446" lon="32.47635">
        <ele>385.974198</ele>
        <time>2022-02-25T06:21:25.589Z</time>
      </trkpt>
      <trkpt lat="36.13439" lon="32.47577">
        <ele>384.866667</ele>
        <time>2022-02-25T06:21:35.342Z</time>
      </trkpt>
      <trkpt lat="36.1344" lon="32.47551">
        <ele>384.368053</ele>
        <time>2022-02-25T06:21:40.021Z</time>
      </trkpt>
      <trkpt lat="36.13449" lon="32.47523">
        <ele>383.796773</ele>
        <time>2022-02-25T06:21:45.661Z</time>
      </trkpt>
      <trkpt lat="36.13467" lon="32.475">
        <ele>383.503144</ele>
        <time>2022-02-25T06:21:52.083Z</time>
      </trkpt>
      <trkpt lat="36.13596" lon="32.47366">
        <ele>384.183981</ele>
        <time>2022-02-25T06:22:39.536Z</time>
      </trkpt>
      <trkpt lat="36.13603" lon="32.47343">
        <ele>385.023951</ele>
        <time>2022-02-25T06:22:47.144Z</time>
      </trkpt>
      <trkpt lat="36.13605" lon="32.47317">
        <ele>385.928005</ele>
        <time>2022-02-25T06:22:53.784Z</time>
      </trkpt>
      <trkpt lat="36.13601" lon="32.47281">
        <ele>387.176272</ele>
        <time>2022-02-25T06:23:09.286Z</time>
      </trkpt>
      <trkpt lat="36.13601" lon="32.47271">
        <ele>387.506364</ele>
        <time>2022-02-25T06:23:10.814Z</time>
      </trkpt>
      <trkpt lat="36.136" lon="32.47253">
        <ele>388.128731</ele>
        <time>2022-02-25T06:23:20.499Z</time>
      </trkpt>
      <trkpt lat="36.13603" lon="32.47227">
        <ele>389.048511</ele>
        <time>2022-02-25T06:23:28.949Z</time>
      </trkpt>
      <trkpt lat="36.13613" lon="32.47202">
        <ele>390.001091</ele>
        <time>2022-02-25T06:23:43.566Z</time>
      </trkpt>
      <trkpt lat="36.13646" lon="32.47163">
        <ele>391.975675</ele>
        <time>2022-02-25T06:24:08.064Z</time>
      </trkpt>
      <trkpt lat="36.13667" lon="32.47152">
        <ele>393.059585</ele>
        <time>2022-02-25T06:24:22.755Z</time>
      </trkpt>
      <trkpt lat="36.13687" lon="32.47151">
        <ele>394.01106</ele>
        <time>2022-02-25T06:24:32.434Z</time>
      </trkpt>
      <trkpt lat="36.13762" lon="32.47172">
        <ele>397.736094</ele>
        <time>2022-02-25T06:25:17.925Z</time>
      </trkpt>
      <trkpt lat="36.13806" lon="32.47172">
        <ele>399.834934</ele>
        <time>2022-02-25T06:25:36.404Z</time>
      </trkpt>
      <trkpt lat="36.13825" lon="32.47164">
        <ele>400.266822</ele>
        <time>2022-02-25T06:25:43.529Z</time>
      </trkpt>
      <trkpt lat="36.1389" lon="32.47107">
        <ele>397.099695</ele>
        <time>2022-02-25T06:26:02.115Z</time>
      </trkpt>
      <trkpt lat="36.1397" lon="32.47025">
        <ele>392.393264</ele>
        <time>2022-02-25T06:26:19.756Z</time>
      </trkpt>
      <trkpt lat="36.13996" lon="32.46989">
        <ele>388.48244</ele>
        <time>2022-02-25T06:26:26.185Z</time>
      </trkpt>
      <trkpt lat="36.14002" lon="32.46978">
        <ele>387.407912</ele>
        <time>2022-02-25T06:26:27.903Z</time>
      </trkpt>
      <trkpt lat="36.14022" lon="32.46944">
        <ele>383.989202</ele>
        <time>2022-02-25T06:26:33.466Z</time>
      </trkpt>
      <trkpt lat="36.1404" lon="32.469">
        <ele>380.041404</ele>
        <time>2022-02-25T06:26:39.854Z</time>
      </trkpt>
      <trkpt lat="36.14048" lon="32.4686">
        <ele>376.664658</ele>
        <time>2022-02-25T06:26:45.318Z</time>
      </trkpt>
      <trkpt lat="36.14057" lon="32.46776">
        <ele>371.277518</ele>
        <time>2022-02-25T06:26:56.318Z</time>
      </trkpt>
      <trkpt lat="36.14067" lon="32.46737">
        <ele>368.830161</ele>
        <time>2022-02-25T06:27:01.876Z</time>
      </trkpt>
      <trkpt lat="36.14077" lon="32.46705">
        <ele>366.736379</ele>
        <time>2022-02-25T06:27:06.742Z</time>
      </trkpt>
      <trkpt lat="36.14117" lon="32.4663">
        <ele>361.691707</ele>
        <time>2022-02-25T06:27:19.812Z</time>
      </trkpt>
      <trkpt lat="36.14125" lon="32.46597">
        <ele>360.758569</ele>
        <time>2022-02-25T06:27:24.909Z</time>
      </trkpt>
      <trkpt lat="36.14129" lon="32.46482">
        <ele>357.5815</ele>
        <time>2022-02-25T06:27:43.031Z</time>
      </trkpt>
      <trkpt lat="36.14138" lon="32.46452">
        <ele>356.726296</ele>
        <time>2022-02-25T06:27:48.208Z</time>
      </trkpt>
      <trkpt lat="36.14173" lon="32.46412">
        <ele>355.286246</ele>
        <time>2022-02-25T06:27:58.320Z</time>
      </trkpt>
      <trkpt lat="36.14194" lon="32.46363">
        <ele>354.077159</ele>
        <time>2022-02-25T06:28:07.767Z</time>
      </trkpt>
      <trkpt lat="36.14209" lon="32.46279">
        <ele>352.249241</ele>
        <time>2022-02-25T06:28:21.384Z</time>
      </trkpt>
      <trkpt lat="36.14226" lon="32.46223">
        <ele>350.931892</ele>
        <time>2022-02-25T06:28:31.028Z</time>
      </trkpt>
      <trkpt lat="36.14244" lon="32.46188">
        <ele>349.904807</ele>
        <time>2022-02-25T06:28:37.654Z</time>
      </trkpt>
      <trkpt lat="36.143" lon="32.4611">
        <ele>347.291637</ele>
        <time>2022-02-25T06:28:54.186Z</time>
      </trkpt>
      <trkpt lat="36.14315" lon="32.46083">
        <ele>346.440096</ele>
        <time>2022-02-25T06:28:59.465Z</time>
      </trkpt>
      <trkpt lat="36.14324" lon="32.46057">
        <ele>345.737903</ele>
        <time>2022-02-25T06:29:03.758Z</time>
      </trkpt>
      <trkpt lat="36.14345" lon="32.45639">
        <ele>337.016667</ele>
        <time>2022-02-25T06:30:10.817Z</time>
      </trkpt>
      <trkpt lat="36.14348" lon="32.45594">
        <ele>336.437509</ele>
        <time>2022-02-25T06:30:21.820Z</time>
      </trkpt>
      <trkpt lat="36.14356" lon="32.45562">
        <ele>336.519684</ele>
        <time>2022-02-25T06:30:30.967Z</time>
      </trkpt>
      <trkpt lat="36.14361" lon="32.45549">
        <ele>336.557485</ele>
        <time>2022-02-25T06:30:33.899Z</time>
      </trkpt>
      <trkpt lat="36.14368" lon="32.45538">
        <ele>336.591268</ele>
        <time>2022-02-25T06:30:39.863Z</time>
      </trkpt>
      <trkpt lat="36.14447" lon="32.45482">
        <ele>336.869233</ele>
        <time>2022-02-25T06:31:06.057Z</time>
      </trkpt>
      <trkpt lat="36.14497" lon="32.45431">
        <ele>335.827473</ele>
        <time>2022-02-25T06:31:23.618Z</time>
      </trkpt>
      <trkpt lat="36.14522" lon="32.45367">
        <ele>333.887771</ele>
        <time>2022-02-25T06:31:34.488Z</time>
      </trkpt>
      <trkpt lat="36.14553" lon="32.45121">
        <ele>326.64859</ele>
        <time>2022-02-25T06:32:11.105Z</time>
      </trkpt>
      <trkpt lat="36.14565" lon="32.45078">
        <ele>325.256745</ele>
        <time>2022-02-25T06:32:18.454Z</time>
      </trkpt>
      <trkpt lat="36.14615" lon="32.44987">
        <ele>323.683369</ele>
        <time>2022-02-25T06:32:38.205Z</time>
      </trkpt>
      <trkpt lat="36.14689" lon="32.4487">
        <ele>322.814089</ele>
        <time>2022-02-25T06:33:09.606Z</time>
      </trkpt>
      <trkpt lat="36.14737" lon="32.44812">
        <ele>321.993977</ele>
        <time>2022-02-25T06:33:25.523Z</time>
      </trkpt>
      <trkpt lat="36.14752" lon="32.44786">
        <ele>321.674719</ele>
        <time>2022-02-25T06:33:31.114Z</time>
      </trkpt>
      <trkpt lat="36.14769" lon="32.4474">
        <ele>321.1684</ele>
        <time>2022-02-25T06:33:40.004Z</time>
      </trkpt>
      <trkpt lat="36.1482" lon="32.44564">
        <ele>319.422174</ele>
        <time>2022-02-25T06:34:13.124Z</time>
      </trkpt>
      <trkpt lat="36.14834" lon="32.4453">
        <ele>319.078699</ele>
        <time>2022-02-25T06:34:20.661Z</time>
      </trkpt>
      <trkpt lat="36.1485" lon="32.44499">
        <ele>318.7455</ele>
        <time>2022-02-25T06:34:27.955Z</time>
      </trkpt>
      <trkpt lat="36.14872" lon="32.44476">
        <ele>318.384383</ele>
        <time>2022-02-25T06:34:35.245Z</time>
      </trkpt>
      <trkpt lat="36.14928" lon="32.44441">
        <ele>317.514413</ele>
        <time>2022-02-25T06:34:49.832Z</time>
      </trkpt>
      <trkpt lat="36.14946" lon="32.44424">
        <ele>317.192067</ele>
        <time>2022-02-25T06:34:55.061Z</time>
      </trkpt>
      <trkpt lat="36.14965" lon="32.44392">
        <ele>316.747907</ele>
        <time>2022-02-25T06:35:02.169Z</time>
      </trkpt>
      <trkpt lat="36.15046" lon="32.44217">
        <ele>313.722858</ele>
        <time>2022-02-25T06:35:35.581Z</time>
      </trkpt>
      <trkpt lat="36.15066" lon="32.44183">
        <ele>313.017489</ele>
        <time>2022-02-25T06:35:42.808Z</time>
      </trkpt>
      <trkpt lat="36.15088" lon="32.44158">
        <ele>312.412535</ele>
        <time>2022-02-25T06:35:49.259Z</time>
      </trkpt>
      <trkpt lat="36.15109" lon="32.44143">
        <ele>311.94695</ele>
        <time>2022-02-25T06:35:54.792Z</time>
      </trkpt>
      <trkpt lat="36.1512" lon="32.44137">
        <ele>311.717784</ele>
        <time>2022-02-25T06:35:57.580Z</time>
      </trkpt>
      <trkpt lat="36.15145" lon="32.44134">
        <ele>311.240025</ele>
        <time>2022-02-25T06:36:03.328Z</time>
      </trkpt>
      <trkpt lat="36.15161" lon="32.44141">
        <ele>310.927494</ele>
        <time>2022-02-25T06:36:07.038Z</time>
      </trkpt>
      <trkpt lat="36.15185" lon="32.4416">
        <ele>310.386933</ele>
        <time>2022-02-25T06:36:13.560Z</time>
      </trkpt>
      <trkpt lat="36.15206" lon="32.44191">
        <ele>309.774112</ele>
        <time>2022-02-25T06:36:20.660Z</time>
      </trkpt>
      <trkpt lat="36.15214" lon="32.44236">
        <ele>309.072761</ele>
        <time>2022-02-25T06:36:28.406Z</time>
      </trkpt>
      <trkpt lat="36.15225" lon="32.44377">
        <ele>303.746933</ele>
        <time>2022-02-25T06:36:49.905Z</time>
      </trkpt>
      <trkpt lat="36.15235" lon="32.4441">
        <ele>302.392584</ele>
        <time>2022-02-25T06:36:54.836Z</time>
      </trkpt>
      <trkpt lat="36.15269" lon="32.44461">
        <ele>299.597811</ele>
        <time>2022-02-25T06:37:04.158Z</time>
      </trkpt>
      <trkpt lat="36.15331" lon="32.44505">
        <ele>294.835048</ele>
        <time>2022-02-25T06:37:16.347Z</time>
      </trkpt>
      <trkpt lat="36.15365" lon="32.44547">
        <ele>291.625095</ele>
        <time>2022-02-25T06:37:24.576Z</time>
      </trkpt>
      <trkpt lat="36.15379" lon="32.44595">
        <ele>288.845466</ele>
        <time>2022-02-25T06:37:31.744Z</time>
      </trkpt>
      <trkpt lat="36.15378" lon="32.44686">
        <ele>284.248756</ele>
        <time>2022-02-25T06:37:44.589Z</time>
      </trkpt>
      <trkpt lat="36.15384" lon="32.44719">
        <ele>282.540026</ele>
        <time>2022-02-25T06:37:49.453Z</time>
      </trkpt>
      <trkpt lat="36.15407" lon="32.44766">
        <ele>279.799006</ele>
        <time>2022-02-25T06:37:57.247Z</time>
      </trkpt>
      <trkpt lat="36.15442" lon="32.44792">
        <ele>277.259891</ele>
        <time>2022-02-25T06:38:04.383Z</time>
      </trkpt>
      <trkpt lat="36.15472" lon="32.44799">
        <ele>275.029771</ele>
        <time>2022-02-25T06:38:09.737Z</time>
      </trkpt>
      <trkpt lat="36.15503" lon="32.44795">
        <ele>272.737197</ele>
        <time>2022-02-25T06:38:15.093Z</time>
      </trkpt>
      <trkpt lat="36.15601" lon="32.44726">
        <ele>264.426852</ele>
        <time>2022-02-25T06:38:34.258Z</time>
      </trkpt>
      <trkpt lat="36.15634" lon="32.44712">
        <ele>261.65625</ele>
        <time>2022-02-25T06:38:40.051Z</time>
      </trkpt>
      <trkpt lat="36.15668" lon="32.4471">
        <ele>258.824249</ele>
        <time>2022-02-25T06:38:45.792Z</time>
      </trkpt>
      <trkpt lat="36.15934" lon="32.44853">
        <ele>234.533604</ele>
        <time>2022-02-25T06:39:34.225Z</time>
      </trkpt>
      <trkpt lat="36.15992" lon="32.44871">
        <ele>229.942427</ele>
        <time>2022-02-25T06:39:44.158Z</time>
      </trkpt>
      <trkpt lat="36.16038" lon="32.44874">
        <ele>226.480505</ele>
        <time>2022-02-25T06:39:51.820Z</time>
      </trkpt>
      <trkpt lat="36.16536" lon="32.44772">
        <ele>194.906474</ele>
        <time>2022-02-25T06:41:19.929Z</time>
      </trkpt>
      <trkpt lat="36.16611" lon="32.44747">
        <ele>191.923514</ele>
        <time>2022-02-25T06:41:35.070Z</time>
      </trkpt>
      <trkpt lat="36.16662" lon="32.44723">
        <ele>190.11157</ele>
        <time>2022-02-25T06:41:46.847Z</time>
      </trkpt>
      <trkpt lat="36.16835" lon="32.4462">
        <ele>187.22863</ele>
        <time>2022-02-25T06:42:29.821Z</time>
      </trkpt>
      <trkpt lat="36.16837" lon="32.44619">
        <ele>187.194715</ele>
        <time>2022-02-25T06:42:30.168Z</time>
      </trkpt>
      <trkpt lat="36.16928" lon="32.44572">
        <ele>185.556384</ele>
        <time>2022-02-25T06:42:51.465Z</time>
      </trkpt>
      <trkpt lat="36.16946" lon="32.4456">
        <ele>185.210128</ele>
        <time>2022-02-25T06:42:55.822Z</time>
      </trkpt>
      <trkpt lat="36.17001" lon="32.44523">
        <ele>184.425352</ele>
        <time>2022-02-25T06:43:09.513Z</time>
      </trkpt>
      <trkpt lat="36.17021" lon="32.44505">
        <ele>184.229786</ele>
        <time>2022-02-25T06:43:15.076Z</time>
      </trkpt>
      <trkpt lat="36.17345" lon="32.44291">
        <ele>181.714865</ele>
        <time>2022-02-25T06:44:46.064Z</time>
      </trkpt>
      <trkpt lat="36.17399" lon="32.44264">
        <ele>181.100403</ele>
        <time>2022-02-25T06:44:58.804Z</time>
      </trkpt>
      <trkpt lat="36.1753" lon="32.44211">
        <ele>180.247661</ele>
        <time>2022-02-25T06:45:29.910Z</time>
      </trkpt>
      <trkpt lat="36.17586" lon="32.44189">
        <ele>180.075134</ele>
        <time>2022-02-25T06:45:45.093Z</time>
      </trkpt>
      <trkpt lat="36.17621" lon="32.44173">
        <ele>179.965386</ele>
        <time>2022-02-25T06:45:56.242Z</time>
      </trkpt>
      <trkpt lat="36.17649" lon="32.44149">
        <ele>180.370517</ele>
        <time>2022-02-25T06:46:07.475Z</time>
      </trkpt>
      <trkpt lat="36.17668" lon="32.44121">
        <ele>180.799755</ele>
        <time>2022-02-25T06:46:17.760Z</time>
      </trkpt>
      <trkpt lat="36.17681" lon="32.44084">
        <ele>181.285789</ele>
        <time>2022-02-25T06:46:29.921Z</time>
      </trkpt>
      <trkpt lat="36.17688" lon="32.44046">
        <ele>181.752615</ele>
        <time>2022-02-25T06:46:41.537Z</time>
      </trkpt>
      <trkpt lat="36.17696" lon="32.43801">
        <ele>183.137358</ele>
        <time>2022-02-25T06:47:44.981Z</time>
      </trkpt>
      <trkpt lat="36.17705" lon="32.43771">
        <ele>183.23255</ele>
        <time>2022-02-25T06:47:50.815Z</time>
      </trkpt>
      <trkpt lat="36.17723" lon="32.4374">
        <ele>182.775229</ele>
        <time>2022-02-25T06:47:57.473Z</time>
      </trkpt>
      <trkpt lat="36.17747" lon="32.43713">
        <ele>181.773909</ele>
        <time>2022-02-25T06:48:04.153Z</time>
      </trkpt>
      <trkpt lat="36.17778" lon="32.4369">
        <ele>180.650911</ele>
        <time>2022-02-25T06:48:11.319Z</time>
      </trkpt>
      <trkpt lat="36.17812" lon="32.43674">
        <ele>179.53274</ele>
        <time>2022-02-25T06:48:18.196Z</time>
      </trkpt>
      <trkpt lat="36.17845" lon="32.43671">
        <ele>178.521291</ele>
        <time>2022-02-25T06:48:24.342Z</time>
      </trkpt>
      <trkpt lat="36.17957" lon="32.43676">
        <ele>175.03245</ele>
        <time>2022-02-25T06:48:45.603Z</time>
      </trkpt>
      <trkpt lat="36.18007" lon="32.43664">
        <ele>173.476019</ele>
        <time>2022-02-25T06:48:55.553Z</time>
      </trkpt>
      <trkpt lat="36.18049" lon="32.43645">
        <ele>172.146504</ele>
        <time>2022-02-25T06:49:04.999Z</time>
      </trkpt>
      <trkpt lat="36.18095" lon="32.43616">
        <ele>171.923368</ele>
        <time>2022-02-25T06:49:16.653Z</time>
      </trkpt>
      <trkpt lat="36.18133" lon="32.4358">
        <ele>171.714701</ele>
        <time>2022-02-25T06:49:28.830Z</time>
      </trkpt>
      <trkpt lat="36.18167" lon="32.43538">
        <ele>171.507984</ele>
        <time>2022-02-25T06:49:42.087Z</time>
      </trkpt>
      <trkpt lat="36.18198" lon="32.43483">
        <ele>171.439323</ele>
        <time>2022-02-25T06:49:58.361Z</time>
      </trkpt>
      <trkpt lat="36.18284" lon="32.43291">
        <ele>171.326564</ele>
        <time>2022-02-25T06:50:49.064Z</time>
      </trkpt>
      <trkpt lat="36.18317" lon="32.43228">
        <ele>169.955565</ele>
        <time>2022-02-25T06:51:01.766Z</time>
      </trkpt>
      <trkpt lat="36.18363" lon="32.43169">
        <ele>168.429351</ele>
        <time>2022-02-25T06:51:14.948Z</time>
      </trkpt>
      <trkpt lat="36.18428" lon="32.43098">
        <ele>165.956828</ele>
        <time>2022-02-25T06:51:31.260Z</time>
      </trkpt>
      <trkpt lat="36.18697" lon="32.42804">
        <ele>155.72447</ele>
        <time>2022-02-25T06:52:42.523Z</time>
      </trkpt>
      <trkpt lat="36.18765" lon="32.42731">
        <ele>153.914505</ele>
        <time>2022-02-25T06:53:01.869Z</time>
      </trkpt>
      <trkpt lat="36.18827" lon="32.42684">
        <ele>152.872534</ele>
        <time>2022-02-25T06:53:18.216Z</time>
      </trkpt>
      <trkpt lat="36.19095" lon="32.4253">
        <ele>150.676782</ele>
        <time>2022-02-25T06:54:29.251Z</time>
      </trkpt>
      <trkpt lat="36.19133" lon="32.42499">
        <ele>150.323277</ele>
        <time>2022-02-25T06:54:40.796Z</time>
      </trkpt>
      <trkpt lat="36.1918" lon="32.42447">
        <ele>149.6752</ele>
        <time>2022-02-25T06:54:55.677Z</time>
      </trkpt>
      <trkpt lat="36.19215" lon="32.42399">
        <ele>149.139455</ele>
        <time>2022-02-25T06:55:07.523Z</time>
      </trkpt>
      <trkpt lat="36.19244" lon="32.42355">
        <ele>148.673236</ele>
        <time>2022-02-25T06:55:17.791Z</time>
      </trkpt>
      <trkpt lat="36.19264" lon="32.42328">
        <ele>148.202753</ele>
        <time>2022-02-25T06:55:24.250Z</time>
      </trkpt>
      <trkpt lat="36.19327" lon="32.42175">
        <ele>145.991078</ele>
        <time>2022-02-25T06:55:54.104Z</time>
      </trkpt>
      <trkpt lat="36.1934" lon="32.42114">
        <ele>145.741754</ele>
        <time>2022-02-25T06:56:05.307Z</time>
      </trkpt>
      <trkpt lat="36.19349" lon="32.42068">
        <ele>145.691454</ele>
        <time>2022-02-25T06:56:14.389Z</time>
      </trkpt>
      <trkpt lat="36.19354" lon="32.42021">
        <ele>145.641625</ele>
        <time>2022-02-25T06:56:24.071Z</time>
      </trkpt>
      <trkpt lat="36.19357" lon="32.41972">
        <ele>145.589904</ele>
        <time>2022-02-25T06:56:34.962Z</time>
      </trkpt>
      <trkpt lat="36.19353" lon="32.41925">
        <ele>145.877481</ele>
        <time>2022-02-25T06:56:48.467Z</time>
      </trkpt>
      <trkpt lat="36.1935" lon="32.41882">
        <ele>146.712465</ele>
        <time>2022-02-25T06:57:02.219Z</time>
      </trkpt>
      <trkpt lat="36.19335" lon="32.41796">
        <ele>148.45236</ele>
        <time>2022-02-25T06:57:31.420Z</time>
      </trkpt>
      <trkpt lat="36.19326" lon="32.41765">
        <ele>149.09829</ele>
        <time>2022-02-25T06:57:42.716Z</time>
      </trkpt>
      <trkpt lat="36.19315" lon="32.41727">
        <ele>149.89399</ele>
        <time>2022-02-25T06:57:55.929Z</time>
      </trkpt>
      <trkpt lat="36.19297" lon="32.41673">
        <ele>149.531741</ele>
        <time>2022-02-25T06:58:11.610Z</time>
      </trkpt>
      <trkpt lat="36.19278" lon="32.4161">
        <ele>149.04818</ele>
        <time>2022-02-25T06:58:26.850Z</time>
      </trkpt>
      <trkpt lat="36.1927" lon="32.41586">
        <ele>148.859154</ele>
        <time>2022-02-25T06:58:31.627Z</time>
      </trkpt>
      <trkpt lat="36.19177" lon="32.41303">
        <ele>140.997881</ele>
        <time>2022-02-25T06:59:17.700Z</time>
      </trkpt>
      <trkpt lat="36.19175" lon="32.41298">
        <ele>140.893394</ele>
        <time>2022-02-25T06:59:18.585Z</time>
      </trkpt>
      <trkpt lat="36.19147" lon="32.41214">
        <ele>139.198999</ele>
        <time>2022-02-25T06:59:33.268Z</time>
      </trkpt>
      <trkpt lat="36.19091" lon="32.41061">
        <ele>136.370835</ele>
        <time>2022-02-25T07:00:03.271Z</time>
      </trkpt>
      <trkpt lat="36.19063" lon="32.40978">
        <ele>135.244136</ele>
        <time>2022-02-25T07:00:19.249Z</time>
      </trkpt>
      <trkpt lat="36.19046" lon="32.40907">
        <ele>134.312464</ele>
        <time>2022-02-25T07:00:32.216Z</time>
      </trkpt>
      <trkpt lat="36.19037" lon="32.40855">
        <ele>133.435537</ele>
        <time>2022-02-25T07:00:41.407Z</time>
      </trkpt>
      <trkpt lat="36.19035" lon="32.40754">
        <ele>131.70079</ele>
        <time>2022-02-25T07:00:58.427Z</time>
      </trkpt>
      <trkpt lat="36.19044" lon="32.40675">
        <ele>130.346474</ele>
        <time>2022-02-25T07:01:11.664Z</time>
      </trkpt>
      <trkpt lat="36.19055" lon="32.40622">
        <ele>129.490447</ele>
        <time>2022-02-25T07:01:20.809Z</time>
      </trkpt>
      <trkpt lat="36.19104" lon="32.40458">
        <ele>126.802684</ele>
        <time>2022-02-25T07:01:50.937Z</time>
      </trkpt>
      <trkpt lat="36.19142" lon="32.40331">
        <ele>125.218715</ele>
        <time>2022-02-25T07:02:15.222Z</time>
      </trkpt>
      <trkpt lat="36.19188" lon="32.40233">
        <ele>123.960932</ele>
        <time>2022-02-25T07:02:35.626Z</time>
      </trkpt>
      <trkpt lat="36.19247" lon="32.40155">
        <ele>122.877429</ele>
        <time>2022-02-25T07:02:54.768Z</time>
      </trkpt>
      <trkpt lat="36.19292" lon="32.4011">
        <ele>122.142095</ele>
        <time>2022-02-25T07:03:08.152Z</time>
      </trkpt>
      <trkpt lat="36.19308" lon="32.40095">
        <ele>121.949913</ele>
        <time>2022-02-25T07:03:12.718Z</time>
      </trkpt>
      <trkpt lat="36.19316" lon="32.40087">
        <ele>121.86908</ele>
        <time>2022-02-25T07:03:15.197Z</time>
      </trkpt>
      <trkpt lat="36.19339" lon="32.40065">
        <ele>121.633855</ele>
        <time>2022-02-25T07:03:22.032Z</time>
      </trkpt>
      <trkpt lat="36.1946" lon="32.39963">
        <ele>120.438005</ele>
        <time>2022-02-25T07:03:57.097Z</time>
      </trkpt>
      <trkpt lat="36.19541" lon="32.39886">
        <ele>119.483011</ele>
        <time>2022-02-25T07:04:21.182Z</time>
      </trkpt>
      <trkpt lat="36.19647" lon="32.39771">
        <ele>117.79982</ele>
        <time>2022-02-25T07:04:52.910Z</time>
      </trkpt>
      <trkpt lat="36.19724" lon="32.397">
        <ele>116.463984</ele>
        <time>2022-02-25T07:05:14.093Z</time>
      </trkpt>
      <trkpt lat="36.19981" lon="32.39541">
        <ele>112.04333</ele>
        <time>2022-02-25T07:06:16.820Z</time>
      </trkpt>
      <trkpt lat="36.2004" lon="32.3951">
        <ele>111.095663</ele>
        <time>2022-02-25T07:06:31.237Z</time>
      </trkpt>
      <trkpt lat="36.20217" lon="32.39439">
        <ele>108.971526</ele>
        <time>2022-02-25T07:07:13.710Z</time>
      </trkpt>
      <trkpt lat="36.20275" lon="32.39397">
        <ele>108.206234</ele>
        <time>2022-02-25T07:07:29.068Z</time>
      </trkpt>
      <trkpt lat="36.20299" lon="32.39378">
        <ele>107.877601</ele>
        <time>2022-02-25T07:07:35.574Z</time>
      </trkpt>
      <trkpt lat="36.20313" lon="32.39367">
        <ele>107.696145</ele>
        <time>2022-02-25T07:07:39.222Z</time>
      </trkpt>
      <trkpt lat="36.20438" lon="32.39266">
        <ele>106.220825</ele>
        <time>2022-02-25T07:08:13.403Z</time>
      </trkpt>
      <trkpt lat="36.20507" lon="32.39211">
        <ele>105.525879</ele>
        <time>2022-02-25T07:08:32.761Z</time>
      </trkpt>
      <trkpt lat="36.20649" lon="32.39097">
        <ele>105.170009</ele>
        <time>2022-02-25T07:09:16.351Z</time>
      </trkpt>
      <trkpt lat="36.20712" lon="32.39055">
        <ele>105.261221</ele>
        <time>2022-02-25T07:09:36.551Z</time>
      </trkpt>
      <trkpt lat="36.20778" lon="32.39026">
        <ele>105.481347</ele>
        <time>2022-02-25T07:09:56.328Z</time>
      </trkpt>
      <trkpt lat="36.2083" lon="32.39007">
        <ele>105.655765</ele>
        <time>2022-02-25T07:10:12.062Z</time>
      </trkpt>
      <trkpt lat="36.20895" lon="32.38982">
        <ele>105.823247</ele>
        <time>2022-02-25T07:10:31.090Z</time>
      </trkpt>
      <trkpt lat="36.20949" lon="32.38968">
        <ele>105.949695</ele>
        <time>2022-02-25T07:10:46.385Z</time>
      </trkpt>
      <trkpt lat="36.21139" lon="32.38962">
        <ele>106.62293</ele>
        <time>2022-02-25T07:11:38.548Z</time>
      </trkpt>
      <trkpt lat="36.21252" lon="32.38958">
        <ele>107.362763</ele>
        <time>2022-02-25T07:12:13.599Z</time>
      </trkpt>
      <trkpt lat="36.21256" lon="32.38965">
        <ele>107.4254</ele>
        <time>2022-02-25T07:12:16.206Z</time>
      </trkpt>
      <trkpt lat="36.21296" lon="32.38997">
        <ele>107.872152</ele>
        <time>2022-02-25T07:12:31.166Z</time>
      </trkpt>
      <trkpt lat="36.21439" lon="32.39079">
        <ele>109.174688</ele>
        <time>2022-02-25T07:13:19.704Z</time>
      </trkpt>
      <trkpt lat="36.21463" lon="32.39091">
        <ele>109.366661</ele>
        <time>2022-02-25T07:13:27.196Z</time>
      </trkpt>
      <trkpt lat="36.2151" lon="32.39111">
        <ele>109.732216</ele>
        <time>2022-02-25T07:13:41.792Z</time>
      </trkpt>
      <trkpt lat="36.2154" lon="32.39132">
        <ele>109.998653</ele>
        <time>2022-02-25T07:13:52.333Z</time>
      </trkpt>
      <trkpt lat="36.21555" lon="32.39135">
        <ele>110.116031</ele>
        <time>2022-02-25T07:13:56.815Z</time>
      </trkpt>
      <trkpt lat="36.2164" lon="32.39133">
        <ele>110.793261</ele>
        <time>2022-02-25T07:14:23.225Z</time>
      </trkpt>
      <trkpt lat="36.21708" lon="32.39138">
        <ele>111.32545</ele>
        <time>2022-02-25T07:14:43.963Z</time>
      </trkpt>
      <trkpt lat="36.21845" lon="32.39176">
        <ele>112.050879</ele>
        <time>2022-02-25T07:15:25.371Z</time>
      </trkpt>
      <trkpt lat="36.22" lon="32.39177">
        <ele>112.19505</ele>
        <time>2022-02-25T07:16:08.438Z</time>
      </trkpt>
      <trkpt lat="36.22035" lon="32.39177">
        <ele>112.180647</ele>
        <time>2022-02-25T07:16:17.495Z</time>
      </trkpt>
      <trkpt lat="36.22063" lon="32.39167">
        <ele>112.139925</ele>
        <time>2022-02-25T07:16:24.566Z</time>
      </trkpt>
      <trkpt lat="36.22125" lon="32.39132">
        <ele>111.150385</ele>
        <time>2022-02-25T07:16:40.737Z</time>
      </trkpt>
      <trkpt lat="36.2213" lon="32.39124">
        <ele>111.042557</ele>
        <time>2022-02-25T07:16:42.331Z</time>
      </trkpt>
      <trkpt lat="36.22195" lon="32.3908">
        <ele>109.959163</ele>
        <time>2022-02-25T07:16:58.306Z</time>
      </trkpt>
      <trkpt lat="36.22215" lon="32.39057">
        <ele>109.570416</ele>
        <time>2022-02-25T07:17:03.971Z</time>
      </trkpt>
      <trkpt lat="36.22236" lon="32.39024">
        <ele>108.852464</ele>
        <time>2022-02-25T07:17:11.017Z</time>
      </trkpt>
      <trkpt lat="36.22259" lon="32.38987">
        <ele>108.04782</ele>
        <time>2022-02-25T07:17:18.830Z</time>
      </trkpt>
      <trkpt lat="36.22317" lon="32.38901">
        <ele>106.130479</ele>
        <time>2022-02-25T07:17:37.579Z</time>
      </trkpt>
      <trkpt lat="36.2238" lon="32.38862">
        <ele>104.990756</ele>
        <time>2022-02-25T07:17:52.609Z</time>
      </trkpt>
      <trkpt lat="36.22411" lon="32.38841">
        <ele>104.471485</ele>
        <time>2022-02-25T07:18:00.612Z</time>
      </trkpt>
      <trkpt lat="36.22436" lon="32.38825">
        <ele>104.067749</ele>
        <time>2022-02-25T07:18:06.799Z</time>
      </trkpt>
      <trkpt lat="36.22477" lon="32.38793">
        <ele>103.366428</ele>
        <time>2022-02-25T07:18:17.728Z</time>
      </trkpt>
      <trkpt lat="36.22552" lon="32.38721">
        <ele>102.775845</ele>
        <time>2022-02-25T07:18:39.585Z</time>
      </trkpt>
      <trkpt lat="36.22662" lon="32.38651">
        <ele>102.516195</ele>
        <time>2022-02-25T07:19:12.606Z</time>
      </trkpt>
      <trkpt lat="36.22687" lon="32.38629">
        <ele>102.768989</ele>
        <time>2022-02-25T07:19:21.659Z</time>
      </trkpt>
      <trkpt lat="36.22707" lon="32.38596">
        <ele>103.051946</ele>
        <time>2022-02-25T07:19:32.228Z</time>
      </trkpt>
      <trkpt lat="36.22727" lon="32.38556">
        <ele>103.369162</ele>
        <time>2022-02-25T07:19:44.229Z</time>
      </trkpt>
      <trkpt lat="36.22736" lon="32.38528">
        <ele>103.572587</ele>
        <time>2022-02-25T07:19:52.331Z</time>
      </trkpt>
      <trkpt lat="36.22739" lon="32.38516">
        <ele>103.653491</ele>
        <time>2022-02-25T07:19:55.236Z</time>
      </trkpt>
      <trkpt lat="36.22757" lon="32.38492">
        <ele>103.848406</ele>
        <time>2022-02-25T07:20:04.196Z</time>
      </trkpt>
      <trkpt lat="36.22781" lon="32.38467">
        <ele>103.967378</ele>
        <time>2022-02-25T07:20:14.368Z</time>
      </trkpt>
      <trkpt lat="36.22822" lon="32.38441">
        <ele>104.143203</ele>
        <time>2022-02-25T07:20:28.677Z</time>
      </trkpt>
      <trkpt lat="36.22949" lon="32.38395">
        <ele>103.939676</ele>
        <time>2022-02-25T07:21:03.286Z</time>
      </trkpt>
      <trkpt lat="36.22996" lon="32.38343">
        <ele>102.978558</ele>
        <time>2022-02-25T07:21:16.899Z</time>
      </trkpt>
      <trkpt lat="36.23056" lon="32.38217">
        <ele>100.943152</ele>
        <time>2022-02-25T07:21:41.466Z</time>
      </trkpt>
      <trkpt lat="36.23064" lon="32.382">
        <ele>100.617798</ele>
        <time>2022-02-25T07:21:44.514Z</time>
      </trkpt>
      <trkpt lat="36.23076" lon="32.38179">
        <ele>100.178822</ele>
        <time>2022-02-25T07:21:48.924Z</time>
      </trkpt>
      <trkpt lat="36.23115" lon="32.38141">
        <ele>99.142995</ele>
        <time>2022-02-25T07:21:59.027Z</time>
      </trkpt>
      <trkpt lat="36.23191" lon="32.38076">
        <ele>97.654325</ele>
        <time>2022-02-25T07:22:19.185Z</time>
      </trkpt>
      <trkpt lat="36.23208" lon="32.38064">
        <ele>97.486225</ele>
        <time>2022-02-25T07:22:23.694Z</time>
      </trkpt>
      <trkpt lat="36.23236" lon="32.38032">
        <ele>97.149218</ele>
        <time>2022-02-25T07:22:32.884Z</time>
      </trkpt>
      <trkpt lat="36.23441" lon="32.37797">
        <ele>95.527427</ele>
        <time>2022-02-25T07:23:41.963Z</time>
      </trkpt>
      <trkpt lat="36.23571" lon="32.37689">
        <ele>94.961815</ele>
        <time>2022-02-25T07:24:21.288Z</time>
      </trkpt>
      <trkpt lat="36.23728" lon="32.37542">
        <ele>94.562266</ele>
        <time>2022-02-25T07:25:12.165Z</time>
      </trkpt>
      <trkpt lat="36.23813" lon="32.3747">
        <ele>94.248214</ele>
        <time>2022-02-25T07:25:38.368Z</time>
      </trkpt>
      <trkpt lat="36.23852" lon="32.37441">
        <ele>94.109312</ele>
        <time>2022-02-25T07:25:49.811Z</time>
      </trkpt>
      <trkpt lat="36.23874" lon="32.37415">
        <ele>94.016454</ele>
        <time>2022-02-25T07:25:57.546Z</time>
      </trkpt>
      <trkpt lat="36.23903" lon="32.3738">
        <ele>93.897688</ele>
        <time>2022-02-25T07:26:07.686Z</time>
      </trkpt>
      <trkpt lat="36.23948" lon="32.37331">
        <ele>93.724668</ele>
        <time>2022-02-25T07:26:22.377Z</time>
      </trkpt>
      <trkpt lat="36.24032" lon="32.3726">
        <ele>93.5938</ele>
        <time>2022-02-25T07:26:48.712Z</time>
      </trkpt>
      <trkpt lat="36.24061" lon="32.37234">
        <ele>93.701141</ele>
        <time>2022-02-25T07:26:58.867Z</time>
      </trkpt>
      <trkpt lat="36.24122" lon="32.37179">
        <ele>93.923969</ele>
        <time>2022-02-25T07:27:20.472Z</time>
      </trkpt>
      <trkpt lat="36.24184" lon="32.37141">
        <ele>94.24451</ele>
        <time>2022-02-25T07:27:40.942Z</time>
      </trkpt>
      <trkpt lat="36.24252" lon="32.37071">
        <ele>94.85132</ele>
        <time>2022-02-25T07:28:06.738Z</time>
      </trkpt>
      <trkpt lat="36.24314" lon="32.3705">
        <ele>95.315454</ele>
        <time>2022-02-25T07:28:26.863Z</time>
      </trkpt>
      <trkpt lat="36.24333" lon="32.37037">
        <ele>95.621022</ele>
        <time>2022-02-25T07:28:33.501Z</time>
      </trkpt>
      <trkpt lat="36.24354" lon="32.37016">
        <ele>95.999219</ele>
        <time>2022-02-25T07:28:42.132Z</time>
      </trkpt>
      <trkpt lat="36.24364" lon="32.37016">
        <ele>96.129227</ele>
        <time>2022-02-25T07:28:45.119Z</time>
      </trkpt>
      <trkpt lat="36.24378" lon="32.3701">
        <ele>96.33353</ele>
        <time>2022-02-25T07:28:50.060Z</time>
      </trkpt>
      <trkpt lat="36.2447" lon="32.3693">
        <ele>97.945062</ele>
        <time>2022-02-25T07:29:28.646Z</time>
      </trkpt>
      <trkpt lat="36.24566" lon="32.36883">
        <ele>99.870169</ele>
        <time>2022-02-25T07:30:06.544Z</time>
      </trkpt>
      <trkpt lat="36.24594" lon="32.36872">
        <ele>100.427428</ele>
        <time>2022-02-25T07:30:17.571Z</time>
      </trkpt>
      <trkpt lat="36.24602" lon="32.36869">
        <ele>100.571871</ele>
        <time>2022-02-25T07:30:20.766Z</time>
      </trkpt>
      <trkpt lat="36.24677" lon="32.36812">
        <ele>101.054073</ele>
        <time>2022-02-25T07:30:49.934Z</time>
      </trkpt>
      <trkpt lat="36.24701" lon="32.368">
        <ele>101.006324</ele>
        <time>2022-02-25T07:30:57.628Z</time>
      </trkpt>
      <trkpt lat="36.24727" lon="32.36787">
        <ele>100.955758</ele>
        <time>2022-02-25T07:31:05.157Z</time>
      </trkpt>
      <trkpt lat="36.24756" lon="32.36773">
        <ele>100.897864</ele>
        <time>2022-02-25T07:31:12.419Z</time>
      </trkpt>
      <trkpt lat="36.24773" lon="32.3676">
        <ele>100.861231</ele>
        <time>2022-02-25T07:31:16.694Z</time>
      </trkpt>
      <trkpt lat="36.24809" lon="32.36705">
        <ele>99.193964</ele>
        <time>2022-02-25T07:31:28.383Z</time>
      </trkpt>
      <trkpt lat="36.24825" lon="32.36676">
        <ele>98.00804</ele>
        <time>2022-02-25T07:31:33.785Z</time>
      </trkpt>
      <trkpt lat="36.24867" lon="32.36576">
        <ele>94.223422</ele>
        <time>2022-02-25T07:31:50.052Z</time>
      </trkpt>
      <trkpt lat="36.24899" lon="32.36535">
        <ele>92.460281</ele>
        <time>2022-02-25T07:31:58.508Z</time>
      </trkpt>
      <trkpt lat="36.2491" lon="32.36507">
        <ele>91.570329</ele>
        <time>2022-02-25T07:32:03.122Z</time>
      </trkpt>
      <trkpt lat="36.24912" lon="32.36501">
        <ele>91.395826</ele>
        <time>2022-02-25T07:32:04.037Z</time>
      </trkpt>
      <trkpt lat="36.24929" lon="32.36489">
        <ele>90.726252</ele>
        <time>2022-02-25T07:32:07.651Z</time>
      </trkpt>
      <trkpt lat="36.24946" lon="32.36488">
        <ele>90.133152</ele>
        <time>2022-02-25T07:32:10.751Z</time>
      </trkpt>
      <trkpt lat="36.24978" lon="32.36463">
        <ele>88.788169</ele>
        <time>2022-02-25T07:32:18.165Z</time>
      </trkpt>
      <trkpt lat="36.2503" lon="32.36444">
        <ele>86.976819</ele>
        <time>2022-02-25T07:32:29.239Z</time>
      </trkpt>
      <trkpt lat="36.25064" lon="32.36423">
        <ele>86.839293</ele>
        <time>2022-02-25T07:32:37.924Z</time>
      </trkpt>
      <trkpt lat="36.25075" lon="32.36413">
        <ele>86.791645</ele>
        <time>2022-02-25T07:32:41.151Z</time>
      </trkpt>
      <trkpt lat="36.25148" lon="32.36385">
        <ele>86.512088</ele>
        <time>2022-02-25T07:33:02.081Z</time>
      </trkpt>
      <trkpt lat="36.25212" lon="32.36399">
        <ele>86.299678</ele>
        <time>2022-02-25T07:33:20.627Z</time>
      </trkpt>
      <trkpt lat="36.25257" lon="32.36381">
        <ele>86.188984</ele>
        <time>2022-02-25T07:33:34.329Z</time>
      </trkpt>
      <trkpt lat="36.25268" lon="32.3638">
        <ele>86.162647</ele>
        <time>2022-02-25T07:33:37.917Z</time>
      </trkpt>
      <trkpt lat="36.25275" lon="32.3638">
        <ele>86.145627</ele>
        <time>2022-02-25T07:33:39.966Z</time>
      </trkpt>
      <trkpt lat="36.25314" lon="32.36385">
        <ele>86.055033</ele>
        <time>2022-02-25T07:33:50.390Z</time>
      </trkpt>
      <trkpt lat="36.25334" lon="32.36375">
        <ele>86.006004</ele>
        <time>2022-02-25T07:33:55.713Z</time>
      </trkpt>
      <trkpt lat="36.25397" lon="32.36322">
        <ele>84.844961</ele>
        <time>2022-02-25T07:34:12.452Z</time>
      </trkpt>
      <trkpt lat="36.25411" lon="32.36306">
        <ele>84.322311</ele>
        <time>2022-02-25T07:34:16.440Z</time>
      </trkpt>
      <trkpt lat="36.25438" lon="32.3627">
        <ele>83.229153</ele>
        <time>2022-02-25T07:34:24.174Z</time>
      </trkpt>
      <trkpt lat="36.25452" lon="32.36261">
        <ele>82.793659</ele>
        <time>2022-02-25T07:34:27.195Z</time>
      </trkpt>
      <trkpt lat="36.25469" lon="32.36259">
        <ele>82.31752</ele>
        <time>2022-02-25T07:34:30.611Z</time>
      </trkpt>
      <trkpt lat="36.2548" lon="32.36262">
        <ele>82.008573</ele>
        <time>2022-02-25T07:34:32.658Z</time>
      </trkpt>
      <trkpt lat="36.25526" lon="32.3628">
        <ele>80.797094</ele>
        <time>2022-02-25T07:34:41.998Z</time>
      </trkpt>
      <trkpt lat="36.25543" lon="32.3632">
        <ele>80.227233</ele>
        <time>2022-02-25T07:34:49.042Z</time>
      </trkpt>
      <trkpt lat="36.25554" lon="32.36329">
        <ele>80.026777</ele>
        <time>2022-02-25T07:34:51.664Z</time>
      </trkpt>
      <trkpt lat="36.25656" lon="32.36282">
        <ele>78.319942</ele>
        <time>2022-02-25T07:35:16.422Z</time>
      </trkpt>
      <trkpt lat="36.25672" lon="32.36288">
        <ele>78.192682</ele>
        <time>2022-02-25T07:35:21.250Z</time>
      </trkpt>
      <trkpt lat="36.25714" lon="32.36321">
        <ele>78.622738</ele>
        <time>2022-02-25T07:35:38.022Z</time>
      </trkpt>
      <trkpt lat="36.25738" lon="32.36352">
        <ele>78.916316</ele>
        <time>2022-02-25T07:35:49.937Z</time>
      </trkpt>
      <trkpt lat="36.25746" lon="32.36373">
        <ele>79.079664</ele>
        <time>2022-02-25T07:35:56.557Z</time>
      </trkpt>
      <trkpt lat="36.25748" lon="32.36397">
        <ele>79.246419</ele>
        <time>2022-02-25T07:36:03.313Z</time>
      </trkpt>
      <trkpt lat="36.25745" lon="32.36422">
        <ele>79.417521</ele>
        <time>2022-02-25T07:36:10.053Z</time>
      </trkpt>
      <trkpt lat="36.25733" lon="32.36458">
        <ele>79.690505</ele>
        <time>2022-02-25T07:36:19.981Z</time>
      </trkpt>
      <trkpt lat="36.25737" lon="32.36474">
        <ele>79.358951</ele>
        <time>2022-02-25T07:36:23.655Z</time>
      </trkpt>
      <trkpt lat="36.25751" lon="32.36483">
        <ele>79.003989</ele>
        <time>2022-02-25T07:36:27.212Z</time>
      </trkpt>
      <trkpt lat="36.25801" lon="32.36497">
        <ele>77.780582</ele>
        <time>2022-02-25T07:36:38.117Z</time>
      </trkpt>
      <trkpt lat="36.25835" lon="32.36498">
        <ele>76.969651</ele>
        <time>2022-02-25T07:36:44.716Z</time>
      </trkpt>
      <trkpt lat="36.25864" lon="32.3651">
        <ele>76.246005</ele>
        <time>2022-02-25T07:36:50.367Z</time>
      </trkpt>
      <trkpt lat="36.25898" lon="32.3651">
        <ele>75.445102</ele>
        <time>2022-02-25T07:36:56.719Z</time>
      </trkpt>
      <trkpt lat="36.25932" lon="32.36518">
        <ele>74.845675</ele>
        <time>2022-02-25T07:37:03.523Z</time>
      </trkpt>
      <trkpt lat="36.25974" lon="32.36495">
        <ele>74.066457</ele>
        <time>2022-02-25T07:37:12.735Z</time>
      </trkpt>
      <trkpt lat="36.26007" lon="32.36498">
        <ele>73.510194</ele>
        <time>2022-02-25T07:37:20.445Z</time>
      </trkpt>
      <trkpt lat="36.26017" lon="32.36502">
        <ele>73.337108</ele>
        <time>2022-02-25T07:37:22.303Z</time>
      </trkpt>
      <trkpt lat="36.26023" lon="32.36508">
        <ele>73.2016</ele>
        <time>2022-02-25T07:37:27.029Z</time>
      </trkpt>
      <trkpt lat="36.26026" lon="32.36528">
        <ele>72.9322</ele>
        <time>2022-02-25T07:37:32.790Z</time>
      </trkpt>
      <trkpt lat="36.26023" lon="32.36575">
        <ele>72.243384</ele>
        <time>2022-02-25T07:37:42.620Z</time>
      </trkpt>
      <trkpt lat="36.26043" lon="32.36631">
        <ele>70.989881</ele>
        <time>2022-02-25T07:37:53.903Z</time>
      </trkpt>
      <trkpt lat="36.26039" lon="32.36687">
        <ele>69.846175</ele>
        <time>2022-02-25T07:38:04.453Z</time>
      </trkpt>
      <trkpt lat="36.26044" lon="32.36704">
        <ele>69.469338</ele>
        <time>2022-02-25T07:38:09.017Z</time>
      </trkpt>
      <trkpt lat="36.2605" lon="32.36672">
        <ele>68.809029</ele>
        <time>2022-02-25T07:38:13.764Z</time>
      </trkpt>
      <trkpt lat="36.26055" lon="32.36651">
        <ele>68.367404</ele>
        <time>2022-02-25T07:38:17.139Z</time>
      </trkpt>
      <trkpt lat="36.26082" lon="32.36619">
        <ele>66.387555</ele>
        <time>2022-02-25T07:38:23.645Z</time>
      </trkpt>
      <trkpt lat="36.26102" lon="32.36583">
        <ele>63.262284</ele>
        <time>2022-02-25T07:38:29.673Z</time>
      </trkpt>
      <trkpt lat="36.26155" lon="32.36508">
        <ele>56.28484</ele>
        <time>2022-02-25T07:38:42.658Z</time>
      </trkpt>
      <trkpt lat="36.26176" lon="32.36448">
        <ele>51.77331</ele>
        <time>2022-02-25T07:38:51.382Z</time>
      </trkpt>
      <trkpt lat="36.26199" lon="32.36405">
        <ele>49.167964</ele>
        <time>2022-02-25T07:38:58.356Z</time>
      </trkpt>
      <trkpt lat="36.26227" lon="32.36367">
        <ele>46.585176</ele>
        <time>2022-02-25T07:39:05.416Z</time>
      </trkpt>
      <trkpt lat="36.26248" lon="32.36353">
        <ele>45.091078</ele>
        <time>2022-02-25T07:39:09.529Z</time>
      </trkpt>
      <trkpt lat="36.26252" lon="32.3635">
        <ele>44.76434</ele>
        <time>2022-02-25T07:39:10.524Z</time>
      </trkpt>
      <trkpt lat="36.26315" lon="32.36314">
        <ele>40.706768</ele>
        <time>2022-02-25T07:39:23.443Z</time>
      </trkpt>
      <trkpt lat="36.26318" lon="32.36309">
        <ele>40.614631</ele>
        <time>2022-02-25T07:39:24.477Z</time>
      </trkpt>
      <trkpt lat="36.263" lon="32.36293">
        <ele>40.182277</ele>
        <time>2022-02-25T07:39:29.012Z</time>
      </trkpt>
      <trkpt lat="36.26282" lon="32.36268">
        <ele>39.669522</ele>
        <time>2022-02-25T07:39:34.799Z</time>
      </trkpt>
      <trkpt lat="36.26237" lon="32.36169">
        <ele>37.901365</ele>
        <time>2022-02-25T07:39:56.418Z</time>
      </trkpt>
      <trkpt lat="36.2619" lon="32.36049">
        <ele>36.594235</ele>
        <time>2022-02-25T07:40:22.646Z</time>
      </trkpt>
      <trkpt lat="36.26117" lon="32.3584">
        <ele>34.798191</ele>
        <time>2022-02-25T07:41:07.301Z</time>
      </trkpt>
      <trkpt lat="36.26062" lon="32.35637">
        <ele>33.358</ele>
        <time>2022-02-25T07:41:49.276Z</time>
      </trkpt>
      <trkpt lat="36.26048" lon="32.35587">
        <ele>33.077321</ele>
        <time>2022-02-25T07:42:00.296Z</time>
      </trkpt>
      <trkpt lat="36.2604" lon="32.3554">
        <ele>32.82647</ele>
        <time>2022-02-25T07:42:10.374Z</time>
      </trkpt>
      <trkpt lat="36.26028" lon="32.35382">
        <ele>32.290768</ele>
        <time>2022-02-25T07:42:44.686Z</time>
      </trkpt>
      <trkpt lat="36.26014" lon="32.35022">
        <ele>30.864876</ele>
        <time>2022-02-25T07:43:59.333Z</time>
      </trkpt>
      <trkpt lat="36.25999" lon="32.34914">
        <ele>30.335125</ele>
        <time>2022-02-25T07:44:21.906Z</time>
      </trkpt>
      <trkpt lat="36.25984" lon="32.3487">
        <ele>30.10566</ele>
        <time>2022-02-25T07:44:31.533Z</time>
      </trkpt>
      <trkpt lat="36.25976" lon="32.348">
        <ele>29.576368</ele>
        <time>2022-02-25T07:44:45.657Z</time>
      </trkpt>
      <trkpt lat="36.25974" lon="32.34742">
        <ele>29.075458</ele>
        <time>2022-02-25T07:44:57.190Z</time>
      </trkpt>
      <trkpt lat="36.25975" lon="32.34523">
        <ele>27.079945</ele>
        <time>2022-02-25T07:45:38.677Z</time>
      </trkpt>
      <trkpt lat="36.25984" lon="32.3443">
        <ele>26.169282</ele>
        <time>2022-02-25T07:45:56.573Z</time>
      </trkpt>
      <trkpt lat="36.25996" lon="32.34364">
        <ele>25.687942</ele>
        <time>2022-02-25T07:46:09.805Z</time>
      </trkpt>
      <trkpt lat="36.26027" lon="32.34238">
        <ele>24.936508</ele>
        <time>2022-02-25T07:46:36.457Z</time>
      </trkpt>
      <trkpt lat="36.26056" lon="32.34155">
        <ele>24.537741</ele>
        <time>2022-02-25T07:46:55.518Z</time>
      </trkpt>
      <trkpt lat="36.26076" lon="32.34064">
        <ele>24.267239</ele>
        <time>2022-02-25T07:47:15.325Z</time>
      </trkpt>
      <trkpt lat="36.26086" lon="32.34019">
        <ele>24.132867</ele>
        <time>2022-02-25T07:47:25.228Z</time>
      </trkpt>
      <trkpt lat="36.26116" lon="32.3402">
        <ele>24.026263</ele>
        <time>2022-02-25T07:47:33.165Z</time>
      </trkpt>
      <trkpt lat="36.26148" lon="32.34015">
        <ele>23.96773</ele>
        <time>2022-02-25T07:47:41.892Z</time>
      </trkpt>
      <trkpt lat="36.26148" lon="32.33974">
        <ele>23.912435</ele>
        <time>2022-02-25T07:47:53.172Z</time>
      </trkpt>
      <trkpt lat="36.26159" lon="32.33934">
        <ele>23.855377</ele>
        <time>2022-02-25T07:48:04.826Z</time>
      </trkpt>
      <trkpt lat="36.26203" lon="32.33818">
        <ele>23.714966</ele>
        <time>2022-02-25T07:48:40.313Z</time>
      </trkpt>
      <trkpt lat="36.26221" lon="32.3372">
        <ele>23.707956</ele>
        <time>2022-02-25T07:49:08.874Z</time>
      </trkpt>
      <trkpt lat="36.26231" lon="32.33431">
        <ele>23.961951</ele>
        <time>2022-02-25T07:50:31.678Z</time>
      </trkpt>
      <trkpt lat="36.26263" lon="32.33369">
        <ele>24.020943</ele>
        <time>2022-02-25T07:50:53.696Z</time>
      </trkpt>
      <trkpt lat="36.2629" lon="32.33289">
        <ele>24.055575</ele>
        <time>2022-02-25T07:51:19.200Z</time>
      </trkpt>
      <trkpt lat="36.26311" lon="32.33211">
        <ele>24.088838</ele>
        <time>2022-02-25T07:51:42.128Z</time>
      </trkpt>
      <trkpt lat="36.26346" lon="32.33181">
        <ele>23.792822</ele>
        <time>2022-02-25T07:51:56.176Z</time>
      </trkpt>
      <trkpt lat="36.26331" lon="32.33154">
        <ele>23.558053</ele>
        <time>2022-02-25T07:52:04.349Z</time>
      </trkpt>
      <trkpt lat="36.26321" lon="32.33132">
        <ele>23.373</ele>
        <time>2022-02-25T07:52:10.923Z</time>
      </trkpt>
      <trkpt lat="36.26328" lon="32.33104">
        <ele>23.156396</ele>
        <time>2022-02-25T07:52:18.452Z</time>
      </trkpt>
      <trkpt lat="36.26319" lon="32.33014">
        <ele>22.489429</ele>
        <time>2022-02-25T07:52:41.033Z</time>
      </trkpt>
      <trkpt lat="36.26342" lon="32.32943">
        <ele>21.654253</ele>
        <time>2022-02-25T07:52:59.226Z</time>
      </trkpt>
      <trkpt lat="36.26375" lon="32.32859">
        <ele>20.600877</ele>
        <time>2022-02-25T07:53:21.775Z</time>
      </trkpt>
      <trkpt lat="36.26383" lon="32.32839">
        <ele>20.358117</ele>
        <time>2022-02-25T07:53:27.093Z</time>
      </trkpt>
      <trkpt lat="36.26412" lon="32.3277">
        <ele>19.947745</ele>
        <time>2022-02-25T07:53:42.339Z</time>
      </trkpt>
      <trkpt lat="36.26425" lon="32.32741">
        <ele>19.944272</ele>
        <time>2022-02-25T07:53:49.027Z</time>
      </trkpt>
      <trkpt lat="36.26428" lon="32.32713">
        <ele>19.941299</ele>
        <time>2022-02-25T07:53:55.003Z</time>
      </trkpt>
      <trkpt lat="36.26427" lon="32.32618">
        <ele>19.931202</ele>
        <time>2022-02-25T07:54:17.391Z</time>
      </trkpt>
      <trkpt lat="36.26437" lon="32.32583">
        <ele>20.064438</ele>
        <time>2022-02-25T07:54:27.282Z</time>
      </trkpt>
      <trkpt lat="36.26505" lon="32.32467">
        <ele>21.620706</ele>
        <time>2022-02-25T07:55:09.008Z</time>
      </trkpt>
      <trkpt lat="36.26517" lon="32.32447">
        <ele>21.885278</ele>
        <time>2022-02-25T07:55:15.823Z</time>
      </trkpt>
      <trkpt lat="36.26535" lon="32.32417">
        <ele>22.296629</ele>
        <time>2022-02-25T07:55:26.218Z</time>
      </trkpt>
      <trkpt lat="36.26548" lon="32.32396">
        <ele>22.319723</ele>
        <time>2022-02-25T07:55:33.113Z</time>
      </trkpt>
      <trkpt lat="36.26573" lon="32.32374">
        <ele>22.270743</ele>
        <time>2022-02-25T07:55:42.327Z</time>
      </trkpt>
      <trkpt lat="36.26585" lon="32.3237">
        <ele>22.25011</ele>
        <time>2022-02-25T07:55:46.243Z</time>
      </trkpt>
      <trkpt lat="36.26611" lon="32.32361">
        <ele>22.208002</ele>
        <time>2022-02-25T07:55:53.467Z</time>
      </trkpt>
      <trkpt lat="36.26667" lon="32.32341">
        <ele>22.114104</ele>
        <time>2022-02-25T07:56:08.513Z</time>
      </trkpt>
      <trkpt lat="36.2672" lon="32.32318">
        <ele>21.83362</ele>
        <time>2022-02-25T07:56:21.853Z</time>
      </trkpt>
      <trkpt lat="36.26696" lon="32.32265">
        <ele>21.324563</ele>
        <time>2022-02-25T07:56:32.980Z</time>
      </trkpt>
      <trkpt lat="36.26693" lon="32.32225">
        <ele>20.988795</ele>
        <time>2022-02-25T07:56:40.374Z</time>
      </trkpt>
      <trkpt lat="36.26711" lon="32.3222">
        <ele>20.795964</ele>
        <time>2022-02-25T07:56:44.531Z</time>
      </trkpt>
      <trkpt lat="36.26722" lon="32.32213">
        <ele>20.663879</ele>
        <time>2022-02-25T07:56:47.684Z</time>
      </trkpt>
      <trkpt lat="36.26723" lon="32.32196">
        <ele>20.520906</ele>
        <time>2022-02-25T07:56:50.693Z</time>
      </trkpt>
      <trkpt lat="36.26746" lon="32.3212">
        <ele>20.322037</ele>
        <time>2022-02-25T07:57:07.956Z</time>
      </trkpt>
      <trkpt lat="36.26765" lon="32.32056">
        <ele>20.545744</ele>
        <time>2022-02-25T07:57:24.570Z</time>
      </trkpt>
      <trkpt lat="36.2679" lon="32.3206">
        <ele>20.649463</ele>
        <time>2022-02-25T07:57:32.349Z</time>
      </trkpt>
      <trkpt lat="36.26804" lon="32.3206">
        <ele>20.706054</ele>
        <time>2022-02-25T07:57:37.154Z</time>
      </trkpt>
      <trkpt lat="36.26817" lon="32.32059">
        <ele>20.759453</ele>
        <time>2022-02-25T07:57:41.065Z</time>
      </trkpt>
      <trkpt lat="36.26826" lon="32.32056">
        <ele>20.79889</ele>
        <time>2022-02-25T07:57:43.970Z</time>
      </trkpt>
      <trkpt lat="36.26835" lon="32.32052">
        <ele>20.837106</ele>
        <time>2022-02-25T07:57:47.129Z</time>
      </trkpt>
      <trkpt lat="36.26874" lon="32.3204">
        <ele>20.867045</ele>
        <time>2022-02-25T07:57:58.902Z</time>
      </trkpt>
      <trkpt lat="36.26863" lon="32.31956">
        <ele>20.683575</ele>
        <time>2022-02-25T07:58:17.664Z</time>
      </trkpt>
      <trkpt lat="36.26861" lon="32.31938">
        <ele>20.645037</ele>
        <time>2022-02-25T07:58:21.120Z</time>
      </trkpt>
      <trkpt lat="36.2686" lon="32.31929">
        <ele>20.625022</ele>
        <time>2022-02-25T07:58:22.918Z</time>
      </trkpt>
      <trkpt lat="36.26858" lon="32.31911">
        <ele>20.586523</ele>
        <time>2022-02-25T07:58:26.932Z</time>
      </trkpt>
      <trkpt lat="36.26855" lon="32.31888">
        <ele>20.536043</ele>
        <time>2022-02-25T07:58:31.274Z</time>
      </trkpt>
      <trkpt lat="36.2685" lon="32.31845">
        <ele>20.44294</ele>
        <time>2022-02-25T07:58:39.428Z</time>
      </trkpt>
      <trkpt lat="36.26849" lon="32.31837">
        <ele>20.411292</ele>
        <time>2022-02-25T07:58:40.911Z</time>
      </trkpt>
      <trkpt lat="36.26846" lon="32.31816">
        <ele>20.317499</ele>
        <time>2022-02-25T07:58:44.946Z</time>
      </trkpt>
      <trkpt lat="36.26845" lon="32.31801">
        <ele>20.249024</ele>
        <time>2022-02-25T07:58:47.760Z</time>
      </trkpt>
      <trkpt lat="36.26844" lon="32.31795">
        <ele>20.225886</ele>
        <time>2022-02-25T07:58:48.732Z</time>
      </trkpt>
      <trkpt lat="36.2684" lon="32.3175">
        <ele>20.025533</ele>
        <time>2022-02-25T07:58:57.174Z</time>
      </trkpt>
      <trkpt lat="36.26862" lon="32.31746">
        <ele>19.904494</ele>
        <time>2022-02-25T07:59:02.484Z</time>
      </trkpt>
      <trkpt lat="36.26876" lon="32.31743">
        <ele>19.825157</ele>
        <time>2022-02-25T07:59:05.969Z</time>
      </trkpt>
      <trkpt lat="36.26903" lon="32.31738">
        <ele>19.676363</ele>
        <time>2022-02-25T07:59:12.893Z</time>
      </trkpt>
      <trkpt lat="36.26926" lon="32.31733">
        <ele>19.54869</ele>
        <time>2022-02-25T07:59:19.015Z</time>
      </trkpt>
      <trkpt lat="36.26963" lon="32.31733">
        <ele>19.464191</ele>
        <time>2022-02-25T07:59:29.079Z</time>
      </trkpt>
      <trkpt lat="36.26977" lon="32.3173">
        <ele>19.471997</ele>
        <time>2022-02-25T07:59:33.159Z</time>
      </trkpt>
      <trkpt lat="36.26998" lon="32.31721">
        <ele>19.48327</ele>
        <time>2022-02-25T07:59:39.141Z</time>
      </trkpt>
      <trkpt lat="36.27015" lon="32.31709">
        <ele>19.493938</ele>
        <time>2022-02-25T07:59:44.634Z</time>
      </trkpt>
      <trkpt lat="36.27039" lon="32.31705">
        <ele>19.506499</ele>
        <time>2022-02-25T07:59:51.127Z</time>
      </trkpt>
      <trkpt lat="36.27056" lon="32.31703">
        <ele>19.515712</ele>
        <time>2022-02-25T07:59:55.745Z</time>
      </trkpt>
      <trkpt lat="36.27091" lon="32.31703">
        <ele>19.534293</ele>
        <time>2022-02-25T08:00:05.149Z</time>
      </trkpt>
      <trkpt lat="36.27166" lon="32.31699">
        <ele>19.865449</ele>
        <time>2022-02-25T08:00:25.118Z</time>
      </trkpt>
      <trkpt lat="36.27172" lon="32.31685">
        <ele>19.954338</ele>
        <time>2022-02-25T08:00:28.871Z</time>
      </trkpt>
      <trkpt lat="36.27178" lon="32.31676">
        <ele>20.019746</ele>
        <time>2022-02-25T08:00:31.539Z</time>
      </trkpt>
      <trkpt lat="36.27181" lon="32.31671">
        <ele>20.052181</ele>
        <time>2022-02-25T08:00:32.866Z</time>
      </trkpt>
      <trkpt lat="36.27195" lon="32.31639">
        <ele>20.249538</ele>
        <time>2022-02-25T08:00:41.340Z</time>
      </trkpt>
      <trkpt lat="36.27204" lon="32.31618">
        <ele>20.376846</ele>
        <time>2022-02-25T08:00:46.971Z</time>
      </trkpt>
      <trkpt lat="36.27209" lon="32.31611">
        <ele>20.425392</ele>
        <time>2022-02-25T08:00:49.311Z</time>
      </trkpt>
      <trkpt lat="36.27218" lon="32.31597">
        <ele>20.527815</ele>
        <time>2022-02-25T08:00:54.070Z</time>
      </trkpt>
      <trkpt lat="36.27243" lon="32.31548">
        <ele>21.060335</ele>
        <time>2022-02-25T08:01:09.373Z</time>
      </trkpt>
      <trkpt lat="36.27251" lon="32.31531">
        <ele>21.45568</ele>
        <time>2022-02-25T08:01:15.078Z</time>
      </trkpt>
      <trkpt lat="36.27256" lon="32.31522">
        <ele>21.687456</ele>
        <time>2022-02-25T08:01:18.458Z</time>
      </trkpt>
      <trkpt lat="36.2729" lon="32.31458">
        <ele>23.231275</ele>
        <time>2022-02-25T08:01:42.428Z</time>
      </trkpt>
      <trkpt lat="36.27298" lon="32.3144">
        <ele>23.659438</ele>
        <time>2022-02-25T08:01:49.431Z</time>
      </trkpt>
      <trkpt lat="36.27322" lon="32.31386">
        <ele>24.90696</ele>
        <time>2022-02-25T08:02:09.973Z</time>
      </trkpt>
      <trkpt lat="36.27342" lon="32.31355">
        <ele>25.567769</ele>
        <time>2022-02-25T08:02:23.502Z</time>
      </trkpt>
      <trkpt lat="36.27357" lon="32.31332">
        <ele>25.969462</ele>
        <time>2022-02-25T08:02:33.225Z</time>
      </trkpt>
      <trkpt lat="36.27392" lon="32.3129">
        <ele>26.78346</ele>
        <time>2022-02-25T08:02:51.604Z</time>
      </trkpt>
      <trkpt lat="36.27407" lon="32.31276">
        <ele>27.105773</ele>
        <time>2022-02-25T08:02:58.403Z</time>
      </trkpt>
      <trkpt lat="36.27413" lon="32.31268">
        <ele>27.247904</ele>
        <time>2022-02-25T08:03:01.259Z</time>
      </trkpt>
      <trkpt lat="36.27442" lon="32.31229">
        <ele>27.955875</ele>
        <time>2022-02-25T08:03:14.584Z</time>
      </trkpt>
      <trkpt lat="36.27482" lon="32.31161">
        <ele>27.976364</ele>
        <time>2022-02-25T08:03:31.536Z</time>
      </trkpt>
      <trkpt lat="36.27534" lon="32.31074">
        <ele>27.395967</ele>
        <time>2022-02-25T08:03:52.265Z</time>
      </trkpt>
      <trkpt lat="36.27538" lon="32.31068">
        <ele>27.357412</ele>
        <time>2022-02-25T08:03:53.529Z</time>
      </trkpt>
      <trkpt lat="36.27569" lon="32.31014">
        <ele>26.930964</ele>
        <time>2022-02-25T08:04:05.959Z</time>
      </trkpt>
      <trkpt lat="36.27572" lon="32.31006">
        <ele>26.856271</ele>
        <time>2022-02-25T08:04:07.483Z</time>
      </trkpt>
      <trkpt lat="36.27621" lon="32.30965">
        <ele>26.190096</ele>
        <time>2022-02-25T08:04:21.224Z</time>
      </trkpt>
      <trkpt lat="36.27641" lon="32.30943">
        <ele>25.897053</ele>
        <time>2022-02-25T08:04:26.930Z</time>
      </trkpt>
      <trkpt lat="36.27647" lon="32.3094">
        <ele>25.825131</ele>
        <time>2022-02-25T08:04:28.386Z</time>
      </trkpt>
      <trkpt lat="36.27658" lon="32.30932">
        <ele>25.676534</ele>
        <time>2022-02-25T08:04:31.275Z</time>
      </trkpt>
      <trkpt lat="36.2769" lon="32.309">
        <ele>25.215639</ele>
        <time>2022-02-25T08:04:40.615Z</time>
      </trkpt>
      <trkpt lat="36.27713" lon="32.30878">
        <ele>24.900877</ele>
        <time>2022-02-25T08:04:47.593Z</time>
      </trkpt>
      <trkpt lat="36.27736" lon="32.30847">
        <ele>24.524084</ele>
        <time>2022-02-25T08:04:55.829Z</time>
      </trkpt>
      <trkpt lat="36.27751" lon="32.30824">
        <ele>24.265624</ele>
        <time>2022-02-25T08:05:01.096Z</time>
      </trkpt>
      <trkpt lat="36.27775" lon="32.30796">
        <ele>23.902553</ele>
        <time>2022-02-25T08:05:08.539Z</time>
      </trkpt>
      <trkpt lat="36.27845" lon="32.30728">
        <ele>23.078505</ele>
        <time>2022-02-25T08:05:28.586Z</time>
      </trkpt>
      <trkpt lat="36.27823" lon="32.3069">
        <ele>22.979506</ele>
        <time>2022-02-25T08:05:38.113Z</time>
      </trkpt>
      <trkpt lat="36.27813" lon="32.30667">
        <ele>22.923292</ele>
        <time>2022-02-25T08:05:43.955Z</time>
      </trkpt>
      <trkpt lat="36.2781" lon="32.30661">
        <ele>22.908897</ele>
        <time>2022-02-25T08:05:45.454Z</time>
      </trkpt>
      <trkpt lat="36.27781" lon="32.30608">
        <ele>22.774152</ele>
        <time>2022-02-25T08:06:01.029Z</time>
      </trkpt>
      <trkpt lat="36.27754" lon="32.30565">
        <ele>22.659643</ele>
        <time>2022-02-25T08:06:12.932Z</time>
      </trkpt>
      <trkpt lat="36.27818" lon="32.30497">
        <ele>22.583633</ele>
        <time>2022-02-25T08:06:35.096Z</time>
      </trkpt>
      <trkpt lat="36.27826" lon="32.30489">
        <ele>22.574515</ele>
        <time>2022-02-25T08:06:38.340Z</time>
      </trkpt>
      <trkpt lat="36.27978" lon="32.30329">
        <ele>22.616706</ele>
        <time>2022-02-25T08:07:33.518Z</time>
      </trkpt>
      <trkpt lat="36.28121" lon="32.30183">
        <ele>23.076271</ele>
        <time>2022-02-25T08:08:27.637Z</time>
      </trkpt>
      <trkpt lat="36.28239" lon="32.30056">
        <ele>24.158916</ele>
        <time>2022-02-25T08:09:14.377Z</time>
      </trkpt>
      <trkpt lat="36.28406" lon="32.29881">
        <ele>26.550058</ele>
        <time>2022-02-25T08:10:30.355Z</time>
      </trkpt>
      <trkpt lat="36.28473" lon="32.29807">
        <ele>26.855611</ele>
        <time>2022-02-25T08:10:58.276Z</time>
      </trkpt>
      <trkpt lat="36.28512" lon="32.29766">
        <ele>26.511549</ele>
        <time>2022-02-25T08:11:11.875Z</time>
      </trkpt>
      <trkpt lat="36.28563" lon="32.29714">
        <ele>26.07348</ele>
        <time>2022-02-25T08:11:27.501Z</time>
      </trkpt>
      <trkpt lat="36.28929" lon="32.29339">
        <ele>15.738752</ele>
        <time>2022-02-25T08:13:09.589Z</time>
      </trkpt>
      <trkpt lat="36.28929" lon="32.29312">
        <ele>15.336964</ele>
        <time>2022-02-25T08:13:14.721Z</time>
      </trkpt>
      <trkpt lat="36.28942" lon="32.29296">
        <ele>15.011429</ele>
        <time>2022-02-25T08:13:18.742Z</time>
      </trkpt>
      <trkpt lat="36.29026" lon="32.29208">
        <ele>13.557478</ele>
        <time>2022-02-25T08:13:43.815Z</time>
      </trkpt>
      <trkpt lat="36.29054" lon="32.29178">
        <ele>13.21081</ele>
        <time>2022-02-25T08:13:52.551Z</time>
      </trkpt>
      <trkpt lat="36.29102" lon="32.29124">
        <ele>12.596517</ele>
        <time>2022-02-25T08:14:07.874Z</time>
      </trkpt>
      <trkpt lat="36.29143" lon="32.29079">
        <ele>12.306004</ele>
        <time>2022-02-25T08:14:20.643Z</time>
      </trkpt>
      <trkpt lat="36.29197" lon="32.29015">
        <ele>12.014488</ele>
        <time>2022-02-25T08:14:38.595Z</time>
      </trkpt>
      <trkpt lat="36.29216" lon="32.28989">
        <ele>11.903148</ele>
        <time>2022-02-25T08:14:46.103Z</time>
      </trkpt>
      <trkpt lat="36.293" lon="32.28887">
        <ele>12.097385</ele>
        <time>2022-02-25T08:15:20.315Z</time>
      </trkpt>
      <trkpt lat="36.29322" lon="32.28887">
        <ele>12.188366</ele>
        <time>2022-02-25T08:15:26.888Z</time>
      </trkpt>
      <trkpt lat="36.29371" lon="32.28828">
        <ele>12.474087</ele>
        <time>2022-02-25T08:15:46.636Z</time>
      </trkpt>
      <trkpt lat="36.29404" lon="32.28805">
        <ele>12.347535</ele>
        <time>2022-02-25T08:15:56.717Z</time>
      </trkpt>
      <trkpt lat="36.29432" lon="32.28791">
        <ele>12.179922</ele>
        <time>2022-02-25T08:16:04.706Z</time>
      </trkpt>
      <trkpt lat="36.29461" lon="32.28782">
        <ele>12.013839</ele>
        <time>2022-02-25T08:16:12.381Z</time>
      </trkpt>
      <trkpt lat="36.29472" lon="32.28775">
        <ele>11.946416</ele>
        <time>2022-02-25T08:16:15.242Z</time>
      </trkpt>
      <trkpt lat="36.29484" lon="32.28762">
        <ele>11.859776</ele>
        <time>2022-02-25T08:16:18.988Z</time>
      </trkpt>
      <trkpt lat="36.29488" lon="32.28754">
        <ele>11.814931</ele>
        <time>2022-02-25T08:16:21.026Z</time>
      </trkpt>
      <trkpt lat="36.2949" lon="32.28741">
        <ele>11.759883</ele>
        <time>2022-02-25T08:16:23.272Z</time>
      </trkpt>
      <trkpt lat="36.29484" lon="32.28707">
        <ele>11.605155</ele>
        <time>2022-02-25T08:16:29.704Z</time>
      </trkpt>
      <trkpt lat="36.29478" lon="32.28671">
        <ele>11.344337</ele>
        <time>2022-02-25T08:16:36.443Z</time>
      </trkpt>
      <trkpt lat="36.29486" lon="32.28644">
        <ele>11.057487</ele>
        <time>2022-02-25T08:16:41.549Z</time>
      </trkpt>
      <trkpt lat="36.29584" lon="32.28453">
        <ele>8.981514</ele>
        <time>2022-02-25T08:17:22.655Z</time>
      </trkpt>
      <trkpt lat="36.29633" lon="32.28344">
        <ele>8.158555</ele>
        <time>2022-02-25T08:17:46.373Z</time>
      </trkpt>
      <trkpt lat="36.29686" lon="32.28205">
        <ele>7.650943</ele>
        <time>2022-02-25T08:18:17.222Z</time>
      </trkpt>
      <trkpt lat="36.29757" lon="32.27979">
        <ele>7.537449</ele>
        <time>2022-02-25T08:19:09.808Z</time>
      </trkpt>
      <trkpt lat="36.2979" lon="32.27858">
        <ele>7.677353</ele>
        <time>2022-02-25T08:19:37.788Z</time>
      </trkpt>
      <trkpt lat="36.29799" lon="32.27831">
        <ele>7.74951</ele>
        <time>2022-02-25T08:19:44.387Z</time>
      </trkpt>
      <trkpt lat="36.29815" lon="32.27778">
        <ele>7.890661</ele>
        <time>2022-02-25T08:19:57.337Z</time>
      </trkpt>
      <trkpt lat="36.29822" lon="32.27741">
        <ele>7.984109</ele>
        <time>2022-02-25T08:20:06.072Z</time>
      </trkpt>
      <trkpt lat="36.29907" lon="32.27484">
        <ele>8.801958</ele>
        <time>2022-02-25T08:21:10.561Z</time>
      </trkpt>
      <trkpt lat="36.29931" lon="32.27404">
        <ele>8.76406</ele>
        <time>2022-02-25T08:21:29.096Z</time>
      </trkpt>
      <trkpt lat="36.29966" lon="32.27275">
        <ele>8.587432</ele>
        <time>2022-02-25T08:21:56.940Z</time>
      </trkpt>
      <trkpt lat="36.29975" lon="32.27226">
        <ele>8.555852</ele>
        <time>2022-02-25T08:22:07.154Z</time>
      </trkpt>
      <trkpt lat="36.29996" lon="32.27114">
        <ele>8.528332</ele>
        <time>2022-02-25T08:22:31.428Z</time>
      </trkpt>
      <trkpt lat="36.30008" lon="32.2704">
        <ele>8.50997</ele>
        <time>2022-02-25T08:22:48.012Z</time>
      </trkpt>
      <trkpt lat="36.3001" lon="32.27029">
        <ele>8.533086</ele>
        <time>2022-02-25T08:22:50.621Z</time>
      </trkpt>
      <trkpt lat="36.30026" lon="32.2696">
        <ele>8.694134</ele>
        <time>2022-02-25T08:23:07.051Z</time>
      </trkpt>
      <trkpt lat="36.30041" lon="32.26918">
        <ele>8.795619</ele>
        <time>2022-02-25T08:23:17.668Z</time>
      </trkpt>
      <trkpt lat="36.30119" lon="32.26765">
        <ele>9.17164</ele>
        <time>2022-02-25T08:23:58.194Z</time>
      </trkpt>
      <trkpt lat="36.3015" lon="32.26682">
        <ele>9.346816</ele>
        <time>2022-02-25T08:24:17.870Z</time>
      </trkpt>
      <trkpt lat="36.30152" lon="32.26677">
        <ele>9.358651</ele>
        <time>2022-02-25T08:24:18.988Z</time>
      </trkpt>
      <trkpt lat="36.30224" lon="32.2644">
        <ele>10.724749</ele>
        <time>2022-02-25T08:25:20.621Z</time>
      </trkpt>
      <trkpt lat="36.30242" lon="32.26374">
        <ele>11.268464</ele>
        <time>2022-02-25T08:25:39.041Z</time>
      </trkpt>
      <trkpt lat="36.3029" lon="32.26222">
        <ele>12.57773</ele>
        <time>2022-02-25T08:26:20.370Z</time>
      </trkpt>
      <trkpt lat="36.30321" lon="32.26134">
        <ele>13.444247</ele>
        <time>2022-02-25T08:26:43.347Z</time>
      </trkpt>
      <trkpt lat="36.30349" lon="32.26075">
        <ele>14.060135</ele>
        <time>2022-02-25T08:27:00.812Z</time>
      </trkpt>
      <trkpt lat="36.30406" lon="32.25988">
        <ele>15.654053</ele>
        <time>2022-02-25T08:27:31.965Z</time>
      </trkpt>
      <trkpt lat="36.30594" lon="32.25788">
        <ele>22.484855</ele>
        <time>2022-02-25T08:29:11.696Z</time>
      </trkpt>
      <trkpt lat="36.30699" lon="32.25651">
        <ele>26.403324</ele>
        <time>2022-02-25T08:30:17.756Z</time>
      </trkpt>
      <trkpt lat="36.30795" lon="32.25578">
        <ele>27.99827</ele>
        <time>2022-02-25T08:30:57.583Z</time>
      </trkpt>
      <trkpt lat="36.30881" lon="32.25488">
        <ele>24.58012</ele>
        <time>2022-02-25T08:31:19.806Z</time>
      </trkpt>
      <trkpt lat="36.30911" lon="32.25442">
        <ele>23.143661</ele>
        <time>2022-02-25T08:31:28.219Z</time>
      </trkpt>
      <trkpt lat="36.30957" lon="32.25338">
        <ele>18.669084</ele>
        <time>2022-02-25T08:31:44.980Z</time>
      </trkpt>
      <trkpt lat="36.30971" lon="32.25289">
        <ele>16.626476</ele>
        <time>2022-02-25T08:31:52.591Z</time>
      </trkpt>
      <trkpt lat="36.30977" lon="32.25245">
        <ele>14.91074</ele>
        <time>2022-02-25T08:31:59.411Z</time>
      </trkpt>
      <trkpt lat="36.3097" lon="32.25201">
        <ele>14.751603</ele>
        <time>2022-02-25T08:32:06.832Z</time>
      </trkpt>
      <trkpt lat="36.3095" lon="32.2515">
        <ele>15.300419</ele>
        <time>2022-02-25T08:32:19.170Z</time>
      </trkpt>
      <trkpt lat="36.30916" lon="32.25098">
        <ele>15.932967</ele>
        <time>2022-02-25T08:32:38.952Z</time>
      </trkpt>
      <trkpt lat="36.30894" lon="32.25047">
        <ele>16.487977</ele>
        <time>2022-02-25T08:32:59.190Z</time>
      </trkpt>
      <trkpt lat="36.30885" lon="32.2501">
        <ele>17.761577</ele>
        <time>2022-02-25T08:33:13.742Z</time>
      </trkpt>
      <trkpt lat="36.30887" lon="32.24978">
        <ele>19.039759</ele>
        <time>2022-02-25T08:33:26.229Z</time>
      </trkpt>
      <trkpt lat="36.30912" lon="32.24928">
        <ele>21.447074</ele>
        <time>2022-02-25T08:33:50.786Z</time>
      </trkpt>
      <trkpt lat="36.30948" lon="32.249">
        <ele>23.564221</ele>
        <time>2022-02-25T08:34:13.417Z</time>
      </trkpt>
      <trkpt lat="36.30988" lon="32.24878">
        <ele>25.767024</ele>
        <time>2022-02-25T08:34:37.201Z</time>
      </trkpt>
      <trkpt lat="36.3102" lon="32.24851">
        <ele>27.923761</ele>
        <time>2022-02-25T08:34:57.955Z</time>
      </trkpt>
      <trkpt lat="36.31042" lon="32.2482">
        <ele>29.773946</ele>
        <time>2022-02-25T08:35:15.418Z</time>
      </trkpt>
      <trkpt lat="36.31073" lon="32.24738">
        <ele>33.831675</ele>
        <time>2022-02-25T08:35:53.822Z</time>
      </trkpt>
      <trkpt lat="36.31095" lon="32.24711">
        <ele>35.574514</ele>
        <time>2022-02-25T08:36:10.801Z</time>
      </trkpt>
      <trkpt lat="36.31155" lon="32.24688">
        <ele>38.545503</ele>
        <time>2022-02-25T08:36:45.637Z</time>
      </trkpt>
      <trkpt lat="36.3134" lon="32.24679">
        <ele>44.507612</ele>
        <time>2022-02-25T08:38:12.239Z</time>
      </trkpt>
      <trkpt lat="36.31387" lon="32.24683">
        <ele>44.765458</ele>
        <time>2022-02-25T08:38:24.874Z</time>
      </trkpt>
      <trkpt lat="36.31445" lon="32.24674">
        <ele>45.082974</ele>
        <time>2022-02-25T08:38:37.157Z</time>
      </trkpt>
      <trkpt lat="36.31474" lon="32.24659">
        <ele>44.076843</ele>
        <time>2022-02-25T08:38:43.222Z</time>
      </trkpt>
      <trkpt lat="36.31619" lon="32.24515">
        <ele>36.413226</ele>
        <time>2022-02-25T08:39:17.214Z</time>
      </trkpt>
      <trkpt lat="36.31681" lon="32.24427">
        <ele>33.10429</ele>
        <time>2022-02-25T08:39:35.539Z</time>
      </trkpt>
      <trkpt lat="36.31689" lon="32.24418">
        <ele>32.733235</ele>
        <time>2022-02-25T08:39:37.569Z</time>
      </trkpt>
      <trkpt lat="36.31782" lon="32.24313">
        <ele>28.002649</ele>
        <time>2022-02-25T08:40:02.568Z</time>
      </trkpt>
      <trkpt lat="36.31819" lon="32.2426">
        <ele>25.84126</ele>
        <time>2022-02-25T08:40:12.952Z</time>
      </trkpt>
      <trkpt lat="36.31889" lon="32.2411">
        <ele>20.179767</ele>
        <time>2022-02-25T08:40:38.477Z</time>
      </trkpt>
      <trkpt lat="36.31898" lon="32.24083">
        <ele>19.218838</ele>
        <time>2022-02-25T08:40:42.724Z</time>
      </trkpt>
      <trkpt lat="36.31904" lon="32.2404">
        <ele>17.755552</ele>
        <time>2022-02-25T08:40:49.341Z</time>
      </trkpt>
      <trkpt lat="36.3186" lon="32.23893">
        <ele>16.456573</ele>
        <time>2022-02-25T08:41:16.310Z</time>
      </trkpt>
      <trkpt lat="36.31862" lon="32.23857">
        <ele>16.367554</ele>
        <time>2022-02-25T08:41:25.264Z</time>
      </trkpt>
      <trkpt lat="36.3188" lon="32.23755">
        <ele>17.47889</ele>
        <time>2022-02-25T08:41:57.202Z</time>
      </trkpt>
      <trkpt lat="36.31901" lon="32.23676">
        <ele>19.833196</ele>
        <time>2022-02-25T08:42:28.322Z</time>
      </trkpt>
      <trkpt lat="36.31916" lon="32.23649">
        <ele>20.769202</ele>
        <time>2022-02-25T08:42:41.557Z</time>
      </trkpt>
      <trkpt lat="36.31936" lon="32.23634">
        <ele>21.576584</ele>
        <time>2022-02-25T08:42:51.334Z</time>
      </trkpt>
      <trkpt lat="36.31958" lon="32.23626">
        <ele>22.39961</ele>
        <time>2022-02-25T08:43:01.329Z</time>
      </trkpt>
      <trkpt lat="36.31985" lon="32.23627">
        <ele>23.098212</ele>
        <time>2022-02-25T08:43:14.426Z</time>
      </trkpt>
      <trkpt lat="36.31987" lon="32.23627">
        <ele>23.143984</ele>
        <time>2022-02-25T08:43:14.779Z</time>
      </trkpt>
      <trkpt lat="36.32007" lon="32.2363">
        <ele>23.632424</ele>
        <time>2022-02-25T08:43:23.641Z</time>
      </trkpt>
      <trkpt lat="36.32022" lon="32.23622">
        <ele>24.007307</ele>
        <time>2022-02-25T08:43:29.934Z</time>
      </trkpt>
      <trkpt lat="36.32036" lon="32.23601">
        <ele>24.541</ele>
        <time>2022-02-25T08:43:38.936Z</time>
      </trkpt>
      <trkpt lat="36.32037" lon="32.23581">
        <ele>24.935918</ele>
        <time>2022-02-25T08:43:44.875Z</time>
      </trkpt>
      <trkpt lat="36.32025" lon="32.23547">
        <ele>25.660127</ele>
        <time>2022-02-25T08:43:56.857Z</time>
      </trkpt>
      <trkpt lat="36.32022" lon="32.23515">
        <ele>26.287948</ele>
        <time>2022-02-25T08:44:05.794Z</time>
      </trkpt>
      <trkpt lat="36.32025" lon="32.23487">
        <ele>26.831037</ele>
        <time>2022-02-25T08:44:13.062Z</time>
      </trkpt>
      <trkpt lat="36.3204" lon="32.23466">
        <ele>26.633423</ele>
        <time>2022-02-25T08:44:20.098Z</time>
      </trkpt>
      <trkpt lat="36.32064" lon="32.23455">
        <ele>26.351484</ele>
        <time>2022-02-25T08:44:27.420Z</time>
      </trkpt>
      <trkpt lat="36.32141" lon="32.23454">
        <ele>25.490816</ele>
        <time>2022-02-25T08:44:44.516Z</time>
      </trkpt>
      <trkpt lat="36.32174" lon="32.23441">
        <ele>25.108096</ele>
        <time>2022-02-25T08:44:51.598Z</time>
      </trkpt>
      <trkpt lat="36.32193" lon="32.23425">
        <ele>24.830318</ele>
        <time>2022-02-25T08:44:56.417Z</time>
      </trkpt>
      <trkpt lat="36.32216" lon="32.2339">
        <ele>24.091075</ele>
        <time>2022-02-25T08:45:03.482Z</time>
      </trkpt>
      <trkpt lat="36.32235" lon="32.23347">
        <ele>23.26393</ele>
        <time>2022-02-25T08:45:11.205Z</time>
      </trkpt>
      <trkpt lat="36.32247" lon="32.23171">
        <ele>22.11505</ele>
        <time>2022-02-25T08:45:42.053Z</time>
      </trkpt>
      <trkpt lat="36.32261" lon="32.23123">
        <ele>23.120525</ele>
        <time>2022-02-25T08:45:57.293Z</time>
      </trkpt>
      <trkpt lat="36.32279" lon="32.23092">
        <ele>23.887953</ele>
        <time>2022-02-25T08:46:10.481Z</time>
      </trkpt>
      <trkpt lat="36.3231" lon="32.23069">
        <ele>24.76766</ele>
        <time>2022-02-25T08:46:27.227Z</time>
      </trkpt>
      <trkpt lat="36.32337" lon="32.23058">
        <ele>25.459441</ele>
        <time>2022-02-25T08:46:41.751Z</time>
      </trkpt>
      <trkpt lat="36.324" lon="32.23064">
        <ele>28.466606</ele>
        <time>2022-02-25T08:47:16.904Z</time>
      </trkpt>
      <trkpt lat="36.32428" lon="32.23058">
        <ele>29.853152</ele>
        <time>2022-02-25T08:47:32.240Z</time>
      </trkpt>
      <trkpt lat="36.32517" lon="32.23009">
        <ele>34.399806</ele>
        <time>2022-02-25T08:48:19.592Z</time>
      </trkpt>
      <trkpt lat="36.32557" lon="32.22999">
        <ele>34.931534</ele>
        <time>2022-02-25T08:48:37.492Z</time>
      </trkpt>
      <trkpt lat="36.32658" lon="32.22991">
        <ele>36.228118</ele>
        <time>2022-02-25T08:49:08.116Z</time>
      </trkpt>
      <trkpt lat="36.32682" lon="32.22978">
        <ele>36.556057</ele>
        <time>2022-02-25T08:49:14.482Z</time>
      </trkpt>
      <trkpt lat="36.32721" lon="32.22929">
        <ele>36.340454</ele>
        <time>2022-02-25T08:49:26.945Z</time>
      </trkpt>
      <trkpt lat="36.3276" lon="32.2287">
        <ele>35.951646</ele>
        <time>2022-02-25T08:49:40.826Z</time>
      </trkpt>
      <trkpt lat="36.32877" lon="32.22737">
        <ele>36.857683</ele>
        <time>2022-02-25T08:50:23.000Z</time>
      </trkpt>
      <trkpt lat="36.3307" lon="32.2254">
        <ele>43.095712</ele>
        <time>2022-02-25T08:52:06.034Z</time>
      </trkpt>
      <trkpt lat="36.33093" lon="32.22516">
        <ele>44.016987</ele>
        <time>2022-02-25T08:52:18.889Z</time>
      </trkpt>
      <trkpt lat="36.33135" lon="32.22476">
        <ele>45.691222</ele>
        <time>2022-02-25T08:52:41.059Z</time>
      </trkpt>
      <trkpt lat="36.33192" lon="32.22382">
        <ele>48.644392</ele>
        <time>2022-02-25T08:53:20.077Z</time>
      </trkpt>
      <trkpt lat="36.3323" lon="32.22337">
        <ele>50.323921</ele>
        <time>2022-02-25T08:53:41.453Z</time>
      </trkpt>
      <trkpt lat="36.33295" lon="32.22287">
        <ele>52.849639</ele>
        <time>2022-02-25T08:54:17.134Z</time>
      </trkpt>
      <trkpt lat="36.33351" lon="32.22216">
        <ele>55.27914</ele>
        <time>2022-02-25T08:54:50.186Z</time>
      </trkpt>
      <trkpt lat="36.33373" lon="32.22209">
        <ele>55.375331</ele>
        <time>2022-02-25T08:54:58.399Z</time>
      </trkpt>
      <trkpt lat="36.33388" lon="32.22205">
        <ele>55.438997</ele>
        <time>2022-02-25T08:55:03.821Z</time>
      </trkpt>
      <trkpt lat="36.33423" lon="32.22196">
        <ele>55.588738</ele>
        <time>2022-02-25T08:55:14.954Z</time>
      </trkpt>
      <trkpt lat="36.33458" lon="32.22168">
        <ele>55.764065</ele>
        <time>2022-02-25T08:55:26.353Z</time>
      </trkpt>
      <trkpt lat="36.33489" lon="32.22123">
        <ele>55.965519</ele>
        <time>2022-02-25T08:55:37.603Z</time>
      </trkpt>
      <trkpt lat="36.33515" lon="32.22068">
        <ele>55.545425</ele>
        <time>2022-02-25T08:55:48.463Z</time>
      </trkpt>
      <trkpt lat="36.33531" lon="32.21956">
        <ele>54.518024</ele>
        <time>2022-02-25T08:56:07.916Z</time>
      </trkpt>
      <trkpt lat="36.33546" lon="32.21913">
        <ele>54.091249</ele>
        <time>2022-02-25T08:56:17.753Z</time>
      </trkpt>
      <trkpt lat="36.33572" lon="32.2188">
        <ele>54.069088</ele>
        <time>2022-02-25T08:56:29.226Z</time>
      </trkpt>
      <trkpt lat="36.33611" lon="32.21836">
        <ele>54.229792</ele>
        <time>2022-02-25T08:56:45.989Z</time>
      </trkpt>
      <trkpt lat="36.33683" lon="32.21771">
        <ele>54.501083</ele>
        <time>2022-02-25T08:57:13.712Z</time>
      </trkpt>
      <trkpt lat="36.33783" lon="32.21731">
        <ele>51.547849</ele>
        <time>2022-02-25T08:57:35.707Z</time>
      </trkpt>
      <trkpt lat="36.3381" lon="32.21708">
        <ele>50.524187</ele>
        <time>2022-02-25T08:57:41.738Z</time>
      </trkpt>
      <trkpt lat="36.33847" lon="32.21661">
        <ele>48.889233</ele>
        <time>2022-02-25T08:57:51.141Z</time>
      </trkpt>
      <trkpt lat="36.33873" lon="32.21615">
        <ele>47.66485</ele>
        <time>2022-02-25T08:57:59.575Z</time>
      </trkpt>
      <trkpt lat="36.33884" lon="32.21581">
        <ele>46.874418</ele>
        <time>2022-02-25T08:58:05.124Z</time>
      </trkpt>
      <trkpt lat="36.33884" lon="32.21497">
        <ele>45.071241</ele>
        <time>2022-02-25T08:58:18.881Z</time>
      </trkpt>
      <trkpt lat="36.33899" lon="32.21465">
        <ele>44.276356</ele>
        <time>2022-02-25T08:58:26.452Z</time>
      </trkpt>
      <trkpt lat="36.33919" lon="32.21449">
        <ele>44.176554</ele>
        <time>2022-02-25T08:58:33.695Z</time>
      </trkpt>
      <trkpt lat="36.33942" lon="32.21443">
        <ele>44.275992</ele>
        <time>2022-02-25T08:58:41.273Z</time>
      </trkpt>
      <trkpt lat="36.34" lon="32.21445">
        <ele>44.516728</ele>
        <time>2022-02-25T08:59:00.643Z</time>
      </trkpt>
      <trkpt lat="36.34029" lon="32.21442">
        <ele>44.638616</ele>
        <time>2022-02-25T08:59:09.785Z</time>
      </trkpt>
      <trkpt lat="36.3406" lon="32.21432">
        <ele>44.770727</ele>
        <time>2022-02-25T08:59:18.756Z</time>
      </trkpt>
      <trkpt lat="36.341" lon="32.21407">
        <ele>44.483682</ele>
        <time>2022-02-25T08:59:29.684Z</time>
      </trkpt>
      <trkpt lat="36.34139" lon="32.21365">
        <ele>43.69395</ele>
        <time>2022-02-25T08:59:40.827Z</time>
      </trkpt>
      <trkpt lat="36.34247" lon="32.21215">
        <ele>42.210348</ele>
        <time>2022-02-25T09:00:15.176Z</time>
      </trkpt>
      <trkpt lat="36.34285" lon="32.21176">
        <ele>42.266255</ele>
        <time>2022-02-25T09:00:29.141Z</time>
      </trkpt>
      <trkpt lat="36.34314" lon="32.21162">
        <ele>42.301363</ele>
        <time>2022-02-25T09:00:39.202Z</time>
      </trkpt>
      <trkpt lat="36.3434" lon="32.21159">
        <ele>42.331468</ele>
        <time>2022-02-25T09:00:48.535Z</time>
      </trkpt>
      <trkpt lat="36.34428" lon="32.21181">
        <ele>42.555431</ele>
        <time>2022-02-25T09:01:21.496Z</time>
      </trkpt>
      <trkpt lat="36.34453" lon="32.21179">
        <ele>42.623631</ele>
        <time>2022-02-25T09:01:29.123Z</time>
      </trkpt>
      <trkpt lat="36.34479" lon="32.21167">
        <ele>42.6999</ele>
        <time>2022-02-25T09:01:36.225Z</time>
      </trkpt>
      <trkpt lat="36.34553" lon="32.21112">
        <ele>41.759172</ele>
        <time>2022-02-25T09:01:54.566Z</time>
      </trkpt>
      <trkpt lat="36.34619" lon="32.21091">
        <ele>39.587799</ele>
        <time>2022-02-25T09:02:07.984Z</time>
      </trkpt>
      <trkpt lat="36.34661" lon="32.21064">
        <ele>38.089429</ele>
        <time>2022-02-25T09:02:16.826Z</time>
      </trkpt>
      <trkpt lat="36.34726" lon="32.2098">
        <ele>35.28146</ele>
        <time>2022-02-25T09:02:34.520Z</time>
      </trkpt>
      <trkpt lat="36.34754" lon="32.2095">
        <ele>34.212108</ele>
        <time>2022-02-25T09:02:41.825Z</time>
      </trkpt>
      <trkpt lat="36.34793" lon="32.20922">
        <ele>32.887043</ele>
        <time>2022-02-25T09:02:51.155Z</time>
      </trkpt>
      <trkpt lat="36.34983" lon="32.20813">
        <ele>29.001682</ele>
        <time>2022-02-25T09:03:36.512Z</time>
      </trkpt>
      <trkpt lat="36.35087" lon="32.20762">
        <ele>27.975218</ele>
        <time>2022-02-25T09:04:01.761Z</time>
      </trkpt>
      <trkpt lat="36.35157" lon="32.20727">
        <ele>27.355828</ele>
        <time>2022-02-25T09:04:20.225Z</time>
      </trkpt>
      <trkpt lat="36.35224" lon="32.20691">
        <ele>28.06391</ele>
        <time>2022-02-25T09:04:40.889Z</time>
      </trkpt>
      <trkpt lat="36.35383" lon="32.20605">
        <ele>30.138534</ele>
        <time>2022-02-25T09:05:40.552Z</time>
      </trkpt>
      <trkpt lat="36.35719" lon="32.20403">
        <ele>34.163052</ele>
        <time>2022-02-25T09:07:46.872Z</time>
      </trkpt>
      <trkpt lat="36.35836" lon="32.20331">
        <ele>32.604534</ele>
        <time>2022-02-25T09:08:14.936Z</time>
      </trkpt>
      <trkpt lat="36.35865" lon="32.20313">
        <ele>31.437375</ele>
        <time>2022-02-25T09:08:21.189Z</time>
      </trkpt>
      <trkpt lat="36.36033" lon="32.20215">
        <ele>26.25166</ele>
        <time>2022-02-25T09:08:55.904Z</time>
      </trkpt>
      <trkpt lat="36.36465" lon="32.19956">
        <ele>19.800952</ele>
        <time>2022-02-25T09:10:46.959Z</time>
      </trkpt>
      <trkpt lat="36.3656" lon="32.19881">
        <ele>19.070009</ele>
        <time>2022-02-25T09:11:14.561Z</time>
      </trkpt>
      <trkpt lat="36.36771" lon="32.19677">
        <ele>17.534883</ele>
        <time>2022-02-25T09:12:19.943Z</time>
      </trkpt>
      <trkpt lat="36.36878" lon="32.19601">
        <ele>16.712467</ele>
        <time>2022-02-25T09:12:49.425Z</time>
      </trkpt>
      <trkpt lat="36.36962" lon="32.19563">
        <ele>16.271641</ele>
        <time>2022-02-25T09:13:11.298Z</time>
      </trkpt>
      <trkpt lat="36.3702" lon="32.19544">
        <ele>16.016961</ele>
        <time>2022-02-25T09:13:26.347Z</time>
      </trkpt>
      <trkpt lat="36.37121" lon="32.19525">
        <ele>15.60379</ele>
        <time>2022-02-25T09:13:52.534Z</time>
      </trkpt>
      <trkpt lat="36.37427" lon="32.19492">
        <ele>13.880051</ele>
        <time>2022-02-25T09:15:08.506Z</time>
      </trkpt>
      <trkpt lat="36.37478" lon="32.19482">
        <ele>12.639245</ele>
        <time>2022-02-25T09:15:19.518Z</time>
      </trkpt>
      <trkpt lat="36.375" lon="32.19481">
        <ele>12.076352</ele>
        <time>2022-02-25T09:15:23.965Z</time>
      </trkpt>
      <trkpt lat="36.37523" lon="32.19479">
        <ele>11.491721</ele>
        <time>2022-02-25T09:15:28.613Z</time>
      </trkpt>
      <trkpt lat="36.37553" lon="32.19477">
        <ele>10.707874</ele>
        <time>2022-02-25T09:15:34.695Z</time>
      </trkpt>
      <trkpt lat="36.37582" lon="32.19474">
        <ele>9.960207</ele>
        <time>2022-02-25T09:15:40.331Z</time>
      </trkpt>
      <trkpt lat="36.37723" lon="32.19457">
        <ele>5.926663</ele>
        <time>2022-02-25T09:16:07.397Z</time>
      </trkpt>
      <trkpt lat="36.37765" lon="32.1945">
        <ele>4.662545</ele>
        <time>2022-02-25T09:16:16.285Z</time>
      </trkpt>
      <trkpt lat="36.37803" lon="32.19447">
        <ele>3.882924</ele>
        <time>2022-02-25T09:16:24.378Z</time>
      </trkpt>
      <trkpt lat="36.37878" lon="32.19438">
        <ele>3.5226</ele>
        <time>2022-02-25T09:16:42.129Z</time>
      </trkpt>
      <trkpt lat="36.37954" lon="32.19425">
        <ele>3.160271</ele>
        <time>2022-02-25T09:17:02.991Z</time>
      </trkpt>
      <trkpt lat="36.37965" lon="32.19419">
        <ele>3.101259</ele>
        <time>2022-02-25T09:17:06.885Z</time>
      </trkpt>
      <trkpt lat="36.38037" lon="32.19403">
        <ele>3.460854</ele>
        <time>2022-02-25T09:17:27.816Z</time>
      </trkpt>
      <trkpt lat="36.38112" lon="32.19379">
        <ele>3.873044</ele>
        <time>2022-02-25T09:17:50.145Z</time>
      </trkpt>
      <trkpt lat="36.38202" lon="32.19344">
        <ele>5.028256</ele>
        <time>2022-02-25T09:18:19.288Z</time>
      </trkpt>
      <trkpt lat="36.38271" lon="32.1931">
        <ele>6.197042</ele>
        <time>2022-02-25T09:18:47.188Z</time>
      </trkpt>
      <trkpt lat="36.38287" lon="32.19311">
        <ele>6.447921</ele>
        <time>2022-02-25T09:18:53.352Z</time>
      </trkpt>
      <trkpt lat="36.38302" lon="32.19312">
        <ele>6.676225</ele>
        <time>2022-02-25T09:18:57.962Z</time>
      </trkpt>
      <trkpt lat="36.38316" lon="32.19326">
        <ele>6.944989</ele>
        <time>2022-02-25T09:19:04.500Z</time>
      </trkpt>
      <trkpt lat="36.38333" lon="32.19343">
        <ele>7.208118</ele>
        <time>2022-02-25T09:19:11.443Z</time>
      </trkpt>
      <trkpt lat="36.38353" lon="32.19357">
        <ele>7.480794</ele>
        <time>2022-02-25T09:19:19.487Z</time>
      </trkpt>
      <trkpt lat="36.38354" lon="32.19364">
        <ele>7.552144</ele>
        <time>2022-02-25T09:19:21.340Z</time>
      </trkpt>
      <trkpt lat="36.38357" lon="32.1937">
        <ele>7.62321</ele>
        <time>2022-02-25T09:19:23.103Z</time>
      </trkpt>
      <trkpt lat="36.38362" lon="32.19374">
        <ele>7.694201</ele>
        <time>2022-02-25T09:19:25.403Z</time>
      </trkpt>
      <trkpt lat="36.38367" lon="32.19377">
        <ele>7.764879</ele>
        <time>2022-02-25T09:19:27.548Z</time>
      </trkpt>
      <trkpt lat="36.38373" lon="32.19377">
        <ele>7.836419</ele>
        <time>2022-02-25T09:19:29.327Z</time>
      </trkpt>
      <trkpt lat="36.38379" lon="32.19375">
        <ele>7.90793</ele>
        <time>2022-02-25T09:19:31.373Z</time>
      </trkpt>
      <trkpt lat="36.38383" lon="32.1937">
        <ele>7.978321</ele>
        <time>2022-02-25T09:19:33.381Z</time>
      </trkpt>
      <trkpt lat="36.38388" lon="32.19357">
        <ele>8.119696</ele>
        <time>2022-02-25T09:19:37.284Z</time>
      </trkpt>
      <trkpt lat="36.38388" lon="32.1935">
        <ele>8.191115</ele>
        <time>2022-02-25T09:19:39.348Z</time>
      </trkpt>
      <trkpt lat="36.38397" lon="32.1932">
        <ele>8.505314</ele>
        <time>2022-02-25T09:19:47.395Z</time>
      </trkpt>
      <trkpt lat="36.38405" lon="32.19295">
        <ele>8.767977</ele>
        <time>2022-02-25T09:19:54.370Z</time>
      </trkpt>
      <trkpt lat="36.38422" lon="32.19255">
        <ele>9.026739</ele>
        <time>2022-02-25T09:20:04.838Z</time>
      </trkpt>
      <trkpt lat="36.38443" lon="32.19218">
        <ele>8.941252</ele>
        <time>2022-02-25T09:20:14.524Z</time>
      </trkpt>
      <trkpt lat="36.38445" lon="32.19215">
        <ele>8.933169</ele>
        <time>2022-02-25T09:20:15.513Z</time>
      </trkpt>
      <trkpt lat="36.38452" lon="32.19206">
        <ele>8.911079</ele>
        <time>2022-02-25T09:20:17.762Z</time>
      </trkpt>
      <trkpt lat="36.3952" lon="32.18162">
        <ele>5.698901</ele>
        <time>2022-02-25T09:26:04.787Z</time>
      </trkpt>
      <trkpt lat="36.39674" lon="32.18021">
        <ele>5.403904</ele>
        <time>2022-02-25T09:26:53.757Z</time>
      </trkpt>
      <trkpt lat="36.39871" lon="32.17825">
        <ele>7.021341</ele>
        <time>2022-02-25T09:28:08.185Z</time>
      </trkpt>
      <trkpt lat="36.40025" lon="32.17703">
        <ele>9.273327</ele>
        <time>2022-02-25T09:29:10.227Z</time>
      </trkpt>
      <trkpt lat="36.40051" lon="32.17684">
        <ele>9.681735</ele>
        <time>2022-02-25T09:29:20.803Z</time>
      </trkpt>
      <trkpt lat="36.40078" lon="32.17666">
        <ele>10.091178</ele>
        <time>2022-02-25T09:29:31.354Z</time>
      </trkpt>
      <trkpt lat="36.40246" lon="32.17575">
        <ele>11.19074</ele>
        <time>2022-02-25T09:30:26.227Z</time>
      </trkpt>
      <trkpt lat="36.40252" lon="32.17572">
        <ele>11.211525</ele>
        <time>2022-02-25T09:30:28.038Z</time>
      </trkpt>
      <trkpt lat="36.40274" lon="32.17561">
        <ele>11.284749</ele>
        <time>2022-02-25T09:30:33.740Z</time>
      </trkpt>
      <trkpt lat="36.41059" lon="32.17196">
        <ele>6.226114</ele>
        <time>2022-02-25T09:33:56.770Z</time>
      </trkpt>
      <trkpt lat="36.41068" lon="32.17192">
        <ele>6.155675</ele>
        <time>2022-02-25T09:33:59.236Z</time>
      </trkpt>
      <trkpt lat="36.41102" lon="32.17175">
        <ele>5.90254</ele>
        <time>2022-02-25T09:34:07.843Z</time>
      </trkpt>
      <trkpt lat="36.41138" lon="32.1716">
        <ele>5.640854</ele>
        <time>2022-02-25T09:34:16.735Z</time>
      </trkpt>
      <trkpt lat="36.41179" lon="32.17141">
        <ele>5.313433</ele>
        <time>2022-02-25T09:34:27.443Z</time>
      </trkpt>
      <trkpt lat="36.412" lon="32.17128">
        <ele>5.143209</ele>
        <time>2022-02-25T09:34:32.999Z</time>
      </trkpt>
      <trkpt lat="36.41221" lon="32.17118">
        <ele>4.975022</ele>
        <time>2022-02-25T09:34:38.541Z</time>
      </trkpt>
      <trkpt lat="36.41236" lon="32.17108">
        <ele>4.844873</ele>
        <time>2022-02-25T09:34:42.765Z</time>
      </trkpt>
      <trkpt lat="36.41241" lon="32.17107">
        <ele>4.811178</ele>
        <time>2022-02-25T09:34:43.908Z</time>
      </trkpt>
      <trkpt lat="36.41246" lon="32.17106">
        <ele>4.768614</ele>
        <time>2022-02-25T09:34:45.340Z</time>
      </trkpt>
      <trkpt lat="36.41251" lon="32.17102">
        <ele>4.726012</ele>
        <time>2022-02-25T09:34:46.710Z</time>
      </trkpt>
      <trkpt lat="36.41255" lon="32.17096">
        <ele>4.681292</ele>
        <time>2022-02-25T09:34:48.094Z</time>
      </trkpt>
      <trkpt lat="36.41272" lon="32.17087">
        <ele>4.541002</ele>
        <time>2022-02-25T09:34:52.556Z</time>
      </trkpt>
      <trkpt lat="36.41293" lon="32.17074">
        <ele>4.366282</ele>
        <time>2022-02-25T09:34:57.909Z</time>
      </trkpt>
      <trkpt lat="36.41368" lon="32.1701">
        <ele>3.626075</ele>
        <time>2022-02-25T09:35:18.918Z</time>
      </trkpt>
      <trkpt lat="36.41423" lon="32.16954">
        <ele>3.036546</ele>
        <time>2022-02-25T09:35:36.162Z</time>
      </trkpt>
      <trkpt lat="36.41514" lon="32.16857">
        <ele>2.49049</ele>
        <time>2022-02-25T09:36:05.095Z</time>
      </trkpt>
      <trkpt lat="36.41607" lon="32.16764">
        <ele>2.121017</ele>
        <time>2022-02-25T09:36:36.570Z</time>
      </trkpt>
      <trkpt lat="36.42145" lon="32.16235">
        <ele>1.103972</ele>
        <time>2022-02-25T09:39:33.836Z</time>
      </trkpt>
      <trkpt lat="36.42566" lon="32.15813">
        <ele>4.279643</ele>
        <time>2022-02-25T09:42:14.842Z</time>
      </trkpt>
      <trkpt lat="36.4271" lon="32.15674">
        <ele>5.277596</ele>
        <time>2022-02-25T09:43:08.076Z</time>
      </trkpt>
      <trkpt lat="36.42856" lon="32.15521">
        <ele>6.09495</ele>
        <time>2022-02-25T09:44:03.231Z</time>
      </trkpt>
      <trkpt lat="36.42897" lon="32.15467">
        <ele>6.187871</ele>
        <time>2022-02-25T09:44:19.996Z</time>
      </trkpt>
      <trkpt lat="36.42944" lon="32.15395">
        <ele>6.304935</ele>
        <time>2022-02-25T09:44:40.537Z</time>
      </trkpt>
      <trkpt lat="36.42966" lon="32.15365">
        <ele>6.330401</ele>
        <time>2022-02-25T09:44:49.254Z</time>
      </trkpt>
      <trkpt lat="36.4305" lon="32.15229">
        <ele>6.10014</ele>
        <time>2022-02-25T09:45:24.705Z</time>
      </trkpt>
      <trkpt lat="36.43111" lon="32.15112">
        <ele>5.956238</ele>
        <time>2022-02-25T09:45:53.428Z</time>
      </trkpt>
      <trkpt lat="36.4319" lon="32.14927">
        <ele>5.907358</ele>
        <time>2022-02-25T09:46:38.068Z</time>
      </trkpt>
      <trkpt lat="36.43263" lon="32.14683">
        <ele>6.154095</ele>
        <time>2022-02-25T09:47:36.060Z</time>
      </trkpt>
      <trkpt lat="36.43284" lon="32.14627">
        <ele>6.224135</ele>
        <time>2022-02-25T09:47:49.370Z</time>
      </trkpt>
      <trkpt lat="36.4333" lon="32.14541">
        <ele>6.416268</ele>
        <time>2022-02-25T09:48:11.639Z</time>
      </trkpt>
      <trkpt lat="36.43366" lon="32.14495">
        <ele>6.5661</ele>
        <time>2022-02-25T09:48:25.096Z</time>
      </trkpt>
      <trkpt lat="36.43501" lon="32.14334">
        <ele>8.70886</ele>
        <time>2022-02-25T09:49:21.607Z</time>
      </trkpt>
      <trkpt lat="36.43505" lon="32.1433">
        <ele>8.793264</ele>
        <time>2022-02-25T09:49:23.100Z</time>
      </trkpt>
      <trkpt lat="36.43506" lon="32.14329">
        <ele>8.831996</ele>
        <time>2022-02-25T09:49:23.784Z</time>
      </trkpt>
      <trkpt lat="36.43511" lon="32.14339">
        <ele>8.993153</ele>
        <time>2022-02-25T09:49:27.319Z</time>
      </trkpt>
      <trkpt lat="36.4357" lon="32.14266">
        <ele>11.40237</ele>
        <time>2022-02-25T09:50:02.795Z</time>
      </trkpt>
      <trkpt lat="36.43575" lon="32.14267">
        <ele>11.680095</ele>
        <time>2022-02-25T09:50:07.435Z</time>
      </trkpt>
      <trkpt lat="36.43599" lon="32.14268">
        <ele>12.913567</ele>
        <time>2022-02-25T09:50:19.271Z</time>
      </trkpt>
      <trkpt lat="36.43677" lon="32.14247">
        <ele>17.096102</ele>
        <time>2022-02-25T09:51:03.803Z</time>
      </trkpt>
      <trkpt lat="36.4371" lon="32.14251">
        <ele>18.803295</ele>
        <time>2022-02-25T09:51:21.800Z</time>
      </trkpt>
      <trkpt lat="36.43731" lon="32.14255">
        <ele>19.807464</ele>
        <time>2022-02-25T09:51:35.465Z</time>
      </trkpt>
      <trkpt lat="36.43752" lon="32.14258">
        <ele>20.759691</ele>
        <time>2022-02-25T09:51:45.974Z</time>
      </trkpt>
      <trkpt lat="36.43799" lon="32.14269">
        <ele>22.901162</ele>
        <time>2022-02-25T09:52:10.856Z</time>
      </trkpt>
      <trkpt lat="36.43808" lon="32.14196">
        <ele>25.552817</ele>
        <time>2022-02-25T09:52:39.568Z</time>
      </trkpt>
      <trkpt lat="36.43834" lon="32.1413">
        <ele>27.882916</ele>
        <time>2022-02-25T09:53:05.562Z</time>
      </trkpt>
      <trkpt lat="36.44049" lon="32.1382">
        <ele>35.790508</ele>
        <time>2022-02-25T09:55:15.588Z</time>
      </trkpt>
      <trkpt lat="36.44089" lon="32.1377">
        <ele>35.849651</ele>
        <time>2022-02-25T09:55:33.753Z</time>
      </trkpt>
      <trkpt lat="36.44113" lon="32.13731">
        <ele>35.644614</ele>
        <time>2022-02-25T09:55:44.869Z</time>
      </trkpt>
      <trkpt lat="36.44166" lon="32.13629">
        <ele>35.134117</ele>
        <time>2022-02-25T09:56:07.111Z</time>
      </trkpt>
      <trkpt lat="36.44225" lon="32.13534">
        <ele>34.118723</ele>
        <time>2022-02-25T09:56:28.514Z</time>
      </trkpt>
      <trkpt lat="36.44235" lon="32.1352">
        <ele>33.958749</ele>
        <time>2022-02-25T09:56:31.797Z</time>
      </trkpt>
      <trkpt lat="36.44245" lon="32.13504">
        <ele>33.785184</ele>
        <time>2022-02-25T09:56:36.107Z</time>
      </trkpt>
      <trkpt lat="36.44261" lon="32.13488">
        <ele>33.56581</ele>
        <time>2022-02-25T09:56:41.069Z</time>
      </trkpt>
      <trkpt lat="36.44293" lon="32.13447">
        <ele>33.765403</ele>
        <time>2022-02-25T09:56:54.938Z</time>
      </trkpt>
      <trkpt lat="36.44308" lon="32.13439">
        <ele>34.306066</ele>
        <time>2022-02-25T09:57:00.577Z</time>
      </trkpt>
      <trkpt lat="36.44399" lon="32.13414">
        <ele>37.360927</ele>
        <time>2022-02-25T09:57:41.167Z</time>
      </trkpt>
      <trkpt lat="36.44413" lon="32.13399">
        <ele>37.959076</ele>
        <time>2022-02-25T09:57:50.408Z</time>
      </trkpt>
      <trkpt lat="36.44426" lon="32.13374">
        <ele>38.739268</ele>
        <time>2022-02-25T09:58:03.194Z</time>
      </trkpt>
      <trkpt lat="36.44444" lon="32.13327">
        <ele>41.268894</ele>
        <time>2022-02-25T09:58:25.096Z</time>
      </trkpt>
      <trkpt lat="36.44454" lon="32.13313">
        <ele>42.391902</ele>
        <time>2022-02-25T09:58:33.463Z</time>
      </trkpt>
      <trkpt lat="36.44534" lon="32.13267">
        <ele>48.732637</ele>
        <time>2022-02-25T09:59:31.090Z</time>
      </trkpt>
      <trkpt lat="36.44553" lon="32.13266">
        <ele>50.076217</ele>
        <time>2022-02-25T09:59:43.910Z</time>
      </trkpt>
      <trkpt lat="36.4457" lon="32.13274">
        <ele>51.398465</ele>
        <time>2022-02-25T09:59:56.654Z</time>
      </trkpt>
      <trkpt lat="36.44584" lon="32.13289">
        <ele>52.761638</ele>
        <time>2022-02-25T10:00:09.284Z</time>
      </trkpt>
      <trkpt lat="36.44599" lon="32.13289">
        <ele>53.816777</ele>
        <time>2022-02-25T10:00:19.486Z</time>
      </trkpt>
      <trkpt lat="36.44622" lon="32.13281">
        <ele>55.495917</ele>
        <time>2022-02-25T10:00:34.546Z</time>
      </trkpt>
      <trkpt lat="36.44635" lon="32.13283">
        <ele>56.426105</ele>
        <time>2022-02-25T10:00:43.678Z</time>
      </trkpt>
      <trkpt lat="36.44653" lon="32.1329">
        <ele>57.795049</ele>
        <time>2022-02-25T10:00:56.151Z</time>
      </trkpt>
      <trkpt lat="36.44679" lon="32.13305">
        <ele>59.892212</ele>
        <time>2022-02-25T10:01:14.970Z</time>
      </trkpt>
      <trkpt lat="36.44762" lon="32.13313">
        <ele>65.333916</ele>
        <time>2022-02-25T10:02:03.973Z</time>
      </trkpt>
      <trkpt lat="36.4481" lon="32.13327">
        <ele>66.717559</ele>
        <time>2022-02-25T10:02:28.282Z</time>
      </trkpt>
      <trkpt lat="36.44825" lon="32.13321">
        <ele>67.153594</ele>
        <time>2022-02-25T10:02:33.824Z</time>
      </trkpt>
      <trkpt lat="36.44835" lon="32.13279">
        <ele>68.135491</ele>
        <time>2022-02-25T10:02:45.055Z</time>
      </trkpt>
      <trkpt lat="36.44859" lon="32.13251">
        <ele>69.036469</ele>
        <time>2022-02-25T10:02:54.801Z</time>
      </trkpt>
      <trkpt lat="36.44889" lon="32.13228">
        <ele>70.019877</ele>
        <time>2022-02-25T10:03:08.542Z</time>
      </trkpt>
      <trkpt lat="36.44932" lon="32.13176">
        <ele>70.765213</ele>
        <time>2022-02-25T10:03:31.845Z</time>
      </trkpt>
      <trkpt lat="36.44944" lon="32.13149">
        <ele>71.069358</ele>
        <time>2022-02-25T10:03:40.708Z</time>
      </trkpt>
      <trkpt lat="36.44948" lon="32.13127">
        <ele>71.289912</ele>
        <time>2022-02-25T10:03:47.025Z</time>
      </trkpt>
      <trkpt lat="36.44951" lon="32.13116">
        <ele>71.404334</ele>
        <time>2022-02-25T10:03:49.909Z</time>
      </trkpt>
      <trkpt lat="36.44961" lon="32.13109">
        <ele>71.542596</ele>
        <time>2022-02-25T10:03:54.291Z</time>
      </trkpt>
      <trkpt lat="36.4498" lon="32.13107">
        <ele>71.778089</ele>
        <time>2022-02-25T10:04:00.757Z</time>
      </trkpt>
      <trkpt lat="36.45007" lon="32.13099">
        <ele>72.11311</ele>
        <time>2022-02-25T10:04:10.157Z</time>
      </trkpt>
      <trkpt lat="36.45034" lon="32.1309">
        <ele>71.476382</ele>
        <time>2022-02-25T10:04:18.948Z</time>
      </trkpt>
      <trkpt lat="36.4516" lon="32.13032">
        <ele>66.128509</ele>
        <time>2022-02-25T10:04:46.224Z</time>
      </trkpt>
      <trkpt lat="36.45181" lon="32.13023">
        <ele>65.240482</ele>
        <time>2022-02-25T10:04:50.045Z</time>
      </trkpt>
      <trkpt lat="36.4522" lon="32.13006">
        <ele>61.154758</ele>
        <time>2022-02-25T10:04:57.049Z</time>
      </trkpt>
      <trkpt lat="36.4527" lon="32.12976">
        <ele>55.10604</ele>
        <time>2022-02-25T10:05:06.636Z</time>
      </trkpt>
      <trkpt lat="36.45286" lon="32.12953">
        <ele>52.534567</ele>
        <time>2022-02-25T10:05:10.687Z</time>
      </trkpt>
      <trkpt lat="36.45298" lon="32.12916">
        <ele>49.11653</ele>
        <time>2022-02-25T10:05:15.992Z</time>
      </trkpt>
      <trkpt lat="36.45303" lon="32.12885">
        <ele>46.389458</ele>
        <time>2022-02-25T10:05:20.207Z</time>
      </trkpt>
      <trkpt lat="36.45304" lon="32.12805">
        <ele>40.036771</ele>
        <time>2022-02-25T10:05:31.077Z</time>
      </trkpt>
      <trkpt lat="36.45306" lon="32.12738">
        <ele>34.740598</ele>
        <time>2022-02-25T10:05:40.299Z</time>
      </trkpt>
      <trkpt lat="36.45307" lon="32.12721">
        <ele>33.438322</ele>
        <time>2022-02-25T10:05:42.545Z</time>
      </trkpt>
      <trkpt lat="36.45311" lon="32.12546">
        <ele>23.251394</ele>
        <time>2022-02-25T10:06:07.687Z</time>
      </trkpt>
      <trkpt lat="36.4531" lon="32.1248">
        <ele>20.281333</ele>
        <time>2022-02-25T10:06:17.867Z</time>
      </trkpt>
      <trkpt lat="36.454" lon="32.12472">
        <ele>17.060686</ele>
        <time>2022-02-25T10:06:35.618Z</time>
      </trkpt>
      <trkpt lat="36.45557" lon="32.12453">
        <ele>14.038443</ele>
        <time>2022-02-25T10:07:12.613Z</time>
      </trkpt>
      <trkpt lat="36.45581" lon="32.12447">
        <ele>13.610443</ele>
        <time>2022-02-25T10:07:18.172Z</time>
      </trkpt>
      <trkpt lat="36.457" lon="32.12419">
        <ele>11.501175</ele>
        <time>2022-02-25T10:07:45.284Z</time>
      </trkpt>
      <trkpt lat="36.45745" lon="32.12407">
        <ele>10.533978</ele>
        <time>2022-02-25T10:07:55.354Z</time>
      </trkpt>
      <trkpt lat="36.45752" lon="32.12408">
        <ele>10.385745</ele>
        <time>2022-02-25T10:07:56.927Z</time>
      </trkpt>
      <trkpt lat="36.45758" lon="32.12413">
        <ele>10.229188</ele>
        <time>2022-02-25T10:07:58.490Z</time>
      </trkpt>
      <trkpt lat="36.45768" lon="32.1242">
        <ele>9.98465</ele>
        <time>2022-02-25T10:08:00.903Z</time>
      </trkpt>
      <trkpt lat="36.45785" lon="32.12427">
        <ele>9.612223</ele>
        <time>2022-02-25T10:08:04.554Z</time>
      </trkpt>
      <trkpt lat="36.45798" lon="32.12426">
        <ele>9.321696</ele>
        <time>2022-02-25T10:08:07.343Z</time>
      </trkpt>
      <trkpt lat="36.45815" lon="32.1242">
        <ele>8.952366</ele>
        <time>2022-02-25T10:08:10.955Z</time>
      </trkpt>
      <trkpt lat="36.45835" lon="32.12426">
        <ele>8.522244</ele>
        <time>2022-02-25T10:08:15.071Z</time>
      </trkpt>
      <trkpt lat="36.45965" lon="32.12427">
        <ele>6.077943</ele>
        <time>2022-02-25T10:08:42.588Z</time>
      </trkpt>
      <trkpt lat="36.45987" lon="32.12422">
        <ele>5.694888</ele>
        <time>2022-02-25T10:08:47.225Z</time>
      </trkpt>
      <trkpt lat="36.45996" lon="32.12407">
        <ele>5.418261</ele>
        <time>2022-02-25T10:08:50.828Z</time>
      </trkpt>
      <trkpt lat="36.46012" lon="32.1239">
        <ele>5.058281</ele>
        <time>2022-02-25T10:08:55.302Z</time>
      </trkpt>
      <trkpt lat="36.46029" lon="32.12378">
        <ele>4.730018</ele>
        <time>2022-02-25T10:08:59.504Z</time>
      </trkpt>
      <trkpt lat="36.46134" lon="32.12306">
        <ele>3.261185</ele>
        <time>2022-02-25T10:09:26.536Z</time>
      </trkpt>
      <trkpt lat="36.46172" lon="32.12277">
        <ele>2.756601</ele>
        <time>2022-02-25T10:09:36.781Z</time>
      </trkpt>
      <trkpt lat="36.46205" lon="32.12249">
        <ele>2.365839</ele>
        <time>2022-02-25T10:09:46.263Z</time>
      </trkpt>
      <trkpt lat="36.46257" lon="32.12208">
        <ele>2.180219</ele>
        <time>2022-02-25T10:10:01.129Z</time>
      </trkpt>
      <trkpt lat="36.46269" lon="32.12207">
        <ele>2.143722</ele>
        <time>2022-02-25T10:10:04.146Z</time>
      </trkpt>
      <trkpt lat="36.46398" lon="32.12106">
        <ele>1.925565</ele>
        <time>2022-02-25T10:10:44.381Z</time>
      </trkpt>
      <trkpt lat="36.46459" lon="32.12057">
        <ele>2.038951</ele>
        <time>2022-02-25T10:11:04.532Z</time>
      </trkpt>
      <trkpt lat="36.46464" lon="32.12053">
        <ele>2.04771</ele>
        <time>2022-02-25T10:11:06.149Z</time>
      </trkpt>
      <trkpt lat="36.46477" lon="32.12043">
        <ele>2.071726</ele>
        <time>2022-02-25T10:11:10.524Z</time>
      </trkpt>
      <trkpt lat="36.46482" lon="32.1204">
        <ele>2.080682</ele>
        <time>2022-02-25T10:11:12.129Z</time>
      </trkpt>
      <trkpt lat="36.46721" lon="32.11856">
        <ele>3.207698</ele>
        <time>2022-02-25T10:12:32.490Z</time>
      </trkpt>
      <trkpt lat="36.46729" lon="32.11849">
        <ele>3.262662</ele>
        <time>2022-02-25T10:12:35.366Z</time>
      </trkpt>
      <trkpt lat="36.46755" lon="32.11829">
        <ele>3.424108</ele>
        <time>2022-02-25T10:12:44.228Z</time>
      </trkpt>
      <trkpt lat="36.46792" lon="32.1179">
        <ele>3.682898</ele>
        <time>2022-02-25T10:12:58.632Z</time>
      </trkpt>
      <trkpt lat="36.46819" lon="32.11767">
        <ele>3.872374</ele>
        <time>2022-02-25T10:13:08.487Z</time>
      </trkpt>
      <trkpt lat="36.46852" lon="32.11743">
        <ele>4.120183</ele>
        <time>2022-02-25T10:13:20.046Z</time>
      </trkpt>
      <trkpt lat="36.46891" lon="32.11717">
        <ele>4.406772</ele>
        <time>2022-02-25T10:13:33.100Z</time>
      </trkpt>
      <trkpt lat="36.46904" lon="32.11715">
        <ele>4.492478</ele>
        <time>2022-02-25T10:13:36.901Z</time>
      </trkpt>
      <trkpt lat="36.46911" lon="32.11711">
        <ele>4.53658</ele>
        <time>2022-02-25T10:13:38.886Z</time>
      </trkpt>
      <trkpt lat="36.46985" lon="32.11668">
        <ele>4.880756</ele>
        <time>2022-02-25T10:14:04.088Z</time>
      </trkpt>
      <trkpt lat="36.47018" lon="32.11646">
        <ele>4.785459</ele>
        <time>2022-02-25T10:14:14.777Z</time>
      </trkpt>
      <trkpt lat="36.47048" lon="32.11628">
        <ele>4.702391</ele>
        <time>2022-02-25T10:14:23.003Z</time>
      </trkpt>
      <trkpt lat="36.47061" lon="32.1162">
        <ele>4.667321</ele>
        <time>2022-02-25T10:14:26.312Z</time>
      </trkpt>
      <trkpt lat="36.47069" lon="32.11613">
        <ele>4.643056</ele>
        <time>2022-02-25T10:14:28.623Z</time>
      </trkpt>
      <trkpt lat="36.4709" lon="32.11594">
        <ele>4.578653</ele>
        <time>2022-02-25T10:14:34.532Z</time>
      </trkpt>
      <trkpt lat="36.47106" lon="32.11579">
        <ele>4.527918</ele>
        <time>2022-02-25T10:14:39.366Z</time>
      </trkpt>
      <trkpt lat="36.47177" lon="32.11542">
        <ele>4.528131</ele>
        <time>2022-02-25T10:14:59.286Z</time>
      </trkpt>
      <trkpt lat="36.47179" lon="32.11545">
        <ele>4.530148</ele>
        <time>2022-02-25T10:15:00.019Z</time>
      </trkpt>
      <trkpt lat="36.47225" lon="32.11522">
        <ele>4.568211</ele>
        <time>2022-02-25T10:15:18.162Z</time>
      </trkpt>
      <trkpt lat="36.47268" lon="32.11502">
        <ele>4.603645</ele>
        <time>2022-02-25T10:15:34.751Z</time>
      </trkpt>
      <trkpt lat="36.47288" lon="32.11492">
        <ele>4.625129</ele>
        <time>2022-02-25T10:15:43.085Z</time>
      </trkpt>
      <trkpt lat="36.47325" lon="32.11473">
        <ele>5.09748</ele>
        <time>2022-02-25T10:15:58.672Z</time>
      </trkpt>
      <trkpt lat="36.47358" lon="32.11457">
        <ele>5.516022</ele>
        <time>2022-02-25T10:16:13.476Z</time>
      </trkpt>
      <trkpt lat="36.47372" lon="32.1145">
        <ele>5.690206</ele>
        <time>2022-02-25T10:16:19.952Z</time>
      </trkpt>
      <trkpt lat="36.47459" lon="32.11411">
        <ele>6.798883</ele>
        <time>2022-02-25T10:16:58.953Z</time>
      </trkpt>
      <trkpt lat="36.47499" lon="32.11392">
        <ele>7.469936</ele>
        <time>2022-02-25T10:17:16.010Z</time>
      </trkpt>
      <trkpt lat="36.47554" lon="32.11366">
        <ele>8.40861</ele>
        <time>2022-02-25T10:17:40.048Z</time>
      </trkpt>
      <trkpt lat="36.47575" lon="32.11355">
        <ele>8.772675</ele>
        <time>2022-02-25T10:17:49.718Z</time>
      </trkpt>
      <trkpt lat="36.47625" lon="32.1133">
        <ele>9.639856</ele>
        <time>2022-02-25T10:18:14.342Z</time>
      </trkpt>
      <trkpt lat="36.47655" lon="32.11315">
        <ele>10.21359</ele>
        <time>2022-02-25T10:18:29.842Z</time>
      </trkpt>
      <trkpt lat="36.47679" lon="32.11303">
        <ele>10.657646</ele>
        <time>2022-02-25T10:18:41.924Z</time>
      </trkpt>
      <trkpt lat="36.4771" lon="32.11292">
        <ele>11.230907</ele>
        <time>2022-02-25T10:18:56.086Z</time>
      </trkpt>
      <trkpt lat="36.47721" lon="32.11291">
        <ele>11.432311</ele>
        <time>2022-02-25T10:19:01.278Z</time>
      </trkpt>
      <trkpt lat="36.47718" lon="32.11286">
        <ele>11.511077</ele>
        <time>2022-02-25T10:19:02.385Z</time>
      </trkpt>
      <trkpt lat="36.47773" lon="32.11274">
        <ele>12.495646</ele>
        <time>2022-02-25T10:19:21.852Z</time>
      </trkpt>
      <trkpt lat="36.47797" lon="32.11281">
        <ele>12.796459</ele>
        <time>2022-02-25T10:19:30.068Z</time>
      </trkpt>
      <trkpt lat="36.47818" lon="32.11283">
        <ele>12.814757</ele>
        <time>2022-02-25T10:19:37.468Z</time>
      </trkpt>
      <trkpt lat="36.47828" lon="32.11281">
        <ele>12.823594</ele>
        <time>2022-02-25T10:19:40.162Z</time>
      </trkpt>
      <trkpt lat="36.47832" lon="32.11277">
        <ele>12.827474</ele>
        <time>2022-02-25T10:19:41.501Z</time>
      </trkpt>
      <trkpt lat="36.47845" lon="32.11264">
        <ele>12.841948</ele>
        <time>2022-02-25T10:19:46.759Z</time>
      </trkpt>
      <trkpt lat="36.47866" lon="32.11235">
        <ele>12.869379</ele>
        <time>2022-02-25T10:19:55.988Z</time>
      </trkpt>
      <trkpt lat="36.47888" lon="32.11208">
        <ele>12.896393</ele>
        <time>2022-02-25T10:20:06.571Z</time>
      </trkpt>
      <trkpt lat="36.47895" lon="32.11202">
        <ele>12.903742</ele>
        <time>2022-02-25T10:20:09.388Z</time>
      </trkpt>
      <trkpt lat="36.47915" lon="32.11177">
        <ele>12.927989</ele>
        <time>2022-02-25T10:20:18.059Z</time>
      </trkpt>
      <trkpt lat="36.47958" lon="32.11123">
        <ele>12.931055</ele>
        <time>2022-02-25T10:20:37.384Z</time>
      </trkpt>
      <trkpt lat="36.48016" lon="32.11048">
        <ele>12.901425</ele>
        <time>2022-02-25T10:21:07.232Z</time>
      </trkpt>
      <trkpt lat="36.48065" lon="32.10982">
        <ele>12.929204</ele>
        <time>2022-02-25T10:21:34.521Z</time>
      </trkpt>
      <trkpt lat="36.48109" lon="32.10921">
        <ele>13.105849</ele>
        <time>2022-02-25T10:21:58.778Z</time>
      </trkpt>
      <trkpt lat="36.48159" lon="32.10858">
        <ele>13.299762</ele>
        <time>2022-02-25T10:22:24.802Z</time>
      </trkpt>
      <trkpt lat="36.48163" lon="32.10862">
        <ele>13.313191</ele>
        <time>2022-02-25T10:22:26.255Z</time>
      </trkpt>
      <trkpt lat="36.4817" lon="32.10853">
        <ele>13.340861</ele>
        <time>2022-02-25T10:22:28.941Z</time>
      </trkpt>
      <trkpt lat="36.48268" lon="32.10726">
        <ele>13.297878</ele>
        <time>2022-02-25T10:23:08.200Z</time>
      </trkpt>
      <trkpt lat="36.48292" lon="32.10696">
        <ele>13.280102</ele>
        <time>2022-02-25T10:23:17.487Z</time>
      </trkpt>
      <trkpt lat="36.48498" lon="32.10423">
        <ele>12.131912</ele>
        <time>2022-02-25T10:24:37.915Z</time>
      </trkpt>
      <trkpt lat="36.48504" lon="32.10416">
        <ele>12.068756</ele>
        <time>2022-02-25T10:24:39.934Z</time>
      </trkpt>
      <trkpt lat="36.485" lon="32.10411">
        <ele>12.028608</ele>
        <time>2022-02-25T10:24:41.190Z</time>
      </trkpt>
      <trkpt lat="36.48523" lon="32.10384">
        <ele>11.798779</ele>
        <time>2022-02-25T10:24:50.703Z</time>
      </trkpt>
      <trkpt lat="36.48611" lon="32.10301">
        <ele>10.411331</ele>
        <time>2022-02-25T10:25:23.894Z</time>
      </trkpt>
      <trkpt lat="36.48695" lon="32.10221">
        <ele>8.9597</ele>
        <time>2022-02-25T10:25:55.430Z</time>
      </trkpt>
      <trkpt lat="36.48744" lon="32.10178">
        <ele>8.562834</ele>
        <time>2022-02-25T10:26:14.931Z</time>
      </trkpt>
      <trkpt lat="36.48792" lon="32.10135">
        <ele>8.170448</ele>
        <time>2022-02-25T10:26:35.223Z</time>
      </trkpt>
      <trkpt lat="36.48794" lon="32.10133">
        <ele>8.149829</ele>
        <time>2022-02-25T10:26:36.283Z</time>
      </trkpt>
      <trkpt lat="36.48898" lon="32.10041">
        <ele>7.323904</ele>
        <time>2022-02-25T10:27:17.300Z</time>
      </trkpt>
      <trkpt lat="36.48907" lon="32.10033">
        <ele>7.253988</ele>
        <time>2022-02-25T10:27:20.813Z</time>
      </trkpt>
      <trkpt lat="36.48993" lon="32.09953">
        <ele>6.605971</ele>
        <time>2022-02-25T10:27:56.281Z</time>
      </trkpt>
      <trkpt lat="36.49011" lon="32.09944">
        <ele>6.538165</ele>
        <time>2022-02-25T10:28:00.770Z</time>
      </trkpt>
      <trkpt lat="36.49031" lon="32.09934">
        <ele>6.461717</ele>
        <time>2022-02-25T10:28:05.832Z</time>
      </trkpt>
      <trkpt lat="36.49034" lon="32.09935">
        <ele>6.449205</ele>
        <time>2022-02-25T10:28:06.615Z</time>
      </trkpt>
      <trkpt lat="36.49037" lon="32.09935">
        <ele>6.437095</ele>
        <time>2022-02-25T10:28:07.395Z</time>
      </trkpt>
      <trkpt lat="36.49042" lon="32.09933">
        <ele>6.420768</ele>
        <time>2022-02-25T10:28:08.516Z</time>
      </trkpt>
      <trkpt lat="36.4905" lon="32.09921">
        <ele>6.373904</ele>
        <time>2022-02-25T10:28:11.550Z</time>
      </trkpt>
      <trkpt lat="36.49051" lon="32.09915">
        <ele>6.357805</ele>
        <time>2022-02-25T10:28:12.670Z</time>
      </trkpt>
      <trkpt lat="36.49062" lon="32.09899">
        <ele>6.296055</ele>
        <time>2022-02-25T10:28:16.859Z</time>
      </trkpt>
      <trkpt lat="36.49076" lon="32.09875">
        <ele>6.210193</ele>
        <time>2022-02-25T10:28:22.894Z</time>
      </trkpt>
      <trkpt lat="36.4916" lon="32.09792">
        <ele>6.218727</ele>
        <time>2022-02-25T10:28:53.401Z</time>
      </trkpt>
      <trkpt lat="36.49292" lon="32.09665">
        <ele>6.762487</ele>
        <time>2022-02-25T10:29:40.707Z</time>
      </trkpt>
      <trkpt lat="36.4933" lon="32.09628">
        <ele>6.889751</ele>
        <time>2022-02-25T10:29:54.425Z</time>
      </trkpt>
      <trkpt lat="36.49335" lon="32.09624">
        <ele>6.906152</ele>
        <time>2022-02-25T10:29:56.130Z</time>
      </trkpt>
      <trkpt lat="36.49338" lon="32.09621">
        <ele>6.916143</ele>
        <time>2022-02-25T10:29:57.179Z</time>
      </trkpt>
      <trkpt lat="36.49412" lon="32.09549">
        <ele>7.172228</ele>
        <time>2022-02-25T10:30:22.790Z</time>
      </trkpt>
      <trkpt lat="36.49587" lon="32.0938">
        <ele>8.152765</ele>
        <time>2022-02-25T10:31:25.481Z</time>
      </trkpt>
      <trkpt lat="36.49595" lon="32.09372">
        <ele>8.234144</ele>
        <time>2022-02-25T10:31:28.666Z</time>
      </trkpt>
      <trkpt lat="36.49608" lon="32.09363">
        <ele>8.349821</ele>
        <time>2022-02-25T10:31:33.336Z</time>
      </trkpt>
      <trkpt lat="36.49665" lon="32.09295">
        <ele>8.970182</ele>
        <time>2022-02-25T10:31:58.606Z</time>
      </trkpt>
      <trkpt lat="36.49681" lon="32.09279">
        <ele>9.125294</ele>
        <time>2022-02-25T10:32:05.120Z</time>
      </trkpt>
      <trkpt lat="36.49717" lon="32.09247">
        <ele>9.112185</ele>
        <time>2022-02-25T10:32:18.820Z</time>
      </trkpt>
      <trkpt lat="36.49729" lon="32.09233">
        <ele>9.107153</ele>
        <time>2022-02-25T10:32:23.770Z</time>
      </trkpt>
      <trkpt lat="36.4975" lon="32.09222">
        <ele>9.100467</ele>
        <time>2022-02-25T10:32:29.983Z</time>
      </trkpt>
      <trkpt lat="36.49775" lon="32.09214">
        <ele>9.093</ele>
        <time>2022-02-25T10:32:36.885Z</time>
      </trkpt>
      <trkpt lat="36.4981" lon="32.09187">
        <ele>9.080749</ele>
        <time>2022-02-25T10:32:47.108Z</time>
      </trkpt>
      <trkpt lat="36.4983" lon="32.09171">
        <ele>9.073697</ele>
        <time>2022-02-25T10:32:52.854Z</time>
      </trkpt>
      <trkpt lat="36.4985" lon="32.0915">
        <ele>8.748431</ele>
        <time>2022-02-25T10:32:58.600Z</time>
      </trkpt>
      <trkpt lat="36.49955" lon="32.08982">
        <ele>6.145403</ele>
        <time>2022-02-25T10:33:35.414Z</time>
      </trkpt>
      <trkpt lat="36.50018" lon="32.08887">
        <ele>4.983016</ele>
        <time>2022-02-25T10:33:57.656Z</time>
      </trkpt>
      <trkpt lat="36.50078" lon="32.08788">
        <ele>4.036663</ele>
        <time>2022-02-25T10:34:21.269Z</time>
      </trkpt>
      <trkpt lat="36.50085" lon="32.08779">
        <ele>3.992275</ele>
        <time>2022-02-25T10:34:23.611Z</time>
      </trkpt>
      <trkpt lat="36.50196" lon="32.08616">
        <ele>3.3354</ele>
        <time>2022-02-25T10:35:08.803Z</time>
      </trkpt>
      <trkpt lat="36.50328" lon="32.08432">
        <ele>3.20383</ele>
        <time>2022-02-25T10:36:04.442Z</time>
      </trkpt>
      <trkpt lat="36.50358" lon="32.08385">
        <ele>3.148197</ele>
        <time>2022-02-25T10:36:17.274Z</time>
      </trkpt>
      <trkpt lat="36.50412" lon="32.08312">
        <ele>3.056258</ele>
        <time>2022-02-25T10:36:38.653Z</time>
      </trkpt>
      <trkpt lat="36.5045" lon="32.08257">
        <ele>3.112602</ele>
        <time>2022-02-25T10:36:54.649Z</time>
      </trkpt>
      <trkpt lat="36.50472" lon="32.08225">
        <ele>3.145325</ele>
        <time>2022-02-25T10:37:04.100Z</time>
      </trkpt>
      <trkpt lat="36.50517" lon="32.08162">
        <ele>3.211267</ele>
        <time>2022-02-25T10:37:23.671Z</time>
      </trkpt>
      <trkpt lat="36.50623" lon="32.0802">
        <ele>3.818078</ele>
        <time>2022-02-25T10:38:10.387Z</time>
      </trkpt>
      <trkpt lat="36.50628" lon="32.08012">
        <ele>3.851674</ele>
        <time>2022-02-25T10:38:12.731Z</time>
      </trkpt>
      <trkpt lat="36.50694" lon="32.07907">
        <ele>4.208719</ele>
        <time>2022-02-25T10:38:44.476Z</time>
      </trkpt>
      <trkpt lat="36.50733" lon="32.07846">
        <ele>4.38329</ele>
        <time>2022-02-25T10:39:02.712Z</time>
      </trkpt>
      <trkpt lat="36.50786" lon="32.07767">
        <ele>4.362216</ele>
        <time>2022-02-25T10:39:26.749Z</time>
      </trkpt>
      <trkpt lat="36.50868" lon="32.07641">
        <ele>3.822284</ele>
        <time>2022-02-25T10:40:00.597Z</time>
      </trkpt>
      <trkpt lat="36.50891" lon="32.07619">
        <ele>3.616005</ele>
        <time>2022-02-25T10:40:07.249Z</time>
      </trkpt>
      <trkpt lat="36.50962" lon="32.07515">
        <ele>2.53416</ele>
        <time>2022-02-25T10:40:33.014Z</time>
      </trkpt>
      <trkpt lat="36.50994" lon="32.07455">
        <ele>2.00783</ele>
        <time>2022-02-25T10:40:47.191Z</time>
      </trkpt>
      <trkpt lat="36.51115" lon="32.07256">
        <ele>2.608207</ele>
        <time>2022-02-25T10:41:46.123Z</time>
      </trkpt>
      <trkpt lat="36.5118" lon="32.07151">
        <ele>3.527809</ele>
        <time>2022-02-25T10:42:20.919Z</time>
      </trkpt>
      <trkpt lat="36.51243" lon="32.07041">
        <ele>4.586798</ele>
        <time>2022-02-25T10:42:56.344Z</time>
      </trkpt>
      <trkpt lat="36.51295" lon="32.0695">
        <ele>5.529957</ele>
        <time>2022-02-25T10:43:26.259Z</time>
      </trkpt>
      <trkpt lat="36.5135" lon="32.06857">
        <ele>6.096298</ele>
        <time>2022-02-25T10:43:56.678Z</time>
      </trkpt>
      <trkpt lat="36.51399" lon="32.06767">
        <ele>6.423845</ele>
        <time>2022-02-25T10:44:22.337Z</time>
      </trkpt>
      <trkpt lat="36.51481" lon="32.06623">
        <ele>5.822819</ele>
        <time>2022-02-25T10:44:58.466Z</time>
      </trkpt>
      <trkpt lat="36.51529" lon="32.0654">
        <ele>5.362419</ele>
        <time>2022-02-25T10:45:18.534Z</time>
      </trkpt>
      <trkpt lat="36.51537" lon="32.06527">
        <ele>5.346065</ele>
        <time>2022-02-25T10:45:21.753Z</time>
      </trkpt>
      <trkpt lat="36.51563" lon="32.06478">
        <ele>5.28616</ele>
        <time>2022-02-25T10:45:33.657Z</time>
      </trkpt>
      <trkpt lat="36.51612" lon="32.06396">
        <ele>5.183481</ele>
        <time>2022-02-25T10:45:56.583Z</time>
      </trkpt>
      <trkpt lat="36.51637" lon="32.0635">
        <ele>5.324709</ele>
        <time>2022-02-25T10:46:10.911Z</time>
      </trkpt>
      <trkpt lat="36.51693" lon="32.06251">
        <ele>6.125427</ele>
        <time>2022-02-25T10:46:43.206Z</time>
      </trkpt>
      <trkpt lat="36.51742" lon="32.06167">
        <ele>6.639085</ele>
        <time>2022-02-25T10:47:08.994Z</time>
      </trkpt>
      <trkpt lat="36.5176" lon="32.06144">
        <ele>6.64392</ele>
        <time>2022-02-25T10:47:16.856Z</time>
      </trkpt>
      <trkpt lat="36.51766" lon="32.06138">
        <ele>6.645316</ele>
        <time>2022-02-25T10:47:18.821Z</time>
      </trkpt>
      <trkpt lat="36.51794" lon="32.0609">
        <ele>6.654273</ele>
        <time>2022-02-25T10:47:32.078Z</time>
      </trkpt>
      <trkpt lat="36.51818" lon="32.06065">
        <ele>6.660103</ele>
        <time>2022-02-25T10:47:39.845Z</time>
      </trkpt>
      <trkpt lat="36.51946" lon="32.05922">
        <ele>6.336655</ele>
        <time>2022-02-25T10:48:23.689Z</time>
      </trkpt>
      <trkpt lat="36.51996" lon="32.05864">
        <ele>6.045379</ele>
        <time>2022-02-25T10:48:41.829Z</time>
      </trkpt>
      <trkpt lat="36.52002" lon="32.05857">
        <ele>5.970536</ele>
        <time>2022-02-25T10:48:43.716Z</time>
      </trkpt>
      <trkpt lat="36.52064" lon="32.0578">
        <ele>5.106508</ele>
        <time>2022-02-25T10:49:04.358Z</time>
      </trkpt>
      <trkpt lat="36.52081" lon="32.05757">
        <ele>4.859468</ele>
        <time>2022-02-25T10:49:09.928Z</time>
      </trkpt>
      <trkpt lat="36.52102" lon="32.05729">
        <ele>4.557121</ele>
        <time>2022-02-25T10:49:16.755Z</time>
      </trkpt>
      <trkpt lat="36.52167" lon="32.05627">
        <ele>3.088799</ele>
        <time>2022-02-25T10:49:39.247Z</time>
      </trkpt>
      <trkpt lat="36.52196" lon="32.05585">
        <ele>2.435026</ele>
        <time>2022-02-25T10:49:48.959Z</time>
      </trkpt>
      <trkpt lat="36.52235" lon="32.05519">
        <ele>1.666783</ele>
        <time>2022-02-25T10:50:04.012Z</time>
      </trkpt>
      <trkpt lat="36.52277" lon="32.05447">
        <ele>1.271587</ele>
        <time>2022-02-25T10:50:21.913Z</time>
      </trkpt>
      <trkpt lat="36.52341" lon="32.0534">
        <ele>0.96602</ele>
        <time>2022-02-25T10:50:48.344Z</time>
      </trkpt>
      <trkpt lat="36.52401" lon="32.054">
        <ele>1.600645</ele>
        <time>2022-02-25T10:51:10.792Z</time>
      </trkpt>
      <trkpt lat="36.52463" lon="32.05458">
        <ele>2.250194</ele>
        <time>2022-02-25T10:51:38.431Z</time>
      </trkpt>
      <trkpt lat="36.52519" lon="32.0537">
        <ele>4.473833</ele>
        <time>2022-02-25T10:52:12.645Z</time>
      </trkpt>
      <trkpt lat="36.52535" lon="32.0534">
        <ele>5.202733</ele>
        <time>2022-02-25T10:52:23.681Z</time>
      </trkpt>
      <trkpt lat="36.52545" lon="32.05317">
        <ele>5.754419</ele>
        <time>2022-02-25T10:52:33.377Z</time>
      </trkpt>
      <trkpt lat="36.52558" lon="32.05265">
        <ele>6.8594</ele>
        <time>2022-02-25T10:52:52.782Z</time>
      </trkpt>
      <trkpt lat="36.52565" lon="32.05242">
        <ele>7.358078</ele>
        <time>2022-02-25T10:53:01.514Z</time>
      </trkpt>
      <trkpt lat="36.52582" lon="32.05192">
        <ele>8.471991</ele>
        <time>2022-02-25T10:53:20.434Z</time>
      </trkpt>
      <trkpt lat="36.52599" lon="32.05195">
        <ele>8.896227</ele>
        <time>2022-02-25T10:53:26.830Z</time>
      </trkpt>
      <trkpt lat="36.52602" lon="32.05195">
        <ele>8.964148</ele>
        <time>2022-02-25T10:53:27.937Z</time>
      </trkpt>
      <trkpt lat="36.52638" lon="32.05195">
        <ele>9.864755</ele>
        <time>2022-02-25T10:53:42.282Z</time>
      </trkpt>
      <trkpt lat="36.52667" lon="32.05197">
        <ele>10.613094</ele>
        <time>2022-02-25T10:53:53.960Z</time>
      </trkpt>
      <trkpt lat="36.52686" lon="32.05191">
        <ele>11.102066</ele>
        <time>2022-02-25T10:54:00.947Z</time>
      </trkpt>
      <trkpt lat="36.52738" lon="32.05152">
        <ele>11.43567</ele>
        <time>2022-02-25T10:54:22.224Z</time>
      </trkpt>
      <trkpt lat="36.52778" lon="32.05103">
        <ele>11.470154</ele>
        <time>2022-02-25T10:54:39.156Z</time>
      </trkpt>
      <trkpt lat="36.52784" lon="32.05095">
        <ele>11.4761</ele>
        <time>2022-02-25T10:54:41.778Z</time>
      </trkpt>
      <trkpt lat="36.52807" lon="32.05071">
        <ele>11.494332</ele>
        <time>2022-02-25T10:54:48.897Z</time>
      </trkpt>
      <trkpt lat="36.52831" lon="32.05056">
        <ele>11.510916</ele>
        <time>2022-02-25T10:54:55.119Z</time>
      </trkpt>
      <trkpt lat="36.52855" lon="32.05056">
        <ele>11.238506</ele>
        <time>2022-02-25T10:55:00.428Z</time>
      </trkpt>
      <trkpt lat="36.52902" lon="32.05062">
        <ele>10.322405</ele>
        <time>2022-02-25T10:55:10.705Z</time>
      </trkpt>
      <trkpt lat="36.52939" lon="32.05057">
        <ele>9.582099</ele>
        <time>2022-02-25T10:55:18.776Z</time>
      </trkpt>
      <trkpt lat="36.52972" lon="32.05009">
        <ele>8.589952</ele>
        <time>2022-02-25T10:55:29.785Z</time>
      </trkpt>
      <trkpt lat="36.52974" lon="32.05005">
        <ele>8.517236</ele>
        <time>2022-02-25T10:55:30.621Z</time>
      </trkpt>
      <trkpt lat="36.52982" lon="32.0499">
        <ele>8.239731</ele>
        <time>2022-02-25T10:55:34.015Z</time>
      </trkpt>
      <trkpt lat="36.53012" lon="32.04966">
        <ele>7.80285</ele>
        <time>2022-02-25T10:55:42.623Z</time>
      </trkpt>
      <trkpt lat="36.53045" lon="32.04938">
        <ele>7.450186</ele>
        <time>2022-02-25T10:55:52.355Z</time>
      </trkpt>
      <trkpt lat="36.5306" lon="32.04927">
        <ele>7.296729</ele>
        <time>2022-02-25T10:55:56.713Z</time>
      </trkpt>
      <trkpt lat="36.53066" lon="32.04918">
        <ele>7.219131</ele>
        <time>2022-02-25T10:55:58.946Z</time>
      </trkpt>
      <trkpt lat="36.5308" lon="32.04911">
        <ele>7.088544</ele>
        <time>2022-02-25T10:56:02.677Z</time>
      </trkpt>
      <trkpt lat="36.53088" lon="32.04909">
        <ele>7.009319</ele>
        <time>2022-02-25T10:56:04.944Z</time>
      </trkpt>
      <trkpt lat="36.5311" lon="32.04907">
        <ele>6.81871</ele>
        <time>2022-02-25T10:56:10.431Z</time>
      </trkpt>
      <trkpt lat="36.53119" lon="32.04905">
        <ele>6.743675</ele>
        <time>2022-02-25T10:56:12.808Z</time>
      </trkpt>
      <trkpt lat="36.53166" lon="32.04894">
        <ele>6.281986</ele>
        <time>2022-02-25T10:56:24.970Z</time>
      </trkpt>
      <trkpt lat="36.53161" lon="32.04829">
        <ele>5.6476</ele>
        <time>2022-02-25T10:56:38.042Z</time>
      </trkpt>
      <trkpt lat="36.53156" lon="32.0477">
        <ele>5.067982</ele>
        <time>2022-02-25T10:56:49.648Z</time>
      </trkpt>
      <trkpt lat="36.53273" lon="32.04757">
        <ele>3.624305</ele>
        <time>2022-02-25T10:57:15.704Z</time>
      </trkpt>
      <trkpt lat="36.53382" lon="32.04743">
        <ele>2.229415</ele>
        <time>2022-02-25T10:57:41.817Z</time>
      </trkpt>
      <trkpt lat="36.53388" lon="32.04743">
        <ele>2.153025</ele>
        <time>2022-02-25T10:57:43.356Z</time>
      </trkpt>
      <trkpt lat="36.53393" lon="32.04743">
        <ele>2.08997</ele>
        <time>2022-02-25T10:57:44.634Z</time>
      </trkpt>
      <trkpt lat="36.53391" lon="32.04728">
        <ele>1.972407</ele>
        <time>2022-02-25T10:57:47.331Z</time>
      </trkpt>
      <trkpt lat="36.53358" lon="32.04608">
        <ele>1.887251</ele>
        <time>2022-02-25T10:58:13.969Z</time>
      </trkpt>
      <trkpt lat="36.53352" lon="32.04591">
        <ele>1.87533</ele>
        <time>2022-02-25T10:58:17.678Z</time>
      </trkpt>
      <trkpt lat="36.53348" lon="32.04583">
        <ele>1.868717</ele>
        <time>2022-02-25T10:58:20.119Z</time>
      </trkpt>
      <trkpt lat="36.53347" lon="32.04571">
        <ele>1.860789</ele>
        <time>2022-02-25T10:58:23.201Z</time>
      </trkpt>
      <trkpt lat="36.53341" lon="32.04547">
        <ele>1.844048</ele>
        <time>2022-02-25T10:58:29.183Z</time>
      </trkpt>
      <trkpt lat="36.53337" lon="32.04535">
        <ele>1.835007</ele>
        <time>2022-02-25T10:58:32.676Z</time>
      </trkpt>
      <trkpt lat="36.53328" lon="32.0452">
        <ele>1.859358</ele>
        <time>2022-02-25T10:58:37.323Z</time>
      </trkpt>
      <trkpt lat="36.53311" lon="32.04466">
        <ele>2.438353</ele>
        <time>2022-02-25T10:58:51.815Z</time>
      </trkpt>
      <trkpt lat="36.53344" lon="32.04448">
        <ele>2.889755</ele>
        <time>2022-02-25T10:59:03.533Z</time>
      </trkpt>
      <trkpt lat="36.53364" lon="32.04422">
        <ele>3.250251</ele>
        <time>2022-02-25T10:59:13.517Z</time>
      </trkpt>
      <trkpt lat="36.53414" lon="32.04337">
        <ele>4.217243</ele>
        <time>2022-02-25T10:59:42.726Z</time>
      </trkpt>
      <trkpt lat="36.53423" lon="32.04322">
        <ele>4.331967</ele>
        <time>2022-02-25T10:59:48.106Z</time>
      </trkpt>
      <trkpt lat="36.53432" lon="32.04299">
        <ele>4.492625</ele>
        <time>2022-02-25T10:59:54.636Z</time>
      </trkpt>
      <trkpt lat="36.53457" lon="32.04258">
        <ele>4.801544</ele>
        <time>2022-02-25T11:00:06.993Z</time>
      </trkpt>
      <trkpt lat="36.53489" lon="32.04205">
        <ele>5.208121</ele>
        <time>2022-02-25T11:00:22.545Z</time>
      </trkpt>
      <trkpt lat="36.53495" lon="32.04196">
        <ele>5.279033</ele>
        <time>2022-02-25T11:00:25.079Z</time>
      </trkpt>
      <trkpt lat="36.53549" lon="32.04103">
        <ele>5.319025</ele>
        <time>2022-02-25T11:00:49.907Z</time>
      </trkpt>
      <trkpt lat="36.53587" lon="32.04038">
        <ele>5.207567</ele>
        <time>2022-02-25T11:01:05.964Z</time>
      </trkpt>
      <trkpt lat="36.53613" lon="32.03995">
        <ele>5.132423</ele>
        <time>2022-02-25T11:01:16.861Z</time>
      </trkpt>
      <trkpt lat="36.53633" lon="32.03947">
        <ele>4.994422</ele>
        <time>2022-02-25T11:01:28.010Z</time>
      </trkpt>
      <trkpt lat="36.53681" lon="32.03825">
        <ele>4.638517</ele>
        <time>2022-02-25T11:01:55.515Z</time>
      </trkpt>
      <trkpt lat="36.53709" lon="32.03671">
        <ele>4.379521</ele>
        <time>2022-02-25T11:02:28.035Z</time>
      </trkpt>
      <trkpt lat="36.53709" lon="32.0365">
        <ele>4.351599</ele>
        <time>2022-02-25T11:02:32.234Z</time>
      </trkpt>
      <trkpt lat="36.53748" lon="32.03648">
        <ele>4.285243</ele>
        <time>2022-02-25T11:02:42.852Z</time>
      </trkpt>
      <trkpt lat="36.53796" lon="32.03636">
        <ele>4.239027</ele>
        <time>2022-02-25T11:02:56.381Z</time>
      </trkpt>
      <trkpt lat="36.53806" lon="32.03636">
        <ele>4.237901</ele>
        <time>2022-02-25T11:02:59.440Z</time>
      </trkpt>
      <trkpt lat="36.53819" lon="32.03634">
        <ele>4.236439</ele>
        <time>2022-02-25T11:03:03.022Z</time>
      </trkpt>
      <trkpt lat="36.53821" lon="32.03636">
        <ele>4.236256</ele>
        <time>2022-02-25T11:03:03.491Z</time>
      </trkpt>
      <trkpt lat="36.53822" lon="32.03636">
        <ele>4.236069</ele>
        <time>2022-02-25T11:03:03.969Z</time>
      </trkpt>
      <trkpt lat="36.53824" lon="32.03636">
        <ele>4.235881</ele>
        <time>2022-02-25T11:03:04.445Z</time>
      </trkpt>
      <trkpt lat="36.53826" lon="32.03636">
        <ele>4.235656</ele>
        <time>2022-02-25T11:03:05.045Z</time>
      </trkpt>
      <trkpt lat="36.5383" lon="32.0363">
        <ele>4.235011</ele>
        <time>2022-02-25T11:03:06.732Z</time>
      </trkpt>
      <trkpt lat="36.5383" lon="32.03628">
        <ele>4.234796</ele>
        <time>2022-02-25T11:03:07.377Z</time>
      </trkpt>
      <trkpt lat="36.5383" lon="32.03625">
        <ele>4.234561</ele>
        <time>2022-02-25T11:03:08.049Z</time>
      </trkpt>
      <trkpt lat="36.53844" lon="32.03601">
        <ele>4.23188</ele>
        <time>2022-02-25T11:03:15.017Z</time>
      </trkpt>
      <trkpt lat="36.53859" lon="32.03574">
        <ele>4.228908</ele>
        <time>2022-02-25T11:03:23.139Z</time>
      </trkpt>
      <trkpt lat="36.5389" lon="32.03516">
        <ele>4.222799</ele>
        <time>2022-02-25T11:03:37.750Z</time>
      </trkpt>
      <trkpt lat="36.53937" lon="32.03433">
        <ele>4.151413</ele>
        <time>2022-02-25T11:03:58.537Z</time>
      </trkpt>
      <trkpt lat="36.53967" lon="32.03376">
        <ele>4.098128</ele>
        <time>2022-02-25T11:04:12.197Z</time>
      </trkpt>
      <trkpt lat="36.53983" lon="32.03348">
        <ele>4.070791</ele>
        <time>2022-02-25T11:04:19.883Z</time>
      </trkpt>
      <trkpt lat="36.54006" lon="32.03303">
        <ele>4.204944</ele>
        <time>2022-02-25T11:04:31.858Z</time>
      </trkpt>
      <trkpt lat="36.54044" lon="32.03234">
        <ele>4.803564</ele>
        <time>2022-02-25T11:04:52.122Z</time>
      </trkpt>
      <trkpt lat="36.54081" lon="32.03166">
        <ele>5.395692</ele>
        <time>2022-02-25T11:05:14.401Z</time>
      </trkpt>
      <trkpt lat="36.54115" lon="32.03102">
        <ele>5.73648</ele>
        <time>2022-02-25T11:05:33.826Z</time>
      </trkpt>
      <trkpt lat="36.54132" lon="32.0307">
        <ele>5.811737</ele>
        <time>2022-02-25T11:05:42.948Z</time>
      </trkpt>
      <trkpt lat="36.54151" lon="32.03036">
        <ele>5.894263</ele>
        <time>2022-02-25T11:05:52.582Z</time>
      </trkpt>
      <trkpt lat="36.54175" lon="32.02994">
        <ele>5.996793</ele>
        <time>2022-02-25T11:06:03.631Z</time>
      </trkpt>
      <trkpt lat="36.54208" lon="32.02929">
        <ele>6.020366</ele>
        <time>2022-02-25T11:06:18.798Z</time>
      </trkpt>
      <trkpt lat="36.54266" lon="32.02789">
        <ele>5.51979</ele>
        <time>2022-02-25T11:06:49.431Z</time>
      </trkpt>
      <trkpt lat="36.54289" lon="32.02721">
        <ele>5.543981</ele>
        <time>2022-02-25T11:07:05.498Z</time>
      </trkpt>
      <trkpt lat="36.54302" lon="32.0268">
        <ele>5.75979</ele>
        <time>2022-02-25T11:07:15.523Z</time>
      </trkpt>
      <trkpt lat="36.54315" lon="32.02641">
        <ele>5.960138</ele>
        <time>2022-02-25T11:07:25.323Z</time>
      </trkpt>
      <trkpt lat="36.54329" lon="32.026">
        <ele>6.178926</ele>
        <time>2022-02-25T11:07:36.430Z</time>
      </trkpt>
      <trkpt lat="36.54343" lon="32.0256">
        <ele>6.388302</ele>
        <time>2022-02-25T11:07:47.484Z</time>
      </trkpt>
      <trkpt lat="36.54363" lon="32.02501">
        <ele>6.901858</ele>
        <time>2022-02-25T11:08:04.247Z</time>
      </trkpt>
      <trkpt lat="36.54372" lon="32.02457">
        <ele>7.314549</ele>
        <time>2022-02-25T11:08:15.701Z</time>
      </trkpt>
      <trkpt lat="36.54381" lon="32.02412">
        <ele>7.741387</ele>
        <time>2022-02-25T11:08:27.156Z</time>
      </trkpt>
      <trkpt lat="36.5439" lon="32.02369">
        <ele>8.149297</ele>
        <time>2022-02-25T11:08:38.324Z</time>
      </trkpt>
      <trkpt lat="36.54392" lon="32.02356">
        <ele>8.269767</ele>
        <time>2022-02-25T11:08:41.711Z</time>
      </trkpt>
      <trkpt lat="36.54442" lon="32.02327">
        <ele>9.120213</ele>
        <time>2022-02-25T11:09:01.535Z</time>
      </trkpt>
      <trkpt lat="36.54434" lon="32.02308">
        <ele>9.433499</ele>
        <time>2022-02-25T11:09:08.385Z</time>
      </trkpt>
      <trkpt lat="36.54401" lon="32.02236">
        <ele>10.619635</ele>
        <time>2022-02-25T11:09:32.667Z</time>
      </trkpt>
      <trkpt lat="36.544" lon="32.02203">
        <ele>11.103379</ele>
        <time>2022-02-25T11:09:42.373Z</time>
      </trkpt>
      <trkpt lat="36.54448" lon="32.02173">
        <ele>12.076634</ele>
        <time>2022-02-25T11:10:02.222Z</time>
      </trkpt>
      <trkpt lat="36.54419" lon="32.02102">
        <ele>13.236188</ele>
        <time>2022-02-25T11:10:25.403Z</time>
      </trkpt>
      <trkpt lat="36.54371" lon="32.01996">
        <ele>15.017567</ele>
        <time>2022-02-25T11:11:02.012Z</time>
      </trkpt>
      <trkpt lat="36.54418" lon="32.02">
        <ele>15.425079</ele>
        <time>2022-02-25T11:11:18.234Z</time>
      </trkpt>
      <trkpt lat="36.54491" lon="32.02008">
        <ele>16.063451</ele>
        <time>2022-02-25T11:11:42.471Z</time>
      </trkpt>
      <trkpt lat="36.54502" lon="32.01951">
        <ele>16.46722</ele>
        <time>2022-02-25T11:11:56.527Z</time>
      </trkpt>
      <trkpt lat="36.5451" lon="32.01919">
        <ele>16.410423</ele>
        <time>2022-02-25T11:12:03.870Z</time>
      </trkpt>
      <trkpt lat="36.54517" lon="32.01896">
        <ele>16.195261</ele>
        <time>2022-02-25T11:12:08.930Z</time>
      </trkpt>
      <trkpt lat="36.54536" lon="32.01815">
        <ele>15.448008</ele>
        <time>2022-02-25T11:12:25.158Z</time>
      </trkpt>
      <trkpt lat="36.54548" lon="32.0171">
        <ele>14.511735</ele>
        <time>2022-02-25T11:12:44.341Z</time>
      </trkpt>
      <trkpt lat="36.54556" lon="32.01663">
        <ele>14.106357</ele>
        <time>2022-02-25T11:12:53.229Z</time>
      </trkpt>
      <trkpt lat="36.54568" lon="32.0161">
        <ele>13.646467</ele>
        <time>2022-02-25T11:13:03.637Z</time>
      </trkpt>
      <trkpt lat="36.54566" lon="32.01513">
        <ele>12.826262</ele>
        <time>2022-02-25T11:13:23.028Z</time>
      </trkpt>
      <trkpt lat="36.54566" lon="32.01504">
        <ele>12.745246</ele>
        <time>2022-02-25T11:13:25.108Z</time>
      </trkpt>
      <trkpt lat="36.54564" lon="32.01433">
        <ele>12.765986</ele>
        <time>2022-02-25T11:13:39.757Z</time>
      </trkpt>
      <trkpt lat="36.54587" lon="32.01437">
        <ele>12.793347</ele>
        <time>2022-02-25T11:13:46.338Z</time>
      </trkpt>
      <trkpt lat="36.54601" lon="32.01434">
        <ele>12.809579</ele>
        <time>2022-02-25T11:13:50.004Z</time>
      </trkpt>
      <trkpt lat="36.54612" lon="32.01415">
        <ele>12.832218</ele>
        <time>2022-02-25T11:13:55.554Z</time>
      </trkpt>
      <trkpt lat="36.54621" lon="32.01388">
        <ele>12.859872</ele>
        <time>2022-02-25T11:14:02.438Z</time>
      </trkpt>
      <trkpt lat="36.5462" lon="32.01321">
        <ele>13.000567</ele>
        <time>2022-02-25T11:14:19.161Z</time>
      </trkpt>
      <trkpt lat="36.54619" lon="32.01279">
        <ele>13.490268</ele>
        <time>2022-02-25T11:14:30.159Z</time>
      </trkpt>
      <trkpt lat="36.54624" lon="32.01255">
        <ele>13.785935</ele>
        <time>2022-02-25T11:14:36.871Z</time>
      </trkpt>
      <trkpt lat="36.54637" lon="32.01238">
        <ele>14.053438</ele>
        <time>2022-02-25T11:14:42.932Z</time>
      </trkpt>
      <trkpt lat="36.54653" lon="32.01226">
        <ele>14.328815</ele>
        <time>2022-02-25T11:14:49.653Z</time>
      </trkpt>
      <trkpt lat="36.54732" lon="32.01239">
        <ele>15.4828</ele>
        <time>2022-02-25T11:15:18.647Z</time>
      </trkpt>
      <trkpt lat="36.54741" lon="32.01242">
        <ele>15.660663</ele>
        <time>2022-02-25T11:15:22.146Z</time>
      </trkpt>
      <trkpt lat="36.54786" lon="32.01251">
        <ele>16.64353</ele>
        <time>2022-02-25T11:15:39.605Z</time>
      </trkpt>
      <trkpt lat="36.54858" lon="32.0127">
        <ele>18.217132</ele>
        <time>2022-02-25T11:16:07.977Z</time>
      </trkpt>
      <trkpt lat="36.54871" lon="32.01236">
        <ele>18.871764</ele>
        <time>2022-02-25T11:16:19.603Z</time>
      </trkpt>
      <trkpt lat="36.54884" lon="32.01185">
        <ele>19.784509</ele>
        <time>2022-02-25T11:16:36.031Z</time>
      </trkpt>
      <trkpt lat="36.54893" lon="32.01155">
        <ele>20.318969</ele>
        <time>2022-02-25T11:16:45.696Z</time>
      </trkpt>
      <trkpt lat="36.54913" lon="32.01159">
        <ele>20.735719</ele>
        <time>2022-02-25T11:16:53.396Z</time>
      </trkpt>
      <trkpt lat="36.54935" lon="32.01153">
        <ele>21.214301</ele>
        <time>2022-02-25T11:17:01.893Z</time>
      </trkpt>
      <trkpt lat="36.5496" lon="32.01136">
        <ele>21.80704</ele>
        <time>2022-02-25T11:17:12.769Z</time>
      </trkpt>
      <trkpt lat="36.54986" lon="32.01126">
        <ele>22.364396</ele>
        <time>2022-02-25T11:17:22.908Z</time>
      </trkpt>
      <trkpt lat="36.55013" lon="32.01126">
        <ele>22.919963</ele>
        <time>2022-02-25T11:17:32.718Z</time>
      </trkpt>
      <trkpt lat="36.55119" lon="32.01126">
        <ele>23.793829</ele>
        <time>2022-02-25T11:18:07.701Z</time>
      </trkpt>
      <trkpt lat="36.55119" lon="32.01097">
        <ele>23.953724</ele>
        <time>2022-02-25T11:18:14.502Z</time>
      </trkpt>
      <trkpt lat="36.55125" lon="32.01052">
        <ele>24.208957</ele>
        <time>2022-02-25T11:18:24.911Z</time>
      </trkpt>
      <trkpt lat="36.5512" lon="32.00987">
        <ele>24.017101</ele>
        <time>2022-02-25T11:18:38.259Z</time>
      </trkpt>
      <trkpt lat="36.55117" lon="32.00948">
        <ele>23.615767</ele>
        <time>2022-02-25T11:18:45.704Z</time>
      </trkpt>
      <trkpt lat="36.55112" lon="32.00897">
        <ele>23.087307</ele>
        <time>2022-02-25T11:18:55.012Z</time>
      </trkpt>
      <trkpt lat="36.5511" lon="32.00866">
        <ele>22.763616</ele>
        <time>2022-02-25T11:19:00.804Z</time>
      </trkpt>
      <trkpt lat="36.5511" lon="32.00809">
        <ele>22.172925</ele>
        <time>2022-02-25T11:19:11.350Z</time>
      </trkpt>
      <trkpt lat="36.55111" lon="32.00748">
        <ele>21.595652</ele>
        <time>2022-02-25T11:19:22.591Z</time>
      </trkpt>
      <trkpt lat="36.55109" lon="32.00724">
        <ele>21.370315</ele>
        <time>2022-02-25T11:19:26.881Z</time>
      </trkpt>
      <trkpt lat="36.55108" lon="32.00652">
        <ele>20.699971</ele>
        <time>2022-02-25T11:19:40.014Z</time>
      </trkpt>
      <trkpt lat="36.55109" lon="32.00588">
        <ele>20.105081</ele>
        <time>2022-02-25T11:19:52.662Z</time>
      </trkpt>
      <trkpt lat="36.55112" lon="32.00505">
        <ele>20.844245</ele>
        <time>2022-02-25T11:20:12.429Z</time>
      </trkpt>
      <trkpt lat="36.55114" lon="32.00439">
        <ele>21.672839</ele>
        <time>2022-02-25T11:20:31.131Z</time>
      </trkpt>
      <trkpt lat="36.55114" lon="32.00431">
        <ele>21.772506</ele>
        <time>2022-02-25T11:20:33.564Z</time>
      </trkpt>
      <trkpt lat="36.55115" lon="32.00338">
        <ele>23.078081</ele>
        <time>2022-02-25T11:21:03.936Z</time>
      </trkpt>
      <trkpt lat="36.55118" lon="32.00317">
        <ele>23.57794</ele>
        <time>2022-02-25T11:21:11.966Z</time>
      </trkpt>
      <trkpt lat="36.55121" lon="32.00202">
        <ele>26.253373</ele>
        <time>2022-02-25T11:21:52.768Z</time>
      </trkpt>
      <trkpt lat="36.55127" lon="32.00154">
        <ele>27.391412</ele>
        <time>2022-02-25T11:22:08.415Z</time>
      </trkpt>
      <trkpt lat="36.55134" lon="32.00078">
        <ele>28.761542</ele>
        <time>2022-02-25T11:22:31.421Z</time>
      </trkpt>
      <trkpt lat="36.55127" lon="32.00077">
        <ele>28.877831</ele>
        <time>2022-02-25T11:22:34.059Z</time>
      </trkpt>
      <trkpt lat="36.55128" lon="32.00069">
        <ele>28.996811</ele>
        <time>2022-02-25T11:22:36.311Z</time>
      </trkpt>
      <trkpt lat="36.55133" lon="32.0001">
        <ele>29.870156</ele>
        <time>2022-02-25T11:22:52.925Z</time>
      </trkpt>
      <trkpt lat="36.55134" lon="32.00001">
        <ele>30.006489</ele>
        <time>2022-02-25T11:22:55.589Z</time>
      </trkpt>
      <trkpt lat="36.55134" lon="31.99992">
        <ele>30.142822</ele>
        <time>2022-02-25T11:22:58.701Z</time>
      </trkpt>
      <trkpt lat="36.55134" lon="31.99918">
        <ele>31.235491</ele>
        <time>2022-02-25T11:23:18.421Z</time>
      </trkpt>
      <trkpt lat="36.55134" lon="31.99915">
        <ele>31.285794</ele>
        <time>2022-02-25T11:23:19.352Z</time>
      </trkpt>
      <trkpt lat="36.55133" lon="31.99906">
        <ele>31.384909</ele>
        <time>2022-02-25T11:23:22.050Z</time>
      </trkpt>
      <trkpt lat="36.5513" lon="31.99831">
        <ele>32.102466</ele>
        <time>2022-02-25T11:23:42.099Z</time>
      </trkpt>
      <trkpt lat="36.55129" lon="31.99811">
        <ele>32.296346</ele>
        <time>2022-02-25T11:23:48.264Z</time>
      </trkpt>
      <trkpt lat="36.55133" lon="31.99784">
        <ele>32.559741</ele>
        <time>2022-02-25T11:23:56.132Z</time>
      </trkpt>
      <trkpt lat="36.55146" lon="31.99737">
        <ele>33.040453</ele>
        <time>2022-02-25T11:24:09.819Z</time>
      </trkpt>
      <trkpt lat="36.55168" lon="31.99658">
        <ele>33.246256</ele>
        <time>2022-02-25T11:24:27.577Z</time>
      </trkpt>
      <trkpt lat="36.55177" lon="31.99612">
        <ele>32.962283</ele>
        <time>2022-02-25T11:24:36.415Z</time>
      </trkpt>
      <trkpt lat="36.55178" lon="31.99563">
        <ele>32.669685</ele>
        <time>2022-02-25T11:24:45.302Z</time>
      </trkpt>
      <trkpt lat="36.55172" lon="31.99499">
        <ele>32.281758</ele>
        <time>2022-02-25T11:24:57.024Z</time>
      </trkpt>
      <trkpt lat="36.55192" lon="31.99486">
        <ele>32.127613</ele>
        <time>2022-02-25T11:25:02.760Z</time>
      </trkpt>
      <trkpt lat="36.55212" lon="31.99461">
        <ele>32.10362</ele>
        <time>2022-02-25T11:25:09.475Z</time>
      </trkpt>
      <trkpt lat="36.55229" lon="31.99438">
        <ele>32.081487</ele>
        <time>2022-02-25T11:25:15.675Z</time>
      </trkpt>
      <trkpt lat="36.55259" lon="31.99374">
        <ele>32.029288</ele>
        <time>2022-02-25T11:25:31.748Z</time>
      </trkpt>
      <trkpt lat="36.55272" lon="31.99338">
        <ele>32.001424</ele>
        <time>2022-02-25T11:25:41.487Z</time>
      </trkpt>
      <trkpt lat="36.55283" lon="31.99313">
        <ele>31.980859</ele>
        <time>2022-02-25T11:25:48.895Z</time>
      </trkpt>
      <trkpt lat="36.55296" lon="31.99293">
        <ele>31.893577</ele>
        <time>2022-02-25T11:25:55.392Z</time>
      </trkpt>
      <trkpt lat="36.55331" lon="31.99253">
        <ele>31.555287</ele>
        <time>2022-02-25T11:26:08.776Z</time>
      </trkpt>
      <trkpt lat="36.5535" lon="31.99234">
        <ele>31.380756</ele>
        <time>2022-02-25T11:26:15.099Z</time>
      </trkpt>
      <trkpt lat="36.55368" lon="31.99223">
        <ele>31.239245</ele>
        <time>2022-02-25T11:26:19.733Z</time>
      </trkpt>
      <trkpt lat="36.5539" lon="31.99211">
        <ele>31.068341</ele>
        <time>2022-02-25T11:26:25.065Z</time>
      </trkpt>
      <trkpt lat="36.55406" lon="31.992">
        <ele>30.933632</ele>
        <time>2022-02-25T11:26:29.001Z</time>
      </trkpt>
      <trkpt lat="36.55415" lon="31.99197">
        <ele>30.867273</ele>
        <time>2022-02-25T11:26:31.212Z</time>
      </trkpt>
      <trkpt lat="36.55425" lon="31.99193">
        <ele>30.795834</ele>
        <time>2022-02-25T11:26:33.470Z</time>
      </trkpt>
      <trkpt lat="36.55485" lon="31.9915">
        <ele>29.557797</ele>
        <time>2022-02-25T11:26:47.929Z</time>
      </trkpt>
      <trkpt lat="36.55494" lon="31.9914">
        <ele>29.313536</ele>
        <time>2022-02-25T11:26:50.311Z</time>
      </trkpt>
      <trkpt lat="36.55496" lon="31.99137">
        <ele>29.245264</ele>
        <time>2022-02-25T11:26:50.869Z</time>
      </trkpt>
      <trkpt lat="36.55515" lon="31.99088">
        <ele>28.345242</ele>
        <time>2022-02-25T11:26:59.612Z</time>
      </trkpt>
      <trkpt lat="36.55568" lon="31.98986">
        <ele>27.089973</ele>
        <time>2022-02-25T11:27:20.532Z</time>
      </trkpt>
      <trkpt lat="36.55612" lon="31.98899">
        <ele>27.463368</ele>
        <time>2022-02-25T11:27:43.847Z</time>
      </trkpt>
      <trkpt lat="36.55627" lon="31.98877">
        <ele>27.571398</ele>
        <time>2022-02-25T11:27:53.229Z</time>
      </trkpt>
      <trkpt lat="36.55649" lon="31.98849">
        <ele>27.712401</ele>
        <time>2022-02-25T11:28:04.383Z</time>
      </trkpt>
      <trkpt lat="36.55659" lon="31.98843">
        <ele>27.762882</ele>
        <time>2022-02-25T11:28:07.220Z</time>
      </trkpt>
      <trkpt lat="36.55673" lon="31.98832">
        <ele>27.899974</ele>
        <time>2022-02-25T11:28:13.303Z</time>
      </trkpt>
      <trkpt lat="36.55674" lon="31.98833">
        <ele>27.915896</ele>
        <time>2022-02-25T11:28:14.231Z</time>
      </trkpt>
      <trkpt lat="36.55679" lon="31.98836">
        <ele>27.960916</ele>
        <time>2022-02-25T11:28:16.752Z</time>
      </trkpt>
      <trkpt lat="36.55684" lon="31.98837">
        <ele>28.006444</ele>
        <time>2022-02-25T11:28:18.383Z</time>
      </trkpt>
      <trkpt lat="36.55698" lon="31.98829">
        <ele>28.137849</ele>
        <time>2022-02-25T11:28:22.419Z</time>
      </trkpt>
      <trkpt lat="36.557" lon="31.98825">
        <ele>28.167711</ele>
        <time>2022-02-25T11:28:23.754Z</time>
      </trkpt>
      <trkpt lat="36.5571" lon="31.98816">
        <ele>28.270189</ele>
        <time>2022-02-25T11:28:29.332Z</time>
      </trkpt>
      <trkpt lat="36.55732" lon="31.98807">
        <ele>28.470087</ele>
        <time>2022-02-25T11:28:35.573Z</time>
      </trkpt>
      <trkpt lat="36.55744" lon="31.98813">
        <ele>28.576065</ele>
        <time>2022-02-25T11:28:41.300Z</time>
      </trkpt>
      <trkpt lat="36.55746" lon="31.98786">
        <ele>28.756817</ele>
        <time>2022-02-25T11:28:46.787Z</time>
      </trkpt>
      <trkpt lat="36.55745" lon="31.98764">
        <ele>28.909102</ele>
        <time>2022-02-25T11:28:53.731Z</time>
      </trkpt>
      <trkpt lat="36.55735" lon="31.98742">
        <ele>29.08151</ele>
        <time>2022-02-25T11:28:58.912Z</time>
      </trkpt>
      <trkpt lat="36.55715" lon="31.98716">
        <ele>29.248041</ele>
        <time>2022-02-25T11:29:06.988Z</time>
      </trkpt>
      <trkpt lat="36.55712" lon="31.98703">
        <ele>29.101759</ele>
        <time>2022-02-25T11:29:10.142Z</time>
      </trkpt>
      <trkpt lat="36.55712" lon="31.98681">
        <ele>28.877203</ele>
        <time>2022-02-25T11:29:14.364Z</time>
      </trkpt>
      <trkpt lat="36.55715" lon="31.9856">
        <ele>27.633894</ele>
        <time>2022-02-25T11:29:35.778Z</time>
      </trkpt>
      <trkpt lat="36.55716" lon="31.98528">
        <ele>27.301196</ele>
        <time>2022-02-25T11:29:41.664Z</time>
      </trkpt>
      <trkpt lat="36.55716" lon="31.98458">
        <ele>27.102456</ele>
        <time>2022-02-25T11:29:55.155Z</time>
      </trkpt>
      <trkpt lat="36.55715" lon="31.98242">
        <ele>27.889133</ele>
        <time>2022-02-25T11:30:49.661Z</time>
      </trkpt>
      <trkpt lat="36.55715" lon="31.982">
        <ele>28.247632</ele>
        <time>2022-02-25T11:31:01.771Z</time>
      </trkpt>
      <trkpt lat="36.55717" lon="31.98146">
        <ele>28.708843</ele>
        <time>2022-02-25T11:31:16.898Z</time>
      </trkpt>
      <trkpt lat="36.55726" lon="31.98095">
        <ele>29.157006</ele>
        <time>2022-02-25T11:31:30.933Z</time>
      </trkpt>
      <trkpt lat="36.55727" lon="31.98091">
        <ele>29.193707</ele>
        <time>2022-02-25T11:31:31.845Z</time>
      </trkpt>
      <trkpt lat="36.55763" lon="31.97897">
        <ele>30.803022</ele>
        <time>2022-02-25T11:32:20.743Z</time>
      </trkpt>
      <trkpt lat="36.55768" lon="31.97863">
        <ele>31.076869</ele>
        <time>2022-02-25T11:32:30.014Z</time>
      </trkpt>
      <trkpt lat="36.55782" lon="31.97799">
        <ele>32.366146</ele>
        <time>2022-02-25T11:32:49.907Z</time>
      </trkpt>
      <trkpt lat="36.5579" lon="31.97742">
        <ele>34.01106</ele>
        <time>2022-02-25T11:33:09.203Z</time>
      </trkpt>
      <trkpt lat="36.55819" lon="31.97653">
        <ele>36.751033</ele>
        <time>2022-02-25T11:33:45.967Z</time>
      </trkpt>
      <trkpt lat="36.5586" lon="31.97585">
        <ele>38.910838</ele>
        <time>2022-02-25T11:34:22.128Z</time>
      </trkpt>
      <trkpt lat="36.55903" lon="31.97536">
        <ele>40.639647</ele>
        <time>2022-02-25T11:34:51.586Z</time>
      </trkpt>
      <trkpt lat="36.55925" lon="31.97482">
        <ele>42.075875</ele>
        <time>2022-02-25T11:35:10.313Z</time>
      </trkpt>
      <trkpt lat="36.55931" lon="31.97467">
        <ele>42.459829</ele>
        <time>2022-02-25T11:35:15.902Z</time>
      </trkpt>
      <trkpt lat="36.55948" lon="31.97418">
        <ele>41.688241</ele>
        <time>2022-02-25T11:35:27.230Z</time>
      </trkpt>
      <trkpt lat="36.55963" lon="31.97349">
        <ele>38.686889</ele>
        <time>2022-02-25T11:35:38.189Z</time>
      </trkpt>
      <trkpt lat="36.55982" lon="31.97292">
        <ele>36.104287</ele>
        <time>2022-02-25T11:35:47.383Z</time>
      </trkpt>
      <trkpt lat="36.55991" lon="31.97243">
        <ele>34.021048</ele>
        <time>2022-02-25T11:35:54.341Z</time>
      </trkpt>
      <trkpt lat="36.55972" lon="31.97249">
        <ele>32.695264</ele>
        <time>2022-02-25T11:35:57.617Z</time>
      </trkpt>
      <trkpt lat="36.55826" lon="31.97238">
        <ele>20.993988</ele>
        <time>2022-02-25T11:36:22.981Z</time>
      </trkpt>
      <trkpt lat="36.55779" lon="31.97235">
        <ele>18.656148</ele>
        <time>2022-02-25T11:36:32.097Z</time>
      </trkpt>
      <trkpt lat="36.55787" lon="31.97138">
        <ele>16.897991</ele>
        <time>2022-02-25T11:36:48.696Z</time>
      </trkpt>
      <trkpt lat="36.55787" lon="31.97102">
        <ele>16.24783</ele>
        <time>2022-02-25T11:36:55.262Z</time>
      </trkpt>
      <trkpt lat="36.55791" lon="31.97053">
        <ele>15.355775</ele>
        <time>2022-02-25T11:37:05.876Z</time>
      </trkpt>
      <trkpt lat="36.55789" lon="31.97036">
        <ele>15.222936</ele>
        <time>2022-02-25T11:37:10.493Z</time>
      </trkpt>
      <trkpt lat="36.55769" lon="31.96942">
        <ele>15.862768</ele>
        <time>2022-02-25T11:37:37.804Z</time>
      </trkpt>
      <trkpt lat="36.55771" lon="31.9691">
        <ele>16.075191</ele>
        <time>2022-02-25T11:37:46.564Z</time>
      </trkpt>
      <trkpt lat="36.55777" lon="31.96861">
        <ele>16.396489</ele>
        <time>2022-02-25T11:37:58.703Z</time>
      </trkpt>
      <trkpt lat="36.55784" lon="31.96803">
        <ele>16.512797</ele>
        <time>2022-02-25T11:38:12.157Z</time>
      </trkpt>
      <trkpt lat="36.55787" lon="31.96786">
        <ele>16.402025</ele>
        <time>2022-02-25T11:38:15.954Z</time>
      </trkpt>
      <trkpt lat="36.55795" lon="31.96746">
        <ele>16.136381</ele>
        <time>2022-02-25T11:38:24.631Z</time>
      </trkpt>
      <trkpt lat="36.55812" lon="31.96709">
        <ele>15.857863</ele>
        <time>2022-02-25T11:38:33.314Z</time>
      </trkpt>
      <trkpt lat="36.55827" lon="31.96658">
        <ele>15.509371</ele>
        <time>2022-02-25T11:38:43.270Z</time>
      </trkpt>
      <trkpt lat="36.55845" lon="31.96578">
        <ele>14.652232</ele>
        <time>2022-02-25T11:38:56.945Z</time>
      </trkpt>
      <trkpt lat="36.55846" lon="31.96555">
        <ele>14.290433</ele>
        <time>2022-02-25T11:39:00.854Z</time>
      </trkpt>
      <trkpt lat="36.55838" lon="31.96499">
        <ele>13.416482</ele>
        <time>2022-02-25T11:39:10.157Z</time>
      </trkpt>
      <trkpt lat="36.5582" lon="31.96407">
        <ele>11.955479</ele>
        <time>2022-02-25T11:39:26.224Z</time>
      </trkpt>
      <trkpt lat="36.55829" lon="31.9638">
        <ele>11.668556</ele>
        <time>2022-02-25T11:39:31.554Z</time>
      </trkpt>
      <trkpt lat="36.55947" lon="31.95945">
        <ele>10.277067</ele>
        <time>2022-02-25T11:41:05.003Z</time>
      </trkpt>
      <trkpt lat="36.55958" lon="31.95897">
        <ele>10.445753</ele>
        <time>2022-02-25T11:41:15.021Z</time>
      </trkpt>
      <trkpt lat="36.55963" lon="31.95853">
        <ele>10.598052</ele>
        <time>2022-02-25T11:41:24.522Z</time>
      </trkpt>
      <trkpt lat="36.55964" lon="31.95836">
        <ele>10.65581</ele>
        <time>2022-02-25T11:41:28.223Z</time>
      </trkpt>
      <trkpt lat="36.55964" lon="31.95821">
        <ele>10.707453</ele>
        <time>2022-02-25T11:41:31.460Z</time>
      </trkpt>
      <trkpt lat="36.55962" lon="31.95443">
        <ele>13.717769</ele>
        <time>2022-02-25T11:43:18.938Z</time>
      </trkpt>
      <trkpt lat="36.55965" lon="31.95384">
        <ele>13.714566</ele>
        <time>2022-02-25T11:43:32.058Z</time>
      </trkpt>
      <trkpt lat="36.55971" lon="31.95347">
        <ele>13.712523</ele>
        <time>2022-02-25T11:43:39.019Z</time>
      </trkpt>
      <trkpt lat="36.55992" lon="31.95266">
        <ele>12.903085</ele>
        <time>2022-02-25T11:43:53.759Z</time>
      </trkpt>
      <trkpt lat="36.56068" lon="31.95077">
        <ele>8.909096</ele>
        <time>2022-02-25T11:44:27.814Z</time>
      </trkpt>
      <trkpt lat="36.56078" lon="31.95045">
        <ele>8.424788</ele>
        <time>2022-02-25T11:44:33.511Z</time>
      </trkpt>
      <trkpt lat="36.56085" lon="31.95024">
        <ele>8.102141</ele>
        <time>2022-02-25T11:44:37.337Z</time>
      </trkpt>
      <trkpt lat="36.56089" lon="31.95012">
        <ele>7.924786</ele>
        <time>2022-02-25T11:44:39.470Z</time>
      </trkpt>
      <trkpt lat="36.561" lon="31.94956">
        <ele>7.109949</ele>
        <time>2022-02-25T11:44:49.334Z</time>
      </trkpt>
      <trkpt lat="36.56105" lon="31.94923">
        <ele>6.640907</ele>
        <time>2022-02-25T11:44:55.281Z</time>
      </trkpt>
      <trkpt lat="36.56107" lon="31.94902">
        <ele>6.341968</ele>
        <time>2022-02-25T11:44:59.126Z</time>
      </trkpt>
      <trkpt lat="36.56109" lon="31.94782">
        <ele>7.321783</ele>
        <time>2022-02-25T11:45:25.271Z</time>
      </trkpt>
      <trkpt lat="36.56104" lon="31.94722">
        <ele>7.968733</ele>
        <time>2022-02-25T11:45:42.905Z</time>
      </trkpt>
      <trkpt lat="36.56092" lon="31.94656">
        <ele>8.9138</ele>
        <time>2022-02-25T11:46:05.906Z</time>
      </trkpt>
      <trkpt lat="36.5605" lon="31.94496">
        <ele>13.891581</ele>
        <time>2022-02-25T11:47:07.175Z</time>
      </trkpt>
      <trkpt lat="36.56034" lon="31.94424">
        <ele>15.860622</ele>
        <time>2022-02-25T11:47:34.438Z</time>
      </trkpt>
      <trkpt lat="36.56026" lon="31.94368">
        <ele>17.121416</ele>
        <time>2022-02-25T11:47:54.369Z</time>
      </trkpt>
      <trkpt lat="36.56025" lon="31.94296">
        <ele>18.687225</ele>
        <time>2022-02-25T11:48:17.075Z</time>
      </trkpt>
      <trkpt lat="36.56034" lon="31.94235">
        <ele>20.026999</ele>
        <time>2022-02-25T11:48:35.779Z</time>
      </trkpt>
      <trkpt lat="36.56053" lon="31.94161">
        <ele>20.938602</ele>
        <time>2022-02-25T11:48:59.485Z</time>
      </trkpt>
      <trkpt lat="36.56397" lon="31.92887">
        <ele>31.787373</ele>
        <time>2022-02-25T11:55:09.576Z</time>
      </trkpt>
      <trkpt lat="36.5643" lon="31.92773">
        <ele>26.724226</ele>
        <time>2022-02-25T11:55:25.866Z</time>
      </trkpt>
      <trkpt lat="36.56446" lon="31.92696">
        <ele>22.749328</ele>
        <time>2022-02-25T11:55:36.253Z</time>
      </trkpt>
      <trkpt lat="36.56463" lon="31.92536">
        <ele>13.987962</ele>
        <time>2022-02-25T11:55:58.763Z</time>
      </trkpt>
      <trkpt lat="36.56464" lon="31.92479">
        <ele>12.711006</ele>
        <time>2022-02-25T11:56:08.040Z</time>
      </trkpt>
      <trkpt lat="36.56466" lon="31.92419">
        <ele>11.793011</ele>
        <time>2022-02-25T11:56:18.090Z</time>
      </trkpt>
      <trkpt lat="36.5646" lon="31.92332">
        <ele>10.461474</ele>
        <time>2022-02-25T11:56:34.223Z</time>
      </trkpt>
      <trkpt lat="36.56451" lon="31.92246">
        <ele>10.376931</ele>
        <time>2022-02-25T11:56:52.346Z</time>
      </trkpt>
      <trkpt lat="36.56442" lon="31.92154">
        <ele>10.97571</ele>
        <time>2022-02-25T11:57:14.026Z</time>
      </trkpt>
      <trkpt lat="36.56442" lon="31.92107">
        <ele>11.282354</ele>
        <time>2022-02-25T11:57:26.769Z</time>
      </trkpt>
      <trkpt lat="36.56452" lon="31.92021">
        <ele>12.704111</ele>
        <time>2022-02-25T11:57:53.869Z</time>
      </trkpt>
      <trkpt lat="36.56461" lon="31.9198">
        <ele>13.570126</ele>
        <time>2022-02-25T11:58:07.742Z</time>
      </trkpt>
      <trkpt lat="36.56474" lon="31.9194">
        <ele>14.467543</ele>
        <time>2022-02-25T11:58:22.704Z</time>
      </trkpt>
      <trkpt lat="36.56512" lon="31.91845">
        <ele>16.036383</ele>
        <time>2022-02-25T11:58:59.167Z</time>
      </trkpt>
      <trkpt lat="36.56582" lon="31.91698">
        <ele>15.767353</ele>
        <time>2022-02-25T11:59:34.852Z</time>
      </trkpt>
      <trkpt lat="36.56652" lon="31.91568">
        <ele>13.169119</ele>
        <time>2022-02-25T11:59:59.754Z</time>
      </trkpt>
      <trkpt lat="36.56889" lon="31.91188">
        <ele>5.503187</ele>
        <time>2022-02-25T12:01:20.976Z</time>
      </trkpt>
      <trkpt lat="36.56901" lon="31.91169">
        <ele>5.195929</ele>
        <time>2022-02-25T12:01:25.360Z</time>
      </trkpt>
      <trkpt lat="36.56921" lon="31.91138">
        <ele>4.738625</ele>
        <time>2022-02-25T12:01:33.441Z</time>
      </trkpt>
      <trkpt lat="36.569" lon="31.91122">
        <ele>4.744758</ele>
        <time>2022-02-25T12:01:39.534Z</time>
      </trkpt>
      <trkpt lat="36.56893" lon="31.91111">
        <ele>4.747588</ele>
        <time>2022-02-25T12:01:42.732Z</time>
      </trkpt>
      <trkpt lat="36.5689" lon="31.91104">
        <ele>4.749115</ele>
        <time>2022-02-25T12:01:44.199Z</time>
      </trkpt>
      <trkpt lat="36.56906" lon="31.91079">
        <ele>4.755427</ele>
        <time>2022-02-25T12:01:51.391Z</time>
      </trkpt>
      <trkpt lat="36.56947" lon="31.91029">
        <ele>4.769643</ele>
        <time>2022-02-25T12:02:07.190Z</time>
      </trkpt>
      <trkpt lat="36.56967" lon="31.91001">
        <ele>4.777106</ele>
        <time>2022-02-25T12:02:16.164Z</time>
      </trkpt>
      <trkpt lat="36.56981" lon="31.90977">
        <ele>4.798785</ele>
        <time>2022-02-25T12:02:23.778Z</time>
      </trkpt>
      <trkpt lat="36.57039" lon="31.90886">
        <ele>5.294427</ele>
        <time>2022-02-25T12:02:53.939Z</time>
      </trkpt>
      <trkpt lat="36.57165" lon="31.90725">
        <ele>6.118572</ele>
        <time>2022-02-25T12:03:45.578Z</time>
      </trkpt>
      <trkpt lat="36.57248" lon="31.90597">
        <ele>7.256455</ele>
        <time>2022-02-25T12:04:26.262Z</time>
      </trkpt>
      <trkpt lat="36.57254" lon="31.90588">
        <ele>7.414094</ele>
        <time>2022-02-25T12:04:29.395Z</time>
      </trkpt>
      <trkpt lat="36.57262" lon="31.90576">
        <ele>7.609917</ele>
        <time>2022-02-25T12:04:33.557Z</time>
      </trkpt>
      <trkpt lat="36.57344" lon="31.90457">
        <ele>10.124161</ele>
        <time>2022-02-25T12:05:20.598Z</time>
      </trkpt>
      <trkpt lat="36.57401" lon="31.90389">
        <ele>13.430583</ele>
        <time>2022-02-25T12:05:56.646Z</time>
      </trkpt>
      <trkpt lat="36.5743" lon="31.90345">
        <ele>15.355663</ele>
        <time>2022-02-25T12:06:19.775Z</time>
      </trkpt>
      <trkpt lat="36.57542" lon="31.9021">
        <ele>23.646797</ele>
        <time>2022-02-25T12:07:48.148Z</time>
      </trkpt>
      <trkpt lat="36.57597" lon="31.90151">
        <ele>27.411368</ele>
        <time>2022-02-25T12:08:28.130Z</time>
      </trkpt>
      <trkpt lat="36.5761" lon="31.90137">
        <ele>27.859108</ele>
        <time>2022-02-25T12:08:37.677Z</time>
      </trkpt>
      <trkpt lat="36.5772" lon="31.90016">
        <ele>31.68539</ele>
        <time>2022-02-25T12:09:36.856Z</time>
      </trkpt>
      <trkpt lat="36.58206" lon="31.89547">
        <ele>20.319431</ele>
        <time>2022-02-25T12:11:50.581Z</time>
      </trkpt>
      <trkpt lat="36.58224" lon="31.89527">
        <ele>20.192941</ele>
        <time>2022-02-25T12:11:56.504Z</time>
      </trkpt>
      <trkpt lat="36.58229" lon="31.89522">
        <ele>20.161488</ele>
        <time>2022-02-25T12:11:59.233Z</time>
      </trkpt>
      <trkpt lat="36.58307" lon="31.89429">
        <ele>20.039694</ele>
        <time>2022-02-25T12:12:32.639Z</time>
      </trkpt>
      <trkpt lat="36.58366" lon="31.89338">
        <ele>21.034565</ele>
        <time>2022-02-25T12:13:03.423Z</time>
      </trkpt>
      <trkpt lat="36.58401" lon="31.89279">
        <ele>21.651774</ele>
        <time>2022-02-25T12:13:23.541Z</time>
      </trkpt>
      <trkpt lat="36.58428" lon="31.89219">
        <ele>21.827761</ele>
        <time>2022-02-25T12:13:43.251Z</time>
      </trkpt>
      <trkpt lat="36.58432" lon="31.89204">
        <ele>21.866687</ele>
        <time>2022-02-25T12:13:47.213Z</time>
      </trkpt>
      <trkpt lat="36.58418" lon="31.89174">
        <ele>21.955712</ele>
        <time>2022-02-25T12:13:58.241Z</time>
      </trkpt>
      <trkpt lat="36.58388" lon="31.89017">
        <ele>20.944683</ele>
        <time>2022-02-25T12:14:28.776Z</time>
      </trkpt>
      <trkpt lat="36.58385" lon="31.88997">
        <ele>20.477608</ele>
        <time>2022-02-25T12:14:33.029Z</time>
      </trkpt>
      <trkpt lat="36.5841" lon="31.88989">
        <ele>19.774773</ele>
        <time>2022-02-25T12:14:37.920Z</time>
      </trkpt>
      <trkpt lat="36.5849" lon="31.88957">
        <ele>17.45141</ele>
        <time>2022-02-25T12:14:55.253Z</time>
      </trkpt>
      <trkpt lat="36.58514" lon="31.88948">
        <ele>16.921248</ele>
        <time>2022-02-25T12:15:00.008Z</time>
      </trkpt>
      <trkpt lat="36.58523" lon="31.88912">
        <ele>16.354598</ele>
        <time>2022-02-25T12:15:07.927Z</time>
      </trkpt>
      <trkpt lat="36.58533" lon="31.8886">
        <ele>15.55748</ele>
        <time>2022-02-25T12:15:19.916Z</time>
      </trkpt>
      <trkpt lat="36.58547" lon="31.8877">
        <ele>14.181797</ele>
        <time>2022-02-25T12:15:42.708Z</time>
      </trkpt>
      <trkpt lat="36.58552" lon="31.88731">
        <ele>14.00234</ele>
        <time>2022-02-25T12:15:55.029Z</time>
      </trkpt>
      <trkpt lat="36.58558" lon="31.88743">
        <ele>14.077457</ele>
        <time>2022-02-25T12:15:58.497Z</time>
      </trkpt>
      <trkpt lat="36.58557" lon="31.8875">
        <ele>14.115255</ele>
        <time>2022-02-25T12:16:00.321Z</time>
      </trkpt>
      <trkpt lat="36.58558" lon="31.88757">
        <ele>14.153767</ele>
        <time>2022-02-25T12:16:02.191Z</time>
      </trkpt>
      <trkpt lat="36.58565" lon="31.88769">
        <ele>14.229985</ele>
        <time>2022-02-25T12:16:05.700Z</time>
      </trkpt>
      <trkpt lat="36.58577" lon="31.88771">
        <ele>14.306367</ele>
        <time>2022-02-25T12:16:09.292Z</time>
      </trkpt>
      <trkpt lat="36.58582" lon="31.88769">
        <ele>14.344753</ele>
        <time>2022-02-25T12:16:11.332Z</time>
      </trkpt>
      <trkpt lat="36.58585" lon="31.88767">
        <ele>14.361889</ele>
        <time>2022-02-25T12:16:12.140Z</time>
      </trkpt>
      <trkpt lat="36.58608" lon="31.88787">
        <ele>14.548254</ele>
        <time>2022-02-25T12:16:21.099Z</time>
      </trkpt>
      <trkpt lat="36.58621" lon="31.88793">
        <ele>14.63483</ele>
        <time>2022-02-25T12:16:25.549Z</time>
      </trkpt>
      <trkpt lat="36.58708" lon="31.88808">
        <ele>15.287167</ele>
        <time>2022-02-25T12:16:53.023Z</time>
      </trkpt>
      <trkpt lat="36.5872" lon="31.8881">
        <ele>15.412193</ele>
        <time>2022-02-25T12:16:57.234Z</time>
      </trkpt>
      <trkpt lat="36.58727" lon="31.88787">
        <ele>15.618429</ele>
        <time>2022-02-25T12:17:03.489Z</time>
      </trkpt>
      <trkpt lat="36.58742" lon="31.88764">
        <ele>15.866251</ele>
        <time>2022-02-25T12:17:11.697Z</time>
      </trkpt>
      <trkpt lat="36.58754" lon="31.88734">
        <ele>16.140647</ele>
        <time>2022-02-25T12:17:20.418Z</time>
      </trkpt>
      <trkpt lat="36.58774" lon="31.88703">
        <ele>16.473036</ele>
        <time>2022-02-25T12:17:30.964Z</time>
      </trkpt>
      <trkpt lat="36.58784" lon="31.88675">
        <ele>16.723983</ele>
        <time>2022-02-25T12:17:38.936Z</time>
      </trkpt>
      <trkpt lat="36.58812" lon="31.88592">
        <ele>17.476821</ele>
        <time>2022-02-25T12:18:03.105Z</time>
      </trkpt>
      <trkpt lat="36.58816" lon="31.88509">
        <ele>18.184707</ele>
        <time>2022-02-25T12:18:25.936Z</time>
      </trkpt>
      <trkpt lat="36.58771" lon="31.88326">
        <ele>18.816279</ele>
        <time>2022-02-25T12:19:13.697Z</time>
      </trkpt>
      <trkpt lat="36.58766" lon="31.88307">
        <ele>18.817282</ele>
        <time>2022-02-25T12:19:17.993Z</time>
      </trkpt>
      <trkpt lat="36.58763" lon="31.88298">
        <ele>18.817816</ele>
        <time>2022-02-25T12:19:20.131Z</time>
      </trkpt>
      <trkpt lat="36.58757" lon="31.88227">
        <ele>18.821518</ele>
        <time>2022-02-25T12:19:34.937Z</time>
      </trkpt>
      <trkpt lat="36.58756" lon="31.88207">
        <ele>18.589894</ele>
        <time>2022-02-25T12:19:38.819Z</time>
      </trkpt>
      <trkpt lat="36.58755" lon="31.88187">
        <ele>18.275471</ele>
        <time>2022-02-25T12:19:42.621Z</time>
      </trkpt>
      <trkpt lat="36.58743" lon="31.87999">
        <ele>15.216316</ele>
        <time>2022-02-25T12:20:15.480Z</time>
      </trkpt>
      <trkpt lat="36.58741" lon="31.87985">
        <ele>14.958187</ele>
        <time>2022-02-25T12:20:17.767Z</time>
      </trkpt>
      <trkpt lat="36.5874" lon="31.8797">
        <ele>14.683865</ele>
        <time>2022-02-25T12:20:20.378Z</time>
      </trkpt>
      <trkpt lat="36.58741" lon="31.87785">
        <ele>11.287402</ele>
        <time>2022-02-25T12:20:52.426Z</time>
      </trkpt>
      <trkpt lat="36.58755" lon="31.87634">
        <ele>9.162135</ele>
        <time>2022-02-25T12:21:20.187Z</time>
      </trkpt>
      <trkpt lat="36.58757" lon="31.87618">
        <ele>8.935434</ele>
        <time>2022-02-25T12:21:23.103Z</time>
      </trkpt>
      <trkpt lat="36.58757" lon="31.87612">
        <ele>8.863639</ele>
        <time>2022-02-25T12:21:23.949Z</time>
      </trkpt>
      <trkpt lat="36.58768" lon="31.87544">
        <ele>7.980265</ele>
        <time>2022-02-25T12:21:37.163Z</time>
      </trkpt>
      <trkpt lat="36.5877" lon="31.87532">
        <ele>7.920099</ele>
        <time>2022-02-25T12:21:39.258Z</time>
      </trkpt>
      <trkpt lat="36.58772" lon="31.87523">
        <ele>7.868669</ele>
        <time>2022-02-25T12:21:40.938Z</time>
      </trkpt>
      <trkpt lat="36.58785" lon="31.87481">
        <ele>7.638768</ele>
        <time>2022-02-25T12:21:49.321Z</time>
      </trkpt>
      <trkpt lat="36.588" lon="31.87401">
        <ele>7.215233</ele>
        <time>2022-02-25T12:22:06.399Z</time>
      </trkpt>
      <trkpt lat="36.58817" lon="31.87309">
        <ele>6.875144</ele>
        <time>2022-02-25T12:22:27.481Z</time>
      </trkpt>
      <trkpt lat="36.58824" lon="31.87291">
        <ele>6.879097</ele>
        <time>2022-02-25T12:22:32.236Z</time>
      </trkpt>
      <trkpt lat="36.58839" lon="31.87247">
        <ele>6.888656</ele>
        <time>2022-02-25T12:22:43.096Z</time>
      </trkpt>
      <trkpt lat="36.58854" lon="31.87203">
        <ele>6.898412</ele>
        <time>2022-02-25T12:22:54.028Z</time>
      </trkpt>
      <trkpt lat="36.58881" lon="31.8712">
        <ele>6.856521</ele>
        <time>2022-02-25T12:23:13.175Z</time>
      </trkpt>
      <trkpt lat="36.58905" lon="31.87005">
        <ele>6.046494</ele>
        <time>2022-02-25T12:23:35.325Z</time>
      </trkpt>
      <trkpt lat="36.58934" lon="31.86848">
        <ele>5.259803</ele>
        <time>2022-02-25T12:24:04.854Z</time>
      </trkpt>
      <trkpt lat="36.58956" lon="31.86732">
        <ele>5.019209</ele>
        <time>2022-02-25T12:24:29.010Z</time>
      </trkpt>
      <trkpt lat="36.59132" lon="31.86803">
        <ele>6.436247</ele>
        <time>2022-02-25T12:25:29.347Z</time>
      </trkpt>
      <trkpt lat="36.59132" lon="31.86796">
        <ele>6.491662</ele>
        <time>2022-02-25T12:25:31.293Z</time>
      </trkpt>
      <trkpt lat="36.5918" lon="31.86623">
        <ele>7.992228</ele>
        <time>2022-02-25T12:26:21.175Z</time>
      </trkpt>
      <trkpt lat="36.59198" lon="31.86522">
        <ele>8.4845</ele>
        <time>2022-02-25T12:26:46.848Z</time>
      </trkpt>
      <trkpt lat="36.59209" lon="31.86481">
        <ele>8.40061</ele>
        <time>2022-02-25T12:26:56.738Z</time>
      </trkpt>
      <trkpt lat="36.59216" lon="31.86466">
        <ele>8.36809</ele>
        <time>2022-02-25T12:27:00.366Z</time>
      </trkpt>
      <trkpt lat="36.59234" lon="31.86353">
        <ele>8.144838</ele>
        <time>2022-02-25T12:27:23.904Z</time>
      </trkpt>
      <trkpt lat="36.5922" lon="31.86349">
        <ele>8.080308</ele>
        <time>2022-02-25T12:27:27.504Z</time>
      </trkpt>
      <trkpt lat="36.59182" lon="31.86332">
        <ele>7.715601</ele>
        <time>2022-02-25T12:27:37.351Z</time>
      </trkpt>
      <trkpt lat="36.59176" lon="31.86331">
        <ele>7.652087</ele>
        <time>2022-02-25T12:27:39.007Z</time>
      </trkpt>
      <trkpt lat="36.59073" lon="31.86283">
        <ele>6.648484</ele>
        <time>2022-02-25T12:28:05.666Z</time>
      </trkpt>
      <trkpt lat="36.59097" lon="31.86223">
        <ele>6.194168</ele>
        <time>2022-02-25T12:28:17.954Z</time>
      </trkpt>
      <trkpt lat="36.59125" lon="31.86152">
        <ele>5.680113</ele>
        <time>2022-02-25T12:28:32.835Z</time>
      </trkpt>
      <trkpt lat="36.59133" lon="31.86137">
        <ele>5.565096</ele>
        <time>2022-02-25T12:28:36.302Z</time>
      </trkpt>
      <trkpt lat="36.59148" lon="31.86103">
        <ele>5.313127</ele>
        <time>2022-02-25T12:28:43.842Z</time>
      </trkpt>
      <trkpt lat="36.59151" lon="31.86102">
        <ele>5.28252</ele>
        <time>2022-02-25T12:28:44.782Z</time>
      </trkpt>
      <trkpt lat="36.59159" lon="31.86092">
        <ele>5.194587</ele>
        <time>2022-02-25T12:28:47.421Z</time>
      </trkpt>
      <trkpt lat="36.5916" lon="31.86087">
        <ele>5.16434</ele>
        <time>2022-02-25T12:28:48.335Z</time>
      </trkpt>
      <trkpt lat="36.59168" lon="31.8608">
        <ele>5.083614</ele>
        <time>2022-02-25T12:28:50.700Z</time>
      </trkpt>
      <trkpt lat="36.59251" lon="31.85951">
        <ele>4.909785</ele>
        <time>2022-02-25T12:29:24.257Z</time>
      </trkpt>
      <trkpt lat="36.59268" lon="31.85918">
        <ele>4.881242</ele>
        <time>2022-02-25T12:29:33.219Z</time>
      </trkpt>
      <trkpt lat="36.59272" lon="31.85903">
        <ele>4.869442</ele>
        <time>2022-02-25T12:29:36.888Z</time>
      </trkpt>
      <trkpt lat="36.59285" lon="31.85852">
        <ele>5.068533</ele>
        <time>2022-02-25T12:29:49.567Z</time>
      </trkpt>
      <trkpt lat="36.59288" lon="31.8584">
        <ele>5.130006</ele>
        <time>2022-02-25T12:29:52.571Z</time>
      </trkpt>
      <trkpt lat="36.59324" lon="31.85702">
        <ele>5.874602</ele>
        <time>2022-02-25T12:30:27.540Z</time>
      </trkpt>
      <trkpt lat="36.59342" lon="31.85628">
        <ele>6.144767</ele>
        <time>2022-02-25T12:30:46.196Z</time>
      </trkpt>
      <trkpt lat="36.59347" lon="31.85596">
        <ele>6.229157</ele>
        <time>2022-02-25T12:30:53.518Z</time>
      </trkpt>
      <trkpt lat="36.59367" lon="31.85524">
        <ele>6.431573</ele>
        <time>2022-02-25T12:31:10.682Z</time>
      </trkpt>
      <trkpt lat="36.59379" lon="31.85448">
        <ele>6.603202</ele>
        <time>2022-02-25T12:31:27.652Z</time>
      </trkpt>
      <trkpt lat="36.59383" lon="31.85427">
        <ele>6.611434</ele>
        <time>2022-02-25T12:31:32.328Z</time>
      </trkpt>
      <trkpt lat="36.59392" lon="31.85369">
        <ele>6.634098</ele>
        <time>2022-02-25T12:31:46.091Z</time>
      </trkpt>
      <trkpt lat="36.59397" lon="31.85336">
        <ele>6.646637</ele>
        <time>2022-02-25T12:31:53.396Z</time>
      </trkpt>
      <trkpt lat="36.59414" lon="31.85233">
        <ele>6.648117</ele>
        <time>2022-02-25T12:32:15.271Z</time>
      </trkpt>
      <trkpt lat="36.59419" lon="31.85202">
        <ele>6.527834</ele>
        <time>2022-02-25T12:32:21.781Z</time>
      </trkpt>
      <trkpt lat="36.59443" lon="31.85057">
        <ele>5.972708</ele>
        <time>2022-02-25T12:32:51.280Z</time>
      </trkpt>
      <trkpt lat="36.59468" lon="31.84901">
        <ele>5.58879</ele>
        <time>2022-02-25T12:33:21.606Z</time>
      </trkpt>
      <trkpt lat="36.59484" lon="31.84791">
        <ele>5.425233</ele>
        <time>2022-02-25T12:33:46.729Z</time>
      </trkpt>
      <trkpt lat="36.59486" lon="31.84782">
        <ele>5.459755</ele>
        <time>2022-02-25T12:33:48.991Z</time>
      </trkpt>
      <trkpt lat="36.59509" lon="31.84659">
        <ele>5.908551</ele>
        <time>2022-02-25T12:34:18.189Z</time>
      </trkpt>
      <trkpt lat="36.59513" lon="31.84625">
        <ele>6.03063</ele>
        <time>2022-02-25T12:34:26.394Z</time>
      </trkpt>
      <trkpt lat="36.59518" lon="31.84512">
        <ele>6.251912</ele>
        <time>2022-02-25T12:34:52.827Z</time>
      </trkpt>
      <trkpt lat="36.59523" lon="31.8434">
        <ele>6.387049</ele>
        <time>2022-02-25T12:35:29.416Z</time>
      </trkpt>
      <trkpt lat="36.59525" lon="31.84302">
        <ele>6.353196</ele>
        <time>2022-02-25T12:35:37.324Z</time>
      </trkpt>
      <trkpt lat="36.59528" lon="31.84276">
        <ele>6.330317</ele>
        <time>2022-02-25T12:35:42.655Z</time>
      </trkpt>
      <trkpt lat="36.59532" lon="31.84256">
        <ele>6.31179</ele>
        <time>2022-02-25T12:35:47.043Z</time>
      </trkpt>
      <trkpt lat="36.59537" lon="31.84245">
        <ele>6.300636</ele>
        <time>2022-02-25T12:35:49.701Z</time>
      </trkpt>
      <trkpt lat="36.59588" lon="31.84144">
        <ele>6.203186</ele>
        <time>2022-02-25T12:36:14.668Z</time>
      </trkpt>
      <trkpt lat="36.5961" lon="31.8411">
        <ele>6.191421</ele>
        <time>2022-02-25T12:36:23.942Z</time>
      </trkpt>
      <trkpt lat="36.59613" lon="31.84109">
        <ele>6.190175</ele>
        <time>2022-02-25T12:36:25.020Z</time>
      </trkpt>
      <trkpt lat="36.59619" lon="31.84104">
        <ele>6.187711</ele>
        <time>2022-02-25T12:36:26.981Z</time>
      </trkpt>
      <trkpt lat="36.59621" lon="31.841">
        <ele>6.186446</ele>
        <time>2022-02-25T12:36:28.030Z</time>
      </trkpt>
      <trkpt lat="36.59621" lon="31.84095">
        <ele>6.185197</ele>
        <time>2022-02-25T12:36:28.979Z</time>
      </trkpt>
      <trkpt lat="36.59619" lon="31.84087">
        <ele>6.182726</ele>
        <time>2022-02-25T12:36:30.894Z</time>
      </trkpt>
      <trkpt lat="36.59616" lon="31.84084">
        <ele>6.181463</ele>
        <time>2022-02-25T12:36:31.842Z</time>
      </trkpt>
      <trkpt lat="36.59642" lon="31.84029">
        <ele>6.164298</ele>
        <time>2022-02-25T12:36:45.703Z</time>
      </trkpt>
      <trkpt lat="36.5971" lon="31.83891">
        <ele>5.912084</ele>
        <time>2022-02-25T12:37:20.143Z</time>
      </trkpt>
      <trkpt lat="36.59891" lon="31.83553">
        <ele>4.986282</ele>
        <time>2022-02-25T12:38:40.413Z</time>
      </trkpt>
      <trkpt lat="36.599" lon="31.83514">
        <ele>5.159678</ele>
        <time>2022-02-25T12:38:49.826Z</time>
      </trkpt>
      <trkpt lat="36.59914" lon="31.8307">
        <ele>7.684079</ele>
        <time>2022-02-25T12:40:42.937Z</time>
      </trkpt>
      <trkpt lat="36.59914" lon="31.83048">
        <ele>7.698878</ele>
        <time>2022-02-25T12:40:47.642Z</time>
      </trkpt>
      <trkpt lat="36.59913" lon="31.82958">
        <ele>7.757692</ele>
        <time>2022-02-25T12:41:05.604Z</time>
      </trkpt>
      <trkpt lat="36.59909" lon="31.82914">
        <ele>7.619315</ele>
        <time>2022-02-25T12:41:13.875Z</time>
      </trkpt>
      <trkpt lat="36.59904" lon="31.82872">
        <ele>7.304834</ele>
        <time>2022-02-25T12:41:21.809Z</time>
      </trkpt>
      <trkpt lat="36.59861" lon="31.82641">
        <ele>5.624116</ele>
        <time>2022-02-25T12:42:06.253Z</time>
      </trkpt>
      <trkpt lat="36.5986" lon="31.82612">
        <ele>5.442999</ele>
        <time>2022-02-25T12:42:11.555Z</time>
      </trkpt>
      <trkpt lat="36.59865" lon="31.82587">
        <ele>5.272976</ele>
        <time>2022-02-25T12:42:16.549Z</time>
      </trkpt>
      <trkpt lat="36.59936" lon="31.82439">
        <ele>4.646704</ele>
        <time>2022-02-25T12:42:49.866Z</time>
      </trkpt>
      <trkpt lat="36.6002" lon="31.82266">
        <ele>4.90728</ele>
        <time>2022-02-25T12:43:35.381Z</time>
      </trkpt>
      <trkpt lat="36.60038" lon="31.82227">
        <ele>5.155638</ele>
        <time>2022-02-25T12:43:46.404Z</time>
      </trkpt>
      <trkpt lat="36.60053" lon="31.82198">
        <ele>5.347163</ele>
        <time>2022-02-25T12:43:55.010Z</time>
      </trkpt>
      <trkpt lat="36.60068" lon="31.82179">
        <ele>5.496458</ele>
        <time>2022-02-25T12:44:01.638Z</time>
      </trkpt>
      <trkpt lat="36.60087" lon="31.82167">
        <ele>5.643818</ele>
        <time>2022-02-25T12:44:08.198Z</time>
      </trkpt>
      <trkpt lat="36.60122" lon="31.82153">
        <ele>5.921063</ele>
        <time>2022-02-25T12:44:19.608Z</time>
      </trkpt>
      <trkpt lat="36.60168" lon="31.82121">
        <ele>6.411353</ele>
        <time>2022-02-25T12:44:36.156Z</time>
      </trkpt>
      <trkpt lat="36.60183" lon="31.82099">
        <ele>6.627957</ele>
        <time>2022-02-25T12:44:43.279Z</time>
      </trkpt>
      <trkpt lat="36.60227" lon="31.8199">
        <ele>7.551382</ele>
        <time>2022-02-25T12:45:13.716Z</time>
      </trkpt>
      <trkpt lat="36.60263" lon="31.81921">
        <ele>8.477636</ele>
        <time>2022-02-25T12:45:34.250Z</time>
      </trkpt>
      <trkpt lat="36.60269" lon="31.81905">
        <ele>8.688484</ele>
        <time>2022-02-25T12:45:39.263Z</time>
      </trkpt>
      <trkpt lat="36.6027" lon="31.8189">
        <ele>8.859673</ele>
        <time>2022-02-25T12:45:43.096Z</time>
      </trkpt>
      <trkpt lat="36.60239" lon="31.81781">
        <ele>10.108083</ele>
        <time>2022-02-25T12:46:16.151Z</time>
      </trkpt>
      <trkpt lat="36.60234" lon="31.81753">
        <ele>10.293044</ele>
        <time>2022-02-25T12:46:24.447Z</time>
      </trkpt>
      <trkpt lat="36.60236" lon="31.81701">
        <ele>10.63124</ele>
        <time>2022-02-25T12:46:39.004Z</time>
      </trkpt>
      <trkpt lat="36.6024" lon="31.81631">
        <ele>11.084028</ele>
        <time>2022-02-25T12:46:55.389Z</time>
      </trkpt>
      <trkpt lat="36.60243" lon="31.81603">
        <ele>11.266321</ele>
        <time>2022-02-25T12:47:01.356Z</time>
      </trkpt>
      <trkpt lat="36.60248" lon="31.81553">
        <ele>11.239457</ele>
        <time>2022-02-25T12:47:11.880Z</time>
      </trkpt>
      <trkpt lat="36.60251" lon="31.81528">
        <ele>10.891814</ele>
        <time>2022-02-25T12:47:16.884Z</time>
      </trkpt>
      <trkpt lat="36.60251" lon="31.81449">
        <ele>9.823636</ele>
        <time>2022-02-25T12:47:31.260Z</time>
      </trkpt>
      <trkpt lat="36.60259" lon="31.81367">
        <ele>8.717317</ele>
        <time>2022-02-25T12:47:44.470Z</time>
      </trkpt>
      <trkpt lat="36.60262" lon="31.8133">
        <ele>8.16616</ele>
        <time>2022-02-25T12:47:50.357Z</time>
      </trkpt>
      <trkpt lat="36.60269" lon="31.81306">
        <ele>7.743741</ele>
        <time>2022-02-25T12:47:54.508Z</time>
      </trkpt>
      <trkpt lat="36.60291" lon="31.81266">
        <ele>6.960216</ele>
        <time>2022-02-25T12:48:02.498Z</time>
      </trkpt>
      <trkpt lat="36.60314" lon="31.81223">
        <ele>6.128001</ele>
        <time>2022-02-25T12:48:11.256Z</time>
      </trkpt>
      <trkpt lat="36.60334" lon="31.81183">
        <ele>5.369722</ele>
        <time>2022-02-25T12:48:19.386Z</time>
      </trkpt>
      <trkpt lat="36.60388" lon="31.81044">
        <ele>4.180883</ele>
        <time>2022-02-25T12:48:47.650Z</time>
      </trkpt>
      <trkpt lat="36.6051" lon="31.80753">
        <ele>3.789282</ele>
        <time>2022-02-25T12:49:58.699Z</time>
      </trkpt>
      <trkpt lat="36.60533" lon="31.80697">
        <ele>4.095774</ele>
        <time>2022-02-25T12:50:12.944Z</time>
      </trkpt>
      <trkpt lat="36.60546" lon="31.8065">
        <ele>4.337413</ele>
        <time>2022-02-25T12:50:24.593Z</time>
      </trkpt>
      <trkpt lat="36.60563" lon="31.80535">
        <ele>4.938503</ele>
        <time>2022-02-25T12:50:53.357Z</time>
      </trkpt>
      <trkpt lat="36.60575" lon="31.80491">
        <ele>5.345797</ele>
        <time>2022-02-25T12:51:04.911Z</time>
      </trkpt>
      <trkpt lat="36.6059" lon="31.8047">
        <ele>5.59538</ele>
        <time>2022-02-25T12:51:12.219Z</time>
      </trkpt>
      <trkpt lat="36.60639" lon="31.80378">
        <ele>6.575966</ele>
        <time>2022-02-25T12:51:40.944Z</time>
      </trkpt>
      <trkpt lat="36.60706" lon="31.803">
        <ele>7.485392</ele>
        <time>2022-02-25T12:52:10.509Z</time>
      </trkpt>
      <trkpt lat="36.60739" lon="31.80252">
        <ele>7.956327</ele>
        <time>2022-02-25T12:52:25.985Z</time>
      </trkpt>
      <trkpt lat="36.60809" lon="31.80123">
        <ele>9.142626</ele>
        <time>2022-02-25T12:53:04.198Z</time>
      </trkpt>
      <trkpt lat="36.60837" lon="31.80084">
        <ele>9.537228</ele>
        <time>2022-02-25T12:53:17.156Z</time>
      </trkpt>
      <trkpt lat="36.6088" lon="31.80043">
        <ele>10.055177</ele>
        <time>2022-02-25T12:53:34.935Z</time>
      </trkpt>
      <trkpt lat="36.6093" lon="31.80007">
        <ele>10.526599</ele>
        <time>2022-02-25T12:53:53.037Z</time>
      </trkpt>
      <trkpt lat="36.60995" lon="31.7998">
        <ele>11.04072</ele>
        <time>2022-02-25T12:54:13.335Z</time>
      </trkpt>
      <trkpt lat="36.61012" lon="31.79963">
        <ele>11.20464</ele>
        <time>2022-02-25T12:54:19.500Z</time>
      </trkpt>
      <trkpt lat="36.61031" lon="31.79935">
        <ele>11.423933</ele>
        <time>2022-02-25T12:54:28.242Z</time>
      </trkpt>
      <trkpt lat="36.61036" lon="31.79928">
        <ele>11.479564</ele>
        <time>2022-02-25T12:54:30.707Z</time>
      </trkpt>
      <trkpt lat="36.61047" lon="31.7991">
        <ele>11.615426</ele>
        <time>2022-02-25T12:54:36.350Z</time>
      </trkpt>
      <trkpt lat="36.61059" lon="31.79889">
        <ele>11.98036</ele>
        <time>2022-02-25T12:54:42.610Z</time>
      </trkpt>
      <trkpt lat="36.61079" lon="31.79835">
        <ele>12.824626</ele>
        <time>2022-02-25T12:54:57.790Z</time>
      </trkpt>
      <trkpt lat="36.61081" lon="31.79817">
        <ele>13.076675</ele>
        <time>2022-02-25T12:55:01.873Z</time>
      </trkpt>
      <trkpt lat="36.61086" lon="31.79799">
        <ele>13.340907</ele>
        <time>2022-02-25T12:55:07.945Z</time>
      </trkpt>
      <trkpt lat="36.61082" lon="31.79668">
        <ele>15.473349</ele>
        <time>2022-02-25T12:55:47.802Z</time>
      </trkpt>
      <trkpt lat="36.61082" lon="31.79635">
        <ele>16.260558</ele>
        <time>2022-02-25T12:55:59.086Z</time>
      </trkpt>
      <trkpt lat="36.61082" lon="31.79615">
        <ele>16.75287</ele>
        <time>2022-02-25T12:56:07.327Z</time>
      </trkpt>
      <trkpt lat="36.61092" lon="31.79538">
        <ele>18.597664</ele>
        <time>2022-02-25T12:56:33.752Z</time>
      </trkpt>
      <trkpt lat="36.61113" lon="31.79478">
        <ele>20.093148</ele>
        <time>2022-02-25T12:56:54.790Z</time>
      </trkpt>
      <trkpt lat="36.61118" lon="31.79453">
        <ele>20.199678</ele>
        <time>2022-02-25T12:57:03.288Z</time>
      </trkpt>
      <trkpt lat="36.6112" lon="31.79429">
        <ele>20.300005</ele>
        <time>2022-02-25T12:57:09.807Z</time>
      </trkpt>
      <trkpt lat="36.61119" lon="31.79392">
        <ele>20.455421</ele>
        <time>2022-02-25T12:57:19.506Z</time>
      </trkpt>
      <trkpt lat="36.6108" lon="31.79032">
        <ele>19.832403</ele>
        <time>2022-02-25T12:58:30.962Z</time>
      </trkpt>
      <trkpt lat="36.61077" lon="31.79">
        <ele>19.64094</ele>
        <time>2022-02-25T12:58:36.629Z</time>
      </trkpt>
      <trkpt lat="36.6107" lon="31.78975">
        <ele>19.48057</ele>
        <time>2022-02-25T12:58:41.560Z</time>
      </trkpt>
      <trkpt lat="36.61055" lon="31.78944">
        <ele>19.270206</ele>
        <time>2022-02-25T12:58:47.874Z</time>
      </trkpt>
      <trkpt lat="36.60958" lon="31.78796">
        <ele>18.621368</ele>
        <time>2022-02-25T12:59:25.789Z</time>
      </trkpt>
      <trkpt lat="36.60949" lon="31.78769">
        <ele>18.661294</ele>
        <time>2022-02-25T12:59:32.699Z</time>
      </trkpt>
      <trkpt lat="36.60943" lon="31.78707">
        <ele>18.747146</ele>
        <time>2022-02-25T12:59:47.770Z</time>
      </trkpt>
      <trkpt lat="36.60938" lon="31.78629">
        <ele>18.826505</ele>
        <time>2022-02-25T13:00:06.290Z</time>
      </trkpt>
      <trkpt lat="36.60942" lon="31.78451">
        <ele>18.680234</ele>
        <time>2022-02-25T13:00:41.464Z</time>
      </trkpt>
      <trkpt lat="36.60938" lon="31.78433">
        <ele>18.664558</ele>
        <time>2022-02-25T13:00:45.854Z</time>
      </trkpt>
      <trkpt lat="36.60933" lon="31.78383">
        <ele>19.279498</ele>
        <time>2022-02-25T13:00:57.202Z</time>
      </trkpt>
      <trkpt lat="36.60934" lon="31.78337">
        <ele>20.079445</ele>
        <time>2022-02-25T13:01:09.881Z</time>
      </trkpt>
      <trkpt lat="36.60947" lon="31.78295">
        <ele>20.867156</ele>
        <time>2022-02-25T13:01:23.843Z</time>
      </trkpt>
      <trkpt lat="36.60954" lon="31.78285">
        <ele>21.083944</ele>
        <time>2022-02-25T13:01:27.025Z</time>
      </trkpt>
      <trkpt lat="36.60962" lon="31.78276">
        <ele>21.313315</ele>
        <time>2022-02-25T13:01:32.658Z</time>
      </trkpt>
      <trkpt lat="36.60981" lon="31.78266">
        <ele>21.767728</ele>
        <time>2022-02-25T13:01:40.489Z</time>
      </trkpt>
      <trkpt lat="36.61006" lon="31.78267">
        <ele>22.319864</ele>
        <time>2022-02-25T13:01:52.567Z</time>
      </trkpt>
      <trkpt lat="36.61026" lon="31.78276">
        <ele>23.050108</ele>
        <time>2022-02-25T13:02:02.328Z</time>
      </trkpt>
      <trkpt lat="36.61051" lon="31.78299">
        <ele>24.475153</ele>
        <time>2022-02-25T13:02:17.221Z</time>
      </trkpt>
      <trkpt lat="36.61071" lon="31.78285">
        <ele>25.581433</ele>
        <time>2022-02-25T13:02:30.595Z</time>
      </trkpt>
      <trkpt lat="36.6111" lon="31.78245">
        <ele>27.91666</ele>
        <time>2022-02-25T13:02:58.157Z</time>
      </trkpt>
      <trkpt lat="36.61126" lon="31.78203">
        <ele>29.661138</ele>
        <time>2022-02-25T13:03:18.257Z</time>
      </trkpt>
      <trkpt lat="36.61137" lon="31.78188">
        <ele>30.413359</ele>
        <time>2022-02-25T13:03:27.231Z</time>
      </trkpt>
      <trkpt lat="36.61159" lon="31.78174">
        <ele>30.904432</ele>
        <time>2022-02-25T13:03:38.059Z</time>
      </trkpt>
      <trkpt lat="36.61213" lon="31.78159">
        <ele>30.599883</ele>
        <time>2022-02-25T13:03:58.896Z</time>
      </trkpt>
      <trkpt lat="36.61217" lon="31.78156">
        <ele>30.572562</ele>
        <time>2022-02-25T13:03:59.962Z</time>
      </trkpt>
      <trkpt lat="36.61216" lon="31.7814">
        <ele>30.501597</ele>
        <time>2022-02-25T13:04:03.342Z</time>
      </trkpt>
      <trkpt lat="36.61212" lon="31.78119">
        <ele>30.407785</ele>
        <time>2022-02-25T13:04:09.984Z</time>
      </trkpt>
      <trkpt lat="36.61211" lon="31.78117">
        <ele>30.395442</ele>
        <time>2022-02-25T13:04:10.356Z</time>
      </trkpt>
      <trkpt lat="36.61214" lon="31.78023">
        <ele>29.936397</ele>
        <time>2022-02-25T13:04:25.812Z</time>
      </trkpt>
      <trkpt lat="36.61209" lon="31.7797">
        <ele>27.082491</ele>
        <time>2022-02-25T13:04:33.721Z</time>
      </trkpt>
      <trkpt lat="36.61196" lon="31.77912">
        <ele>23.897239</ele>
        <time>2022-02-25T13:04:42.249Z</time>
      </trkpt>
      <trkpt lat="36.6118" lon="31.77874">
        <ele>21.637103</ele>
        <time>2022-02-25T13:04:48.230Z</time>
      </trkpt>
      <trkpt lat="36.61173" lon="31.7786">
        <ele>20.766399</ele>
        <time>2022-02-25T13:04:50.564Z</time>
      </trkpt>
      <trkpt lat="36.61161" lon="31.77845">
        <ele>19.598397</ele>
        <time>2022-02-25T13:04:53.688Z</time>
      </trkpt>
      <trkpt lat="36.61167" lon="31.77839">
        <ele>19.109652</ele>
        <time>2022-02-25T13:04:54.977Z</time>
      </trkpt>
      <trkpt lat="36.61171" lon="31.77833">
        <ele>18.702278</ele>
        <time>2022-02-25T13:04:56.030Z</time>
      </trkpt>
      <trkpt lat="36.61211" lon="31.77792">
        <ele>16.471286</ele>
        <time>2022-02-25T13:05:05.027Z</time>
      </trkpt>
      <trkpt lat="36.61272" lon="31.77723">
        <ele>13.401047</ele>
        <time>2022-02-25T13:05:20.391Z</time>
      </trkpt>
      <trkpt lat="36.61277" lon="31.77716">
        <ele>13.109363</ele>
        <time>2022-02-25T13:05:22.133Z</time>
      </trkpt>
      <trkpt lat="36.61282" lon="31.77711">
        <ele>12.88392</ele>
        <time>2022-02-25T13:05:23.484Z</time>
      </trkpt>
      <trkpt lat="36.61315" lon="31.77676">
        <ele>11.320619</ele>
        <time>2022-02-25T13:05:33.399Z</time>
      </trkpt>
      <trkpt lat="36.6144" lon="31.77541">
        <ele>11.524669</ele>
        <time>2022-02-25T13:06:20.580Z</time>
      </trkpt>
      <trkpt lat="36.61596" lon="31.77378">
        <ele>12.130688</ele>
        <time>2022-02-25T13:07:18.466Z</time>
      </trkpt>
      <trkpt lat="36.61624" lon="31.77349">
        <ele>12.110542</ele>
        <time>2022-02-25T13:07:28.584Z</time>
      </trkpt>
      <trkpt lat="36.61636" lon="31.77336">
        <ele>12.102116</ele>
        <time>2022-02-25T13:07:32.670Z</time>
      </trkpt>
      <trkpt lat="36.6168" lon="31.77287">
        <ele>12.06967</ele>
        <time>2022-02-25T13:07:48.478Z</time>
      </trkpt>
      <trkpt lat="36.61836" lon="31.77116">
        <ele>11.634645</ele>
        <time>2022-02-25T13:08:40.330Z</time>
      </trkpt>
      <trkpt lat="36.61859" lon="31.7709">
        <ele>11.562993</ele>
        <time>2022-02-25T13:08:48.634Z</time>
      </trkpt>
      <trkpt lat="36.61932" lon="31.77009">
        <ele>12.10711</ele>
        <time>2022-02-25T13:09:16.886Z</time>
      </trkpt>
      <trkpt lat="36.61977" lon="31.76962">
        <ele>12.431365</ele>
        <time>2022-02-25T13:09:34.998Z</time>
      </trkpt>
      <trkpt lat="36.6223" lon="31.76694">
        <ele>14.621532</ele>
        <time>2022-02-25T13:11:15.725Z</time>
      </trkpt>
      <trkpt lat="36.62251" lon="31.76669">
        <ele>14.780296</ele>
        <time>2022-02-25T13:11:23.745Z</time>
      </trkpt>
      <trkpt lat="36.62363" lon="31.76548">
        <ele>14.415315</ele>
        <time>2022-02-25T13:12:02.420Z</time>
      </trkpt>
      <trkpt lat="36.62479" lon="31.76421">
        <ele>13.111183</ele>
        <time>2022-02-25T13:12:37.891Z</time>
      </trkpt>
      <trkpt lat="36.62484" lon="31.7643">
        <ele>13.019467</ele>
        <time>2022-02-25T13:12:39.969Z</time>
      </trkpt>
      <trkpt lat="36.62486" lon="31.76433">
        <ele>12.986621</ele>
        <time>2022-02-25T13:12:40.720Z</time>
      </trkpt>
      <trkpt lat="36.62573" lon="31.76337">
        <ele>11.966853</ele>
        <time>2022-02-25T13:13:08.262Z</time>
      </trkpt>
      <trkpt lat="36.62647" lon="31.76255">
        <ele>11.397079</ele>
        <time>2022-02-25T13:13:32.403Z</time>
      </trkpt>
      <trkpt lat="36.62693" lon="31.76204">
        <ele>11.675281</ele>
        <time>2022-02-25T13:13:51.684Z</time>
      </trkpt>
      <trkpt lat="36.62702" lon="31.76195">
        <ele>11.837883</ele>
        <time>2022-02-25T13:13:55.497Z</time>
      </trkpt>
      <trkpt lat="36.6271" lon="31.76182">
        <ele>12.039651</ele>
        <time>2022-02-25T13:14:00.157Z</time>
      </trkpt>
      <trkpt lat="36.62712" lon="31.76174">
        <ele>12.142576</ele>
        <time>2022-02-25T13:14:02.580Z</time>
      </trkpt>
      <trkpt lat="36.62846" lon="31.76046">
        <ele>14.68379</ele>
        <time>2022-02-25T13:15:03.316Z</time>
      </trkpt>
      <trkpt lat="36.62864" lon="31.76025">
        <ele>15.061732</ele>
        <time>2022-02-25T13:15:12.399Z</time>
      </trkpt>
      <trkpt lat="36.62871" lon="31.76018">
        <ele>15.20639</ele>
        <time>2022-02-25T13:15:15.882Z</time>
      </trkpt>
      <trkpt lat="36.62879" lon="31.76009">
        <ele>15.366844</ele>
        <time>2022-02-25T13:15:19.585Z</time>
      </trkpt>
      <trkpt lat="36.62897" lon="31.75991">
        <ele>15.712432</ele>
        <time>2022-02-25T13:15:27.543Z</time>
      </trkpt>
      <trkpt lat="36.62951" lon="31.7593">
        <ele>16.629036</ele>
        <time>2022-02-25T13:15:51.497Z</time>
      </trkpt>
      <trkpt lat="36.63161" lon="31.75688">
        <ele>14.552766</ele>
        <time>2022-02-25T13:17:01.957Z</time>
      </trkpt>
      <trkpt lat="36.6321" lon="31.75636">
        <ele>13.601577</ele>
        <time>2022-02-25T13:17:14.519Z</time>
      </trkpt>
      <trkpt lat="36.63229" lon="31.75615">
        <ele>12.873266</ele>
        <time>2022-02-25T13:17:19.442Z</time>
      </trkpt>
      <trkpt lat="36.63252" lon="31.7559">
        <ele>12.005894</ele>
        <time>2022-02-25T13:17:25.346Z</time>
      </trkpt>
      <trkpt lat="36.63336" lon="31.75498">
        <ele>8.81354</ele>
        <time>2022-02-25T13:17:47.618Z</time>
      </trkpt>
      <trkpt lat="36.63403" lon="31.75425">
        <ele>7.986714</ele>
        <time>2022-02-25T13:18:07.083Z</time>
      </trkpt>
      <trkpt lat="36.6344" lon="31.75387">
        <ele>7.649889</ele>
        <time>2022-02-25T13:18:18.896Z</time>
      </trkpt>
      <trkpt lat="36.63495" lon="31.75326">
        <ele>7.473417</ele>
        <time>2022-02-25T13:18:40.660Z</time>
      </trkpt>
      <trkpt lat="36.6356" lon="31.75257">
        <ele>8.264667</ele>
        <time>2022-02-25T13:19:06.992Z</time>
      </trkpt>
      <trkpt lat="36.63605" lon="31.75206">
        <ele>8.835158</ele>
        <time>2022-02-25T13:19:26.679Z</time>
      </trkpt>
      <trkpt lat="36.63645" lon="31.75157">
        <ele>9.341607</ele>
        <time>2022-02-25T13:19:45.260Z</time>
      </trkpt>
      <trkpt lat="36.63718" lon="31.7505">
        <ele>10.338225</ele>
        <time>2022-02-25T13:20:20.011Z</time>
      </trkpt>
      <trkpt lat="36.63804" lon="31.74881">
        <ele>12.401273</ele>
        <time>2022-02-25T13:21:06.033Z</time>
      </trkpt>
      <trkpt lat="36.63823" lon="31.74833">
        <ele>12.992141</ele>
        <time>2022-02-25T13:21:23.476Z</time>
      </trkpt>
      <trkpt lat="36.63842" lon="31.74849">
        <ele>14.41915</ele>
        <time>2022-02-25T13:21:35.275Z</time>
      </trkpt>
      <trkpt lat="36.63883" lon="31.7488">
        <ele>17.415607</ele>
        <time>2022-02-25T13:21:58.878Z</time>
      </trkpt>
      <trkpt lat="36.63894" lon="31.74883">
        <ele>18.137794</ele>
        <time>2022-02-25T13:22:07.594Z</time>
      </trkpt>
      <trkpt lat="36.639" lon="31.74878">
        <ele>18.557048</ele>
        <time>2022-02-25T13:22:10.965Z</time>
      </trkpt>
      <trkpt lat="36.6391" lon="31.74872">
        <ele>19.226746</ele>
        <time>2022-02-25T13:22:16.209Z</time>
      </trkpt>
      <trkpt lat="36.63915" lon="31.7487">
        <ele>19.607554</ele>
        <time>2022-02-25T13:22:19.036Z</time>
      </trkpt>
      <trkpt lat="36.63921" lon="31.74868">
        <ele>19.962551</ele>
        <time>2022-02-25T13:22:24.728Z</time>
      </trkpt>
      <trkpt lat="36.63952" lon="31.74864">
        <ele>21.904815</ele>
        <time>2022-02-25T13:22:42.627Z</time>
      </trkpt>
      <trkpt lat="36.64059" lon="31.7488">
        <ele>30.275737</ele>
        <time>2022-02-25T13:24:00.562Z</time>
      </trkpt>
      <trkpt lat="36.64085" lon="31.749">
        <ele>32.982719</ele>
        <time>2022-02-25T13:24:25.083Z</time>
      </trkpt>
      <trkpt lat="36.64111" lon="31.74931">
        <ele>36.076455</ele>
        <time>2022-02-25T13:24:49.504Z</time>
      </trkpt>
      <trkpt lat="36.64143" lon="31.74949">
        <ele>39.1173</ele>
        <time>2022-02-25T13:25:12.172Z</time>
      </trkpt>
      <trkpt lat="36.64155" lon="31.74944">
        <ele>39.945871</ele>
        <time>2022-02-25T13:25:18.726Z</time>
      </trkpt>
      <trkpt lat="36.64159" lon="31.74942">
        <ele>40.147433</ele>
        <time>2022-02-25T13:25:23.507Z</time>
      </trkpt>
      <trkpt lat="36.64167" lon="31.74943">
        <ele>40.566752</ele>
        <time>2022-02-25T13:25:28.338Z</time>
      </trkpt>
      <trkpt lat="36.64165" lon="31.74909">
        <ele>41.853404</ele>
        <time>2022-02-25T13:25:44.437Z</time>
      </trkpt>
      <trkpt lat="36.64169" lon="31.74804">
        <ele>45.87761</ele>
        <time>2022-02-25T13:26:27.431Z</time>
      </trkpt>
      <trkpt lat="36.64181" lon="31.74758">
        <ele>47.690382</ele>
        <time>2022-02-25T13:26:44.210Z</time>
      </trkpt>
      <trkpt lat="36.64214" lon="31.74676">
        <ele>48.793542</ele>
        <time>2022-02-25T13:27:09.272Z</time>
      </trkpt>
      <trkpt lat="36.64267" lon="31.74462">
        <ele>49.781918</ele>
        <time>2022-02-25T13:28:02.389Z</time>
      </trkpt>
      <trkpt lat="36.64275" lon="31.7444">
        <ele>49.753753</ele>
        <time>2022-02-25T13:28:07.428Z</time>
      </trkpt>
      <trkpt lat="36.64284" lon="31.74413">
        <ele>49.719715</ele>
        <time>2022-02-25T13:28:13.591Z</time>
      </trkpt>
      <trkpt lat="36.64301" lon="31.74356">
        <ele>49.648089</ele>
        <time>2022-02-25T13:28:26.443Z</time>
      </trkpt>
      <trkpt lat="36.64301" lon="31.7435">
        <ele>49.641035</ele>
        <time>2022-02-25T13:28:27.683Z</time>
      </trkpt>
      <trkpt lat="36.64302" lon="31.74338">
        <ele>49.626681</ele>
        <time>2022-02-25T13:28:30.329Z</time>
      </trkpt>
      <trkpt lat="36.64302" lon="31.74323">
        <ele>49.605146</ele>
        <time>2022-02-25T13:28:33.167Z</time>
      </trkpt>
      <trkpt lat="36.64302" lon="31.74321">
        <ele>49.58824</ele>
        <time>2022-02-25T13:28:33.634Z</time>
      </trkpt>
      <trkpt lat="36.64302" lon="31.74307">
        <ele>49.483091</ele>
        <time>2022-02-25T13:28:36.606Z</time>
      </trkpt>
      <trkpt lat="36.64314" lon="31.74276">
        <ele>49.228631</ele>
        <time>2022-02-25T13:28:43.581Z</time>
      </trkpt>
      <trkpt lat="36.64346" lon="31.74236">
        <ele>48.810841</ele>
        <time>2022-02-25T13:28:54.711Z</time>
      </trkpt>
      <trkpt lat="36.64376" lon="31.7417">
        <ele>48.255709</ele>
        <time>2022-02-25T13:29:09.140Z</time>
      </trkpt>
      <trkpt lat="36.64381" lon="31.74162">
        <ele>48.182232</ele>
        <time>2022-02-25T13:29:11.169Z</time>
      </trkpt>
      <trkpt lat="36.64385" lon="31.74155">
        <ele>48.119064</ele>
        <time>2022-02-25T13:29:12.699Z</time>
      </trkpt>
      <trkpt lat="36.64394" lon="31.74133">
        <ele>47.942352</ele>
        <time>2022-02-25T13:29:17.609Z</time>
      </trkpt>
      <trkpt lat="36.64394" lon="31.74107">
        <ele>47.789424</ele>
        <time>2022-02-25T13:29:22.552Z</time>
      </trkpt>
      <trkpt lat="36.64391" lon="31.74094">
        <ele>47.711833</ele>
        <time>2022-02-25T13:29:25.135Z</time>
      </trkpt>
      <trkpt lat="36.64387" lon="31.74087">
        <ele>47.661436</ele>
        <time>2022-02-25T13:29:26.785Z</time>
      </trkpt>
      <trkpt lat="36.64384" lon="31.74076">
        <ele>47.589902</ele>
        <time>2022-02-25T13:29:29.149Z</time>
      </trkpt>
      <trkpt lat="36.64384" lon="31.74069">
        <ele>47.545441</ele>
        <time>2022-02-25T13:29:30.458Z</time>
      </trkpt>
      <trkpt lat="36.64424" lon="31.73726">
        <ele>46.203531</ele>
        <time>2022-02-25T13:30:41.563Z</time>
      </trkpt>
      <trkpt lat="36.6443" lon="31.73704">
        <ele>46.151994</ele>
        <time>2022-02-25T13:30:47.023Z</time>
      </trkpt>
      <trkpt lat="36.64443" lon="31.73678">
        <ele>46.287872</ele>
        <time>2022-02-25T13:30:55.115Z</time>
      </trkpt>
      <trkpt lat="36.64479" lon="31.73608">
        <ele>46.863652</ele>
        <time>2022-02-25T13:31:16.852Z</time>
      </trkpt>
      <trkpt lat="36.64486" lon="31.7357">
        <ele>47.131539</ele>
        <time>2022-02-25T13:31:27.125Z</time>
      </trkpt>
      <trkpt lat="36.64488" lon="31.73545">
        <ele>47.307726</ele>
        <time>2022-02-25T13:31:33.657Z</time>
      </trkpt>
      <trkpt lat="36.64493" lon="31.73526">
        <ele>47.445127</ele>
        <time>2022-02-25T13:31:39.239Z</time>
      </trkpt>
      <trkpt lat="36.64509" lon="31.73456">
        <ele>47.561848</ele>
        <time>2022-02-25T13:31:58.283Z</time>
      </trkpt>
      <trkpt lat="36.64534" lon="31.73375">
        <ele>47.286117</ele>
        <time>2022-02-25T13:32:18.195Z</time>
      </trkpt>
      <trkpt lat="36.64557" lon="31.73315">
        <ele>47.076365</ele>
        <time>2022-02-25T13:32:30.934Z</time>
      </trkpt>
      <trkpt lat="36.64581" lon="31.73281">
        <ele>46.655538</ele>
        <time>2022-02-25T13:32:39.239Z</time>
      </trkpt>
      <trkpt lat="36.64593" lon="31.73248">
        <ele>45.764637</ele>
        <time>2022-02-25T13:32:45.694Z</time>
      </trkpt>
      <trkpt lat="36.64594" lon="31.73244">
        <ele>45.648651</ele>
        <time>2022-02-25T13:32:46.465Z</time>
      </trkpt>
      <trkpt lat="36.64597" lon="31.73237">
        <ele>45.461371</ele>
        <time>2022-02-25T13:32:47.619Z</time>
      </trkpt>
      <trkpt lat="36.64603" lon="31.73216">
        <ele>44.919257</ele>
        <time>2022-02-25T13:32:51.324Z</time>
      </trkpt>
      <trkpt lat="36.64591" lon="31.73095">
        <ele>41.900273</ele>
        <time>2022-02-25T13:33:11.044Z</time>
      </trkpt>
      <trkpt lat="36.64588" lon="31.73084">
        <ele>41.604439</ele>
        <time>2022-02-25T13:33:12.872Z</time>
      </trkpt>
      <trkpt lat="36.64587" lon="31.73076">
        <ele>41.400994</ele>
        <time>2022-02-25T13:33:14.171Z</time>
      </trkpt>
      <trkpt lat="36.64582" lon="31.73052">
        <ele>40.771686</ele>
        <time>2022-02-25T13:33:18.068Z</time>
      </trkpt>
      <trkpt lat="36.64581" lon="31.73049">
        <ele>40.68857</ele>
        <time>2022-02-25T13:33:18.562Z</time>
      </trkpt>
      <trkpt lat="36.64576" lon="31.7303">
        <ele>40.159677</ele>
        <time>2022-02-25T13:33:21.756Z</time>
      </trkpt>
      <trkpt lat="36.64552" lon="31.72879">
        <ele>36.191237</ele>
        <time>2022-02-25T13:33:47.148Z</time>
      </trkpt>
      <trkpt lat="36.6455" lon="31.72822">
        <ele>35.138526</ele>
        <time>2022-02-25T13:33:56.788Z</time>
      </trkpt>
      <trkpt lat="36.64563" lon="31.72644">
        <ele>32.579493</ele>
        <time>2022-02-25T13:34:29.746Z</time>
      </trkpt>
      <trkpt lat="36.6457" lon="31.72587">
        <ele>31.901816</ele>
        <time>2022-02-25T13:34:40.638Z</time>
      </trkpt>
      <trkpt lat="36.64578" lon="31.72504">
        <ele>30.964066</ele>
        <time>2022-02-25T13:34:56.430Z</time>
      </trkpt>
      <trkpt lat="36.64579" lon="31.72498">
        <ele>30.897956</ele>
        <time>2022-02-25T13:34:57.489Z</time>
      </trkpt>
      <trkpt lat="36.64596" lon="31.72387">
        <ele>29.584228</ele>
        <time>2022-02-25T13:35:18.662Z</time>
      </trkpt>
      <trkpt lat="36.64623" lon="31.72204">
        <ele>27.146317</ele>
        <time>2022-02-25T13:35:52.570Z</time>
      </trkpt>
      <trkpt lat="36.64629" lon="31.7216">
        <ele>26.703925</ele>
        <time>2022-02-25T13:36:00.732Z</time>
      </trkpt>
      <trkpt lat="36.64635" lon="31.72125">
        <ele>26.393988</ele>
        <time>2022-02-25T13:36:07.253Z</time>
      </trkpt>
      <trkpt lat="36.64643" lon="31.72073">
        <ele>25.934341</ele>
        <time>2022-02-25T13:36:17.175Z</time>
      </trkpt>
      <trkpt lat="36.64649" lon="31.72029">
        <ele>25.538828</ele>
        <time>2022-02-25T13:36:26.057Z</time>
      </trkpt>
      <trkpt lat="36.64659" lon="31.71969">
        <ele>25.036393</ele>
        <time>2022-02-25T13:36:38.293Z</time>
      </trkpt>
      <trkpt lat="36.6466" lon="31.71956">
        <ele>25.040139</ele>
        <time>2022-02-25T13:36:41.103Z</time>
      </trkpt>
      <trkpt lat="36.64662" lon="31.7193">
        <ele>25.047332</ele>
        <time>2022-02-25T13:36:46.722Z</time>
      </trkpt>
      <trkpt lat="36.64671" lon="31.71847">
        <ele>25.070089</ele>
        <time>2022-02-25T13:37:05.141Z</time>
      </trkpt>
      <trkpt lat="36.64679" lon="31.71766">
        <ele>25.092517</ele>
        <time>2022-02-25T13:37:24.700Z</time>
      </trkpt>
      <trkpt lat="36.64686" lon="31.7169">
        <ele>25.150622</ele>
        <time>2022-02-25T13:37:43.208Z</time>
      </trkpt>
      <trkpt lat="36.6469" lon="31.71645">
        <ele>25.191111</ele>
        <time>2022-02-25T13:37:53.940Z</time>
      </trkpt>
      <trkpt lat="36.64692" lon="31.71627">
        <ele>25.207274</ele>
        <time>2022-02-25T13:37:57.773Z</time>
      </trkpt>
      <trkpt lat="36.64693" lon="31.71607">
        <ele>25.225322</ele>
        <time>2022-02-25T13:38:02.530Z</time>
      </trkpt>
      <trkpt lat="36.64698" lon="31.71554">
        <ele>25.272975</ele>
        <time>2022-02-25T13:38:14.292Z</time>
      </trkpt>
      <trkpt lat="36.64704" lon="31.71491">
        <ele>25.208302</ele>
        <time>2022-02-25T13:38:27.436Z</time>
      </trkpt>
      <trkpt lat="36.64708" lon="31.71463">
        <ele>25.137272</ele>
        <time>2022-02-25T13:38:33.730Z</time>
      </trkpt>
      <trkpt lat="36.64709" lon="31.71455">
        <ele>25.116847</ele>
        <time>2022-02-25T13:38:35.309Z</time>
      </trkpt>
      <trkpt lat="36.64715" lon="31.71401">
        <ele>24.984373</ele>
        <time>2022-02-25T13:38:46.776Z</time>
      </trkpt>
      <trkpt lat="36.64719" lon="31.71356">
        <ele>24.87213</ele>
        <time>2022-02-25T13:38:56.395Z</time>
      </trkpt>
      <trkpt lat="36.64724" lon="31.71301">
        <ele>24.741362</ele>
        <time>2022-02-25T13:39:08.115Z</time>
      </trkpt>
      <trkpt lat="36.64729" lon="31.71255">
        <ele>24.680823</ele>
        <time>2022-02-25T13:39:17.954Z</time>
      </trkpt>
      <trkpt lat="36.64731" lon="31.71237">
        <ele>24.656691</ele>
        <time>2022-02-25T13:39:21.995Z</time>
      </trkpt>
      <trkpt lat="36.64743" lon="31.71172">
        <ele>24.570714</ele>
        <time>2022-02-25T13:39:36.128Z</time>
      </trkpt>
      <trkpt lat="36.64757" lon="31.71111">
        <ele>24.488756</ele>
        <time>2022-02-25T13:39:50.026Z</time>
      </trkpt>
      <trkpt lat="36.64792" lon="31.70953">
        <ele>24.755387</ele>
        <time>2022-02-25T13:40:27.657Z</time>
      </trkpt>
      <trkpt lat="36.64808" lon="31.70881">
        <ele>24.917973</ele>
        <time>2022-02-25T13:40:45.330Z</time>
      </trkpt>
      <trkpt lat="36.64812" lon="31.70862">
        <ele>24.979673</ele>
        <time>2022-02-25T13:40:50.104Z</time>
      </trkpt>
      <trkpt lat="36.64831" lon="31.7077">
        <ele>25.390626</ele>
        <time>2022-02-25T13:41:14.177Z</time>
      </trkpt>
      <trkpt lat="36.64852" lon="31.70668">
        <ele>25.842106</ele>
        <time>2022-02-25T13:41:39.681Z</time>
      </trkpt>
      <trkpt lat="36.64863" lon="31.70616">
        <ele>25.929271</ele>
        <time>2022-02-25T13:41:52.288Z</time>
      </trkpt>
      <trkpt lat="36.64873" lon="31.70569">
        <ele>25.952569</ele>
        <time>2022-02-25T13:42:03.368Z</time>
      </trkpt>
      <trkpt lat="36.64881" lon="31.70529">
        <ele>25.972225</ele>
        <time>2022-02-25T13:42:12.539Z</time>
      </trkpt>
      <trkpt lat="36.64891" lon="31.70484">
        <ele>25.994315</ele>
        <time>2022-02-25T13:42:22.590Z</time>
      </trkpt>
      <trkpt lat="36.64927" lon="31.70322">
        <ele>26.054486</ele>
        <time>2022-02-25T13:42:59.989Z</time>
      </trkpt>
      <trkpt lat="36.64947" lon="31.7023">
        <ele>26.083794</ele>
        <time>2022-02-25T13:43:22.466Z</time>
      </trkpt>
      <trkpt lat="36.64978" lon="31.7008">
        <ele>25.459604</ele>
        <time>2022-02-25T13:43:55.639Z</time>
      </trkpt>
      <trkpt lat="36.64996" lon="31.7">
        <ele>25.090756</ele>
        <time>2022-02-25T13:44:11.413Z</time>
      </trkpt>
      <trkpt lat="36.65014" lon="31.69911">
        <ele>24.487515</ele>
        <time>2022-02-25T13:44:28.915Z</time>
      </trkpt>
      <trkpt lat="36.65034" lon="31.69822">
        <ele>23.877281</ele>
        <time>2022-02-25T13:44:47.356Z</time>
      </trkpt>
      <trkpt lat="36.65065" lon="31.69675">
        <ele>23.372735</ele>
        <time>2022-02-25T13:45:19.688Z</time>
      </trkpt>
      <trkpt lat="36.65091" lon="31.69555">
        <ele>23.047726</ele>
        <time>2022-02-25T13:45:46.978Z</time>
      </trkpt>
      <trkpt lat="36.65092" lon="31.69548">
        <ele>23.014514</ele>
        <time>2022-02-25T13:45:48.502Z</time>
      </trkpt>
      <trkpt lat="36.65128" lon="31.69374">
        <ele>22.173906</ele>
        <time>2022-02-25T13:46:24.404Z</time>
      </trkpt>
      <trkpt lat="36.65143" lon="31.69307">
        <ele>22.034244</ele>
        <time>2022-02-25T13:46:38.929Z</time>
      </trkpt>
      <trkpt lat="36.65146" lon="31.69293">
        <ele>22.02231</ele>
        <time>2022-02-25T13:46:41.931Z</time>
      </trkpt>
      <trkpt lat="36.65166" lon="31.69203">
        <ele>21.944698</ele>
        <time>2022-02-25T13:47:02.524Z</time>
      </trkpt>
      <trkpt lat="36.65172" lon="31.69176">
        <ele>21.92137</ele>
        <time>2022-02-25T13:47:08.941Z</time>
      </trkpt>
      <trkpt lat="36.65193" lon="31.69075">
        <ele>22.050189</ele>
        <time>2022-02-25T13:47:33.299Z</time>
      </trkpt>
      <trkpt lat="36.65219" lon="31.68951">
        <ele>22.374346</ele>
        <time>2022-02-25T13:48:04.042Z</time>
      </trkpt>
      <trkpt lat="36.6523" lon="31.68898">
        <ele>22.491328</ele>
        <time>2022-02-25T13:48:16.582Z</time>
      </trkpt>
      <trkpt lat="36.65265" lon="31.68742">
        <ele>22.752537</ele>
        <time>2022-02-25T13:48:53.252Z</time>
      </trkpt>
      <trkpt lat="36.6528" lon="31.68663">
        <ele>23.084862</ele>
        <time>2022-02-25T13:49:12.711Z</time>
      </trkpt>
      <trkpt lat="36.65319" lon="31.68477">
        <ele>24.422938</ele>
        <time>2022-02-25T13:50:01.942Z</time>
      </trkpt>
      <trkpt lat="36.65328" lon="31.68438">
        <ele>25.058501</ele>
        <time>2022-02-25T13:50:13.219Z</time>
      </trkpt>
      <trkpt lat="36.65333" lon="31.68416">
        <ele>25.417728</ele>
        <time>2022-02-25T13:50:19.453Z</time>
      </trkpt>
      <trkpt lat="36.65371" lon="31.68237">
        <ele>28.460675</ele>
        <time>2022-02-25T13:51:16.702Z</time>
      </trkpt>
      <trkpt lat="36.65387" lon="31.68161">
        <ele>30.027635</ele>
        <time>2022-02-25T13:51:44.476Z</time>
      </trkpt>
      <trkpt lat="36.65426" lon="31.68181">
        <ele>31.072761</ele>
        <time>2022-02-25T13:52:01.074Z</time>
      </trkpt>
      <trkpt lat="36.65456" lon="31.68188">
        <ele>31.836074</ele>
        <time>2022-02-25T13:52:12.827Z</time>
      </trkpt>
      <trkpt lat="36.65453" lon="31.68164">
        <ele>32.252387</ele>
        <time>2022-02-25T13:52:20.087Z</time>
      </trkpt>
      <trkpt lat="36.6546" lon="31.68145">
        <ele>32.319275</ele>
        <time>2022-02-25T13:52:26.482Z</time>
      </trkpt>
      <trkpt lat="36.65465" lon="31.68141">
        <ele>32.343603</ele>
        <time>2022-02-25T13:52:28.586Z</time>
      </trkpt>
      <trkpt lat="36.65455" lon="31.681">
        <ele>32.480977</ele>
        <time>2022-02-25T13:52:42.889Z</time>
      </trkpt>
      <trkpt lat="36.6545" lon="31.68093">
        <ele>32.511921</ele>
        <time>2022-02-25T13:52:45.368Z</time>
      </trkpt>
      <trkpt lat="36.65462" lon="31.68063">
        <ele>32.618355</ele>
        <time>2022-02-25T13:52:54.516Z</time>
      </trkpt>
      <trkpt lat="36.65477" lon="31.68013">
        <ele>32.789117</ele>
        <time>2022-02-25T13:53:05.281Z</time>
      </trkpt>
      <trkpt lat="36.65479" lon="31.68004">
        <ele>32.818947</ele>
        <time>2022-02-25T13:53:07.056Z</time>
      </trkpt>
      <trkpt lat="36.65503" lon="31.67925">
        <ele>33.305411</ele>
        <time>2022-02-25T13:53:22.337Z</time>
      </trkpt>
      <trkpt lat="36.65515" lon="31.67829">
        <ele>34.116901</ele>
        <time>2022-02-25T13:53:46.501Z</time>
      </trkpt>
      <trkpt lat="36.65518" lon="31.6773">
        <ele>35.15577</ele>
        <time>2022-02-25T13:54:16.545Z</time>
      </trkpt>
      <trkpt lat="36.65529" lon="31.67592">
        <ele>38.34885</ele>
        <time>2022-02-25T13:55:03.553Z</time>
      </trkpt>
      <trkpt lat="36.65561" lon="31.67486">
        <ele>40.139488</ele>
        <time>2022-02-25T13:55:40.908Z</time>
      </trkpt>
      <trkpt lat="36.65611" lon="31.67308">
        <ele>40.571068</ele>
        <time>2022-02-25T13:56:21.943Z</time>
      </trkpt>
      <trkpt lat="36.65614" lon="31.67297">
        <ele>40.216497</ele>
        <time>2022-02-25T13:56:24.117Z</time>
      </trkpt>
      <trkpt lat="36.6565" lon="31.67181">
        <ele>36.230778</ele>
        <time>2022-02-25T13:56:43.227Z</time>
      </trkpt>
      <trkpt lat="36.65654" lon="31.67165">
        <ele>35.725816</ele>
        <time>2022-02-25T13:56:45.527Z</time>
      </trkpt>
      <trkpt lat="36.65572" lon="31.6713">
        <ele>31.934657</ele>
        <time>2022-02-25T13:57:01.522Z</time>
      </trkpt>
      <trkpt lat="36.65558" lon="31.67124">
        <ele>31.212698</ele>
        <time>2022-02-25T13:57:04.126Z</time>
      </trkpt>
      <trkpt lat="36.65553" lon="31.67117">
        <ele>30.819433</ele>
        <time>2022-02-25T13:57:05.652Z</time>
      </trkpt>
      <trkpt lat="36.65545" lon="31.67117">
        <ele>30.427038</ele>
        <time>2022-02-25T13:57:07.157Z</time>
      </trkpt>
      <trkpt lat="36.65538" lon="31.67093">
        <ele>29.406971</ele>
        <time>2022-02-25T13:57:10.920Z</time>
      </trkpt>
      <trkpt lat="36.65539" lon="31.67068">
        <ele>28.406405</ele>
        <time>2022-02-25T13:57:14.678Z</time>
      </trkpt>
      <trkpt lat="36.65539" lon="31.67051">
        <ele>27.728576</ele>
        <time>2022-02-25T13:57:17.049Z</time>
      </trkpt>
      <trkpt lat="36.65579" lon="31.66917">
        <ele>23.609101</ele>
        <time>2022-02-25T13:57:38.949Z</time>
      </trkpt>
      <trkpt lat="36.65644" lon="31.66711">
        <ele>20.097081</ele>
        <time>2022-02-25T13:58:19.049Z</time>
      </trkpt>
      <trkpt lat="36.65663" lon="31.66647">
        <ele>19.114323</ele>
        <time>2022-02-25T13:58:30.906Z</time>
      </trkpt>
      <trkpt lat="36.65699" lon="31.6653">
        <ele>17.188649</ele>
        <time>2022-02-25T13:58:51.823Z</time>
      </trkpt>
      <trkpt lat="36.65706" lon="31.66509">
        <ele>16.789846</ele>
        <time>2022-02-25T13:58:55.468Z</time>
      </trkpt>
      <trkpt lat="36.65726" lon="31.66449">
        <ele>15.654679</ele>
        <time>2022-02-25T13:59:06.094Z</time>
      </trkpt>
      <trkpt lat="36.65748" lon="31.66383">
        <ele>14.385468</ele>
        <time>2022-02-25T13:59:18.125Z</time>
      </trkpt>
      <trkpt lat="36.65751" lon="31.66373">
        <ele>14.204032</ele>
        <time>2022-02-25T13:59:19.862Z</time>
      </trkpt>
      <trkpt lat="36.65755" lon="31.66361">
        <ele>13.981693</ele>
        <time>2022-02-25T13:59:22.034Z</time>
      </trkpt>
      <trkpt lat="36.65769" lon="31.66321">
        <ele>13.526835</ele>
        <time>2022-02-25T13:59:29.565Z</time>
      </trkpt>
      <trkpt lat="36.6582" lon="31.66203">
        <ele>12.352972</ele>
        <time>2022-02-25T13:59:53.945Z</time>
      </trkpt>
      <trkpt lat="36.65854" lon="31.66134">
        <ele>11.893946</ele>
        <time>2022-02-25T14:00:10.338Z</time>
      </trkpt>
      <trkpt lat="36.65938" lon="31.65982">
        <ele>12.005422</ele>
        <time>2022-02-25T14:00:50.893Z</time>
      </trkpt>
      <trkpt lat="36.65987" lon="31.65907">
        <ele>12.110974</ele>
        <time>2022-02-25T14:01:13.360Z</time>
      </trkpt>
      <trkpt lat="36.66096" lon="31.65765">
        <ele>12.055773</ele>
        <time>2022-02-25T14:01:55.517Z</time>
      </trkpt>
      <trkpt lat="36.66113" lon="31.65744">
        <ele>11.937616</ele>
        <time>2022-02-25T14:02:01.479Z</time>
      </trkpt>
      <trkpt lat="36.66145" lon="31.65703">
        <ele>11.710567</ele>
        <time>2022-02-25T14:02:12.963Z</time>
      </trkpt>
      <trkpt lat="36.66344" lon="31.65456">
        <ele>9.188938</ele>
        <time>2022-02-25T14:03:18.670Z</time>
      </trkpt>
      <trkpt lat="36.6637" lon="31.65424">
        <ele>8.67671</ele>
        <time>2022-02-25T14:03:26.753Z</time>
      </trkpt>
      <trkpt lat="36.66489" lon="31.65284">
        <ele>6.241776</ele>
        <time>2022-02-25T14:04:02.350Z</time>
      </trkpt>
      <trkpt lat="36.66505" lon="31.65279">
        <ele>5.955159</ele>
        <time>2022-02-25T14:04:05.814Z</time>
      </trkpt>
      <trkpt lat="36.66491" lon="31.6526">
        <ele>5.601588</ele>
        <time>2022-02-25T14:04:10.760Z</time>
      </trkpt>
      <trkpt lat="36.66534" lon="31.65206">
        <ele>4.580255</ele>
        <time>2022-02-25T14:04:23.690Z</time>
      </trkpt>
      <trkpt lat="36.66543" lon="31.65195">
        <ele>4.375137</ele>
        <time>2022-02-25T14:04:26.555Z</time>
      </trkpt>
      <trkpt lat="36.66546" lon="31.65191">
        <ele>4.306764</ele>
        <time>2022-02-25T14:04:27.350Z</time>
      </trkpt>
      <trkpt lat="36.66605" lon="31.65122">
        <ele>3.66454</ele>
        <time>2022-02-25T14:04:46.039Z</time>
      </trkpt>
      <trkpt lat="36.66649" lon="31.65065">
        <ele>3.229714</ele>
        <time>2022-02-25T14:05:01.323Z</time>
      </trkpt>
      <trkpt lat="36.66684" lon="31.65024">
        <ele>2.961178</ele>
        <time>2022-02-25T14:05:13.670Z</time>
      </trkpt>
      <trkpt lat="36.66761" lon="31.64939">
        <ele>3.540843</ele>
        <time>2022-02-25T14:05:44.993Z</time>
      </trkpt>
      <trkpt lat="36.66775" lon="31.64924">
        <ele>3.640214</ele>
        <time>2022-02-25T14:05:50.432Z</time>
      </trkpt>
      <trkpt lat="36.6679" lon="31.64901">
        <ele>3.777811</ele>
        <time>2022-02-25T14:05:57.881Z</time>
      </trkpt>
      <trkpt lat="36.66831" lon="31.64846">
        <ele>4.010132</ele>
        <time>2022-02-25T14:06:15.848Z</time>
      </trkpt>
      <trkpt lat="36.66895" lon="31.64755">
        <ele>4.221509</ele>
        <time>2022-02-25T14:06:42.350Z</time>
      </trkpt>
      <trkpt lat="36.66935" lon="31.64687">
        <ele>4.378871</ele>
        <time>2022-02-25T14:07:00.023Z</time>
      </trkpt>
      <trkpt lat="36.66953" lon="31.64657">
        <ele>4.458323</ele>
        <time>2022-02-25T14:07:08.182Z</time>
      </trkpt>
      <trkpt lat="36.6696" lon="31.64646">
        <ele>4.486362</ele>
        <time>2022-02-25T14:07:11.177Z</time>
      </trkpt>
      <trkpt lat="36.66967" lon="31.64634">
        <ele>4.517542</ele>
        <time>2022-02-25T14:07:14.387Z</time>
      </trkpt>
      <trkpt lat="36.67006" lon="31.64557">
        <ele>4.712522</ele>
        <time>2022-02-25T14:07:35.172Z</time>
      </trkpt>
      <trkpt lat="36.6702" lon="31.64527">
        <ele>4.785235</ele>
        <time>2022-02-25T14:07:43.042Z</time>
      </trkpt>
      <trkpt lat="36.67045" lon="31.64465">
        <ele>5.137208</ele>
        <time>2022-02-25T14:07:59.379Z</time>
      </trkpt>
      <trkpt lat="36.67062" lon="31.64423">
        <ele>5.407391</ele>
        <time>2022-02-25T14:08:11.120Z</time>
      </trkpt>
      <trkpt lat="36.67071" lon="31.64402">
        <ele>5.545286</ele>
        <time>2022-02-25T14:08:17.062Z</time>
      </trkpt>
      <trkpt lat="36.67096" lon="31.64345">
        <ele>5.919056</ele>
        <time>2022-02-25T14:08:33.512Z</time>
      </trkpt>
      <trkpt lat="36.6713" lon="31.64264">
        <ele>6.189588</ele>
        <time>2022-02-25T14:08:54.896Z</time>
      </trkpt>
      <trkpt lat="36.67193" lon="31.64108">
        <ele>6.4035</ele>
        <time>2022-02-25T14:09:32.556Z</time>
      </trkpt>
      <trkpt lat="36.672" lon="31.64091">
        <ele>6.376977</ele>
        <time>2022-02-25T14:09:36.501Z</time>
      </trkpt>
      <trkpt lat="36.67209" lon="31.64069">
        <ele>6.344268</ele>
        <time>2022-02-25T14:09:41.306Z</time>
      </trkpt>
      <trkpt lat="36.67244" lon="31.63981">
        <ele>6.211353</ele>
        <time>2022-02-25T14:10:01.251Z</time>
      </trkpt>
      <trkpt lat="36.6729" lon="31.63868">
        <ele>6.295541</ele>
        <time>2022-02-25T14:10:28.097Z</time>
      </trkpt>
      <trkpt lat="36.6729" lon="31.63866">
        <ele>6.303779</ele>
        <time>2022-02-25T14:10:28.927Z</time>
      </trkpt>
      <trkpt lat="36.67339" lon="31.63745">
        <ele>6.764859</ele>
        <time>2022-02-25T14:11:00.525Z</time>
      </trkpt>
      <trkpt lat="36.67438" lon="31.635">
        <ele>7.860166</ele>
        <time>2022-02-25T14:12:06.253Z</time>
      </trkpt>
      <trkpt lat="36.67458" lon="31.63451">
        <ele>7.74409</ele>
        <time>2022-02-25T14:12:17.881Z</time>
      </trkpt>
      <trkpt lat="36.67489" lon="31.63373">
        <ele>7.561731</ele>
        <time>2022-02-25T14:12:35.173Z</time>
      </trkpt>
      <trkpt lat="36.6756" lon="31.63198">
        <ele>6.640414</ele>
        <time>2022-02-25T14:13:12.969Z</time>
      </trkpt>
      <trkpt lat="36.6759" lon="31.63123">
        <ele>6.142811</ele>
        <time>2022-02-25T14:13:28.376Z</time>
      </trkpt>
      <trkpt lat="36.67655" lon="31.62961">
        <ele>5.788983</ele>
        <time>2022-02-25T14:14:04.584Z</time>
      </trkpt>
      <trkpt lat="36.67665" lon="31.62936">
        <ele>5.740631</ele>
        <time>2022-02-25T14:14:10.613Z</time>
      </trkpt>
      <trkpt lat="36.67677" lon="31.62927">
        <ele>5.711116</ele>
        <time>2022-02-25T14:14:14.475Z</time>
      </trkpt>
      <trkpt lat="36.67691" lon="31.62902">
        <ele>5.989757</ele>
        <time>2022-02-25T14:14:21.961Z</time>
      </trkpt>
      <trkpt lat="36.67695" lon="31.62887">
        <ele>6.188489</ele>
        <time>2022-02-25T14:14:25.840Z</time>
      </trkpt>
      <trkpt lat="36.67845" lon="31.62521">
        <ele>11.91599</ele>
        <time>2022-02-25T14:16:29.045Z</time>
      </trkpt>
      <trkpt lat="36.67896" lon="31.62389">
        <ele>12.874645</ele>
        <time>2022-02-25T14:17:07.881Z</time>
      </trkpt>
      <trkpt lat="36.6791" lon="31.62355">
        <ele>13.128778</ele>
        <time>2022-02-25T14:17:16.778Z</time>
      </trkpt>
      <trkpt lat="36.67922" lon="31.62324">
        <ele>13.354273</ele>
        <time>2022-02-25T14:17:24.256Z</time>
      </trkpt>
      <trkpt lat="36.6794" lon="31.62284">
        <ele>13.183758</ele>
        <time>2022-02-25T14:17:34.114Z</time>
      </trkpt>
      <trkpt lat="36.6795" lon="31.62278">
        <ele>13.117569</ele>
        <time>2022-02-25T14:17:37.347Z</time>
      </trkpt>
      <trkpt lat="36.67935" lon="31.62272">
        <ele>13.026559</ele>
        <time>2022-02-25T14:17:41.168Z</time>
      </trkpt>
      <trkpt lat="36.67952" lon="31.62233">
        <ele>12.823795</ele>
        <time>2022-02-25T14:17:49.630Z</time>
      </trkpt>
      <trkpt lat="36.68009" lon="31.62108">
        <ele>12.11533</ele>
        <time>2022-02-25T14:18:17.023Z</time>
      </trkpt>
      <trkpt lat="36.68013" lon="31.62096">
        <ele>12.040915</ele>
        <time>2022-02-25T14:18:19.629Z</time>
      </trkpt>
      <trkpt lat="36.68018" lon="31.62086">
        <ele>11.973447</ele>
        <time>2022-02-25T14:18:21.785Z</time>
      </trkpt>
      <trkpt lat="36.68022" lon="31.62078">
        <ele>11.918699</ele>
        <time>2022-02-25T14:18:23.578Z</time>
      </trkpt>
      <trkpt lat="36.68024" lon="31.62072">
        <ele>11.883579</ele>
        <time>2022-02-25T14:18:24.751Z</time>
      </trkpt>
      <trkpt lat="36.68031" lon="31.62076">
        <ele>11.827595</ele>
        <time>2022-02-25T14:18:27.084Z</time>
      </trkpt>
      <trkpt lat="36.68041" lon="31.62054">
        <ele>11.685017</ele>
        <time>2022-02-25T14:18:31.687Z</time>
      </trkpt>
      <trkpt lat="36.68078" lon="31.61951">
        <ele>11.032721</ele>
        <time>2022-02-25T14:18:53.684Z</time>
      </trkpt>
      <trkpt lat="36.68089" lon="31.61923">
        <ele>10.846779</ele>
        <time>2022-02-25T14:18:59.509Z</time>
      </trkpt>
      <trkpt lat="36.68127" lon="31.61818">
        <ele>10.171413</ele>
        <time>2022-02-25T14:19:21.448Z</time>
      </trkpt>
      <trkpt lat="36.68145" lon="31.61775">
        <ele>9.88417</ele>
        <time>2022-02-25T14:19:30.810Z</time>
      </trkpt>
      <trkpt lat="36.68217" lon="31.61596">
        <ele>9.024814</ele>
        <time>2022-02-25T14:20:10.389Z</time>
      </trkpt>
      <trkpt lat="36.68397" lon="31.61152">
        <ele>7.288997</ele>
        <time>2022-02-25T14:21:49.288Z</time>
      </trkpt>
      <trkpt lat="36.68473" lon="31.60959">
        <ele>6.980201</ele>
        <time>2022-02-25T14:22:35.048Z</time>
      </trkpt>
      <trkpt lat="36.68549" lon="31.60776">
        <ele>6.081208</ele>
        <time>2022-02-25T14:23:15.265Z</time>
      </trkpt>
      <trkpt lat="36.68591" lon="31.60679">
        <ele>5.540665</ele>
        <time>2022-02-25T14:23:35.996Z</time>
      </trkpt>
      <trkpt lat="36.68639" lon="31.6057">
        <ele>4.909733</ele>
        <time>2022-02-25T14:24:00.128Z</time>
      </trkpt>
      <trkpt lat="36.68777" lon="31.60332">
        <ele>4.442151</ele>
        <time>2022-02-25T14:25:00.781Z</time>
      </trkpt>
      <trkpt lat="36.68872" lon="31.60209">
        <ele>4.755298</ele>
        <time>2022-02-25T14:25:39.516Z</time>
      </trkpt>
      <trkpt lat="36.68904" lon="31.60168">
        <ele>4.860876</ele>
        <time>2022-02-25T14:25:52.853Z</time>
      </trkpt>
      <trkpt lat="36.68949" lon="31.60096">
        <ele>5.03111</ele>
        <time>2022-02-25T14:26:14.009Z</time>
      </trkpt>
      <trkpt lat="36.69135" lon="31.59836">
        <ele>4.782559</ele>
        <time>2022-02-25T14:27:26.285Z</time>
      </trkpt>
      <trkpt lat="36.69181" lon="31.5977">
        <ele>4.639314</ele>
        <time>2022-02-25T14:27:44.153Z</time>
      </trkpt>
      <trkpt lat="36.69257" lon="31.59668">
        <ele>4.534739</ele>
        <time>2022-02-25T14:28:13.055Z</time>
      </trkpt>
      <trkpt lat="36.69325" lon="31.59576">
        <ele>4.648832</ele>
        <time>2022-02-25T14:28:40.321Z</time>
      </trkpt>
      <trkpt lat="36.69594" lon="31.59208">
        <ele>6.542252</ele>
        <time>2022-02-25T14:30:35.293Z</time>
      </trkpt>
      <trkpt lat="36.69626" lon="31.59165">
        <ele>7.277754</ele>
        <time>2022-02-25T14:30:51.782Z</time>
      </trkpt>
      <trkpt lat="36.69713" lon="31.59056">
        <ele>9.23446</ele>
        <time>2022-02-25T14:31:36.334Z</time>
      </trkpt>
      <trkpt lat="36.69777" lon="31.59107">
        <ele>9.560155</ele>
        <time>2022-02-25T14:32:00.191Z</time>
      </trkpt>
      <trkpt lat="36.69732" lon="31.59033">
        <ele>9.740616</ele>
        <time>2022-02-25T14:32:19.992Z</time>
      </trkpt>
      <trkpt lat="36.69768" lon="31.5898">
        <ele>9.772812</ele>
        <time>2022-02-25T14:32:33.890Z</time>
      </trkpt>
      <trkpt lat="36.6983" lon="31.58886">
        <ele>9.399415</ele>
        <time>2022-02-25T14:32:57.780Z</time>
      </trkpt>
      <trkpt lat="36.70162" lon="31.58427">
        <ele>10.673189</ele>
        <time>2022-02-25T14:35:23.918Z</time>
      </trkpt>
      <trkpt lat="36.70295" lon="31.58248">
        <ele>11.349059</ele>
        <time>2022-02-25T14:36:22.757Z</time>
      </trkpt>
      <trkpt lat="36.70323" lon="31.5821">
        <ele>11.439909</ele>
        <time>2022-02-25T14:36:34.196Z</time>
      </trkpt>
      <trkpt lat="36.70367" lon="31.58149">
        <ele>11.67486</ele>
        <time>2022-02-25T14:36:52.477Z</time>
      </trkpt>
      <trkpt lat="36.70416" lon="31.58083">
        <ele>12.318291</ele>
        <time>2022-02-25T14:37:13.575Z</time>
      </trkpt>
      <trkpt lat="36.70421" lon="31.58076">
        <ele>12.381241</ele>
        <time>2022-02-25T14:37:16.364Z</time>
      </trkpt>
      <trkpt lat="36.70487" lon="31.57983">
        <ele>13.398018</ele>
        <time>2022-02-25T14:37:50.035Z</time>
      </trkpt>
      <trkpt lat="36.70505" lon="31.57959">
        <ele>13.886347</ele>
        <time>2022-02-25T14:38:00.476Z</time>
      </trkpt>
      <trkpt lat="36.70562" lon="31.5788">
        <ele>15.475395</ele>
        <time>2022-02-25T14:38:33.452Z</time>
      </trkpt>
      <trkpt lat="36.7057" lon="31.57869">
        <ele>15.701939</ele>
        <time>2022-02-25T14:38:38.667Z</time>
      </trkpt>
      <trkpt lat="36.70651" lon="31.57759">
        <ele>17.130744</ele>
        <time>2022-02-25T14:39:18.864Z</time>
      </trkpt>
      <trkpt lat="36.70668" lon="31.57735">
        <ele>17.334208</ele>
        <time>2022-02-25T14:39:26.973Z</time>
      </trkpt>
      <trkpt lat="36.70705" lon="31.57685">
        <ele>17.775031</ele>
        <time>2022-02-25T14:39:42.658Z</time>
      </trkpt>
      <trkpt lat="36.70754" lon="31.57617">
        <ele>18.080672</ele>
        <time>2022-02-25T14:40:04.134Z</time>
      </trkpt>
      <trkpt lat="36.70805" lon="31.57545">
        <ele>18.259833</ele>
        <time>2022-02-25T14:40:26.097Z</time>
      </trkpt>
      <trkpt lat="36.70815" lon="31.57532">
        <ele>18.29334</ele>
        <time>2022-02-25T14:40:30.664Z</time>
      </trkpt>
      <trkpt lat="36.70824" lon="31.57521">
        <ele>18.32214</ele>
        <time>2022-02-25T14:40:34.392Z</time>
      </trkpt>
      <trkpt lat="36.70938" lon="31.57365">
        <ele>18.035949</ele>
        <time>2022-02-25T14:41:22.494Z</time>
      </trkpt>
      <trkpt lat="36.71174" lon="31.57046">
        <ele>14.211911</ele>
        <time>2022-02-25T14:42:43.040Z</time>
      </trkpt>
      <trkpt lat="36.71276" lon="31.56904">
        <ele>13.71716</ele>
        <time>2022-02-25T14:43:26.959Z</time>
      </trkpt>
      <trkpt lat="36.71388" lon="31.56766">
        <ele>13.407321</ele>
        <time>2022-02-25T14:44:09.805Z</time>
      </trkpt>
      <trkpt lat="36.71386" lon="31.56761">
        <ele>13.39277</ele>
        <time>2022-02-25T14:44:10.851Z</time>
      </trkpt>
      <trkpt lat="36.71385" lon="31.56756">
        <ele>13.376368</ele>
        <time>2022-02-25T14:44:12.009Z</time>
      </trkpt>
      <trkpt lat="36.71388" lon="31.5675">
        <ele>13.355811</ele>
        <time>2022-02-25T14:44:13.343Z</time>
      </trkpt>
      <trkpt lat="36.71392" lon="31.56747">
        <ele>13.341007</ele>
        <time>2022-02-25T14:44:14.328Z</time>
      </trkpt>
      <trkpt lat="36.71401" lon="31.56749">
        <ele>13.306539</ele>
        <time>2022-02-25T14:44:16.721Z</time>
      </trkpt>
      <trkpt lat="36.71423" lon="31.56717">
        <ele>13.183214</ele>
        <time>2022-02-25T14:44:25.386Z</time>
      </trkpt>
      <trkpt lat="36.71439" lon="31.56692">
        <ele>13.09133</ele>
        <time>2022-02-25T14:44:31.859Z</time>
      </trkpt>
      <trkpt lat="36.71454" lon="31.56668">
        <ele>12.977335</ele>
        <time>2022-02-25T14:44:38.150Z</time>
      </trkpt>
      <trkpt lat="36.7148" lon="31.56629">
        <ele>12.757036</ele>
        <time>2022-02-25T14:44:48.648Z</time>
      </trkpt>
      <trkpt lat="36.71488" lon="31.56616">
        <ele>12.68508</ele>
        <time>2022-02-25T14:44:52.058Z</time>
      </trkpt>
      <trkpt lat="36.71608" lon="31.56448">
        <ele>11.29752</ele>
        <time>2022-02-25T14:45:38.181Z</time>
      </trkpt>
      <trkpt lat="36.71603" lon="31.56449">
        <ele>11.24</ele>
        <time>2022-02-25T14:45:39.386Z</time>
      </trkpt>
      <trkpt lat="36.71598" lon="31.56445">
        <ele>11.175219</ele>
        <time>2022-02-25T14:45:40.774Z</time>
      </trkpt>
      <trkpt lat="36.7162" lon="31.56415">
        <ele>10.810053</ele>
        <time>2022-02-25T14:45:48.037Z</time>
      </trkpt>
      <trkpt lat="36.71685" lon="31.56326">
        <ele>9.504327</ele>
        <time>2022-02-25T14:46:09.093Z</time>
      </trkpt>
      <trkpt lat="36.7185" lon="31.56103">
        <ele>5.3112</ele>
        <time>2022-02-25T14:47:00.520Z</time>
      </trkpt>
      <trkpt lat="36.71943" lon="31.55975">
        <ele>3.88563</ele>
        <time>2022-02-25T14:47:32.416Z</time>
      </trkpt>
      <trkpt lat="36.7207" lon="31.55801">
        <ele>3.634272</ele>
        <time>2022-02-25T14:48:24.116Z</time>
      </trkpt>
      <trkpt lat="36.72206" lon="31.55614">
        <ele>3.699999</ele>
        <time>2022-02-25T14:49:18.144Z</time>
      </trkpt>
      <trkpt lat="36.72273" lon="31.55522">
        <ele>3.699714</ele>
        <time>2022-02-25T14:49:44.924Z</time>
      </trkpt>
      <trkpt lat="36.72316" lon="31.55464">
        <ele>3.681</ele>
        <time>2022-02-25T14:50:01.927Z</time>
      </trkpt>
      <trkpt lat="36.72404" lon="31.55341">
        <ele>3.599451</ele>
        <time>2022-02-25T14:50:36.982Z</time>
      </trkpt>
      <trkpt lat="36.72557" lon="31.55137">
        <ele>3.356446</ele>
        <time>2022-02-25T14:51:33.540Z</time>
      </trkpt>
      <trkpt lat="36.72599" lon="31.55079">
        <ele>3.578584</ele>
        <time>2022-02-25T14:51:51.374Z</time>
      </trkpt>
      <trkpt lat="36.72755" lon="31.54867">
        <ele>5.361147</ele>
        <time>2022-02-25T14:53:03.991Z</time>
      </trkpt>
      <trkpt lat="36.7299" lon="31.54549">
        <ele>7.081634</ele>
        <time>2022-02-25T14:54:44.062Z</time>
      </trkpt>
      <trkpt lat="36.73075" lon="31.54431">
        <ele>7.656363</ele>
        <time>2022-02-25T14:55:21.953Z</time>
      </trkpt>
      <trkpt lat="36.73083" lon="31.54419">
        <ele>7.712443</ele>
        <time>2022-02-25T14:55:25.681Z</time>
      </trkpt>
      <trkpt lat="36.73087" lon="31.54418">
        <ele>7.731586</ele>
        <time>2022-02-25T14:55:26.794Z</time>
      </trkpt>
      <trkpt lat="36.73091" lon="31.54415">
        <ele>7.750213</ele>
        <time>2022-02-25T14:55:28.030Z</time>
      </trkpt>
      <trkpt lat="36.73095" lon="31.54407">
        <ele>7.786494</ele>
        <time>2022-02-25T14:55:30.201Z</time>
      </trkpt>
      <trkpt lat="36.73096" lon="31.54402">
        <ele>7.804802</ele>
        <time>2022-02-25T14:55:31.447Z</time>
      </trkpt>
      <trkpt lat="36.73096" lon="31.544">
        <ele>7.810906</ele>
        <time>2022-02-25T14:55:31.874Z</time>
      </trkpt>
      <trkpt lat="36.73179" lon="31.54294">
        <ele>7.561388</ele>
        <time>2022-02-25T14:56:03.505Z</time>
      </trkpt>
      <trkpt lat="36.73306" lon="31.5412">
        <ele>6.498577</ele>
        <time>2022-02-25T14:56:47.356Z</time>
      </trkpt>
      <trkpt lat="36.7332" lon="31.54101">
        <ele>6.371173</ele>
        <time>2022-02-25T14:56:52.141Z</time>
      </trkpt>
      <trkpt lat="36.73643" lon="31.53665">
        <ele>6.268944</ele>
        <time>2022-02-25T14:58:56.439Z</time>
      </trkpt>
      <trkpt lat="36.73667" lon="31.53636">
        <ele>6.720991</ele>
        <time>2022-02-25T14:59:07.906Z</time>
      </trkpt>
      <trkpt lat="36.73737" lon="31.53559">
        <ele>7.992789</ele>
        <time>2022-02-25T14:59:42.105Z</time>
      </trkpt>
      <trkpt lat="36.73789" lon="31.53509">
        <ele>9.183619</ele>
        <time>2022-02-25T15:00:06.911Z</time>
      </trkpt>
      <trkpt lat="36.73965" lon="31.53361">
        <ele>12.252411</ele>
        <time>2022-02-25T15:01:20.586Z</time>
      </trkpt>
      <trkpt lat="36.74037" lon="31.53295">
        <ele>13.011717</ele>
        <time>2022-02-25T15:01:45.260Z</time>
      </trkpt>
      <trkpt lat="36.74053" lon="31.53278">
        <ele>12.765271</ele>
        <time>2022-02-25T15:01:51.013Z</time>
      </trkpt>
      <trkpt lat="36.74094" lon="31.53236">
        <ele>12.153703</ele>
        <time>2022-02-25T15:02:03.454Z</time>
      </trkpt>
      <trkpt lat="36.74279" lon="31.53012">
        <ele>8.72295</ele>
        <time>2022-02-25T15:02:59.280Z</time>
      </trkpt>
      <trkpt lat="36.74367" lon="31.52911">
        <ele>7.880697</ele>
        <time>2022-02-25T15:03:28.076Z</time>
      </trkpt>
      <trkpt lat="36.74545" lon="31.52704">
        <ele>7.142788</ele>
        <time>2022-02-25T15:04:31.055Z</time>
      </trkpt>
      <trkpt lat="36.74583" lon="31.52664">
        <ele>7.040161</ele>
        <time>2022-02-25T15:04:43.695Z</time>
      </trkpt>
      <trkpt lat="36.74618" lon="31.52629">
        <ele>6.945332</ele>
        <time>2022-02-25T15:04:55.150Z</time>
      </trkpt>
      <trkpt lat="36.74666" lon="31.52583">
        <ele>6.818627</ele>
        <time>2022-02-25T15:05:10.452Z</time>
      </trkpt>
      <trkpt lat="36.74725" lon="31.52526">
        <ele>6.749705</ele>
        <time>2022-02-25T15:05:30.150Z</time>
      </trkpt>
      <trkpt lat="36.74807" lon="31.52461">
        <ele>6.872796</ele>
        <time>2022-02-25T15:05:56.222Z</time>
      </trkpt>
      <trkpt lat="36.74995" lon="31.52321">
        <ele>7.41885</ele>
        <time>2022-02-25T15:06:58.664Z</time>
      </trkpt>
      <trkpt lat="36.75074" lon="31.52262">
        <ele>7.299726</ele>
        <time>2022-02-25T15:07:22.670Z</time>
      </trkpt>
      <trkpt lat="36.75131" lon="31.52221">
        <ele>7.149893</ele>
        <time>2022-02-25T15:07:39.195Z</time>
      </trkpt>
      <trkpt lat="36.7528" lon="31.52112">
        <ele>6.821831</ele>
        <time>2022-02-25T15:08:22.773Z</time>
      </trkpt>
      <trkpt lat="36.75427" lon="31.52005">
        <ele>7.522564</ele>
        <time>2022-02-25T15:09:10.371Z</time>
      </trkpt>
      <trkpt lat="36.75489" lon="31.51958">
        <ele>8.242668</ele>
        <time>2022-02-25T15:09:33.857Z</time>
      </trkpt>
      <trkpt lat="36.75509" lon="31.51955">
        <ele>8.694716</ele>
        <time>2022-02-25T15:09:41.318Z</time>
      </trkpt>
      <trkpt lat="36.75701" lon="31.51817">
        <ele>14.187504</ele>
        <time>2022-02-25T15:11:09.483Z</time>
      </trkpt>
      <trkpt lat="36.75772" lon="31.51761">
        <ele>16.687811</ele>
        <time>2022-02-25T15:11:46.677Z</time>
      </trkpt>
      <trkpt lat="36.75804" lon="31.51728">
        <ele>17.696316</ele>
        <time>2022-02-25T15:12:04.977Z</time>
      </trkpt>
      <trkpt lat="36.75847" lon="31.51682">
        <ele>18.810695</ele>
        <time>2022-02-25T15:12:28.177Z</time>
      </trkpt>
      <trkpt lat="36.75833" lon="31.51683">
        <ele>19.093149</ele>
        <time>2022-02-25T15:12:33.959Z</time>
      </trkpt>
      <trkpt lat="36.75883" lon="31.51623">
        <ele>20.480327</ele>
        <time>2022-02-25T15:12:57.396Z</time>
      </trkpt>
      <trkpt lat="36.75916" lon="31.51582">
        <ele>20.246869</ele>
        <time>2022-02-25T15:13:09.813Z</time>
      </trkpt>
      <trkpt lat="36.75945" lon="31.51537">
        <ele>19.443285</ele>
        <time>2022-02-25T15:13:20.573Z</time>
      </trkpt>
      <trkpt lat="36.7598" lon="31.5148">
        <ele>18.425577</ele>
        <time>2022-02-25T15:13:32.589Z</time>
      </trkpt>
      <trkpt lat="36.76037" lon="31.51366">
        <ele>15.47474</ele>
        <time>2022-02-25T15:13:53.272Z</time>
      </trkpt>
      <trkpt lat="36.76049" lon="31.51342">
        <ele>14.687372</ele>
        <time>2022-02-25T15:13:57.513Z</time>
      </trkpt>
      <trkpt lat="36.76147" lon="31.51118">
        <ele>8.395606</ele>
        <time>2022-02-25T15:14:37.174Z</time>
      </trkpt>
      <trkpt lat="36.76245" lon="31.50919">
        <ele>4.875598</ele>
        <time>2022-02-25T15:15:17.418Z</time>
      </trkpt>
      <trkpt lat="36.76257" lon="31.5089">
        <ele>4.518989</ele>
        <time>2022-02-25T15:15:23.487Z</time>
      </trkpt>
      <trkpt lat="36.76271" lon="31.50855">
        <ele>4.078755</ele>
        <time>2022-02-25T15:15:30.976Z</time>
      </trkpt>
      <trkpt lat="36.76288" lon="31.50815">
        <ele>3.95034</ele>
        <time>2022-02-25T15:15:39.691Z</time>
      </trkpt>
      <trkpt lat="36.76343" lon="31.50682">
        <ele>3.71915</ele>
        <time>2022-02-25T15:16:11.586Z</time>
      </trkpt>
      <trkpt lat="36.76396" lon="31.50564">
        <ele>3.519997</ele>
        <time>2022-02-25T15:16:40.255Z</time>
      </trkpt>
      <trkpt lat="36.7653" lon="31.50272">
        <ele>2.92509</ele>
        <time>2022-02-25T15:17:48.892Z</time>
      </trkpt>
      <trkpt lat="36.76707" lon="31.49879">
        <ele>2.417118</ele>
        <time>2022-02-25T15:19:22.907Z</time>
      </trkpt>
      <trkpt lat="36.76774" lon="31.49726">
        <ele>2.73262</ele>
        <time>2022-02-25T15:20:01.789Z</time>
      </trkpt>
      <trkpt lat="36.76954" lon="31.49347">
        <ele>3.721208</ele>
        <time>2022-02-25T15:21:41.085Z</time>
      </trkpt>
      <trkpt lat="36.76982" lon="31.49288">
        <ele>3.858125</ele>
        <time>2022-02-25T15:21:56.385Z</time>
      </trkpt>
      <trkpt lat="36.76986" lon="31.49279">
        <ele>3.865653</ele>
        <time>2022-02-25T15:21:58.575Z</time>
      </trkpt>
      <trkpt lat="36.76988" lon="31.49275">
        <ele>3.867835</ele>
        <time>2022-02-25T15:21:59.663Z</time>
      </trkpt>
      <trkpt lat="36.76991" lon="31.49269">
        <ele>3.870997</ele>
        <time>2022-02-25T15:22:01.177Z</time>
      </trkpt>
      <trkpt lat="36.77118" lon="31.48961">
        <ele>3.936267</ele>
        <time>2022-02-25T15:23:16.004Z</time>
      </trkpt>
      <trkpt lat="36.77205" lon="31.48768">
        <ele>3.684554</ele>
        <time>2022-02-25T15:24:02.231Z</time>
      </trkpt>
      <trkpt lat="36.7722" lon="31.48753">
        <ele>3.643269</ele>
        <time>2022-02-25T15:24:07.170Z</time>
      </trkpt>
      <trkpt lat="36.77234" lon="31.48745">
        <ele>3.609674</ele>
        <time>2022-02-25T15:24:11.471Z</time>
      </trkpt>
      <trkpt lat="36.77245" lon="31.48737">
        <ele>3.581428</ele>
        <time>2022-02-25T15:24:14.810Z</time>
      </trkpt>
      <trkpt lat="36.77258" lon="31.48716">
        <ele>3.537417</ele>
        <time>2022-02-25T15:24:20.293Z</time>
      </trkpt>
      <trkpt lat="36.77262" lon="31.48704">
        <ele>3.526734</ele>
        <time>2022-02-25T15:24:23.015Z</time>
      </trkpt>
      <trkpt lat="36.77266" lon="31.48655">
        <ele>3.48681</ele>
        <time>2022-02-25T15:24:33.319Z</time>
      </trkpt>
      <trkpt lat="36.7758" lon="31.47961">
        <ele>3.101649</ele>
        <time>2022-02-25T15:27:28.922Z</time>
      </trkpt>
      <trkpt lat="36.77637" lon="31.47815">
        <ele>3.518811</ele>
        <time>2022-02-25T15:28:08.461Z</time>
      </trkpt>
      <trkpt lat="36.77648" lon="31.47784">
        <ele>3.627354</ele>
        <time>2022-02-25T15:28:16.747Z</time>
      </trkpt>
      <trkpt lat="36.77662" lon="31.4779">
        <ele>3.686384</ele>
        <time>2022-02-25T15:28:20.903Z</time>
      </trkpt>
      <trkpt lat="36.77676" lon="31.47797">
        <ele>3.745676</ele>
        <time>2022-02-25T15:28:25.146Z</time>
      </trkpt>
      <trkpt lat="36.77685" lon="31.47801">
        <ele>3.785973</ele>
        <time>2022-02-25T15:28:27.872Z</time>
      </trkpt>
      <trkpt lat="36.77707" lon="31.477">
        <ele>3.831018</ele>
        <time>2022-02-25T15:28:51.314Z</time>
      </trkpt>
      <trkpt lat="36.77727" lon="31.47577">
        <ele>3.819138</ele>
        <time>2022-02-25T15:29:18.733Z</time>
      </trkpt>
      <trkpt lat="36.77763" lon="31.47363">
        <ele>3.643789</ele>
        <time>2022-02-25T15:30:07.265Z</time>
      </trkpt>
      <trkpt lat="36.77777" lon="31.47344">
        <ele>3.588735</ele>
        <time>2022-02-25T15:30:12.824Z</time>
      </trkpt>
      <trkpt lat="36.77853" lon="31.4724">
        <ele>2.935106</ele>
        <time>2022-02-25T15:30:41.411Z</time>
      </trkpt>
      <trkpt lat="36.77873" lon="31.47194">
        <ele>2.690119</ele>
        <time>2022-02-25T15:30:51.815Z</time>
      </trkpt>
      <trkpt lat="36.77888" lon="31.47112">
        <ele>2.473636</ele>
        <time>2022-02-25T15:31:08.783Z</time>
      </trkpt>
      <trkpt lat="36.77896" lon="31.47039">
        <ele>2.339111</ele>
        <time>2022-02-25T15:31:24.702Z</time>
      </trkpt>
      <trkpt lat="36.77917" lon="31.46939">
        <ele>2.224945</ele>
        <time>2022-02-25T15:31:47.823Z</time>
      </trkpt>
      <trkpt lat="36.77929" lon="31.46921">
        <ele>2.303841</ele>
        <time>2022-02-25T15:31:53.282Z</time>
      </trkpt>
      <trkpt lat="36.77949" lon="31.46821">
        <ele>2.653953</ele>
        <time>2022-02-25T15:32:17.581Z</time>
      </trkpt>
      <trkpt lat="36.77983" lon="31.46594">
        <ele>3.842466</ele>
        <time>2022-02-25T15:33:14.886Z</time>
      </trkpt>
      <trkpt lat="36.78014" lon="31.46448">
        <ele>4.705074</ele>
        <time>2022-02-25T15:33:54.334Z</time>
      </trkpt>
      <trkpt lat="36.77977" lon="31.46344">
        <ele>5.302909</ele>
        <time>2022-02-25T15:34:22.843Z</time>
      </trkpt>
      <trkpt lat="36.7798" lon="31.46342">
        <ele>5.32201</ele>
        <time>2022-02-25T15:34:23.701Z</time>
      </trkpt>
      <trkpt lat="36.77995" lon="31.46333">
        <ele>5.430721</ele>
        <time>2022-02-25T15:34:28.541Z</time>
      </trkpt>
      <trkpt lat="36.77997" lon="31.46332">
        <ele>5.449595</ele>
        <time>2022-02-25T15:34:29.353Z</time>
      </trkpt>
      <trkpt lat="36.78016" lon="31.4632">
        <ele>5.44502</ele>
        <time>2022-02-25T15:34:35.298Z</time>
      </trkpt>
      <trkpt lat="36.78044" lon="31.46268">
        <ele>5.234482</ele>
        <time>2022-02-25T15:34:48.467Z</time>
      </trkpt>
      <trkpt lat="36.78078" lon="31.46206">
        <ele>4.981982</ele>
        <time>2022-02-25T15:35:03.603Z</time>
      </trkpt>
      <trkpt lat="36.78111" lon="31.46147">
        <ele>4.743252</ele>
        <time>2022-02-25T15:35:18.288Z</time>
      </trkpt>
      <trkpt lat="36.78139" lon="31.46097">
        <ele>4.720696</ele>
        <time>2022-02-25T15:35:30.600Z</time>
      </trkpt>
      <trkpt lat="36.78168" lon="31.46044">
        <ele>4.696678</ele>
        <time>2022-02-25T15:35:44.282Z</time>
      </trkpt>
      <trkpt lat="36.78185" lon="31.46013">
        <ele>4.682701</ele>
        <time>2022-02-25T15:35:52.792Z</time>
      </trkpt>
      <trkpt lat="36.78233" lon="31.46051">
        <ele>4.719589</ele>
        <time>2022-02-25T15:36:09.916Z</time>
      </trkpt>
      <trkpt lat="36.7824" lon="31.46037">
        <ele>4.81902</ele>
        <time>2022-02-25T15:36:14.307Z</time>
      </trkpt>
      <trkpt lat="36.78246" lon="31.4603">
        <ele>4.879463</ele>
        <time>2022-02-25T15:36:16.811Z</time>
      </trkpt>
      <trkpt lat="36.78265" lon="31.45999">
        <ele>5.113215</ele>
        <time>2022-02-25T15:36:26.963Z</time>
      </trkpt>
      <trkpt lat="36.78316" lon="31.45934">
        <ele>5.644866</ele>
        <time>2022-02-25T15:36:50.289Z</time>
      </trkpt>
      <trkpt lat="36.78327" lon="31.4592">
        <ele>5.763501</ele>
        <time>2022-02-25T15:36:55.271Z</time>
      </trkpt>
      <trkpt lat="36.78339" lon="31.45917">
        <ele>5.849525</ele>
        <time>2022-02-25T15:36:59.106Z</time>
      </trkpt>
      <trkpt lat="36.78352" lon="31.45874">
        <ele>6.012434</ele>
        <time>2022-02-25T15:37:10.421Z</time>
      </trkpt>
      <trkpt lat="36.78366" lon="31.45847">
        <ele>6.051464</ele>
        <time>2022-02-25T15:37:17.863Z</time>
      </trkpt>
      <trkpt lat="36.78376" lon="31.45838">
        <ele>6.069353</ele>
        <time>2022-02-25T15:37:21.728Z</time>
      </trkpt>
      <trkpt lat="36.78396" lon="31.45834">
        <ele>6.100014</ele>
        <time>2022-02-25T15:37:27.429Z</time>
      </trkpt>
      <trkpt lat="36.78426" lon="31.45834">
        <ele>6.145099</ele>
        <time>2022-02-25T15:37:35.962Z</time>
      </trkpt>
      <trkpt lat="36.78427" lon="31.45834">
        <ele>6.146751</ele>
        <time>2022-02-25T15:37:36.252Z</time>
      </trkpt>
      <trkpt lat="36.78441" lon="31.45779">
        <ele>6.215453</ele>
        <time>2022-02-25T15:37:48.132Z</time>
      </trkpt>
      <trkpt lat="36.78445" lon="31.45758">
        <ele>6.241767</ele>
        <time>2022-02-25T15:37:53.162Z</time>
      </trkpt>
      <trkpt lat="36.78443" lon="31.45699">
        <ele>6.276574</ele>
        <time>2022-02-25T15:38:06.448Z</time>
      </trkpt>
      <trkpt lat="36.78512" lon="31.45683">
        <ele>6.317556</ele>
        <time>2022-02-25T15:38:26.188Z</time>
      </trkpt>
      <trkpt lat="36.78614" lon="31.45658">
        <ele>6.33509</ele>
        <time>2022-02-25T15:38:55.875Z</time>
      </trkpt>
      <trkpt lat="36.78617" lon="31.45657">
        <ele>6.33249</ele>
        <time>2022-02-25T15:38:56.782Z</time>
      </trkpt>
      <trkpt lat="36.78688" lon="31.45631">
        <ele>6.280381</ele>
        <time>2022-02-25T15:39:17.040Z</time>
      </trkpt>
      <trkpt lat="36.78679" lon="31.45599">
        <ele>6.261204</ele>
        <time>2022-02-25T15:39:24.888Z</time>
      </trkpt>
      <trkpt lat="36.78684" lon="31.45596">
        <ele>6.25715</ele>
        <time>2022-02-25T15:39:26.109Z</time>
      </trkpt>
      <trkpt lat="36.78774" lon="31.45533">
        <ele>6.32811</ele>
        <time>2022-02-25T15:39:52.655Z</time>
      </trkpt>
      <trkpt lat="36.78783" lon="31.45527">
        <ele>6.342284</ele>
        <time>2022-02-25T15:39:54.810Z</time>
      </trkpt>
      <trkpt lat="36.78797" lon="31.45519">
        <ele>6.364808</ele>
        <time>2022-02-25T15:39:59.580Z</time>
      </trkpt>
      <trkpt lat="36.78818" lon="31.45511">
        <ele>6.395929</ele>
        <time>2022-02-25T15:40:04.890Z</time>
      </trkpt>
      <trkpt lat="36.78829" lon="31.4551">
        <ele>6.412389</ele>
        <time>2022-02-25T15:40:08.525Z</time>
      </trkpt>
      <trkpt lat="36.78835" lon="31.45509">
        <ele>6.420898</ele>
        <time>2022-02-25T15:40:10.389Z</time>
      </trkpt>
      <trkpt lat="36.78848" lon="31.45495">
        <ele>6.446063</ele>
        <time>2022-02-25T15:40:15.037Z</time>
      </trkpt>
      <trkpt lat="36.78851" lon="31.45488">
        <ele>6.454578</ele>
        <time>2022-02-25T15:40:17.134Z</time>
      </trkpt>
      <trkpt lat="36.78851" lon="31.45481">
        <ele>6.463387</ele>
        <time>2022-02-25T15:40:19.083Z</time>
      </trkpt>
      <trkpt lat="36.78848" lon="31.45466">
        <ele>6.480856</ele>
        <time>2022-02-25T15:40:22.970Z</time>
      </trkpt>
      <trkpt lat="36.78844" lon="31.4546">
        <ele>6.489681</ele>
        <time>2022-02-25T15:40:24.487Z</time>
      </trkpt>
      <trkpt lat="36.78837" lon="31.45426">
        <ele>6.761723</ele>
        <time>2022-02-25T15:40:33.602Z</time>
      </trkpt>
      <trkpt lat="36.78825" lon="31.45372">
        <ele>7.199213</ele>
        <time>2022-02-25T15:40:47.092Z</time>
      </trkpt>
      <trkpt lat="36.78806" lon="31.45267">
        <ele>8.045779</ele>
        <time>2022-02-25T15:41:14.212Z</time>
      </trkpt>
      <trkpt lat="36.78804" lon="31.45255">
        <ele>8.139975</ele>
        <time>2022-02-25T15:41:17.407Z</time>
      </trkpt>
      <trkpt lat="36.78784" lon="31.45138">
        <ele>8.929196</ele>
        <time>2022-02-25T15:41:49.710Z</time>
      </trkpt>
      <trkpt lat="36.78773" lon="31.4508">
        <ele>9.305788</ele>
        <time>2022-02-25T15:42:04.131Z</time>
      </trkpt>
      <trkpt lat="36.78762" lon="31.44996">
        <ele>9.489115</ele>
        <time>2022-02-25T15:42:22.852Z</time>
      </trkpt>
      <trkpt lat="36.78753" lon="31.4493">
        <ele>8.974451</ele>
        <time>2022-02-25T15:42:35.241Z</time>
      </trkpt>
      <trkpt lat="36.78744" lon="31.44865">
        <ele>8.459738</ele>
        <time>2022-02-25T15:42:47.355Z</time>
      </trkpt>
      <trkpt lat="36.78742" lon="31.44846">
        <ele>8.312897</ele>
        <time>2022-02-25T15:42:50.454Z</time>
      </trkpt>
      <trkpt lat="36.78732" lon="31.44824">
        <ele>8.126318</ele>
        <time>2022-02-25T15:42:55.188Z</time>
      </trkpt>
      <trkpt lat="36.7873" lon="31.44814">
        <ele>8.040439</ele>
        <time>2022-02-25T15:42:56.970Z</time>
      </trkpt>
      <trkpt lat="36.78713" lon="31.44752">
        <ele>7.659712</ele>
        <time>2022-02-25T15:43:08.871Z</time>
      </trkpt>
      <trkpt lat="36.78704" lon="31.4472">
        <ele>7.475434</ele>
        <time>2022-02-25T15:43:14.916Z</time>
      </trkpt>
      <trkpt lat="36.78698" lon="31.44702">
        <ele>7.366325</ele>
        <time>2022-02-25T15:43:19.163Z</time>
      </trkpt>
      <trkpt lat="36.78679" lon="31.44631">
        <ele>6.958116</ele>
        <time>2022-02-25T15:43:32.862Z</time>
      </trkpt>
      <trkpt lat="36.7868" lon="31.44584">
        <ele>6.746246</ele>
        <time>2022-02-25T15:43:43.315Z</time>
      </trkpt>
      <trkpt lat="36.78703" lon="31.44583">
        <ele>6.859452</ele>
        <time>2022-02-25T15:43:50.593Z</time>
      </trkpt>
      <trkpt lat="36.78715" lon="31.44583">
        <ele>6.916523</ele>
        <time>2022-02-25T15:43:54.422Z</time>
      </trkpt>
      <trkpt lat="36.78728" lon="31.44583">
        <ele>6.981889</ele>
        <time>2022-02-25T15:43:59.505Z</time>
      </trkpt>
      <trkpt lat="36.78731" lon="31.44583">
        <ele>6.995064</ele>
        <time>2022-02-25T15:44:00.321Z</time>
      </trkpt>
      <trkpt lat="36.78738" lon="31.44583">
        <ele>7.029228</ele>
        <time>2022-02-25T15:44:02.530Z</time>
      </trkpt>
      <trkpt lat="36.78739" lon="31.44583">
        <ele>7.037042</ele>
        <time>2022-02-25T15:44:03.014Z</time>
      </trkpt>
      <trkpt lat="36.78748" lon="31.44581">
        <ele>7.079297</ele>
        <time>2022-02-25T15:44:05.719Z</time>
      </trkpt>
      <trkpt lat="36.78749" lon="31.44581">
        <ele>7.08419</ele>
        <time>2022-02-25T15:44:06.004Z</time>
      </trkpt>
      <trkpt lat="36.78785" lon="31.44576">
        <ele>7.262503</ele>
        <time>2022-02-25T15:44:17.344Z</time>
      </trkpt>
      <trkpt lat="36.7879" lon="31.44547">
        <ele>7.376935</ele>
        <time>2022-02-25T15:44:24.565Z</time>
      </trkpt>
      <trkpt lat="36.78803" lon="31.44491">
        <ele>7.603299</ele>
        <time>2022-02-25T15:44:37.500Z</time>
      </trkpt>
      <trkpt lat="36.78806" lon="31.44483">
        <ele>7.640946</ele>
        <time>2022-02-25T15:44:39.863Z</time>
      </trkpt>
      <trkpt lat="36.78815" lon="31.44467">
        <ele>7.712999</ele>
        <time>2022-02-25T15:44:44.062Z</time>
      </trkpt>
      <trkpt lat="36.78829" lon="31.44447">
        <ele>7.813869</ele>
        <time>2022-02-25T15:44:50.136Z</time>
      </trkpt>
      <trkpt lat="36.78841" lon="31.44433">
        <ele>7.894558</ele>
        <time>2022-02-25T15:44:55.059Z</time>
      </trkpt>
      <trkpt lat="36.78845" lon="31.44429">
        <ele>7.920025</ele>
        <time>2022-02-25T15:44:56.573Z</time>
      </trkpt>
      <trkpt lat="36.78851" lon="31.4442">
        <ele>7.96568</ele>
        <time>2022-02-25T15:44:59.421Z</time>
      </trkpt>
      <trkpt lat="36.78886" lon="31.44374">
        <ele>8.209098</ele>
        <time>2022-02-25T15:45:15.016Z</time>
      </trkpt>
      <trkpt lat="36.78908" lon="31.44346">
        <ele>8.358916</ele>
        <time>2022-02-25T15:45:24.463Z</time>
      </trkpt>
      <trkpt lat="36.78944" lon="31.44298">
        <ele>8.876929</ele>
        <time>2022-02-25T15:45:41.145Z</time>
      </trkpt>
      <trkpt lat="36.78957" lon="31.44281">
        <ele>9.12841</ele>
        <time>2022-02-25T15:45:47.078Z</time>
      </trkpt>
      <trkpt lat="36.7898" lon="31.4425">
        <ele>9.59211</ele>
        <time>2022-02-25T15:45:58.913Z</time>
      </trkpt>
      <trkpt lat="36.79004" lon="31.44219">
        <ele>10.05904</ele>
        <time>2022-02-25T15:46:10.953Z</time>
      </trkpt>
      <trkpt lat="36.7903" lon="31.44184">
        <ele>10.583351</ele>
        <time>2022-02-25T15:46:24.447Z</time>
      </trkpt>
      <trkpt lat="36.79034" lon="31.44181">
        <ele>10.638851</ele>
        <time>2022-02-25T15:46:25.773Z</time>
      </trkpt>
      <trkpt lat="36.79047" lon="31.44167">
        <ele>10.878918</ele>
        <time>2022-02-25T15:46:31.565Z</time>
      </trkpt>
      <trkpt lat="36.79077" lon="31.44135">
        <ele>11.517694</ele>
        <time>2022-02-25T15:46:46.128Z</time>
      </trkpt>
      <trkpt lat="36.79083" lon="31.4413">
        <ele>11.632612</ele>
        <time>2022-02-25T15:46:49.392Z</time>
      </trkpt>
      <trkpt lat="36.79115" lon="31.44094">
        <ele>12.349562</ele>
        <time>2022-02-25T15:47:05.194Z</time>
      </trkpt>
      <trkpt lat="36.79125" lon="31.44086">
        <ele>12.530158</ele>
        <time>2022-02-25T15:47:09.431Z</time>
      </trkpt>
      <trkpt lat="36.79132" lon="31.44081">
        <ele>12.663974</ele>
        <time>2022-02-25T15:47:11.962Z</time>
      </trkpt>
      <trkpt lat="36.7916" lon="31.44068">
        <ele>13.166913</ele>
        <time>2022-02-25T15:47:22.867Z</time>
      </trkpt>
      <trkpt lat="36.79168" lon="31.44065">
        <ele>13.293572</ele>
        <time>2022-02-25T15:47:25.114Z</time>
      </trkpt>
      <trkpt lat="36.79165" lon="31.44055">
        <ele>13.434739</ele>
        <time>2022-02-25T15:47:28.624Z</time>
      </trkpt>
      <trkpt lat="36.79163" lon="31.44029">
        <ele>13.771024</ele>
        <time>2022-02-25T15:47:35.028Z</time>
      </trkpt>
      <trkpt lat="36.79164" lon="31.44014">
        <ele>13.888613</ele>
        <time>2022-02-25T15:47:39.339Z</time>
      </trkpt>
      <trkpt lat="36.79165" lon="31.44006">
        <ele>13.909392</ele>
        <time>2022-02-25T15:47:41.127Z</time>
      </trkpt>
      <trkpt lat="36.79234" lon="31.43781">
        <ele>14.664604</ele>
        <time>2022-02-25T15:48:36.384Z</time>
      </trkpt>
      <trkpt lat="36.79241" lon="31.43764">
        <ele>14.798195</ele>
        <time>2022-02-25T15:48:40.532Z</time>
      </trkpt>
      <trkpt lat="36.79266" lon="31.43727">
        <ele>15.129708</ele>
        <time>2022-02-25T15:48:51.322Z</time>
      </trkpt>
      <trkpt lat="36.79323" lon="31.43655">
        <ele>15.829004</ele>
        <time>2022-02-25T15:49:15.772Z</time>
      </trkpt>
      <trkpt lat="36.79343" lon="31.43633">
        <ele>16.460812</ele>
        <time>2022-02-25T15:49:24.227Z</time>
      </trkpt>
      <trkpt lat="36.79378" lon="31.43568">
        <ele>20.222653</ele>
        <time>2022-02-25T15:49:58.251Z</time>
      </trkpt>
      <trkpt lat="36.79426" lon="31.43487">
        <ele>25.06845</ele>
        <time>2022-02-25T15:50:46.715Z</time>
      </trkpt>
      <trkpt lat="36.79429" lon="31.43477">
        <ele>25.554212</ele>
        <time>2022-02-25T15:50:51.329Z</time>
      </trkpt>
      <trkpt lat="36.79434" lon="31.4347">
        <ele>26.014416</ele>
        <time>2022-02-25T15:50:55.051Z</time>
      </trkpt>
      <trkpt lat="36.79432" lon="31.43458">
        <ele>26.571978</ele>
        <time>2022-02-25T15:51:05.416Z</time>
      </trkpt>
      <trkpt lat="36.79373" lon="31.43346">
        <ele>34.171722</ele>
        <time>2022-02-25T15:52:20.305Z</time>
      </trkpt>
      <trkpt lat="36.79371" lon="31.43312">
        <ele>36.100939</ele>
        <time>2022-02-25T15:52:35.213Z</time>
      </trkpt>
      <trkpt lat="36.79363" lon="31.43303">
        <ele>36.896536</ele>
        <time>2022-02-25T15:52:46.258Z</time>
      </trkpt>
      <trkpt lat="36.7934" lon="31.43292">
        <ele>38.612638</ele>
        <time>2022-02-25T15:52:58.416Z</time>
      </trkpt>
      <trkpt lat="36.7932" lon="31.43265">
        <ele>39.37618</ele>
        <time>2022-02-25T15:53:10.338Z</time>
      </trkpt>
      <trkpt lat="36.79288" lon="31.43206">
        <ele>38.925155</ele>
        <time>2022-02-25T15:53:30.224Z</time>
      </trkpt>
      <trkpt lat="36.79274" lon="31.43162">
        <ele>38.621242</ele>
        <time>2022-02-25T15:53:39.170Z</time>
      </trkpt>
      <trkpt lat="36.79245" lon="31.43157">
        <ele>38.393377</ele>
        <time>2022-02-25T15:53:45.192Z</time>
      </trkpt>
      <trkpt lat="36.79229" lon="31.43148">
        <ele>38.253576</ele>
        <time>2022-02-25T15:53:48.554Z</time>
      </trkpt>
      <trkpt lat="36.79216" lon="31.43151">
        <ele>38.148596</ele>
        <time>2022-02-25T15:53:51.182Z</time>
      </trkpt>
      <trkpt lat="36.79199" lon="31.43152">
        <ele>37.56701</ele>
        <time>2022-02-25T15:53:54.364Z</time>
      </trkpt>
      <trkpt lat="36.79217" lon="31.43097">
        <ele>34.77724</ele>
        <time>2022-02-25T15:54:03.240Z</time>
      </trkpt>
      <trkpt lat="36.79224" lon="31.43075">
        <ele>33.703412</ele>
        <time>2022-02-25T15:54:06.589Z</time>
      </trkpt>
      <trkpt lat="36.79246" lon="31.43008">
        <ele>30.31274</ele>
        <time>2022-02-25T15:54:17.103Z</time>
      </trkpt>
      <trkpt lat="36.79249" lon="31.42995">
        <ele>29.682478</ele>
        <time>2022-02-25T15:54:19.071Z</time>
      </trkpt>
      <trkpt lat="36.79258" lon="31.42964">
        <ele>28.111426</ele>
        <time>2022-02-25T15:54:24.057Z</time>
      </trkpt>
      <trkpt lat="36.79269" lon="31.4294">
        <ele>27.322948</ele>
        <time>2022-02-25T15:54:27.935Z</time>
      </trkpt>
      <trkpt lat="36.79272" lon="31.42931">
        <ele>27.153563</ele>
        <time>2022-02-25T15:54:29.482Z</time>
      </trkpt>
      <trkpt lat="36.79275" lon="31.42907">
        <ele>26.722771</ele>
        <time>2022-02-25T15:54:33.235Z</time>
      </trkpt>
      <trkpt lat="36.79284" lon="31.42871">
        <ele>26.080072</ele>
        <time>2022-02-25T15:54:39.173Z</time>
      </trkpt>
      <trkpt lat="36.79288" lon="31.42854">
        <ele>25.759143</ele>
        <time>2022-02-25T15:54:42.156Z</time>
      </trkpt>
      <trkpt lat="36.79307" lon="31.4276">
        <ele>24.0875</ele>
        <time>2022-02-25T15:55:00.958Z</time>
      </trkpt>
      <trkpt lat="36.79308" lon="31.42754">
        <ele>23.97666</ele>
        <time>2022-02-25T15:55:02.799Z</time>
      </trkpt>
      <trkpt lat="36.79324" lon="31.427">
        <ele>25.09124</ele>
        <time>2022-02-25T15:55:20.133Z</time>
      </trkpt>
      <trkpt lat="36.79337" lon="31.42644">
        <ele>27.107915</ele>
        <time>2022-02-25T15:55:42.392Z</time>
      </trkpt>
      <trkpt lat="36.79339" lon="31.42622">
        <ele>27.839587</ele>
        <time>2022-02-25T15:55:52.159Z</time>
      </trkpt>
      <trkpt lat="36.7934" lon="31.4259">
        <ele>28.930355</ele>
        <time>2022-02-25T15:56:05.465Z</time>
      </trkpt>
      <trkpt lat="36.79343" lon="31.42544">
        <ele>30.513798</ele>
        <time>2022-02-25T15:56:26.956Z</time>
      </trkpt>
      <trkpt lat="36.79344" lon="31.4252">
        <ele>31.319407</ele>
        <time>2022-02-25T15:56:38.667Z</time>
      </trkpt>
      <trkpt lat="36.79345" lon="31.42503">
        <ele>31.714279</ele>
        <time>2022-02-25T15:56:45.692Z</time>
      </trkpt>
      <trkpt lat="36.79346" lon="31.42492">
        <ele>31.944925</ele>
        <time>2022-02-25T15:56:50.656Z</time>
      </trkpt>
      <trkpt lat="36.79345" lon="31.42449">
        <ele>32.882484</ele>
        <time>2022-02-25T15:57:08.246Z</time>
      </trkpt>
      <trkpt lat="36.79347" lon="31.42442">
        <ele>33.033818</ele>
        <time>2022-02-25T15:57:11.443Z</time>
      </trkpt>
      <trkpt lat="36.79347" lon="31.42433">
        <ele>33.240632</ele>
        <time>2022-02-25T15:57:15.199Z</time>
      </trkpt>
      <trkpt lat="36.79345" lon="31.42394">
        <ele>34.075206</ele>
        <time>2022-02-25T15:57:27.847Z</time>
      </trkpt>
      <trkpt lat="36.79342" lon="31.42375">
        <ele>34.502876</ele>
        <time>2022-02-25T15:57:33.531Z</time>
      </trkpt>
      <trkpt lat="36.79339" lon="31.42361">
        <ele>34.811264</ele>
        <time>2022-02-25T15:57:37.156Z</time>
      </trkpt>
      <trkpt lat="36.79337" lon="31.42354">
        <ele>34.973265</ele>
        <time>2022-02-25T15:57:39.641Z</time>
      </trkpt>
      <trkpt lat="36.79332" lon="31.42332">
        <ele>35.481234</ele>
        <time>2022-02-25T15:57:45.260Z</time>
      </trkpt>
      <trkpt lat="36.79332" lon="31.42328">
        <ele>35.570919</ele>
        <time>2022-02-25T15:57:46.024Z</time>
      </trkpt>
      <trkpt lat="36.79332" lon="31.42324">
        <ele>35.660148</ele>
        <time>2022-02-25T15:57:46.831Z</time>
      </trkpt>
      <trkpt lat="36.79331" lon="31.4232">
        <ele>35.751301</ele>
        <time>2022-02-25T15:57:47.776Z</time>
      </trkpt>
      <trkpt lat="36.79329" lon="31.42317">
        <ele>35.84149</ele>
        <time>2022-02-25T15:57:48.891Z</time>
      </trkpt>
      <trkpt lat="36.79329" lon="31.42299">
        <ele>36.213467</ele>
        <time>2022-02-25T15:57:52.806Z</time>
      </trkpt>
      <trkpt lat="36.79322" lon="31.42265">
        <ele>35.809426</ele>
        <time>2022-02-25T15:57:59.530Z</time>
      </trkpt>
      <trkpt lat="36.79316" lon="31.42235">
        <ele>35.421706</ele>
        <time>2022-02-25T15:58:05.348Z</time>
      </trkpt>
      <trkpt lat="36.79299" lon="31.42159">
        <ele>34.429858</ele>
        <time>2022-02-25T15:58:19.252Z</time>
      </trkpt>
      <trkpt lat="36.79287" lon="31.42089">
        <ele>33.523083</ele>
        <time>2022-02-25T15:58:31.822Z</time>
      </trkpt>
      <trkpt lat="36.79259" lon="31.41951">
        <ele>31.363098</ele>
        <time>2022-02-25T15:58:57.830Z</time>
      </trkpt>
      <trkpt lat="36.79244" lon="31.41881">
        <ele>30.24947</ele>
        <time>2022-02-25T15:59:10.916Z</time>
      </trkpt>
      <trkpt lat="36.7922" lon="31.41871">
        <ele>29.665145</ele>
        <time>2022-02-25T15:59:16.351Z</time>
      </trkpt>
      <trkpt lat="36.79212" lon="31.41868">
        <ele>29.422109</ele>
        <time>2022-02-25T15:59:18.138Z</time>
      </trkpt>
      <trkpt lat="36.7925" lon="31.41707">
        <ele>25.570265</ele>
        <time>2022-02-25T15:59:44.068Z</time>
      </trkpt>
      <trkpt lat="36.79263" lon="31.41661">
        <ele>24.655411</ele>
        <time>2022-02-25T15:59:52.311Z</time>
      </trkpt>
      <trkpt lat="36.79264" lon="31.41644">
        <ele>24.507195</ele>
        <time>2022-02-25T15:59:55.200Z</time>
      </trkpt>
      <trkpt lat="36.79266" lon="31.41623">
        <ele>24.325206</ele>
        <time>2022-02-25T15:59:58.791Z</time>
      </trkpt>
      <trkpt lat="36.79271" lon="31.41587">
        <ele>24.014673</ele>
        <time>2022-02-25T16:00:05.185Z</time>
      </trkpt>
      <trkpt lat="36.79272" lon="31.41577">
        <ele>23.91815</ele>
        <time>2022-02-25T16:00:07.226Z</time>
      </trkpt>
      <trkpt lat="36.79282" lon="31.41524">
        <ele>23.447593</ele>
        <time>2022-02-25T16:00:17.452Z</time>
      </trkpt>
      <trkpt lat="36.79292" lon="31.41485">
        <ele>23.092905</ele>
        <time>2022-02-25T16:00:25.389Z</time>
      </trkpt>
      <trkpt lat="36.79306" lon="31.41439">
        <ele>22.731779</ele>
        <time>2022-02-25T16:00:35.914Z</time>
      </trkpt>
      <trkpt lat="36.79318" lon="31.41406">
        <ele>22.523374</ele>
        <time>2022-02-25T16:00:44.482Z</time>
      </trkpt>
      <trkpt lat="36.79337" lon="31.41361">
        <ele>22.232769</ele>
        <time>2022-02-25T16:00:55.470Z</time>
      </trkpt>
      <trkpt lat="36.79354" lon="31.41321">
        <ele>21.977365</ele>
        <time>2022-02-25T16:01:04.059Z</time>
      </trkpt>
      <trkpt lat="36.79412" lon="31.41219">
        <ele>21.018909</ele>
        <time>2022-02-25T16:01:25.652Z</time>
      </trkpt>
      <trkpt lat="36.79426" lon="31.41204">
        <ele>20.786627</ele>
        <time>2022-02-25T16:01:29.641Z</time>
      </trkpt>
      <trkpt lat="36.79437" lon="31.412">
        <ele>20.63806</ele>
        <time>2022-02-25T16:01:32.142Z</time>
      </trkpt>
      <trkpt lat="36.79452" lon="31.41181">
        <ele>20.353833</ele>
        <time>2022-02-25T16:01:37.126Z</time>
      </trkpt>
      <trkpt lat="36.79456" lon="31.41168">
        <ele>20.209665</ele>
        <time>2022-02-25T16:01:39.612Z</time>
      </trkpt>
      <trkpt lat="36.79465" lon="31.41144">
        <ele>19.937514</ele>
        <time>2022-02-25T16:01:44.482Z</time>
      </trkpt>
      <trkpt lat="36.79483" lon="31.41125">
        <ele>19.637052</ele>
        <time>2022-02-25T16:01:49.814Z</time>
      </trkpt>
      <trkpt lat="36.79505" lon="31.41101">
        <ele>19.260585</ele>
        <time>2022-02-25T16:01:56.628Z</time>
      </trkpt>
      <trkpt lat="36.79595" lon="31.41003">
        <ele>18.580048</ele>
        <time>2022-02-25T16:02:25.527Z</time>
      </trkpt>
      <trkpt lat="36.79628" lon="31.40999">
        <ele>18.392622</ele>
        <time>2022-02-25T16:02:34.669Z</time>
      </trkpt>
      <trkpt lat="36.7965" lon="31.41003">
        <ele>18.268645</ele>
        <time>2022-02-25T16:02:40.522Z</time>
      </trkpt>
      <trkpt lat="36.79646" lon="31.40978">
        <ele>18.189817</ele>
        <time>2022-02-25T16:02:45.651Z</time>
      </trkpt>
      <trkpt lat="36.7966" lon="31.40926">
        <ele>18.044707</ele>
        <time>2022-02-25T16:02:57.169Z</time>
      </trkpt>
      <trkpt lat="36.79733" lon="31.40827">
        <ele>17.692112</ele>
        <time>2022-02-25T16:03:25.127Z</time>
      </trkpt>
      <trkpt lat="36.79814" lon="31.40713">
        <ele>18.353719</ele>
        <time>2022-02-25T16:04:00.366Z</time>
      </trkpt>
      <trkpt lat="36.7987" lon="31.4061">
        <ele>19.390328</ele>
        <time>2022-02-25T16:04:34.677Z</time>
      </trkpt>
      <trkpt lat="36.79904" lon="31.40544">
        <ele>20.64374</ele>
        <time>2022-02-25T16:04:58.119Z</time>
      </trkpt>
      <trkpt lat="36.79936" lon="31.40471">
        <ele>21.966407</ele>
        <time>2022-02-25T16:05:24.068Z</time>
      </trkpt>
      <trkpt lat="36.80001" lon="31.40322">
        <ele>24.121412</ele>
        <time>2022-02-25T16:06:15.841Z</time>
      </trkpt>
      <trkpt lat="36.80027" lon="31.40264">
        <ele>24.916863</ele>
        <time>2022-02-25T16:06:33.610Z</time>
      </trkpt>
      <trkpt lat="36.80115" lon="31.40071">
        <ele>24.319746</ele>
        <time>2022-02-25T16:07:19.236Z</time>
      </trkpt>
      <trkpt lat="36.80118" lon="31.40063">
        <ele>24.288501</ele>
        <time>2022-02-25T16:07:20.731Z</time>
      </trkpt>
      <trkpt lat="36.80169" lon="31.3995">
        <ele>23.767876</ele>
        <time>2022-02-25T16:07:45.673Z</time>
      </trkpt>
      <trkpt lat="36.80262" lon="31.39742">
        <ele>23.820342</ele>
        <time>2022-02-25T16:08:39.096Z</time>
      </trkpt>
      <trkpt lat="36.80373" lon="31.39494">
        <ele>25.794504</ele>
        <time>2022-02-25T16:09:53.408Z</time>
      </trkpt>
      <trkpt lat="36.80463" lon="31.39283">
        <ele>27.969513</ele>
        <time>2022-02-25T16:10:58.851Z</time>
      </trkpt>
      <trkpt lat="36.80489" lon="31.39217">
        <ele>28.061432</ele>
        <time>2022-02-25T16:11:16.850Z</time>
      </trkpt>
      <trkpt lat="36.80508" lon="31.39171">
        <ele>28.004668</ele>
        <time>2022-02-25T16:11:27.895Z</time>
      </trkpt>
      <trkpt lat="36.80504" lon="31.39155">
        <ele>27.985665</ele>
        <time>2022-02-25T16:11:31.379Z</time>
      </trkpt>
      <trkpt lat="36.80521" lon="31.39147">
        <ele>27.960384</ele>
        <time>2022-02-25T16:11:36.232Z</time>
      </trkpt>
      <trkpt lat="36.80528" lon="31.39137">
        <ele>27.945778</ele>
        <time>2022-02-25T16:11:38.779Z</time>
      </trkpt>
      <trkpt lat="36.80544" lon="31.3908">
        <ele>27.879898</ele>
        <time>2022-02-25T16:11:50.089Z</time>
      </trkpt>
      <trkpt lat="36.80848" lon="31.38341">
        <ele>20.1052</ele>
        <time>2022-02-25T16:14:20.959Z</time>
      </trkpt>
      <trkpt lat="36.80873" lon="31.38282">
        <ele>19.473295</ele>
        <time>2022-02-25T16:14:33.125Z</time>
      </trkpt>
      <trkpt lat="36.80904" lon="31.38205">
        <ele>18.874359</ele>
        <time>2022-02-25T16:14:49.068Z</time>
      </trkpt>
      <trkpt lat="36.80907" lon="31.38196">
        <ele>18.812532</ele>
        <time>2022-02-25T16:14:50.773Z</time>
      </trkpt>
      <trkpt lat="36.80935" lon="31.38127">
        <ele>18.2814</ele>
        <time>2022-02-25T16:15:05.488Z</time>
      </trkpt>
      <trkpt lat="36.81133" lon="31.37635">
        <ele>15.811436</ele>
        <time>2022-02-25T16:16:54.067Z</time>
      </trkpt>
      <trkpt lat="36.81254" lon="31.37318">
        <ele>13.927968</ele>
        <time>2022-02-25T16:18:01.221Z</time>
      </trkpt>
      <trkpt lat="36.81377" lon="31.37014">
        <ele>12.990899</ele>
        <time>2022-02-25T16:19:09.235Z</time>
      </trkpt>
      <trkpt lat="36.81443" lon="31.36863">
        <ele>13.182488</ele>
        <time>2022-02-25T16:19:48.010Z</time>
      </trkpt>
      <trkpt lat="36.8145" lon="31.36856">
        <ele>13.235061</ele>
        <time>2022-02-25T16:19:50.976Z</time>
      </trkpt>
      <trkpt lat="36.81511" lon="31.36861">
        <ele>13.573514</ele>
        <time>2022-02-25T16:20:08.804Z</time>
      </trkpt>
      <trkpt lat="36.81531" lon="31.36864">
        <ele>13.683691</ele>
        <time>2022-02-25T16:20:14.588Z</time>
      </trkpt>
      <trkpt lat="36.81534" lon="31.36766">
        <ele>14.117397</ele>
        <time>2022-02-25T16:20:38.647Z</time>
      </trkpt>
      <trkpt lat="36.81475" lon="31.36761">
        <ele>14.383081</ele>
        <time>2022-02-25T16:20:56.886Z</time>
      </trkpt>
      <trkpt lat="36.81492" lon="31.36724">
        <ele>14.536841</ele>
        <time>2022-02-25T16:21:07.519Z</time>
      </trkpt>
      <trkpt lat="36.81521" lon="31.3667">
        <ele>14.768576</ele>
        <time>2022-02-25T16:21:23.098Z</time>
      </trkpt>
      <trkpt lat="36.81534" lon="31.36641">
        <ele>14.884502</ele>
        <time>2022-02-25T16:21:29.951Z</time>
      </trkpt>
      <trkpt lat="36.81541" lon="31.3662">
        <ele>14.83542</ele>
        <time>2022-02-25T16:21:34.773Z</time>
      </trkpt>
      <trkpt lat="36.81556" lon="31.36577">
        <ele>14.381974</ele>
        <time>2022-02-25T16:21:44.138Z</time>
      </trkpt>
      <trkpt lat="36.81571" lon="31.36528">
        <ele>13.873666</ele>
        <time>2022-02-25T16:21:53.909Z</time>
      </trkpt>
      <trkpt lat="36.81582" lon="31.36489">
        <ele>13.468293</ele>
        <time>2022-02-25T16:22:01.362Z</time>
      </trkpt>
      <trkpt lat="36.81614" lon="31.36373">
        <ele>11.888691</ele>
        <time>2022-02-25T16:22:21.867Z</time>
      </trkpt>
      <trkpt lat="36.81641" lon="31.36279">
        <ele>10.100442</ele>
        <time>2022-02-25T16:22:37.791Z</time>
      </trkpt>
      <trkpt lat="36.81675" lon="31.36165">
        <ele>8.49733</ele>
        <time>2022-02-25T16:22:58.741Z</time>
      </trkpt>
      <trkpt lat="36.81704" lon="31.36065">
        <ele>7.946023</ele>
        <time>2022-02-25T16:23:19.035Z</time>
      </trkpt>
      <trkpt lat="36.81755" lon="31.35888">
        <ele>8.039288</ele>
        <time>2022-02-25T16:24:01.861Z</time>
      </trkpt>
      <trkpt lat="36.81783" lon="31.35776">
        <ele>8.487209</ele>
        <time>2022-02-25T16:24:30.189Z</time>
      </trkpt>
      <trkpt lat="36.81793" lon="31.35725">
        <ele>8.463318</ele>
        <time>2022-02-25T16:24:42.572Z</time>
      </trkpt>
      <trkpt lat="36.81802" lon="31.35679">
        <ele>8.441844</ele>
        <time>2022-02-25T16:24:53.099Z</time>
      </trkpt>
      <trkpt lat="36.81819" lon="31.35569">
        <ele>8.39073</ele>
        <time>2022-02-25T16:25:16.031Z</time>
      </trkpt>
      <trkpt lat="36.81853" lon="31.35356">
        <ele>6.581727</ele>
        <time>2022-02-25T16:25:55.541Z</time>
      </trkpt>
      <trkpt lat="36.81864" lon="31.35288">
        <ele>6.178507</ele>
        <time>2022-02-25T16:26:08.033Z</time>
      </trkpt>
      <trkpt lat="36.81872" lon="31.35247">
        <ele>5.954276</ele>
        <time>2022-02-25T16:26:16.007Z</time>
      </trkpt>
      <trkpt lat="36.81893" lon="31.35164">
        <ele>5.494697</ele>
        <time>2022-02-25T16:26:33.085Z</time>
      </trkpt>
      <trkpt lat="36.81939" lon="31.35043">
        <ele>5.421495</ele>
        <time>2022-02-25T16:27:01.880Z</time>
      </trkpt>
      <trkpt lat="36.81983" lon="31.34956">
        <ele>5.556558</ele>
        <time>2022-02-25T16:27:24.924Z</time>
      </trkpt>
      <trkpt lat="36.82082" lon="31.34789">
        <ele>6.151151</ele>
        <time>2022-02-25T16:28:12.305Z</time>
      </trkpt>
      <trkpt lat="36.82176" lon="31.34626">
        <ele>7.275202</ele>
        <time>2022-02-25T16:28:59.096Z</time>
      </trkpt>
      <trkpt lat="36.82192" lon="31.34601">
        <ele>7.478688</ele>
        <time>2022-02-25T16:29:07.087Z</time>
      </trkpt>
      <trkpt lat="36.82331" lon="31.34378">
        <ele>10.507134</ele>
        <time>2022-02-25T16:30:24.187Z</time>
      </trkpt>
      <trkpt lat="36.82345" lon="31.34355">
        <ele>10.676217</ele>
        <time>2022-02-25T16:30:32.018Z</time>
      </trkpt>
      <trkpt lat="36.82364" lon="31.3432">
        <ele>10.926052</ele>
        <time>2022-02-25T16:30:43.137Z</time>
      </trkpt>
      <trkpt lat="36.82393" lon="31.34269">
        <ele>11.292575</ele>
        <time>2022-02-25T16:30:58.563Z</time>
      </trkpt>
      <trkpt lat="36.82551" lon="31.33996">
        <ele>11.284928</ele>
        <time>2022-02-25T16:32:07.373Z</time>
      </trkpt>
      <trkpt lat="36.82574" lon="31.33958">
        <ele>11.358617</ele>
        <time>2022-02-25T16:32:17.047Z</time>
      </trkpt>
      <trkpt lat="36.82762" lon="31.33637">
        <ele>12.773052</ele>
        <time>2022-02-25T16:33:50.233Z</time>
      </trkpt>
      <trkpt lat="36.82788" lon="31.33617">
        <ele>12.99075</ele>
        <time>2022-02-25T16:33:59.600Z</time>
      </trkpt>
      <trkpt lat="36.82916" lon="31.33401">
        <ele>14.89446</ele>
        <time>2022-02-25T16:35:07.079Z</time>
      </trkpt>
      <trkpt lat="36.82972" lon="31.33275">
        <ele>16.456697</ele>
        <time>2022-02-25T16:35:47.229Z</time>
      </trkpt>
      <trkpt lat="36.83016" lon="31.33207">
        <ele>17.861141</ele>
        <time>2022-02-25T16:36:13.309Z</time>
      </trkpt>
      <trkpt lat="36.83107" lon="31.33038">
        <ele>21.169315</ele>
        <time>2022-02-25T16:37:16.824Z</time>
      </trkpt>
      <trkpt lat="36.8312" lon="31.33025">
        <ele>21.521149</ele>
        <time>2022-02-25T16:37:22.870Z</time>
      </trkpt>
      <trkpt lat="36.83123" lon="31.33016">
        <ele>21.672001</ele>
        <time>2022-02-25T16:37:25.982Z</time>
      </trkpt>
      <trkpt lat="36.83182" lon="31.32898">
        <ele>23.690266</ele>
        <time>2022-02-25T16:38:05.361Z</time>
      </trkpt>
      <trkpt lat="36.83243" lon="31.32776">
        <ele>25.274788</ele>
        <time>2022-02-25T16:38:43.054Z</time>
      </trkpt>
      <trkpt lat="36.83247" lon="31.32763">
        <ele>25.4337</ele>
        <time>2022-02-25T16:38:46.834Z</time>
      </trkpt>
      <trkpt lat="36.83262" lon="31.32706">
        <ele>25.797896</ele>
        <time>2022-02-25T16:39:01.741Z</time>
      </trkpt>
      <trkpt lat="36.83287" lon="31.32631">
        <ele>26.177004</ele>
        <time>2022-02-25T16:39:21.500Z</time>
      </trkpt>
      <trkpt lat="36.83314" lon="31.32556">
        <ele>26.560937</ele>
        <time>2022-02-25T16:39:40.325Z</time>
      </trkpt>
      <trkpt lat="36.83354" lon="31.32448">
        <ele>26.359107</ele>
        <time>2022-02-25T16:40:04.669Z</time>
      </trkpt>
      <trkpt lat="36.83377" lon="31.32389">
        <ele>26.18965</ele>
        <time>2022-02-25T16:40:17.387Z</time>
      </trkpt>
      <trkpt lat="36.83435" lon="31.32239">
        <ele>26.000015</ele>
        <time>2022-02-25T16:40:50.743Z</time>
      </trkpt>
      <trkpt lat="36.83462" lon="31.32174">
        <ele>25.970146</ele>
        <time>2022-02-25T16:41:06.528Z</time>
      </trkpt>
      <trkpt lat="36.83589" lon="31.3189">
        <ele>27.389762</ele>
        <time>2022-02-25T16:42:23.595Z</time>
      </trkpt>
      <trkpt lat="36.83595" lon="31.31875">
        <ele>27.497576</ele>
        <time>2022-02-25T16:42:27.943Z</time>
      </trkpt>
      <trkpt lat="36.83628" lon="31.31788">
        <ele>28.101015</ele>
        <time>2022-02-25T16:42:51.169Z</time>
      </trkpt>
      <trkpt lat="36.83661" lon="31.31717">
        <ele>28.605837</ele>
        <time>2022-02-25T16:43:11.913Z</time>
      </trkpt>
      <trkpt lat="36.83669" lon="31.31698">
        <ele>28.728554</ele>
        <time>2022-02-25T16:43:17.398Z</time>
      </trkpt>
      <trkpt lat="36.83681" lon="31.3168">
        <ele>28.865933</ele>
        <time>2022-02-25T16:43:23.645Z</time>
      </trkpt>
      <trkpt lat="36.83702" lon="31.31652">
        <ele>29.086674</ele>
        <time>2022-02-25T16:43:33.513Z</time>
      </trkpt>
      <trkpt lat="36.83737" lon="31.31623">
        <ele>29.385144</ele>
        <time>2022-02-25T16:43:45.847Z</time>
      </trkpt>
      <trkpt lat="36.83774" lon="31.31593">
        <ele>29.707466</ele>
        <time>2022-02-25T16:43:58.462Z</time>
      </trkpt>
      <trkpt lat="36.83793" lon="31.3158">
        <ele>29.467403</ele>
        <time>2022-02-25T16:44:04.032Z</time>
      </trkpt>
      <trkpt lat="36.83808" lon="31.31565">
        <ele>29.210912</ele>
        <time>2022-02-25T16:44:09.492Z</time>
      </trkpt>
      <trkpt lat="36.83825" lon="31.31545">
        <ele>28.898055</ele>
        <time>2022-02-25T16:44:15.051Z</time>
      </trkpt>
      <trkpt lat="36.83836" lon="31.31531">
        <ele>28.692006</ele>
        <time>2022-02-25T16:44:19.017Z</time>
      </trkpt>
      <trkpt lat="36.83846" lon="31.31518">
        <ele>28.496172</ele>
        <time>2022-02-25T16:44:22.118Z</time>
      </trkpt>
      <trkpt lat="36.83859" lon="31.3149">
        <ele>28.148666</ele>
        <time>2022-02-25T16:44:27.850Z</time>
      </trkpt>
      <trkpt lat="36.8387" lon="31.31389">
        <ele>27.012704</ele>
        <time>2022-02-25T16:44:44.303Z</time>
      </trkpt>
      <trkpt lat="36.83872" lon="31.31338">
        <ele>26.381025</ele>
        <time>2022-02-25T16:44:52.409Z</time>
      </trkpt>
      <trkpt lat="36.83881" lon="31.31251">
        <ele>25.287026</ele>
        <time>2022-02-25T16:45:07.179Z</time>
      </trkpt>
      <trkpt lat="36.83904" lon="31.30982">
        <ele>25.099634</ele>
        <time>2022-02-25T16:46:07.785Z</time>
      </trkpt>
      <trkpt lat="36.84007" lon="31.30759">
        <ele>27.064411</ele>
        <time>2022-02-25T16:47:15.603Z</time>
      </trkpt>
      <trkpt lat="36.84332" lon="31.30059">
        <ele>26.593159</ele>
        <time>2022-02-25T16:50:03.261Z</time>
      </trkpt>
      <trkpt lat="36.84378" lon="31.2996">
        <ele>27.039702</ele>
        <time>2022-02-25T16:50:29.293Z</time>
      </trkpt>
      <trkpt lat="36.84423" lon="31.29934">
        <ele>27.663097</ele>
        <time>2022-02-25T16:50:44.810Z</time>
      </trkpt>
      <trkpt lat="36.8451" lon="31.29909">
        <ele>28.799521</ele>
        <time>2022-02-25T16:51:15.634Z</time>
      </trkpt>
      <trkpt lat="36.84595" lon="31.29893">
        <ele>30.645675</ele>
        <time>2022-02-25T16:51:47.466Z</time>
      </trkpt>
      <trkpt lat="36.84631" lon="31.29878">
        <ele>31.499053</ele>
        <time>2022-02-25T16:52:02.066Z</time>
      </trkpt>
      <trkpt lat="36.84663" lon="31.29852">
        <ele>32.3542</ele>
        <time>2022-02-25T16:52:17.046Z</time>
      </trkpt>
      <trkpt lat="36.84688" lon="31.29812">
        <ele>33.166467</ele>
        <time>2022-02-25T16:52:32.858Z</time>
      </trkpt>
      <trkpt lat="36.84746" lon="31.29706">
        <ele>34.732802</ele>
        <time>2022-02-25T16:53:10.014Z</time>
      </trkpt>
      <trkpt lat="36.84786" lon="31.29625">
        <ele>35.549165</ele>
        <time>2022-02-25T16:53:33.171Z</time>
      </trkpt>
      <trkpt lat="36.84818" lon="31.29544">
        <ele>34.939621</ele>
        <time>2022-02-25T16:53:51.278Z</time>
      </trkpt>
      <trkpt lat="36.84843" lon="31.29421">
        <ele>34.002317</ele>
        <time>2022-02-25T16:54:13.360Z</time>
      </trkpt>
      <trkpt lat="36.84897" lon="31.29091">
        <ele>28.883809</ele>
        <time>2022-02-25T16:55:10.423Z</time>
      </trkpt>
      <trkpt lat="36.8491" lon="31.29064">
        <ele>28.408984</ele>
        <time>2022-02-25T16:55:16.091Z</time>
      </trkpt>
      <trkpt lat="36.8493" lon="31.29046">
        <ele>27.945683</ele>
        <time>2022-02-25T16:55:21.222Z</time>
      </trkpt>
      <trkpt lat="36.84954" lon="31.29034">
        <ele>27.473953</ele>
        <time>2022-02-25T16:55:26.487Z</time>
      </trkpt>
      <trkpt lat="36.85003" lon="31.29019">
        <ele>26.847391</ele>
        <time>2022-02-25T16:55:37.495Z</time>
      </trkpt>
      <trkpt lat="36.85037" lon="31.29011">
        <ele>26.459156</ele>
        <time>2022-02-25T16:55:45.005Z</time>
      </trkpt>
      <trkpt lat="36.8507" lon="31.29004">
        <ele>26.082842</ele>
        <time>2022-02-25T16:55:52.417Z</time>
      </trkpt>
      <trkpt lat="36.85123" lon="31.28966">
        <ele>25.392582</ele>
        <time>2022-02-25T16:56:07.238Z</time>
      </trkpt>
      <trkpt lat="36.85172" lon="31.28894">
        <ele>26.980196</ele>
        <time>2022-02-25T16:56:27.572Z</time>
      </trkpt>
      <trkpt lat="36.85287" lon="31.28658">
        <ele>34.15818</ele>
        <time>2022-02-25T16:58:09.714Z</time>
      </trkpt>
      <trkpt lat="36.85296" lon="31.28635">
        <ele>34.951673</ele>
        <time>2022-02-25T16:58:19.897Z</time>
      </trkpt>
      <trkpt lat="36.85315" lon="31.28595">
        <ele>36.489554</ele>
        <time>2022-02-25T16:58:37.693Z</time>
      </trkpt>
      <trkpt lat="36.85337" lon="31.28574">
        <ele>37.305782</ele>
        <time>2022-02-25T16:58:49.968Z</time>
      </trkpt>
      <trkpt lat="36.85376" lon="31.2854">
        <ele>38.351124</ele>
        <time>2022-02-25T16:59:10.758Z</time>
      </trkpt>
      <trkpt lat="36.8553" lon="31.28415">
        <ele>40.972828</ele>
        <time>2022-02-25T17:00:10.910Z</time>
      </trkpt>
      <trkpt lat="36.8557" lon="31.28444">
        <ele>41.026686</ele>
        <time>2022-02-25T17:00:23.100Z</time>
      </trkpt>
      <trkpt lat="36.85554" lon="31.28408">
        <ele>41.065296</ele>
        <time>2022-02-25T17:00:31.552Z</time>
      </trkpt>
      <trkpt lat="36.85613" lon="31.28349">
        <ele>40.560636</ele>
        <time>2022-02-25T17:00:49.255Z</time>
      </trkpt>
      <trkpt lat="36.85701" lon="31.2826">
        <ele>39.097585</ele>
        <time>2022-02-25T17:01:14.301Z</time>
      </trkpt>
      <trkpt lat="36.86287" lon="31.27727">
        <ele>27.367171</ele>
        <time>2022-02-25T17:03:52.300Z</time>
      </trkpt>
      <trkpt lat="36.86357" lon="31.27654">
        <ele>25.901615</ele>
        <time>2022-02-25T17:04:11.552Z</time>
      </trkpt>
      <trkpt lat="36.86396" lon="31.27602">
        <ele>25.011051</ele>
        <time>2022-02-25T17:04:23.834Z</time>
      </trkpt>
      <trkpt lat="36.86436" lon="31.27535">
        <ele>24.080962</ele>
        <time>2022-02-25T17:04:39.125Z</time>
      </trkpt>
      <trkpt lat="36.86475" lon="31.27457">
        <ele>23.506471</ele>
        <time>2022-02-25T17:04:57.255Z</time>
      </trkpt>
      <trkpt lat="36.86502" lon="31.2739">
        <ele>23.039298</ele>
        <time>2022-02-25T17:05:12.014Z</time>
      </trkpt>
      <trkpt lat="36.86502" lon="31.27353">
        <ele>22.810317</ele>
        <time>2022-02-25T17:05:18.853Z</time>
      </trkpt>
      <trkpt lat="36.86521" lon="31.27289">
        <ele>21.979988</ele>
        <time>2022-02-25T17:05:31.234Z</time>
      </trkpt>
      <trkpt lat="36.86523" lon="31.27282">
        <ele>21.884002</ele>
        <time>2022-02-25T17:05:32.567Z</time>
      </trkpt>
      <trkpt lat="36.86527" lon="31.2727">
        <ele>21.728474</ele>
        <time>2022-02-25T17:05:34.883Z</time>
      </trkpt>
      <trkpt lat="36.86528" lon="31.27265">
        <ele>21.664629</ele>
        <time>2022-02-25T17:05:35.823Z</time>
      </trkpt>
      <trkpt lat="36.86534" lon="31.27234">
        <ele>21.272351</ele>
        <time>2022-02-25T17:05:41.347Z</time>
      </trkpt>
      <trkpt lat="36.86596" lon="31.26856">
        <ele>16.091205</ele>
        <time>2022-02-25T17:06:47.374Z</time>
      </trkpt>
      <trkpt lat="36.86625" lon="31.26749">
        <ele>14.769222</ele>
        <time>2022-02-25T17:07:07.492Z</time>
      </trkpt>
      <trkpt lat="36.86672" lon="31.26639">
        <ele>13.584417</ele>
        <time>2022-02-25T17:07:30.280Z</time>
      </trkpt>
      <trkpt lat="36.86736" lon="31.26534">
        <ele>12.530793</ele>
        <time>2022-02-25T17:07:54.645Z</time>
      </trkpt>
      <trkpt lat="36.86747" lon="31.2652">
        <ele>12.379019</ele>
        <time>2022-02-25T17:07:58.472Z</time>
      </trkpt>
      <trkpt lat="36.86785" lon="31.26475">
        <ele>12.263712</ele>
        <time>2022-02-25T17:08:11.064Z</time>
      </trkpt>
      <trkpt lat="36.86808" lon="31.26449">
        <ele>12.194251</ele>
        <time>2022-02-25T17:08:18.920Z</time>
      </trkpt>
      <trkpt lat="36.86855" lon="31.26407">
        <ele>12.067169</ele>
        <time>2022-02-25T17:08:33.910Z</time>
      </trkpt>
      <trkpt lat="36.86911" lon="31.26367">
        <ele>12.169477</ele>
        <time>2022-02-25T17:08:52.187Z</time>
      </trkpt>
      <trkpt lat="36.86939" lon="31.26349">
        <ele>12.386099</ele>
        <time>2022-02-25T17:09:01.531Z</time>
      </trkpt>
      <trkpt lat="36.86987" lon="31.26361">
        <ele>12.725113</ele>
        <time>2022-02-25T17:09:20.506Z</time>
      </trkpt>
      <trkpt lat="36.87087" lon="31.26325">
        <ele>13.568916</ele>
        <time>2022-02-25T17:10:01.599Z</time>
      </trkpt>
      <trkpt lat="36.87114" lon="31.26278">
        <ele>14.067533</ele>
        <time>2022-02-25T17:10:16.233Z</time>
      </trkpt>
      <trkpt lat="36.87248" lon="31.26206">
        <ele>15.769889</ele>
        <time>2022-02-25T17:11:05.213Z</time>
      </trkpt>
      <trkpt lat="36.87274" lon="31.26198">
        <ele>16.135322</ele>
        <time>2022-02-25T17:11:14.827Z</time>
      </trkpt>
      <trkpt lat="36.87269" lon="31.26182">
        <ele>16.325529</ele>
        <time>2022-02-25T17:11:19.011Z</time>
      </trkpt>
      <trkpt lat="36.87319" lon="31.26152">
        <ele>17.09185</ele>
        <time>2022-02-25T17:11:38.414Z</time>
      </trkpt>
      <trkpt lat="36.87452" lon="31.2607">
        <ele>18.504437</ele>
        <time>2022-02-25T17:12:27.006Z</time>
      </trkpt>
      <trkpt lat="36.87769" lon="31.25847">
        <ele>19.296391</ele>
        <time>2022-02-25T17:14:05.590Z</time>
      </trkpt>
      <trkpt lat="36.88104" lon="31.2561">
        <ele>19.117807</ele>
        <time>2022-02-25T17:15:46.131Z</time>
      </trkpt>
      <trkpt lat="36.88175" lon="31.25561">
        <ele>19.449914</ele>
        <time>2022-02-25T17:16:09.136Z</time>
      </trkpt>
      <trkpt lat="36.88948" lon="31.25105">
        <ele>26.871399</ele>
        <time>2022-02-25T17:20:33.895Z</time>
      </trkpt>
      <trkpt lat="36.8897" lon="31.25089">
        <ele>27.177035</ele>
        <time>2022-02-25T17:20:42.005Z</time>
      </trkpt>
      <trkpt lat="36.89008" lon="31.25057">
        <ele>27.807235</ele>
        <time>2022-02-25T17:20:56.882Z</time>
      </trkpt>
      <trkpt lat="36.8907" lon="31.24991">
        <ele>28.911504</ele>
        <time>2022-02-25T17:21:24.662Z</time>
      </trkpt>
      <trkpt lat="36.89102" lon="31.24948">
        <ele>29.495773</ele>
        <time>2022-02-25T17:21:40.391Z</time>
      </trkpt>
      <trkpt lat="36.89131" lon="31.24903">
        <ele>29.978336</ele>
        <time>2022-02-25T17:21:55.826Z</time>
      </trkpt>
      <trkpt lat="36.89151" lon="31.24864">
        <ele>30.369665</ele>
        <time>2022-02-25T17:22:08.062Z</time>
      </trkpt>
      <trkpt lat="36.89173" lon="31.24813">
        <ele>30.846056</ele>
        <time>2022-02-25T17:22:22.457Z</time>
      </trkpt>
      <trkpt lat="36.89199" lon="31.24735">
        <ele>31.141441</ele>
        <time>2022-02-25T17:22:42.744Z</time>
      </trkpt>
      <trkpt lat="36.89292" lon="31.24402">
        <ele>30.150892</ele>
        <time>2022-02-25T17:23:51.235Z</time>
      </trkpt>
      <trkpt lat="36.89308" lon="31.24329">
        <ele>30.040899</ele>
        <time>2022-02-25T17:24:07.170Z</time>
      </trkpt>
      <trkpt lat="36.89318" lon="31.24254">
        <ele>30.411806</ele>
        <time>2022-02-25T17:24:24.695Z</time>
      </trkpt>
      <trkpt lat="36.8932" lon="31.24169">
        <ele>30.829357</ele>
        <time>2022-02-25T17:24:46.558Z</time>
      </trkpt>
      <trkpt lat="36.89314" lon="31.24091">
        <ele>30.701123</ele>
        <time>2022-02-25T17:25:06.995Z</time>
      </trkpt>
      <trkpt lat="36.89301" lon="31.24011">
        <ele>29.765982</ele>
        <time>2022-02-25T17:25:21.905Z</time>
      </trkpt>
      <trkpt lat="36.8929" lon="31.23961">
        <ele>29.174202</ele>
        <time>2022-02-25T17:25:30.856Z</time>
      </trkpt>
      <trkpt lat="36.89288" lon="31.23928">
        <ele>28.798602</ele>
        <time>2022-02-25T17:25:35.947Z</time>
      </trkpt>
      <trkpt lat="36.89299" lon="31.23905">
        <ele>28.482208</ele>
        <time>2022-02-25T17:25:40.648Z</time>
      </trkpt>
      <trkpt lat="36.89305" lon="31.23901">
        <ele>28.251683</ele>
        <time>2022-02-25T17:25:41.900Z</time>
      </trkpt>
      <trkpt lat="36.89311" lon="31.23898">
        <ele>28.055908</ele>
        <time>2022-02-25T17:25:42.880Z</time>
      </trkpt>
      <trkpt lat="36.89439" lon="31.23847">
        <ele>23.468903</ele>
        <time>2022-02-25T17:26:08.669Z</time>
      </trkpt>
      <trkpt lat="36.89437" lon="31.23833">
        <ele>23.103742</ele>
        <time>2022-02-25T17:26:10.653Z</time>
      </trkpt>
      <trkpt lat="36.89435" lon="31.23707">
        <ele>21.175874</ele>
        <time>2022-02-25T17:26:33.065Z</time>
      </trkpt>
      <trkpt lat="36.89438" lon="31.23692">
        <ele>20.986992</ele>
        <time>2022-02-25T17:26:36.005Z</time>
      </trkpt>
      <trkpt lat="36.89464" lon="31.23656">
        <ele>20.397533</ele>
        <time>2022-02-25T17:26:45.508Z</time>
      </trkpt>
      <trkpt lat="36.89479" lon="31.23569">
        <ele>19.560978</ele>
        <time>2022-02-25T17:27:03.519Z</time>
      </trkpt>
      <trkpt lat="36.89473" lon="31.23509">
        <ele>19.33179</ele>
        <time>2022-02-25T17:27:15.906Z</time>
      </trkpt>
      <trkpt lat="36.89464" lon="31.23468">
        <ele>19.167388</ele>
        <time>2022-02-25T17:27:24.850Z</time>
      </trkpt>
      <trkpt lat="36.89464" lon="31.23432">
        <ele>19.034431</ele>
        <time>2022-02-25T17:27:32.130Z</time>
      </trkpt>
      <trkpt lat="36.89481" lon="31.23354">
        <ele>18.757112</ele>
        <time>2022-02-25T17:27:49.286Z</time>
      </trkpt>
      <trkpt lat="36.89501" lon="31.23296">
        <ele>18.606034</ele>
        <time>2022-02-25T17:28:02.492Z</time>
      </trkpt>
      <trkpt lat="36.89499" lon="31.23276">
        <ele>18.555019</ele>
        <time>2022-02-25T17:28:06.933Z</time>
      </trkpt>
      <trkpt lat="36.89446" lon="31.23177">
        <ele>18.266646</ele>
        <time>2022-02-25T17:28:32.179Z</time>
      </trkpt>
      <trkpt lat="36.89395" lon="31.23093">
        <ele>17.977191</ele>
        <time>2022-02-25T17:28:54.485Z</time>
      </trkpt>
      <trkpt lat="36.89371" lon="31.23017">
        <ele>17.751809</ele>
        <time>2022-02-25T17:29:11.705Z</time>
      </trkpt>
      <trkpt lat="36.89313" lon="31.2294">
        <ele>17.438961</ele>
        <time>2022-02-25T17:29:33.820Z</time>
      </trkpt>
      <trkpt lat="36.89274" lon="31.22865">
        <ele>17.163242</ele>
        <time>2022-02-25T17:29:52.717Z</time>
      </trkpt>
      <trkpt lat="36.89269" lon="31.2284">
        <ele>17.087542</ele>
        <time>2022-02-25T17:29:57.881Z</time>
      </trkpt>
      <trkpt lat="36.89273" lon="31.22788">
        <ele>16.934659</ele>
        <time>2022-02-25T17:30:08.847Z</time>
      </trkpt>
      <trkpt lat="36.89263" lon="31.22678">
        <ele>16.661204</ele>
        <time>2022-02-25T17:30:32.220Z</time>
      </trkpt>
      <trkpt lat="36.89266" lon="31.22656">
        <ele>16.605028</ele>
        <time>2022-02-25T17:30:36.990Z</time>
      </trkpt>
      <trkpt lat="36.89278" lon="31.22621">
        <ele>16.511108</ele>
        <time>2022-02-25T17:30:45.032Z</time>
      </trkpt>
      <trkpt lat="36.89297" lon="31.22604">
        <ele>16.439624</ele>
        <time>2022-02-25T17:30:51.228Z</time>
      </trkpt>
      <trkpt lat="36.89357" lon="31.2258">
        <ele>16.235244</ele>
        <time>2022-02-25T17:31:08.159Z</time>
      </trkpt>
      <trkpt lat="36.8938" lon="31.22566">
        <ele>16.15137</ele>
        <time>2022-02-25T17:31:14.954Z</time>
      </trkpt>
      <trkpt lat="36.89389" lon="31.22538">
        <ele>16.072593</ele>
        <time>2022-02-25T17:31:21.272Z</time>
      </trkpt>
      <trkpt lat="36.89402" lon="31.22496">
        <ele>15.953765</ele>
        <time>2022-02-25T17:31:30.789Z</time>
      </trkpt>
      <trkpt lat="36.89405" lon="31.22485">
        <ele>15.921745</ele>
        <time>2022-02-25T17:31:33.418Z</time>
      </trkpt>
      <trkpt lat="36.89427" lon="31.22383">
        <ele>15.524184</ele>
        <time>2022-02-25T17:31:55.050Z</time>
      </trkpt>
      <trkpt lat="36.89441" lon="31.2206">
        <ele>14.386792</ele>
        <time>2022-02-25T17:33:00.827Z</time>
      </trkpt>
      <trkpt lat="36.89453" lon="31.22041">
        <ele>14.324586</ele>
        <time>2022-02-25T17:33:06.267Z</time>
      </trkpt>
      <trkpt lat="36.89474" lon="31.2202">
        <ele>14.236534</ele>
        <time>2022-02-25T17:33:14.024Z</time>
      </trkpt>
      <trkpt lat="36.89463" lon="31.22013">
        <ele>14.330719</ele>
        <time>2022-02-25T17:33:17.809Z</time>
      </trkpt>
      <trkpt lat="36.89458" lon="31.22005">
        <ele>14.408386</ele>
        <time>2022-02-25T17:33:20.150Z</time>
      </trkpt>
      <trkpt lat="36.89454" lon="31.21973">
        <ele>14.662741</ele>
        <time>2022-02-25T17:33:28.109Z</time>
      </trkpt>
      <trkpt lat="36.89451" lon="31.21926">
        <ele>15.03627</ele>
        <time>2022-02-25T17:33:40.328Z</time>
      </trkpt>
      <trkpt lat="36.89422" lon="31.21826">
        <ele>15.864117</ele>
        <time>2022-02-25T17:34:09.034Z</time>
      </trkpt>
      <trkpt lat="36.8942" lon="31.21797">
        <ele>16.056135</ele>
        <time>2022-02-25T17:34:17.068Z</time>
      </trkpt>
      <trkpt lat="36.89429" lon="31.21723">
        <ele>16.430512</ele>
        <time>2022-02-25T17:34:38.042Z</time>
      </trkpt>
      <trkpt lat="36.89457" lon="31.2166">
        <ele>16.789455</ele>
        <time>2022-02-25T17:34:55.461Z</time>
      </trkpt>
      <trkpt lat="36.89466" lon="31.21615">
        <ele>17.021383</ele>
        <time>2022-02-25T17:35:05.799Z</time>
      </trkpt>
      <trkpt lat="36.89467" lon="31.21598">
        <ele>17.10702</ele>
        <time>2022-02-25T17:35:09.424Z</time>
      </trkpt>
      <trkpt lat="36.89482" lon="31.21573">
        <ele>16.876628</ele>
        <time>2022-02-25T17:35:15.729Z</time>
      </trkpt>
      <trkpt lat="36.89503" lon="31.21538">
        <ele>16.523791</ele>
        <time>2022-02-25T17:35:24.263Z</time>
      </trkpt>
      <trkpt lat="36.89514" lon="31.2152">
        <ele>16.346714</ele>
        <time>2022-02-25T17:35:28.247Z</time>
      </trkpt>
      <trkpt lat="36.89617" lon="31.21349">
        <ele>14.531305</ele>
        <time>2022-02-25T17:36:06.419Z</time>
      </trkpt>
      <trkpt lat="36.89705" lon="31.21214">
        <ele>13.013658</ele>
        <time>2022-02-25T17:36:38.657Z</time>
      </trkpt>
      <trkpt lat="36.89724" lon="31.21187">
        <ele>12.783243</ele>
        <time>2022-02-25T17:36:45.313Z</time>
      </trkpt>
      <trkpt lat="36.89871" lon="31.20965">
        <ele>11.238245</ele>
        <time>2022-02-25T17:37:40.415Z</time>
      </trkpt>
      <trkpt lat="36.89886" lon="31.20938">
        <ele>11.102504</ele>
        <time>2022-02-25T17:37:47.033Z</time>
      </trkpt>
      <trkpt lat="36.89892" lon="31.20928">
        <ele>11.049617</ele>
        <time>2022-02-25T17:37:49.774Z</time>
      </trkpt>
      <trkpt lat="36.89905" lon="31.20902">
        <ele>10.926512</ele>
        <time>2022-02-25T17:37:55.833Z</time>
      </trkpt>
      <trkpt lat="36.89907" lon="31.20899">
        <ele>10.909737</ele>
        <time>2022-02-25T17:37:56.743Z</time>
      </trkpt>
      <trkpt lat="36.89921" lon="31.20868">
        <ele>10.872261</ele>
        <time>2022-02-25T17:38:04.218Z</time>
      </trkpt>
      <trkpt lat="36.89941" lon="31.20813">
        <ele>10.895444</ele>
        <time>2022-02-25T17:38:17.297Z</time>
      </trkpt>
      <trkpt lat="36.89972" lon="31.20728">
        <ele>10.931579</ele>
        <time>2022-02-25T17:38:38.141Z</time>
      </trkpt>
      <trkpt lat="36.9" lon="31.20655">
        <ele>10.877596</ele>
        <time>2022-02-25T17:38:55.330Z</time>
      </trkpt>
      <trkpt lat="36.90018" lon="31.20614">
        <ele>10.77971</ele>
        <time>2022-02-25T17:39:05.039Z</time>
      </trkpt>
      <trkpt lat="36.90061" lon="31.20509">
        <ele>10.532501</ele>
        <time>2022-02-25T17:39:29.058Z</time>
      </trkpt>
      <trkpt lat="36.90167" lon="31.20257">
        <ele>9.579209</ele>
        <time>2022-02-25T17:40:25.226Z</time>
      </trkpt>
      <trkpt lat="36.90195" lon="31.20186">
        <ele>9.414551</ele>
        <time>2022-02-25T17:40:41.137Z</time>
      </trkpt>
      <trkpt lat="36.90208" lon="31.20149">
        <ele>9.329543</ele>
        <time>2022-02-25T17:40:49.454Z</time>
      </trkpt>
      <trkpt lat="36.90298" lon="31.19899">
        <ele>9.11417</ele>
        <time>2022-02-25T17:41:47.163Z</time>
      </trkpt>
      <trkpt lat="36.90347" lon="31.19775">
        <ele>9.101444</ele>
        <time>2022-02-25T17:42:17.045Z</time>
      </trkpt>
      <trkpt lat="36.90421" lon="31.19609">
        <ele>9.01226</ele>
        <time>2022-02-25T17:42:57.469Z</time>
      </trkpt>
      <trkpt lat="36.9052" lon="31.19399">
        <ele>8.75322</ele>
        <time>2022-02-25T17:43:47.757Z</time>
      </trkpt>
      <trkpt lat="36.90555" lon="31.19323">
        <ele>8.655591</ele>
        <time>2022-02-25T17:44:05.990Z</time>
      </trkpt>
      <trkpt lat="36.90565" lon="31.19299">
        <ele>8.62507</ele>
        <time>2022-02-25T17:44:11.764Z</time>
      </trkpt>
      <trkpt lat="36.90626" lon="31.19136">
        <ele>8.665003</ele>
        <time>2022-02-25T17:44:50.280Z</time>
      </trkpt>
      <trkpt lat="36.90653" lon="31.19048">
        <ele>8.761951</ele>
        <time>2022-02-25T17:45:10.909Z</time>
      </trkpt>
      <trkpt lat="36.90724" lon="31.18766">
        <ele>9.561899</ele>
        <time>2022-02-25T17:46:17.430Z</time>
      </trkpt>
      <trkpt lat="36.9094" lon="31.1791">
        <ele>13.167905</ele>
        <time>2022-02-25T17:49:46.570Z</time>
      </trkpt>
      <trkpt lat="36.90994" lon="31.17695">
        <ele>14.085294</ele>
        <time>2022-02-25T17:50:40.520Z</time>
      </trkpt>
      <trkpt lat="36.91038" lon="31.17552">
        <ele>14.435765</ele>
        <time>2022-02-25T17:51:14.407Z</time>
      </trkpt>
      <trkpt lat="36.91045" lon="31.17521">
        <ele>14.400593</ele>
        <time>2022-02-25T17:51:21.109Z</time>
      </trkpt>
      <trkpt lat="36.91053" lon="31.17488">
        <ele>14.362699</ele>
        <time>2022-02-25T17:51:28.205Z</time>
      </trkpt>
      <trkpt lat="36.91062" lon="31.17448">
        <ele>14.316743</ele>
        <time>2022-02-25T17:51:36.786Z</time>
      </trkpt>
      <trkpt lat="36.91087" lon="31.17326">
        <ele>14.188428</ele>
        <time>2022-02-25T17:52:02.350Z</time>
      </trkpt>
      <trkpt lat="36.91209" lon="31.16844">
        <ele>13.8631</ele>
        <time>2022-02-25T17:53:49.259Z</time>
      </trkpt>
      <trkpt lat="36.91218" lon="31.16792">
        <ele>13.822085</ele>
        <time>2022-02-25T17:54:00.488Z</time>
      </trkpt>
      <trkpt lat="36.91221" lon="31.16725">
        <ele>13.771212</ele>
        <time>2022-02-25T17:54:14.246Z</time>
      </trkpt>
      <trkpt lat="36.91219" lon="31.16675">
        <ele>13.649099</ele>
        <time>2022-02-25T17:54:24.373Z</time>
      </trkpt>
      <trkpt lat="36.91213" lon="31.16634">
        <ele>13.540773</ele>
        <time>2022-02-25T17:54:32.920Z</time>
      </trkpt>
      <trkpt lat="36.91195" lon="31.16559">
        <ele>13.338986</ele>
        <time>2022-02-25T17:54:48.815Z</time>
      </trkpt>
      <trkpt lat="36.91169" lon="31.16494">
        <ele>13.176185</ele>
        <time>2022-02-25T17:55:03.241Z</time>
      </trkpt>
      <trkpt lat="36.91036" lon="31.1626">
        <ele>12.75168</ele>
        <time>2022-02-25T17:56:03.357Z</time>
      </trkpt>
      <trkpt lat="36.91003" lon="31.16186">
        <ele>12.5361</ele>
        <time>2022-02-25T17:56:20.666Z</time>
      </trkpt>
      <trkpt lat="36.90995" lon="31.16159">
        <ele>12.461484</ele>
        <time>2022-02-25T17:56:26.661Z</time>
      </trkpt>
      <trkpt lat="36.90988" lon="31.16132">
        <ele>12.38742</ele>
        <time>2022-02-25T17:56:32.102Z</time>
      </trkpt>
      <trkpt lat="36.9098" lon="31.16058">
        <ele>11.862909</ele>
        <time>2022-02-25T17:56:46.080Z</time>
      </trkpt>
      <trkpt lat="36.90984" lon="31.15984">
        <ele>11.305896</ele>
        <time>2022-02-25T17:56:59.594Z</time>
      </trkpt>
      <trkpt lat="36.9099" lon="31.1595">
        <ele>11.042337</ele>
        <time>2022-02-25T17:57:05.634Z</time>
      </trkpt>
      <trkpt lat="36.9103" lon="31.15764">
        <ele>10.59411</ele>
        <time>2022-02-25T17:57:43.650Z</time>
      </trkpt>
      <trkpt lat="36.91061" lon="31.15627">
        <ele>10.89597</ele>
        <time>2022-02-25T17:58:17.917Z</time>
      </trkpt>
      <trkpt lat="36.91072" lon="31.15582">
        <ele>11.166986</ele>
        <time>2022-02-25T17:58:30.134Z</time>
      </trkpt>
      <trkpt lat="36.91102" lon="31.15441">
        <ele>11.804396</ele>
        <time>2022-02-25T17:59:05.033Z</time>
      </trkpt>
      <trkpt lat="36.91148" lon="31.1524">
        <ele>11.637982</ele>
        <time>2022-02-25T17:59:47.710Z</time>
      </trkpt>
      <trkpt lat="36.91219" lon="31.14934">
        <ele>10.649144</ele>
        <time>2022-02-25T18:00:50.972Z</time>
      </trkpt>
      <trkpt lat="36.91325" lon="31.14503">
        <ele>10.011379</ele>
        <time>2022-02-25T18:02:24.617Z</time>
      </trkpt>
      <trkpt lat="36.91355" lon="31.14382">
        <ele>9.895761</ele>
        <time>2022-02-25T18:02:51.346Z</time>
      </trkpt>
      <trkpt lat="36.91359" lon="31.14365">
        <ele>9.897418</ele>
        <time>2022-02-25T18:02:55.055Z</time>
      </trkpt>
      <trkpt lat="36.91437" lon="31.1404">
        <ele>9.984357</ele>
        <time>2022-02-25T18:04:08.118Z</time>
      </trkpt>
      <trkpt lat="36.91515" lon="31.13718">
        <ele>10.099443</ele>
        <time>2022-02-25T18:05:20.233Z</time>
      </trkpt>
      <trkpt lat="36.91541" lon="31.1359">
        <ele>10.156998</ele>
        <time>2022-02-25T18:05:48.481Z</time>
      </trkpt>
      <trkpt lat="36.91556" lon="31.13426">
        <ele>10.550891</ele>
        <time>2022-02-25T18:06:24.505Z</time>
      </trkpt>
      <trkpt lat="36.9155" lon="31.1324">
        <ele>11.979667</ele>
        <time>2022-02-25T18:07:09.479Z</time>
      </trkpt>
      <trkpt lat="36.91546" lon="31.13189">
        <ele>12.779485</ele>
        <time>2022-02-25T18:07:23.290Z</time>
      </trkpt>
      <trkpt lat="36.91529" lon="31.13026">
        <ele>16.257764</ele>
        <time>2022-02-25T18:08:16.099Z</time>
      </trkpt>
      <trkpt lat="36.91497" lon="31.12715">
        <ele>26.065059</ele>
        <time>2022-02-25T18:10:17.830Z</time>
      </trkpt>
      <trkpt lat="36.91478" lon="31.1254">
        <ele>29.359872</ele>
        <time>2022-02-25T18:11:10.860Z</time>
      </trkpt>
      <trkpt lat="36.91474" lon="31.125">
        <ele>29.717189</ele>
        <time>2022-02-25T18:11:20.087Z</time>
      </trkpt>
      <trkpt lat="36.91459" lon="31.12315">
        <ele>30.759748</ele>
        <time>2022-02-25T18:12:01.141Z</time>
      </trkpt>
      <trkpt lat="36.91457" lon="31.12298">
        <ele>30.7992</ele>
        <time>2022-02-25T18:12:04.890Z</time>
      </trkpt>
      <trkpt lat="36.91456" lon="31.12286">
        <ele>30.828097</ele>
        <time>2022-02-25T18:12:07.779Z</time>
      </trkpt>
      <trkpt lat="36.91534" lon="31.12203">
        <ele>31.112278</ele>
        <time>2022-02-25T18:12:37.569Z</time>
      </trkpt>
      <trkpt lat="36.91637" lon="31.12088">
        <ele>31.447337</ele>
        <time>2022-02-25T18:13:15.823Z</time>
      </trkpt>
      <trkpt lat="36.91636" lon="31.12076">
        <ele>31.470863</ele>
        <time>2022-02-25T18:13:18.355Z</time>
      </trkpt>
      <trkpt lat="36.91627" lon="31.12002">
        <ele>31.788503</ele>
        <time>2022-02-25T18:13:35.072Z</time>
      </trkpt>
      <trkpt lat="36.91615" lon="31.11892">
        <ele>32.304372</ele>
        <time>2022-02-25T18:14:02.015Z</time>
      </trkpt>
      <trkpt lat="36.91614" lon="31.11855">
        <ele>32.481315</ele>
        <time>2022-02-25T18:14:11.891Z</time>
      </trkpt>
      <trkpt lat="36.91611" lon="31.11727">
        <ele>34.120452</ele>
        <time>2022-02-25T18:14:47.114Z</time>
      </trkpt>
      <trkpt lat="36.91611" lon="31.11721">
        <ele>34.206273</ele>
        <time>2022-02-25T18:14:49.103Z</time>
      </trkpt>
      <trkpt lat="36.91591" lon="31.11552">
        <ele>36.41187</ele>
        <time>2022-02-25T18:15:41.263Z</time>
      </trkpt>
      <trkpt lat="36.91578" lon="31.11436">
        <ele>37.758488</ele>
        <time>2022-02-25T18:16:13.777Z</time>
      </trkpt>
      <trkpt lat="36.91567" lon="31.11332">
        <ele>37.973656</ele>
        <time>2022-02-25T18:16:39.437Z</time>
      </trkpt>
      <trkpt lat="36.91564" lon="31.11305">
        <ele>37.857606</ele>
        <time>2022-02-25T18:16:45.227Z</time>
      </trkpt>
      <trkpt lat="36.91567" lon="31.11288">
        <ele>37.783934</ele>
        <time>2022-02-25T18:16:48.678Z</time>
      </trkpt>
      <trkpt lat="36.91528" lon="31.11261">
        <ele>37.54191</ele>
        <time>2022-02-25T18:16:59.466Z</time>
      </trkpt>
      <trkpt lat="36.91516" lon="31.11239">
        <ele>37.426682</ele>
        <time>2022-02-25T18:17:04.438Z</time>
      </trkpt>
      <trkpt lat="36.91498" lon="31.11208">
        <ele>37.251486</ele>
        <time>2022-02-25T18:17:11.529Z</time>
      </trkpt>
      <trkpt lat="36.91492" lon="31.11198">
        <ele>37.13549</ele>
        <time>2022-02-25T18:17:13.922Z</time>
      </trkpt>
      <trkpt lat="36.91449" lon="31.1113">
        <ele>36.371851</ele>
        <time>2022-02-25T18:17:29.891Z</time>
      </trkpt>
      <trkpt lat="36.91454" lon="31.11076">
        <ele>35.89155</ele>
        <time>2022-02-25T18:17:40.165Z</time>
      </trkpt>
      <trkpt lat="36.91456" lon="31.11059">
        <ele>35.742804</ele>
        <time>2022-02-25T18:17:43.510Z</time>
      </trkpt>
      <trkpt lat="36.91461" lon="31.11017">
        <ele>35.363087</ele>
        <time>2022-02-25T18:17:52.013Z</time>
      </trkpt>
      <trkpt lat="36.91475" lon="31.10957">
        <ele>35.054196</ele>
        <time>2022-02-25T18:18:05.045Z</time>
      </trkpt>
      <trkpt lat="36.91481" lon="31.10932">
        <ele>34.944645</ele>
        <time>2022-02-25T18:18:10.480Z</time>
      </trkpt>
      <trkpt lat="36.91498" lon="31.109">
        <ele>34.777699</ele>
        <time>2022-02-25T18:18:18.635Z</time>
      </trkpt>
      <trkpt lat="36.9151" lon="31.10874">
        <ele>34.64844</ele>
        <time>2022-02-25T18:18:24.897Z</time>
      </trkpt>
      <trkpt lat="36.91527" lon="31.10838">
        <ele>34.464496</ele>
        <time>2022-02-25T18:18:33.546Z</time>
      </trkpt>
      <trkpt lat="36.91533" lon="31.10819">
        <ele>34.379506</ele>
        <time>2022-02-25T18:18:37.407Z</time>
      </trkpt>
      <trkpt lat="36.91544" lon="31.10783">
        <ele>34.101636</ele>
        <time>2022-02-25T18:18:45.087Z</time>
      </trkpt>
      <trkpt lat="36.9155" lon="31.10755">
        <ele>33.843816</ele>
        <time>2022-02-25T18:18:50.852Z</time>
      </trkpt>
      <trkpt lat="36.91554" lon="31.1074">
        <ele>33.695885</ele>
        <time>2022-02-25T18:18:54.052Z</time>
      </trkpt>
      <trkpt lat="36.91573" lon="31.10678">
        <ele>33.10824</ele>
        <time>2022-02-25T18:19:06.665Z</time>
      </trkpt>
      <trkpt lat="36.91563" lon="31.10657">
        <ele>32.88821</ele>
        <time>2022-02-25T18:19:11.249Z</time>
      </trkpt>
      <trkpt lat="36.91549" lon="31.10539">
        <ele>31.808371</ele>
        <time>2022-02-25T18:19:33.561Z</time>
      </trkpt>
      <trkpt lat="36.91544" lon="31.10511">
        <ele>31.548256</ele>
        <time>2022-02-25T18:19:38.885Z</time>
      </trkpt>
      <trkpt lat="36.91541" lon="31.10503">
        <ele>31.4709</ele>
        <time>2022-02-25T18:19:40.545Z</time>
      </trkpt>
      <trkpt lat="36.91539" lon="31.10494">
        <ele>31.37977</ele>
        <time>2022-02-25T18:19:42.426Z</time>
      </trkpt>
      <trkpt lat="36.91534" lon="31.10464">
        <ele>31.096649</ele>
        <time>2022-02-25T18:19:48.341Z</time>
      </trkpt>
      <trkpt lat="36.91526" lon="31.10427">
        <ele>30.751357</ele>
        <time>2022-02-25T18:19:55.639Z</time>
      </trkpt>
      <trkpt lat="36.91512" lon="31.10358">
        <ele>30.083089</ele>
        <time>2022-02-25T18:20:09.417Z</time>
      </trkpt>
      <trkpt lat="36.91461" lon="31.10369">
        <ele>29.443526</ele>
        <time>2022-02-25T18:20:21.894Z</time>
      </trkpt>
      <trkpt lat="36.91453" lon="31.1031">
        <ele>28.855112</ele>
        <time>2022-02-25T18:20:33.169Z</time>
      </trkpt>
      <trkpt lat="36.91442" lon="31.10234">
        <ele>28.085465</ele>
        <time>2022-02-25T18:20:47.734Z</time>
      </trkpt>
      <trkpt lat="36.91437" lon="31.10131">
        <ele>27.225924</ele>
        <time>2022-02-25T18:21:06.729Z</time>
      </trkpt>
      <trkpt lat="36.91436" lon="31.10101">
        <ele>26.981594</ele>
        <time>2022-02-25T18:21:12.495Z</time>
      </trkpt>
      <trkpt lat="36.91432" lon="31.10057">
        <ele>26.61143</ele>
        <time>2022-02-25T18:21:21.225Z</time>
      </trkpt>
      <trkpt lat="36.91428" lon="31.10047">
        <ele>26.521091</ele>
        <time>2022-02-25T18:21:23.276Z</time>
      </trkpt>
      <trkpt lat="36.91416" lon="31.10017">
        <ele>26.243521</ele>
        <time>2022-02-25T18:21:30.388Z</time>
      </trkpt>
      <trkpt lat="36.91407" lon="31.09986">
        <ele>26.121491</ele>
        <time>2022-02-25T18:21:37.019Z</time>
      </trkpt>
      <trkpt lat="36.91406" lon="31.0997">
        <ele>26.091785</ele>
        <time>2022-02-25T18:21:40.693Z</time>
      </trkpt>
      <trkpt lat="36.91411" lon="31.09864">
        <ele>25.899517</ele>
        <time>2022-02-25T18:22:03.428Z</time>
      </trkpt>
      <trkpt lat="36.91415" lon="31.09847">
        <ele>25.86575</ele>
        <time>2022-02-25T18:22:07.763Z</time>
      </trkpt>
      <trkpt lat="36.91417" lon="31.09838">
        <ele>25.850182</ele>
        <time>2022-02-25T18:22:09.702Z</time>
      </trkpt>
      <trkpt lat="36.91425" lon="31.098">
        <ele>25.777651</ele>
        <time>2022-02-25T18:22:18.509Z</time>
      </trkpt>
      <trkpt lat="36.91434" lon="31.09771">
        <ele>25.659478</ele>
        <time>2022-02-25T18:22:25.205Z</time>
      </trkpt>
      <trkpt lat="36.91449" lon="31.09723">
        <ele>25.396865</ele>
        <time>2022-02-25T18:22:35.811Z</time>
      </trkpt>
      <trkpt lat="36.91468" lon="31.09672">
        <ele>25.111489</ele>
        <time>2022-02-25T18:22:47.014Z</time>
      </trkpt>
      <trkpt lat="36.91512" lon="31.09525">
        <ele>24.177905</ele>
        <time>2022-02-25T18:23:17.888Z</time>
      </trkpt>
      <trkpt lat="36.91528" lon="31.09475">
        <ele>23.785984</ele>
        <time>2022-02-25T18:23:28.323Z</time>
      </trkpt>
      <trkpt lat="36.91523" lon="31.09475">
        <ele>23.746689</ele>
        <time>2022-02-25T18:23:29.395Z</time>
      </trkpt>
      <trkpt lat="36.91525" lon="31.09418">
        <ele>23.333153</ele>
        <time>2022-02-25T18:23:40.394Z</time>
      </trkpt>
      <trkpt lat="36.91529" lon="31.0938">
        <ele>23.050035</ele>
        <time>2022-02-25T18:23:48.021Z</time>
      </trkpt>
      <trkpt lat="36.91535" lon="31.09314">
        <ele>22.728148</ele>
        <time>2022-02-25T18:24:00.974Z</time>
      </trkpt>
      <trkpt lat="36.91539" lon="31.09244">
        <ele>22.421325</ele>
        <time>2022-02-25T18:24:15.118Z</time>
      </trkpt>
      <trkpt lat="36.91537" lon="31.09232">
        <ele>22.370945</ele>
        <time>2022-02-25T18:24:17.313Z</time>
      </trkpt>
      <trkpt lat="36.91549" lon="31.09228">
        <ele>22.302757</ele>
        <time>2022-02-25T18:24:20.448Z</time>
      </trkpt>
      <trkpt lat="36.9152" lon="31.09038">
        <ele>22.039412</ele>
        <time>2022-02-25T18:25:03.061Z</time>
      </trkpt>
      <trkpt lat="36.91556" lon="31.09034">
        <ele>22.060328</ele>
        <time>2022-02-25T18:25:13.478Z</time>
      </trkpt>
      <trkpt lat="36.91589" lon="31.09028">
        <ele>22.080317</ele>
        <time>2022-02-25T18:25:23.066Z</time>
      </trkpt>
      <trkpt lat="36.91596" lon="31.09028">
        <ele>22.084634</ele>
        <time>2022-02-25T18:25:25.199Z</time>
      </trkpt>
      <trkpt lat="36.91606" lon="31.08938">
        <ele>22.035669</ele>
        <time>2022-02-25T18:25:44.971Z</time>
      </trkpt>
      <trkpt lat="36.91611" lon="31.0884">
        <ele>21.970511</ele>
        <time>2022-02-25T18:26:05.915Z</time>
      </trkpt>
      <trkpt lat="36.91622" lon="31.08714">
        <ele>21.643285</ele>
        <time>2022-02-25T18:26:30.570Z</time>
      </trkpt>
      <trkpt lat="36.91634" lon="31.08613">
        <ele>21.267902</ele>
        <time>2022-02-25T18:26:51.017Z</time>
      </trkpt>
      <trkpt lat="36.91636" lon="31.08588">
        <ele>21.177309</ele>
        <time>2022-02-25T18:26:56.072Z</time>
      </trkpt>
      <trkpt lat="36.91636" lon="31.08578">
        <ele>21.137969</ele>
        <time>2022-02-25T18:26:58.153Z</time>
      </trkpt>
      <trkpt lat="36.91636" lon="31.08569">
        <ele>21.10565</ele>
        <time>2022-02-25T18:26:59.803Z</time>
      </trkpt>
      <trkpt lat="36.91617" lon="31.0849">
        <ele>20.75258</ele>
        <time>2022-02-25T18:27:15.983Z</time>
      </trkpt>
      <trkpt lat="36.91613" lon="31.08484">
        <ele>20.718459</ele>
        <time>2022-02-25T18:27:17.501Z</time>
      </trkpt>
      <trkpt lat="36.9161" lon="31.08476">
        <ele>20.679695</ele>
        <time>2022-02-25T18:27:19.278Z</time>
      </trkpt>
      <trkpt lat="36.91592" lon="31.08419">
        <ele>20.41948</ele>
        <time>2022-02-25T18:27:31.081Z</time>
      </trkpt>
      <trkpt lat="36.91568" lon="31.08343">
        <ele>20.11077</ele>
        <time>2022-02-25T18:27:47.119Z</time>
      </trkpt>
      <trkpt lat="36.91544" lon="31.08246">
        <ele>19.904352</ele>
        <time>2022-02-25T18:28:07.694Z</time>
      </trkpt>
      <trkpt lat="36.91535" lon="31.08204">
        <ele>19.816436</ele>
        <time>2022-02-25T18:28:16.531Z</time>
      </trkpt>
      <trkpt lat="36.91543" lon="31.08168">
        <ele>19.740713</ele>
        <time>2022-02-25T18:28:24.340Z</time>
      </trkpt>
      <trkpt lat="36.91556" lon="31.08112">
        <ele>19.856599</ele>
        <time>2022-02-25T18:28:36.511Z</time>
      </trkpt>
      <trkpt lat="36.91563" lon="31.08084">
        <ele>19.999978</ele>
        <time>2022-02-25T18:28:43.284Z</time>
      </trkpt>
      <trkpt lat="36.91564" lon="31.08077">
        <ele>20.036222</ele>
        <time>2022-02-25T18:28:44.770Z</time>
      </trkpt>
      <trkpt lat="36.91574" lon="31.07999">
        <ele>20.416165</ele>
        <time>2022-02-25T18:29:03.673Z</time>
      </trkpt>
      <trkpt lat="36.91606" lon="31.07868">
        <ele>21.276625</ele>
        <time>2022-02-25T18:29:38.490Z</time>
      </trkpt>
      <trkpt lat="36.91632" lon="31.07765">
        <ele>22.15037</ele>
        <time>2022-02-25T18:30:06.904Z</time>
      </trkpt>
      <trkpt lat="36.91647" lon="31.07689">
        <ele>22.542848</ele>
        <time>2022-02-25T18:30:26.150Z</time>
      </trkpt>
      <trkpt lat="36.91662" lon="31.07566">
        <ele>22.251615</ele>
        <time>2022-02-25T18:30:51.967Z</time>
      </trkpt>
      <trkpt lat="36.91676" lon="31.07439">
        <ele>21.477224</ele>
        <time>2022-02-25T18:31:15.502Z</time>
      </trkpt>
      <trkpt lat="36.91689" lon="31.07308">
        <ele>19.915509</ele>
        <time>2022-02-25T18:31:38.592Z</time>
      </trkpt>
      <trkpt lat="36.91713" lon="31.07073">
        <ele>17.43673</ele>
        <time>2022-02-25T18:32:20.228Z</time>
      </trkpt>
      <trkpt lat="36.91759" lon="31.06622">
        <ele>15.697825</ele>
        <time>2022-02-25T18:33:51.026Z</time>
      </trkpt>
      <trkpt lat="36.91773" lon="31.06475">
        <ele>15.371335</ele>
        <time>2022-02-25T18:34:22.151Z</time>
      </trkpt>
      <trkpt lat="36.91781" lon="31.0639">
        <ele>15.191709</ele>
        <time>2022-02-25T18:34:39.559Z</time>
      </trkpt>
      <trkpt lat="36.918" lon="31.06197">
        <ele>14.287629</ele>
        <time>2022-02-25T18:35:17.192Z</time>
      </trkpt>
      <trkpt lat="36.9184" lon="31.05772">
        <ele>12.199384</ele>
        <time>2022-02-25T18:36:39.757Z</time>
      </trkpt>
      <trkpt lat="36.91889" lon="31.05274">
        <ele>10.538071</ele>
        <time>2022-02-25T18:38:19.967Z</time>
      </trkpt>
      <trkpt lat="36.91918" lon="31.05038">
        <ele>10.019692</ele>
        <time>2022-02-25T18:39:08.860Z</time>
      </trkpt>
      <trkpt lat="36.91945" lon="31.04903">
        <ele>9.826207</ele>
        <time>2022-02-25T18:39:37.610Z</time>
      </trkpt>
      <trkpt lat="36.91986" lon="31.04728">
        <ele>9.666703</ele>
        <time>2022-02-25T18:40:15.791Z</time>
      </trkpt>
      <trkpt lat="36.92032" lon="31.04558">
        <ele>9.744293</ele>
        <time>2022-02-25T18:40:53.744Z</time>
      </trkpt>
      <trkpt lat="36.92048" lon="31.04498">
        <ele>9.918903</ele>
        <time>2022-02-25T18:41:08.066Z</time>
      </trkpt>
      <trkpt lat="36.92052" lon="31.04482">
        <ele>9.965832</ele>
        <time>2022-02-25T18:41:12.023Z</time>
      </trkpt>
      <trkpt lat="36.92132" lon="31.04184">
        <ele>10.970352</ele>
        <time>2022-02-25T18:42:25.754Z</time>
      </trkpt>
      <trkpt lat="36.92154" lon="31.04111">
        <ele>10.764807</ele>
        <time>2022-02-25T18:42:41.668Z</time>
      </trkpt>
      <trkpt lat="36.92203" lon="31.03926">
        <ele>10.154029</ele>
        <time>2022-02-25T18:43:19.445Z</time>
      </trkpt>
      <trkpt lat="36.92234" lon="31.03822">
        <ele>9.906885</ele>
        <time>2022-02-25T18:43:41.946Z</time>
      </trkpt>
      <trkpt lat="36.92265" lon="31.03721">
        <ele>9.684964</ele>
        <time>2022-02-25T18:44:04.646Z</time>
      </trkpt>
      <trkpt lat="36.92276" lon="31.03676">
        <ele>9.607421</ele>
        <time>2022-02-25T18:44:14.408Z</time>
      </trkpt>
      <trkpt lat="36.9229" lon="31.03606">
        <ele>9.488055</ele>
        <time>2022-02-25T18:44:29.310Z</time>
      </trkpt>
      <trkpt lat="36.92317" lon="31.03504">
        <ele>9.300258</ele>
        <time>2022-02-25T18:44:51.354Z</time>
      </trkpt>
      <trkpt lat="36.92437" lon="31.03058">
        <ele>8.578968</ele>
        <time>2022-02-25T18:46:27.800Z</time>
      </trkpt>
      <trkpt lat="36.9256" lon="31.026">
        <ele>9.35158</ele>
        <time>2022-02-25T18:48:15.136Z</time>
      </trkpt>
      <trkpt lat="36.92579" lon="31.02523">
        <ele>9.545203</ele>
        <time>2022-02-25T18:48:33.721Z</time>
      </trkpt>
      <trkpt lat="36.9259" lon="31.02471">
        <ele>9.675226</ele>
        <time>2022-02-25T18:48:45.820Z</time>
      </trkpt>
      <trkpt lat="36.92595" lon="31.02439">
        <ele>9.675331</ele>
        <time>2022-02-25T18:48:53.123Z</time>
      </trkpt>
      <trkpt lat="36.92614" lon="31.02369">
        <ele>9.666827</ele>
        <time>2022-02-25T18:49:08.742Z</time>
      </trkpt>
      <trkpt lat="36.92626" lon="31.02343">
        <ele>9.663355</ele>
        <time>2022-02-25T18:49:14.992Z</time>
      </trkpt>
      <trkpt lat="36.92638" lon="31.02321">
        <ele>9.660272</ele>
        <time>2022-02-25T18:49:20.597Z</time>
      </trkpt>
      <trkpt lat="36.92648" lon="31.02308">
        <ele>9.65814</ele>
        <time>2022-02-25T18:49:24.368Z</time>
      </trkpt>
      <trkpt lat="36.92691" lon="31.02249">
        <ele>9.789069</ele>
        <time>2022-02-25T18:49:40.899Z</time>
      </trkpt>
      <trkpt lat="36.92714" lon="31.02217">
        <ele>9.952747</ele>
        <time>2022-02-25T18:49:49.586Z</time>
      </trkpt>
      <trkpt lat="36.92972" lon="31.01825">
        <ele>12.913201</ele>
        <time>2022-02-25T18:51:50.543Z</time>
      </trkpt>
      <trkpt lat="36.92975" lon="31.01819">
        <ele>12.989807</ele>
        <time>2022-02-25T18:51:52.465Z</time>
      </trkpt>
      <trkpt lat="36.92981" lon="31.01809">
        <ele>13.130714</ele>
        <time>2022-02-25T18:51:55.979Z</time>
      </trkpt>
      <trkpt lat="36.92983" lon="31.01805">
        <ele>13.186371</ele>
        <time>2022-02-25T18:51:57.406Z</time>
      </trkpt>
      <trkpt lat="36.92993" lon="31.01805">
        <ele>13.3143</ele>
        <time>2022-02-25T18:52:00.961Z</time>
      </trkpt>
      <trkpt lat="36.93036" lon="31.01805">
        <ele>13.940771</ele>
        <time>2022-02-25T18:52:17.283Z</time>
      </trkpt>
      <trkpt lat="36.93084" lon="31.01777">
        <ele>16.065958</ele>
        <time>2022-02-25T18:52:39.273Z</time>
      </trkpt>
      <trkpt lat="36.93158" lon="31.01756">
        <ele>19.093468</ele>
        <time>2022-02-25T18:53:14.690Z</time>
      </trkpt>
      <trkpt lat="36.93236" lon="31.01711">
        <ele>22.863085</ele>
        <time>2022-02-25T18:53:58.631Z</time>
      </trkpt>
      <trkpt lat="36.93291" lon="31.01652">
        <ele>26.449096</ele>
        <time>2022-02-25T18:54:37.371Z</time>
      </trkpt>
      <trkpt lat="36.93309" lon="31.01533">
        <ele>30.404568</ele>
        <time>2022-02-25T18:55:25.284Z</time>
      </trkpt>
      <trkpt lat="36.93304" lon="31.01518">
        <ele>30.610378</ele>
        <time>2022-02-25T18:55:30.927Z</time>
      </trkpt>
      <trkpt lat="36.93257" lon="31.01447">
        <ele>31.789058</ele>
        <time>2022-02-25T18:55:58.188Z</time>
      </trkpt>
      <trkpt lat="36.93227" lon="31.01376">
        <ele>32.818304</ele>
        <time>2022-02-25T18:56:14.388Z</time>
      </trkpt>
      <trkpt lat="36.93206" lon="31.01302">
        <ele>32.126597</ele>
        <time>2022-02-25T18:56:27.840Z</time>
      </trkpt>
      <trkpt lat="36.93217" lon="31.01211">
        <ele>31.196347</ele>
        <time>2022-02-25T18:56:43.672Z</time>
      </trkpt>
      <trkpt lat="36.93232" lon="31.01175">
        <ele>30.788378</ele>
        <time>2022-02-25T18:56:50.833Z</time>
      </trkpt>
      <trkpt lat="36.93304" lon="31.01052">
        <ele>31.050812</ele>
        <time>2022-02-25T18:57:22.650Z</time>
      </trkpt>
      <trkpt lat="36.93363" lon="31.01021">
        <ele>31.317843</ele>
        <time>2022-02-25T18:57:44.676Z</time>
      </trkpt>
      <trkpt lat="36.93379" lon="31.00992">
        <ele>31.525483</ele>
        <time>2022-02-25T18:57:54.408Z</time>
      </trkpt>
      <trkpt lat="36.93392" lon="31.00937">
        <ele>31.922227</ele>
        <time>2022-02-25T18:58:09.452Z</time>
      </trkpt>
      <trkpt lat="36.93444" lon="31.00814">
        <ele>32.8768</ele>
        <time>2022-02-25T18:58:42.316Z</time>
      </trkpt>
      <trkpt lat="36.93477" lon="31.00752">
        <ele>33.201261</ele>
        <time>2022-02-25T18:58:58.827Z</time>
      </trkpt>
      <trkpt lat="36.93495" lon="31.00726">
        <ele>33.347385</ele>
        <time>2022-02-25T18:59:06.596Z</time>
      </trkpt>
      <trkpt lat="36.93502" lon="31.00711">
        <ele>33.417145</ele>
        <time>2022-02-25T18:59:10.396Z</time>
      </trkpt>
      <trkpt lat="36.93509" lon="31.00639">
        <ele>33.721946</ele>
        <time>2022-02-25T18:59:27.138Z</time>
      </trkpt>
      <trkpt lat="36.93539" lon="31.0039">
        <ele>35.770685</ele>
        <time>2022-02-25T19:00:32.429Z</time>
      </trkpt>
      <trkpt lat="36.93592" lon="30.99936">
        <ele>39.220299</ele>
        <time>2022-02-25T19:02:27.969Z</time>
      </trkpt>
      <trkpt lat="36.93596" lon="30.999">
        <ele>39.137319</ele>
        <time>2022-02-25T19:02:36.074Z</time>
      </trkpt>
      <trkpt lat="36.93657" lon="30.99409">
        <ele>36.698119</ele>
        <time>2022-02-25T19:04:12.623Z</time>
      </trkpt>
      <trkpt lat="36.93662" lon="30.99315">
        <ele>35.72781</ele>
        <time>2022-02-25T19:04:29.284Z</time>
      </trkpt>
      <trkpt lat="36.93653" lon="30.99205">
        <ele>33.550749</ele>
        <time>2022-02-25T19:04:47.813Z</time>
      </trkpt>
      <trkpt lat="36.93658" lon="30.99172">
        <ele>32.705227</ele>
        <time>2022-02-25T19:04:53.062Z</time>
      </trkpt>
      <trkpt lat="36.93691" lon="30.99069">
        <ele>29.92082</ele>
        <time>2022-02-25T19:05:09.879Z</time>
      </trkpt>
      <trkpt lat="36.93695" lon="30.99039">
        <ele>29.040577</ele>
        <time>2022-02-25T19:05:14.523Z</time>
      </trkpt>
      <trkpt lat="36.93687" lon="30.98991">
        <ele>27.587078</ele>
        <time>2022-02-25T19:05:21.645Z</time>
      </trkpt>
      <trkpt lat="36.93668" lon="30.98881">
        <ele>24.182454</ele>
        <time>2022-02-25T19:05:38.626Z</time>
      </trkpt>
      <trkpt lat="36.93663" lon="30.98833">
        <ele>22.782176</ele>
        <time>2022-02-25T19:05:46.050Z</time>
      </trkpt>
      <trkpt lat="36.93655" lon="30.98751">
        <ele>21.609836</ele>
        <time>2022-02-25T19:05:59.554Z</time>
      </trkpt>
      <trkpt lat="36.93649" lon="30.98592">
        <ele>19.653865</ele>
        <time>2022-02-25T19:06:28.431Z</time>
      </trkpt>
      <trkpt lat="36.93648" lon="30.98563">
        <ele>19.662934</ele>
        <time>2022-02-25T19:06:34.206Z</time>
      </trkpt>
      <trkpt lat="36.9365" lon="30.98418">
        <ele>19.708683</ele>
        <time>2022-02-25T19:07:06.142Z</time>
      </trkpt>
      <trkpt lat="36.9367" lon="30.98308">
        <ele>20.677112</ele>
        <time>2022-02-25T19:07:34.170Z</time>
      </trkpt>
      <trkpt lat="36.93746" lon="30.98109">
        <ele>23.5393</ele>
        <time>2022-02-25T19:08:36.993Z</time>
      </trkpt>
      <trkpt lat="36.93749" lon="30.98077">
        <ele>24.026721</ele>
        <time>2022-02-25T19:08:46.583Z</time>
      </trkpt>
      <trkpt lat="36.93753" lon="30.98042">
        <ele>24.569815</ele>
        <time>2022-02-25T19:08:57.303Z</time>
      </trkpt>
      <trkpt lat="36.93803" lon="30.97826">
        <ele>27.202442</ele>
        <time>2022-02-25T19:10:00.089Z</time>
      </trkpt>
      <trkpt lat="36.93822" lon="30.97744">
        <ele>27.96151</ele>
        <time>2022-02-25T19:10:20.248Z</time>
      </trkpt>
      <trkpt lat="36.93829" lon="30.97715">
        <ele>27.872238</ele>
        <time>2022-02-25T19:10:26.852Z</time>
      </trkpt>
      <trkpt lat="36.93851" lon="30.97548">
        <ele>27.372577</ele>
        <time>2022-02-25T19:10:59.852Z</time>
      </trkpt>
      <trkpt lat="36.93864" lon="30.97343">
        <ele>26.155076</ele>
        <time>2022-02-25T19:11:38.851Z</time>
      </trkpt>
      <trkpt lat="36.93873" lon="30.97211">
        <ele>25.482655</ele>
        <time>2022-02-25T19:12:04.109Z</time>
      </trkpt>
      <trkpt lat="36.93875" lon="30.97142">
        <ele>25.168518</ele>
        <time>2022-02-25T19:12:17.618Z</time>
      </trkpt>
      <trkpt lat="36.93876" lon="30.97121">
        <ele>25.069951</ele>
        <time>2022-02-25T19:12:21.862Z</time>
      </trkpt>
      <trkpt lat="36.93898" lon="30.9654">
        <ele>23.010908</ele>
        <time>2022-02-25T19:14:17.795Z</time>
      </trkpt>
      <trkpt lat="36.93916" lon="30.96538">
        <ele>22.915166</ele>
        <time>2022-02-25T19:14:22.162Z</time>
      </trkpt>
      <trkpt lat="36.93922" lon="30.96426">
        <ele>22.440493</ele>
        <time>2022-02-25T19:14:45.248Z</time>
      </trkpt>
      <trkpt lat="36.9393" lon="30.96319">
        <ele>21.299442</ele>
        <time>2022-02-25T19:15:06.451Z</time>
      </trkpt>
      <trkpt lat="36.93915" lon="30.96105">
        <ele>18.433319</ele>
        <time>2022-02-25T19:15:44.852Z</time>
      </trkpt>
      <trkpt lat="36.93915" lon="30.96025">
        <ele>17.109412</ele>
        <time>2022-02-25T19:15:58.548Z</time>
      </trkpt>
      <trkpt lat="36.93915" lon="30.96001">
        <ele>16.704299</ele>
        <time>2022-02-25T19:16:02.736Z</time>
      </trkpt>
      <trkpt lat="36.93905" lon="30.95844">
        <ele>14.904218</ele>
        <time>2022-02-25T19:16:30.644Z</time>
      </trkpt>
      <trkpt lat="36.93833" lon="30.94878">
        <ele>11.194194</ele>
        <time>2022-02-25T19:19:53.551Z</time>
      </trkpt>
      <trkpt lat="36.93825" lon="30.94791">
        <ele>10.906712</ele>
        <time>2022-02-25T19:20:11.920Z</time>
      </trkpt>
      <trkpt lat="36.93819" lon="30.94743">
        <ele>10.746131</ele>
        <time>2022-02-25T19:20:21.934Z</time>
      </trkpt>
      <trkpt lat="36.93823" lon="30.94668">
        <ele>10.495079</ele>
        <time>2022-02-25T19:20:37.715Z</time>
      </trkpt>
      <trkpt lat="36.93826" lon="30.94605">
        <ele>10.310795</ele>
        <time>2022-02-25T19:20:50.680Z</time>
      </trkpt>
      <trkpt lat="36.93833" lon="30.94541">
        <ele>10.156326</ele>
        <time>2022-02-25T19:21:03.449Z</time>
      </trkpt>
      <trkpt lat="36.93849" lon="30.94398">
        <ele>9.831327</ele>
        <time>2022-02-25T19:21:33.146Z</time>
      </trkpt>
      <trkpt lat="36.93915" lon="30.93718">
        <ele>9.490831</ele>
        <time>2022-02-25T19:23:58.100Z</time>
      </trkpt>
      <trkpt lat="36.94013" lon="30.9269">
        <ele>9.637589</ele>
        <time>2022-02-25T19:27:35.808Z</time>
      </trkpt>
      <trkpt lat="36.94019" lon="30.92623">
        <ele>9.952514</ele>
        <time>2022-02-25T19:27:52.434Z</time>
      </trkpt>
      <trkpt lat="36.94034" lon="30.92502">
        <ele>12.980244</ele>
        <time>2022-02-25T19:28:35.393Z</time>
      </trkpt>
      <trkpt lat="36.94059" lon="30.92325">
        <ele>15.441777</ele>
        <time>2022-02-25T19:29:37.520Z</time>
      </trkpt>
      <trkpt lat="36.94068" lon="30.92238">
        <ele>15.261245</ele>
        <time>2022-02-25T19:29:53.871Z</time>
      </trkpt>
      <trkpt lat="36.9407" lon="30.92213">
        <ele>15.208772</ele>
        <time>2022-02-25T19:29:58.038Z</time>
      </trkpt>
      <trkpt lat="36.94079" lon="30.92118">
        <ele>13.616093</ele>
        <time>2022-02-25T19:30:12.301Z</time>
      </trkpt>
      <trkpt lat="36.94084" lon="30.92057">
        <ele>12.03336</ele>
        <time>2022-02-25T19:30:21.218Z</time>
      </trkpt>
      <trkpt lat="36.94097" lon="30.91829">
        <ele>8.379411</ele>
        <time>2022-02-25T19:31:00.214Z</time>
      </trkpt>
      <trkpt lat="36.94145" lon="30.91368">
        <ele>7.996451</ele>
        <time>2022-02-25T19:32:41.437Z</time>
      </trkpt>
      <trkpt lat="36.94259" lon="30.90203">
        <ele>11.46991</ele>
        <time>2022-02-25T19:37:06.352Z</time>
      </trkpt>
      <trkpt lat="36.94273" lon="30.90104">
        <ele>12.139605</ele>
        <time>2022-02-25T19:37:34.698Z</time>
      </trkpt>
      <trkpt lat="36.94277" lon="30.90081">
        <ele>12.319249</ele>
        <time>2022-02-25T19:37:41.448Z</time>
      </trkpt>
      <trkpt lat="36.94334" lon="30.89724">
        <ele>13.97814</ele>
        <time>2022-02-25T19:39:06.462Z</time>
      </trkpt>
      <trkpt lat="36.94357" lon="30.8959">
        <ele>13.257906</ele>
        <time>2022-02-25T19:39:31.988Z</time>
      </trkpt>
      <trkpt lat="36.94361" lon="30.8956">
        <ele>13.098255</ele>
        <time>2022-02-25T19:39:37.517Z</time>
      </trkpt>
      <trkpt lat="36.94399" lon="30.89324">
        <ele>12.277706</ele>
        <time>2022-02-25T19:40:24.735Z</time>
      </trkpt>
      <trkpt lat="36.94429" lon="30.8914">
        <ele>12.297527</ele>
        <time>2022-02-25T19:41:06.617Z</time>
      </trkpt>
      <trkpt lat="36.94438" lon="30.89071">
        <ele>12.364882</ele>
        <time>2022-02-25T19:41:21.967Z</time>
      </trkpt>
      <trkpt lat="36.94442" lon="30.89045">
        <ele>12.343619</ele>
        <time>2022-02-25T19:41:27.568Z</time>
      </trkpt>
      <trkpt lat="36.94445" lon="30.8902">
        <ele>12.299729</ele>
        <time>2022-02-25T19:41:32.726Z</time>
      </trkpt>
      <trkpt lat="36.9445" lon="30.88919">
        <ele>12.123648</ele>
        <time>2022-02-25T19:41:53.481Z</time>
      </trkpt>
      <trkpt lat="36.94511" lon="30.88019">
        <ele>9.940283</ele>
        <time>2022-02-25T19:44:55.648Z</time>
      </trkpt>
      <trkpt lat="36.94538" lon="30.87688">
        <ele>9.799999</ele>
        <time>2022-02-25T19:46:06.637Z</time>
      </trkpt>
      <trkpt lat="36.94548" lon="30.87668">
        <ele>9.799999</ele>
        <time>2022-02-25T19:46:13.700Z</time>
      </trkpt>
      <trkpt lat="36.94551" lon="30.87648">
        <ele>9.799999</ele>
        <time>2022-02-25T19:46:19.140Z</time>
      </trkpt>
      <trkpt lat="36.94549" lon="30.87641">
        <ele>9.799999</ele>
        <time>2022-02-25T19:46:21.290Z</time>
      </trkpt>
      <trkpt lat="36.94544" lon="30.87626">
        <ele>9.799999</ele>
        <time>2022-02-25T19:46:26.247Z</time>
      </trkpt>
      <trkpt lat="36.94547" lon="30.87581">
        <ele>9.799999</ele>
        <time>2022-02-25T19:46:35.748Z</time>
      </trkpt>
      <trkpt lat="36.94563" lon="30.87369">
        <ele>10.006321</ele>
        <time>2022-02-25T19:47:21.245Z</time>
      </trkpt>
      <trkpt lat="36.94573" lon="30.87251">
        <ele>10.203695</ele>
        <time>2022-02-25T19:47:48.534Z</time>
      </trkpt>
      <trkpt lat="36.94578" lon="30.87159">
        <ele>10.38336</ele>
        <time>2022-02-25T19:48:10.353Z</time>
      </trkpt>
      <trkpt lat="36.94597" lon="30.8695">
        <ele>10.081777</ele>
        <time>2022-02-25T19:48:54.170Z</time>
      </trkpt>
      <trkpt lat="36.94617" lon="30.8674">
        <ele>9.013646</ele>
        <time>2022-02-25T19:49:33.227Z</time>
      </trkpt>
      <trkpt lat="36.94626" lon="30.86635">
        <ele>8.489289</ele>
        <time>2022-02-25T19:49:53.595Z</time>
      </trkpt>
      <trkpt lat="36.94645" lon="30.86416">
        <ele>8.57933</ele>
        <time>2022-02-25T19:50:42.135Z</time>
      </trkpt>
      <trkpt lat="36.94671" lon="30.86419">
        <ele>8.622485</ele>
        <time>2022-02-25T19:50:50.027Z</time>
      </trkpt>
      <trkpt lat="36.94691" lon="30.86212">
        <ele>9.296941</ele>
        <time>2022-02-25T19:51:39.243Z</time>
      </trkpt>
      <trkpt lat="36.94715" lon="30.85963">
        <ele>10.582788</ele>
        <time>2022-02-25T19:52:41.925Z</time>
      </trkpt>
      <trkpt lat="36.94726" lon="30.85848">
        <ele>11.092555</ele>
        <time>2022-02-25T19:53:10.203Z</time>
      </trkpt>
      <trkpt lat="36.94732" lon="30.85792">
        <ele>11.338649</ele>
        <time>2022-02-25T19:53:23.647Z</time>
      </trkpt>
      <trkpt lat="36.94737" lon="30.85745">
        <ele>11.548676</ele>
        <time>2022-02-25T19:53:35.232Z</time>
      </trkpt>
      <trkpt lat="36.94725" lon="30.85743">
        <ele>11.594558</ele>
        <time>2022-02-25T19:53:38.973Z</time>
      </trkpt>
      <trkpt lat="36.94704" lon="30.85733">
        <ele>11.676257</ele>
        <time>2022-02-25T19:53:45.633Z</time>
      </trkpt>
      <trkpt lat="36.94716" lon="30.85602">
        <ele>12.059123</ele>
        <time>2022-02-25T19:54:14.848Z</time>
      </trkpt>
      <trkpt lat="36.94725" lon="30.85561">
        <ele>12.184572</ele>
        <time>2022-02-25T19:54:24.696Z</time>
      </trkpt>
      <trkpt lat="36.94736" lon="30.85445">
        <ele>12.794094</ele>
        <time>2022-02-25T19:54:52.252Z</time>
      </trkpt>
      <trkpt lat="36.94764" lon="30.85041">
        <ele>15.429595</ele>
        <time>2022-02-25T19:56:30.689Z</time>
      </trkpt>
      <trkpt lat="36.94767" lon="30.85027">
        <ele>15.567598</ele>
        <time>2022-02-25T19:56:34.557Z</time>
      </trkpt>
      <trkpt lat="36.94787" lon="30.84815">
        <ele>17.920877</ele>
        <time>2022-02-25T19:57:31.564Z</time>
      </trkpt>
      <trkpt lat="36.9479" lon="30.84785">
        <ele>18.361156</ele>
        <time>2022-02-25T19:57:39.942Z</time>
      </trkpt>
      <trkpt lat="36.94803" lon="30.84652">
        <ele>20.4485</ele>
        <time>2022-02-25T19:58:17.680Z</time>
      </trkpt>
      <trkpt lat="36.94805" lon="30.84635">
        <ele>20.990288</ele>
        <time>2022-02-25T19:58:23.004Z</time>
      </trkpt>
      <trkpt lat="36.94809" lon="30.84598">
        <ele>22.205245</ele>
        <time>2022-02-25T19:58:35.637Z</time>
      </trkpt>
      <trkpt lat="36.94812" lon="30.84555">
        <ele>23.643064</ele>
        <time>2022-02-25T19:58:51.439Z</time>
      </trkpt>
      <trkpt lat="36.94815" lon="30.84492">
        <ele>25.701393</ele>
        <time>2022-02-25T19:59:15.453Z</time>
      </trkpt>
      <trkpt lat="36.94815" lon="30.84474">
        <ele>26.280704</ele>
        <time>2022-02-25T19:59:22.629Z</time>
      </trkpt>
      <trkpt lat="36.94815" lon="30.84424">
        <ele>28.084287</ele>
        <time>2022-02-25T19:59:44.076Z</time>
      </trkpt>
      <trkpt lat="36.94807" lon="30.84253">
        <ele>35.813861</ele>
        <time>2022-02-25T20:01:03.521Z</time>
      </trkpt>
      <trkpt lat="36.94788" lon="30.84159">
        <ele>38.469848</ele>
        <time>2022-02-25T20:01:39.403Z</time>
      </trkpt>
      <trkpt lat="36.94762" lon="30.83973">
        <ele>40.987424</ele>
        <time>2022-02-25T20:02:26.545Z</time>
      </trkpt>
      <trkpt lat="36.94741" lon="30.83866">
        <ele>41.393497</ele>
        <time>2022-02-25T20:02:46.830Z</time>
      </trkpt>
      <trkpt lat="36.94716" lon="30.83731">
        <ele>42.933849</ele>
        <time>2022-02-25T20:03:24.014Z</time>
      </trkpt>
      <trkpt lat="36.94681" lon="30.83522">
        <ele>48.735145</ele>
        <time>2022-02-25T20:04:43.019Z</time>
      </trkpt>
      <trkpt lat="36.94662" lon="30.83446">
        <ele>50.758326</ele>
        <time>2022-02-25T20:05:12.403Z</time>
      </trkpt>
      <trkpt lat="36.94635" lon="30.83341">
        <ele>53.536767</ele>
        <time>2022-02-25T20:05:47.433Z</time>
      </trkpt>
      <trkpt lat="36.94586" lon="30.83214">
        <ele>54.249656</ele>
        <time>2022-02-25T20:06:23.859Z</time>
      </trkpt>
      <trkpt lat="36.94561" lon="30.83162">
        <ele>54.526163</ele>
        <time>2022-02-25T20:06:36.124Z</time>
      </trkpt>
      <trkpt lat="36.94549" lon="30.8314">
        <ele>54.646112</ele>
        <time>2022-02-25T20:06:41.215Z</time>
      </trkpt>
      <trkpt lat="36.94527" lon="30.831">
        <ele>53.705883</ele>
        <time>2022-02-25T20:06:49.936Z</time>
      </trkpt>
      <trkpt lat="36.94445" lon="30.8296">
        <ele>50.272133</ele>
        <time>2022-02-25T20:07:17.302Z</time>
      </trkpt>
      <trkpt lat="36.94357" lon="30.82807">
        <ele>47.101742</ele>
        <time>2022-02-25T20:07:47.547Z</time>
      </trkpt>
      <trkpt lat="36.94323" lon="30.82748">
        <ele>46.707036</ele>
        <time>2022-02-25T20:08:01.996Z</time>
      </trkpt>
      <trkpt lat="36.94222" lon="30.82576">
        <ele>48.564124</ele>
        <time>2022-02-25T20:09:00.609Z</time>
      </trkpt>
      <trkpt lat="36.9421" lon="30.82518">
        <ele>49.19602</ele>
        <time>2022-02-25T20:09:17.916Z</time>
      </trkpt>
      <trkpt lat="36.9418" lon="30.82457">
        <ele>49.952471</ele>
        <time>2022-02-25T20:09:37.653Z</time>
      </trkpt>
      <trkpt lat="36.94073" lon="30.82267">
        <ele>52.27887</ele>
        <time>2022-02-25T20:10:35.419Z</time>
      </trkpt>
      <trkpt lat="36.9412" lon="30.82231">
        <ele>52.986339</ele>
        <time>2022-02-25T20:10:54.520Z</time>
      </trkpt>
      <trkpt lat="36.94146" lon="30.82214">
        <ele>53.661162</ele>
        <time>2022-02-25T20:11:04.894Z</time>
      </trkpt>
      <trkpt lat="36.94152" lon="30.82209">
        <ele>53.836639</ele>
        <time>2022-02-25T20:11:07.945Z</time>
      </trkpt>
      <trkpt lat="36.94211" lon="30.82179">
        <ele>55.333241</ele>
        <time>2022-02-25T20:11:44.195Z</time>
      </trkpt>
      <trkpt lat="36.94197" lon="30.82105">
        <ele>56.753125</ele>
        <time>2022-02-25T20:12:08.368Z</time>
      </trkpt>
      <trkpt lat="36.94192" lon="30.82044">
        <ele>57.686003</ele>
        <time>2022-02-25T20:12:26.142Z</time>
      </trkpt>
      <trkpt lat="36.94188" lon="30.82021">
        <ele>57.997345</ele>
        <time>2022-02-25T20:12:33.486Z</time>
      </trkpt>
      <trkpt lat="36.94182" lon="30.81984">
        <ele>58.517687</ele>
        <time>2022-02-25T20:12:44.230Z</time>
      </trkpt>
      <trkpt lat="36.94152" lon="30.81852">
        <ele>60.205002</ele>
        <time>2022-02-25T20:13:21.999Z</time>
      </trkpt>
      <trkpt lat="36.94136" lon="30.81782">
        <ele>60.406442</ele>
        <time>2022-02-25T20:13:40.052Z</time>
      </trkpt>
      <trkpt lat="36.9413" lon="30.81715">
        <ele>60.590312</ele>
        <time>2022-02-25T20:13:55.554Z</time>
      </trkpt>
      <trkpt lat="36.94128" lon="30.81669">
        <ele>60.71829</ele>
        <time>2022-02-25T20:14:05.726Z</time>
      </trkpt>
      <trkpt lat="36.94119" lon="30.81632">
        <ele>60.677434</ele>
        <time>2022-02-25T20:14:13.935Z</time>
      </trkpt>
      <trkpt lat="36.94105" lon="30.81595">
        <ele>60.391555</ele>
        <time>2022-02-25T20:14:22.370Z</time>
      </trkpt>
      <trkpt lat="36.94074" lon="30.81532">
        <ele>59.869857</ele>
        <time>2022-02-25T20:14:37.142Z</time>
      </trkpt>
      <trkpt lat="36.94037" lon="30.81457">
        <ele>59.255557</ele>
        <time>2022-02-25T20:14:53.342Z</time>
      </trkpt>
      <trkpt lat="36.93951" lon="30.81305">
        <ele>58.046514</ele>
        <time>2022-02-25T20:15:29.259Z</time>
      </trkpt>
      <trkpt lat="36.93925" lon="30.81261">
        <ele>57.770391</ele>
        <time>2022-02-25T20:15:41.243Z</time>
      </trkpt>
      <trkpt lat="36.93926" lon="30.8126">
        <ele>57.773555</ele>
        <time>2022-02-25T20:15:41.634Z</time>
      </trkpt>
      <trkpt lat="36.93991" lon="30.81196">
        <ele>57.978061</ele>
        <time>2022-02-25T20:16:06.133Z</time>
      </trkpt>
      <trkpt lat="36.9408" lon="30.81102">
        <ele>58.011749</ele>
        <time>2022-02-25T20:16:41.158Z</time>
      </trkpt>
      <trkpt lat="36.94097" lon="30.81087">
        <ele>57.872284</ele>
        <time>2022-02-25T20:16:46.733Z</time>
      </trkpt>
      <trkpt lat="36.94108" lon="30.8108">
        <ele>57.792458</ele>
        <time>2022-02-25T20:16:49.949Z</time>
      </trkpt>
      <trkpt lat="36.9412" lon="30.81076">
        <ele>57.707835</ele>
        <time>2022-02-25T20:16:53.142Z</time>
      </trkpt>
      <trkpt lat="36.94181" lon="30.81071">
        <ele>57.305917</ele>
        <time>2022-02-25T20:17:08.080Z</time>
      </trkpt>
      <trkpt lat="36.94186" lon="30.81052">
        <ele>57.20092</ele>
        <time>2022-02-25T20:17:11.701Z</time>
      </trkpt>
      <trkpt lat="36.94195" lon="30.81023">
        <ele>57.036645</ele>
        <time>2022-02-25T20:17:17.653Z</time>
      </trkpt>
      <trkpt lat="36.94201" lon="30.80999">
        <ele>56.760624</ele>
        <time>2022-02-25T20:17:22.360Z</time>
      </trkpt>
      <trkpt lat="36.94204" lon="30.80984">
        <ele>56.581235</ele>
        <time>2022-02-25T20:17:25.174Z</time>
      </trkpt>
      <trkpt lat="36.94217" lon="30.80924">
        <ele>55.82373</ele>
        <time>2022-02-25T20:17:36.667Z</time>
      </trkpt>
      <trkpt lat="36.94229" lon="30.80868">
        <ele>55.123684</ele>
        <time>2022-02-25T20:17:47.125Z</time>
      </trkpt>
      <trkpt lat="36.94233" lon="30.80869">
        <ele>55.058568</ele>
        <time>2022-02-25T20:17:48.155Z</time>
      </trkpt>
      <trkpt lat="36.94315" lon="30.80887">
        <ele>53.882245</ele>
        <time>2022-02-25T20:18:07.030Z</time>
      </trkpt>
      <trkpt lat="36.94339" lon="30.80728">
        <ele>52.271529</ele>
        <time>2022-02-25T20:18:37.965Z</time>
      </trkpt>
      <trkpt lat="36.94317" lon="30.80733">
        <ele>52.017047</ele>
        <time>2022-02-25T20:18:43.095Z</time>
      </trkpt>
      <trkpt lat="36.9428" lon="30.80724">
        <ele>51.737344</ele>
        <time>2022-02-25T20:18:52.003Z</time>
      </trkpt>
      <trkpt lat="36.94248" lon="30.80687">
        <ele>51.416965</ele>
        <time>2022-02-25T20:19:02.530Z</time>
      </trkpt>
      <trkpt lat="36.942" lon="30.80656">
        <ele>51.01323</ele>
        <time>2022-02-25T20:19:16.491Z</time>
      </trkpt>
      <trkpt lat="36.94239" lon="30.8053">
        <ele>50.695644</ele>
        <time>2022-02-25T20:19:45.350Z</time>
      </trkpt>
      <trkpt lat="36.94406" lon="30.80049">
        <ele>51.49716</ele>
        <time>2022-02-25T20:21:42.730Z</time>
      </trkpt>
      <trkpt lat="36.94478" lon="30.79853">
        <ele>55.196909</ele>
        <time>2022-02-25T20:22:47.461Z</time>
      </trkpt>
      <trkpt lat="36.94487" lon="30.79844">
        <ele>55.514021</ele>
        <time>2022-02-25T20:22:53.249Z</time>
      </trkpt>
      <trkpt lat="36.94499" lon="30.79842">
        <ele>55.857615</ele>
        <time>2022-02-25T20:22:58.600Z</time>
      </trkpt>
      <trkpt lat="36.94511" lon="30.79837">
        <ele>56.199238</ele>
        <time>2022-02-25T20:23:03.771Z</time>
      </trkpt>
      <trkpt lat="36.94529" lon="30.79835">
        <ele>56.699058</ele>
        <time>2022-02-25T20:23:12.970Z</time>
      </trkpt>
      <trkpt lat="36.94566" lon="30.79808">
        <ele>58.479121</ele>
        <time>2022-02-25T20:23:34.197Z</time>
      </trkpt>
      <trkpt lat="36.94576" lon="30.79784">
        <ele>59.421695</ele>
        <time>2022-02-25T20:23:45.926Z</time>
      </trkpt>
      <trkpt lat="36.94558" lon="30.79675">
        <ele>63.322047</ele>
        <time>2022-02-25T20:24:31.561Z</time>
      </trkpt>
      <trkpt lat="36.94549" lon="30.79603">
        <ele>65.252547</ele>
        <time>2022-02-25T20:24:57.027Z</time>
      </trkpt>
      <trkpt lat="36.94514" lon="30.79613">
        <ele>65.951216</ele>
        <time>2022-02-25T20:25:11.456Z</time>
      </trkpt>
      <trkpt lat="36.94481" lon="30.79606">
        <ele>66.623001</ele>
        <time>2022-02-25T20:25:24.532Z</time>
      </trkpt>
      <trkpt lat="36.94431" lon="30.79543">
        <ele>68.016347</ele>
        <time>2022-02-25T20:25:48.940Z</time>
      </trkpt>
      <trkpt lat="36.94378" lon="30.79442">
        <ele>68.360936</ele>
        <time>2022-02-25T20:26:16.426Z</time>
      </trkpt>
      <trkpt lat="36.94304" lon="30.7925">
        <ele>68.104103</ele>
        <time>2022-02-25T20:27:02.022Z</time>
      </trkpt>
      <trkpt lat="36.94282" lon="30.792">
        <ele>67.900976</ele>
        <time>2022-02-25T20:27:13.877Z</time>
      </trkpt>
      <trkpt lat="36.94271" lon="30.79199">
        <ele>67.849987</ele>
        <time>2022-02-25T20:27:16.799Z</time>
      </trkpt>
      <trkpt lat="36.9423" lon="30.79108">
        <ele>67.40867</ele>
        <time>2022-02-25T20:27:37.975Z</time>
      </trkpt>
      <trkpt lat="36.94162" lon="30.78957">
        <ele>66.496772</ele>
        <time>2022-02-25T20:28:12.885Z</time>
      </trkpt>
      <trkpt lat="36.94132" lon="30.78973">
        <ele>66.22612</ele>
        <time>2022-02-25T20:28:21.105Z</time>
      </trkpt>
      <trkpt lat="36.9412" lon="30.78974">
        <ele>66.121249</ele>
        <time>2022-02-25T20:28:24.076Z</time>
      </trkpt>
      <trkpt lat="36.94103" lon="30.78961">
        <ele>65.938156</ele>
        <time>2022-02-25T20:28:29.277Z</time>
      </trkpt>
      <trkpt lat="36.93989" lon="30.78792">
        <ele>64.518347</ele>
        <time>2022-02-25T20:29:12.078Z</time>
      </trkpt>
      <trkpt lat="36.93965" lon="30.78752">
        <ele>64.263323</ele>
        <time>2022-02-25T20:29:22.068Z</time>
      </trkpt>
      <trkpt lat="36.9396" lon="30.78744">
        <ele>64.213975</ele>
        <time>2022-02-25T20:29:23.981Z</time>
      </trkpt>
      <trkpt lat="36.93933" lon="30.78695">
        <ele>63.911704</ele>
        <time>2022-02-25T20:29:36.252Z</time>
      </trkpt>
      <trkpt lat="36.93922" lon="30.78664">
        <ele>63.744305</ele>
        <time>2022-02-25T20:29:43.117Z</time>
      </trkpt>
      <trkpt lat="36.9386" lon="30.78504">
        <ele>63.94806</ele>
        <time>2022-02-25T20:30:23.997Z</time>
      </trkpt>
      <trkpt lat="36.9379" lon="30.7834">
        <ele>64.37535</ele>
        <time>2022-02-25T20:31:08.595Z</time>
      </trkpt>
      <trkpt lat="36.93708" lon="30.78139">
        <ele>64.47713</ele>
        <time>2022-02-25T20:31:59.988Z</time>
      </trkpt>
      <trkpt lat="36.93672" lon="30.78046">
        <ele>64.302177</ele>
        <time>2022-02-25T20:32:21.372Z</time>
      </trkpt>
      <trkpt lat="36.93584" lon="30.77835">
        <ele>62.928787</ele>
        <time>2022-02-25T20:33:08.254Z</time>
      </trkpt>
      <trkpt lat="36.93562" lon="30.77785">
        <ele>62.755121</ele>
        <time>2022-02-25T20:33:19.875Z</time>
      </trkpt>
      <trkpt lat="36.93492" lon="30.77625">
        <ele>62.167184</ele>
        <time>2022-02-25T20:33:59.239Z</time>
      </trkpt>
      <trkpt lat="36.93456" lon="30.77533">
        <ele>61.777021</ele>
        <time>2022-02-25T20:34:20.818Z</time>
      </trkpt>
      <trkpt lat="36.93376" lon="30.77341">
        <ele>60.684189</ele>
        <time>2022-02-25T20:35:03.774Z</time>
      </trkpt>
      <trkpt lat="36.93242" lon="30.77011">
        <ele>58.78209</ele>
        <time>2022-02-25T20:36:18.872Z</time>
      </trkpt>
      <trkpt lat="36.93229" lon="30.77019">
        <ele>58.685717</ele>
        <time>2022-02-25T20:36:22.475Z</time>
      </trkpt>
      <trkpt lat="36.9313" lon="30.77077">
        <ele>57.990136</ele>
        <time>2022-02-25T20:36:48.687Z</time>
      </trkpt>
      <trkpt lat="36.93118" lon="30.7705">
        <ele>57.890409</ele>
        <time>2022-02-25T20:36:54.527Z</time>
      </trkpt>
      <trkpt lat="36.93093" lon="30.76996">
        <ele>57.793415</ele>
        <time>2022-02-25T20:37:06.999Z</time>
      </trkpt>
      <trkpt lat="36.93036" lon="30.76841">
        <ele>57.609185</ele>
        <time>2022-02-25T20:37:43.038Z</time>
      </trkpt>
      <trkpt lat="36.92976" lon="30.76647">
        <ele>57.979116</ele>
        <time>2022-02-25T20:38:29.671Z</time>
      </trkpt>
      <trkpt lat="36.9295" lon="30.76545">
        <ele>58.117084</ele>
        <time>2022-02-25T20:38:53.575Z</time>
      </trkpt>
      <trkpt lat="36.92946" lon="30.76526">
        <ele>58.141652</ele>
        <time>2022-02-25T20:38:57.701Z</time>
      </trkpt>
      <trkpt lat="36.92945" lon="30.76519">
        <ele>58.151573</ele>
        <time>2022-02-25T20:38:59.559Z</time>
      </trkpt>
      <trkpt lat="36.92917" lon="30.76402">
        <ele>58.242789</ele>
        <time>2022-02-25T20:39:26.054Z</time>
      </trkpt>
      <trkpt lat="36.929" lon="30.76303">
        <ele>58.195322</ele>
        <time>2022-02-25T20:39:47.524Z</time>
      </trkpt>
      <trkpt lat="36.92898" lon="30.76293">
        <ele>58.190367</ele>
        <time>2022-02-25T20:39:49.776Z</time>
      </trkpt>
      <trkpt lat="36.92883" lon="30.76212">
        <ele>58.133229</ele>
        <time>2022-02-25T20:40:06.758Z</time>
      </trkpt>
      <trkpt lat="36.92853" lon="30.76061">
        <ele>57.631428</ele>
        <time>2022-02-25T20:40:37.887Z</time>
      </trkpt>
      <trkpt lat="36.92844" lon="30.76036">
        <ele>57.541065</ele>
        <time>2022-02-25T20:40:43.447Z</time>
      </trkpt>
      <trkpt lat="36.92834" lon="30.76007">
        <ele>57.439931</ele>
        <time>2022-02-25T20:40:49.705Z</time>
      </trkpt>
      <trkpt lat="36.92798" lon="30.75903">
        <ele>56.804619</ele>
        <time>2022-02-25T20:41:11.578Z</time>
      </trkpt>
      <trkpt lat="36.92772" lon="30.75833">
        <ele>56.364315</ele>
        <time>2022-02-25T20:41:26.179Z</time>
      </trkpt>
      <trkpt lat="36.92757" lon="30.75819">
        <ele>56.233404</ele>
        <time>2022-02-25T20:41:30.440Z</time>
      </trkpt>
      <trkpt lat="36.92717" lon="30.75709">
        <ele>55.688328</ele>
        <time>2022-02-25T20:41:53.579Z</time>
      </trkpt>
      <trkpt lat="36.9269" lon="30.75636">
        <ele>55.340587</ele>
        <time>2022-02-25T20:42:09.310Z</time>
      </trkpt>
      <trkpt lat="36.92653" lon="30.7554">
        <ele>55.352146</ele>
        <time>2022-02-25T20:42:31.747Z</time>
      </trkpt>
      <trkpt lat="36.92618" lon="30.7546">
        <ele>55.585824</ele>
        <time>2022-02-25T20:42:52.462Z</time>
      </trkpt>
      <trkpt lat="36.92607" lon="30.75434">
        <ele>55.662424</ele>
        <time>2022-02-25T20:42:59.527Z</time>
      </trkpt>
      <trkpt lat="36.92532" lon="30.7526">
        <ele>56.593389</ele>
        <time>2022-02-25T20:43:47.367Z</time>
      </trkpt>
      <trkpt lat="36.9252" lon="30.75206">
        <ele>56.885789</ele>
        <time>2022-02-25T20:44:00.568Z</time>
      </trkpt>
      <trkpt lat="36.92522" lon="30.75201">
        <ele>56.915223</ele>
        <time>2022-02-25T20:44:01.848Z</time>
      </trkpt>
      <trkpt lat="36.92518" lon="30.75185">
        <ele>56.919508</ele>
        <time>2022-02-25T20:44:05.620Z</time>
      </trkpt>
      <trkpt lat="36.92515" lon="30.75181">
        <ele>56.916973</ele>
        <time>2022-02-25T20:44:06.898Z</time>
      </trkpt>
      <trkpt lat="36.92511" lon="30.75179">
        <ele>56.914636</ele>
        <time>2022-02-25T20:44:08.072Z</time>
      </trkpt>
      <trkpt lat="36.92507" lon="30.75178">
        <ele>56.912309</ele>
        <time>2022-02-25T20:44:09.277Z</time>
      </trkpt>
      <trkpt lat="36.92474" lon="30.75143">
        <ele>56.887756</ele>
        <time>2022-02-25T20:44:21.537Z</time>
      </trkpt>
      <trkpt lat="36.92398" lon="30.75026">
        <ele>56.811428</ele>
        <time>2022-02-25T20:44:52.032Z</time>
      </trkpt>
      <trkpt lat="36.92393" lon="30.75018">
        <ele>56.799905</ele>
        <time>2022-02-25T20:44:53.880Z</time>
      </trkpt>
      <trkpt lat="36.92383" lon="30.75002">
        <ele>56.774956</ele>
        <time>2022-02-25T20:44:57.962Z</time>
      </trkpt>
      <trkpt lat="36.92325" lon="30.74907">
        <ele>56.629066</ele>
        <time>2022-02-25T20:45:22.352Z</time>
      </trkpt>
      <trkpt lat="36.92267" lon="30.74812">
        <ele>56.741394</ele>
        <time>2022-02-25T20:45:48.692Z</time>
      </trkpt>
      <trkpt lat="36.92182" lon="30.74675">
        <ele>57.324653</ele>
        <time>2022-02-25T20:46:29.481Z</time>
      </trkpt>
      <trkpt lat="36.92181" lon="30.74665">
        <ele>57.316324</ele>
        <time>2022-02-25T20:46:32.038Z</time>
      </trkpt>
      <trkpt lat="36.92181" lon="30.74658">
        <ele>57.311303</ele>
        <time>2022-02-25T20:46:33.382Z</time>
      </trkpt>
      <trkpt lat="36.92172" lon="30.74645">
        <ele>57.296822</ele>
        <time>2022-02-25T20:46:37.356Z</time>
      </trkpt>
      <trkpt lat="36.92167" lon="30.74643">
        <ele>57.291836</ele>
        <time>2022-02-25T20:46:38.734Z</time>
      </trkpt>
      <trkpt lat="36.9215" lon="30.74634">
        <ele>57.273104</ele>
        <time>2022-02-25T20:46:43.936Z</time>
      </trkpt>
      <trkpt lat="36.92097" lon="30.74583">
        <ele>57.205552</ele>
        <time>2022-02-25T20:47:01.670Z</time>
      </trkpt>
      <trkpt lat="36.92034" lon="30.74514">
        <ele>57.050768</ele>
        <time>2022-02-25T20:47:22.173Z</time>
      </trkpt>
      <trkpt lat="36.92006" lon="30.74483">
        <ele>56.910673</ele>
        <time>2022-02-25T20:47:31.122Z</time>
      </trkpt>
      <trkpt lat="36.91971" lon="30.74445">
        <ele>56.734368</ele>
        <time>2022-02-25T20:47:42.513Z</time>
      </trkpt>
      <trkpt lat="36.91892" lon="30.74343">
        <ele>56.590501</ele>
        <time>2022-02-25T20:48:11.823Z</time>
      </trkpt>
      <trkpt lat="36.91797" lon="30.74134">
        <ele>57.131086</ele>
        <time>2022-02-25T20:49:07.540Z</time>
      </trkpt>
      <trkpt lat="36.91785" lon="30.74089">
        <ele>57.216421</ele>
        <time>2022-02-25T20:49:18.239Z</time>
      </trkpt>
      <trkpt lat="36.91786" lon="30.74084">
        <ele>57.22556</ele>
        <time>2022-02-25T20:49:19.448Z</time>
      </trkpt>
      <trkpt lat="36.91783" lon="30.7407">
        <ele>57.25215</ele>
        <time>2022-02-25T20:49:22.652Z</time>
      </trkpt>
      <trkpt lat="36.9178" lon="30.74067">
        <ele>57.261463</ele>
        <time>2022-02-25T20:49:23.860Z</time>
      </trkpt>
      <trkpt lat="36.91776" lon="30.74065">
        <ele>57.271402</ele>
        <time>2022-02-25T20:49:25.061Z</time>
      </trkpt>
      <trkpt lat="36.91771" lon="30.74065">
        <ele>57.28141</ele>
        <time>2022-02-25T20:49:26.193Z</time>
      </trkpt>
      <trkpt lat="36.91767" lon="30.74067">
        <ele>57.291607</ele>
        <time>2022-02-25T20:49:27.309Z</time>
      </trkpt>
      <trkpt lat="36.91744" lon="30.7407">
        <ele>57.343867</ele>
        <time>2022-02-25T20:49:33.508Z</time>
      </trkpt>
      <trkpt lat="36.91705" lon="30.74066">
        <ele>57.399455</ele>
        <time>2022-02-25T20:49:44.084Z</time>
      </trkpt>
      <trkpt lat="36.91695" lon="30.74063">
        <ele>57.379606</ele>
        <time>2022-02-25T20:49:46.557Z</time>
      </trkpt>
      <trkpt lat="36.91702" lon="30.74031">
        <ele>57.326832</ele>
        <time>2022-02-25T20:49:53.910Z</time>
      </trkpt>
      <trkpt lat="36.91628" lon="30.74014">
        <ele>57.178177</ele>
        <time>2022-02-25T20:50:13.474Z</time>
      </trkpt>
      <trkpt lat="36.91632" lon="30.7397">
        <ele>57.10848</ele>
        <time>2022-02-25T20:50:23.091Z</time>
      </trkpt>
      <trkpt lat="36.91561" lon="30.7395">
        <ele>57.421259</ele>
        <time>2022-02-25T20:50:42.637Z</time>
      </trkpt>
      <trkpt lat="36.91552" lon="30.73914">
        <ele>57.652509</ele>
        <time>2022-02-25T20:50:51.686Z</time>
      </trkpt>
      <trkpt lat="36.91539" lon="30.73861">
        <ele>57.994888</ele>
        <time>2022-02-25T20:51:06.972Z</time>
      </trkpt>
      <trkpt lat="36.91521" lon="30.73801">
        <ele>58.385276</ele>
        <time>2022-02-25T20:51:24.255Z</time>
      </trkpt>
      <trkpt lat="36.91511" lon="30.73747">
        <ele>58.667967</ele>
        <time>2022-02-25T20:51:39.807Z</time>
      </trkpt>
      <trkpt lat="36.91494" lon="30.73692">
        <ele>58.948781</ele>
        <time>2022-02-25T20:51:55.048Z</time>
      </trkpt>
      <trkpt lat="36.91484" lon="30.73656">
        <ele>59.136891</ele>
        <time>2022-02-25T20:52:04.200Z</time>
      </trkpt>
      <trkpt lat="36.91462" lon="30.73583">
        <ele>59.513111</ele>
        <time>2022-02-25T20:52:22.071Z</time>
      </trkpt>
      <trkpt lat="36.91437" lon="30.73498">
        <ele>59.086673</ele>
        <time>2022-02-25T20:52:40.773Z</time>
      </trkpt>
      <trkpt lat="36.91432" lon="30.73487">
        <ele>59.025043</ele>
        <time>2022-02-25T20:52:43.065Z</time>
      </trkpt>
      <trkpt lat="36.91412" lon="30.73434">
        <ele>58.733473</ele>
        <time>2022-02-25T20:52:54.439Z</time>
      </trkpt>
      <trkpt lat="36.91405" lon="30.73417">
        <ele>58.637639</ele>
        <time>2022-02-25T20:52:58.408Z</time>
      </trkpt>
      <trkpt lat="36.91398" lon="30.73388">
        <ele>58.486153</ele>
        <time>2022-02-25T20:53:04.334Z</time>
      </trkpt>
      <trkpt lat="36.91396" lon="30.73377">
        <ele>58.427879</ele>
        <time>2022-02-25T20:53:06.804Z</time>
      </trkpt>
      <trkpt lat="36.91393" lon="30.7332">
        <ele>58.270437</ele>
        <time>2022-02-25T20:53:18.277Z</time>
      </trkpt>
      <trkpt lat="36.9139" lon="30.73259">
        <ele>58.114757</ele>
        <time>2022-02-25T20:53:30.780Z</time>
      </trkpt>
      <trkpt lat="36.9139" lon="30.73242">
        <ele>58.069359</ele>
        <time>2022-02-25T20:53:34.629Z</time>
      </trkpt>
      <trkpt lat="36.91388" lon="30.7323">
        <ele>58.038763</ele>
        <time>2022-02-25T20:53:37.271Z</time>
      </trkpt>
      <trkpt lat="36.91376" lon="30.73133">
        <ele>57.809894</ele>
        <time>2022-02-25T20:53:59.368Z</time>
      </trkpt>
      <trkpt lat="36.91376" lon="30.73124">
        <ele>57.799501</ele>
        <time>2022-02-25T20:54:01.271Z</time>
      </trkpt>
      <trkpt lat="36.91381" lon="30.73041">
        <ele>57.703948</ele>
        <time>2022-02-25T20:54:18.924Z</time>
      </trkpt>
      <trkpt lat="36.91383" lon="30.73026">
        <ele>57.685696</ele>
        <time>2022-02-25T20:54:22.233Z</time>
      </trkpt>
      <trkpt lat="36.91386" lon="30.72997">
        <ele>57.652687</ele>
        <time>2022-02-25T20:54:28.264Z</time>
      </trkpt>
      <trkpt lat="36.91391" lon="30.72897">
        <ele>57.5981</ele>
        <time>2022-02-25T20:54:50.149Z</time>
      </trkpt>
      <trkpt lat="36.91393" lon="30.72873">
        <ele>57.624853</ele>
        <time>2022-02-25T20:54:55.725Z</time>
      </trkpt>
      <trkpt lat="36.91399" lon="30.72781">
        <ele>57.724</ele>
        <time>2022-02-25T20:55:16.958Z</time>
      </trkpt>
      <trkpt lat="36.91407" lon="30.72656">
        <ele>57.831578</ele>
        <time>2022-02-25T20:55:45.793Z</time>
      </trkpt>
      <trkpt lat="36.91406" lon="30.72612">
        <ele>57.851505</ele>
        <time>2022-02-25T20:55:55.796Z</time>
      </trkpt>
      <trkpt lat="36.91404" lon="30.72564">
        <ele>57.872901</ele>
        <time>2022-02-25T20:56:06.276Z</time>
      </trkpt>
      <trkpt lat="36.91405" lon="30.72475">
        <ele>57.91368</ele>
        <time>2022-02-25T20:56:26.110Z</time>
      </trkpt>
      <trkpt lat="36.91415" lon="30.72424">
        <ele>57.966785</ele>
        <time>2022-02-25T20:56:37.850Z</time>
      </trkpt>
      <trkpt lat="36.91419" lon="30.72363">
        <ele>58.028678</ele>
        <time>2022-02-25T20:56:52.019Z</time>
      </trkpt>
      <trkpt lat="36.91413" lon="30.72354">
        <ele>58.041134</ele>
        <time>2022-02-25T20:56:54.784Z</time>
      </trkpt>
      <trkpt lat="36.91374" lon="30.7231">
        <ele>58.106732</ele>
        <time>2022-02-25T20:57:09.225Z</time>
      </trkpt>
      <trkpt lat="36.91383" lon="30.72208">
        <ele>58.26491</ele>
        <time>2022-02-25T20:57:33.420Z</time>
      </trkpt>
      <trkpt lat="36.91384" lon="30.72151">
        <ele>58.366665</ele>
        <time>2022-02-25T20:57:46.828Z</time>
      </trkpt>
      <trkpt lat="36.91388" lon="30.72076">
        <ele>58.501545</ele>
        <time>2022-02-25T20:58:04.149Z</time>
      </trkpt>
      <trkpt lat="36.91384" lon="30.72037">
        <ele>58.544448</ele>
        <time>2022-02-25T20:58:12.783Z</time>
      </trkpt>
      <trkpt lat="36.91381" lon="30.71996">
        <ele>58.546292</ele>
        <time>2022-02-25T20:58:21.561Z</time>
      </trkpt>
      <trkpt lat="36.91379" lon="30.71972">
        <ele>58.54738</ele>
        <time>2022-02-25T20:58:26.785Z</time>
      </trkpt>
      <trkpt lat="36.91373" lon="30.71841">
        <ele>58.553254</ele>
        <time>2022-02-25T20:58:56.679Z</time>
      </trkpt>
      <trkpt lat="36.91389" lon="30.71724">
        <ele>58.559514</ele>
        <time>2022-02-25T20:59:22.747Z</time>
      </trkpt>
      <trkpt lat="36.91346" lon="30.71723">
        <ele>58.562374</ele>
        <time>2022-02-25T20:59:34.649Z</time>
      </trkpt>
      <trkpt lat="36.91341" lon="30.71664">
        <ele>58.565544</ele>
        <time>2022-02-25T20:59:47.592Z</time>
      </trkpt>
      <trkpt lat="36.91339" lon="30.71632">
        <ele>58.507559</ele>
        <time>2022-02-25T20:59:54.549Z</time>
      </trkpt>
      <trkpt lat="36.91337" lon="30.71608">
        <ele>58.455826</ele>
        <time>2022-02-25T20:59:59.576Z</time>
      </trkpt>
      <trkpt lat="36.91334" lon="30.71554">
        <ele>58.334423</ele>
        <time>2022-02-25T21:00:11.196Z</time>
      </trkpt>
      <trkpt lat="36.91333" lon="30.7155">
        <ele>58.325976</ele>
        <time>2022-02-25T21:00:12.003Z</time>
      </trkpt>
      <trkpt lat="36.91333" lon="30.71525">
        <ele>58.271603</ele>
        <time>2022-02-25T21:00:17.081Z</time>
      </trkpt>
      <trkpt lat="36.91332" lon="30.71514">
        <ele>58.246756</ele>
        <time>2022-02-25T21:00:19.375Z</time>
      </trkpt>
      <trkpt lat="36.91296" lon="30.71517">
        <ele>58.147013</ele>
        <time>2022-02-25T21:00:28.307Z</time>
      </trkpt>
      <trkpt lat="36.91261" lon="30.71518">
        <ele>58.012194</ele>
        <time>2022-02-25T21:00:36.279Z</time>
      </trkpt>
      <trkpt lat="36.9124" lon="30.71518">
        <ele>57.804818</ele>
        <time>2022-02-25T21:00:41.503Z</time>
      </trkpt>
      <trkpt lat="36.91222" lon="30.71424">
        <ele>57.052183</ele>
        <time>2022-02-25T21:00:59.315Z</time>
      </trkpt>
      <trkpt lat="36.91214" lon="30.71368">
        <ele>56.611413</ele>
        <time>2022-02-25T21:01:09.553Z</time>
      </trkpt>
      <trkpt lat="36.91197" lon="30.7135">
        <ele>56.390628</ele>
        <time>2022-02-25T21:01:15.177Z</time>
      </trkpt>
      <trkpt lat="36.91127" lon="30.7131">
        <ele>56.001288</ele>
        <time>2022-02-25T21:01:33.644Z</time>
      </trkpt>
      <trkpt lat="36.91099" lon="30.7129">
        <ele>55.853945</ele>
        <time>2022-02-25T21:01:41.847Z</time>
      </trkpt>
      <trkpt lat="36.91063" lon="30.71252">
        <ele>55.639085</ele>
        <time>2022-02-25T21:01:55.116Z</time>
      </trkpt>
      <trkpt lat="36.91008" lon="30.71201">
        <ele>55.56346</ele>
        <time>2022-02-25T21:02:14.807Z</time>
      </trkpt>
      <trkpt lat="36.9099" lon="30.71182">
        <ele>55.606946</ele>
        <time>2022-02-25T21:02:21.677Z</time>
      </trkpt>
      <trkpt lat="36.91002" lon="30.7116">
        <ele>55.646597</ele>
        <time>2022-02-25T21:02:28.243Z</time>
      </trkpt>
      <trkpt lat="36.91008" lon="30.71138">
        <ele>55.681365</ele>
        <time>2022-02-25T21:02:33.681Z</time>
      </trkpt>
      <trkpt lat="36.91009" lon="30.71121">
        <ele>55.705815</ele>
        <time>2022-02-25T21:02:37.673Z</time>
      </trkpt>
      <trkpt lat="36.91016" lon="30.71058">
        <ele>55.800674</ele>
        <time>2022-02-25T21:02:51.872Z</time>
      </trkpt>
      <trkpt lat="36.91007" lon="30.71049">
        <ele>55.821965</ele>
        <time>2022-02-25T21:02:55.113Z</time>
      </trkpt>
      <trkpt lat="36.90985" lon="30.71031">
        <ele>55.784404</ele>
        <time>2022-02-25T21:03:02.113Z</time>
      </trkpt>
      <trkpt lat="36.9097" lon="30.71008">
        <ele>55.737349</ele>
        <time>2022-02-25T21:03:08.575Z</time>
      </trkpt>
      <trkpt lat="36.90961" lon="30.70974">
        <ele>55.679535</ele>
        <time>2022-02-25T21:03:16.348Z</time>
      </trkpt>
      <trkpt lat="36.9096" lon="30.70964">
        <ele>55.663387</ele>
        <time>2022-02-25T21:03:18.485Z</time>
      </trkpt>
      <trkpt lat="36.90939" lon="30.70901">
        <ele>55.556229</ele>
        <time>2022-02-25T21:03:32.753Z</time>
      </trkpt>
      <trkpt lat="36.90933" lon="30.70883">
        <ele>55.524262</ele>
        <time>2022-02-25T21:03:36.975Z</time>
      </trkpt>
      <trkpt lat="36.90914" lon="30.70815">
        <ele>55.461247</ele>
        <time>2022-02-25T21:03:52.231Z</time>
      </trkpt>
      <trkpt lat="36.90905" lon="30.70768">
        <ele>55.449382</ele>
        <time>2022-02-25T21:04:02.768Z</time>
      </trkpt>
      <trkpt lat="36.90897" lon="30.70699">
        <ele>55.432422</ele>
        <time>2022-02-25T21:04:18.320Z</time>
      </trkpt>
      <trkpt lat="36.90889" lon="30.70653">
        <ele>55.420864</ele>
        <time>2022-02-25T21:04:29.336Z</time>
      </trkpt>
      <trkpt lat="36.90874" lon="30.70591">
        <ele>55.433502</ele>
        <time>2022-02-25T21:04:44.176Z</time>
      </trkpt>
      <trkpt lat="36.90824" lon="30.70601">
        <ele>55.459888</ele>
        <time>2022-02-25T21:04:58.264Z</time>
      </trkpt>
      <trkpt lat="36.9082" lon="30.70523">
        <ele>55.492344</ele>
        <time>2022-02-25T21:05:15.546Z</time>
      </trkpt>
      <trkpt lat="36.90817" lon="30.70484">
        <ele>55.508513</ele>
        <time>2022-02-25T21:05:23.815Z</time>
      </trkpt>
      <trkpt lat="36.90815" lon="30.70472">
        <ele>55.502674</ele>
        <time>2022-02-25T21:05:26.274Z</time>
      </trkpt>
      <trkpt lat="36.90799" lon="30.70403">
        <ele>55.467868</ele>
        <time>2022-02-25T21:05:40.826Z</time>
      </trkpt>
      <trkpt lat="36.90793" lon="30.70385">
        <ele>55.458102</ele>
        <time>2022-02-25T21:05:44.962Z</time>
      </trkpt>
      <trkpt lat="36.90776" lon="30.70334">
        <ele>55.430848</ele>
        <time>2022-02-25T21:05:56.455Z</time>
      </trkpt>
      <trkpt lat="36.90773" lon="30.70329">
        <ele>55.428232</ele>
        <time>2022-02-25T21:05:57.565Z</time>
      </trkpt>
      <trkpt lat="36.90751" lon="30.70256">
        <ele>55.48693</ele>
        <time>2022-02-25T21:06:14.704Z</time>
      </trkpt>
      <trkpt lat="36.90739" lon="30.70213">
        <ele>55.699022</ele>
        <time>2022-02-25T21:06:24.993Z</time>
      </trkpt>
      <trkpt lat="36.90723" lon="30.70156">
        <ele>55.983975</ele>
        <time>2022-02-25T21:06:39.239Z</time>
      </trkpt>
      <trkpt lat="36.90725" lon="30.7012">
        <ele>56.156035</ele>
        <time>2022-02-25T21:06:48.103Z</time>
      </trkpt>
      <trkpt lat="36.90729" lon="30.70075">
        <ele>56.370187</ele>
        <time>2022-02-25T21:06:59.117Z</time>
      </trkpt>
      <trkpt lat="36.90733" lon="30.70025">
        <ele>56.673836</ele>
        <time>2022-02-25T21:07:11.413Z</time>
      </trkpt>
      <trkpt lat="36.90731" lon="30.70019">
        <ele>56.717515</ele>
        <time>2022-02-25T21:07:13.078Z</time>
      </trkpt>
      <trkpt lat="36.90729" lon="30.69997">
        <ele>56.871761</ele>
        <time>2022-02-25T21:07:18.725Z</time>
      </trkpt>
      <trkpt lat="36.90728" lon="30.6998">
        <ele>56.993113</ele>
        <time>2022-02-25T21:07:22.891Z</time>
      </trkpt>
      <trkpt lat="36.90729" lon="30.69963">
        <ele>57.113329</ele>
        <time>2022-02-25T21:07:27.531Z</time>
      </trkpt>
      <trkpt lat="36.90732" lon="30.69961">
        <ele>57.139755</ele>
        <time>2022-02-25T21:07:28.323Z</time>
      </trkpt>
      <trkpt lat="36.90733" lon="30.69944">
        <ele>57.259592</ele>
        <time>2022-02-25T21:07:32.717Z</time>
      </trkpt>
      <trkpt lat="36.90732" lon="30.69941">
        <ele>57.285248</ele>
        <time>2022-02-25T21:07:33.534Z</time>
      </trkpt>
      <trkpt lat="36.90729" lon="30.69939">
        <ele>57.310985</ele>
        <time>2022-02-25T21:07:34.454Z</time>
      </trkpt>
      <trkpt lat="36.90724" lon="30.69937">
        <ele>57.361696</ele>
        <time>2022-02-25T21:07:36.542Z</time>
      </trkpt>
      <trkpt lat="36.90721" lon="30.69937">
        <ele>57.388146</ele>
        <time>2022-02-25T21:07:37.508Z</time>
      </trkpt>
      <trkpt lat="36.90712" lon="30.69941">
        <ele>57.473741</ele>
        <time>2022-02-25T21:07:40.733Z</time>
      </trkpt>
      <trkpt lat="36.9069" lon="30.69957">
        <ele>57.689522</ele>
        <time>2022-02-25T21:07:48.654Z</time>
      </trkpt>
      <trkpt lat="36.90599" lon="30.69993">
        <ele>57.923426</ele>
        <time>2022-02-25T21:08:16.399Z</time>
      </trkpt>
      <trkpt lat="36.90598" lon="30.69946">
        <ele>57.848158</ele>
        <time>2022-02-25T21:08:26.497Z</time>
      </trkpt>
      <trkpt lat="36.90549" lon="30.69935">
        <ele>57.75003</ele>
        <time>2022-02-25T21:08:39.193Z</time>
      </trkpt>
      <trkpt lat="36.90501" lon="30.69926">
        <ele>57.550096</ele>
        <time>2022-02-25T21:08:51.269Z</time>
      </trkpt>
      <trkpt lat="36.90483" lon="30.69902">
        <ele>57.267599</ele>
        <time>2022-02-25T21:08:57.618Z</time>
      </trkpt>
      <trkpt lat="36.90474" lon="30.69872">
        <ele>56.993114</ele>
        <time>2022-02-25T21:09:03.646Z</time>
      </trkpt>
      <trkpt lat="36.90459" lon="30.69841">
        <ele>56.676176</ele>
        <time>2022-02-25T21:09:10.459Z</time>
      </trkpt>
      <trkpt lat="36.90445" lon="30.69801">
        <ele>56.310145</ele>
        <time>2022-02-25T21:09:18.385Z</time>
      </trkpt>
      <trkpt lat="36.90427" lon="30.69797">
        <ele>56.114173</ele>
        <time>2022-02-25T21:09:22.679Z</time>
      </trkpt>
      <trkpt lat="36.90412" lon="30.69795">
        <ele>55.946959</ele>
        <time>2022-02-25T21:09:26.409Z</time>
      </trkpt>
      <trkpt lat="36.90377" lon="30.6979">
        <ele>55.686388</ele>
        <time>2022-02-25T21:09:35.035Z</time>
      </trkpt>
      <trkpt lat="36.90362" lon="30.69795">
        <ele>55.632434</ele>
        <time>2022-02-25T21:09:39.034Z</time>
      </trkpt>
      <trkpt lat="36.90341" lon="30.69807">
        <ele>55.553342</ele>
        <time>2022-02-25T21:09:45.255Z</time>
      </trkpt>
      <trkpt lat="36.90316" lon="30.69821">
        <ele>55.459865</ele>
        <time>2022-02-25T21:09:52.480Z</time>
      </trkpt>
      <trkpt lat="36.90282" lon="30.69832">
        <ele>55.340068</ele>
        <time>2022-02-25T21:10:01.929Z</time>
      </trkpt>
      <trkpt lat="36.90267" lon="30.69833">
        <ele>55.291024</ele>
        <time>2022-02-25T21:10:06.024Z</time>
      </trkpt>
      <trkpt lat="36.90219" lon="30.69843">
        <ele>55.123527</ele>
        <time>2022-02-25T21:10:19.314Z</time>
      </trkpt>
      <trkpt lat="36.902" lon="30.69844">
        <ele>55.063038</ele>
        <time>2022-02-25T21:10:24.842Z</time>
      </trkpt>
      <trkpt lat="36.9018" lon="30.69813">
        <ele>54.962763</ele>
        <time>2022-02-25T21:10:33.122Z</time>
      </trkpt>
      <trkpt lat="36.90159" lon="30.69774">
        <ele>54.845395</ele>
        <time>2022-02-25T21:10:42.568Z</time>
      </trkpt>
      <trkpt lat="36.90133" lon="30.6969">
        <ele>54.620322</ele>
        <time>2022-02-25T21:11:00.064Z</time>
      </trkpt>
      <trkpt lat="36.90126" lon="30.69669">
        <ele>54.563487</ele>
        <time>2022-02-25T21:11:04.917Z</time>
      </trkpt>
      <trkpt lat="36.90101" lon="30.69623">
        <ele>54.613524</ele>
        <time>2022-02-25T21:11:16.212Z</time>
      </trkpt>
      <trkpt lat="36.90103" lon="30.6961">
        <ele>54.625305</ele>
        <time>2022-02-25T21:11:18.815Z</time>
      </trkpt>
      <trkpt lat="36.90101" lon="30.69577">
        <ele>54.655567</ele>
        <time>2022-02-25T21:11:26.247Z</time>
      </trkpt>
      <trkpt lat="36.90105" lon="30.69562">
        <ele>54.669993</ele>
        <time>2022-02-25T21:11:29.708Z</time>
      </trkpt>
      <trkpt lat="36.90107" lon="30.69559">
        <ele>54.673487</ele>
        <time>2022-02-25T21:11:30.657Z</time>
      </trkpt>
      <trkpt lat="36.90108" lon="30.69556">
        <ele>54.677007</ele>
        <time>2022-02-25T21:11:31.636Z</time>
      </trkpt>
      <trkpt lat="36.90109" lon="30.69552">
        <ele>54.680569</ele>
        <time>2022-02-25T21:11:32.592Z</time>
      </trkpt>
      <trkpt lat="36.90109" lon="30.69548">
        <ele>54.684104</ele>
        <time>2022-02-25T21:11:33.439Z</time>
      </trkpt>
      <trkpt lat="36.90105" lon="30.69538">
        <ele>54.694405</ele>
        <time>2022-02-25T21:11:35.929Z</time>
      </trkpt>
      <trkpt lat="36.90102" lon="30.69536">
        <ele>54.697917</ele>
        <time>2022-02-25T21:11:36.752Z</time>
      </trkpt>
      <trkpt lat="36.90099" lon="30.69535">
        <ele>54.701436</ele>
        <time>2022-02-25T21:11:37.565Z</time>
      </trkpt>
      <trkpt lat="36.90096" lon="30.69535">
        <ele>54.704951</ele>
        <time>2022-02-25T21:11:38.383Z</time>
      </trkpt>
      <trkpt lat="36.90082" lon="30.69529">
        <ele>54.721787</ele>
        <time>2022-02-25T21:11:43.076Z</time>
      </trkpt>
      <trkpt lat="36.89943" lon="30.69403">
        <ele>54.626287</ele>
        <time>2022-02-25T21:12:30.967Z</time>
      </trkpt>
      <trkpt lat="36.89937" lon="30.69384">
        <ele>54.608766</ele>
        <time>2022-02-25T21:12:34.959Z</time>
      </trkpt>
      <trkpt lat="36.89936" lon="30.6938">
        <ele>54.60532</ele>
        <time>2022-02-25T21:12:35.766Z</time>
      </trkpt>
      <trkpt lat="36.89935" lon="30.69376">
        <ele>54.601807</ele>
        <time>2022-02-25T21:12:36.578Z</time>
      </trkpt>
      <trkpt lat="36.89937" lon="30.69361">
        <ele>54.589052</ele>
        <time>2022-02-25T21:12:39.410Z</time>
      </trkpt>
      <trkpt lat="36.89938" lon="30.69354">
        <ele>54.5827</ele>
        <time>2022-02-25T21:12:40.552Z</time>
      </trkpt>
      <trkpt lat="36.89949" lon="30.6917">
        <ele>53.601271</ele>
        <time>2022-02-25T21:13:14.590Z</time>
      </trkpt>
      <trkpt lat="36.89957" lon="30.69146">
        <ele>53.455869</ele>
        <time>2022-02-25T21:13:19.879Z</time>
      </trkpt>
      <trkpt lat="36.90068" lon="30.68947">
        <ele>53.953742</ele>
        <time>2022-02-25T21:14:15.126Z</time>
      </trkpt>
      <trkpt lat="36.90079" lon="30.68925">
        <ele>54.056051</ele>
        <time>2022-02-25T21:14:22.016Z</time>
      </trkpt>
      <trkpt lat="36.9009" lon="30.68935">
        <ele>54.126631</ele>
        <time>2022-02-25T21:14:25.627Z</time>
      </trkpt>
      <trkpt lat="36.90116" lon="30.68956">
        <ele>54.295387</ele>
        <time>2022-02-25T21:14:35.620Z</time>
      </trkpt>
      <trkpt lat="36.90164" lon="30.68997">
        <ele>54.608313</ele>
        <time>2022-02-25T21:14:54.346Z</time>
      </trkpt>
      <trkpt lat="36.90113" lon="30.69097">
        <ele>54.826719</ele>
        <time>2022-02-25T21:15:20.710Z</time>
      </trkpt>
      <trkpt lat="36.90142" lon="30.69119">
        <ele>54.698548</ele>
        <time>2022-02-25T21:15:29.830Z</time>
      </trkpt>
      <trkpt lat="36.90055" lon="30.69291">
        <ele>54.273343</ele>
        <time>2022-02-25T21:16:11.531Z</time>
      </trkpt>
      <trkpt lat="36.90022" lon="30.69269">
        <ele>54.273343</ele>
        <time>2022-02-25T21:16:21.105Z</time>
      </trkpt>
      <trkpt lat="36.89987" lon="30.69341">
        <ele>54.273343</ele>
        <time>2022-02-25T21:16:39.716Z</time>
      </trkpt>
      <trkpt lat="36.90071" lon="30.69405">
        <ele>54.273343</ele>
        <time>2022-02-25T21:17:09.366Z</time>
      </trkpt>
    </trkseg>
  </trk>
</gpx>